<?xml version='1.0' encoding='UTF-8'?><gpx version="1.1" creator="JPX - https://github.com/jenetics/jpx" xmlns="http://www.topografix.com/GPX/1/1"><trk><trkseg><trkpt lat="43.6168556" lon="12.6708902"><ele>205.0</ele><time>2026-04-25T11:38:40.202Z</time></trkpt><trkpt lat="43.6167767" lon="12.6708283"><ele>205.0</ele><time>2026-04-25T11:39:05.938Z</time></trkpt><trkpt lat="43.6168317" lon="12.6706333"><ele>205.0</ele><time>2026-04-25T11:39:25.938Z</time></trkpt><trkpt lat="43.616845" lon="12.6705083"><ele>205.0</ele><time>2026-04-25T11:39:27.938Z</time></trkpt><trkpt lat="43.6168733" lon="12.6704083"><ele>205.0</ele><time>2026-04-25T11:39:29.938Z</time></trkpt><trkpt lat="43.6169633" lon="12.6703917"><ele>205.6</ele><time>2026-04-25T11:39:32.938Z</time></trkpt><trkpt lat="43.6170267" lon="12.670485"><ele>206.2</ele><time>2026-04-25T11:39:34.936Z</time></trkpt><trkpt lat="43.6170917" lon="12.670605"><ele>206.8</ele><time>2026-04-25T11:39:36.936Z</time></trkpt><trkpt lat="43.6171717" lon="12.6707367"><ele>207.4</ele><time>2026-04-25T11:39:38.937Z</time></trkpt><trkpt lat="43.617215" lon="12.6708033"><ele>208.0</ele><time>2026-04-25T11:39:39.937Z</time></trkpt><trkpt lat="43.6172567" lon="12.670875"><ele>208.0</ele><time>2026-04-25T11:39:40.937Z</time></trkpt><trkpt lat="43.617295" lon="12.67095"><ele>208.0</ele><time>2026-04-25T11:39:41.937Z</time></trkpt><trkpt lat="43.6173367" lon="12.6710233"><ele>208.0</ele><time>2026-04-25T11:39:42.937Z</time></trkpt><trkpt lat="43.6173767" lon="12.6710933"><ele>208.0</ele><time>2026-04-25T11:39:43.937Z</time></trkpt><trkpt lat="43.6174183" lon="12.671165"><ele>208.0</ele><time>2026-04-25T11:39:44.937Z</time></trkpt><trkpt lat="43.6174617" lon="12.6712283"><ele>208.0</ele><time>2026-04-25T11:39:45.937Z</time></trkpt><trkpt lat="43.6175317" lon="12.671325"><ele>208.0</ele><time>2026-04-25T11:39:47.937Z</time></trkpt><trkpt lat="43.6176583" lon="12.6713683"><ele>207.66666666666666</ele><time>2026-04-25T11:39:50.936Z</time></trkpt><trkpt lat="43.61773" lon="12.6713517"><ele>207.33333333333331</ele><time>2026-04-25T11:39:52.937Z</time></trkpt><trkpt lat="43.6178217" lon="12.6712733"><ele>207.0</ele><time>2026-04-25T11:39:55.937Z</time></trkpt><trkpt lat="43.617925" lon="12.67122"><ele>206.66666666666669</ele><time>2026-04-25T11:39:57.937Z</time></trkpt><trkpt lat="43.6179883" lon="12.6712067"><ele>206.33333333333334</ele><time>2026-04-25T11:39:58.936Z</time></trkpt><trkpt lat="43.6180583" lon="12.6711917"><ele>206.0</ele><time>2026-04-25T11:39:59.936Z</time></trkpt><trkpt lat="43.6181367" lon="12.6711767"><ele>206.00000000000003</ele><time>2026-04-25T11:40:00.937Z</time></trkpt><trkpt lat="43.6182133" lon="12.6711683"><ele>206.0</ele><time>2026-04-25T11:40:01.937Z</time></trkpt><trkpt lat="43.6182933" lon="12.6711633"><ele>206.0</ele><time>2026-04-25T11:40:02.937Z</time></trkpt><trkpt lat="43.6183817" lon="12.67116"><ele>206.0</ele><time>2026-04-25T11:40:03.936Z</time></trkpt><trkpt lat="43.618475" lon="12.6711633"><ele>206.00000000000003</ele><time>2026-04-25T11:40:04.937Z</time></trkpt><trkpt lat="43.6185733" lon="12.671165"><ele>206.0</ele><time>2026-04-25T11:40:05.936Z</time></trkpt><trkpt lat="43.6186717" lon="12.6711633"><ele>206.8</ele><time>2026-04-25T11:40:06.936Z</time></trkpt><trkpt lat="43.6187683" lon="12.67116"><ele>207.60000000000002</ele><time>2026-04-25T11:40:07.937Z</time></trkpt><trkpt lat="43.618865" lon="12.6711567"><ele>208.4</ele><time>2026-04-25T11:40:08.937Z</time></trkpt><trkpt lat="43.6189683" lon="12.6711433"><ele>209.2</ele><time>2026-04-25T11:40:09.937Z</time></trkpt><trkpt lat="43.6190717" lon="12.6711233"><ele>210.0</ele><time>2026-04-25T11:40:10.937Z</time></trkpt><trkpt lat="43.619175" lon="12.6711017"><ele>213.4</ele><time>2026-04-25T11:40:11.937Z</time></trkpt><trkpt lat="43.619275" lon="12.67107"><ele>216.8</ele><time>2026-04-25T11:40:12.937Z</time></trkpt><trkpt lat="43.61938" lon="12.6710383"><ele>220.2</ele><time>2026-04-25T11:40:13.937Z</time></trkpt><trkpt lat="43.6194917" lon="12.67102"><ele>223.6</ele><time>2026-04-25T11:40:14.937Z</time></trkpt><trkpt lat="43.61961" lon="12.6710217"><ele>227.0</ele><time>2026-04-25T11:40:15.937Z</time></trkpt><trkpt lat="43.6197217" lon="12.6710467"><ele>228.66666666666669</ele><time>2026-04-25T11:40:16.937Z</time></trkpt><trkpt lat="43.6198283" lon="12.671075"><ele>230.33333333333334</ele><time>2026-04-25T11:40:17.936Z</time></trkpt><trkpt lat="43.619925" lon="12.67108"><ele>232.0</ele><time>2026-04-25T11:40:18.937Z</time></trkpt><trkpt lat="43.6200017" lon="12.6710467"><ele>233.66666666666669</ele><time>2026-04-25T11:40:19.937Z</time></trkpt><trkpt lat="43.6200567" lon="12.6709767"><ele>235.33333333333334</ele><time>2026-04-25T11:40:20.937Z</time></trkpt><trkpt lat="43.62009" lon="12.6708833"><ele>237.0</ele><time>2026-04-25T11:40:21.937Z</time></trkpt><trkpt lat="43.6200817" lon="12.670765"><ele>237.0</ele><time>2026-04-25T11:40:22.937Z</time></trkpt><trkpt lat="43.6200283" lon="12.670645"><ele>237.0</ele><time>2026-04-25T11:40:23.937Z</time></trkpt><trkpt lat="43.6199433" lon="12.6705333"><ele>237.0</ele><time>2026-04-25T11:40:24.936Z</time></trkpt><trkpt lat="43.6198567" lon="12.6704133"><ele>237.0</ele><time>2026-04-25T11:40:25.937Z</time></trkpt><trkpt lat="43.6197783" lon="12.6702783"><ele>240.5</ele><time>2026-04-25T11:40:26.937Z</time></trkpt><trkpt lat="43.619715" lon="12.6701333"><ele>244.0</ele><time>2026-04-25T11:40:27.937Z</time></trkpt><trkpt lat="43.619685" lon="12.6699883"><ele>247.5</ele><time>2026-04-25T11:40:28.937Z</time></trkpt><trkpt lat="43.6196883" lon="12.6698317"><ele>251.0</ele><time>2026-04-25T11:40:29.936Z</time></trkpt><trkpt lat="43.6197167" lon="12.669675"><ele>251.0</ele><time>2026-04-25T11:40:30.936Z</time></trkpt><trkpt lat="43.6197567" lon="12.66952"><ele>251.0</ele><time>2026-04-25T11:40:31.937Z</time></trkpt><trkpt lat="43.6198067" lon="12.66936"><ele>251.0</ele><time>2026-04-25T11:40:32.937Z</time></trkpt><trkpt lat="43.6198683" lon="12.6692"><ele>251.0</ele><time>2026-04-25T11:40:33.937Z</time></trkpt><trkpt lat="43.61994" lon="12.66904"><ele>252.60000000000002</ele><time>2026-04-25T11:40:34.937Z</time></trkpt><trkpt lat="43.620015" lon="12.668885"><ele>254.20000000000002</ele><time>2026-04-25T11:40:35.937Z</time></trkpt><trkpt lat="43.62008" lon="12.6687417"><ele>255.79999999999998</ele><time>2026-04-25T11:40:36.937Z</time></trkpt><trkpt lat="43.6201383" lon="12.6686183"><ele>257.4</ele><time>2026-04-25T11:40:37.936Z</time></trkpt><trkpt lat="43.6201967" lon="12.6685333"><ele>259.0</ele><time>2026-04-25T11:40:38.937Z</time></trkpt><trkpt lat="43.6202483" lon="12.6684717"><ele>259.0</ele><time>2026-04-25T11:40:39.937Z</time></trkpt><trkpt lat="43.620335" lon="12.66856"><ele>259.0</ele><time>2026-04-25T11:40:41.937Z</time></trkpt><trkpt lat="43.6203567" lon="12.66866"><ele>259.0</ele><time>2026-04-25T11:40:42.937Z</time></trkpt><trkpt lat="43.62035" lon="12.6687883"><ele>259.0</ele><time>2026-04-25T11:40:43.936Z</time></trkpt><trkpt lat="43.62033" lon="12.668935"><ele>259.0</ele><time>2026-04-25T11:40:44.937Z</time></trkpt><trkpt lat="43.62031" lon="12.6690967"><ele>259.0</ele><time>2026-04-25T11:40:45.937Z</time></trkpt><trkpt lat="43.6203033" lon="12.6692717"><ele>259.0</ele><time>2026-04-25T11:40:46.936Z</time></trkpt><trkpt lat="43.62028" lon="12.6694483"><ele>259.0</ele><time>2026-04-25T11:40:47.937Z</time></trkpt><trkpt lat="43.6202583" lon="12.66963"><ele>259.0</ele><time>2026-04-25T11:40:48.937Z</time></trkpt><trkpt lat="43.6202283" lon="12.6698033"><ele>257.66666666666663</ele><time>2026-04-25T11:40:49.937Z</time></trkpt><trkpt lat="43.6202217" lon="12.6699467"><ele>256.3333333333333</ele><time>2026-04-25T11:40:50.937Z</time></trkpt><trkpt lat="43.6202217" lon="12.670045"><ele>255.0</ele><time>2026-04-25T11:40:51.937Z</time></trkpt><trkpt lat="43.6202767" lon="12.6699833"><ele>253.66666666666669</ele><time>2026-04-25T11:40:54.937Z</time></trkpt><trkpt lat="43.6203083" lon="12.66989"><ele>252.33333333333334</ele><time>2026-04-25T11:40:55.937Z</time></trkpt><trkpt lat="43.620345" lon="12.66979"><ele>251.0</ele><time>2026-04-25T11:40:56.936Z</time></trkpt><trkpt lat="43.6204017" lon="12.6696867"><ele>257.25</ele><time>2026-04-25T11:40:57.937Z</time></trkpt><trkpt lat="43.620475" lon="12.6695667"><ele>263.5</ele><time>2026-04-25T11:40:58.937Z</time></trkpt><trkpt lat="43.6205517" lon="12.6694317"><ele>269.75</ele><time>2026-04-25T11:40:59.937Z</time></trkpt><trkpt lat="43.6206283" lon="12.6692867"><ele>276.0</ele><time>2026-04-25T11:41:00.937Z</time></trkpt><trkpt lat="43.6206967" lon="12.66913"><ele>278.25</ele><time>2026-04-25T11:41:01.937Z</time></trkpt><trkpt lat="43.6207633" lon="12.6689683"><ele>280.5</ele><time>2026-04-25T11:41:02.937Z</time></trkpt><trkpt lat="43.6208233" lon="12.6688017"><ele>282.75</ele><time>2026-04-25T11:41:03.937Z</time></trkpt><trkpt lat="43.62088" lon="12.6686367"><ele>285.0</ele><time>2026-04-25T11:41:04.937Z</time></trkpt><trkpt lat="43.6209383" lon="12.6684683"><ele>285.5</ele><time>2026-04-25T11:41:05.937Z</time></trkpt><trkpt lat="43.6209917" lon="12.6682883"><ele>286.0</ele><time>2026-04-25T11:41:06.937Z</time></trkpt><trkpt lat="43.6210517" lon="12.6681117"><ele>286.5</ele><time>2026-04-25T11:41:07.937Z</time></trkpt><trkpt lat="43.6211217" lon="12.6679383"><ele>287.0</ele><time>2026-04-25T11:41:08.937Z</time></trkpt><trkpt lat="43.621195" lon="12.66777"><ele>297.0</ele><time>2026-04-25T11:41:09.937Z</time></trkpt><trkpt lat="43.6212683" lon="12.6676017"><ele>307.0</ele><time>2026-04-25T11:41:10.937Z</time></trkpt><trkpt lat="43.621355" lon="12.6674417"><ele>317.0</ele><time>2026-04-25T11:41:11.936Z</time></trkpt><trkpt lat="43.621445" lon="12.6672833"><ele>327.0</ele><time>2026-04-25T11:41:12.937Z</time></trkpt><trkpt lat="43.6215333" lon="12.6671283"><ele>327.0</ele><time>2026-04-25T11:41:13.937Z</time></trkpt><trkpt lat="43.6216283" lon="12.6669767"><ele>327.0</ele><time>2026-04-25T11:41:14.937Z</time></trkpt><trkpt lat="43.6217417" lon="12.6668467"><ele>327.0</ele><time>2026-04-25T11:41:15.937Z</time></trkpt><trkpt lat="43.6218583" lon="12.666715"><ele>327.0</ele><time>2026-04-25T11:41:16.936Z</time></trkpt><trkpt lat="43.621975" lon="12.6665817"><ele>332.3333333333333</ele><time>2026-04-25T11:41:17.937Z</time></trkpt><trkpt lat="43.6220967" lon="12.6664567"><ele>337.66666666666663</ele><time>2026-04-25T11:41:18.937Z</time></trkpt><trkpt lat="43.6222217" lon="12.6663333"><ele>343.0</ele><time>2026-04-25T11:41:19.937Z</time></trkpt><trkpt lat="43.6223583" lon="12.6662333"><ele>343.0</ele><time>2026-04-25T11:41:20.937Z</time></trkpt><trkpt lat="43.622495" lon="12.6661583"><ele>343.0</ele><time>2026-04-25T11:41:21.937Z</time></trkpt><trkpt lat="43.6226167" lon="12.6660917"><ele>343.0</ele><time>2026-04-25T11:41:22.937Z</time></trkpt><trkpt lat="43.62272" lon="12.6660317"><ele>343.0</ele><time>2026-04-25T11:41:23.937Z</time></trkpt><trkpt lat="43.6228033" lon="12.665985"><ele>343.0</ele><time>2026-04-25T11:41:24.936Z</time></trkpt><trkpt lat="43.622865" lon="12.6659667"><ele>343.0</ele><time>2026-04-25T11:41:25.937Z</time></trkpt><trkpt lat="43.62291" lon="12.6660633"><ele>343.0</ele><time>2026-04-25T11:41:27.937Z</time></trkpt><trkpt lat="43.6228483" lon="12.6661967"><ele>343.0</ele><time>2026-04-25T11:41:29.937Z</time></trkpt><trkpt lat="43.6227583" lon="12.6663167"><ele>343.0</ele><time>2026-04-25T11:41:31.937Z</time></trkpt><trkpt lat="43.6227133" lon="12.6664317"><ele>343.0</ele><time>2026-04-25T11:41:33.937Z</time></trkpt><trkpt lat="43.622805" lon="12.6664367"><ele>343.0</ele><time>2026-04-25T11:41:36.937Z</time></trkpt><trkpt lat="43.62292" lon="12.666395"><ele>343.0</ele><time>2026-04-25T11:41:38.937Z</time></trkpt><trkpt lat="43.6229867" lon="12.6663717"><ele>343.0</ele><time>2026-04-25T11:41:39.937Z</time></trkpt><trkpt lat="43.6230583" lon="12.6663483"><ele>343.0</ele><time>2026-04-25T11:41:40.937Z</time></trkpt><trkpt lat="43.6231367" lon="12.666325"><ele>343.0</ele><time>2026-04-25T11:41:41.937Z</time></trkpt><trkpt lat="43.6232233" lon="12.666315"><ele>344.59999999999997</ele><time>2026-04-25T11:41:42.937Z</time></trkpt><trkpt lat="43.62331" lon="12.666325"><ele>346.2</ele><time>2026-04-25T11:41:43.937Z</time></trkpt><trkpt lat="43.6234017" lon="12.6663517"><ele>347.8</ele><time>2026-04-25T11:41:44.937Z</time></trkpt><trkpt lat="43.6234933" lon="12.6663933"><ele>349.4</ele><time>2026-04-25T11:41:45.937Z</time></trkpt><trkpt lat="43.6235933" lon="12.6664333"><ele>351.0</ele><time>2026-04-25T11:41:46.937Z</time></trkpt><trkpt lat="43.623695" lon="12.6664733"><ele>352.4</ele><time>2026-04-25T11:41:47.937Z</time></trkpt><trkpt lat="43.623795" lon="12.6665117"><ele>353.8</ele><time>2026-04-25T11:41:48.937Z</time></trkpt><trkpt lat="43.6238917" lon="12.666525"><ele>355.2</ele><time>2026-04-25T11:41:49.936Z</time></trkpt><trkpt lat="43.62398" lon="12.6665"><ele>356.59999999999997</ele><time>2026-04-25T11:41:50.937Z</time></trkpt><trkpt lat="43.62406" lon="12.6664517"><ele>358.0</ele><time>2026-04-25T11:41:51.937Z</time></trkpt><trkpt lat="43.6241283" lon="12.666375"><ele>358.0</ele><time>2026-04-25T11:41:52.937Z</time></trkpt><trkpt lat="43.6241883" lon="12.6662733"><ele>358.0</ele><time>2026-04-25T11:41:53.936Z</time></trkpt><trkpt lat="43.624245" lon="12.6661517"><ele>358.0</ele><time>2026-04-25T11:41:54.937Z</time></trkpt><trkpt lat="43.62431" lon="12.6660167"><ele>358.0</ele><time>2026-04-25T11:41:55.937Z</time></trkpt><trkpt lat="43.6243767" lon="12.6658683"><ele>358.0</ele><time>2026-04-25T11:41:56.937Z</time></trkpt><trkpt lat="43.624445" lon="12.6656983"><ele>356.25</ele><time>2026-04-25T11:41:57.937Z</time></trkpt><trkpt lat="43.6245133" lon="12.6655167"><ele>354.5</ele><time>2026-04-25T11:41:58.936Z</time></trkpt><trkpt lat="43.6245733" lon="12.6653283"><ele>352.75</ele><time>2026-04-25T11:41:59.937Z</time></trkpt><trkpt lat="43.6246317" lon="12.6651417"><ele>351.0</ele><time>2026-04-25T11:42:00.937Z</time></trkpt><trkpt lat="43.6246883" lon="12.664955"><ele>355.5</ele><time>2026-04-25T11:42:01.937Z</time></trkpt><trkpt lat="43.6247567" lon="12.6647733"><ele>360.0</ele><time>2026-04-25T11:42:02.937Z</time></trkpt><trkpt lat="43.624835" lon="12.6646"><ele>364.5</ele><time>2026-04-25T11:42:03.937Z</time></trkpt><trkpt lat="43.6249217" lon="12.6644383"><ele>369.0</ele><time>2026-04-25T11:42:04.936Z</time></trkpt><trkpt lat="43.62502" lon="12.6642933"><ele>375.0</ele><time>2026-04-25T11:42:05.937Z</time></trkpt><trkpt lat="43.6251083" lon="12.664165"><ele>381.0</ele><time>2026-04-25T11:42:06.937Z</time></trkpt><trkpt lat="43.6251833" lon="12.6640383"><ele>387.0</ele><time>2026-04-25T11:42:07.937Z</time></trkpt><trkpt lat="43.625245" lon="12.6638883"><ele>393.0</ele><time>2026-04-25T11:42:08.937Z</time></trkpt><trkpt lat="43.6253083" lon="12.663745"><ele>395.5</ele><time>2026-04-25T11:42:09.937Z</time></trkpt><trkpt lat="43.625385" lon="12.6636117"><ele>398.0</ele><time>2026-04-25T11:42:10.936Z</time></trkpt><trkpt lat="43.6254783" lon="12.6634917"><ele>400.5</ele><time>2026-04-25T11:42:11.937Z</time></trkpt><trkpt lat="43.62558" lon="12.6633883"><ele>403.0</ele><time>2026-04-25T11:42:12.937Z</time></trkpt><trkpt lat="43.6256817" lon="12.663315"><ele>403.0</ele><time>2026-04-25T11:42:13.936Z</time></trkpt><trkpt lat="43.62577" lon="12.6632717"><ele>403.0</ele><time>2026-04-25T11:42:14.936Z</time></trkpt><trkpt lat="43.62586" lon="12.6632633"><ele>403.0</ele><time>2026-04-25T11:42:15.937Z</time></trkpt><trkpt lat="43.6259433" lon="12.6632933"><ele>403.0</ele><time>2026-04-25T11:42:16.937Z</time></trkpt><trkpt lat="43.626035" lon="12.6633483"><ele>403.0</ele><time>2026-04-25T11:42:17.937Z</time></trkpt><trkpt lat="43.6261317" lon="12.6633967"><ele>404.0</ele><time>2026-04-25T11:42:18.937Z</time></trkpt><trkpt lat="43.62624" lon="12.6634183"><ele>405.0</ele><time>2026-04-25T11:42:19.937Z</time></trkpt><trkpt lat="43.6263617" lon="12.663425"><ele>406.0</ele><time>2026-04-25T11:42:20.937Z</time></trkpt><trkpt lat="43.626485" lon="12.6634283"><ele>407.0</ele><time>2026-04-25T11:42:21.937Z</time></trkpt><trkpt lat="43.6266067" lon="12.6634333"><ele>407.0</ele><time>2026-04-25T11:42:22.937Z</time></trkpt><trkpt lat="43.626725" lon="12.6634283"><ele>407.0</ele><time>2026-04-25T11:42:23.937Z</time></trkpt><trkpt lat="43.6268233" lon="12.6634083"><ele>407.0</ele><time>2026-04-25T11:42:24.937Z</time></trkpt><trkpt lat="43.6269033" lon="12.6633617"><ele>407.0</ele><time>2026-04-25T11:42:25.937Z</time></trkpt><trkpt lat="43.6269733" lon="12.66328"><ele>407.0</ele><time>2026-04-25T11:42:26.937Z</time></trkpt><trkpt lat="43.62703" lon="12.6631667"><ele>409.0</ele><time>2026-04-25T11:42:27.936Z</time></trkpt><trkpt lat="43.6270817" lon="12.66303"><ele>411.0</ele><time>2026-04-25T11:42:28.937Z</time></trkpt><trkpt lat="43.6271317" lon="12.6628783"><ele>413.0</ele><time>2026-04-25T11:42:29.937Z</time></trkpt><trkpt lat="43.62719" lon="12.6627267"><ele>415.0</ele><time>2026-04-25T11:42:30.937Z</time></trkpt><trkpt lat="43.6272617" lon="12.662585"><ele>415.0</ele><time>2026-04-25T11:42:31.937Z</time></trkpt><trkpt lat="43.6273467" lon="12.6624583"><ele>415.0</ele><time>2026-04-25T11:42:32.937Z</time></trkpt><trkpt lat="43.6274433" lon="12.6623583"><ele>415.0</ele><time>2026-04-25T11:42:33.937Z</time></trkpt><trkpt lat="43.6275433" lon="12.6622767"><ele>415.0</ele><time>2026-04-25T11:42:34.937Z</time></trkpt><trkpt lat="43.6276283" lon="12.6622017"><ele>415.0</ele><time>2026-04-25T11:42:35.937Z</time></trkpt><trkpt lat="43.6276917" lon="12.662115"><ele>415.0</ele><time>2026-04-25T11:42:36.937Z</time></trkpt><trkpt lat="43.6277317" lon="12.66201"><ele>415.0</ele><time>2026-04-25T11:42:37.937Z</time></trkpt><trkpt lat="43.6277517" lon="12.6618833"><ele>415.0</ele><time>2026-04-25T11:42:38.937Z</time></trkpt><trkpt lat="43.6277567" lon="12.6617383"><ele>415.0</ele><time>2026-04-25T11:42:39.937Z</time></trkpt><trkpt lat="43.6277733" lon="12.6615783"><ele>414.2</ele><time>2026-04-25T11:42:40.937Z</time></trkpt><trkpt lat="43.6278083" lon="12.6614233"><ele>413.4</ele><time>2026-04-25T11:42:41.937Z</time></trkpt><trkpt lat="43.627855" lon="12.6612867"><ele>412.6</ele><time>2026-04-25T11:42:42.936Z</time></trkpt><trkpt lat="43.6279" lon="12.6611717"><ele>411.8</ele><time>2026-04-25T11:42:43.936Z</time></trkpt><trkpt lat="43.62792" lon="12.661075"><ele>411.0</ele><time>2026-04-25T11:42:44.937Z</time></trkpt><trkpt lat="43.6279133" lon="12.6609883"><ele>411.0</ele><time>2026-04-25T11:42:45.937Z</time></trkpt><trkpt lat="43.6278283" lon="12.6609317"><ele>411.0</ele><time>2026-04-25T11:42:47.937Z</time></trkpt><trkpt lat="43.627725" lon="12.6610517"><ele>411.0</ele><time>2026-04-25T11:42:49.937Z</time></trkpt><trkpt lat="43.6276717" lon="12.6611733"><ele>411.0</ele><time>2026-04-25T11:42:50.937Z</time></trkpt><trkpt lat="43.6276017" lon="12.66129"><ele>411.0</ele><time>2026-04-25T11:42:51.937Z</time></trkpt><trkpt lat="43.627515" lon="12.66141"><ele>412.0</ele><time>2026-04-25T11:42:52.936Z</time></trkpt><trkpt lat="43.6274233" lon="12.6615533"><ele>413.0</ele><time>2026-04-25T11:42:53.936Z</time></trkpt><trkpt lat="43.6273367" lon="12.661715"><ele>414.0</ele><time>2026-04-25T11:42:54.937Z</time></trkpt><trkpt lat="43.6272467" lon="12.6618733"><ele>415.0</ele><time>2026-04-25T11:42:55.937Z</time></trkpt><trkpt lat="43.6271567" lon="12.6620133"><ele>415.0</ele><time>2026-04-25T11:42:56.937Z</time></trkpt><trkpt lat="43.6270733" lon="12.6621317"><ele>415.0</ele><time>2026-04-25T11:42:57.937Z</time></trkpt><trkpt lat="43.6269833" lon="12.6622183"><ele>415.0</ele><time>2026-04-25T11:42:58.937Z</time></trkpt><trkpt lat="43.6268833" lon="12.662265"><ele>415.0</ele><time>2026-04-25T11:42:59.937Z</time></trkpt><trkpt lat="43.626775" lon="12.6622783"><ele>415.0</ele><time>2026-04-25T11:43:00.937Z</time></trkpt><trkpt lat="43.6266583" lon="12.6622533"><ele>420.25</ele><time>2026-04-25T11:43:01.937Z</time></trkpt><trkpt lat="43.6265383" lon="12.662195"><ele>425.5</ele><time>2026-04-25T11:43:02.937Z</time></trkpt><trkpt lat="43.6264133" lon="12.6621117"><ele>430.75</ele><time>2026-04-25T11:43:03.937Z</time></trkpt><trkpt lat="43.6262817" lon="12.6620183"><ele>436.0</ele><time>2026-04-25T11:43:04.937Z</time></trkpt><trkpt lat="43.6261417" lon="12.6619183"><ele>440.6666666666667</ele><time>2026-04-25T11:43:05.937Z</time></trkpt><trkpt lat="43.6259933" lon="12.6618167"><ele>445.33333333333337</ele><time>2026-04-25T11:43:06.937Z</time></trkpt><trkpt lat="43.62585" lon="12.66171"><ele>450.0</ele><time>2026-04-25T11:43:07.937Z</time></trkpt><trkpt lat="43.6257083" lon="12.6616117"><ele>450.0</ele><time>2026-04-25T11:43:08.936Z</time></trkpt><trkpt lat="43.6255667" lon="12.6615167"><ele>450.0</ele><time>2026-04-25T11:43:09.937Z</time></trkpt><trkpt lat="43.6254267" lon="12.6614267"><ele>450.0</ele><time>2026-04-25T11:43:10.937Z</time></trkpt><trkpt lat="43.6252917" lon="12.6613483"><ele>450.2</ele><time>2026-04-25T11:43:11.936Z</time></trkpt><trkpt lat="43.6251717" lon="12.6612783"><ele>450.4</ele><time>2026-04-25T11:43:12.936Z</time></trkpt><trkpt lat="43.6250717" lon="12.6612183"><ele>450.6</ele><time>2026-04-25T11:43:13.937Z</time></trkpt><trkpt lat="43.6250017" lon="12.6611533"><ele>450.8</ele><time>2026-04-25T11:43:14.937Z</time></trkpt><trkpt lat="43.62496" lon="12.66108"><ele>451.0</ele><time>2026-04-25T11:43:15.937Z</time></trkpt><trkpt lat="43.624975" lon="12.66091"><ele>451.6666666666667</ele><time>2026-04-25T11:43:17.937Z</time></trkpt><trkpt lat="43.6250267" lon="12.6608217"><ele>452.33333333333337</ele><time>2026-04-25T11:43:18.937Z</time></trkpt><trkpt lat="43.6250917" lon="12.6607383"><ele>453.0</ele><time>2026-04-25T11:43:19.937Z</time></trkpt><trkpt lat="43.6251567" lon="12.66066"><ele>453.66666666666663</ele><time>2026-04-25T11:43:20.937Z</time></trkpt><trkpt lat="43.6252117" lon="12.660595"><ele>454.3333333333333</ele><time>2026-04-25T11:43:21.937Z</time></trkpt><trkpt lat="43.6252833" lon="12.6605067"><ele>455.0</ele><time>2026-04-25T11:43:23.937Z</time></trkpt><trkpt lat="43.625345" lon="12.6604417"><ele>455.66666666666663</ele><time>2026-04-25T11:43:26.937Z</time></trkpt><trkpt lat="43.6254067" lon="12.6603717"><ele>456.3333333333333</ele><time>2026-04-25T11:43:34.936Z</time></trkpt><trkpt lat="43.6254733" lon="12.6602983"><ele>457.0</ele><time>2026-04-25T11:43:36.937Z</time></trkpt><trkpt lat="43.62557" lon="12.6602183"><ele>457.66666666666663</ele><time>2026-04-25T11:43:38.937Z</time></trkpt><trkpt lat="43.6256317" lon="12.66018"><ele>458.3333333333333</ele><time>2026-04-25T11:43:39.936Z</time></trkpt><trkpt lat="43.6257033" lon="12.6601433"><ele>459.0</ele><time>2026-04-25T11:43:40.937Z</time></trkpt><trkpt lat="43.625785" lon="12.6601083"><ele>459.0</ele><time>2026-04-25T11:43:41.936Z</time></trkpt><trkpt lat="43.6258683" lon="12.660075"><ele>459.0</ele><time>2026-04-25T11:43:42.937Z</time></trkpt><trkpt lat="43.6259467" lon="12.660035"><ele>459.0</ele><time>2026-04-25T11:43:43.937Z</time></trkpt><trkpt lat="43.62602" lon="12.6599817"><ele>459.0</ele><time>2026-04-25T11:43:44.937Z</time></trkpt><trkpt lat="43.6260917" lon="12.6599217"><ele>459.0</ele><time>2026-04-25T11:43:45.937Z</time></trkpt><trkpt lat="43.6261633" lon="12.6598567"><ele>459.0</ele><time>2026-04-25T11:43:46.937Z</time></trkpt><trkpt lat="43.626235" lon="12.6597883"><ele>460.6</ele><time>2026-04-25T11:43:47.936Z</time></trkpt><trkpt lat="43.6263117" lon="12.6597183"><ele>462.2</ele><time>2026-04-25T11:43:48.936Z</time></trkpt><trkpt lat="43.6263933" lon="12.659645"><ele>463.80000000000007</ele><time>2026-04-25T11:43:49.936Z</time></trkpt><trkpt lat="43.6264783" lon="12.65958"><ele>465.40000000000003</ele><time>2026-04-25T11:43:50.937Z</time></trkpt><trkpt lat="43.6265617" lon="12.6595067"><ele>467.0</ele><time>2026-04-25T11:43:51.937Z</time></trkpt><trkpt lat="43.62665" lon="12.6594283"><ele>468.5</ele><time>2026-04-25T11:43:52.937Z</time></trkpt><trkpt lat="43.6267483" lon="12.659355"><ele>470.0</ele><time>2026-04-25T11:43:53.937Z</time></trkpt><trkpt lat="43.6268517" lon="12.6592717"><ele>471.5</ele><time>2026-04-25T11:43:54.937Z</time></trkpt><trkpt lat="43.62696" lon="12.659175"><ele>473.0</ele><time>2026-04-25T11:43:55.937Z</time></trkpt><trkpt lat="43.6270733" lon="12.6590617"><ele>468.66666666666663</ele><time>2026-04-25T11:43:56.937Z</time></trkpt><trkpt lat="43.6271867" lon="12.65893"><ele>464.33333333333337</ele><time>2026-04-25T11:43:57.937Z</time></trkpt><trkpt lat="43.627305" lon="12.6588"><ele>460.0</ele><time>2026-04-25T11:43:58.936Z</time></trkpt><trkpt lat="43.6274267" lon="12.658665"><ele>464.6666666666667</ele><time>2026-04-25T11:43:59.937Z</time></trkpt><trkpt lat="43.6275517" lon="12.65853"><ele>469.33333333333337</ele><time>2026-04-25T11:44:00.936Z</time></trkpt><trkpt lat="43.6276733" lon="12.6583867"><ele>474.0</ele><time>2026-04-25T11:44:01.937Z</time></trkpt><trkpt lat="43.6277883" lon="12.6582333"><ele>470.33333333333337</ele><time>2026-04-25T11:44:02.936Z</time></trkpt><trkpt lat="43.6278883" lon="12.6580517"><ele>466.6666666666667</ele><time>2026-04-25T11:44:03.937Z</time></trkpt><trkpt lat="43.627985" lon="12.65786"><ele>463.0</ele><time>2026-04-25T11:44:04.937Z</time></trkpt><trkpt lat="43.628085" lon="12.6576817"><ele>463.0</ele><time>2026-04-25T11:44:05.937Z</time></trkpt><trkpt lat="43.6281833" lon="12.6575067"><ele>463.0</ele><time>2026-04-25T11:44:06.936Z</time></trkpt><trkpt lat="43.6282817" lon="12.6573317"><ele>463.0</ele><time>2026-04-25T11:44:07.937Z</time></trkpt><trkpt lat="43.6283783" lon="12.6571567"><ele>463.0</ele><time>2026-04-25T11:44:08.936Z</time></trkpt><trkpt lat="43.6284667" lon="12.656985"><ele>463.0</ele><time>2026-04-25T11:44:09.937Z</time></trkpt><trkpt lat="43.6285417" lon="12.6568117"><ele>463.0</ele><time>2026-04-25T11:44:10.937Z</time></trkpt><trkpt lat="43.6286083" lon="12.6566267"><ele>463.0</ele><time>2026-04-25T11:44:11.937Z</time></trkpt><trkpt lat="43.6286733" lon="12.6564383"><ele>462.6666666666667</ele><time>2026-04-25T11:44:12.937Z</time></trkpt><trkpt lat="43.6287367" lon="12.6562517"><ele>462.33333333333337</ele><time>2026-04-25T11:44:13.937Z</time></trkpt><trkpt lat="43.6288033" lon="12.656055"><ele>462.0</ele><time>2026-04-25T11:44:14.937Z</time></trkpt><trkpt lat="43.62887" lon="12.6558533"><ele>463.33333333333337</ele><time>2026-04-25T11:44:15.937Z</time></trkpt><trkpt lat="43.6289417" lon="12.65565"><ele>464.6666666666667</ele><time>2026-04-25T11:44:16.937Z</time></trkpt><trkpt lat="43.629005" lon="12.6554433"><ele>466.0</ele><time>2026-04-25T11:44:17.937Z</time></trkpt><trkpt lat="43.62907" lon="12.6552367"><ele>466.6666666666667</ele><time>2026-04-25T11:44:18.937Z</time></trkpt><trkpt lat="43.6291433" lon="12.655035"><ele>467.33333333333337</ele><time>2026-04-25T11:44:19.937Z</time></trkpt><trkpt lat="43.6291967" lon="12.65483"><ele>468.0</ele><time>2026-04-25T11:44:20.937Z</time></trkpt><trkpt lat="43.6292267" lon="12.6546283"><ele>468.25</ele><time>2026-04-25T11:44:21.937Z</time></trkpt><trkpt lat="43.6292333" lon="12.654435"><ele>468.5</ele><time>2026-04-25T11:44:22.937Z</time></trkpt><trkpt lat="43.629225" lon="12.6542583"><ele>468.75</ele><time>2026-04-25T11:44:23.937Z</time></trkpt><trkpt lat="43.6292167" lon="12.6540967"><ele>469.0</ele><time>2026-04-25T11:44:24.936Z</time></trkpt><trkpt lat="43.629235" lon="12.653965"><ele>469.00000000000006</ele><time>2026-04-25T11:44:25.937Z</time></trkpt><trkpt lat="43.6292783" lon="12.6538717"><ele>469.0</ele><time>2026-04-25T11:44:26.937Z</time></trkpt><trkpt lat="43.6293383" lon="12.6538217"><ele>469.0</ele><time>2026-04-25T11:44:27.937Z</time></trkpt><trkpt lat="43.629405" lon="12.653805"><ele>469.0</ele><time>2026-04-25T11:44:28.937Z</time></trkpt><trkpt lat="43.62948" lon="12.6538167"><ele>469.00000000000006</ele><time>2026-04-25T11:44:29.937Z</time></trkpt><trkpt lat="43.6295733" lon="12.6538333"><ele>469.0</ele><time>2026-04-25T11:44:30.937Z</time></trkpt><trkpt lat="43.62968" lon="12.653845"><ele>472.0</ele><time>2026-04-25T11:44:31.936Z</time></trkpt><trkpt lat="43.6298033" lon="12.6538533"><ele>475.0</ele><time>2026-04-25T11:44:32.936Z</time></trkpt><trkpt lat="43.62994" lon="12.65386"><ele>478.0</ele><time>2026-04-25T11:44:33.936Z</time></trkpt><trkpt lat="43.63008" lon="12.6538533"><ele>481.0</ele><time>2026-04-25T11:44:34.937Z</time></trkpt><trkpt lat="43.6302183" lon="12.6538333"><ele>479.0</ele><time>2026-04-25T11:44:35.937Z</time></trkpt><trkpt lat="43.6303517" lon="12.6538033"><ele>477.0</ele><time>2026-04-25T11:44:36.937Z</time></trkpt><trkpt lat="43.6304767" lon="12.65377"><ele>475.0</ele><time>2026-04-25T11:44:37.936Z</time></trkpt><trkpt lat="43.6306083" lon="12.6537367"><ele>473.0</ele><time>2026-04-25T11:44:38.937Z</time></trkpt><trkpt lat="43.6307433" lon="12.6537133"><ele>473.0</ele><time>2026-04-25T11:44:39.937Z</time></trkpt><trkpt lat="43.630875" lon="12.6536967"><ele>473.0</ele><time>2026-04-25T11:44:40.936Z</time></trkpt><trkpt lat="43.631005" lon="12.653675"><ele>473.0</ele><time>2026-04-25T11:44:41.937Z</time></trkpt><trkpt lat="43.6311333" lon="12.653655"><ele>473.0</ele><time>2026-04-25T11:44:42.937Z</time></trkpt><trkpt lat="43.6312617" lon="12.653655"><ele>472.25</ele><time>2026-04-25T11:44:43.937Z</time></trkpt><trkpt lat="43.6313883" lon="12.6537033"><ele>471.5</ele><time>2026-04-25T11:44:44.937Z</time></trkpt><trkpt lat="43.63152" lon="12.653785"><ele>470.75</ele><time>2026-04-25T11:44:45.937Z</time></trkpt><trkpt lat="43.6316633" lon="12.6538717"><ele>470.0</ele><time>2026-04-25T11:44:46.936Z</time></trkpt><trkpt lat="43.6318133" lon="12.6539417"><ele>470.0</ele><time>2026-04-25T11:44:47.937Z</time></trkpt><trkpt lat="43.63196" lon="12.6539817"><ele>470.0</ele><time>2026-04-25T11:44:48.937Z</time></trkpt><trkpt lat="43.6320983" lon="12.6540033"><ele>470.0</ele><time>2026-04-25T11:44:49.937Z</time></trkpt><trkpt lat="43.632225" lon="12.6539967"><ele>470.0</ele><time>2026-04-25T11:44:50.937Z</time></trkpt><trkpt lat="43.6323383" lon="12.6539767"><ele>473.0</ele><time>2026-04-25T11:44:51.937Z</time></trkpt><trkpt lat="43.6324483" lon="12.6539133"><ele>476.0</ele><time>2026-04-25T11:44:52.937Z</time></trkpt><trkpt lat="43.6325517" lon="12.65383"><ele>479.0</ele><time>2026-04-25T11:44:53.937Z</time></trkpt><trkpt lat="43.63266" lon="12.653745"><ele>482.0</ele><time>2026-04-25T11:44:54.936Z</time></trkpt><trkpt lat="43.632775" lon="12.6536667"><ele>483.25</ele><time>2026-04-25T11:44:55.937Z</time></trkpt><trkpt lat="43.6328967" lon="12.6535817"><ele>484.5</ele><time>2026-04-25T11:44:56.937Z</time></trkpt><trkpt lat="43.6330183" lon="12.653495"><ele>485.75</ele><time>2026-04-25T11:44:57.937Z</time></trkpt><trkpt lat="43.633135" lon="12.6533867"><ele>487.0</ele><time>2026-04-25T11:44:58.937Z</time></trkpt><trkpt lat="43.6332417" lon="12.653255"><ele>487.0</ele><time>2026-04-25T11:44:59.936Z</time></trkpt><trkpt lat="43.63333" lon="12.6530967"><ele>487.0</ele><time>2026-04-25T11:45:00.937Z</time></trkpt><trkpt lat="43.633415" lon="12.652935"><ele>487.0</ele><time>2026-04-25T11:45:01.937Z</time></trkpt><trkpt lat="43.633485" lon="12.65276"><ele>487.0</ele><time>2026-04-25T11:45:02.936Z</time></trkpt><trkpt lat="43.6335317" lon="12.652575"><ele>485.6</ele><time>2026-04-25T11:45:03.936Z</time></trkpt><trkpt lat="43.6335517" lon="12.6523883"><ele>484.20000000000005</ele><time>2026-04-25T11:45:04.936Z</time></trkpt><trkpt lat="43.6335467" lon="12.6522067"><ele>482.8</ele><time>2026-04-25T11:45:05.937Z</time></trkpt><trkpt lat="43.6335583" lon="12.6520683"><ele>481.4</ele><time>2026-04-25T11:45:06.937Z</time></trkpt><trkpt lat="43.633575" lon="12.6519767"><ele>480.0</ele><time>2026-04-25T11:45:07.936Z</time></trkpt><trkpt lat="43.6336367" lon="12.65193"><ele>484.0</ele><time>2026-04-25T11:45:09.937Z</time></trkpt><trkpt lat="43.6337067" lon="12.6520567"><ele>488.0</ele><time>2026-04-25T11:45:11.937Z</time></trkpt><trkpt lat="43.6337383" lon="12.6521683"><ele>492.0</ele><time>2026-04-25T11:45:12.936Z</time></trkpt><trkpt lat="43.633785" lon="12.6523017"><ele>496.0</ele><time>2026-04-25T11:45:13.937Z</time></trkpt><trkpt lat="43.63385" lon="12.6524567"><ele>500.0</ele><time>2026-04-25T11:45:14.937Z</time></trkpt><trkpt lat="43.6339233" lon="12.6526233"><ele>499.5</ele><time>2026-04-25T11:45:15.936Z</time></trkpt><trkpt lat="43.6339983" lon="12.6527933"><ele>499.0</ele><time>2026-04-25T11:45:16.937Z</time></trkpt><trkpt lat="43.6340767" lon="12.652965"><ele>498.5</ele><time>2026-04-25T11:45:17.936Z</time></trkpt><trkpt lat="43.6341583" lon="12.6531267"><ele>498.0</ele><time>2026-04-25T11:45:18.937Z</time></trkpt><trkpt lat="43.6342333" lon="12.6532733"><ele>498.0</ele><time>2026-04-25T11:45:19.936Z</time></trkpt><trkpt lat="43.63429" lon="12.6534117"><ele>497.99999999999994</ele><time>2026-04-25T11:45:20.937Z</time></trkpt><trkpt lat="43.6343083" lon="12.6535333"><ele>497.99999999999994</ele><time>2026-04-25T11:45:21.937Z</time></trkpt><trkpt lat="43.634295" lon="12.6536517"><ele>498.0</ele><time>2026-04-25T11:45:22.937Z</time></trkpt><trkpt lat="43.6342583" lon="12.6537667"><ele>498.0</ele><time>2026-04-25T11:45:23.937Z</time></trkpt><trkpt lat="43.6341983" lon="12.6538683"><ele>500.5</ele><time>2026-04-25T11:45:24.936Z</time></trkpt><trkpt lat="43.6341133" lon="12.6539517"><ele>503.0</ele><time>2026-04-25T11:45:25.937Z</time></trkpt><trkpt lat="43.6340067" lon="12.6540183"><ele>505.5</ele><time>2026-04-25T11:45:26.937Z</time></trkpt><trkpt lat="43.633895" lon="12.6540717"><ele>508.0</ele><time>2026-04-25T11:45:27.937Z</time></trkpt><trkpt lat="43.6337867" lon="12.65413"><ele>508.0</ele><time>2026-04-25T11:45:28.937Z</time></trkpt><trkpt lat="43.63369" lon="12.654205"><ele>507.99999999999994</ele><time>2026-04-25T11:45:29.937Z</time></trkpt><trkpt lat="43.6336017" lon="12.6542967"><ele>507.99999999999994</ele><time>2026-04-25T11:45:30.937Z</time></trkpt><trkpt lat="43.63352" lon="12.654395"><ele>508.0</ele><time>2026-04-25T11:45:31.937Z</time></trkpt><trkpt lat="43.633465" lon="12.6544967"><ele>508.0</ele><time>2026-04-25T11:45:32.937Z</time></trkpt><trkpt lat="43.6334417" lon="12.6545967"><ele>507.50000000000006</ele><time>2026-04-25T11:45:33.936Z</time></trkpt><trkpt lat="43.63345" lon="12.654695"><ele>507.0</ele><time>2026-04-25T11:45:34.937Z</time></trkpt><trkpt lat="43.633485" lon="12.6547717"><ele>506.5</ele><time>2026-04-25T11:45:35.937Z</time></trkpt><trkpt lat="43.6335367" lon="12.654825"><ele>506.0</ele><time>2026-04-25T11:45:36.937Z</time></trkpt><trkpt lat="43.6336083" lon="12.6548417"><ele>505.50000000000006</ele><time>2026-04-25T11:45:37.937Z</time></trkpt><trkpt lat="43.633685" lon="12.6548317"><ele>505.0</ele><time>2026-04-25T11:45:38.937Z</time></trkpt><trkpt lat="43.6337833" lon="12.654805"><ele>505.0</ele><time>2026-04-25T11:45:39.936Z</time></trkpt><trkpt lat="43.6339" lon="12.6547833"><ele>505.0</ele><time>2026-04-25T11:45:40.937Z</time></trkpt><trkpt lat="43.6340233" lon="12.6547767"><ele>505.0</ele><time>2026-04-25T11:45:41.937Z</time></trkpt><trkpt lat="43.6341517" lon="12.6547633"><ele>505.0</ele><time>2026-04-25T11:45:42.937Z</time></trkpt><trkpt lat="43.6342883" lon="12.654755"><ele>505.0</ele><time>2026-04-25T11:45:43.937Z</time></trkpt><trkpt lat="43.6344283" lon="12.6547417"><ele>505.0</ele><time>2026-04-25T11:45:44.936Z</time></trkpt><trkpt lat="43.6345683" lon="12.654735"><ele>505.0</ele><time>2026-04-25T11:45:45.937Z</time></trkpt><trkpt lat="43.6347067" lon="12.6547617"><ele>505.0</ele><time>2026-04-25T11:45:46.937Z</time></trkpt><trkpt lat="43.63485" lon="12.6547983"><ele>506.75</ele><time>2026-04-25T11:45:47.937Z</time></trkpt><trkpt lat="43.6349917" lon="12.6548417"><ele>508.5</ele><time>2026-04-25T11:45:48.936Z</time></trkpt><trkpt lat="43.6351367" lon="12.6548617"><ele>510.25</ele><time>2026-04-25T11:45:49.937Z</time></trkpt><trkpt lat="43.6352717" lon="12.65486"><ele>512.0</ele><time>2026-04-25T11:45:50.937Z</time></trkpt><trkpt lat="43.635395" lon="12.6548367"><ele>512.0</ele><time>2026-04-25T11:45:51.937Z</time></trkpt><trkpt lat="43.6355017" lon="12.65481"><ele>512.0</ele><time>2026-04-25T11:45:52.937Z</time></trkpt><trkpt lat="43.6355983" lon="12.6547917"><ele>512.0</ele><time>2026-04-25T11:45:53.937Z</time></trkpt><trkpt lat="43.6356883" lon="12.65481"><ele>512.0</ele><time>2026-04-25T11:45:54.937Z</time></trkpt><trkpt lat="43.635775" lon="12.6548883"><ele>512.0</ele><time>2026-04-25T11:45:55.937Z</time></trkpt><trkpt lat="43.63586" lon="12.6550067"><ele>512.0</ele><time>2026-04-25T11:45:56.937Z</time></trkpt><trkpt lat="43.6359467" lon="12.6551183"><ele>512.0</ele><time>2026-04-25T11:45:57.936Z</time></trkpt><trkpt lat="43.6360533" lon="12.6552067"><ele>512.0</ele><time>2026-04-25T11:45:58.936Z</time></trkpt><trkpt lat="43.6361783" lon="12.6552683"><ele>512.0</ele><time>2026-04-25T11:45:59.937Z</time></trkpt><trkpt lat="43.6363" lon="12.6553267"><ele>514.25</ele><time>2026-04-25T11:46:00.937Z</time></trkpt><trkpt lat="43.6364183" lon="12.6553783"><ele>516.5</ele><time>2026-04-25T11:46:01.937Z</time></trkpt><trkpt lat="43.6365367" lon="12.6553933"><ele>518.75</ele><time>2026-04-25T11:46:02.937Z</time></trkpt><trkpt lat="43.6366483" lon="12.6553617"><ele>521.0</ele><time>2026-04-25T11:46:03.937Z</time></trkpt><trkpt lat="43.6367633" lon="12.65531"><ele>516.25</ele><time>2026-04-25T11:46:04.937Z</time></trkpt><trkpt lat="43.6368783" lon="12.6552617"><ele>511.5</ele><time>2026-04-25T11:46:05.937Z</time></trkpt><trkpt lat="43.6369967" lon="12.6552417"><ele>506.75</ele><time>2026-04-25T11:46:06.936Z</time></trkpt><trkpt lat="43.6371233" lon="12.6552517"><ele>502.0</ele><time>2026-04-25T11:46:07.937Z</time></trkpt><trkpt lat="43.63725" lon="12.6552767"><ele>502.0</ele><time>2026-04-25T11:46:08.937Z</time></trkpt><trkpt lat="43.63736" lon="12.6553033"><ele>502.00000000000006</ele><time>2026-04-25T11:46:09.936Z</time></trkpt><trkpt lat="43.63746" lon="12.6553117"><ele>502.00000000000006</ele><time>2026-04-25T11:46:10.937Z</time></trkpt><trkpt lat="43.63755" lon="12.65528"><ele>502.0</ele><time>2026-04-25T11:46:11.937Z</time></trkpt><trkpt lat="43.6376483" lon="12.6552167"><ele>502.0</ele><time>2026-04-25T11:46:12.936Z</time></trkpt><trkpt lat="43.6377533" lon="12.6551467"><ele>503.75</ele><time>2026-04-25T11:46:13.937Z</time></trkpt><trkpt lat="43.6378683" lon="12.65507"><ele>505.5</ele><time>2026-04-25T11:46:14.937Z</time></trkpt><trkpt lat="43.6379867" lon="12.6549817"><ele>507.25</ele><time>2026-04-25T11:46:15.937Z</time></trkpt><trkpt lat="43.6381033" lon="12.6548867"><ele>509.0</ele><time>2026-04-25T11:46:16.937Z</time></trkpt><trkpt lat="43.63822" lon="12.654795"><ele>509.0</ele><time>2026-04-25T11:46:17.937Z</time></trkpt><trkpt lat="43.6383333" lon="12.6547"><ele>509.0</ele><time>2026-04-25T11:46:18.936Z</time></trkpt><trkpt lat="43.6384383" lon="12.654595"><ele>509.0</ele><time>2026-04-25T11:46:19.937Z</time></trkpt><trkpt lat="43.63854" lon="12.65449"><ele>509.0</ele><time>2026-04-25T11:46:20.937Z</time></trkpt><trkpt lat="43.6386483" lon="12.654405"><ele>505.25</ele><time>2026-04-25T11:46:21.937Z</time></trkpt><trkpt lat="43.63878" lon="12.6543417"><ele>501.5</ele><time>2026-04-25T11:46:22.936Z</time></trkpt><trkpt lat="43.6389233" lon="12.6542867"><ele>497.75</ele><time>2026-04-25T11:46:23.937Z</time></trkpt><trkpt lat="43.6390717" lon="12.6542467"><ele>494.0</ele><time>2026-04-25T11:46:24.937Z</time></trkpt><trkpt lat="43.6392133" lon="12.654215"><ele>494.0</ele><time>2026-04-25T11:46:25.937Z</time></trkpt><trkpt lat="43.6393583" lon="12.6542017"><ele>494.0</ele><time>2026-04-25T11:46:26.937Z</time></trkpt><trkpt lat="43.6395033" lon="12.6541917"><ele>494.0</ele><time>2026-04-25T11:46:27.937Z</time></trkpt><trkpt lat="43.6396517" lon="12.6541933"><ele>494.0</ele><time>2026-04-25T11:46:28.937Z</time></trkpt><trkpt lat="43.6397983" lon="12.6542083"><ele>495.25</ele><time>2026-04-25T11:46:29.937Z</time></trkpt><trkpt lat="43.639945" lon="12.654235"><ele>496.5</ele><time>2026-04-25T11:46:30.936Z</time></trkpt><trkpt lat="43.640085" lon="12.6542533"><ele>497.75</ele><time>2026-04-25T11:46:31.937Z</time></trkpt><trkpt lat="43.6402217" lon="12.6542467"><ele>499.0</ele><time>2026-04-25T11:46:32.936Z</time></trkpt><trkpt lat="43.6403633" lon="12.654215"><ele>499.75</ele><time>2026-04-25T11:46:33.937Z</time></trkpt><trkpt lat="43.6405083" lon="12.6541667"><ele>500.5</ele><time>2026-04-25T11:46:34.936Z</time></trkpt><trkpt lat="43.6406367" lon="12.6541133"><ele>501.25</ele><time>2026-04-25T11:46:35.936Z</time></trkpt><trkpt lat="43.6407617" lon="12.6540733"><ele>502.0</ele><time>2026-04-25T11:46:36.937Z</time></trkpt><trkpt lat="43.640875" lon="12.654035"><ele>502.00000000000006</ele><time>2026-04-25T11:46:37.937Z</time></trkpt><trkpt lat="43.6409783" lon="12.6540233"><ele>502.0</ele><time>2026-04-25T11:46:38.936Z</time></trkpt><trkpt lat="43.641055" lon="12.65405"><ele>502.0</ele><time>2026-04-25T11:46:39.937Z</time></trkpt><trkpt lat="43.64111" lon="12.654105"><ele>502.0</ele><time>2026-04-25T11:46:40.937Z</time></trkpt><trkpt lat="43.64113" lon="12.6541883"><ele>502.00000000000006</ele><time>2026-04-25T11:46:41.937Z</time></trkpt><trkpt lat="43.641105" lon="12.65429"><ele>502.0</ele><time>2026-04-25T11:46:42.937Z</time></trkpt><trkpt lat="43.6410517" lon="12.6544133"><ele>501.75</ele><time>2026-04-25T11:46:43.937Z</time></trkpt><trkpt lat="43.6409917" lon="12.654565"><ele>501.5</ele><time>2026-04-25T11:46:44.937Z</time></trkpt><trkpt lat="43.6409383" lon="12.6547317"><ele>501.25</ele><time>2026-04-25T11:46:45.937Z</time></trkpt><trkpt lat="43.64089" lon="12.6549167"><ele>501.0</ele><time>2026-04-25T11:46:46.937Z</time></trkpt><trkpt lat="43.640845" lon="12.6551033"><ele>501.0</ele><time>2026-04-25T11:46:47.937Z</time></trkpt><trkpt lat="43.6408017" lon="12.655285"><ele>501.0</ele><time>2026-04-25T11:46:48.937Z</time></trkpt><trkpt lat="43.6407667" lon="12.655455"><ele>501.0</ele><time>2026-04-25T11:46:49.936Z</time></trkpt><trkpt lat="43.6407533" lon="12.6556"><ele>501.0</ele><time>2026-04-25T11:46:50.937Z</time></trkpt><trkpt lat="43.6407633" lon="12.65572"><ele>500.3333333333333</ele><time>2026-04-25T11:46:51.937Z</time></trkpt><trkpt lat="43.6407783" lon="12.6558467"><ele>499.66666666666663</ele><time>2026-04-25T11:46:52.937Z</time></trkpt><trkpt lat="43.6407783" lon="12.6559583"><ele>499.0</ele><time>2026-04-25T11:46:53.937Z</time></trkpt><trkpt lat="43.64077" lon="12.6560717"><ele>498.3333333333333</ele><time>2026-04-25T11:46:54.937Z</time></trkpt><trkpt lat="43.6407467" lon="12.6561883"><ele>497.66666666666663</ele><time>2026-04-25T11:46:55.936Z</time></trkpt><trkpt lat="43.64071" lon="12.6563033"><ele>497.0</ele><time>2026-04-25T11:46:56.936Z</time></trkpt><trkpt lat="43.640665" lon="12.6564083"><ele>494.6</ele><time>2026-04-25T11:46:57.937Z</time></trkpt><trkpt lat="43.6406" lon="12.6564917"><ele>492.20000000000005</ele><time>2026-04-25T11:46:58.937Z</time></trkpt><trkpt lat="43.64053" lon="12.65657"><ele>489.8</ele><time>2026-04-25T11:46:59.937Z</time></trkpt><trkpt lat="43.6404683" lon="12.656655"><ele>487.4</ele><time>2026-04-25T11:47:00.937Z</time></trkpt><trkpt lat="43.6404317" lon="12.6567717"><ele>485.0</ele><time>2026-04-25T11:47:01.937Z</time></trkpt><trkpt lat="43.6404183" lon="12.6569017"><ele>482.5</ele><time>2026-04-25T11:47:02.937Z</time></trkpt><trkpt lat="43.6404117" lon="12.65705"><ele>480.0</ele><time>2026-04-25T11:47:03.937Z</time></trkpt><trkpt lat="43.640415" lon="12.6572117"><ele>477.5</ele><time>2026-04-25T11:47:04.937Z</time></trkpt><trkpt lat="43.6404167" lon="12.6573917"><ele>475.0</ele><time>2026-04-25T11:47:05.936Z</time></trkpt><trkpt lat="43.6404083" lon="12.65758"><ele>475.0</ele><time>2026-04-25T11:47:06.937Z</time></trkpt><trkpt lat="43.6404" lon="12.6577717"><ele>475.0</ele><time>2026-04-25T11:47:07.937Z</time></trkpt><trkpt lat="43.6404017" lon="12.657975"><ele>475.0</ele><time>2026-04-25T11:47:08.937Z</time></trkpt><trkpt lat="43.640415" lon="12.6581783"><ele>475.0</ele><time>2026-04-25T11:47:09.937Z</time></trkpt><trkpt lat="43.6404383" lon="12.6583833"><ele>473.5</ele><time>2026-04-25T11:47:10.936Z</time></trkpt><trkpt lat="43.640465" lon="12.65858"><ele>472.0</ele><time>2026-04-25T11:47:11.937Z</time></trkpt><trkpt lat="43.6404933" lon="12.6587667"><ele>470.5</ele><time>2026-04-25T11:47:12.937Z</time></trkpt><trkpt lat="43.64052" lon="12.6589533"><ele>469.0</ele><time>2026-04-25T11:47:13.936Z</time></trkpt><trkpt lat="43.6405517" lon="12.6591367"><ele>468.5</ele><time>2026-04-25T11:47:14.936Z</time></trkpt><trkpt lat="43.6405917" lon="12.65931"><ele>468.0</ele><time>2026-04-25T11:47:15.937Z</time></trkpt><trkpt lat="43.6406483" lon="12.65947"><ele>467.5</ele><time>2026-04-25T11:47:16.937Z</time></trkpt><trkpt lat="43.640725" lon="12.6596083"><ele>467.0</ele><time>2026-04-25T11:47:17.936Z</time></trkpt><trkpt lat="43.6408217" lon="12.6597233"><ele>466.75</ele><time>2026-04-25T11:47:18.936Z</time></trkpt><trkpt lat="43.6409367" lon="12.659815"><ele>466.5</ele><time>2026-04-25T11:47:19.937Z</time></trkpt><trkpt lat="43.6410683" lon="12.6598817"><ele>466.25</ele><time>2026-04-25T11:47:20.937Z</time></trkpt><trkpt lat="43.64121" lon="12.659935"><ele>466.0</ele><time>2026-04-25T11:47:21.937Z</time></trkpt><trkpt lat="43.641355" lon="12.6599867"><ele>467.5</ele><time>2026-04-25T11:47:22.937Z</time></trkpt><trkpt lat="43.6414917" lon="12.6600467"><ele>469.0</ele><time>2026-04-25T11:47:23.937Z</time></trkpt><trkpt lat="43.6416217" lon="12.660115"><ele>470.5</ele><time>2026-04-25T11:47:24.936Z</time></trkpt><trkpt lat="43.641755" lon="12.6601867"><ele>472.0</ele><time>2026-04-25T11:47:25.936Z</time></trkpt><trkpt lat="43.6418967" lon="12.6602467"><ele>475.25</ele><time>2026-04-25T11:47:26.937Z</time></trkpt><trkpt lat="43.6420417" lon="12.6602883"><ele>478.5</ele><time>2026-04-25T11:47:27.937Z</time></trkpt><trkpt lat="43.642185" lon="12.6603217"><ele>481.75</ele><time>2026-04-25T11:47:28.937Z</time></trkpt><trkpt lat="43.6423183" lon="12.6603467"><ele>485.0</ele><time>2026-04-25T11:47:29.937Z</time></trkpt><trkpt lat="43.6424433" lon="12.6603483"><ele>485.0</ele><time>2026-04-25T11:47:30.937Z</time></trkpt><trkpt lat="43.6425517" lon="12.6603233"><ele>485.0</ele><time>2026-04-25T11:47:31.937Z</time></trkpt><trkpt lat="43.6426533" lon="12.66027"><ele>485.0</ele><time>2026-04-25T11:47:32.937Z</time></trkpt><trkpt lat="43.6427517" lon="12.6601933"><ele>485.0</ele><time>2026-04-25T11:47:33.937Z</time></trkpt><trkpt lat="43.6428533" lon="12.6601117"><ele>485.0</ele><time>2026-04-25T11:47:34.937Z</time></trkpt><trkpt lat="43.6429633" lon="12.6600333"><ele>484.5</ele><time>2026-04-25T11:47:35.936Z</time></trkpt><trkpt lat="43.6430783" lon="12.6599667"><ele>484.0</ele><time>2026-04-25T11:47:36.937Z</time></trkpt><trkpt lat="43.6431917" lon="12.659905"><ele>483.5</ele><time>2026-04-25T11:47:37.936Z</time></trkpt><trkpt lat="43.6433033" lon="12.6598483"><ele>483.0</ele><time>2026-04-25T11:47:38.937Z</time></trkpt><trkpt lat="43.6434183" lon="12.6598083"><ele>483.0</ele><time>2026-04-25T11:47:39.936Z</time></trkpt><trkpt lat="43.6435383" lon="12.6597983"><ele>483.0</ele><time>2026-04-25T11:47:40.936Z</time></trkpt><trkpt lat="43.643655" lon="12.6598233"><ele>483.0</ele><time>2026-04-25T11:47:41.937Z</time></trkpt><trkpt lat="43.6437717" lon="12.6598617"><ele>483.0</ele><time>2026-04-25T11:47:42.936Z</time></trkpt><trkpt lat="43.6438883" lon="12.65988"><ele>482.5</ele><time>2026-04-25T11:47:43.936Z</time></trkpt><trkpt lat="43.6440017" lon="12.6598633"><ele>482.0</ele><time>2026-04-25T11:47:44.937Z</time></trkpt><trkpt lat="43.6441067" lon="12.6598033"><ele>481.5</ele><time>2026-04-25T11:47:45.937Z</time></trkpt><trkpt lat="43.6442" lon="12.6596983"><ele>481.0</ele><time>2026-04-25T11:47:46.937Z</time></trkpt><trkpt lat="43.6443" lon="12.6596067"><ele>481.0</ele><time>2026-04-25T11:47:47.937Z</time></trkpt><trkpt lat="43.6444083" lon="12.6595467"><ele>481.0</ele><time>2026-04-25T11:47:48.937Z</time></trkpt><trkpt lat="43.64451" lon="12.6595083"><ele>481.0</ele><time>2026-04-25T11:47:49.937Z</time></trkpt><trkpt lat="43.6445933" lon="12.65951"><ele>481.0</ele><time>2026-04-25T11:47:50.937Z</time></trkpt><trkpt lat="43.6446567" lon="12.65956"><ele>481.0</ele><time>2026-04-25T11:47:51.936Z</time></trkpt><trkpt lat="43.64471" lon="12.6596467"><ele>480.4</ele><time>2026-04-25T11:47:52.937Z</time></trkpt><trkpt lat="43.6447633" lon="12.6597617"><ele>479.8</ele><time>2026-04-25T11:47:53.937Z</time></trkpt><trkpt lat="43.6448067" lon="12.6599083"><ele>479.19999999999993</ele><time>2026-04-25T11:47:54.937Z</time></trkpt><trkpt lat="43.64485" lon="12.66006"><ele>478.59999999999997</ele><time>2026-04-25T11:47:55.936Z</time></trkpt><trkpt lat="43.6448933" lon="12.6602"><ele>478.0</ele><time>2026-04-25T11:47:56.936Z</time></trkpt><trkpt lat="43.6449483" lon="12.6603067"><ele>478.00000000000006</ele><time>2026-04-25T11:47:57.937Z</time></trkpt><trkpt lat="43.6450067" lon="12.66038"><ele>478.0</ele><time>2026-04-25T11:47:58.937Z</time></trkpt><trkpt lat="43.6450683" lon="12.6604133"><ele>478.0</ele><time>2026-04-25T11:47:59.937Z</time></trkpt><trkpt lat="43.6451333" lon="12.6604033"><ele>478.0</ele><time>2026-04-25T11:48:00.937Z</time></trkpt><trkpt lat="43.6451967" lon="12.660365"><ele>478.00000000000006</ele><time>2026-04-25T11:48:01.937Z</time></trkpt><trkpt lat="43.64528" lon="12.6602667"><ele>478.0</ele><time>2026-04-25T11:48:03.937Z</time></trkpt><trkpt lat="43.6453233" lon="12.6601917"><ele>479.59999999999997</ele><time>2026-04-25T11:48:05.937Z</time></trkpt><trkpt lat="43.6453683" lon="12.6601017"><ele>481.19999999999993</ele><time>2026-04-25T11:48:08.936Z</time></trkpt><trkpt lat="43.64541" lon="12.6599883"><ele>482.8</ele><time>2026-04-25T11:48:10.937Z</time></trkpt><trkpt lat="43.6454617" lon="12.6598533"><ele>484.4</ele><time>2026-04-25T11:48:12.937Z</time></trkpt><trkpt lat="43.6455083" lon="12.6597233"><ele>486.0</ele><time>2026-04-25T11:48:14.936Z</time></trkpt><trkpt lat="43.6455583" lon="12.6595917"><ele>486.0</ele><time>2026-04-25T11:48:16.937Z</time></trkpt><trkpt lat="43.6456133" lon="12.659455"><ele>486.0</ele><time>2026-04-25T11:48:18.937Z</time></trkpt><trkpt lat="43.6457" lon="12.65931"><ele>486.0</ele><time>2026-04-25T11:48:20.937Z</time></trkpt><trkpt lat="43.6457433" lon="12.6592183"><ele>486.0</ele><time>2026-04-25T11:48:21.938Z</time></trkpt><trkpt lat="43.64581" lon="12.6591517"><ele>486.0</ele><time>2026-04-25T11:48:22.938Z</time></trkpt><trkpt lat="43.645885" lon="12.6590967"><ele>486.6</ele><time>2026-04-25T11:48:23.937Z</time></trkpt><trkpt lat="43.645975" lon="12.6590533"><ele>487.20000000000005</ele><time>2026-04-25T11:48:24.938Z</time></trkpt><trkpt lat="43.64607" lon="12.6590167"><ele>487.79999999999995</ele><time>2026-04-25T11:48:25.938Z</time></trkpt><trkpt lat="43.646165" lon="12.6589717"><ele>488.4</ele><time>2026-04-25T11:48:26.937Z</time></trkpt><trkpt lat="43.64625" lon="12.6589"><ele>489.0</ele><time>2026-04-25T11:48:27.938Z</time></trkpt><trkpt lat="43.6463267" lon="12.6588067"><ele>489.0</ele><time>2026-04-25T11:48:28.937Z</time></trkpt><trkpt lat="43.64641" lon="12.6587083"><ele>489.0</ele><time>2026-04-25T11:48:29.938Z</time></trkpt><trkpt lat="43.64649" lon="12.6585983"><ele>489.0</ele><time>2026-04-25T11:48:30.938Z</time></trkpt><trkpt lat="43.64656" lon="12.6584733"><ele>489.0</ele><time>2026-04-25T11:48:31.938Z</time></trkpt><trkpt lat="43.6466167" lon="12.658335"><ele>485.6</ele><time>2026-04-25T11:48:32.938Z</time></trkpt><trkpt lat="43.6466567" lon="12.6581917"><ele>482.2</ele><time>2026-04-25T11:48:33.938Z</time></trkpt><trkpt lat="43.64669" lon="12.6580483"><ele>478.80000000000007</ele><time>2026-04-25T11:48:34.938Z</time></trkpt><trkpt lat="43.64673" lon="12.657915"><ele>475.40000000000003</ele><time>2026-04-25T11:48:35.938Z</time></trkpt><trkpt lat="43.6467817" lon="12.65779"><ele>472.0</ele><time>2026-04-25T11:48:36.938Z</time></trkpt><trkpt lat="43.64685" lon="12.6576683"><ele>473.20000000000005</ele><time>2026-04-25T11:48:37.938Z</time></trkpt><trkpt lat="43.6469233" lon="12.6575417"><ele>474.40000000000003</ele><time>2026-04-25T11:48:38.938Z</time></trkpt><trkpt lat="43.646995" lon="12.6574183"><ele>475.59999999999997</ele><time>2026-04-25T11:48:39.937Z</time></trkpt><trkpt lat="43.6470667" lon="12.65731"><ele>476.79999999999995</ele><time>2026-04-25T11:48:40.938Z</time></trkpt><trkpt lat="43.64714" lon="12.6572283"><ele>478.0</ele><time>2026-04-25T11:48:41.937Z</time></trkpt><trkpt lat="43.647215" lon="12.65718"><ele>478.0</ele><time>2026-04-25T11:48:42.938Z</time></trkpt><trkpt lat="43.647295" lon="12.65716"><ele>477.99999999999994</ele><time>2026-04-25T11:48:43.938Z</time></trkpt><trkpt lat="43.647385" lon="12.6571617"><ele>477.99999999999994</ele><time>2026-04-25T11:48:44.937Z</time></trkpt><trkpt lat="43.6474883" lon="12.6571667"><ele>478.0</ele><time>2026-04-25T11:48:45.938Z</time></trkpt><trkpt lat="43.6476" lon="12.657155"><ele>478.0</ele><time>2026-04-25T11:48:46.938Z</time></trkpt><trkpt lat="43.647715" lon="12.65712"><ele>480.5</ele><time>2026-04-25T11:48:47.938Z</time></trkpt><trkpt lat="43.6478267" lon="12.657065"><ele>483.0</ele><time>2026-04-25T11:48:48.937Z</time></trkpt><trkpt lat="43.647935" lon="12.656995"><ele>485.5</ele><time>2026-04-25T11:48:49.938Z</time></trkpt><trkpt lat="43.6480433" lon="12.6569233"><ele>488.0</ele><time>2026-04-25T11:48:50.938Z</time></trkpt><trkpt lat="43.6481517" lon="12.6568533"><ele>482.0</ele><time>2026-04-25T11:48:51.938Z</time></trkpt><trkpt lat="43.6482533" lon="12.6567867"><ele>476.0</ele><time>2026-04-25T11:48:52.938Z</time></trkpt><trkpt lat="43.6483517" lon="12.6567017"><ele>470.0</ele><time>2026-04-25T11:48:53.938Z</time></trkpt><trkpt lat="43.64845" lon="12.656615"><ele>464.0</ele><time>2026-04-25T11:48:54.937Z</time></trkpt><trkpt lat="43.6485517" lon="12.6565283"><ele>466.6</ele><time>2026-04-25T11:48:55.937Z</time></trkpt><trkpt lat="43.6486517" lon="12.65645"><ele>469.2</ele><time>2026-04-25T11:48:56.937Z</time></trkpt><trkpt lat="43.6487467" lon="12.6563817"><ele>471.80000000000007</ele><time>2026-04-25T11:48:57.938Z</time></trkpt><trkpt lat="43.648845" lon="12.656345"><ele>474.40000000000003</ele><time>2026-04-25T11:48:58.938Z</time></trkpt><trkpt lat="43.6489483" lon="12.6563283"><ele>477.0</ele><time>2026-04-25T11:48:59.937Z</time></trkpt><trkpt lat="43.6490583" lon="12.6563233"><ele>477.0</ele><time>2026-04-25T11:49:00.938Z</time></trkpt><trkpt lat="43.649175" lon="12.6563267"><ele>477.0</ele><time>2026-04-25T11:49:01.938Z</time></trkpt><trkpt lat="43.6492917" lon="12.6563233"><ele>477.0</ele><time>2026-04-25T11:49:02.937Z</time></trkpt><trkpt lat="43.6494033" lon="12.656305"><ele>477.0</ele><time>2026-04-25T11:49:03.938Z</time></trkpt><trkpt lat="43.6495133" lon="12.656275"><ele>474.20000000000005</ele><time>2026-04-25T11:49:04.938Z</time></trkpt><trkpt lat="43.649615" lon="12.6562317"><ele>471.40000000000003</ele><time>2026-04-25T11:49:05.938Z</time></trkpt><trkpt lat="43.6497183" lon="12.6561933"><ele>468.59999999999997</ele><time>2026-04-25T11:49:06.938Z</time></trkpt><trkpt lat="43.6498267" lon="12.6561633"><ele>465.79999999999995</ele><time>2026-04-25T11:49:07.938Z</time></trkpt><trkpt lat="43.6499333" lon="12.65612"><ele>463.0</ele><time>2026-04-25T11:49:08.938Z</time></trkpt><trkpt lat="43.6500383" lon="12.65607"><ele>461.33333333333337</ele><time>2026-04-25T11:49:09.938Z</time></trkpt><trkpt lat="43.6501367" lon="12.6560267"><ele>459.6666666666667</ele><time>2026-04-25T11:49:10.938Z</time></trkpt><trkpt lat="43.6502283" lon="12.6559817"><ele>458.0</ele><time>2026-04-25T11:49:11.938Z</time></trkpt><trkpt lat="43.6503" lon="12.65593"><ele>456.33333333333337</ele><time>2026-04-25T11:49:12.938Z</time></trkpt><trkpt lat="43.6503517" lon="12.6558517"><ele>454.6666666666667</ele><time>2026-04-25T11:49:13.937Z</time></trkpt><trkpt lat="43.6503817" lon="12.65575"><ele>453.0</ele><time>2026-04-25T11:49:14.938Z</time></trkpt><trkpt lat="43.6504017" lon="12.6556233"><ele>452.4</ele><time>2026-04-25T11:49:15.938Z</time></trkpt><trkpt lat="43.6504367" lon="12.6555"><ele>451.79999999999995</ele><time>2026-04-25T11:49:16.938Z</time></trkpt><trkpt lat="43.6504983" lon="12.6553833"><ele>451.2</ele><time>2026-04-25T11:49:17.938Z</time></trkpt><trkpt lat="43.650575" lon="12.6552683"><ele>450.6</ele><time>2026-04-25T11:49:18.937Z</time></trkpt><trkpt lat="43.6506583" lon="12.6551433"><ele>450.0</ele><time>2026-04-25T11:49:19.938Z</time></trkpt><trkpt lat="43.6507383" lon="12.6550067"><ele>450.0</ele><time>2026-04-25T11:49:20.938Z</time></trkpt><trkpt lat="43.65081" lon="12.6548583"><ele>450.0</ele><time>2026-04-25T11:49:21.938Z</time></trkpt><trkpt lat="43.650875" lon="12.6547"><ele>450.0</ele><time>2026-04-25T11:49:22.938Z</time></trkpt><trkpt lat="43.6509367" lon="12.6545367"><ele>450.0</ele><time>2026-04-25T11:49:23.937Z</time></trkpt><trkpt lat="43.6509983" lon="12.6543717"><ele>447.75</ele><time>2026-04-25T11:49:24.938Z</time></trkpt><trkpt lat="43.6510567" lon="12.65421"><ele>445.5</ele><time>2026-04-25T11:49:25.938Z</time></trkpt><trkpt lat="43.6511133" lon="12.65405"><ele>443.25</ele><time>2026-04-25T11:49:26.938Z</time></trkpt><trkpt lat="43.65117" lon="12.6538917"><ele>441.0</ele><time>2026-04-25T11:49:27.938Z</time></trkpt><trkpt lat="43.6512267" lon="12.6537383"><ele>447.0</ele><time>2026-04-25T11:49:28.938Z</time></trkpt><trkpt lat="43.65128" lon="12.6535883"><ele>453.0</ele><time>2026-04-25T11:49:29.937Z</time></trkpt><trkpt lat="43.6513233" lon="12.6534383"><ele>459.0</ele><time>2026-04-25T11:49:30.938Z</time></trkpt><trkpt lat="43.6513667" lon="12.6532833"><ele>465.0</ele><time>2026-04-25T11:49:31.937Z</time></trkpt><trkpt lat="43.6514133" lon="12.6531267"><ele>465.0</ele><time>2026-04-25T11:49:32.938Z</time></trkpt><trkpt lat="43.6514633" lon="12.6529633"><ele>465.0</ele><time>2026-04-25T11:49:33.938Z</time></trkpt><trkpt lat="43.651515" lon="12.6528033"><ele>465.0</ele><time>2026-04-25T11:49:34.938Z</time></trkpt><trkpt lat="43.6515733" lon="12.652645"><ele>465.0</ele><time>2026-04-25T11:49:35.938Z</time></trkpt><trkpt lat="43.6516433" lon="12.65249"><ele>463.25</ele><time>2026-04-25T11:49:36.938Z</time></trkpt><trkpt lat="43.6517233" lon="12.6523383"><ele>461.5</ele><time>2026-04-25T11:49:37.938Z</time></trkpt><trkpt lat="43.6518133" lon="12.65219"><ele>459.75</ele><time>2026-04-25T11:49:38.938Z</time></trkpt><trkpt lat="43.6519033" lon="12.65204"><ele>458.0</ele><time>2026-04-25T11:49:39.938Z</time></trkpt><trkpt lat="43.651995" lon="12.6518867"><ele>458.0</ele><time>2026-04-25T11:49:40.938Z</time></trkpt><trkpt lat="43.65208" lon="12.65173"><ele>458.0</ele><time>2026-04-25T11:49:41.938Z</time></trkpt><trkpt lat="43.6521517" lon="12.6515783"><ele>458.0</ele><time>2026-04-25T11:49:42.938Z</time></trkpt><trkpt lat="43.65221" lon="12.651435"><ele>458.0</ele><time>2026-04-25T11:49:43.937Z</time></trkpt><trkpt lat="43.6522633" lon="12.6513033"><ele>457.99999999999994</ele><time>2026-04-25T11:49:44.938Z</time></trkpt><trkpt lat="43.6523117" lon="12.6511783"><ele>458.0</ele><time>2026-04-25T11:49:45.938Z</time></trkpt><trkpt lat="43.6523583" lon="12.6510667"><ele>458.0</ele><time>2026-04-25T11:49:46.938Z</time></trkpt><trkpt lat="43.6524083" lon="12.6509683"><ele>458.0</ele><time>2026-04-25T11:49:47.938Z</time></trkpt><trkpt lat="43.65247" lon="12.6508983"><ele>457.99999999999994</ele><time>2026-04-25T11:49:48.938Z</time></trkpt><trkpt lat="43.6525467" lon="12.6508633"><ele>458.0</ele><time>2026-04-25T11:49:49.938Z</time></trkpt><trkpt lat="43.6526383" lon="12.650845"><ele>455.0</ele><time>2026-04-25T11:49:50.938Z</time></trkpt><trkpt lat="43.652745" lon="12.6508433"><ele>452.0</ele><time>2026-04-25T11:49:51.938Z</time></trkpt><trkpt lat="43.6528583" lon="12.650855"><ele>449.0</ele><time>2026-04-25T11:49:52.938Z</time></trkpt><trkpt lat="43.652975" lon="12.6508783"><ele>446.0</ele><time>2026-04-25T11:49:53.938Z</time></trkpt><trkpt lat="43.6530933" lon="12.65089"><ele>443.4</ele><time>2026-04-25T11:49:54.937Z</time></trkpt><trkpt lat="43.6532017" lon="12.6508767"><ele>440.8</ele><time>2026-04-25T11:49:55.937Z</time></trkpt><trkpt lat="43.6533" lon="12.6508417"><ele>438.19999999999993</ele><time>2026-04-25T11:49:56.938Z</time></trkpt><trkpt lat="43.6533833" lon="12.650785"><ele>435.59999999999997</ele><time>2026-04-25T11:49:57.938Z</time></trkpt><trkpt lat="43.653465" lon="12.65072"><ele>433.0</ele><time>2026-04-25T11:49:58.938Z</time></trkpt><trkpt lat="43.6535517" lon="12.6506517"><ele>431.75</ele><time>2026-04-25T11:49:59.938Z</time></trkpt><trkpt lat="43.6536467" lon="12.6505833"><ele>430.5</ele><time>2026-04-25T11:50:00.938Z</time></trkpt><trkpt lat="43.6537467" lon="12.6505083"><ele>429.25</ele><time>2026-04-25T11:50:01.937Z</time></trkpt><trkpt lat="43.65385" lon="12.65042"><ele>428.0</ele><time>2026-04-25T11:50:02.938Z</time></trkpt><trkpt lat="43.6539533" lon="12.65032"><ele>427.0</ele><time>2026-04-25T11:50:03.938Z</time></trkpt><trkpt lat="43.65405" lon="12.650215"><ele>426.0</ele><time>2026-04-25T11:50:04.938Z</time></trkpt><trkpt lat="43.6541417" lon="12.65011"><ele>425.0</ele><time>2026-04-25T11:50:05.938Z</time></trkpt><trkpt lat="43.6542267" lon="12.6500067"><ele>424.0</ele><time>2026-04-25T11:50:06.938Z</time></trkpt><trkpt lat="43.6543083" lon="12.6499017"><ele>424.0</ele><time>2026-04-25T11:50:07.938Z</time></trkpt><trkpt lat="43.6543883" lon="12.6497983"><ele>424.0</ele><time>2026-04-25T11:50:08.938Z</time></trkpt><trkpt lat="43.6544683" lon="12.6497017"><ele>424.0</ele><time>2026-04-25T11:50:09.937Z</time></trkpt><trkpt lat="43.6545567" lon="12.649615"><ele>424.0</ele><time>2026-04-25T11:50:10.938Z</time></trkpt><trkpt lat="43.6546467" lon="12.6495267"><ele>424.0</ele><time>2026-04-25T11:50:11.938Z</time></trkpt><trkpt lat="43.6547367" lon="12.6494367"><ele>421.25</ele><time>2026-04-25T11:50:12.938Z</time></trkpt><trkpt lat="43.6548317" lon="12.6493667"><ele>418.5</ele><time>2026-04-25T11:50:13.938Z</time></trkpt><trkpt lat="43.6549317" lon="12.6493"><ele>415.75</ele><time>2026-04-25T11:50:14.938Z</time></trkpt><trkpt lat="43.6550417" lon="12.6492483"><ele>413.0</ele><time>2026-04-25T11:50:15.938Z</time></trkpt><trkpt lat="43.6551583" lon="12.6492"><ele>413.0</ele><time>2026-04-25T11:50:16.938Z</time></trkpt><trkpt lat="43.6552717" lon="12.6491433"><ele>413.0</ele><time>2026-04-25T11:50:17.938Z</time></trkpt><trkpt lat="43.6553817" lon="12.6490767"><ele>413.0</ele><time>2026-04-25T11:50:18.938Z</time></trkpt><trkpt lat="43.6554883" lon="12.649005"><ele>413.0</ele><time>2026-04-25T11:50:19.937Z</time></trkpt><trkpt lat="43.6555933" lon="12.6489283"><ele>412.0</ele><time>2026-04-25T11:50:20.938Z</time></trkpt><trkpt lat="43.6556983" lon="12.64888"><ele>411.0</ele><time>2026-04-25T11:50:21.937Z</time></trkpt><trkpt lat="43.6558083" lon="12.6488617"><ele>410.0</ele><time>2026-04-25T11:50:22.938Z</time></trkpt><trkpt lat="43.6559217" lon="12.6488467"><ele>409.0</ele><time>2026-04-25T11:50:23.937Z</time></trkpt><trkpt lat="43.6560317" lon="12.6488167"><ele>408.0</ele><time>2026-04-25T11:50:24.937Z</time></trkpt><trkpt lat="43.6561367" lon="12.6487717"><ele>406.0</ele><time>2026-04-25T11:50:25.938Z</time></trkpt><trkpt lat="43.6562417" lon="12.6487067"><ele>404.0</ele><time>2026-04-25T11:50:26.938Z</time></trkpt><trkpt lat="43.65635" lon="12.6486367"><ele>402.0</ele><time>2026-04-25T11:50:27.937Z</time></trkpt><trkpt lat="43.6564533" lon="12.6485717"><ele>400.0</ele><time>2026-04-25T11:50:28.938Z</time></trkpt><trkpt lat="43.6565517" lon="12.6485033"><ele>400.0</ele><time>2026-04-25T11:50:29.938Z</time></trkpt><trkpt lat="43.6566467" lon="12.6484167"><ele>400.0</ele><time>2026-04-25T11:50:30.938Z</time></trkpt><trkpt lat="43.65673" lon="12.6483033"><ele>400.0</ele><time>2026-04-25T11:50:31.938Z</time></trkpt><trkpt lat="43.6568017" lon="12.648165"><ele>400.0</ele><time>2026-04-25T11:50:32.938Z</time></trkpt><trkpt lat="43.6568717" lon="12.6480167"><ele>400.0</ele><time>2026-04-25T11:50:33.937Z</time></trkpt><trkpt lat="43.6569433" lon="12.6478683"><ele>400.0</ele><time>2026-04-25T11:50:34.938Z</time></trkpt><trkpt lat="43.657015" lon="12.6477233"><ele>400.0</ele><time>2026-04-25T11:50:35.938Z</time></trkpt><trkpt lat="43.6570867" lon="12.647575"><ele>400.0</ele><time>2026-04-25T11:50:36.937Z</time></trkpt><trkpt lat="43.6571483" lon="12.647435"><ele>395.8</ele><time>2026-04-25T11:50:37.938Z</time></trkpt><trkpt lat="43.6572033" lon="12.6473033"><ele>391.6</ele><time>2026-04-25T11:50:38.938Z</time></trkpt><trkpt lat="43.657255" lon="12.6471733"><ele>387.4</ele><time>2026-04-25T11:50:39.938Z</time></trkpt><trkpt lat="43.65731" lon="12.6470483"><ele>383.2</ele><time>2026-04-25T11:50:40.938Z</time></trkpt><trkpt lat="43.6573717" lon="12.6469267"><ele>379.0</ele><time>2026-04-25T11:50:41.938Z</time></trkpt><trkpt lat="43.6574367" lon="12.6468083"><ele>378.4</ele><time>2026-04-25T11:50:42.938Z</time></trkpt><trkpt lat="43.6575017" lon="12.64669"><ele>377.79999999999995</ele><time>2026-04-25T11:50:43.938Z</time></trkpt><trkpt lat="43.65757" lon="12.64658"><ele>377.20000000000005</ele><time>2026-04-25T11:50:44.938Z</time></trkpt><trkpt lat="43.6576467" lon="12.6464783"><ele>376.6</ele><time>2026-04-25T11:50:45.937Z</time></trkpt><trkpt lat="43.6577267" lon="12.6463717"><ele>376.0</ele><time>2026-04-25T11:50:46.936Z</time></trkpt><trkpt lat="43.6578033" lon="12.6462483"><ele>374.25</ele><time>2026-04-25T11:50:47.937Z</time></trkpt><trkpt lat="43.6578833" lon="12.6461183"><ele>372.5</ele><time>2026-04-25T11:50:48.937Z</time></trkpt><trkpt lat="43.657965" lon="12.6459883"><ele>370.75</ele><time>2026-04-25T11:50:49.937Z</time></trkpt><trkpt lat="43.6580483" lon="12.64586"><ele>369.0</ele><time>2026-04-25T11:50:50.937Z</time></trkpt><trkpt lat="43.6581367" lon="12.645735"><ele>369.0</ele><time>2026-04-25T11:50:51.937Z</time></trkpt><trkpt lat="43.6582283" lon="12.6456167"><ele>369.0</ele><time>2026-04-25T11:50:52.937Z</time></trkpt><trkpt lat="43.6583183" lon="12.6455017"><ele>369.0</ele><time>2026-04-25T11:50:53.937Z</time></trkpt><trkpt lat="43.65841" lon="12.6453917"><ele>369.0</ele><time>2026-04-25T11:50:54.937Z</time></trkpt><trkpt lat="43.658505" lon="12.6452883"><ele>367.25</ele><time>2026-04-25T11:50:55.937Z</time></trkpt><trkpt lat="43.658605" lon="12.6451917"><ele>365.5</ele><time>2026-04-25T11:50:56.937Z</time></trkpt><trkpt lat="43.6587017" lon="12.6451017"><ele>363.75</ele><time>2026-04-25T11:50:57.937Z</time></trkpt><trkpt lat="43.658795" lon="12.6450183"><ele>362.0</ele><time>2026-04-25T11:50:58.937Z</time></trkpt><trkpt lat="43.658885" lon="12.64494"><ele>362.0</ele><time>2026-04-25T11:50:59.937Z</time></trkpt><trkpt lat="43.6589667" lon="12.644865"><ele>362.0</ele><time>2026-04-25T11:51:00.937Z</time></trkpt><trkpt lat="43.65904" lon="12.64479"><ele>362.0</ele><time>2026-04-25T11:51:01.937Z</time></trkpt><trkpt lat="43.659115" lon="12.6447183"><ele>362.0</ele><time>2026-04-25T11:51:02.937Z</time></trkpt><trkpt lat="43.6591917" lon="12.64465"><ele>362.0</ele><time>2026-04-25T11:51:03.937Z</time></trkpt><trkpt lat="43.6592667" lon="12.6445717"><ele>362.0</ele><time>2026-04-25T11:51:04.936Z</time></trkpt><trkpt lat="43.6593317" lon="12.6444717"><ele>362.0</ele><time>2026-04-25T11:51:05.937Z</time></trkpt><trkpt lat="43.6594033" lon="12.6443783"><ele>362.0</ele><time>2026-04-25T11:51:06.937Z</time></trkpt><trkpt lat="43.6594667" lon="12.64428"><ele>362.0</ele><time>2026-04-25T11:51:07.936Z</time></trkpt><trkpt lat="43.65954" lon="12.64418"><ele>362.0</ele><time>2026-04-25T11:51:08.937Z</time></trkpt><trkpt lat="43.6596133" lon="12.644085"><ele>360.0</ele><time>2026-04-25T11:51:09.937Z</time></trkpt><trkpt lat="43.659685" lon="12.6439883"><ele>358.0</ele><time>2026-04-25T11:51:10.937Z</time></trkpt><trkpt lat="43.6597517" lon="12.6438883"><ele>356.0</ele><time>2026-04-25T11:51:11.936Z</time></trkpt><trkpt lat="43.659825" lon="12.6437883"><ele>354.0</ele><time>2026-04-25T11:51:12.937Z</time></trkpt><trkpt lat="43.659895" lon="12.6436817"><ele>352.0</ele><time>2026-04-25T11:51:13.936Z</time></trkpt><trkpt lat="43.6599667" lon="12.6435683"><ele>350.25</ele><time>2026-04-25T11:51:14.937Z</time></trkpt><trkpt lat="43.6600367" lon="12.64345"><ele>348.5</ele><time>2026-04-25T11:51:15.937Z</time></trkpt><trkpt lat="43.660105" lon="12.6433267"><ele>346.75</ele><time>2026-04-25T11:51:16.937Z</time></trkpt><trkpt lat="43.6601733" lon="12.6432033"><ele>345.0</ele><time>2026-04-25T11:51:17.937Z</time></trkpt><trkpt lat="43.6602533" lon="12.6430833"><ele>343.8</ele><time>2026-04-25T11:51:18.936Z</time></trkpt><trkpt lat="43.6603383" lon="12.6429733"><ele>342.6</ele><time>2026-04-25T11:51:19.937Z</time></trkpt><trkpt lat="43.6604333" lon="12.6428867"><ele>341.4</ele><time>2026-04-25T11:51:20.937Z</time></trkpt><trkpt lat="43.6605333" lon="12.6428417"><ele>340.2</ele><time>2026-04-25T11:51:21.936Z</time></trkpt><trkpt lat="43.6606233" lon="12.642845"><ele>339.0</ele><time>2026-04-25T11:51:22.937Z</time></trkpt><trkpt lat="43.66069" lon="12.6428783"><ele>339.0</ele><time>2026-04-25T11:51:23.937Z</time></trkpt><trkpt lat="43.6607417" lon="12.6429633"><ele>339.0</ele><time>2026-04-25T11:51:25.937Z</time></trkpt><trkpt lat="43.6607967" lon="12.6428967"><ele>339.0</ele><time>2026-04-25T11:51:32.936Z</time></trkpt><trkpt lat="43.660805" lon="12.642765"><ele>339.0</ele><time>2026-04-25T11:51:34.937Z</time></trkpt><trkpt lat="43.6608783" lon="12.6426283"><ele>339.0</ele><time>2026-04-25T11:51:36.936Z</time></trkpt><trkpt lat="43.6609283" lon="12.6425583"><ele>339.0</ele><time>2026-04-25T11:51:37.937Z</time></trkpt><trkpt lat="43.660985" lon="12.642495"><ele>339.0</ele><time>2026-04-25T11:51:38.937Z</time></trkpt><trkpt lat="43.6610433" lon="12.6424333"><ele>339.0</ele><time>2026-04-25T11:51:39.937Z</time></trkpt><trkpt lat="43.6611" lon="12.6423633"><ele>339.0</ele><time>2026-04-25T11:51:40.936Z</time></trkpt><trkpt lat="43.6611533" lon="12.6422833"><ele>339.0</ele><time>2026-04-25T11:51:41.937Z</time></trkpt><trkpt lat="43.6612067" lon="12.6421967"><ele>339.0</ele><time>2026-04-25T11:51:42.936Z</time></trkpt><trkpt lat="43.6612583" lon="12.6421017"><ele>339.0</ele><time>2026-04-25T11:51:43.936Z</time></trkpt><trkpt lat="43.66131" lon="12.6419967"><ele>337.4</ele><time>2026-04-25T11:51:44.936Z</time></trkpt><trkpt lat="43.66136" lon="12.6418783"><ele>335.79999999999995</ele><time>2026-04-25T11:51:45.936Z</time></trkpt><trkpt lat="43.6614133" lon="12.64176"><ele>334.20000000000005</ele><time>2026-04-25T11:51:46.936Z</time></trkpt><trkpt lat="43.661455" lon="12.641645"><ele>332.6</ele><time>2026-04-25T11:51:47.936Z</time></trkpt><trkpt lat="43.6614983" lon="12.6415467"><ele>331.0</ele><time>2026-04-25T11:51:48.937Z</time></trkpt><trkpt lat="43.66154" lon="12.6414583"><ele>331.0</ele><time>2026-04-25T11:51:49.937Z</time></trkpt><trkpt lat="43.6615767" lon="12.6413833"><ele>331.0</ele><time>2026-04-25T11:51:50.936Z</time></trkpt><trkpt lat="43.6616317" lon="12.6412767"><ele>331.0</ele><time>2026-04-25T11:51:52.936Z</time></trkpt><trkpt lat="43.6616767" lon="12.6411867"><ele>331.0</ele><time>2026-04-25T11:51:54.936Z</time></trkpt><trkpt lat="43.6617317" lon="12.6410967"><ele>331.0</ele><time>2026-04-25T11:51:56.936Z</time></trkpt><trkpt lat="43.6618233" lon="12.641"><ele>331.0</ele><time>2026-04-25T11:51:58.937Z</time></trkpt><trkpt lat="43.66192" lon="12.64087"><ele>329.4</ele><time>2026-04-25T11:52:00.937Z</time></trkpt><trkpt lat="43.662" lon="12.6407783"><ele>327.8</ele><time>2026-04-25T11:52:02.937Z</time></trkpt><trkpt lat="43.6620767" lon="12.6407083"><ele>326.2</ele><time>2026-04-25T11:52:04.937Z</time></trkpt><trkpt lat="43.6621683" lon="12.6406117"><ele>324.59999999999997</ele><time>2026-04-25T11:52:06.937Z</time></trkpt><trkpt lat="43.6622217" lon="12.6405617"><ele>323.0</ele><time>2026-04-25T11:52:07.937Z</time></trkpt><trkpt lat="43.6623183" lon="12.6404733"><ele>323.0</ele><time>2026-04-25T11:52:09.937Z</time></trkpt><trkpt lat="43.6624017" lon="12.6403917"><ele>323.0</ele><time>2026-04-25T11:52:11.936Z</time></trkpt><trkpt lat="43.662465" lon="12.6402933"><ele>323.0</ele><time>2026-04-25T11:52:13.937Z</time></trkpt><trkpt lat="43.662525" lon="12.640225"><ele>323.0</ele><time>2026-04-25T11:52:15.937Z</time></trkpt><trkpt lat="43.6625883" lon="12.6401633"><ele>323.0</ele><time>2026-04-25T11:52:18.937Z</time></trkpt><trkpt lat="43.66264" lon="12.64009"><ele>323.0</ele><time>2026-04-25T11:52:21.937Z</time></trkpt><trkpt lat="43.66272" lon="12.6400367"><ele>317.4</ele><time>2026-04-25T11:52:23.937Z</time></trkpt><trkpt lat="43.662815" lon="12.6399817"><ele>311.79999999999995</ele><time>2026-04-25T11:52:25.937Z</time></trkpt><trkpt lat="43.6629117" lon="12.6399317"><ele>306.2</ele><time>2026-04-25T11:52:27.937Z</time></trkpt><trkpt lat="43.66303" lon="12.639905"><ele>300.6</ele><time>2026-04-25T11:52:29.937Z</time></trkpt><trkpt lat="43.6631517" lon="12.639925"><ele>295.0</ele><time>2026-04-25T11:52:31.936Z</time></trkpt><trkpt lat="43.663215" lon="12.6399483"><ele>295.0</ele><time>2026-04-25T11:52:32.937Z</time></trkpt><trkpt lat="43.6632767" lon="12.6399733"><ele>295.0</ele><time>2026-04-25T11:52:33.937Z</time></trkpt><trkpt lat="43.6633717" lon="12.64001"><ele>295.0</ele><time>2026-04-25T11:52:35.937Z</time></trkpt><trkpt lat="43.6634333" lon="12.6400467"><ele>295.0</ele><time>2026-04-25T11:52:37.937Z</time></trkpt><trkpt lat="43.663505" lon="12.64002"><ele>295.0</ele><time>2026-04-25T11:52:40.937Z</time></trkpt><trkpt lat="43.66349" lon="12.6399067"><ele>295.0</ele><time>2026-04-25T11:52:43.936Z</time></trkpt><trkpt lat="43.6634433" lon="12.639785"><ele>295.0</ele><time>2026-04-25T11:52:45.937Z</time></trkpt><trkpt lat="43.663385" lon="12.6396667"><ele>295.0</ele><time>2026-04-25T11:52:47.937Z</time></trkpt><trkpt lat="43.66331" lon="12.63954"><ele>295.0</ele><time>2026-04-25T11:52:49.937Z</time></trkpt><trkpt lat="43.6632333" lon="12.639405"><ele>295.0</ele><time>2026-04-25T11:52:51.937Z</time></trkpt><trkpt lat="43.663165" lon="12.6392817"><ele>291.4</ele><time>2026-04-25T11:52:53.937Z</time></trkpt><trkpt lat="43.6630967" lon="12.6391633"><ele>287.8</ele><time>2026-04-25T11:52:55.937Z</time></trkpt><trkpt lat="43.663015" lon="12.639045"><ele>284.2</ele><time>2026-04-25T11:52:57.937Z</time></trkpt><trkpt lat="43.6629517" lon="12.6389417"><ele>280.6</ele><time>2026-04-25T11:52:59.936Z</time></trkpt><trkpt lat="43.662905" lon="12.6388633"><ele>277.0</ele><time>2026-04-25T11:53:01.937Z</time></trkpt><trkpt lat="43.6629617" lon="12.6388017"><ele>277.0</ele><time>2026-04-25T11:53:04.936Z</time></trkpt><trkpt lat="43.663065" lon="12.6388583"><ele>277.0</ele><time>2026-04-25T11:53:06.937Z</time></trkpt><trkpt lat="43.6631317" lon="12.6389167"><ele>277.0</ele><time>2026-04-25T11:53:07.937Z</time></trkpt><trkpt lat="43.6632017" lon="12.6389817"><ele>277.0</ele><time>2026-04-25T11:53:08.936Z</time></trkpt><trkpt lat="43.6632733" lon="12.63905"><ele>277.0</ele><time>2026-04-25T11:53:09.937Z</time></trkpt><trkpt lat="43.66335" lon="12.639115"><ele>277.0</ele><time>2026-04-25T11:53:10.937Z</time></trkpt><trkpt lat="43.6634267" lon="12.6391733"><ele>277.0</ele><time>2026-04-25T11:53:11.937Z</time></trkpt><trkpt lat="43.6635033" lon="12.6392333"><ele>277.0</ele><time>2026-04-25T11:53:12.936Z</time></trkpt><trkpt lat="43.6635767" lon="12.6392917"><ele>277.0</ele><time>2026-04-25T11:53:13.937Z</time></trkpt><trkpt lat="43.6636533" lon="12.6393517"><ele>277.0</ele><time>2026-04-25T11:53:14.937Z</time></trkpt><trkpt lat="43.6637283" lon="12.6394133"><ele>277.0</ele><time>2026-04-25T11:53:15.937Z</time></trkpt><trkpt lat="43.663805" lon="12.6394767"><ele>274.5</ele><time>2026-04-25T11:53:16.937Z</time></trkpt><trkpt lat="43.66388" lon="12.6395383"><ele>272.0</ele><time>2026-04-25T11:53:17.936Z</time></trkpt><trkpt lat="43.6639533" lon="12.6396033"><ele>269.5</ele><time>2026-04-25T11:53:18.937Z</time></trkpt><trkpt lat="43.66402" lon="12.6396783"><ele>267.0</ele><time>2026-04-25T11:53:19.937Z</time></trkpt><trkpt lat="43.6640817" lon="12.6397533"><ele>264.5</ele><time>2026-04-25T11:53:20.937Z</time></trkpt><trkpt lat="43.66413" lon="12.6398333"><ele>262.0</ele><time>2026-04-25T11:53:21.937Z</time></trkpt><trkpt lat="43.6641633" lon="12.6399233"><ele>262.0</ele><time>2026-04-25T11:53:22.936Z</time></trkpt><trkpt lat="43.6641833" lon="12.64002"><ele>262.0</ele><time>2026-04-25T11:53:23.936Z</time></trkpt><trkpt lat="43.6641917" lon="12.6401217"><ele>262.0</ele><time>2026-04-25T11:53:24.937Z</time></trkpt><trkpt lat="43.664195" lon="12.6402233"><ele>262.0</ele><time>2026-04-25T11:53:25.937Z</time></trkpt><trkpt lat="43.6642" lon="12.64032"><ele>262.0</ele><time>2026-04-25T11:53:26.937Z</time></trkpt><trkpt lat="43.6642" lon="12.6404183"><ele>262.0</ele><time>2026-04-25T11:53:27.937Z</time></trkpt><trkpt lat="43.6642017" lon="12.6405133"><ele>262.0</ele><time>2026-04-25T11:53:28.937Z</time></trkpt><trkpt lat="43.6642017" lon="12.6406067"><ele>262.0</ele><time>2026-04-25T11:53:29.937Z</time></trkpt><trkpt lat="43.6642017" lon="12.6407067"><ele>262.0</ele><time>2026-04-25T11:53:30.937Z</time></trkpt><trkpt lat="43.6642017" lon="12.6408083"><ele>262.0</ele><time>2026-04-25T11:53:31.937Z</time></trkpt><trkpt lat="43.6642067" lon="12.64091"><ele>262.0</ele><time>2026-04-25T11:53:32.937Z</time></trkpt><trkpt lat="43.6642233" lon="12.6410617"><ele>262.0</ele><time>2026-04-25T11:53:34.937Z</time></trkpt><trkpt lat="43.6642733" lon="12.6411683"><ele>262.0</ele><time>2026-04-25T11:53:37.937Z</time></trkpt><trkpt lat="43.6643283" lon="12.6412583"><ele>262.0</ele><time>2026-04-25T11:53:39.937Z</time></trkpt><trkpt lat="43.6644033" lon="12.641375"><ele>262.0</ele><time>2026-04-25T11:53:41.937Z</time></trkpt><trkpt lat="43.6644567" lon="12.6414317"><ele>262.0</ele><time>2026-04-25T11:53:42.937Z</time></trkpt><trkpt lat="43.6645167" lon="12.6414833"><ele>262.0</ele><time>2026-04-25T11:53:43.937Z</time></trkpt><trkpt lat="43.6645783" lon="12.6415433"><ele>262.0</ele><time>2026-04-25T11:53:44.936Z</time></trkpt><trkpt lat="43.6646433" lon="12.6416217"><ele>262.0</ele><time>2026-04-25T11:53:45.937Z</time></trkpt><trkpt lat="43.6647117" lon="12.641715"><ele>258.4</ele><time>2026-04-25T11:53:46.936Z</time></trkpt><trkpt lat="43.664775" lon="12.6418217"><ele>254.79999999999998</ele><time>2026-04-25T11:53:47.937Z</time></trkpt><trkpt lat="43.66482" lon="12.6419367"><ele>251.2</ele><time>2026-04-25T11:53:48.937Z</time></trkpt><trkpt lat="43.6648467" lon="12.642055"><ele>247.6</ele><time>2026-04-25T11:53:49.937Z</time></trkpt><trkpt lat="43.664865" lon="12.6421783"><ele>244.0</ele><time>2026-04-25T11:53:50.936Z</time></trkpt><trkpt lat="43.6648783" lon="12.6422983"><ele>243.99999999999997</ele><time>2026-04-25T11:53:51.936Z</time></trkpt><trkpt lat="43.6648933" lon="12.64241"><ele>244.0</ele><time>2026-04-25T11:53:52.937Z</time></trkpt><trkpt lat="43.6649067" lon="12.6425217"><ele>244.0</ele><time>2026-04-25T11:53:53.937Z</time></trkpt><trkpt lat="43.66492" lon="12.6426333"><ele>244.0</ele><time>2026-04-25T11:53:54.936Z</time></trkpt><trkpt lat="43.664935" lon="12.6427383"><ele>243.99999999999997</ele><time>2026-04-25T11:53:55.937Z</time></trkpt><trkpt lat="43.6649533" lon="12.6428283"><ele>244.0</ele><time>2026-04-25T11:53:56.936Z</time></trkpt><trkpt lat="43.66501" lon="12.6429367"><ele>243.99999999999997</ele><time>2026-04-25T11:53:58.937Z</time></trkpt><trkpt lat="43.6651017" lon="12.642955"><ele>244.0</ele><time>2026-04-25T11:54:00.937Z</time></trkpt><trkpt lat="43.6651617" lon="12.6429"><ele>244.0</ele><time>2026-04-25T11:54:01.936Z</time></trkpt><trkpt lat="43.6652167" lon="12.6428233"><ele>244.0</ele><time>2026-04-25T11:54:02.937Z</time></trkpt><trkpt lat="43.6652783" lon="12.6427367"><ele>243.99999999999997</ele><time>2026-04-25T11:54:03.936Z</time></trkpt><trkpt lat="43.6653467" lon="12.6426583"><ele>244.0</ele><time>2026-04-25T11:54:04.936Z</time></trkpt><trkpt lat="43.665415" lon="12.6425867"><ele>240.99999999999997</ele><time>2026-04-25T11:54:05.937Z</time></trkpt><trkpt lat="43.6654767" lon="12.642515"><ele>238.0</ele><time>2026-04-25T11:54:06.937Z</time></trkpt><trkpt lat="43.6655283" lon="12.6424533"><ele>235.0</ele><time>2026-04-25T11:54:07.937Z</time></trkpt><trkpt lat="43.6656267" lon="12.6424083"><ele>232.0</ele><time>2026-04-25T11:54:09.937Z</time></trkpt><trkpt lat="43.6657033" lon="12.6425333"><ele>228.99999999999997</ele><time>2026-04-25T11:54:11.936Z</time></trkpt><trkpt lat="43.6657533" lon="12.6426133"><ele>226.0</ele><time>2026-04-25T11:54:12.937Z</time></trkpt><trkpt lat="43.6658183" lon="12.6426917"><ele>226.0</ele><time>2026-04-25T11:54:13.937Z</time></trkpt><trkpt lat="43.6658917" lon="12.6427683"><ele>226.00000000000003</ele><time>2026-04-25T11:54:14.937Z</time></trkpt><trkpt lat="43.6659667" lon="12.64285"><ele>226.00000000000003</ele><time>2026-04-25T11:54:15.937Z</time></trkpt><trkpt lat="43.6660433" lon="12.6429233"><ele>226.0</ele><time>2026-04-25T11:54:16.937Z</time></trkpt><trkpt lat="43.6661317" lon="12.6429867"><ele>226.0</ele><time>2026-04-25T11:54:17.937Z</time></trkpt><trkpt lat="43.6662233" lon="12.6430417"><ele>223.0</ele><time>2026-04-25T11:54:18.937Z</time></trkpt><trkpt lat="43.6663183" lon="12.6430833"><ele>220.00000000000003</ele><time>2026-04-25T11:54:19.937Z</time></trkpt><trkpt lat="43.6664167" lon="12.64311"><ele>217.0</ele><time>2026-04-25T11:54:20.936Z</time></trkpt><trkpt lat="43.666525" lon="12.6431283"><ele>214.0</ele><time>2026-04-25T11:54:21.937Z</time></trkpt><trkpt lat="43.6666367" lon="12.6431417"><ele>211.0</ele><time>2026-04-25T11:54:22.936Z</time></trkpt><trkpt lat="43.6667467" lon="12.64315"><ele>211.0</ele><time>2026-04-25T11:54:23.937Z</time></trkpt><trkpt lat="43.66686" lon="12.6431683"><ele>211.0</ele><time>2026-04-25T11:54:24.937Z</time></trkpt><trkpt lat="43.6669733" lon="12.6432"><ele>211.0</ele><time>2026-04-25T11:54:25.936Z</time></trkpt><trkpt lat="43.6670867" lon="12.643245"><ele>211.0</ele><time>2026-04-25T11:54:26.937Z</time></trkpt><trkpt lat="43.6672017" lon="12.6433067"><ele>211.0</ele><time>2026-04-25T11:54:27.937Z</time></trkpt><trkpt lat="43.6673117" lon="12.6433883"><ele>211.0</ele><time>2026-04-25T11:54:28.936Z</time></trkpt><trkpt lat="43.66742" lon="12.6434817"><ele>211.0</ele><time>2026-04-25T11:54:29.937Z</time></trkpt><trkpt lat="43.66751" lon="12.6435717"><ele>211.0</ele><time>2026-04-25T11:54:30.937Z</time></trkpt><trkpt lat="43.6675917" lon="12.6436483"><ele>210.99999999999997</ele><time>2026-04-25T11:54:31.936Z</time></trkpt><trkpt lat="43.6676733" lon="12.6437133"><ele>211.0</ele><time>2026-04-25T11:54:32.937Z</time></trkpt><trkpt lat="43.6677533" lon="12.6437717"><ele>211.0</ele><time>2026-04-25T11:54:33.936Z</time></trkpt><trkpt lat="43.66782" lon="12.6438367"><ele>211.0</ele><time>2026-04-25T11:54:34.937Z</time></trkpt><trkpt lat="43.667875" lon="12.64392"><ele>210.99999999999997</ele><time>2026-04-25T11:54:35.936Z</time></trkpt><trkpt lat="43.6679167" lon="12.6440233"><ele>211.0</ele><time>2026-04-25T11:54:36.937Z</time></trkpt><trkpt lat="43.6679483" lon="12.6441317"><ele>210.33333333333331</ele><time>2026-04-25T11:54:37.937Z</time></trkpt><trkpt lat="43.66797" lon="12.644235"><ele>209.66666666666666</ele><time>2026-04-25T11:54:38.937Z</time></trkpt><trkpt lat="43.6679867" lon="12.6443233"><ele>209.0</ele><time>2026-04-25T11:54:39.937Z</time></trkpt><trkpt lat="43.6680333" lon="12.6444233"><ele>208.33333333333331</ele><time>2026-04-25T11:54:41.936Z</time></trkpt><trkpt lat="43.6681417" lon="12.644455"><ele>207.66666666666666</ele><time>2026-04-25T11:54:43.936Z</time></trkpt><trkpt lat="43.6682117" lon="12.6444417"><ele>207.0</ele><time>2026-04-25T11:54:44.936Z</time></trkpt><trkpt lat="43.6682917" lon="12.6444133"><ele>207.0</ele><time>2026-04-25T11:54:45.937Z</time></trkpt><trkpt lat="43.668375" lon="12.6443833"><ele>207.0</ele><time>2026-04-25T11:54:46.937Z</time></trkpt><trkpt lat="43.6684617" lon="12.6443533"><ele>207.0</ele><time>2026-04-25T11:54:47.937Z</time></trkpt><trkpt lat="43.6685533" lon="12.644325"><ele>207.0</ele><time>2026-04-25T11:54:48.937Z</time></trkpt><trkpt lat="43.668645" lon="12.6442917"><ele>207.0</ele><time>2026-04-25T11:54:49.937Z</time></trkpt><trkpt lat="43.6687333" lon="12.6442567"><ele>207.0</ele><time>2026-04-25T11:54:50.936Z</time></trkpt><trkpt lat="43.6688217" lon="12.6442267"><ele>207.0</ele><time>2026-04-25T11:54:51.937Z</time></trkpt><trkpt lat="43.668905" lon="12.6442"><ele>207.0</ele><time>2026-04-25T11:54:52.937Z</time></trkpt><trkpt lat="43.6689817" lon="12.64418"><ele>207.0</ele><time>2026-04-25T11:54:53.937Z</time></trkpt><trkpt lat="43.66905" lon="12.6441633"><ele>207.0</ele><time>2026-04-25T11:54:54.937Z</time></trkpt><trkpt lat="43.6691533" lon="12.64418"><ele>207.0</ele><time>2026-04-25T11:54:56.937Z</time></trkpt><trkpt lat="43.6691983" lon="12.6443"><ele>207.0</ele><time>2026-04-25T11:54:58.937Z</time></trkpt><trkpt lat="43.6691933" lon="12.6444033"><ele>207.0</ele><time>2026-04-25T11:54:59.936Z</time></trkpt><trkpt lat="43.6691833" lon="12.644535"><ele>207.0</ele><time>2026-04-25T11:55:00.937Z</time></trkpt><trkpt lat="43.6691783" lon="12.6446817"><ele>207.0</ele><time>2026-04-25T11:55:01.937Z</time></trkpt><trkpt lat="43.6691783" lon="12.6448367"><ele>207.0</ele><time>2026-04-25T11:55:02.937Z</time></trkpt><trkpt lat="43.6691767" lon="12.64501"><ele>207.5</ele><time>2026-04-25T11:55:03.937Z</time></trkpt><trkpt lat="43.6691667" lon="12.6452017"><ele>208.0</ele><time>2026-04-25T11:55:04.937Z</time></trkpt><trkpt lat="43.669155" lon="12.6453967"><ele>208.5</ele><time>2026-04-25T11:55:05.937Z</time></trkpt><trkpt lat="43.669145" lon="12.6455917"><ele>209.0</ele><time>2026-04-25T11:55:06.937Z</time></trkpt><trkpt lat="43.6691383" lon="12.6457833"><ele>209.25</ele><time>2026-04-25T11:55:07.937Z</time></trkpt><trkpt lat="43.6691383" lon="12.6459783"><ele>209.5</ele><time>2026-04-25T11:55:08.937Z</time></trkpt><trkpt lat="43.6691383" lon="12.6461667"><ele>209.75</ele><time>2026-04-25T11:55:09.937Z</time></trkpt><trkpt lat="43.6691367" lon="12.6463433"><ele>210.0</ele><time>2026-04-25T11:55:10.937Z</time></trkpt><trkpt lat="43.6691317" lon="12.646515"><ele>210.16666666666666</ele><time>2026-04-25T11:55:11.937Z</time></trkpt><trkpt lat="43.669125" lon="12.646675"><ele>210.33333333333331</ele><time>2026-04-25T11:55:12.937Z</time></trkpt><trkpt lat="43.669125" lon="12.646815"><ele>210.5</ele><time>2026-04-25T11:55:13.937Z</time></trkpt><trkpt lat="43.6691383" lon="12.6469317"><ele>210.66666666666666</ele><time>2026-04-25T11:55:14.937Z</time></trkpt><trkpt lat="43.6691667" lon="12.6470267"><ele>210.83333333333331</ele><time>2026-04-25T11:55:15.937Z</time></trkpt><trkpt lat="43.6692083" lon="12.6470967"><ele>211.0</ele><time>2026-04-25T11:55:16.937Z</time></trkpt><trkpt lat="43.66926" lon="12.6471517"><ele>210.99999999999997</ele><time>2026-04-25T11:55:17.936Z</time></trkpt><trkpt lat="43.66932" lon="12.647205"><ele>211.0</ele><time>2026-04-25T11:55:18.936Z</time></trkpt><trkpt lat="43.6693867" lon="12.6472583"><ele>211.0</ele><time>2026-04-25T11:55:19.936Z</time></trkpt><trkpt lat="43.6694617" lon="12.6472983"><ele>211.0</ele><time>2026-04-25T11:55:20.937Z</time></trkpt><trkpt lat="43.6695533" lon="12.6473117"><ele>210.99999999999997</ele><time>2026-04-25T11:55:21.937Z</time></trkpt><trkpt lat="43.6696533" lon="12.6473083"><ele>211.0</ele><time>2026-04-25T11:55:22.937Z</time></trkpt><trkpt lat="43.669755" lon="12.6473117"><ele>211.4</ele><time>2026-04-25T11:55:23.937Z</time></trkpt><trkpt lat="43.66986" lon="12.64733"><ele>211.8</ele><time>2026-04-25T11:55:24.937Z</time></trkpt><trkpt lat="43.6699633" lon="12.647355"><ele>212.20000000000002</ele><time>2026-04-25T11:55:25.937Z</time></trkpt><trkpt lat="43.6700567" lon="12.64739"><ele>212.60000000000002</ele><time>2026-04-25T11:55:26.937Z</time></trkpt><trkpt lat="43.67014" lon="12.6474333"><ele>213.0</ele><time>2026-04-25T11:55:27.937Z</time></trkpt><trkpt lat="43.6702283" lon="12.6474833"><ele>211.75</ele><time>2026-04-25T11:55:28.936Z</time></trkpt><trkpt lat="43.670325" lon="12.6475367"><ele>210.5</ele><time>2026-04-25T11:55:29.937Z</time></trkpt><trkpt lat="43.6704317" lon="12.6475917"><ele>209.25</ele><time>2026-04-25T11:55:30.937Z</time></trkpt><trkpt lat="43.6705433" lon="12.64764"><ele>208.0</ele><time>2026-04-25T11:55:31.937Z</time></trkpt><trkpt lat="43.6706617" lon="12.6476717"><ele>208.0</ele><time>2026-04-25T11:55:32.937Z</time></trkpt><trkpt lat="43.670785" lon="12.64768"><ele>208.0</ele><time>2026-04-25T11:55:33.937Z</time></trkpt><trkpt lat="43.6709033" lon="12.6476717"><ele>208.0</ele><time>2026-04-25T11:55:34.937Z</time></trkpt><trkpt lat="43.6710183" lon="12.6476567"><ele>208.0</ele><time>2026-04-25T11:55:35.937Z</time></trkpt><trkpt lat="43.67113" lon="12.6476417"><ele>207.60000000000002</ele><time>2026-04-25T11:55:36.937Z</time></trkpt><trkpt lat="43.6712433" lon="12.64763"><ele>207.20000000000002</ele><time>2026-04-25T11:55:37.937Z</time></trkpt><trkpt lat="43.6713517" lon="12.6476217"><ele>206.8</ele><time>2026-04-25T11:55:38.937Z</time></trkpt><trkpt lat="43.6714533" lon="12.6476233"><ele>206.4</ele><time>2026-04-25T11:55:39.937Z</time></trkpt><trkpt lat="43.6715567" lon="12.6476383"><ele>206.0</ele><time>2026-04-25T11:55:40.937Z</time></trkpt><trkpt lat="43.6716583" lon="12.6476817"><ele>206.0</ele><time>2026-04-25T11:55:41.937Z</time></trkpt><trkpt lat="43.6717467" lon="12.6477617"><ele>206.0</ele><time>2026-04-25T11:55:42.937Z</time></trkpt><trkpt lat="43.6718267" lon="12.6478633"><ele>206.0</ele><time>2026-04-25T11:55:43.937Z</time></trkpt><trkpt lat="43.6718917" lon="12.64797"><ele>206.0</ele><time>2026-04-25T11:55:44.937Z</time></trkpt><trkpt lat="43.671945" lon="12.648075"><ele>206.0</ele><time>2026-04-25T11:55:45.937Z</time></trkpt><trkpt lat="43.6719867" lon="12.6481667"><ele>208.20000000000002</ele><time>2026-04-25T11:55:46.937Z</time></trkpt><trkpt lat="43.6720533" lon="12.6482783"><ele>210.4</ele><time>2026-04-25T11:55:48.937Z</time></trkpt><trkpt lat="43.672165" lon="12.648285"><ele>212.6</ele><time>2026-04-25T11:55:50.937Z</time></trkpt><trkpt lat="43.6722383" lon="12.64826"><ele>214.8</ele><time>2026-04-25T11:55:51.936Z</time></trkpt><trkpt lat="43.6723317" lon="12.6482117"><ele>217.0</ele><time>2026-04-25T11:55:52.937Z</time></trkpt><trkpt lat="43.6724483" lon="12.6481517"><ele>217.0</ele><time>2026-04-25T11:55:53.937Z</time></trkpt><trkpt lat="43.6725667" lon="12.6481033"><ele>217.0</ele><time>2026-04-25T11:55:54.936Z</time></trkpt><trkpt lat="43.672695" lon="12.6480567"><ele>217.0</ele><time>2026-04-25T11:55:55.937Z</time></trkpt><trkpt lat="43.672815" lon="12.6479967"><ele>217.0</ele><time>2026-04-25T11:55:56.937Z</time></trkpt><trkpt lat="43.67293" lon="12.6479383"><ele>216.39999999999998</ele><time>2026-04-25T11:55:57.937Z</time></trkpt><trkpt lat="43.6730367" lon="12.6478767"><ele>215.79999999999998</ele><time>2026-04-25T11:55:58.937Z</time></trkpt><trkpt lat="43.6731433" lon="12.64783"><ele>215.2</ele><time>2026-04-25T11:55:59.937Z</time></trkpt><trkpt lat="43.6732517" lon="12.647815"><ele>214.6</ele><time>2026-04-25T11:56:00.937Z</time></trkpt><trkpt lat="43.6733567" lon="12.64783"><ele>214.0</ele><time>2026-04-25T11:56:01.936Z</time></trkpt><trkpt lat="43.6734583" lon="12.6478417"><ele>214.0</ele><time>2026-04-25T11:56:02.937Z</time></trkpt><trkpt lat="43.6735567" lon="12.6478517"><ele>213.99999999999997</ele><time>2026-04-25T11:56:03.937Z</time></trkpt><trkpt lat="43.6736483" lon="12.6478717"><ele>213.99999999999997</ele><time>2026-04-25T11:56:04.936Z</time></trkpt><trkpt lat="43.6737183" lon="12.64791"><ele>214.0</ele><time>2026-04-25T11:56:05.937Z</time></trkpt><trkpt lat="43.673775" lon="12.6480133"><ele>214.0</ele><time>2026-04-25T11:56:07.937Z</time></trkpt><trkpt lat="43.67374" lon="12.6481517"><ele>214.0</ele><time>2026-04-25T11:56:09.937Z</time></trkpt><trkpt lat="43.6736917" lon="12.6482333"><ele>213.99999999999997</ele><time>2026-04-25T11:56:10.936Z</time></trkpt><trkpt lat="43.6736317" lon="12.6483183"><ele>213.99999999999997</ele><time>2026-04-25T11:56:11.937Z</time></trkpt><trkpt lat="43.673565" lon="12.64841"><ele>214.0</ele><time>2026-04-25T11:56:12.936Z</time></trkpt><trkpt lat="43.67349" lon="12.648515"><ele>214.0</ele><time>2026-04-25T11:56:13.937Z</time></trkpt><trkpt lat="43.67344" lon="12.64864"><ele>215.6</ele><time>2026-04-25T11:56:14.937Z</time></trkpt><trkpt lat="43.673415" lon="12.6487667"><ele>217.2</ele><time>2026-04-25T11:56:15.937Z</time></trkpt><trkpt lat="43.67343" lon="12.6489033"><ele>218.79999999999998</ele><time>2026-04-25T11:56:16.937Z</time></trkpt><trkpt lat="43.673465" lon="12.6490533"><ele>220.39999999999998</ele><time>2026-04-25T11:56:17.937Z</time></trkpt><trkpt lat="43.673505" lon="12.6492067"><ele>222.0</ele><time>2026-04-25T11:56:18.937Z</time></trkpt><trkpt lat="43.6735367" lon="12.6493583"><ele>223.75</ele><time>2026-04-25T11:56:19.937Z</time></trkpt><trkpt lat="43.6735683" lon="12.6495083"><ele>225.5</ele><time>2026-04-25T11:56:20.936Z</time></trkpt><trkpt lat="43.6735917" lon="12.6496667"><ele>227.25</ele><time>2026-04-25T11:56:21.936Z</time></trkpt><trkpt lat="43.673615" lon="12.6498233"><ele>229.0</ele><time>2026-04-25T11:56:22.937Z</time></trkpt><trkpt lat="43.6736267" lon="12.6499767"><ele>229.49999999999997</ele><time>2026-04-25T11:56:23.937Z</time></trkpt><trkpt lat="43.6736533" lon="12.6501083"><ele>230.0</ele><time>2026-04-25T11:56:24.936Z</time></trkpt><trkpt lat="43.673695" lon="12.650205"><ele>230.5</ele><time>2026-04-25T11:56:25.937Z</time></trkpt><trkpt lat="43.6737433" lon="12.6502667"><ele>231.0</ele><time>2026-04-25T11:56:26.937Z</time></trkpt><trkpt lat="43.6738433" lon="12.6502083"><ele>231.49999999999997</ele><time>2026-04-25T11:56:28.937Z</time></trkpt><trkpt lat="43.67389" lon="12.6501"><ele>232.0</ele><time>2026-04-25T11:56:29.937Z</time></trkpt><trkpt lat="43.6739433" lon="12.649995"><ele>232.0</ele><time>2026-04-25T11:56:30.936Z</time></trkpt><trkpt lat="43.6740033" lon="12.649915"><ele>232.0</ele><time>2026-04-25T11:56:31.936Z</time></trkpt><trkpt lat="43.674085" lon="12.649875"><ele>232.0</ele><time>2026-04-25T11:56:32.937Z</time></trkpt><trkpt lat="43.6741917" lon="12.649895"><ele>232.0</ele><time>2026-04-25T11:56:33.937Z</time></trkpt><trkpt lat="43.6743017" lon="12.6499833"><ele>232.0</ele><time>2026-04-25T11:56:34.937Z</time></trkpt><trkpt lat="43.67441" lon="12.65008"><ele>232.0</ele><time>2026-04-25T11:56:35.936Z</time></trkpt><trkpt lat="43.67452" lon="12.650175"><ele>232.0</ele><time>2026-04-25T11:56:36.937Z</time></trkpt><trkpt lat="43.6746333" lon="12.650275"><ele>232.0</ele><time>2026-04-25T11:56:37.937Z</time></trkpt><trkpt lat="43.674745" lon="12.6503667"><ele>232.0</ele><time>2026-04-25T11:56:38.937Z</time></trkpt><trkpt lat="43.6748617" lon="12.65043"><ele>236.25</ele><time>2026-04-25T11:56:39.936Z</time></trkpt><trkpt lat="43.6749883" lon="12.6504533"><ele>240.5</ele><time>2026-04-25T11:56:40.936Z</time></trkpt><trkpt lat="43.67511" lon="12.6504283"><ele>244.75</ele><time>2026-04-25T11:56:41.937Z</time></trkpt><trkpt lat="43.6752233" lon="12.6504067"><ele>249.0</ele><time>2026-04-25T11:56:42.936Z</time></trkpt><trkpt lat="43.6753333" lon="12.65043"><ele>249.75</ele><time>2026-04-25T11:56:43.937Z</time></trkpt><trkpt lat="43.6754467" lon="12.6504833"><ele>250.5</ele><time>2026-04-25T11:56:44.937Z</time></trkpt><trkpt lat="43.6755583" lon="12.65056"><ele>251.25</ele><time>2026-04-25T11:56:45.936Z</time></trkpt><trkpt lat="43.675675" lon="12.650645"><ele>252.0</ele><time>2026-04-25T11:56:46.937Z</time></trkpt><trkpt lat="43.6757933" lon="12.65073"><ele>252.0</ele><time>2026-04-25T11:56:47.937Z</time></trkpt><trkpt lat="43.6759117" lon="12.65081"><ele>252.0</ele><time>2026-04-25T11:56:48.937Z</time></trkpt><trkpt lat="43.6760267" lon="12.6508767"><ele>252.0</ele><time>2026-04-25T11:56:49.937Z</time></trkpt><trkpt lat="43.6761317" lon="12.6509233"><ele>252.0</ele><time>2026-04-25T11:56:50.936Z</time></trkpt><trkpt lat="43.67624" lon="12.6509283"><ele>253.25</ele><time>2026-04-25T11:56:51.936Z</time></trkpt><trkpt lat="43.6763583" lon="12.6509083"><ele>254.5</ele><time>2026-04-25T11:56:52.937Z</time></trkpt><trkpt lat="43.6764867" lon="12.650875"><ele>255.75</ele><time>2026-04-25T11:56:53.937Z</time></trkpt><trkpt lat="43.6766133" lon="12.65085"><ele>257.0</ele><time>2026-04-25T11:56:54.937Z</time></trkpt><trkpt lat="43.6767433" lon="12.650825"><ele>257.0</ele><time>2026-04-25T11:56:55.936Z</time></trkpt><trkpt lat="43.6768767" lon="12.6507967"><ele>257.0</ele><time>2026-04-25T11:56:56.937Z</time></trkpt><trkpt lat="43.6770067" lon="12.6507483"><ele>257.0</ele><time>2026-04-25T11:56:57.937Z</time></trkpt><trkpt lat="43.6771333" lon="12.6506883"><ele>257.0</ele><time>2026-04-25T11:56:58.937Z</time></trkpt><trkpt lat="43.6772383" lon="12.65063"><ele>259.0</ele><time>2026-04-25T11:56:59.937Z</time></trkpt><trkpt lat="43.6773233" lon="12.650595"><ele>261.0</ele><time>2026-04-25T11:57:00.937Z</time></trkpt><trkpt lat="43.677405" lon="12.65067"><ele>263.0</ele><time>2026-04-25T11:57:02.937Z</time></trkpt><trkpt lat="43.6773517" lon="12.6508"><ele>265.0</ele><time>2026-04-25T11:57:04.937Z</time></trkpt><trkpt lat="43.6772883" lon="12.650865"><ele>267.0</ele><time>2026-04-25T11:57:05.937Z</time></trkpt><trkpt lat="43.6771983" lon="12.65094"><ele>267.0</ele><time>2026-04-25T11:57:06.937Z</time></trkpt><trkpt lat="43.6770967" lon="12.65104"><ele>267.0</ele><time>2026-04-25T11:57:07.937Z</time></trkpt><trkpt lat="43.6769933" lon="12.6511483"><ele>267.0</ele><time>2026-04-25T11:57:08.936Z</time></trkpt><trkpt lat="43.67689" lon="12.65127"><ele>267.0</ele><time>2026-04-25T11:57:09.936Z</time></trkpt><trkpt lat="43.67678" lon="12.65139"><ele>269.5</ele><time>2026-04-25T11:57:10.936Z</time></trkpt><trkpt lat="43.6766683" lon="12.651505"><ele>272.0</ele><time>2026-04-25T11:57:11.937Z</time></trkpt><trkpt lat="43.6765517" lon="12.65161"><ele>274.5</ele><time>2026-04-25T11:57:12.937Z</time></trkpt><trkpt lat="43.6764433" lon="12.6517033"><ele>277.0</ele><time>2026-04-25T11:57:13.936Z</time></trkpt><trkpt lat="43.676335" lon="12.6517867"><ele>277.0</ele><time>2026-04-25T11:57:14.936Z</time></trkpt><trkpt lat="43.6762133" lon="12.6518167"><ele>277.0</ele><time>2026-04-25T11:57:15.937Z</time></trkpt><trkpt lat="43.6760817" lon="12.6518267"><ele>277.0</ele><time>2026-04-25T11:57:16.937Z</time></trkpt><trkpt lat="43.6759333" lon="12.6518433"><ele>277.0</ele><time>2026-04-25T11:57:17.937Z</time></trkpt><trkpt lat="43.6757817" lon="12.6518667"><ele>276.3333333333333</ele><time>2026-04-25T11:57:18.936Z</time></trkpt><trkpt lat="43.6756317" lon="12.6519083"><ele>275.6666666666667</ele><time>2026-04-25T11:57:19.937Z</time></trkpt><trkpt lat="43.6754783" lon="12.6519433"><ele>275.0</ele><time>2026-04-25T11:57:20.937Z</time></trkpt><trkpt lat="43.675325" lon="12.6519683"><ele>277.25</ele><time>2026-04-25T11:57:21.937Z</time></trkpt><trkpt lat="43.675175" lon="12.6519933"><ele>279.5</ele><time>2026-04-25T11:57:22.937Z</time></trkpt><trkpt lat="43.6750333" lon="12.652015"><ele>281.75</ele><time>2026-04-25T11:57:23.937Z</time></trkpt><trkpt lat="43.6749" lon="12.6520533"><ele>284.0</ele><time>2026-04-25T11:57:24.937Z</time></trkpt><trkpt lat="43.67477" lon="12.6520867"><ele>284.0</ele><time>2026-04-25T11:57:25.937Z</time></trkpt><trkpt lat="43.6746617" lon="12.6521133"><ele>284.0</ele><time>2026-04-25T11:57:26.937Z</time></trkpt><trkpt lat="43.67457" lon="12.6521633"><ele>284.0</ele><time>2026-04-25T11:57:27.937Z</time></trkpt><trkpt lat="43.674505" lon="12.652255"><ele>284.0</ele><time>2026-04-25T11:57:28.937Z</time></trkpt><trkpt lat="43.6744733" lon="12.6523933"><ele>284.0</ele><time>2026-04-25T11:57:29.937Z</time></trkpt><trkpt lat="43.6744667" lon="12.65254"><ele>284.0</ele><time>2026-04-25T11:57:30.937Z</time></trkpt><trkpt lat="43.6744633" lon="12.6527067"><ele>284.0</ele><time>2026-04-25T11:57:31.937Z</time></trkpt><trkpt lat="43.67446" lon="12.6528717"><ele>284.0</ele><time>2026-04-25T11:57:32.937Z</time></trkpt><trkpt lat="43.674435" lon="12.65302"><ele>284.0</ele><time>2026-04-25T11:57:33.937Z</time></trkpt><trkpt lat="43.6743867" lon="12.6531383"><ele>284.0</ele><time>2026-04-25T11:57:34.937Z</time></trkpt><trkpt lat="43.6743167" lon="12.653215"><ele>284.0</ele><time>2026-04-25T11:57:35.937Z</time></trkpt><trkpt lat="43.674245" lon="12.6532583"><ele>284.0</ele><time>2026-04-25T11:57:36.937Z</time></trkpt><trkpt lat="43.674155" lon="12.6532733"><ele>284.0</ele><time>2026-04-25T11:57:37.937Z</time></trkpt><trkpt lat="43.6740717" lon="12.65332"><ele>284.0</ele><time>2026-04-25T11:57:38.937Z</time></trkpt><trkpt lat="43.673995" lon="12.653395"><ele>284.0</ele><time>2026-04-25T11:57:39.936Z</time></trkpt><trkpt lat="43.6739317" lon="12.6534983"><ele>284.0</ele><time>2026-04-25T11:57:40.936Z</time></trkpt><trkpt lat="43.673895" lon="12.653615"><ele>284.0</ele><time>2026-04-25T11:57:41.937Z</time></trkpt><trkpt lat="43.6738883" lon="12.6537367"><ele>284.0</ele><time>2026-04-25T11:57:42.937Z</time></trkpt><trkpt lat="43.6739033" lon="12.6538433"><ele>284.0</ele><time>2026-04-25T11:57:43.937Z</time></trkpt><trkpt lat="43.6739417" lon="12.6539283"><ele>284.0</ele><time>2026-04-25T11:57:44.936Z</time></trkpt><trkpt lat="43.6740083" lon="12.65398"><ele>284.0</ele><time>2026-04-25T11:57:45.936Z</time></trkpt><trkpt lat="43.67409" lon="12.6539933"><ele>285.75</ele><time>2026-04-25T11:57:46.937Z</time></trkpt><trkpt lat="43.6741817" lon="12.6539833"><ele>287.5</ele><time>2026-04-25T11:57:47.937Z</time></trkpt><trkpt lat="43.6742933" lon="12.6539417"><ele>289.25</ele><time>2026-04-25T11:57:48.936Z</time></trkpt><trkpt lat="43.6744183" lon="12.6538983"><ele>291.0</ele><time>2026-04-25T11:57:49.937Z</time></trkpt><trkpt lat="43.6745517" lon="12.653845"><ele>293.0</ele><time>2026-04-25T11:57:50.936Z</time></trkpt><trkpt lat="43.6746867" lon="12.6537833"><ele>295.0</ele><time>2026-04-25T11:57:51.936Z</time></trkpt><trkpt lat="43.6748233" lon="12.6537233"><ele>297.0</ele><time>2026-04-25T11:57:52.937Z</time></trkpt><trkpt lat="43.6749667" lon="12.653675"><ele>299.0</ele><time>2026-04-25T11:57:53.937Z</time></trkpt><trkpt lat="43.67511" lon="12.6536433"><ele>299.0</ele><time>2026-04-25T11:57:54.937Z</time></trkpt><trkpt lat="43.67524" lon="12.653635"><ele>299.0</ele><time>2026-04-25T11:57:55.936Z</time></trkpt><trkpt lat="43.6753467" lon="12.6536633"><ele>299.0</ele><time>2026-04-25T11:57:56.937Z</time></trkpt><trkpt lat="43.6754267" lon="12.6537217"><ele>299.0</ele><time>2026-04-25T11:57:57.937Z</time></trkpt><trkpt lat="43.6754833" lon="12.6538117"><ele>299.0</ele><time>2026-04-25T11:57:58.937Z</time></trkpt><trkpt lat="43.67552" lon="12.6539283"><ele>299.5</ele><time>2026-04-25T11:57:59.937Z</time></trkpt><trkpt lat="43.6755283" lon="12.6540717"><ele>300.0</ele><time>2026-04-25T11:58:00.937Z</time></trkpt><trkpt lat="43.67552" lon="12.65424"><ele>300.5</ele><time>2026-04-25T11:58:01.937Z</time></trkpt><trkpt lat="43.6755133" lon="12.6544217"><ele>301.0</ele><time>2026-04-25T11:58:02.937Z</time></trkpt><trkpt lat="43.6754983" lon="12.6546133"><ele>301.2</ele><time>2026-04-25T11:58:03.937Z</time></trkpt><trkpt lat="43.6754783" lon="12.6547967"><ele>301.40000000000003</ele><time>2026-04-25T11:58:04.937Z</time></trkpt><trkpt lat="43.6754533" lon="12.6549567"><ele>301.6</ele><time>2026-04-25T11:58:05.936Z</time></trkpt><trkpt lat="43.6754317" lon="12.6550767"><ele>301.8</ele><time>2026-04-25T11:58:06.937Z</time></trkpt><trkpt lat="43.675425" lon="12.6551683"><ele>302.0</ele><time>2026-04-25T11:58:07.937Z</time></trkpt><trkpt lat="43.67549" lon="12.6553183"><ele>301.0</ele><time>2026-04-25T11:58:09.936Z</time></trkpt><trkpt lat="43.67556" lon="12.65539"><ele>300.0</ele><time>2026-04-25T11:58:10.937Z</time></trkpt><trkpt lat="43.6756433" lon="12.6554617"><ele>299.0</ele><time>2026-04-25T11:58:11.937Z</time></trkpt><trkpt lat="43.6757333" lon="12.655525"><ele>298.0</ele><time>2026-04-25T11:58:12.936Z</time></trkpt><trkpt lat="43.6758283" lon="12.6555783"><ele>297.0</ele><time>2026-04-25T11:58:13.937Z</time></trkpt><trkpt lat="43.6759233" lon="12.6556033"><ele>297.0</ele><time>2026-04-25T11:58:14.937Z</time></trkpt><trkpt lat="43.6760133" lon="12.6555983"><ele>297.0</ele><time>2026-04-25T11:58:15.936Z</time></trkpt><trkpt lat="43.6760917" lon="12.6555967"><ele>297.0</ele><time>2026-04-25T11:58:16.937Z</time></trkpt><trkpt lat="43.6761933" lon="12.6556617"><ele>297.0</ele><time>2026-04-25T11:58:18.937Z</time></trkpt><trkpt lat="43.67619" lon="12.655795"><ele>297.0</ele><time>2026-04-25T11:58:20.936Z</time></trkpt><trkpt lat="43.6761383" lon="12.6558617"><ele>297.0</ele><time>2026-04-25T11:58:21.937Z</time></trkpt><trkpt lat="43.6760633" lon="12.6559333"><ele>297.0</ele><time>2026-04-25T11:58:22.936Z</time></trkpt><trkpt lat="43.6759783" lon="12.6560167"><ele>297.0</ele><time>2026-04-25T11:58:23.937Z</time></trkpt><trkpt lat="43.6758933" lon="12.6561067"><ele>297.0</ele><time>2026-04-25T11:58:24.936Z</time></trkpt><trkpt lat="43.675815" lon="12.6562167"><ele>297.0</ele><time>2026-04-25T11:58:25.937Z</time></trkpt><trkpt lat="43.6757467" lon="12.6563333"><ele>297.0</ele><time>2026-04-25T11:58:26.937Z</time></trkpt><trkpt lat="43.6756917" lon="12.6564467"><ele>295.1666666666667</ele><time>2026-04-25T11:58:27.937Z</time></trkpt><trkpt lat="43.675655" lon="12.6565367"><ele>293.3333333333333</ele><time>2026-04-25T11:58:28.936Z</time></trkpt><trkpt lat="43.67565" lon="12.6566283"><ele>291.5</ele><time>2026-04-25T11:58:30.937Z</time></trkpt><trkpt lat="43.6757433" lon="12.6565817"><ele>289.66666666666663</ele><time>2026-04-25T11:58:33.936Z</time></trkpt><trkpt lat="43.6757933" lon="12.656515"><ele>287.8333333333333</ele><time>2026-04-25T11:58:34.937Z</time></trkpt><trkpt lat="43.6758617" lon="12.6564383"><ele>286.0</ele><time>2026-04-25T11:58:35.937Z</time></trkpt><trkpt lat="43.6759467" lon="12.6563717"><ele>286.0</ele><time>2026-04-25T11:58:36.937Z</time></trkpt><trkpt lat="43.67604" lon="12.6563267"><ele>286.0</ele><time>2026-04-25T11:58:37.936Z</time></trkpt><trkpt lat="43.6761367" lon="12.6563"><ele>286.0</ele><time>2026-04-25T11:58:38.936Z</time></trkpt><trkpt lat="43.67623" lon="12.6562733"><ele>286.0</ele><time>2026-04-25T11:58:39.937Z</time></trkpt><trkpt lat="43.676315" lon="12.6562467"><ele>286.0</ele><time>2026-04-25T11:58:40.936Z</time></trkpt><trkpt lat="43.6763783" lon="12.6562283"><ele>286.0</ele><time>2026-04-25T11:58:41.937Z</time></trkpt><trkpt lat="43.6764783" lon="12.6562683"><ele>284.2</ele><time>2026-04-25T11:58:43.937Z</time></trkpt><trkpt lat="43.6765567" lon="12.65637"><ele>282.40000000000003</ele><time>2026-04-25T11:58:45.936Z</time></trkpt><trkpt lat="43.6766267" lon="12.65647"><ele>280.6</ele><time>2026-04-25T11:58:47.937Z</time></trkpt><trkpt lat="43.676685" lon="12.6565783"><ele>278.8</ele><time>2026-04-25T11:58:49.937Z</time></trkpt><trkpt lat="43.67671" lon="12.656705"><ele>277.0</ele><time>2026-04-25T11:58:51.937Z</time></trkpt><trkpt lat="43.67668" lon="12.6568483"><ele>274.6</ele><time>2026-04-25T11:58:53.937Z</time></trkpt><trkpt lat="43.67669" lon="12.6570183"><ele>272.2</ele><time>2026-04-25T11:58:55.936Z</time></trkpt><trkpt lat="43.676725" lon="12.6571133"><ele>269.8</ele><time>2026-04-25T11:58:56.937Z</time></trkpt><trkpt lat="43.676775" lon="12.6572083"><ele>267.4</ele><time>2026-04-25T11:58:57.937Z</time></trkpt><trkpt lat="43.6768333" lon="12.65731"><ele>265.0</ele><time>2026-04-25T11:58:58.937Z</time></trkpt><trkpt lat="43.6768933" lon="12.6574117"><ele>264.8</ele><time>2026-04-25T11:58:59.936Z</time></trkpt><trkpt lat="43.676955" lon="12.6575217"><ele>264.6</ele><time>2026-04-25T11:59:00.937Z</time></trkpt><trkpt lat="43.6770183" lon="12.657635"><ele>264.4</ele><time>2026-04-25T11:59:01.937Z</time></trkpt><trkpt lat="43.6770833" lon="12.657745"><ele>264.2</ele><time>2026-04-25T11:59:02.937Z</time></trkpt><trkpt lat="43.6771483" lon="12.65785"><ele>264.0</ele><time>2026-04-25T11:59:03.937Z</time></trkpt><trkpt lat="43.6772283" lon="12.6579417"><ele>261.0</ele><time>2026-04-25T11:59:04.936Z</time></trkpt><trkpt lat="43.6773183" lon="12.6580167"><ele>258.0</ele><time>2026-04-25T11:59:05.937Z</time></trkpt><trkpt lat="43.6774233" lon="12.6580633"><ele>254.99999999999997</ele><time>2026-04-25T11:59:06.936Z</time></trkpt><trkpt lat="43.6775317" lon="12.6580933"><ele>252.0</ele><time>2026-04-25T11:59:07.937Z</time></trkpt><trkpt lat="43.67764" lon="12.658115"><ele>249.0</ele><time>2026-04-25T11:59:08.937Z</time></trkpt><trkpt lat="43.6777467" lon="12.658125"><ele>248.39999999999998</ele><time>2026-04-25T11:59:09.937Z</time></trkpt><trkpt lat="43.677855" lon="12.6581317"><ele>247.79999999999998</ele><time>2026-04-25T11:59:10.936Z</time></trkpt><trkpt lat="43.677965" lon="12.65814"><ele>247.20000000000002</ele><time>2026-04-25T11:59:11.937Z</time></trkpt><trkpt lat="43.6780767" lon="12.6581467"><ele>246.60000000000002</ele><time>2026-04-25T11:59:12.936Z</time></trkpt><trkpt lat="43.6781833" lon="12.6581533"><ele>246.0</ele><time>2026-04-25T11:59:13.937Z</time></trkpt><trkpt lat="43.6782883" lon="12.6581583"><ele>246.0</ele><time>2026-04-25T11:59:14.937Z</time></trkpt><trkpt lat="43.6783933" lon="12.65816"><ele>246.00000000000003</ele><time>2026-04-25T11:59:15.937Z</time></trkpt><trkpt lat="43.6785" lon="12.65816"><ele>246.00000000000003</ele><time>2026-04-25T11:59:16.937Z</time></trkpt><trkpt lat="43.6786017" lon="12.6581483"><ele>246.0</ele><time>2026-04-25T11:59:17.937Z</time></trkpt><trkpt lat="43.6786883" lon="12.6581133"><ele>246.0</ele><time>2026-04-25T11:59:18.937Z</time></trkpt><trkpt lat="43.67877" lon="12.6580467"><ele>246.0</ele><time>2026-04-25T11:59:19.937Z</time></trkpt><trkpt lat="43.678835" lon="12.6579417"><ele>246.00000000000003</ele><time>2026-04-25T11:59:20.937Z</time></trkpt><trkpt lat="43.6788867" lon="12.657815"><ele>246.00000000000003</ele><time>2026-04-25T11:59:21.936Z</time></trkpt><trkpt lat="43.6789317" lon="12.65768"><ele>246.0</ele><time>2026-04-25T11:59:22.936Z</time></trkpt><trkpt lat="43.67898" lon="12.6575567"><ele>246.0</ele><time>2026-04-25T11:59:23.937Z</time></trkpt><trkpt lat="43.6790367" lon="12.6574567"><ele>246.0</ele><time>2026-04-25T11:59:24.937Z</time></trkpt><trkpt lat="43.6791" lon="12.6573867"><ele>246.00000000000003</ele><time>2026-04-25T11:59:25.937Z</time></trkpt><trkpt lat="43.6791567" lon="12.657305"><ele>246.00000000000003</ele><time>2026-04-25T11:59:26.937Z</time></trkpt><trkpt lat="43.679215" lon="12.6572117"><ele>246.0</ele><time>2026-04-25T11:59:27.937Z</time></trkpt><trkpt lat="43.6792567" lon="12.65709"><ele>246.0</ele><time>2026-04-25T11:59:28.937Z</time></trkpt><trkpt lat="43.679295" lon="12.65695"><ele>245.0</ele><time>2026-04-25T11:59:29.937Z</time></trkpt><trkpt lat="43.6793333" lon="12.6568"><ele>244.0</ele><time>2026-04-25T11:59:30.937Z</time></trkpt><trkpt lat="43.6793583" lon="12.6566483"><ele>243.0</ele><time>2026-04-25T11:59:31.937Z</time></trkpt><trkpt lat="43.6793833" lon="12.6564817"><ele>242.0</ele><time>2026-04-25T11:59:32.937Z</time></trkpt><trkpt lat="43.6794067" lon="12.6563067"><ele>244.0</ele><time>2026-04-25T11:59:33.937Z</time></trkpt><trkpt lat="43.679435" lon="12.6561233"><ele>246.0</ele><time>2026-04-25T11:59:34.937Z</time></trkpt><trkpt lat="43.679475" lon="12.655935"><ele>248.0</ele><time>2026-04-25T11:59:35.937Z</time></trkpt><trkpt lat="43.67952" lon="12.6557367"><ele>250.0</ele><time>2026-04-25T11:59:36.937Z</time></trkpt><trkpt lat="43.679555" lon="12.655535"><ele>250.0</ele><time>2026-04-25T11:59:37.937Z</time></trkpt><trkpt lat="43.67958" lon="12.65534"><ele>250.0</ele><time>2026-04-25T11:59:38.937Z</time></trkpt><trkpt lat="43.6796117" lon="12.6551683"><ele>250.0</ele><time>2026-04-25T11:59:39.937Z</time></trkpt><trkpt lat="43.679635" lon="12.65502"><ele>250.0</ele><time>2026-04-25T11:59:40.937Z</time></trkpt><trkpt lat="43.679655" lon="12.6548933"><ele>247.99999999999997</ele><time>2026-04-25T11:59:41.936Z</time></trkpt><trkpt lat="43.67968" lon="12.6547917"><ele>246.0</ele><time>2026-04-25T11:59:42.937Z</time></trkpt><trkpt lat="43.67972" lon="12.6547183"><ele>244.0</ele><time>2026-04-25T11:59:43.937Z</time></trkpt><trkpt lat="43.67978" lon="12.6546783"><ele>242.0</ele><time>2026-04-25T11:59:44.936Z</time></trkpt><trkpt lat="43.6798483" lon="12.6546417"><ele>239.99999999999997</ele><time>2026-04-25T11:59:45.937Z</time></trkpt><trkpt lat="43.6799367" lon="12.65461"><ele>238.0</ele><time>2026-04-25T11:59:46.937Z</time></trkpt><trkpt lat="43.68004" lon="12.65457"><ele>238.0</ele><time>2026-04-25T11:59:47.936Z</time></trkpt><trkpt lat="43.6801567" lon="12.6545317"><ele>238.0</ele><time>2026-04-25T11:59:48.937Z</time></trkpt><trkpt lat="43.680285" lon="12.6545"><ele>238.0</ele><time>2026-04-25T11:59:49.937Z</time></trkpt><trkpt lat="43.6804233" lon="12.6544617"><ele>238.0</ele><time>2026-04-25T11:59:50.936Z</time></trkpt><trkpt lat="43.6805733" lon="12.654415"><ele>237.25</ele><time>2026-04-25T11:59:51.937Z</time></trkpt><trkpt lat="43.6807233" lon="12.654375"><ele>236.5</ele><time>2026-04-25T11:59:52.937Z</time></trkpt><trkpt lat="43.6808683" lon="12.654345"><ele>235.75</ele><time>2026-04-25T11:59:53.937Z</time></trkpt><trkpt lat="43.6810083" lon="12.6543383"><ele>235.0</ele><time>2026-04-25T11:59:54.937Z</time></trkpt><trkpt lat="43.681145" lon="12.6543633"><ele>238.25</ele><time>2026-04-25T11:59:55.937Z</time></trkpt><trkpt lat="43.6812717" lon="12.6543817"><ele>241.5</ele><time>2026-04-25T11:59:56.936Z</time></trkpt><trkpt lat="43.6813967" lon="12.6543817"><ele>244.75</ele><time>2026-04-25T11:59:57.937Z</time></trkpt><trkpt lat="43.68151" lon="12.6543567"><ele>248.0</ele><time>2026-04-25T11:59:58.937Z</time></trkpt><trkpt lat="43.6816083" lon="12.65432"><ele>248.0</ele><time>2026-04-25T11:59:59.936Z</time></trkpt><trkpt lat="43.6816917" lon="12.6543267"><ele>248.0</ele><time>2026-04-25T12:00:00.936Z</time></trkpt><trkpt lat="43.6817517" lon="12.6544017"><ele>248.0</ele><time>2026-04-25T12:00:01.937Z</time></trkpt><trkpt lat="43.6818033" lon="12.654495"><ele>248.0</ele><time>2026-04-25T12:00:02.937Z</time></trkpt><trkpt lat="43.6818433" lon="12.6546167"><ele>248.0</ele><time>2026-04-25T12:00:03.937Z</time></trkpt><trkpt lat="43.6818783" lon="12.6547583"><ele>245.0</ele><time>2026-04-25T12:00:04.937Z</time></trkpt><trkpt lat="43.6819367" lon="12.6549033"><ele>242.0</ele><time>2026-04-25T12:00:05.937Z</time></trkpt><trkpt lat="43.6820133" lon="12.6550467"><ele>239.0</ele><time>2026-04-25T12:00:06.937Z</time></trkpt><trkpt lat="43.68211" lon="12.65518"><ele>236.0</ele><time>2026-04-25T12:00:07.936Z</time></trkpt><trkpt lat="43.6822017" lon="12.6553083"><ele>236.0</ele><time>2026-04-25T12:00:08.937Z</time></trkpt><trkpt lat="43.682295" lon="12.655435"><ele>236.0</ele><time>2026-04-25T12:00:09.936Z</time></trkpt><trkpt lat="43.6823917" lon="12.6555583"><ele>236.0</ele><time>2026-04-25T12:00:10.936Z</time></trkpt><trkpt lat="43.6824933" lon="12.6556883"><ele>236.0</ele><time>2026-04-25T12:00:11.937Z</time></trkpt><trkpt lat="43.6825983" lon="12.6558167"><ele>236.0</ele><time>2026-04-25T12:00:12.937Z</time></trkpt><trkpt lat="43.6827033" lon="12.6559383"><ele>236.0</ele><time>2026-04-25T12:00:13.937Z</time></trkpt><trkpt lat="43.6828033" lon="12.6560567"><ele>236.0</ele><time>2026-04-25T12:00:14.937Z</time></trkpt><trkpt lat="43.682895" lon="12.65617"><ele>236.0</ele><time>2026-04-25T12:00:15.937Z</time></trkpt><trkpt lat="43.6829717" lon="12.6562867"><ele>234.8</ele><time>2026-04-25T12:00:16.937Z</time></trkpt><trkpt lat="43.68303" lon="12.6564167"><ele>233.60000000000002</ele><time>2026-04-25T12:00:17.937Z</time></trkpt><trkpt lat="43.6830633" lon="12.6565567"><ele>232.4</ele><time>2026-04-25T12:00:18.937Z</time></trkpt><trkpt lat="43.6830883" lon="12.6566883"><ele>231.2</ele><time>2026-04-25T12:00:19.937Z</time></trkpt><trkpt lat="43.6831217" lon="12.6567917"><ele>230.0</ele><time>2026-04-25T12:00:20.937Z</time></trkpt><trkpt lat="43.6831683" lon="12.6568733"><ele>230.0</ele><time>2026-04-25T12:00:21.936Z</time></trkpt><trkpt lat="43.6832367" lon="12.6569283"><ele>230.0</ele><time>2026-04-25T12:00:22.937Z</time></trkpt><trkpt lat="43.6833183" lon="12.6569667"><ele>230.0</ele><time>2026-04-25T12:00:23.937Z</time></trkpt><trkpt lat="43.683435" lon="12.657015"><ele>230.0</ele><time>2026-04-25T12:00:24.937Z</time></trkpt><trkpt lat="43.6835683" lon="12.65708"><ele>230.0</ele><time>2026-04-25T12:00:25.937Z</time></trkpt><trkpt lat="43.6836933" lon="12.657165"><ele>232.0</ele><time>2026-04-25T12:00:26.937Z</time></trkpt><trkpt lat="43.6838" lon="12.657275"><ele>234.0</ele><time>2026-04-25T12:00:27.936Z</time></trkpt><trkpt lat="43.6838917" lon="12.657405"><ele>236.0</ele><time>2026-04-25T12:00:28.937Z</time></trkpt><trkpt lat="43.6839633" lon="12.6575433"><ele>238.0</ele><time>2026-04-25T12:00:29.937Z</time></trkpt><trkpt lat="43.68402" lon="12.657695"><ele>238.25</ele><time>2026-04-25T12:00:30.937Z</time></trkpt><trkpt lat="43.684045" lon="12.6578633"><ele>238.5</ele><time>2026-04-25T12:00:31.937Z</time></trkpt><trkpt lat="43.684055" lon="12.6580333"><ele>238.75</ele><time>2026-04-25T12:00:32.937Z</time></trkpt><trkpt lat="43.6840733" lon="12.6581983"><ele>239.0</ele><time>2026-04-25T12:00:33.936Z</time></trkpt><trkpt lat="43.6841083" lon="12.6583533"><ele>239.0</ele><time>2026-04-25T12:00:34.936Z</time></trkpt><trkpt lat="43.6841467" lon="12.6584817"><ele>238.99999999999997</ele><time>2026-04-25T12:00:35.937Z</time></trkpt><trkpt lat="43.6841833" lon="12.6585817"><ele>238.99999999999997</ele><time>2026-04-25T12:00:36.936Z</time></trkpt><trkpt lat="43.6842217" lon="12.6586533"><ele>239.0</ele><time>2026-04-25T12:00:37.937Z</time></trkpt><trkpt lat="43.6843067" lon="12.65874"><ele>239.0</ele><time>2026-04-25T12:00:39.937Z</time></trkpt><trkpt lat="43.6844033" lon="12.6588317"><ele>238.39999999999998</ele><time>2026-04-25T12:00:41.937Z</time></trkpt><trkpt lat="43.6845033" lon="12.6589233"><ele>237.79999999999998</ele><time>2026-04-25T12:00:43.937Z</time></trkpt><trkpt lat="43.68461" lon="12.6590133"><ele>237.20000000000002</ele><time>2026-04-25T12:00:45.937Z</time></trkpt><trkpt lat="43.6846683" lon="12.6590683"><ele>236.60000000000002</ele><time>2026-04-25T12:00:46.937Z</time></trkpt><trkpt lat="43.6847417" lon="12.659125"><ele>236.0</ele><time>2026-04-25T12:00:47.937Z</time></trkpt><trkpt lat="43.684825" lon="12.6591817"><ele>236.0</ele><time>2026-04-25T12:00:48.937Z</time></trkpt><trkpt lat="43.6849233" lon="12.65923"><ele>236.00000000000003</ele><time>2026-04-25T12:00:49.937Z</time></trkpt><trkpt lat="43.68503" lon="12.6592817"><ele>236.00000000000003</ele><time>2026-04-25T12:00:50.937Z</time></trkpt><trkpt lat="43.685135" lon="12.65932"><ele>236.0</ele><time>2026-04-25T12:00:51.936Z</time></trkpt><trkpt lat="43.6852383" lon="12.65937"><ele>236.0</ele><time>2026-04-25T12:00:52.937Z</time></trkpt><trkpt lat="43.685345" lon="12.65941"><ele>234.0</ele><time>2026-04-25T12:00:53.937Z</time></trkpt><trkpt lat="43.68545" lon="12.6594567"><ele>232.0</ele><time>2026-04-25T12:00:54.937Z</time></trkpt><trkpt lat="43.685555" lon="12.6595083"><ele>230.0</ele><time>2026-04-25T12:00:55.936Z</time></trkpt><trkpt lat="43.6856633" lon="12.6595667"><ele>228.0</ele><time>2026-04-25T12:00:56.937Z</time></trkpt><trkpt lat="43.6857617" lon="12.6596483"><ele>228.0</ele><time>2026-04-25T12:00:57.937Z</time></trkpt><trkpt lat="43.6858467" lon="12.6597467"><ele>228.0</ele><time>2026-04-25T12:00:58.937Z</time></trkpt><trkpt lat="43.6859117" lon="12.6598633"><ele>228.0</ele><time>2026-04-25T12:00:59.937Z</time></trkpt><trkpt lat="43.6859517" lon="12.6599817"><ele>228.0</ele><time>2026-04-25T12:01:00.937Z</time></trkpt><trkpt lat="43.6859883" lon="12.6600733"><ele>228.0</ele><time>2026-04-25T12:01:01.937Z</time></trkpt><trkpt lat="43.6860867" lon="12.6601217"><ele>226.33333333333334</ele><time>2026-04-25T12:01:03.937Z</time></trkpt><trkpt lat="43.6861467" lon="12.6599667"><ele>224.66666666666669</ele><time>2026-04-25T12:01:05.936Z</time></trkpt><trkpt lat="43.68616" lon="12.6598533"><ele>223.0</ele><time>2026-04-25T12:01:06.937Z</time></trkpt><trkpt lat="43.6861983" lon="12.6597633"><ele>221.33333333333334</ele><time>2026-04-25T12:01:07.937Z</time></trkpt><trkpt lat="43.68626" lon="12.65972"><ele>219.66666666666669</ele><time>2026-04-25T12:01:08.936Z</time></trkpt><trkpt lat="43.68633" lon="12.659725"><ele>218.0</ele><time>2026-04-25T12:01:09.936Z</time></trkpt><trkpt lat="43.6864083" lon="12.6597683"><ele>218.0</ele><time>2026-04-25T12:01:10.937Z</time></trkpt><trkpt lat="43.6864933" lon="12.6598617"><ele>218.0</ele><time>2026-04-25T12:01:11.938Z</time></trkpt><trkpt lat="43.6865833" lon="12.66"><ele>218.0</ele><time>2026-04-25T12:01:12.938Z</time></trkpt><trkpt lat="43.686675" lon="12.66014"><ele>218.0</ele><time>2026-04-25T12:01:13.938Z</time></trkpt><trkpt lat="43.6867783" lon="12.6602617"><ele>218.8</ele><time>2026-04-25T12:01:14.938Z</time></trkpt><trkpt lat="43.68687" lon="12.660385"><ele>219.60000000000002</ele><time>2026-04-25T12:01:15.938Z</time></trkpt><trkpt lat="43.6869483" lon="12.6605033"><ele>220.39999999999998</ele><time>2026-04-25T12:01:16.937Z</time></trkpt><trkpt lat="43.6870033" lon="12.660615"><ele>221.2</ele><time>2026-04-25T12:01:17.938Z</time></trkpt><trkpt lat="43.68706" lon="12.6607033"><ele>222.0</ele><time>2026-04-25T12:01:18.938Z</time></trkpt><trkpt lat="43.6871283" lon="12.660755"><ele>219.39999999999998</ele><time>2026-04-25T12:01:19.938Z</time></trkpt><trkpt lat="43.6872067" lon="12.6607583"><ele>216.79999999999998</ele><time>2026-04-25T12:01:20.938Z</time></trkpt><trkpt lat="43.6872983" lon="12.6607117"><ele>214.2</ele><time>2026-04-25T12:01:21.938Z</time></trkpt><trkpt lat="43.6873933" lon="12.6606567"><ele>211.6</ele><time>2026-04-25T12:01:22.938Z</time></trkpt><trkpt lat="43.6874933" lon="12.66063"><ele>209.0</ele><time>2026-04-25T12:01:23.938Z</time></trkpt><trkpt lat="43.6876" lon="12.66064"><ele>209.0</ele><time>2026-04-25T12:01:24.937Z</time></trkpt><trkpt lat="43.6877133" lon="12.66068"><ele>209.0</ele><time>2026-04-25T12:01:25.937Z</time></trkpt><trkpt lat="43.68783" lon="12.6607383"><ele>209.0</ele><time>2026-04-25T12:01:26.938Z</time></trkpt><trkpt lat="43.6879533" lon="12.6607983"><ele>209.0</ele><time>2026-04-25T12:01:27.938Z</time></trkpt><trkpt lat="43.68808" lon="12.66085"><ele>206.25</ele><time>2026-04-25T12:01:28.938Z</time></trkpt><trkpt lat="43.68821" lon="12.6608867"><ele>203.5</ele><time>2026-04-25T12:01:29.938Z</time></trkpt><trkpt lat="43.68834" lon="12.6609133"><ele>200.75</ele><time>2026-04-25T12:01:30.938Z</time></trkpt><trkpt lat="43.688475" lon="12.6609417"><ele>198.0</ele><time>2026-04-25T12:01:31.937Z</time></trkpt><trkpt lat="43.68861" lon="12.6609717"><ele>197.5</ele><time>2026-04-25T12:01:32.938Z</time></trkpt><trkpt lat="43.6887383" lon="12.6610133"><ele>197.0</ele><time>2026-04-25T12:01:33.938Z</time></trkpt><trkpt lat="43.6888617" lon="12.66107"><ele>196.5</ele><time>2026-04-25T12:01:34.937Z</time></trkpt><trkpt lat="43.6889767" lon="12.66113"><ele>196.0</ele><time>2026-04-25T12:01:35.938Z</time></trkpt><trkpt lat="43.68908" lon="12.6611917"><ele>196.0</ele><time>2026-04-25T12:01:36.937Z</time></trkpt><trkpt lat="43.689185" lon="12.6612317"><ele>196.0</ele><time>2026-04-25T12:01:37.938Z</time></trkpt><trkpt lat="43.689295" lon="12.6612283"><ele>196.0</ele><time>2026-04-25T12:01:38.938Z</time></trkpt><trkpt lat="43.6894083" lon="12.66121"><ele>196.0</ele><time>2026-04-25T12:01:39.938Z</time></trkpt><trkpt lat="43.6895217" lon="12.66124"><ele>196.0</ele><time>2026-04-25T12:01:40.938Z</time></trkpt><trkpt lat="43.6896333" lon="12.6613"><ele>193.75</ele><time>2026-04-25T12:01:41.938Z</time></trkpt><trkpt lat="43.6897483" lon="12.6613783"><ele>191.5</ele><time>2026-04-25T12:01:42.938Z</time></trkpt><trkpt lat="43.689865" lon="12.66146"><ele>189.25</ele><time>2026-04-25T12:01:43.938Z</time></trkpt><trkpt lat="43.6899717" lon="12.6615467"><ele>187.0</ele><time>2026-04-25T12:01:44.938Z</time></trkpt><trkpt lat="43.690075" lon="12.6616383"><ele>187.0</ele><time>2026-04-25T12:01:45.938Z</time></trkpt><trkpt lat="43.6901683" lon="12.6617367"><ele>187.0</ele><time>2026-04-25T12:01:46.938Z</time></trkpt><trkpt lat="43.6902483" lon="12.6618433"><ele>187.0</ele><time>2026-04-25T12:01:47.938Z</time></trkpt><trkpt lat="43.690305" lon="12.6619733"><ele>187.0</ele><time>2026-04-25T12:01:48.938Z</time></trkpt><trkpt lat="43.6903517" lon="12.66212"><ele>183.75</ele><time>2026-04-25T12:01:49.938Z</time></trkpt><trkpt lat="43.69038" lon="12.6622867"><ele>180.5</ele><time>2026-04-25T12:01:50.937Z</time></trkpt><trkpt lat="43.6903933" lon="12.662465"><ele>177.25</ele><time>2026-04-25T12:01:51.937Z</time></trkpt><trkpt lat="43.6903967" lon="12.66265"><ele>174.0</ele><time>2026-04-25T12:01:52.938Z</time></trkpt><trkpt lat="43.6904267" lon="12.66284"><ele>174.0</ele><time>2026-04-25T12:01:53.938Z</time></trkpt><trkpt lat="43.690475" lon="12.6630317"><ele>174.0</ele><time>2026-04-25T12:01:54.938Z</time></trkpt><trkpt lat="43.6905383" lon="12.66323"><ele>174.0</ele><time>2026-04-25T12:01:55.938Z</time></trkpt><trkpt lat="43.690595" lon="12.6634283"><ele>174.66666666666666</ele><time>2026-04-25T12:01:56.937Z</time></trkpt><trkpt lat="43.690635" lon="12.6636417"><ele>175.33333333333331</ele><time>2026-04-25T12:01:57.938Z</time></trkpt><trkpt lat="43.690665" lon="12.6638667"><ele>176.0</ele><time>2026-04-25T12:01:58.938Z</time></trkpt><trkpt lat="43.6906667" lon="12.6640983"><ele>176.0</ele><time>2026-04-25T12:01:59.938Z</time></trkpt><trkpt lat="43.6906517" lon="12.66432"><ele>176.0</ele><time>2026-04-25T12:02:00.938Z</time></trkpt><trkpt lat="43.6906317" lon="12.6645233"><ele>176.0</ele><time>2026-04-25T12:02:01.938Z</time></trkpt><trkpt lat="43.6906217" lon="12.6647083"><ele>176.0</ele><time>2026-04-25T12:02:02.938Z</time></trkpt><trkpt lat="43.6906367" lon="12.6648783"><ele>176.0</ele><time>2026-04-25T12:02:03.937Z</time></trkpt><trkpt lat="43.6906683" lon="12.6650483"><ele>176.0</ele><time>2026-04-25T12:02:04.937Z</time></trkpt><trkpt lat="43.69071" lon="12.665215"><ele>176.0</ele><time>2026-04-25T12:02:05.938Z</time></trkpt><trkpt lat="43.690755" lon="12.6653817"><ele>176.0</ele><time>2026-04-25T12:02:06.937Z</time></trkpt><trkpt lat="43.6908017" lon="12.6655567"><ele>176.0</ele><time>2026-04-25T12:02:07.937Z</time></trkpt><trkpt lat="43.69085" lon="12.66574"><ele>176.0</ele><time>2026-04-25T12:02:08.938Z</time></trkpt><trkpt lat="43.6908933" lon="12.6659333"><ele>176.0</ele><time>2026-04-25T12:02:09.938Z</time></trkpt><trkpt lat="43.6909317" lon="12.666135"><ele>176.0</ele><time>2026-04-25T12:02:10.938Z</time></trkpt><trkpt lat="43.6909667" lon="12.6663417"><ele>176.25</ele><time>2026-04-25T12:02:11.938Z</time></trkpt><trkpt lat="43.691" lon="12.666545"><ele>176.5</ele><time>2026-04-25T12:02:12.938Z</time></trkpt><trkpt lat="43.69103" lon="12.6667367"><ele>176.75</ele><time>2026-04-25T12:02:13.938Z</time></trkpt><trkpt lat="43.6910583" lon="12.6669117"><ele>177.0</ele><time>2026-04-25T12:02:14.938Z</time></trkpt><trkpt lat="43.6910883" lon="12.6670817"><ele>177.0</ele><time>2026-04-25T12:02:15.938Z</time></trkpt><trkpt lat="43.6911183" lon="12.66725"><ele>177.0</ele><time>2026-04-25T12:02:16.938Z</time></trkpt><trkpt lat="43.6911367" lon="12.6674067"><ele>177.0</ele><time>2026-04-25T12:02:17.938Z</time></trkpt><trkpt lat="43.6911217" lon="12.66755"><ele>177.0</ele><time>2026-04-25T12:02:18.937Z</time></trkpt><trkpt lat="43.691075" lon="12.6676717"><ele>177.0</ele><time>2026-04-25T12:02:19.938Z</time></trkpt><trkpt lat="43.690995" lon="12.6677633"><ele>178.0</ele><time>2026-04-25T12:02:20.938Z</time></trkpt><trkpt lat="43.69089" lon="12.6678383"><ele>179.0</ele><time>2026-04-25T12:02:21.938Z</time></trkpt><trkpt lat="43.6907817" lon="12.667915"><ele>180.0</ele><time>2026-04-25T12:02:22.938Z</time></trkpt><trkpt lat="43.690685" lon="12.668005"><ele>181.0</ele><time>2026-04-25T12:02:23.938Z</time></trkpt><trkpt lat="43.69061" lon="12.6681083"><ele>181.0</ele><time>2026-04-25T12:02:24.937Z</time></trkpt><trkpt lat="43.6905517" lon="12.6682533"><ele>181.0</ele><time>2026-04-25T12:02:25.937Z</time></trkpt><trkpt lat="43.690495" lon="12.6684283"><ele>181.0</ele><time>2026-04-25T12:02:26.938Z</time></trkpt><trkpt lat="43.6904367" lon="12.668625"><ele>181.0</ele><time>2026-04-25T12:02:27.937Z</time></trkpt><trkpt lat="43.69038" lon="12.6688183"><ele>183.66666666666669</ele><time>2026-04-25T12:02:28.938Z</time></trkpt><trkpt lat="43.69032" lon="12.66901"><ele>186.33333333333334</ele><time>2026-04-25T12:02:29.938Z</time></trkpt><trkpt lat="43.6902483" lon="12.6692017"><ele>189.0</ele><time>2026-04-25T12:02:30.938Z</time></trkpt><trkpt lat="43.6901733" lon="12.6694033"><ele>190.75</ele><time>2026-04-25T12:02:31.938Z</time></trkpt><trkpt lat="43.6900917" lon="12.6695917"><ele>192.5</ele><time>2026-04-25T12:02:32.937Z</time></trkpt><trkpt lat="43.6900033" lon="12.6697567"><ele>194.25</ele><time>2026-04-25T12:02:33.938Z</time></trkpt><trkpt lat="43.689915" lon="12.6699"><ele>196.0</ele><time>2026-04-25T12:02:34.937Z</time></trkpt><trkpt lat="43.689825" lon="12.670015"><ele>196.0</ele><time>2026-04-25T12:02:35.938Z</time></trkpt><trkpt lat="43.68974" lon="12.6701017"><ele>196.0</ele><time>2026-04-25T12:02:36.938Z</time></trkpt><trkpt lat="43.68966" lon="12.6701783"><ele>196.0</ele><time>2026-04-25T12:02:37.938Z</time></trkpt><trkpt lat="43.6896283" lon="12.67028"><ele>196.0</ele><time>2026-04-25T12:02:38.938Z</time></trkpt><trkpt lat="43.689635" lon="12.6703683"><ele>196.0</ele><time>2026-04-25T12:02:39.938Z</time></trkpt><trkpt lat="43.6897317" lon="12.6704517"><ele>196.60000000000002</ele><time>2026-04-25T12:02:41.938Z</time></trkpt><trkpt lat="43.6898017" lon="12.670465"><ele>197.2</ele><time>2026-04-25T12:02:42.938Z</time></trkpt><trkpt lat="43.689895" lon="12.67046"><ele>197.8</ele><time>2026-04-25T12:02:43.937Z</time></trkpt><trkpt lat="43.6899967" lon="12.67044"><ele>198.39999999999998</ele><time>2026-04-25T12:02:44.938Z</time></trkpt><trkpt lat="43.6901083" lon="12.67043"><ele>199.0</ele><time>2026-04-25T12:02:45.938Z</time></trkpt><trkpt lat="43.6902167" lon="12.6704633"><ele>198.75</ele><time>2026-04-25T12:02:46.937Z</time></trkpt><trkpt lat="43.690315" lon="12.6705183"><ele>198.5</ele><time>2026-04-25T12:02:47.938Z</time></trkpt><trkpt lat="43.69041" lon="12.6706"><ele>198.25</ele><time>2026-04-25T12:02:48.938Z</time></trkpt><trkpt lat="43.6905017" lon="12.67072"><ele>198.0</ele><time>2026-04-25T12:02:49.938Z</time></trkpt><trkpt lat="43.6905867" lon="12.67084"><ele>198.0</ele><time>2026-04-25T12:02:50.938Z</time></trkpt><trkpt lat="43.6906617" lon="12.670985"><ele>198.0</ele><time>2026-04-25T12:02:51.938Z</time></trkpt><trkpt lat="43.6907267" lon="12.67115"><ele>198.0</ele><time>2026-04-25T12:02:52.937Z</time></trkpt><trkpt lat="43.6907883" lon="12.6713267"><ele>198.0</ele><time>2026-04-25T12:02:53.937Z</time></trkpt><trkpt lat="43.6908333" lon="12.671505"><ele>199.25</ele><time>2026-04-25T12:02:54.938Z</time></trkpt><trkpt lat="43.6908733" lon="12.6716817"><ele>200.5</ele><time>2026-04-25T12:02:55.938Z</time></trkpt><trkpt lat="43.69091" lon="12.6718517"><ele>201.75</ele><time>2026-04-25T12:02:56.938Z</time></trkpt><trkpt lat="43.6909417" lon="12.6720183"><ele>203.0</ele><time>2026-04-25T12:02:57.938Z</time></trkpt><trkpt lat="43.690955" lon="12.6721917"><ele>204.5</ele><time>2026-04-25T12:02:58.938Z</time></trkpt><trkpt lat="43.6909483" lon="12.6723667"><ele>206.0</ele><time>2026-04-25T12:02:59.938Z</time></trkpt><trkpt lat="43.6909283" lon="12.6725433"><ele>207.5</ele><time>2026-04-25T12:03:00.938Z</time></trkpt><trkpt lat="43.6909033" lon="12.6727233"><ele>209.0</ele><time>2026-04-25T12:03:01.938Z</time></trkpt><trkpt lat="43.6908867" lon="12.6728983"><ele>210.25</ele><time>2026-04-25T12:03:02.938Z</time></trkpt><trkpt lat="43.69088" lon="12.6730733"><ele>211.5</ele><time>2026-04-25T12:03:03.938Z</time></trkpt><trkpt lat="43.6908833" lon="12.6732567"><ele>212.75</ele><time>2026-04-25T12:03:04.938Z</time></trkpt><trkpt lat="43.6908833" lon="12.67344"><ele>214.0</ele><time>2026-04-25T12:03:05.938Z</time></trkpt><trkpt lat="43.6908783" lon="12.673625"><ele>214.6</ele><time>2026-04-25T12:03:06.937Z</time></trkpt><trkpt lat="43.6908683" lon="12.6738067"><ele>215.2</ele><time>2026-04-25T12:03:07.938Z</time></trkpt><trkpt lat="43.690865" lon="12.673975"><ele>215.79999999999998</ele><time>2026-04-25T12:03:08.938Z</time></trkpt><trkpt lat="43.6908633" lon="12.6741133"><ele>216.39999999999998</ele><time>2026-04-25T12:03:09.938Z</time></trkpt><trkpt lat="43.6908667" lon="12.67423"><ele>217.0</ele><time>2026-04-25T12:03:10.937Z</time></trkpt><trkpt lat="43.6908917" lon="12.6743483"><ele>218.6</ele><time>2026-04-25T12:03:11.938Z</time></trkpt><trkpt lat="43.6909383" lon="12.67446"><ele>220.2</ele><time>2026-04-25T12:03:12.938Z</time></trkpt><trkpt lat="43.691005" lon="12.6745733"><ele>221.8</ele><time>2026-04-25T12:03:13.938Z</time></trkpt><trkpt lat="43.691075" lon="12.6746983"><ele>223.4</ele><time>2026-04-25T12:03:14.938Z</time></trkpt><trkpt lat="43.691145" lon="12.6748267"><ele>225.0</ele><time>2026-04-25T12:03:15.938Z</time></trkpt><trkpt lat="43.69121" lon="12.6749533"><ele>222.0</ele><time>2026-04-25T12:03:16.938Z</time></trkpt><trkpt lat="43.6912783" lon="12.6750633"><ele>219.0</ele><time>2026-04-25T12:03:17.938Z</time></trkpt><trkpt lat="43.6913583" lon="12.6751483"><ele>216.0</ele><time>2026-04-25T12:03:18.938Z</time></trkpt><trkpt lat="43.6914483" lon="12.6752067"><ele>213.0</ele><time>2026-04-25T12:03:19.938Z</time></trkpt><trkpt lat="43.6915383" lon="12.6752567"><ele>210.0</ele><time>2026-04-25T12:03:20.938Z</time></trkpt><trkpt lat="43.6916267" lon="12.6752983"><ele>210.0</ele><time>2026-04-25T12:03:21.938Z</time></trkpt><trkpt lat="43.69172" lon="12.6753283"><ele>210.0</ele><time>2026-04-25T12:03:22.938Z</time></trkpt><trkpt lat="43.691825" lon="12.6753417"><ele>210.0</ele><time>2026-04-25T12:03:23.938Z</time></trkpt><trkpt lat="43.6919333" lon="12.6753367"><ele>210.0</ele><time>2026-04-25T12:03:24.938Z</time></trkpt><trkpt lat="43.6920383" lon="12.6753183"><ele>210.0</ele><time>2026-04-25T12:03:25.937Z</time></trkpt><trkpt lat="43.6921417" lon="12.675285"><ele>205.2</ele><time>2026-04-25T12:03:26.938Z</time></trkpt><trkpt lat="43.6922467" lon="12.67524"><ele>200.4</ele><time>2026-04-25T12:03:27.937Z</time></trkpt><trkpt lat="43.69235" lon="12.67518"><ele>195.60000000000002</ele><time>2026-04-25T12:03:28.938Z</time></trkpt><trkpt lat="43.6924517" lon="12.6751183"><ele>190.8</ele><time>2026-04-25T12:03:29.937Z</time></trkpt><trkpt lat="43.6925483" lon="12.6750517"><ele>186.0</ele><time>2026-04-25T12:03:30.938Z</time></trkpt><trkpt lat="43.6926517" lon="12.6750033"><ele>184.75</ele><time>2026-04-25T12:03:31.938Z</time></trkpt><trkpt lat="43.6927567" lon="12.6749783"><ele>183.5</ele><time>2026-04-25T12:03:32.936Z</time></trkpt><trkpt lat="43.6928667" lon="12.674985"><ele>182.25</ele><time>2026-04-25T12:03:33.937Z</time></trkpt><trkpt lat="43.69298" lon="12.6750133"><ele>181.0</ele><time>2026-04-25T12:03:34.936Z</time></trkpt><trkpt lat="43.6930917" lon="12.675075"><ele>181.0</ele><time>2026-04-25T12:03:35.937Z</time></trkpt><trkpt lat="43.6932033" lon="12.6751583"><ele>181.0</ele><time>2026-04-25T12:03:36.937Z</time></trkpt><trkpt lat="43.6933167" lon="12.67524"><ele>181.0</ele><time>2026-04-25T12:03:37.936Z</time></trkpt><trkpt lat="43.69343" lon="12.6753017"><ele>181.0</ele><time>2026-04-25T12:03:38.937Z</time></trkpt><trkpt lat="43.6935417" lon="12.6753333"><ele>181.0</ele><time>2026-04-25T12:03:39.937Z</time></trkpt><trkpt lat="43.6936483" lon="12.67536"><ele>181.0</ele><time>2026-04-25T12:03:40.936Z</time></trkpt><trkpt lat="43.6937467" lon="12.6754067"><ele>181.0</ele><time>2026-04-25T12:03:41.937Z</time></trkpt><trkpt lat="43.6938383" lon="12.6754817"><ele>181.0</ele><time>2026-04-25T12:03:42.937Z</time></trkpt><trkpt lat="43.6939267" lon="12.6755733"><ele>181.0</ele><time>2026-04-25T12:03:43.936Z</time></trkpt><trkpt lat="43.6940167" lon="12.675665"><ele>181.0</ele><time>2026-04-25T12:03:44.936Z</time></trkpt><trkpt lat="43.6941183" lon="12.67573"><ele>181.0</ele><time>2026-04-25T12:03:45.937Z</time></trkpt><trkpt lat="43.6942267" lon="12.675765"><ele>181.0</ele><time>2026-04-25T12:03:46.937Z</time></trkpt><trkpt lat="43.6943383" lon="12.67578"><ele>181.0</ele><time>2026-04-25T12:03:47.936Z</time></trkpt><trkpt lat="43.69446" lon="12.6757883"><ele>179.25</ele><time>2026-04-25T12:03:48.937Z</time></trkpt><trkpt lat="43.694585" lon="12.6758083"><ele>177.5</ele><time>2026-04-25T12:03:49.937Z</time></trkpt><trkpt lat="43.6947183" lon="12.6758533"><ele>175.75</ele><time>2026-04-25T12:03:50.937Z</time></trkpt><trkpt lat="43.69485" lon="12.6759183"><ele>174.0</ele><time>2026-04-25T12:03:51.937Z</time></trkpt><trkpt lat="43.6949833" lon="12.6759833"><ele>174.0</ele><time>2026-04-25T12:03:52.937Z</time></trkpt><trkpt lat="43.6951067" lon="12.6760517"><ele>174.0</ele><time>2026-04-25T12:03:53.937Z</time></trkpt><trkpt lat="43.6952083" lon="12.67613"><ele>174.0</ele><time>2026-04-25T12:03:54.936Z</time></trkpt><trkpt lat="43.6952817" lon="12.6762183"><ele>174.0</ele><time>2026-04-25T12:03:55.936Z</time></trkpt><trkpt lat="43.6953433" lon="12.676325"><ele>174.0</ele><time>2026-04-25T12:03:56.937Z</time></trkpt><trkpt lat="43.6954133" lon="12.6764433"><ele>173.79999999999998</ele><time>2026-04-25T12:03:57.937Z</time></trkpt><trkpt lat="43.6954967" lon="12.676555"><ele>173.6</ele><time>2026-04-25T12:03:58.936Z</time></trkpt><trkpt lat="43.69559" lon="12.6766467"><ele>173.4</ele><time>2026-04-25T12:03:59.937Z</time></trkpt><trkpt lat="43.6956817" lon="12.676725"><ele>173.2</ele><time>2026-04-25T12:04:00.937Z</time></trkpt><trkpt lat="43.6957683" lon="12.6767883"><ele>173.0</ele><time>2026-04-25T12:04:01.937Z</time></trkpt><trkpt lat="43.69585" lon="12.6768333"><ele>173.0</ele><time>2026-04-25T12:04:02.937Z</time></trkpt><trkpt lat="43.6959317" lon="12.6768517"><ele>173.0</ele><time>2026-04-25T12:04:03.937Z</time></trkpt><trkpt lat="43.6960017" lon="12.6768383"><ele>173.0</ele><time>2026-04-25T12:04:04.937Z</time></trkpt><trkpt lat="43.69608" lon="12.6767267"><ele>173.0</ele><time>2026-04-25T12:04:06.936Z</time></trkpt><trkpt lat="43.696105" lon="12.676575"><ele>173.0</ele><time>2026-04-25T12:04:08.937Z</time></trkpt><trkpt lat="43.6961783" lon="12.676475"><ele>171.42857142857142</ele><time>2026-04-25T12:04:10.937Z</time></trkpt><trkpt lat="43.6962883" lon="12.676495"><ele>169.85714285714286</ele><time>2026-04-25T12:04:12.937Z</time></trkpt><trkpt lat="43.69633" lon="12.6765633"><ele>168.28571428571428</ele><time>2026-04-25T12:04:13.937Z</time></trkpt><trkpt lat="43.696365" lon="12.676645"><ele>166.71428571428572</ele><time>2026-04-25T12:04:14.937Z</time></trkpt><trkpt lat="43.6964033" lon="12.6767233"><ele>165.14285714285714</ele><time>2026-04-25T12:04:15.937Z</time></trkpt><trkpt lat="43.696455" lon="12.67678"><ele>163.57142857142858</ele><time>2026-04-25T12:04:16.937Z</time></trkpt><trkpt lat="43.6965183" lon="12.6768067"><ele>162.0</ele><time>2026-04-25T12:04:17.936Z</time></trkpt><trkpt lat="43.69659" lon="12.6768"><ele>162.0</ele><time>2026-04-25T12:04:18.937Z</time></trkpt><trkpt lat="43.6966583" lon="12.6767817"><ele>162.0</ele><time>2026-04-25T12:04:19.937Z</time></trkpt><trkpt lat="43.6967283" lon="12.676755"><ele>162.0</ele><time>2026-04-25T12:04:20.937Z</time></trkpt><trkpt lat="43.6968" lon="12.6767217"><ele>162.0</ele><time>2026-04-25T12:04:21.937Z</time></trkpt><trkpt lat="43.6968733" lon="12.6766917"><ele>162.0</ele><time>2026-04-25T12:04:22.937Z</time></trkpt><trkpt lat="43.69694" lon="12.6766633"><ele>162.0</ele><time>2026-04-25T12:04:23.936Z</time></trkpt><trkpt lat="43.697005" lon="12.6766733"><ele>162.0</ele><time>2026-04-25T12:04:24.937Z</time></trkpt><trkpt lat="43.6970617" lon="12.67673"><ele>162.6</ele><time>2026-04-25T12:04:25.937Z</time></trkpt><trkpt lat="43.69711" lon="12.6768267"><ele>163.2</ele><time>2026-04-25T12:04:26.937Z</time></trkpt><trkpt lat="43.6971633" lon="12.6769333"><ele>163.8</ele><time>2026-04-25T12:04:27.937Z</time></trkpt><trkpt lat="43.6972333" lon="12.6770417"><ele>164.4</ele><time>2026-04-25T12:04:28.937Z</time></trkpt><trkpt lat="43.6972967" lon="12.6771433"><ele>165.0</ele><time>2026-04-25T12:04:29.937Z</time></trkpt><trkpt lat="43.6973483" lon="12.6772267"><ele>165.0</ele><time>2026-04-25T12:04:30.936Z</time></trkpt><trkpt lat="43.6974017" lon="12.677285"><ele>165.0</ele><time>2026-04-25T12:04:31.937Z</time></trkpt><trkpt lat="43.6974517" lon="12.6773583"><ele>165.0</ele><time>2026-04-25T12:04:32.937Z</time></trkpt><trkpt lat="43.697505" lon="12.6774617"><ele>165.0</ele><time>2026-04-25T12:04:33.937Z</time></trkpt><trkpt lat="43.697575" lon="12.6775667"><ele>165.0</ele><time>2026-04-25T12:04:34.937Z</time></trkpt><trkpt lat="43.697665" lon="12.677655"><ele>165.0</ele><time>2026-04-25T12:04:35.937Z</time></trkpt><trkpt lat="43.6977717" lon="12.677725"><ele>164.0</ele><time>2026-04-25T12:04:36.937Z</time></trkpt><trkpt lat="43.69789" lon="12.67779"><ele>163.0</ele><time>2026-04-25T12:04:37.936Z</time></trkpt><trkpt lat="43.6980217" lon="12.67785"><ele>162.0</ele><time>2026-04-25T12:04:38.937Z</time></trkpt><trkpt lat="43.6981567" lon="12.6779167"><ele>161.0</ele><time>2026-04-25T12:04:39.937Z</time></trkpt><trkpt lat="43.6982967" lon="12.67798"><ele>161.0</ele><time>2026-04-25T12:04:40.937Z</time></trkpt><trkpt lat="43.69844" lon="12.6780417"><ele>161.0</ele><time>2026-04-25T12:04:41.936Z</time></trkpt><trkpt lat="43.6985833" lon="12.67811"><ele>161.0</ele><time>2026-04-25T12:04:42.937Z</time></trkpt><trkpt lat="43.698735" lon="12.67817"><ele>164.66666666666666</ele><time>2026-04-25T12:04:43.937Z</time></trkpt><trkpt lat="43.69889" lon="12.6782333"><ele>168.33333333333334</ele><time>2026-04-25T12:04:44.937Z</time></trkpt><trkpt lat="43.6990467" lon="12.6783017"><ele>172.0</ele><time>2026-04-25T12:04:45.937Z</time></trkpt><trkpt lat="43.6992033" lon="12.6783683"><ele>172.0</ele><time>2026-04-25T12:04:46.937Z</time></trkpt><trkpt lat="43.6993583" lon="12.6784483"><ele>172.0</ele><time>2026-04-25T12:04:47.937Z</time></trkpt><trkpt lat="43.699505" lon="12.6785567"><ele>172.0</ele><time>2026-04-25T12:04:48.937Z</time></trkpt><trkpt lat="43.6996467" lon="12.6786683"><ele>170.66666666666669</ele><time>2026-04-25T12:04:49.936Z</time></trkpt><trkpt lat="43.6997833" lon="12.6787917"><ele>169.33333333333334</ele><time>2026-04-25T12:04:50.937Z</time></trkpt><trkpt lat="43.69992" lon="12.6789317"><ele>168.0</ele><time>2026-04-25T12:04:51.937Z</time></trkpt><trkpt lat="43.70005" lon="12.67909"><ele>168.0</ele><time>2026-04-25T12:04:52.937Z</time></trkpt><trkpt lat="43.7001583" lon="12.6792717"><ele>168.0</ele><time>2026-04-25T12:04:53.936Z</time></trkpt><trkpt lat="43.7002417" lon="12.6794783"><ele>168.0</ele><time>2026-04-25T12:04:54.937Z</time></trkpt><trkpt lat="43.7003317" lon="12.6796783"><ele>167.0</ele><time>2026-04-25T12:04:55.936Z</time></trkpt><trkpt lat="43.7004417" lon="12.6798567"><ele>166.0</ele><time>2026-04-25T12:04:56.937Z</time></trkpt><trkpt lat="43.700575" lon="12.6800067"><ele>165.0</ele><time>2026-04-25T12:04:57.937Z</time></trkpt><trkpt lat="43.700725" lon="12.6801083"><ele>165.0</ele><time>2026-04-25T12:04:58.937Z</time></trkpt><trkpt lat="43.7008733" lon="12.6801867"><ele>165.0</ele><time>2026-04-25T12:04:59.936Z</time></trkpt><trkpt lat="43.7010133" lon="12.68026"><ele>165.0</ele><time>2026-04-25T12:05:00.937Z</time></trkpt><trkpt lat="43.7011283" lon="12.68036"><ele>165.0</ele><time>2026-04-25T12:05:01.937Z</time></trkpt><trkpt lat="43.701225" lon="12.6804767"><ele>165.75</ele><time>2026-04-25T12:05:02.936Z</time></trkpt><trkpt lat="43.7012883" lon="12.68062"><ele>166.5</ele><time>2026-04-25T12:05:03.937Z</time></trkpt><trkpt lat="43.7013183" lon="12.6808"><ele>167.25</ele><time>2026-04-25T12:05:04.937Z</time></trkpt><trkpt lat="43.701345" lon="12.6809933"><ele>168.0</ele><time>2026-04-25T12:05:05.937Z</time></trkpt><trkpt lat="43.701385" lon="12.6811967"><ele>168.0</ele><time>2026-04-25T12:05:06.937Z</time></trkpt><trkpt lat="43.7014267" lon="12.681405"><ele>168.0</ele><time>2026-04-25T12:05:07.936Z</time></trkpt><trkpt lat="43.701465" lon="12.6816183"><ele>168.0</ele><time>2026-04-25T12:05:08.936Z</time></trkpt><trkpt lat="43.701505" lon="12.68183"><ele>167.0</ele><time>2026-04-25T12:05:09.937Z</time></trkpt><trkpt lat="43.7015467" lon="12.682045"><ele>166.0</ele><time>2026-04-25T12:05:10.937Z</time></trkpt><trkpt lat="43.7015883" lon="12.6822633"><ele>165.0</ele><time>2026-04-25T12:05:11.937Z</time></trkpt><trkpt lat="43.7016333" lon="12.682475"><ele>165.0</ele><time>2026-04-25T12:05:12.937Z</time></trkpt><trkpt lat="43.7016717" lon="12.6826783"><ele>165.0</ele><time>2026-04-25T12:05:13.937Z</time></trkpt><trkpt lat="43.7017017" lon="12.682875"><ele>165.0</ele><time>2026-04-25T12:05:14.937Z</time></trkpt><trkpt lat="43.7017183" lon="12.6830683"><ele>165.0</ele><time>2026-04-25T12:05:15.937Z</time></trkpt><trkpt lat="43.70171" lon="12.6832667"><ele>165.0</ele><time>2026-04-25T12:05:16.937Z</time></trkpt><trkpt lat="43.7016633" lon="12.6834617"><ele>165.0</ele><time>2026-04-25T12:05:17.936Z</time></trkpt><trkpt lat="43.7015917" lon="12.6836433"><ele>165.0</ele><time>2026-04-25T12:05:18.937Z</time></trkpt><trkpt lat="43.7015183" lon="12.6838183"><ele>165.0</ele><time>2026-04-25T12:05:19.937Z</time></trkpt><trkpt lat="43.7014433" lon="12.6839917"><ele>166.33333333333334</ele><time>2026-04-25T12:05:20.936Z</time></trkpt><trkpt lat="43.7013667" lon="12.68417"><ele>167.66666666666669</ele><time>2026-04-25T12:05:21.937Z</time></trkpt><trkpt lat="43.7012883" lon="12.6843517"><ele>169.0</ele><time>2026-04-25T12:05:22.936Z</time></trkpt><trkpt lat="43.7012183" lon="12.68454"><ele>170.0</ele><time>2026-04-25T12:05:23.937Z</time></trkpt><trkpt lat="43.7011467" lon="12.6847267"><ele>171.0</ele><time>2026-04-25T12:05:24.937Z</time></trkpt><trkpt lat="43.7010683" lon="12.6849"><ele>172.0</ele><time>2026-04-25T12:05:25.936Z</time></trkpt><trkpt lat="43.7009783" lon="12.6850533"><ele>173.0</ele><time>2026-04-25T12:05:26.936Z</time></trkpt><trkpt lat="43.70087" lon="12.6851717"><ele>173.0</ele><time>2026-04-25T12:05:27.937Z</time></trkpt><trkpt lat="43.7007483" lon="12.6852533"><ele>173.0</ele><time>2026-04-25T12:05:28.937Z</time></trkpt><trkpt lat="43.7006267" lon="12.6853183"><ele>173.0</ele><time>2026-04-25T12:05:29.937Z</time></trkpt><trkpt lat="43.7005" lon="12.68535"><ele>173.0</ele><time>2026-04-25T12:05:30.937Z</time></trkpt><trkpt lat="43.7003733" lon="12.6853433"><ele>173.2</ele><time>2026-04-25T12:05:31.936Z</time></trkpt><trkpt lat="43.7002567" lon="12.685315"><ele>173.4</ele><time>2026-04-25T12:05:32.937Z</time></trkpt><trkpt lat="43.7001483" lon="12.685285"><ele>173.6</ele><time>2026-04-25T12:05:33.937Z</time></trkpt><trkpt lat="43.7000417" lon="12.6852683"><ele>173.79999999999998</ele><time>2026-04-25T12:05:34.937Z</time></trkpt><trkpt lat="43.6999383" lon="12.6852583"><ele>174.0</ele><time>2026-04-25T12:05:35.937Z</time></trkpt><trkpt lat="43.69984" lon="12.6852683"><ele>175.6</ele><time>2026-04-25T12:05:36.937Z</time></trkpt><trkpt lat="43.6997517" lon="12.6853567"><ele>177.2</ele><time>2026-04-25T12:05:37.937Z</time></trkpt><trkpt lat="43.69968" lon="12.6854717"><ele>178.79999999999998</ele><time>2026-04-25T12:05:38.937Z</time></trkpt><trkpt lat="43.69963" lon="12.68561"><ele>180.39999999999998</ele><time>2026-04-25T12:05:39.937Z</time></trkpt><trkpt lat="43.699585" lon="12.68576"><ele>182.0</ele><time>2026-04-25T12:05:40.937Z</time></trkpt><trkpt lat="43.69954" lon="12.6859233"><ele>182.0</ele><time>2026-04-25T12:05:41.937Z</time></trkpt><trkpt lat="43.6994867" lon="12.686085"><ele>182.0</ele><time>2026-04-25T12:05:42.937Z</time></trkpt><trkpt lat="43.6994367" lon="12.6862433"><ele>182.0</ele><time>2026-04-25T12:05:43.937Z</time></trkpt><trkpt lat="43.6993917" lon="12.6863967"><ele>182.0</ele><time>2026-04-25T12:05:44.937Z</time></trkpt><trkpt lat="43.6993333" lon="12.6865433"><ele>181.0</ele><time>2026-04-25T12:05:45.937Z</time></trkpt><trkpt lat="43.6992667" lon="12.6866817"><ele>180.0</ele><time>2026-04-25T12:05:46.937Z</time></trkpt><trkpt lat="43.6992" lon="12.68683"><ele>179.0</ele><time>2026-04-25T12:05:47.937Z</time></trkpt><trkpt lat="43.6991333" lon="12.6869883"><ele>178.0</ele><time>2026-04-25T12:05:48.937Z</time></trkpt><trkpt lat="43.6990683" lon="12.6871567"><ele>178.0</ele><time>2026-04-25T12:05:49.937Z</time></trkpt><trkpt lat="43.69901" lon="12.687335"><ele>178.0</ele><time>2026-04-25T12:05:50.937Z</time></trkpt><trkpt lat="43.6989567" lon="12.68751"><ele>178.0</ele><time>2026-04-25T12:05:51.937Z</time></trkpt><trkpt lat="43.6988983" lon="12.6876733"><ele>178.0</ele><time>2026-04-25T12:05:52.937Z</time></trkpt><trkpt lat="43.698835" lon="12.687825"><ele>177.25</ele><time>2026-04-25T12:05:53.936Z</time></trkpt><trkpt lat="43.6987667" lon="12.6879617"><ele>176.5</ele><time>2026-04-25T12:05:54.937Z</time></trkpt><trkpt lat="43.6986783" lon="12.6880667"><ele>175.75</ele><time>2026-04-25T12:05:55.937Z</time></trkpt><trkpt lat="43.698575" lon="12.6881233"><ele>175.0</ele><time>2026-04-25T12:05:56.937Z</time></trkpt><trkpt lat="43.69846" lon="12.6881233"><ele>173.75</ele><time>2026-04-25T12:05:57.937Z</time></trkpt><trkpt lat="43.698345" lon="12.6880983"><ele>172.5</ele><time>2026-04-25T12:05:58.937Z</time></trkpt><trkpt lat="43.69823" lon="12.6880733"><ele>171.25</ele><time>2026-04-25T12:05:59.937Z</time></trkpt><trkpt lat="43.698115" lon="12.6880517"><ele>170.0</ele><time>2026-04-25T12:06:00.937Z</time></trkpt><trkpt lat="43.6980033" lon="12.6880367"><ele>170.0</ele><time>2026-04-25T12:06:01.936Z</time></trkpt><trkpt lat="43.697895" lon="12.6880317"><ele>170.0</ele><time>2026-04-25T12:06:02.936Z</time></trkpt><trkpt lat="43.6977883" lon="12.6880233"><ele>170.0</ele><time>2026-04-25T12:06:03.937Z</time></trkpt><trkpt lat="43.69768" lon="12.6880317"><ele>170.0</ele><time>2026-04-25T12:06:04.936Z</time></trkpt><trkpt lat="43.697575" lon="12.6880667"><ele>170.0</ele><time>2026-04-25T12:06:05.936Z</time></trkpt><trkpt lat="43.697475" lon="12.6881367"><ele>168.75</ele><time>2026-04-25T12:06:06.937Z</time></trkpt><trkpt lat="43.6973867" lon="12.6882433"><ele>167.5</ele><time>2026-04-25T12:06:07.937Z</time></trkpt><trkpt lat="43.6973167" lon="12.688375"><ele>166.25</ele><time>2026-04-25T12:06:08.937Z</time></trkpt><trkpt lat="43.69727" lon="12.688525"><ele>165.0</ele><time>2026-04-25T12:06:09.937Z</time></trkpt><trkpt lat="43.6972483" lon="12.6887"><ele>164.5</ele><time>2026-04-25T12:06:10.937Z</time></trkpt><trkpt lat="43.69726" lon="12.6888883"><ele>164.0</ele><time>2026-04-25T12:06:11.937Z</time></trkpt><trkpt lat="43.6973083" lon="12.6890783"><ele>163.5</ele><time>2026-04-25T12:06:12.937Z</time></trkpt><trkpt lat="43.6973783" lon="12.6892733"><ele>163.0</ele><time>2026-04-25T12:06:13.936Z</time></trkpt><trkpt lat="43.69745" lon="12.6894717"><ele>162.66666666666669</ele><time>2026-04-25T12:06:14.937Z</time></trkpt><trkpt lat="43.6974983" lon="12.6896817"><ele>162.33333333333334</ele><time>2026-04-25T12:06:15.937Z</time></trkpt><trkpt lat="43.6975217" lon="12.6899067"><ele>162.0</ele><time>2026-04-25T12:06:16.937Z</time></trkpt><trkpt lat="43.6975267" lon="12.6901383"><ele>162.66666666666666</ele><time>2026-04-25T12:06:17.937Z</time></trkpt><trkpt lat="43.6975133" lon="12.6903717"><ele>163.33333333333331</ele><time>2026-04-25T12:06:18.937Z</time></trkpt><trkpt lat="43.6974967" lon="12.6906083"><ele>164.0</ele><time>2026-04-25T12:06:19.937Z</time></trkpt><trkpt lat="43.6974767" lon="12.6908533"><ele>164.0</ele><time>2026-04-25T12:06:20.937Z</time></trkpt><trkpt lat="43.6974617" lon="12.6910983"><ele>164.0</ele><time>2026-04-25T12:06:21.937Z</time></trkpt><trkpt lat="43.6974317" lon="12.691345"><ele>164.0</ele><time>2026-04-25T12:06:22.936Z</time></trkpt><trkpt lat="43.6973883" lon="12.69158"><ele>164.0</ele><time>2026-04-25T12:06:23.937Z</time></trkpt><trkpt lat="43.697315" lon="12.691795"><ele>164.0</ele><time>2026-04-25T12:06:24.937Z</time></trkpt><trkpt lat="43.69724" lon="12.6919983"><ele>164.0</ele><time>2026-04-25T12:06:25.936Z</time></trkpt><trkpt lat="43.6971617" lon="12.6921933"><ele>164.0</ele><time>2026-04-25T12:06:26.937Z</time></trkpt><trkpt lat="43.6970967" lon="12.6923833"><ele>164.0</ele><time>2026-04-25T12:06:27.937Z</time></trkpt><trkpt lat="43.6970317" lon="12.6925683"><ele>164.0</ele><time>2026-04-25T12:06:28.937Z</time></trkpt><trkpt lat="43.69696" lon="12.6927417"><ele>164.0</ele><time>2026-04-25T12:06:29.937Z</time></trkpt><trkpt lat="43.6968833" lon="12.69291"><ele>163.66666666666666</ele><time>2026-04-25T12:06:30.936Z</time></trkpt><trkpt lat="43.696795" lon="12.693075"><ele>163.33333333333334</ele><time>2026-04-25T12:06:31.937Z</time></trkpt><trkpt lat="43.6967033" lon="12.693245"><ele>163.0</ele><time>2026-04-25T12:06:32.937Z</time></trkpt><trkpt lat="43.6966067" lon="12.6934167"><ele>163.0</ele><time>2026-04-25T12:06:33.936Z</time></trkpt><trkpt lat="43.6965117" lon="12.693595"><ele>163.0</ele><time>2026-04-25T12:06:34.937Z</time></trkpt><trkpt lat="43.6964117" lon="12.6937767"><ele>163.0</ele><time>2026-04-25T12:06:35.937Z</time></trkpt><trkpt lat="43.6963067" lon="12.6939567"><ele>163.0</ele><time>2026-04-25T12:06:36.937Z</time></trkpt><trkpt lat="43.6962017" lon="12.694145"><ele>163.0</ele><time>2026-04-25T12:06:37.937Z</time></trkpt><trkpt lat="43.6960967" lon="12.694335"><ele>163.0</ele><time>2026-04-25T12:06:38.937Z</time></trkpt><trkpt lat="43.6959933" lon="12.6945267"><ele>163.0</ele><time>2026-04-25T12:06:39.936Z</time></trkpt><trkpt lat="43.6958867" lon="12.6947067"><ele>163.0</ele><time>2026-04-25T12:06:40.937Z</time></trkpt><trkpt lat="43.69578" lon="12.6948867"><ele>163.0</ele><time>2026-04-25T12:06:41.936Z</time></trkpt><trkpt lat="43.6956783" lon="12.6950683"><ele>163.0</ele><time>2026-04-25T12:06:42.937Z</time></trkpt><trkpt lat="43.6955783" lon="12.69524"><ele>163.0</ele><time>2026-04-25T12:06:43.936Z</time></trkpt><trkpt lat="43.6954783" lon="12.69541"><ele>163.0</ele><time>2026-04-25T12:06:44.937Z</time></trkpt><trkpt lat="43.6953817" lon="12.6955817"><ele>163.0</ele><time>2026-04-25T12:06:45.936Z</time></trkpt><trkpt lat="43.6952733" lon="12.6957417"><ele>163.0</ele><time>2026-04-25T12:06:46.937Z</time></trkpt><trkpt lat="43.6951533" lon="12.6958833"><ele>163.0</ele><time>2026-04-25T12:06:47.937Z</time></trkpt><trkpt lat="43.695025" lon="12.6960167"><ele>163.66666666666669</ele><time>2026-04-25T12:06:48.937Z</time></trkpt><trkpt lat="43.69489" lon="12.69614"><ele>164.33333333333334</ele><time>2026-04-25T12:06:49.937Z</time></trkpt><trkpt lat="43.6947533" lon="12.6962633"><ele>165.0</ele><time>2026-04-25T12:06:50.937Z</time></trkpt><trkpt lat="43.6946233" lon="12.6963933"><ele>165.0</ele><time>2026-04-25T12:06:51.937Z</time></trkpt><trkpt lat="43.6944917" lon="12.6965183"><ele>165.0</ele><time>2026-04-25T12:06:52.936Z</time></trkpt><trkpt lat="43.694355" lon="12.6966383"><ele>165.0</ele><time>2026-04-25T12:06:53.937Z</time></trkpt><trkpt lat="43.6942183" lon="12.69676"><ele>165.33333333333334</ele><time>2026-04-25T12:06:54.937Z</time></trkpt><trkpt lat="43.69408" lon="12.6968833"><ele>165.66666666666669</ele><time>2026-04-25T12:06:55.937Z</time></trkpt><trkpt lat="43.6939417" lon="12.6970117"><ele>166.0</ele><time>2026-04-25T12:06:56.937Z</time></trkpt><trkpt lat="43.6938017" lon="12.69714"><ele>166.0</ele><time>2026-04-25T12:06:57.936Z</time></trkpt><trkpt lat="43.6936633" lon="12.6972717"><ele>166.0</ele><time>2026-04-25T12:06:58.937Z</time></trkpt><trkpt lat="43.6935267" lon="12.6974067"><ele>166.0</ele><time>2026-04-25T12:06:59.937Z</time></trkpt><trkpt lat="43.693395" lon="12.697545"><ele>166.0</ele><time>2026-04-25T12:07:00.937Z</time></trkpt><trkpt lat="43.69327" lon="12.69769"><ele>166.0</ele><time>2026-04-25T12:07:01.936Z</time></trkpt><trkpt lat="43.6931567" lon="12.697835"><ele>166.0</ele><time>2026-04-25T12:07:02.937Z</time></trkpt><trkpt lat="43.693055" lon="12.6979817"><ele>166.0</ele><time>2026-04-25T12:07:03.937Z</time></trkpt><trkpt lat="43.69296" lon="12.6981233"><ele>166.0</ele><time>2026-04-25T12:07:04.937Z</time></trkpt><trkpt lat="43.6928683" lon="12.6982533"><ele>166.0</ele><time>2026-04-25T12:07:05.937Z</time></trkpt><trkpt lat="43.692785" lon="12.6983667"><ele>166.0</ele><time>2026-04-25T12:07:06.937Z</time></trkpt><trkpt lat="43.692715" lon="12.69847"><ele>166.0</ele><time>2026-04-25T12:07:07.937Z</time></trkpt><trkpt lat="43.6926667" lon="12.6985717"><ele>166.0</ele><time>2026-04-25T12:07:08.937Z</time></trkpt><trkpt lat="43.6926467" lon="12.6986767"><ele>166.0</ele><time>2026-04-25T12:07:09.937Z</time></trkpt><trkpt lat="43.6926517" lon="12.6987717"><ele>166.0</ele><time>2026-04-25T12:07:10.936Z</time></trkpt><trkpt lat="43.6927367" lon="12.6989067"><ele>166.0</ele><time>2026-04-25T12:07:12.937Z</time></trkpt><trkpt lat="43.69281" lon="12.69896"><ele>166.0</ele><time>2026-04-25T12:07:13.937Z</time></trkpt><trkpt lat="43.692895" lon="12.6990233"><ele>167.25</ele><time>2026-04-25T12:07:14.937Z</time></trkpt><trkpt lat="43.692995" lon="12.6990983"><ele>168.5</ele><time>2026-04-25T12:07:15.937Z</time></trkpt><trkpt lat="43.6931" lon="12.6991733"><ele>169.75</ele><time>2026-04-25T12:07:16.937Z</time></trkpt><trkpt lat="43.69321" lon="12.699255"><ele>171.0</ele><time>2026-04-25T12:07:17.937Z</time></trkpt><trkpt lat="43.693325" lon="12.699345"><ele>171.5</ele><time>2026-04-25T12:07:18.937Z</time></trkpt><trkpt lat="43.6934367" lon="12.6994333"><ele>172.0</ele><time>2026-04-25T12:07:19.936Z</time></trkpt><trkpt lat="43.693545" lon="12.69952"><ele>172.5</ele><time>2026-04-25T12:07:20.937Z</time></trkpt><trkpt lat="43.6936483" lon="12.6996017"><ele>173.0</ele><time>2026-04-25T12:07:21.937Z</time></trkpt><trkpt lat="43.6937467" lon="12.699675"><ele>173.0</ele><time>2026-04-25T12:07:22.937Z</time></trkpt><trkpt lat="43.6938367" lon="12.6997417"><ele>173.0</ele><time>2026-04-25T12:07:23.937Z</time></trkpt><trkpt lat="43.6939183" lon="12.699805"><ele>173.0</ele><time>2026-04-25T12:07:24.937Z</time></trkpt><trkpt lat="43.6939867" lon="12.6998617"><ele>173.0</ele><time>2026-04-25T12:07:25.937Z</time></trkpt><trkpt lat="43.6940417" lon="12.6999067"><ele>173.0</ele><time>2026-04-25T12:07:26.937Z</time></trkpt><trkpt lat="43.6941067" lon="12.6999617"><ele>173.0</ele><time>2026-04-25T12:07:28.937Z</time></trkpt><trkpt lat="43.6941633" lon="12.7000183"><ele>173.0</ele><time>2026-04-25T12:07:31.937Z</time></trkpt><trkpt lat="43.69425" lon="12.7000817"><ele>173.0</ele><time>2026-04-25T12:07:33.937Z</time></trkpt><trkpt lat="43.694305" lon="12.700125"><ele>173.0</ele><time>2026-04-25T12:07:34.936Z</time></trkpt><trkpt lat="43.69437" lon="12.7001767"><ele>173.0</ele><time>2026-04-25T12:07:35.937Z</time></trkpt><trkpt lat="43.69444" lon="12.7002433"><ele>173.0</ele><time>2026-04-25T12:07:36.937Z</time></trkpt><trkpt lat="43.6945133" lon="12.7003167"><ele>173.0</ele><time>2026-04-25T12:07:37.937Z</time></trkpt><trkpt lat="43.6945917" lon="12.700385"><ele>174.0</ele><time>2026-04-25T12:07:38.936Z</time></trkpt><trkpt lat="43.6946783" lon="12.7004517"><ele>175.0</ele><time>2026-04-25T12:07:39.936Z</time></trkpt><trkpt lat="43.6947683" lon="12.7005267"><ele>176.0</ele><time>2026-04-25T12:07:40.936Z</time></trkpt><trkpt lat="43.6948617" lon="12.7006"><ele>177.0</ele><time>2026-04-25T12:07:41.936Z</time></trkpt><trkpt lat="43.6949667" lon="12.7006667"><ele>178.0</ele><time>2026-04-25T12:07:42.937Z</time></trkpt><trkpt lat="43.69507" lon="12.70073"><ele>178.0</ele><time>2026-04-25T12:07:43.937Z</time></trkpt><trkpt lat="43.69517" lon="12.7007983"><ele>178.0</ele><time>2026-04-25T12:07:44.937Z</time></trkpt><trkpt lat="43.6952783" lon="12.7008683"><ele>178.0</ele><time>2026-04-25T12:07:45.937Z</time></trkpt><trkpt lat="43.6953917" lon="12.7009483"><ele>178.0</ele><time>2026-04-25T12:07:46.936Z</time></trkpt><trkpt lat="43.6955033" lon="12.7010333"><ele>179.5</ele><time>2026-04-25T12:07:47.937Z</time></trkpt><trkpt lat="43.69561" lon="12.7011183"><ele>181.0</ele><time>2026-04-25T12:07:48.936Z</time></trkpt><trkpt lat="43.6957167" lon="12.7011917"><ele>182.5</ele><time>2026-04-25T12:07:49.937Z</time></trkpt><trkpt lat="43.695815" lon="12.70127"><ele>184.0</ele><time>2026-04-25T12:07:50.937Z</time></trkpt><trkpt lat="43.6959167" lon="12.7013533"><ele>184.0</ele><time>2026-04-25T12:07:51.937Z</time></trkpt><trkpt lat="43.696025" lon="12.7014283"><ele>184.0</ele><time>2026-04-25T12:07:52.937Z</time></trkpt><trkpt lat="43.6961317" lon="12.701505"><ele>184.0</ele><time>2026-04-25T12:07:53.937Z</time></trkpt><trkpt lat="43.6962217" lon="12.7015917"><ele>184.0</ele><time>2026-04-25T12:07:54.937Z</time></trkpt><trkpt lat="43.6962883" lon="12.7016883"><ele>184.0</ele><time>2026-04-25T12:07:55.937Z</time></trkpt><trkpt lat="43.6963317" lon="12.701805"><ele>185.2</ele><time>2026-04-25T12:07:56.937Z</time></trkpt><trkpt lat="43.696375" lon="12.70193"><ele>186.39999999999998</ele><time>2026-04-25T12:07:57.937Z</time></trkpt><trkpt lat="43.6964233" lon="12.7020583"><ele>187.6</ele><time>2026-04-25T12:07:58.937Z</time></trkpt><trkpt lat="43.6964783" lon="12.7022"><ele>188.8</ele><time>2026-04-25T12:07:59.937Z</time></trkpt><trkpt lat="43.6965333" lon="12.7023517"><ele>190.0</ele><time>2026-04-25T12:08:00.937Z</time></trkpt><trkpt lat="43.6965917" lon="12.7025067"><ele>190.0</ele><time>2026-04-25T12:08:01.937Z</time></trkpt><trkpt lat="43.6966567" lon="12.702665"><ele>190.0</ele><time>2026-04-25T12:08:02.937Z</time></trkpt><trkpt lat="43.6967117" lon="12.7028167"><ele>190.0</ele><time>2026-04-25T12:08:03.937Z</time></trkpt><trkpt lat="43.696755" lon="12.7029567"><ele>190.0</ele><time>2026-04-25T12:08:04.937Z</time></trkpt><trkpt lat="43.6967783" lon="12.7030783"><ele>190.33333333333334</ele><time>2026-04-25T12:08:05.937Z</time></trkpt><trkpt lat="43.6967783" lon="12.7031867"><ele>190.66666666666669</ele><time>2026-04-25T12:08:06.937Z</time></trkpt><trkpt lat="43.6967483" lon="12.703275"><ele>191.0</ele><time>2026-04-25T12:08:07.937Z</time></trkpt><trkpt lat="43.6966983" lon="12.7033483"><ele>191.33333333333334</ele><time>2026-04-25T12:08:08.936Z</time></trkpt><trkpt lat="43.6966417" lon="12.7034383"><ele>191.66666666666666</ele><time>2026-04-25T12:08:09.937Z</time></trkpt><trkpt lat="43.696585" lon="12.7035583"><ele>192.0</ele><time>2026-04-25T12:08:10.937Z</time></trkpt><trkpt lat="43.69652" lon="12.70369"><ele>192.75</ele><time>2026-04-25T12:08:11.937Z</time></trkpt><trkpt lat="43.696465" lon="12.7038467"><ele>193.5</ele><time>2026-04-25T12:08:12.937Z</time></trkpt><trkpt lat="43.6964183" lon="12.704015"><ele>194.25</ele><time>2026-04-25T12:08:13.936Z</time></trkpt><trkpt lat="43.69637" lon="12.7041883"><ele>195.0</ele><time>2026-04-25T12:08:14.937Z</time></trkpt><trkpt lat="43.696355" lon="12.70437"><ele>196.25</ele><time>2026-04-25T12:08:15.937Z</time></trkpt><trkpt lat="43.6963517" lon="12.7045483"><ele>197.5</ele><time>2026-04-25T12:08:16.937Z</time></trkpt><trkpt lat="43.6963467" lon="12.70472"><ele>198.75</ele><time>2026-04-25T12:08:17.936Z</time></trkpt><trkpt lat="43.6963583" lon="12.7048933"><ele>200.0</ele><time>2026-04-25T12:08:18.937Z</time></trkpt><trkpt lat="43.6963883" lon="12.705065"><ele>200.0</ele><time>2026-04-25T12:08:19.937Z</time></trkpt><trkpt lat="43.6964267" lon="12.7052333"><ele>200.0</ele><time>2026-04-25T12:08:20.937Z</time></trkpt><trkpt lat="43.696465" lon="12.7053967"><ele>200.0</ele><time>2026-04-25T12:08:21.937Z</time></trkpt><trkpt lat="43.696505" lon="12.7055583"><ele>200.0</ele><time>2026-04-25T12:08:22.936Z</time></trkpt><trkpt lat="43.6965417" lon="12.705715"><ele>199.8</ele><time>2026-04-25T12:08:23.937Z</time></trkpt><trkpt lat="43.6965717" lon="12.70587"><ele>199.6</ele><time>2026-04-25T12:08:24.937Z</time></trkpt><trkpt lat="43.6965833" lon="12.706025"><ele>199.39999999999998</ele><time>2026-04-25T12:08:25.937Z</time></trkpt><trkpt lat="43.6965667" lon="12.70617"><ele>199.2</ele><time>2026-04-25T12:08:26.937Z</time></trkpt><trkpt lat="43.6965233" lon="12.70631"><ele>199.0</ele><time>2026-04-25T12:08:27.937Z</time></trkpt><trkpt lat="43.6964483" lon="12.7064367"><ele>199.75</ele><time>2026-04-25T12:08:28.936Z</time></trkpt><trkpt lat="43.6963583" lon="12.706555"><ele>200.5</ele><time>2026-04-25T12:08:29.937Z</time></trkpt><trkpt lat="43.6962633" lon="12.7066633"><ele>201.25</ele><time>2026-04-25T12:08:30.936Z</time></trkpt><trkpt lat="43.69616" lon="12.706785"><ele>202.0</ele><time>2026-04-25T12:08:31.937Z</time></trkpt><trkpt lat="43.696055" lon="12.7069233"><ele>202.0</ele><time>2026-04-25T12:08:32.936Z</time></trkpt><trkpt lat="43.6959517" lon="12.7070683"><ele>202.0</ele><time>2026-04-25T12:08:33.937Z</time></trkpt><trkpt lat="43.6958517" lon="12.707215"><ele>202.0</ele><time>2026-04-25T12:08:34.936Z</time></trkpt><trkpt lat="43.69576" lon="12.7073533"><ele>202.0</ele><time>2026-04-25T12:08:35.937Z</time></trkpt><trkpt lat="43.6956783" lon="12.7074967"><ele>202.0</ele><time>2026-04-25T12:08:36.936Z</time></trkpt><trkpt lat="43.6956083" lon="12.7076417"><ele>202.0</ele><time>2026-04-25T12:08:37.936Z</time></trkpt><trkpt lat="43.6955633" lon="12.7078083"><ele>202.0</ele><time>2026-04-25T12:08:38.937Z</time></trkpt><trkpt lat="43.6955283" lon="12.7079767"><ele>202.0</ele><time>2026-04-25T12:08:39.937Z</time></trkpt><trkpt lat="43.69549" lon="12.708135"><ele>202.25</ele><time>2026-04-25T12:08:40.936Z</time></trkpt><trkpt lat="43.6954317" lon="12.7082783"><ele>202.5</ele><time>2026-04-25T12:08:41.937Z</time></trkpt><trkpt lat="43.695345" lon="12.7084033"><ele>202.75</ele><time>2026-04-25T12:08:42.937Z</time></trkpt><trkpt lat="43.6952367" lon="12.7084917"><ele>203.0</ele><time>2026-04-25T12:08:43.937Z</time></trkpt><trkpt lat="43.6951183" lon="12.70855"><ele>204.0</ele><time>2026-04-25T12:08:44.937Z</time></trkpt><trkpt lat="43.69501" lon="12.7086217"><ele>205.0</ele><time>2026-04-25T12:08:45.937Z</time></trkpt><trkpt lat="43.6949333" lon="12.7087267"><ele>206.0</ele><time>2026-04-25T12:08:46.937Z</time></trkpt><trkpt lat="43.69489" lon="12.7088633"><ele>207.0</ele><time>2026-04-25T12:08:47.937Z</time></trkpt><trkpt lat="43.6948717" lon="12.7090133"><ele>208.0</ele><time>2026-04-25T12:08:48.937Z</time></trkpt><trkpt lat="43.6948817" lon="12.709175"><ele>208.0</ele><time>2026-04-25T12:08:49.937Z</time></trkpt><trkpt lat="43.6948967" lon="12.7093383"><ele>208.0</ele><time>2026-04-25T12:08:50.937Z</time></trkpt><trkpt lat="43.6949017" lon="12.709495"><ele>208.0</ele><time>2026-04-25T12:08:51.937Z</time></trkpt><trkpt lat="43.6949067" lon="12.7096383"><ele>208.0</ele><time>2026-04-25T12:08:52.937Z</time></trkpt><trkpt lat="43.6949283" lon="12.70976"><ele>208.0</ele><time>2026-04-25T12:08:53.937Z</time></trkpt><trkpt lat="43.6949667" lon="12.7098417"><ele>209.4</ele><time>2026-04-25T12:08:54.937Z</time></trkpt><trkpt lat="43.6950833" lon="12.7098733"><ele>210.8</ele><time>2026-04-25T12:08:56.937Z</time></trkpt><trkpt lat="43.6951617" lon="12.7098767"><ele>212.2</ele><time>2026-04-25T12:08:57.937Z</time></trkpt><trkpt lat="43.6952433" lon="12.7098967"><ele>213.6</ele><time>2026-04-25T12:08:58.937Z</time></trkpt><trkpt lat="43.6953267" lon="12.709945"><ele>215.0</ele><time>2026-04-25T12:08:59.937Z</time></trkpt><trkpt lat="43.695415" lon="12.7100133"><ele>217.8</ele><time>2026-04-25T12:09:00.937Z</time></trkpt><trkpt lat="43.6955083" lon="12.71009"><ele>220.6</ele><time>2026-04-25T12:09:01.936Z</time></trkpt><trkpt lat="43.6956" lon="12.710165"><ele>223.39999999999998</ele><time>2026-04-25T12:09:02.937Z</time></trkpt><trkpt lat="43.6956817" lon="12.7102367"><ele>226.2</ele><time>2026-04-25T12:09:03.937Z</time></trkpt><trkpt lat="43.69575" lon="12.7103017"><ele>229.0</ele><time>2026-04-25T12:09:04.937Z</time></trkpt><trkpt lat="43.6958117" lon="12.7103617"><ele>229.49999999999997</ele><time>2026-04-25T12:09:05.937Z</time></trkpt><trkpt lat="43.6958683" lon="12.710415"><ele>230.0</ele><time>2026-04-25T12:09:06.937Z</time></trkpt><trkpt lat="43.6959233" lon="12.7104683"><ele>230.5</ele><time>2026-04-25T12:09:07.937Z</time></trkpt><trkpt lat="43.6959767" lon="12.71052"><ele>231.0</ele><time>2026-04-25T12:09:08.937Z</time></trkpt><trkpt lat="43.6960667" lon="12.7105983"><ele>231.49999999999997</ele><time>2026-04-25T12:09:10.937Z</time></trkpt><trkpt lat="43.6961567" lon="12.7106733"><ele>232.0</ele><time>2026-04-25T12:09:12.936Z</time></trkpt><trkpt lat="43.6962567" lon="12.71075"><ele>237.5</ele><time>2026-04-25T12:09:14.937Z</time></trkpt><trkpt lat="43.6963633" lon="12.71082"><ele>243.0</ele><time>2026-04-25T12:09:16.936Z</time></trkpt><trkpt lat="43.6964767" lon="12.7108867"><ele>248.5</ele><time>2026-04-25T12:09:18.937Z</time></trkpt><trkpt lat="43.6965617" lon="12.7109967"><ele>254.0</ele><time>2026-04-25T12:09:20.937Z</time></trkpt><trkpt lat="43.6965917" lon="12.711145"><ele>254.66666666666669</ele><time>2026-04-25T12:09:22.937Z</time></trkpt><trkpt lat="43.69659" lon="12.7113067"><ele>255.33333333333334</ele><time>2026-04-25T12:09:24.937Z</time></trkpt><trkpt lat="43.6965933" lon="12.7113983"><ele>256.0</ele><time>2026-04-25T12:09:25.937Z</time></trkpt><trkpt lat="43.6965967" lon="12.711495"><ele>256.6666666666667</ele><time>2026-04-25T12:09:26.937Z</time></trkpt><trkpt lat="43.6966" lon="12.7115933"><ele>257.3333333333333</ele><time>2026-04-25T12:09:27.936Z</time></trkpt><trkpt lat="43.6966067" lon="12.711695"><ele>258.0</ele><time>2026-04-25T12:09:28.937Z</time></trkpt><trkpt lat="43.6966117" lon="12.7117983"><ele>257.99999999999994</ele><time>2026-04-25T12:09:29.937Z</time></trkpt><trkpt lat="43.696615" lon="12.7119033"><ele>258.0</ele><time>2026-04-25T12:09:30.936Z</time></trkpt><trkpt lat="43.696615" lon="12.7120117"><ele>258.0</ele><time>2026-04-25T12:09:31.936Z</time></trkpt><trkpt lat="43.696615" lon="12.71212"><ele>258.0</ele><time>2026-04-25T12:09:32.936Z</time></trkpt><trkpt lat="43.696615" lon="12.7122267"><ele>258.0</ele><time>2026-04-25T12:09:33.937Z</time></trkpt><trkpt lat="43.69661" lon="12.7123217"><ele>257.99999999999994</ele><time>2026-04-25T12:09:34.937Z</time></trkpt><trkpt lat="43.696605" lon="12.7124117"><ele>258.0</ele><time>2026-04-25T12:09:35.936Z</time></trkpt><trkpt lat="43.696605" lon="12.712545"><ele>258.5</ele><time>2026-04-25T12:09:37.937Z</time></trkpt><trkpt lat="43.6965783" lon="12.712645"><ele>259.0</ele><time>2026-04-25T12:10:31.937Z</time></trkpt><trkpt lat="43.6966583" lon="12.7126"><ele>259.5</ele><time>2026-04-25T12:10:56.937Z</time></trkpt><trkpt lat="43.696745" lon="12.71256"><ele>260.0</ele><time>2026-04-25T12:10:58.937Z</time></trkpt><trkpt lat="43.696835" lon="12.7124667"><ele>260.5</ele><time>2026-04-25T12:11:00.937Z</time></trkpt><trkpt lat="43.69688" lon="12.71239"><ele>261.0</ele><time>2026-04-25T12:11:01.937Z</time></trkpt><trkpt lat="43.6969267" lon="12.712305"><ele>263.57142857142856</ele><time>2026-04-25T12:11:02.937Z</time></trkpt><trkpt lat="43.6969717" lon="12.7122233"><ele>266.1428571428571</ele><time>2026-04-25T12:11:03.936Z</time></trkpt><trkpt lat="43.697015" lon="12.712145"><ele>268.71428571428567</ele><time>2026-04-25T12:11:04.936Z</time></trkpt><trkpt lat="43.697055" lon="12.7120633"><ele>271.2857142857143</ele><time>2026-04-25T12:11:05.937Z</time></trkpt><trkpt lat="43.6970917" lon="12.7119767"><ele>273.85714285714283</ele><time>2026-04-25T12:11:06.937Z</time></trkpt><trkpt lat="43.6971283" lon="12.7118867"><ele>276.4285714285714</ele><time>2026-04-25T12:11:07.936Z</time></trkpt><trkpt lat="43.6971683" lon="12.71179"><ele>279.0</ele><time>2026-04-25T12:11:08.937Z</time></trkpt><trkpt lat="43.6972133" lon="12.7116917"><ele>279.0</ele><time>2026-04-25T12:11:09.937Z</time></trkpt><trkpt lat="43.6972683" lon="12.71159"><ele>279.0</ele><time>2026-04-25T12:11:10.936Z</time></trkpt><trkpt lat="43.69733" lon="12.71148"><ele>279.0</ele><time>2026-04-25T12:11:11.937Z</time></trkpt><trkpt lat="43.6973967" lon="12.7113683"><ele>279.0</ele><time>2026-04-25T12:11:12.937Z</time></trkpt><trkpt lat="43.697465" lon="12.7112567"><ele>279.0</ele><time>2026-04-25T12:11:13.937Z</time></trkpt><trkpt lat="43.6975433" lon="12.71114"><ele>278.0</ele><time>2026-04-25T12:11:14.937Z</time></trkpt><trkpt lat="43.69762" lon="12.7110033"><ele>277.0</ele><time>2026-04-25T12:11:15.937Z</time></trkpt><trkpt lat="43.6977033" lon="12.71086"><ele>276.0</ele><time>2026-04-25T12:11:16.936Z</time></trkpt><trkpt lat="43.697785" lon="12.7107033"><ele>275.0</ele><time>2026-04-25T12:11:17.937Z</time></trkpt><trkpt lat="43.697865" lon="12.7105433"><ele>278.5</ele><time>2026-04-25T12:11:18.937Z</time></trkpt><trkpt lat="43.6979533" lon="12.71039"><ele>282.0</ele><time>2026-04-25T12:11:19.937Z</time></trkpt><trkpt lat="43.698035" lon="12.71024"><ele>285.5</ele><time>2026-04-25T12:11:20.937Z</time></trkpt><trkpt lat="43.6981117" lon="12.7101083"><ele>289.0</ele><time>2026-04-25T12:11:21.937Z</time></trkpt><trkpt lat="43.69817" lon="12.7099917"><ele>289.42857142857144</ele><time>2026-04-25T12:11:22.936Z</time></trkpt><trkpt lat="43.69822" lon="12.7099017"><ele>289.85714285714283</ele><time>2026-04-25T12:11:23.937Z</time></trkpt><trkpt lat="43.6982783" lon="12.709845"><ele>290.2857142857143</ele><time>2026-04-25T12:11:24.936Z</time></trkpt><trkpt lat="43.6983367" lon="12.7098033"><ele>290.7142857142857</ele><time>2026-04-25T12:11:25.937Z</time></trkpt><trkpt lat="43.6984067" lon="12.7097917"><ele>291.14285714285717</ele><time>2026-04-25T12:11:26.937Z</time></trkpt><trkpt lat="43.6984767" lon="12.7098117"><ele>291.57142857142856</ele><time>2026-04-25T12:11:27.937Z</time></trkpt><trkpt lat="43.6985583" lon="12.7098467"><ele>292.0</ele><time>2026-04-25T12:11:28.937Z</time></trkpt><trkpt lat="43.69865" lon="12.70986"><ele>293.3333333333333</ele><time>2026-04-25T12:11:29.936Z</time></trkpt><trkpt lat="43.698745" lon="12.709855"><ele>294.66666666666663</ele><time>2026-04-25T12:11:30.937Z</time></trkpt><trkpt lat="43.6988383" lon="12.7098433"><ele>296.0</ele><time>2026-04-25T12:11:31.937Z</time></trkpt><trkpt lat="43.6989283" lon="12.7098383"><ele>297.3333333333333</ele><time>2026-04-25T12:11:32.937Z</time></trkpt><trkpt lat="43.69901" lon="12.7098483"><ele>298.6666666666667</ele><time>2026-04-25T12:11:33.936Z</time></trkpt><trkpt lat="43.6990817" lon="12.7098967"><ele>300.0</ele><time>2026-04-25T12:11:34.937Z</time></trkpt><trkpt lat="43.6991517" lon="12.7099817"><ele>300.0</ele><time>2026-04-25T12:11:35.936Z</time></trkpt><trkpt lat="43.6992083" lon="12.71009"><ele>300.0</ele><time>2026-04-25T12:11:36.937Z</time></trkpt><trkpt lat="43.6992583" lon="12.7102133"><ele>300.0</ele><time>2026-04-25T12:11:37.937Z</time></trkpt><trkpt lat="43.699305" lon="12.710345"><ele>300.0</ele><time>2026-04-25T12:11:38.937Z</time></trkpt><trkpt lat="43.6993467" lon="12.71048"><ele>300.0</ele><time>2026-04-25T12:11:39.937Z</time></trkpt><trkpt lat="43.699375" lon="12.7106167"><ele>302.4</ele><time>2026-04-25T12:11:40.937Z</time></trkpt><trkpt lat="43.6993817" lon="12.7107533"><ele>304.8</ele><time>2026-04-25T12:11:41.937Z</time></trkpt><trkpt lat="43.69936" lon="12.710885"><ele>307.2</ele><time>2026-04-25T12:11:42.936Z</time></trkpt><trkpt lat="43.6993167" lon="12.7110117"><ele>309.6</ele><time>2026-04-25T12:11:43.937Z</time></trkpt><trkpt lat="43.6992567" lon="12.7111367"><ele>312.0</ele><time>2026-04-25T12:11:44.937Z</time></trkpt><trkpt lat="43.699195" lon="12.7112683"><ele>315.75</ele><time>2026-04-25T12:11:45.936Z</time></trkpt><trkpt lat="43.6991317" lon="12.71141"><ele>319.5</ele><time>2026-04-25T12:11:46.937Z</time></trkpt><trkpt lat="43.69907" lon="12.7115483"><ele>323.25</ele><time>2026-04-25T12:11:47.936Z</time></trkpt><trkpt lat="43.6990083" lon="12.7116883"><ele>327.0</ele><time>2026-04-25T12:11:48.937Z</time></trkpt><trkpt lat="43.69894" lon="12.7118283"><ele>329.75</ele><time>2026-04-25T12:11:49.937Z</time></trkpt><trkpt lat="43.6988767" lon="12.7119783"><ele>332.5</ele><time>2026-04-25T12:11:50.937Z</time></trkpt><trkpt lat="43.6988183" lon="12.7121433"><ele>335.25</ele><time>2026-04-25T12:11:51.937Z</time></trkpt><trkpt lat="43.6987617" lon="12.712315"><ele>338.0</ele><time>2026-04-25T12:11:52.937Z</time></trkpt><trkpt lat="43.698705" lon="12.7124767"><ele>338.0</ele><time>2026-04-25T12:11:53.937Z</time></trkpt><trkpt lat="43.698655" lon="12.7126317"><ele>338.0</ele><time>2026-04-25T12:11:54.937Z</time></trkpt><trkpt lat="43.6986183" lon="12.7127867"><ele>338.0</ele><time>2026-04-25T12:11:55.937Z</time></trkpt><trkpt lat="43.6986133" lon="12.7129483"><ele>338.0</ele><time>2026-04-25T12:11:56.937Z</time></trkpt><trkpt lat="43.6986283" lon="12.7131133"><ele>339.5</ele><time>2026-04-25T12:11:57.937Z</time></trkpt><trkpt lat="43.6986667" lon="12.713275"><ele>341.0</ele><time>2026-04-25T12:11:58.937Z</time></trkpt><trkpt lat="43.6986883" lon="12.7134433"><ele>342.5</ele><time>2026-04-25T12:11:59.937Z</time></trkpt><trkpt lat="43.6987017" lon="12.7136233"><ele>344.0</ele><time>2026-04-25T12:12:00.936Z</time></trkpt><trkpt lat="43.6987233" lon="12.7138183"><ele>345.5</ele><time>2026-04-25T12:12:01.936Z</time></trkpt><trkpt lat="43.6987433" lon="12.7140217"><ele>347.0</ele><time>2026-04-25T12:12:02.937Z</time></trkpt><trkpt lat="43.6987667" lon="12.71422"><ele>348.5</ele><time>2026-04-25T12:12:03.937Z</time></trkpt><trkpt lat="43.6987867" lon="12.71441"><ele>350.0</ele><time>2026-04-25T12:12:04.937Z</time></trkpt><trkpt lat="43.69879" lon="12.714585"><ele>350.0</ele><time>2026-04-25T12:12:05.936Z</time></trkpt><trkpt lat="43.6988" lon="12.714735"><ele>350.0</ele><time>2026-04-25T12:12:06.937Z</time></trkpt><trkpt lat="43.6988233" lon="12.7148417"><ele>350.0</ele><time>2026-04-25T12:12:07.937Z</time></trkpt><trkpt lat="43.6988717" lon="12.71491"><ele>350.0</ele><time>2026-04-25T12:12:08.937Z</time></trkpt><trkpt lat="43.6989383" lon="12.714955"><ele>350.0</ele><time>2026-04-25T12:12:09.937Z</time></trkpt><trkpt lat="43.6990233" lon="12.7149867"><ele>350.0</ele><time>2026-04-25T12:12:10.937Z</time></trkpt><trkpt lat="43.6991217" lon="12.7150183"><ele>350.0</ele><time>2026-04-25T12:12:11.937Z</time></trkpt><trkpt lat="43.699225" lon="12.715055"><ele>350.0</ele><time>2026-04-25T12:12:12.936Z</time></trkpt><trkpt lat="43.69934" lon="12.7150967"><ele>350.0</ele><time>2026-04-25T12:12:13.936Z</time></trkpt><trkpt lat="43.6994733" lon="12.71515"><ele>350.0</ele><time>2026-04-25T12:12:14.936Z</time></trkpt><trkpt lat="43.6996217" lon="12.7152117"><ele>348.0</ele><time>2026-04-25T12:12:15.937Z</time></trkpt><trkpt lat="43.6997683" lon="12.7152833"><ele>346.0</ele><time>2026-04-25T12:12:16.937Z</time></trkpt><trkpt lat="43.6999067" lon="12.7153617"><ele>344.0</ele><time>2026-04-25T12:12:17.937Z</time></trkpt><trkpt lat="43.7000367" lon="12.7154433"><ele>342.0</ele><time>2026-04-25T12:12:18.937Z</time></trkpt><trkpt lat="43.7001583" lon="12.7155183"><ele>343.8</ele><time>2026-04-25T12:12:19.937Z</time></trkpt><trkpt lat="43.7002683" lon="12.7155833"><ele>345.6</ele><time>2026-04-25T12:12:20.937Z</time></trkpt><trkpt lat="43.70037" lon="12.7156283"><ele>347.40000000000003</ele><time>2026-04-25T12:12:21.937Z</time></trkpt><trkpt lat="43.700475" lon="12.7156467"><ele>349.20000000000005</ele><time>2026-04-25T12:12:22.936Z</time></trkpt><trkpt lat="43.7005883" lon="12.7156467"><ele>351.0</ele><time>2026-04-25T12:12:23.936Z</time></trkpt><trkpt lat="43.70071" lon="12.7156433"><ele>351.0</ele><time>2026-04-25T12:12:24.937Z</time></trkpt><trkpt lat="43.7008367" lon="12.715645"><ele>351.0</ele><time>2026-04-25T12:12:25.937Z</time></trkpt><trkpt lat="43.70097" lon="12.7156433"><ele>351.0</ele><time>2026-04-25T12:12:26.937Z</time></trkpt><trkpt lat="43.7011083" lon="12.7156317"><ele>351.0</ele><time>2026-04-25T12:12:27.937Z</time></trkpt><trkpt lat="43.7012533" lon="12.715605"><ele>350.75</ele><time>2026-04-25T12:12:28.936Z</time></trkpt><trkpt lat="43.7014017" lon="12.71556"><ele>350.5</ele><time>2026-04-25T12:12:29.937Z</time></trkpt><trkpt lat="43.701545" lon="12.71551"><ele>350.25</ele><time>2026-04-25T12:12:30.937Z</time></trkpt><trkpt lat="43.7016683" lon="12.7154567"><ele>350.0</ele><time>2026-04-25T12:12:31.937Z</time></trkpt><trkpt lat="43.7017733" lon="12.71541"><ele>350.0</ele><time>2026-04-25T12:12:32.937Z</time></trkpt><trkpt lat="43.7018783" lon="12.7153617"><ele>350.0</ele><time>2026-04-25T12:12:33.936Z</time></trkpt><trkpt lat="43.70199" lon="12.7153217"><ele>350.0</ele><time>2026-04-25T12:12:34.937Z</time></trkpt><trkpt lat="43.7021083" lon="12.71528"><ele>350.0</ele><time>2026-04-25T12:12:35.937Z</time></trkpt><trkpt lat="43.70223" lon="12.7152483"><ele>350.5</ele><time>2026-04-25T12:12:36.937Z</time></trkpt><trkpt lat="43.7023533" lon="12.7152333"><ele>351.0</ele><time>2026-04-25T12:12:37.937Z</time></trkpt><trkpt lat="43.702475" lon="12.7152333"><ele>351.5</ele><time>2026-04-25T12:12:38.936Z</time></trkpt><trkpt lat="43.7026017" lon="12.7152567"><ele>352.0</ele><time>2026-04-25T12:12:39.937Z</time></trkpt><trkpt lat="43.7027283" lon="12.7153033"><ele>348.75</ele><time>2026-04-25T12:12:40.937Z</time></trkpt><trkpt lat="43.7028517" lon="12.7153617"><ele>345.5</ele><time>2026-04-25T12:12:41.937Z</time></trkpt><trkpt lat="43.702975" lon="12.715415"><ele>342.25</ele><time>2026-04-25T12:12:42.937Z</time></trkpt><trkpt lat="43.7030983" lon="12.715455"><ele>339.0</ele><time>2026-04-25T12:12:43.937Z</time></trkpt><trkpt lat="43.7032183" lon="12.7154883"><ele>339.0</ele><time>2026-04-25T12:12:44.936Z</time></trkpt><trkpt lat="43.7033367" lon="12.7155267"><ele>339.0</ele><time>2026-04-25T12:12:45.937Z</time></trkpt><trkpt lat="43.7034533" lon="12.715565"><ele>339.0</ele><time>2026-04-25T12:12:46.937Z</time></trkpt><trkpt lat="43.7035633" lon="12.7155983"><ele>339.0</ele><time>2026-04-25T12:12:47.937Z</time></trkpt><trkpt lat="43.7036617" lon="12.7156167"><ele>337.1666666666667</ele><time>2026-04-25T12:12:48.937Z</time></trkpt><trkpt lat="43.7037533" lon="12.7156133"><ele>335.3333333333333</ele><time>2026-04-25T12:12:49.936Z</time></trkpt><trkpt lat="43.70384" lon="12.7155817"><ele>333.5</ele><time>2026-04-25T12:12:50.937Z</time></trkpt><trkpt lat="43.703915" lon="12.71552"><ele>331.66666666666663</ele><time>2026-04-25T12:12:51.937Z</time></trkpt><trkpt lat="43.7039833" lon="12.7154433"><ele>329.8333333333333</ele><time>2026-04-25T12:12:52.937Z</time></trkpt><trkpt lat="43.704045" lon="12.7153567"><ele>328.0</ele><time>2026-04-25T12:12:53.937Z</time></trkpt><trkpt lat="43.70411" lon="12.715275"><ele>329.0</ele><time>2026-04-25T12:12:54.936Z</time></trkpt><trkpt lat="43.704175" lon="12.7152183"><ele>330.0</ele><time>2026-04-25T12:12:55.937Z</time></trkpt><trkpt lat="43.7042383" lon="12.7151933"><ele>331.0</ele><time>2026-04-25T12:12:56.937Z</time></trkpt><trkpt lat="43.7043083" lon="12.7151883"><ele>332.0</ele><time>2026-04-25T12:12:57.937Z</time></trkpt><trkpt lat="43.7043933" lon="12.7151933"><ele>333.0</ele><time>2026-04-25T12:12:58.936Z</time></trkpt><trkpt lat="43.7044883" lon="12.7152117"><ele>334.0</ele><time>2026-04-25T12:12:59.937Z</time></trkpt><trkpt lat="43.7045933" lon="12.7152383"><ele>334.0</ele><time>2026-04-25T12:13:00.937Z</time></trkpt><trkpt lat="43.7047033" lon="12.7152483"><ele>334.0</ele><time>2026-04-25T12:13:01.937Z</time></trkpt><trkpt lat="43.7048133" lon="12.7152367"><ele>334.0</ele><time>2026-04-25T12:13:02.936Z</time></trkpt><trkpt lat="43.70492" lon="12.7152083"><ele>334.0</ele><time>2026-04-25T12:13:03.936Z</time></trkpt><trkpt lat="43.7050317" lon="12.7151817"><ele>334.0</ele><time>2026-04-25T12:13:04.937Z</time></trkpt><trkpt lat="43.7051433" lon="12.715165"><ele>337.4</ele><time>2026-04-25T12:13:05.937Z</time></trkpt><trkpt lat="43.705245" lon="12.7151617"><ele>340.79999999999995</ele><time>2026-04-25T12:13:06.937Z</time></trkpt><trkpt lat="43.70532" lon="12.7151633"><ele>344.20000000000005</ele><time>2026-04-25T12:13:07.937Z</time></trkpt><trkpt lat="43.705405" lon="12.7151167"><ele>347.6</ele><time>2026-04-25T12:13:09.937Z</time></trkpt><trkpt lat="43.7053583" lon="12.7150333"><ele>351.0</ele><time>2026-04-25T12:13:11.937Z</time></trkpt><trkpt lat="43.7052967" lon="12.7149083"><ele>355.6</ele><time>2026-04-25T12:13:13.937Z</time></trkpt><trkpt lat="43.7053267" lon="12.71475"><ele>360.20000000000005</ele><time>2026-04-25T12:13:15.936Z</time></trkpt><trkpt lat="43.705375" lon="12.71467"><ele>364.79999999999995</ele><time>2026-04-25T12:13:16.937Z</time></trkpt><trkpt lat="43.7054367" lon="12.7145883"><ele>369.4</ele><time>2026-04-25T12:13:17.937Z</time></trkpt><trkpt lat="43.7055" lon="12.7145017"><ele>374.0</ele><time>2026-04-25T12:13:18.937Z</time></trkpt><trkpt lat="43.7055633" lon="12.7144017"><ele>374.0</ele><time>2026-04-25T12:13:19.937Z</time></trkpt><trkpt lat="43.7056333" lon="12.714295"><ele>374.0</ele><time>2026-04-25T12:13:20.937Z</time></trkpt><trkpt lat="43.70571" lon="12.7141967"><ele>374.0</ele><time>2026-04-25T12:13:21.937Z</time></trkpt><trkpt lat="43.7058" lon="12.7141133"><ele>374.0</ele><time>2026-04-25T12:13:22.937Z</time></trkpt><trkpt lat="43.7059017" lon="12.714045"><ele>374.0</ele><time>2026-04-25T12:13:23.936Z</time></trkpt><trkpt lat="43.706015" lon="12.7139917"><ele>378.5</ele><time>2026-04-25T12:13:24.937Z</time></trkpt><trkpt lat="43.7061367" lon="12.713945"><ele>383.0</ele><time>2026-04-25T12:13:25.937Z</time></trkpt><trkpt lat="43.706265" lon="12.7139"><ele>387.5</ele><time>2026-04-25T12:13:26.936Z</time></trkpt><trkpt lat="43.7063917" lon="12.7138517"><ele>392.0</ele><time>2026-04-25T12:13:27.937Z</time></trkpt><trkpt lat="43.7065133" lon="12.7138033"><ele>391.99999999999994</ele><time>2026-04-25T12:13:28.937Z</time></trkpt><trkpt lat="43.7066217" lon="12.7137583"><ele>392.0</ele><time>2026-04-25T12:13:29.937Z</time></trkpt><trkpt lat="43.706705" lon="12.71373"><ele>392.0</ele><time>2026-04-25T12:13:30.937Z</time></trkpt><trkpt lat="43.70677" lon="12.713725"><ele>392.0</ele><time>2026-04-25T12:13:31.937Z</time></trkpt><trkpt lat="43.7068" lon="12.7138433"><ele>391.99999999999994</ele><time>2026-04-25T12:13:33.937Z</time></trkpt><trkpt lat="43.706775" lon="12.71394"><ele>392.0</ele><time>2026-04-25T12:13:34.937Z</time></trkpt><trkpt lat="43.70672" lon="12.7140483"><ele>392.0</ele><time>2026-04-25T12:13:35.937Z</time></trkpt><trkpt lat="43.7066483" lon="12.7141667"><ele>392.0</ele><time>2026-04-25T12:13:36.937Z</time></trkpt><trkpt lat="43.7065617" lon="12.7142833"><ele>392.0</ele><time>2026-04-25T12:13:37.936Z</time></trkpt><trkpt lat="43.7064733" lon="12.7144083"><ele>392.0</ele><time>2026-04-25T12:13:38.937Z</time></trkpt><trkpt lat="43.7063917" lon="12.714525"><ele>391.99999999999994</ele><time>2026-04-25T12:13:39.936Z</time></trkpt><trkpt lat="43.7063267" lon="12.7146333"><ele>392.0</ele><time>2026-04-25T12:13:40.937Z</time></trkpt><trkpt lat="43.7062867" lon="12.7147317"><ele>392.0</ele><time>2026-04-25T12:13:41.937Z</time></trkpt><trkpt lat="43.7062683" lon="12.7148183"><ele>392.0</ele><time>2026-04-25T12:13:42.938Z</time></trkpt><trkpt lat="43.7063333" lon="12.7149367"><ele>391.99999999999994</ele><time>2026-04-25T12:13:44.938Z</time></trkpt><trkpt lat="43.7064033" lon="12.71494"><ele>392.0</ele><time>2026-04-25T12:13:45.938Z</time></trkpt><trkpt lat="43.7064983" lon="12.7149083"><ele>392.0</ele><time>2026-04-25T12:13:46.937Z</time></trkpt><trkpt lat="43.70661" lon="12.714835"><ele>392.0</ele><time>2026-04-25T12:13:47.937Z</time></trkpt><trkpt lat="43.706735" lon="12.714795"><ele>392.0</ele><time>2026-04-25T12:13:48.938Z</time></trkpt><trkpt lat="43.7068683" lon="12.7148017"><ele>392.0</ele><time>2026-04-25T12:13:49.937Z</time></trkpt><trkpt lat="43.7070083" lon="12.7148167"><ele>394.75</ele><time>2026-04-25T12:13:50.938Z</time></trkpt><trkpt lat="43.7071483" lon="12.7148383"><ele>397.5</ele><time>2026-04-25T12:13:51.938Z</time></trkpt><trkpt lat="43.70729" lon="12.71485"><ele>400.25</ele><time>2026-04-25T12:13:52.937Z</time></trkpt><trkpt lat="43.7074317" lon="12.7148883"><ele>403.0</ele><time>2026-04-25T12:13:53.938Z</time></trkpt><trkpt lat="43.707575" lon="12.7149317"><ele>403.0</ele><time>2026-04-25T12:13:54.938Z</time></trkpt><trkpt lat="43.7077233" lon="12.71497"><ele>403.0</ele><time>2026-04-25T12:13:55.938Z</time></trkpt><trkpt lat="43.7078717" lon="12.7149917"><ele>403.0</ele><time>2026-04-25T12:13:56.938Z</time></trkpt><trkpt lat="43.7080233" lon="12.7149917"><ele>407.33333333333337</ele><time>2026-04-25T12:13:57.937Z</time></trkpt><trkpt lat="43.7081767" lon="12.7149733"><ele>411.66666666666663</ele><time>2026-04-25T12:13:58.937Z</time></trkpt><trkpt lat="43.7083317" lon="12.7149467"><ele>416.0</ele><time>2026-04-25T12:13:59.938Z</time></trkpt><trkpt lat="43.70848" lon="12.7149233"><ele>419.25</ele><time>2026-04-25T12:14:00.938Z</time></trkpt><trkpt lat="43.7086183" lon="12.71492"><ele>422.5</ele><time>2026-04-25T12:14:01.938Z</time></trkpt><trkpt lat="43.7087517" lon="12.7149467"><ele>425.75</ele><time>2026-04-25T12:14:02.938Z</time></trkpt><trkpt lat="43.7088817" lon="12.7149983"><ele>429.0</ele><time>2026-04-25T12:14:03.937Z</time></trkpt><trkpt lat="43.709015" lon="12.71506"><ele>429.0</ele><time>2026-04-25T12:14:04.937Z</time></trkpt><trkpt lat="43.7091517" lon="12.715115"><ele>429.0</ele><time>2026-04-25T12:14:05.937Z</time></trkpt><trkpt lat="43.7092917" lon="12.71516"><ele>429.0</ele><time>2026-04-25T12:14:06.938Z</time></trkpt><trkpt lat="43.7094333" lon="12.7151917"><ele>429.0</ele><time>2026-04-25T12:14:07.937Z</time></trkpt><trkpt lat="43.70957" lon="12.7152017"><ele>432.2</ele><time>2026-04-25T12:14:08.937Z</time></trkpt><trkpt lat="43.7096833" lon="12.7151933"><ele>435.4</ele><time>2026-04-25T12:14:09.938Z</time></trkpt><trkpt lat="43.7097683" lon="12.7151783"><ele>438.6</ele><time>2026-04-25T12:14:10.937Z</time></trkpt><trkpt lat="43.7098733" lon="12.71515"><ele>441.8</ele><time>2026-04-25T12:14:12.937Z</time></trkpt><trkpt lat="43.7099733" lon="12.7151717"><ele>445.0</ele><time>2026-04-25T12:14:23.938Z</time></trkpt><trkpt lat="43.7100933" lon="12.7151817"><ele>445.0</ele><time>2026-04-25T12:14:25.938Z</time></trkpt><trkpt lat="43.710175" lon="12.7151983"><ele>445.0</ele><time>2026-04-25T12:14:26.937Z</time></trkpt><trkpt lat="43.7102833" lon="12.7152483"><ele>445.0</ele><time>2026-04-25T12:14:27.938Z</time></trkpt><trkpt lat="43.710405" lon="12.715315"><ele>445.0</ele><time>2026-04-25T12:14:28.937Z</time></trkpt><trkpt lat="43.7105317" lon="12.7153817"><ele>446.5</ele><time>2026-04-25T12:14:29.938Z</time></trkpt><trkpt lat="43.7106583" lon="12.7154417"><ele>448.0</ele><time>2026-04-25T12:14:30.938Z</time></trkpt><trkpt lat="43.7107883" lon="12.7155"><ele>449.5</ele><time>2026-04-25T12:14:31.938Z</time></trkpt><trkpt lat="43.7109" lon="12.71555"><ele>451.0</ele><time>2026-04-25T12:14:32.938Z</time></trkpt><trkpt lat="43.71099" lon="12.7155933"><ele>451.00000000000006</ele><time>2026-04-25T12:14:33.938Z</time></trkpt><trkpt lat="43.7110667" lon="12.7156417"><ele>451.0</ele><time>2026-04-25T12:14:34.938Z</time></trkpt><trkpt lat="43.711135" lon="12.7156817"><ele>451.0</ele><time>2026-04-25T12:14:35.938Z</time></trkpt><trkpt lat="43.711205" lon="12.7157067"><ele>451.0</ele><time>2026-04-25T12:14:36.938Z</time></trkpt><trkpt lat="43.7112933" lon="12.7157283"><ele>451.00000000000006</ele><time>2026-04-25T12:14:37.938Z</time></trkpt><trkpt lat="43.71139" lon="12.7157483"><ele>451.0</ele><time>2026-04-25T12:14:38.938Z</time></trkpt><trkpt lat="43.711485" lon="12.7157717"><ele>455.0</ele><time>2026-04-25T12:14:39.937Z</time></trkpt><trkpt lat="43.7115783" lon="12.715805"><ele>459.0</ele><time>2026-04-25T12:14:40.937Z</time></trkpt><trkpt lat="43.71167" lon="12.7158517"><ele>463.0</ele><time>2026-04-25T12:14:41.937Z</time></trkpt><trkpt lat="43.7117483" lon="12.7158983"><ele>467.0</ele><time>2026-04-25T12:14:42.938Z</time></trkpt><trkpt lat="43.7118233" lon="12.7159467"><ele>471.0</ele><time>2026-04-25T12:14:43.938Z</time></trkpt><trkpt lat="43.711905" lon="12.716"><ele>472.6666666666667</ele><time>2026-04-25T12:14:44.938Z</time></trkpt><trkpt lat="43.711985" lon="12.7160567"><ele>474.33333333333337</ele><time>2026-04-25T12:14:45.937Z</time></trkpt><trkpt lat="43.7120583" lon="12.7161133"><ele>476.0</ele><time>2026-04-25T12:14:46.937Z</time></trkpt><trkpt lat="43.7121333" lon="12.7161633"><ele>477.6666666666667</ele><time>2026-04-25T12:14:47.938Z</time></trkpt><trkpt lat="43.7122017" lon="12.7162067"><ele>479.33333333333337</ele><time>2026-04-25T12:14:48.938Z</time></trkpt><trkpt lat="43.712265" lon="12.7162433"><ele>481.0</ele><time>2026-04-25T12:14:49.938Z</time></trkpt><trkpt lat="43.7123783" lon="12.7162967"><ele>480.99999999999994</ele><time>2026-04-25T12:14:51.938Z</time></trkpt><trkpt lat="43.7124467" lon="12.716325"><ele>481.0</ele><time>2026-04-25T12:14:52.938Z</time></trkpt><trkpt lat="43.7125117" lon="12.71635"><ele>480.99999999999994</ele><time>2026-04-25T12:14:53.938Z</time></trkpt><trkpt lat="43.7125767" lon="12.7163583"><ele>480.99999999999994</ele><time>2026-04-25T12:14:54.938Z</time></trkpt><trkpt lat="43.7126517" lon="12.7163733"><ele>481.0</ele><time>2026-04-25T12:14:55.938Z</time></trkpt><trkpt lat="43.7127317" lon="12.716405"><ele>480.99999999999994</ele><time>2026-04-25T12:14:56.938Z</time></trkpt><trkpt lat="43.7127983" lon="12.7164567"><ele>480.99999999999994</ele><time>2026-04-25T12:14:57.938Z</time></trkpt><trkpt lat="43.7128467" lon="12.7165183"><ele>481.00000000000006</ele><time>2026-04-25T12:14:58.938Z</time></trkpt><trkpt lat="43.7128633" lon="12.7166617"><ele>481.0</ele><time>2026-04-25T12:15:00.938Z</time></trkpt><trkpt lat="43.7128367" lon="12.7167417"><ele>481.0</ele><time>2026-04-25T12:15:01.938Z</time></trkpt><trkpt lat="43.7127913" lon="12.7168166"><ele>481.0</ele><time>2026-04-25T12:15:02.937Z</time></trkpt><trkpt lat="43.7127274" lon="12.7168877"><ele>481.00000000000006</ele><time>2026-04-25T12:15:03.937Z</time></trkpt><trkpt lat="43.7126544" lon="12.7169537"><ele>481.0</ele><time>2026-04-25T12:15:04.938Z</time></trkpt><trkpt lat="43.7125752" lon="12.7170149"><ele>483.0</ele><time>2026-04-25T12:15:05.938Z</time></trkpt><trkpt lat="43.7124961" lon="12.7170853"><ele>485.0</ele><time>2026-04-25T12:15:06.938Z</time></trkpt><trkpt lat="43.7124197" lon="12.7171594"><ele>487.0</ele><time>2026-04-25T12:15:07.938Z</time></trkpt><trkpt lat="43.7123586" lon="12.7172235"><ele>489.0</ele><time>2026-04-25T12:15:08.937Z</time></trkpt><trkpt lat="43.7123013" lon="12.7173623"><ele>491.0</ele><time>2026-04-25T12:15:10.938Z</time></trkpt><trkpt lat="43.7123329" lon="12.7174902"><ele>490.99999999999994</ele><time>2026-04-25T12:15:12.938Z</time></trkpt><trkpt lat="43.7124256" lon="12.7176095"><ele>491.0</ele><time>2026-04-25T12:15:14.938Z</time></trkpt><trkpt lat="43.7124843" lon="12.7176669"><ele>491.0</ele><time>2026-04-25T12:15:15.938Z</time></trkpt><trkpt lat="43.7125385" lon="12.7177278"><ele>491.0</ele><time>2026-04-25T12:15:16.937Z</time></trkpt><trkpt lat="43.7125835" lon="12.7177959"><ele>490.99999999999994</ele><time>2026-04-25T12:15:17.938Z</time></trkpt><trkpt lat="43.7126159" lon="12.71788"><ele>491.0</ele><time>2026-04-25T12:15:18.938Z</time></trkpt><trkpt lat="43.7126285" lon="12.7180299"><ele>493.8333333333333</ele><time>2026-04-25T12:15:20.938Z</time></trkpt><trkpt lat="43.712566" lon="12.7181031"><ele>496.66666666666663</ele><time>2026-04-25T12:15:22.938Z</time></trkpt><trkpt lat="43.7125052" lon="12.7181338"><ele>499.5</ele><time>2026-04-25T12:15:23.938Z</time></trkpt><trkpt lat="43.7124249" lon="12.7181636"><ele>502.33333333333337</ele><time>2026-04-25T12:15:24.938Z</time></trkpt><trkpt lat="43.7123291" lon="12.7181902"><ele>505.1666666666667</ele><time>2026-04-25T12:15:25.938Z</time></trkpt><trkpt lat="43.7122266" lon="12.7182133"><ele>508.0</ele><time>2026-04-25T12:15:26.938Z</time></trkpt><trkpt lat="43.7121247" lon="12.7182294"><ele>508.0</ele><time>2026-04-25T12:15:27.938Z</time></trkpt><trkpt lat="43.7120276" lon="12.7182235"><ele>507.99999999999994</ele><time>2026-04-25T12:15:28.938Z</time></trkpt><trkpt lat="43.7119303" lon="12.7182108"><ele>507.99999999999994</ele><time>2026-04-25T12:15:29.938Z</time></trkpt><trkpt lat="43.7118319" lon="12.7182097"><ele>508.0</ele><time>2026-04-25T12:15:30.938Z</time></trkpt><trkpt lat="43.7117344" lon="12.7182173"><ele>508.0</ele><time>2026-04-25T12:15:31.937Z</time></trkpt><trkpt lat="43.7116427" lon="12.7182355"><ele>509.0</ele><time>2026-04-25T12:15:32.938Z</time></trkpt><trkpt lat="43.711559" lon="12.7182616"><ele>509.99999999999994</ele><time>2026-04-25T12:15:33.937Z</time></trkpt><trkpt lat="43.7114861" lon="12.718281"><ele>510.99999999999994</ele><time>2026-04-25T12:15:34.938Z</time></trkpt><trkpt lat="43.7114" lon="12.7183217"><ele>512.0</ele><time>2026-04-25T12:15:36.938Z</time></trkpt><trkpt lat="43.7113233" lon="12.718425"><ele>513.0</ele><time>2026-04-25T12:15:41.938Z</time></trkpt><trkpt lat="43.711295" lon="12.7185833"><ele>513.0</ele><time>2026-04-25T12:15:43.937Z</time></trkpt><trkpt lat="43.7113167" lon="12.71868"><ele>513.0</ele><time>2026-04-25T12:15:44.938Z</time></trkpt><trkpt lat="43.7113583" lon="12.718775"><ele>513.0</ele><time>2026-04-25T12:15:45.938Z</time></trkpt><trkpt lat="43.7114067" lon="12.718875"><ele>513.0</ele><time>2026-04-25T12:15:46.938Z</time></trkpt><trkpt lat="43.7114483" lon="12.7189967"><ele>513.0</ele><time>2026-04-25T12:15:47.938Z</time></trkpt><trkpt lat="43.71148" lon="12.71913"><ele>513.0</ele><time>2026-04-25T12:15:48.937Z</time></trkpt><trkpt lat="43.7115033" lon="12.7192767"><ele>513.8</ele><time>2026-04-25T12:15:49.938Z</time></trkpt><trkpt lat="43.7115217" lon="12.719435"><ele>514.5999999999999</ele><time>2026-04-25T12:15:50.938Z</time></trkpt><trkpt lat="43.7115383" lon="12.7195917"><ele>515.4000000000001</ele><time>2026-04-25T12:15:51.938Z</time></trkpt><trkpt lat="43.711555" lon="12.7197433"><ele>516.2</ele><time>2026-04-25T12:15:52.938Z</time></trkpt><trkpt lat="43.7115683" lon="12.719885"><ele>517.0</ele><time>2026-04-25T12:15:53.938Z</time></trkpt><trkpt lat="43.711585" lon="12.72001"><ele>517.0</ele><time>2026-04-25T12:15:54.938Z</time></trkpt><trkpt lat="43.711615" lon="12.7201267"><ele>517.0</ele><time>2026-04-25T12:15:55.938Z</time></trkpt><trkpt lat="43.711655" lon="12.7202517"><ele>517.0</ele><time>2026-04-25T12:15:56.938Z</time></trkpt><trkpt lat="43.7117" lon="12.7203783"><ele>517.0</ele><time>2026-04-25T12:15:57.937Z</time></trkpt><trkpt lat="43.7117467" lon="12.72049"><ele>517.0</ele><time>2026-04-25T12:15:58.938Z</time></trkpt><trkpt lat="43.7118033" lon="12.720595"><ele>515.3333333333334</ele><time>2026-04-25T12:15:59.938Z</time></trkpt><trkpt lat="43.7118633" lon="12.7206983"><ele>513.6666666666667</ele><time>2026-04-25T12:16:00.938Z</time></trkpt><trkpt lat="43.7119283" lon="12.720805"><ele>512.0</ele><time>2026-04-25T12:16:01.938Z</time></trkpt><trkpt lat="43.7119883" lon="12.720895"><ele>510.33333333333337</ele><time>2026-04-25T12:16:02.938Z</time></trkpt><trkpt lat="43.71205" lon="12.72096"><ele>508.6666666666667</ele><time>2026-04-25T12:16:03.938Z</time></trkpt><trkpt lat="43.7121283" lon="12.721005"><ele>507.0</ele><time>2026-04-25T12:16:04.937Z</time></trkpt><trkpt lat="43.7122083" lon="12.72105"><ele>510.8333333333333</ele><time>2026-04-25T12:16:05.938Z</time></trkpt><trkpt lat="43.7122867" lon="12.7211083"><ele>514.6666666666666</ele><time>2026-04-25T12:16:06.938Z</time></trkpt><trkpt lat="43.7123617" lon="12.721185"><ele>518.5</ele><time>2026-04-25T12:16:07.938Z</time></trkpt><trkpt lat="43.71242" lon="12.72128"><ele>522.3333333333333</ele><time>2026-04-25T12:16:08.937Z</time></trkpt><trkpt lat="43.7124533" lon="12.7213833"><ele>526.1666666666666</ele><time>2026-04-25T12:16:09.937Z</time></trkpt><trkpt lat="43.7124567" lon="12.7214867"><ele>530.0</ele><time>2026-04-25T12:16:10.937Z</time></trkpt><trkpt lat="43.712445" lon="12.7215917"><ele>530.0</ele><time>2026-04-25T12:16:11.938Z</time></trkpt><trkpt lat="43.71244" lon="12.7217033"><ele>530.0</ele><time>2026-04-25T12:16:12.938Z</time></trkpt><trkpt lat="43.7124567" lon="12.7218233"><ele>530.0</ele><time>2026-04-25T12:16:13.938Z</time></trkpt><trkpt lat="43.7124917" lon="12.721955"><ele>530.0</ele><time>2026-04-25T12:16:14.938Z</time></trkpt><trkpt lat="43.7125367" lon="12.722095"><ele>530.0</ele><time>2026-04-25T12:16:15.937Z</time></trkpt><trkpt lat="43.7125733" lon="12.7222367"><ele>529.0</ele><time>2026-04-25T12:16:16.938Z</time></trkpt><trkpt lat="43.7125883" lon="12.7223817"><ele>528.0</ele><time>2026-04-25T12:16:17.938Z</time></trkpt><trkpt lat="43.712595" lon="12.7225217"><ele>527.0</ele><time>2026-04-25T12:16:18.938Z</time></trkpt><trkpt lat="43.7126067" lon="12.7226567"><ele>526.0</ele><time>2026-04-25T12:16:19.938Z</time></trkpt><trkpt lat="43.7126381" lon="12.7227827"><ele>525.0</ele><time>2026-04-25T12:16:20.938Z</time></trkpt><trkpt lat="43.7126876" lon="12.7229014"><ele>529.6</ele><time>2026-04-25T12:16:21.938Z</time></trkpt><trkpt lat="43.712753" lon="12.723018"><ele>534.2</ele><time>2026-04-25T12:16:22.938Z</time></trkpt><trkpt lat="43.7128276" lon="12.7231341"><ele>538.8</ele><time>2026-04-25T12:16:23.938Z</time></trkpt><trkpt lat="43.7129078" lon="12.723233"><ele>543.4</ele><time>2026-04-25T12:16:24.938Z</time></trkpt><trkpt lat="43.7129975" lon="12.723313"><ele>548.0</ele><time>2026-04-25T12:16:25.938Z</time></trkpt><trkpt lat="43.7130818" lon="12.7233863"><ele>548.0</ele><time>2026-04-25T12:16:26.938Z</time></trkpt><trkpt lat="43.7131367" lon="12.7234626"><ele>548.0</ele><time>2026-04-25T12:16:27.937Z</time></trkpt><trkpt lat="43.7131604" lon="12.723554"><ele>548.0</ele><time>2026-04-25T12:16:28.937Z</time></trkpt><trkpt lat="43.7131646" lon="12.7236658"><ele>548.0</ele><time>2026-04-25T12:16:29.938Z</time></trkpt><trkpt lat="43.7131601" lon="12.7237841"><ele>548.0</ele><time>2026-04-25T12:16:30.937Z</time></trkpt><trkpt lat="43.7131592" lon="12.7239009"><ele>548.0</ele><time>2026-04-25T12:16:31.938Z</time></trkpt><trkpt lat="43.7131791" lon="12.7240189"><ele>548.6</ele><time>2026-04-25T12:16:32.938Z</time></trkpt><trkpt lat="43.7132269" lon="12.7241451"><ele>549.1999999999999</ele><time>2026-04-25T12:16:33.938Z</time></trkpt><trkpt lat="43.7132921" lon="12.7242753"><ele>549.8</ele><time>2026-04-25T12:16:34.938Z</time></trkpt><trkpt lat="43.7133512" lon="12.7243903"><ele>550.4</ele><time>2026-04-25T12:16:35.937Z</time></trkpt><trkpt lat="43.7133921" lon="12.7244826"><ele>551.0</ele><time>2026-04-25T12:16:36.938Z</time></trkpt><trkpt lat="43.7133793" lon="12.7246048"><ele>551.0</ele><time>2026-04-25T12:16:38.938Z</time></trkpt><trkpt lat="43.7132439" lon="12.7245928"><ele>551.0</ele><time>2026-04-25T12:16:40.937Z</time></trkpt><trkpt lat="43.7131625" lon="12.7245555"><ele>551.0</ele><time>2026-04-25T12:16:41.938Z</time></trkpt><trkpt lat="43.7130638" lon="12.7244936"><ele>551.0</ele><time>2026-04-25T12:16:42.938Z</time></trkpt><trkpt lat="43.7129517" lon="12.724421"><ele>549.0</ele><time>2026-04-25T12:16:43.938Z</time></trkpt><trkpt lat="43.7128331" lon="12.724349"><ele>547.0</ele><time>2026-04-25T12:16:44.938Z</time></trkpt><trkpt lat="43.7127117" lon="12.7242894"><ele>545.0</ele><time>2026-04-25T12:16:45.938Z</time></trkpt><trkpt lat="43.7126044" lon="12.7242381"><ele>543.0</ele><time>2026-04-25T12:16:46.938Z</time></trkpt><trkpt lat="43.7125091" lon="12.7241851"><ele>541.25</ele><time>2026-04-25T12:16:47.938Z</time></trkpt><trkpt lat="43.7124065" lon="12.7241199"><ele>539.5</ele><time>2026-04-25T12:16:48.938Z</time></trkpt><trkpt lat="43.7122915" lon="12.7240497"><ele>537.75</ele><time>2026-04-25T12:16:49.938Z</time></trkpt><trkpt lat="43.7121727" lon="12.7239917"><ele>536.0</ele><time>2026-04-25T12:16:50.938Z</time></trkpt><trkpt lat="43.7120632" lon="12.7239456"><ele>536.0</ele><time>2026-04-25T12:16:51.938Z</time></trkpt><trkpt lat="43.7119815" lon="12.7239189"><ele>536.0</ele><time>2026-04-25T12:16:52.938Z</time></trkpt><trkpt lat="43.711945" lon="12.7240083"><ele>536.0</ele><time>2026-04-25T12:16:56.938Z</time></trkpt><trkpt lat="43.7120233" lon="12.7241617"><ele>536.0</ele><time>2026-04-25T12:16:58.938Z</time></trkpt><trkpt lat="43.7120817" lon="12.7242733"><ele>536.0</ele><time>2026-04-25T12:16:59.938Z</time></trkpt><trkpt lat="43.7121483" lon="12.724395"><ele>538.0</ele><time>2026-04-25T12:17:00.937Z</time></trkpt><trkpt lat="43.7122233" lon="12.7245233"><ele>540.0</ele><time>2026-04-25T12:17:01.937Z</time></trkpt><trkpt lat="43.7123033" lon="12.72466"><ele>542.0</ele><time>2026-04-25T12:17:02.938Z</time></trkpt><trkpt lat="43.7123833" lon="12.7248117"><ele>544.0</ele><time>2026-04-25T12:17:03.938Z</time></trkpt><trkpt lat="43.7124567" lon="12.7249667"><ele>544.0</ele><time>2026-04-25T12:17:04.938Z</time></trkpt><trkpt lat="43.7125267" lon="12.72512"><ele>544.0</ele><time>2026-04-25T12:17:05.938Z</time></trkpt><trkpt lat="43.7125933" lon="12.7252733"><ele>544.0</ele><time>2026-04-25T12:17:06.938Z</time></trkpt><trkpt lat="43.7126667" lon="12.72542"><ele>544.0</ele><time>2026-04-25T12:17:07.938Z</time></trkpt><trkpt lat="43.712735" lon="12.72555"><ele>544.3333333333334</ele><time>2026-04-25T12:17:08.938Z</time></trkpt><trkpt lat="43.7127833" lon="12.7256683"><ele>544.6666666666667</ele><time>2026-04-25T12:17:09.938Z</time></trkpt><trkpt lat="43.7128083" lon="12.7257767"><ele>545.0</ele><time>2026-04-25T12:17:10.938Z</time></trkpt><trkpt lat="43.7128083" lon="12.7258817"><ele>545.3333333333334</ele><time>2026-04-25T12:17:11.938Z</time></trkpt><trkpt lat="43.7127817" lon="12.7259733"><ele>545.6666666666666</ele><time>2026-04-25T12:17:12.938Z</time></trkpt><trkpt lat="43.712735" lon="12.726035"><ele>546.0</ele><time>2026-04-25T12:17:13.938Z</time></trkpt><trkpt lat="43.7126683" lon="12.7260783"><ele>550.25</ele><time>2026-04-25T12:17:14.938Z</time></trkpt><trkpt lat="43.7125783" lon="12.72612"><ele>554.5</ele><time>2026-04-25T12:17:15.937Z</time></trkpt><trkpt lat="43.712475" lon="12.7261567"><ele>558.75</ele><time>2026-04-25T12:17:16.936Z</time></trkpt><trkpt lat="43.7123533" lon="12.7261933"><ele>563.0</ele><time>2026-04-25T12:17:17.936Z</time></trkpt><trkpt lat="43.7122283" lon="12.7262267"><ele>563.0</ele><time>2026-04-25T12:17:18.937Z</time></trkpt><trkpt lat="43.71211" lon="12.7262517"><ele>563.0</ele><time>2026-04-25T12:17:19.936Z</time></trkpt><trkpt lat="43.7119933" lon="12.7262767"><ele>563.0</ele><time>2026-04-25T12:17:20.937Z</time></trkpt><trkpt lat="43.7118767" lon="12.7263"><ele>563.0</ele><time>2026-04-25T12:17:21.937Z</time></trkpt><trkpt lat="43.7117667" lon="12.7263233"><ele>562.1999999999999</ele><time>2026-04-25T12:17:22.936Z</time></trkpt><trkpt lat="43.7116667" lon="12.726355"><ele>561.4</ele><time>2026-04-25T12:17:23.936Z</time></trkpt><trkpt lat="43.7115667" lon="12.7263933"><ele>560.5999999999999</ele><time>2026-04-25T12:17:24.937Z</time></trkpt><trkpt lat="43.71146" lon="12.7264333"><ele>559.8</ele><time>2026-04-25T12:17:25.936Z</time></trkpt><trkpt lat="43.7113617" lon="12.726465"><ele>559.0</ele><time>2026-04-25T12:17:26.937Z</time></trkpt><trkpt lat="43.7112855" lon="12.7265068"><ele>559.0</ele><time>2026-04-25T12:17:27.937Z</time></trkpt><trkpt lat="43.7112295" lon="12.7265692"><ele>559.0</ele><time>2026-04-25T12:17:28.936Z</time></trkpt><trkpt lat="43.7112117" lon="12.7267225"><ele>559.0</ele><time>2026-04-25T12:17:30.937Z</time></trkpt><trkpt lat="43.7112515" lon="12.7268066"><ele>559.0</ele><time>2026-04-25T12:17:31.937Z</time></trkpt><trkpt lat="43.7113207" lon="12.726888"><ele>559.0</ele><time>2026-04-25T12:17:32.937Z</time></trkpt><trkpt lat="43.7114105" lon="12.72697"><ele>558.75</ele><time>2026-04-25T12:17:33.937Z</time></trkpt><trkpt lat="43.7115189" lon="12.7270533"><ele>558.5</ele><time>2026-04-25T12:17:34.937Z</time></trkpt><trkpt lat="43.7116322" lon="12.7271327"><ele>558.25</ele><time>2026-04-25T12:17:35.937Z</time></trkpt><trkpt lat="43.7117401" lon="12.7272128"><ele>558.0</ele><time>2026-04-25T12:17:36.937Z</time></trkpt><trkpt lat="43.7118384" lon="12.7273098"><ele>562.0</ele><time>2026-04-25T12:17:37.937Z</time></trkpt><trkpt lat="43.7119319" lon="12.727418"><ele>566.0</ele><time>2026-04-25T12:17:38.937Z</time></trkpt><trkpt lat="43.7120283" lon="12.7275131"><ele>570.0</ele><time>2026-04-25T12:17:39.937Z</time></trkpt><trkpt lat="43.7121196" lon="12.727607"><ele>574.0</ele><time>2026-04-25T12:17:40.936Z</time></trkpt><trkpt lat="43.7122132" lon="12.7277138"><ele>570.75</ele><time>2026-04-25T12:17:41.936Z</time></trkpt><trkpt lat="43.712315" lon="12.7278204"><ele>567.5</ele><time>2026-04-25T12:17:42.937Z</time></trkpt><trkpt lat="43.7124264" lon="12.7279212"><ele>564.25</ele><time>2026-04-25T12:17:43.936Z</time></trkpt><trkpt lat="43.7125457" lon="12.7280139"><ele>561.0</ele><time>2026-04-25T12:17:44.937Z</time></trkpt><trkpt lat="43.7126707" lon="12.728097"><ele>564.5</ele><time>2026-04-25T12:17:45.937Z</time></trkpt><trkpt lat="43.7127993" lon="12.728175"><ele>568.0</ele><time>2026-04-25T12:17:46.937Z</time></trkpt><trkpt lat="43.7129328" lon="12.7282525"><ele>571.5</ele><time>2026-04-25T12:17:47.937Z</time></trkpt><trkpt lat="43.7130681" lon="12.7283431"><ele>575.0</ele><time>2026-04-25T12:17:48.937Z</time></trkpt><trkpt lat="43.7131937" lon="12.7284362"><ele>575.0</ele><time>2026-04-25T12:17:49.937Z</time></trkpt><trkpt lat="43.7133138" lon="12.7285384"><ele>575.0</ele><time>2026-04-25T12:17:50.937Z</time></trkpt><trkpt lat="43.7134434" lon="12.7286459"><ele>575.0</ele><time>2026-04-25T12:17:51.937Z</time></trkpt><trkpt lat="43.7135833" lon="12.7287503"><ele>575.0</ele><time>2026-04-25T12:17:52.936Z</time></trkpt><trkpt lat="43.7137253" lon="12.7288541"><ele>575.0</ele><time>2026-04-25T12:17:53.937Z</time></trkpt><trkpt lat="43.7138588" lon="12.7289458"><ele>575.0</ele><time>2026-04-25T12:17:54.936Z</time></trkpt><trkpt lat="43.7139799" lon="12.7290263"><ele>575.0</ele><time>2026-04-25T12:17:55.937Z</time></trkpt><trkpt lat="43.7140898" lon="12.7291001"><ele>575.0</ele><time>2026-04-25T12:17:56.936Z</time></trkpt><trkpt lat="43.7141924" lon="12.7291724"><ele>575.0</ele><time>2026-04-25T12:17:57.937Z</time></trkpt><trkpt lat="43.7142835" lon="12.7292486"><ele>575.0</ele><time>2026-04-25T12:17:58.937Z</time></trkpt><trkpt lat="43.7143646" lon="12.7293301"><ele>575.0</ele><time>2026-04-25T12:17:59.936Z</time></trkpt><trkpt lat="43.7144317" lon="12.729405"><ele>575.0</ele><time>2026-04-25T12:18:00.937Z</time></trkpt><trkpt lat="43.7144867" lon="12.7294633"><ele>573.6666666666666</ele><time>2026-04-25T12:18:01.937Z</time></trkpt><trkpt lat="43.71453" lon="12.7295567"><ele>572.3333333333333</ele><time>2026-04-25T12:18:03.936Z</time></trkpt><trkpt lat="43.7144317" lon="12.72959"><ele>571.0</ele><time>2026-04-25T12:18:06.936Z</time></trkpt><trkpt lat="43.714355" lon="12.7296033"><ele>569.6666666666666</ele><time>2026-04-25T12:18:08.937Z</time></trkpt><trkpt lat="43.7144433" lon="12.7295567"><ele>568.3333333333334</ele><time>2026-04-25T12:21:12.937Z</time></trkpt><trkpt lat="43.7145133" lon="12.729535"><ele>567.0</ele><time>2026-04-25T12:21:14.937Z</time></trkpt><trkpt lat="43.7145567" lon="12.7296117"><ele>567.0</ele><time>2026-04-25T12:21:21.937Z</time></trkpt><trkpt lat="43.714545" lon="12.7297117"><ele>567.0</ele><time>2026-04-25T12:21:28.937Z</time></trkpt><trkpt lat="43.7144867" lon="12.7297483"><ele>567.0</ele><time>2026-04-25T12:21:30.937Z</time></trkpt><trkpt lat="43.7144167" lon="12.7298117"><ele>567.0</ele><time>2026-04-25T12:21:32.936Z</time></trkpt><trkpt lat="43.7143517" lon="12.7298533"><ele>567.0</ele><time>2026-04-25T12:21:34.937Z</time></trkpt><trkpt lat="43.7143017" lon="12.7299067"><ele>567.0</ele><time>2026-04-25T12:21:36.937Z</time></trkpt><trkpt lat="43.714275" lon="12.73004"><ele>567.0</ele><time>2026-04-25T12:21:39.937Z</time></trkpt><trkpt lat="43.7142467" lon="12.7301417"><ele>567.0</ele><time>2026-04-25T12:21:41.937Z</time></trkpt><trkpt lat="43.71418" lon="12.7302083"><ele>567.0</ele><time>2026-04-25T12:21:43.937Z</time></trkpt><trkpt lat="43.7141033" lon="12.7302033"><ele>567.0</ele><time>2026-04-25T12:21:45.936Z</time></trkpt><trkpt lat="43.7140333" lon="12.73017"><ele>567.0</ele><time>2026-04-25T12:21:48.937Z</time></trkpt><trkpt lat="43.713965" lon="12.7302383"><ele>567.0</ele><time>2026-04-25T12:21:51.937Z</time></trkpt><trkpt lat="43.71391" lon="12.730305"><ele>566.5714285714286</ele><time>2026-04-25T12:21:54.937Z</time></trkpt><trkpt lat="43.713855" lon="12.7304083"><ele>566.1428571428571</ele><time>2026-04-25T12:22:06.937Z</time></trkpt><trkpt lat="43.713825" lon="12.730485"><ele>565.7142857142858</ele><time>2026-04-25T12:22:07.937Z</time></trkpt><trkpt lat="43.7138" lon="12.7305733"><ele>565.2857142857142</ele><time>2026-04-25T12:22:08.937Z</time></trkpt><trkpt lat="43.71377" lon="12.7306533"><ele>564.8571428571429</ele><time>2026-04-25T12:22:09.937Z</time></trkpt><trkpt lat="43.7137533" lon="12.7307417"><ele>564.4285714285714</ele><time>2026-04-25T12:22:10.937Z</time></trkpt><trkpt lat="43.713745" lon="12.7308283"><ele>564.0</ele><time>2026-04-25T12:22:11.937Z</time></trkpt><trkpt lat="43.7137367" lon="12.7309183"><ele>564.0</ele><time>2026-04-25T12:22:12.937Z</time></trkpt><trkpt lat="43.713725" lon="12.7310183"><ele>564.0</ele><time>2026-04-25T12:22:13.937Z</time></trkpt><trkpt lat="43.7137133" lon="12.7311233"><ele>564.0</ele><time>2026-04-25T12:22:14.937Z</time></trkpt><trkpt lat="43.7137067" lon="12.731235"><ele>564.0</ele><time>2026-04-25T12:22:15.937Z</time></trkpt><trkpt lat="43.713695" lon="12.7313567"><ele>564.0</ele><time>2026-04-25T12:22:16.937Z</time></trkpt><trkpt lat="43.7136817" lon="12.7314917"><ele>564.0</ele><time>2026-04-25T12:22:17.936Z</time></trkpt><trkpt lat="43.7136683" lon="12.7316383"><ele>564.75</ele><time>2026-04-25T12:22:18.936Z</time></trkpt><trkpt lat="43.713655" lon="12.7317933"><ele>565.5</ele><time>2026-04-25T12:22:19.937Z</time></trkpt><trkpt lat="43.713645" lon="12.73195"><ele>566.25</ele><time>2026-04-25T12:22:20.937Z</time></trkpt><trkpt lat="43.7136517" lon="12.7321067"><ele>567.0</ele><time>2026-04-25T12:22:21.937Z</time></trkpt><trkpt lat="43.7136667" lon="12.7322617"><ele>567.0</ele><time>2026-04-25T12:22:22.937Z</time></trkpt><trkpt lat="43.7136983" lon="12.732415"><ele>567.0</ele><time>2026-04-25T12:22:23.937Z</time></trkpt><trkpt lat="43.7137367" lon="12.7325717"><ele>567.0</ele><time>2026-04-25T12:22:24.936Z</time></trkpt><trkpt lat="43.713775" lon="12.73274"><ele>567.0</ele><time>2026-04-25T12:22:25.937Z</time></trkpt><trkpt lat="43.713815" lon="12.7329117"><ele>567.5</ele><time>2026-04-25T12:22:26.937Z</time></trkpt><trkpt lat="43.7138467" lon="12.733085"><ele>568.0</ele><time>2026-04-25T12:22:27.936Z</time></trkpt><trkpt lat="43.7138783" lon="12.7332567"><ele>568.5</ele><time>2026-04-25T12:22:28.937Z</time></trkpt><trkpt lat="43.713915" lon="12.73343"><ele>569.0</ele><time>2026-04-25T12:22:29.937Z</time></trkpt><trkpt lat="43.7139583" lon="12.7336033"><ele>571.5</ele><time>2026-04-25T12:22:30.937Z</time></trkpt><trkpt lat="43.7140083" lon="12.7337767"><ele>574.0</ele><time>2026-04-25T12:22:31.937Z</time></trkpt><trkpt lat="43.7140733" lon="12.73395"><ele>576.5</ele><time>2026-04-25T12:22:32.937Z</time></trkpt><trkpt lat="43.7141383" lon="12.7341267"><ele>579.0</ele><time>2026-04-25T12:22:33.936Z</time></trkpt><trkpt lat="43.7142167" lon="12.7343"><ele>581.6666666666666</ele><time>2026-04-25T12:22:34.937Z</time></trkpt><trkpt lat="43.7142983" lon="12.7344783"><ele>584.3333333333333</ele><time>2026-04-25T12:22:35.937Z</time></trkpt><trkpt lat="43.7143733" lon="12.7346617"><ele>587.0</ele><time>2026-04-25T12:22:36.936Z</time></trkpt><trkpt lat="43.7144533" lon="12.734835"><ele>584.25</ele><time>2026-04-25T12:22:37.936Z</time></trkpt><trkpt lat="43.7145283" lon="12.7350133"><ele>581.5</ele><time>2026-04-25T12:22:38.937Z</time></trkpt><trkpt lat="43.7146033" lon="12.7351933"><ele>578.75</ele><time>2026-04-25T12:22:39.937Z</time></trkpt><trkpt lat="43.7146767" lon="12.7353617"><ele>576.0</ele><time>2026-04-25T12:22:40.937Z</time></trkpt><trkpt lat="43.7147467" lon="12.7355183"><ele>576.0</ele><time>2026-04-25T12:22:41.937Z</time></trkpt><trkpt lat="43.7148067" lon="12.7356667"><ele>576.0</ele><time>2026-04-25T12:22:42.937Z</time></trkpt><trkpt lat="43.71486" lon="12.7358117"><ele>576.0</ele><time>2026-04-25T12:22:43.937Z</time></trkpt><trkpt lat="43.7148967" lon="12.7359467"><ele>576.0</ele><time>2026-04-25T12:22:44.937Z</time></trkpt><trkpt lat="43.7149167" lon="12.73607"><ele>576.0</ele><time>2026-04-25T12:22:45.937Z</time></trkpt><trkpt lat="43.7149233" lon="12.73618"><ele>574.2</ele><time>2026-04-25T12:22:46.937Z</time></trkpt><trkpt lat="43.7149517" lon="12.7362767"><ele>572.4000000000001</ele><time>2026-04-25T12:22:47.937Z</time></trkpt><trkpt lat="43.7149883" lon="12.7363733"><ele>570.6</ele><time>2026-04-25T12:22:48.937Z</time></trkpt><trkpt lat="43.7150317" lon="12.736475"><ele>568.8000000000001</ele><time>2026-04-25T12:22:49.937Z</time></trkpt><trkpt lat="43.715105" lon="12.7365683"><ele>567.0</ele><time>2026-04-25T12:22:50.937Z</time></trkpt><trkpt lat="43.7151983" lon="12.7366517"><ele>564.75</ele><time>2026-04-25T12:22:51.937Z</time></trkpt><trkpt lat="43.7153017" lon="12.7367367"><ele>562.5</ele><time>2026-04-25T12:22:52.937Z</time></trkpt><trkpt lat="43.715405" lon="12.7368233"><ele>560.25</ele><time>2026-04-25T12:22:53.937Z</time></trkpt><trkpt lat="43.71551" lon="12.7369033"><ele>558.0</ele><time>2026-04-25T12:22:54.936Z</time></trkpt><trkpt lat="43.715625" lon="12.7369567"><ele>554.25</ele><time>2026-04-25T12:22:55.937Z</time></trkpt><trkpt lat="43.7157467" lon="12.737"><ele>550.5</ele><time>2026-04-25T12:22:56.936Z</time></trkpt><trkpt lat="43.7158683" lon="12.7370483"><ele>546.75</ele><time>2026-04-25T12:22:57.937Z</time></trkpt><trkpt lat="43.7159917" lon="12.7370967"><ele>543.0</ele><time>2026-04-25T12:22:58.937Z</time></trkpt><trkpt lat="43.7161167" lon="12.737135"><ele>542.5</ele><time>2026-04-25T12:22:59.937Z</time></trkpt><trkpt lat="43.716245" lon="12.7371567"><ele>542.0</ele><time>2026-04-25T12:23:00.937Z</time></trkpt><trkpt lat="43.7163733" lon="12.7371717"><ele>541.5</ele><time>2026-04-25T12:23:01.937Z</time></trkpt><trkpt lat="43.716505" lon="12.737175"><ele>541.0</ele><time>2026-04-25T12:23:02.937Z</time></trkpt><trkpt lat="43.7166383" lon="12.737185"><ele>541.0</ele><time>2026-04-25T12:23:03.937Z</time></trkpt><trkpt lat="43.716775" lon="12.7371967"><ele>541.0</ele><time>2026-04-25T12:23:04.936Z</time></trkpt><trkpt lat="43.7169117" lon="12.737235"><ele>541.0</ele><time>2026-04-25T12:23:05.936Z</time></trkpt><trkpt lat="43.7170467" lon="12.7373"><ele>541.0</ele><time>2026-04-25T12:23:06.937Z</time></trkpt><trkpt lat="43.7171783" lon="12.7373433"><ele>539.5</ele><time>2026-04-25T12:23:07.937Z</time></trkpt><trkpt lat="43.7173117" lon="12.7373617"><ele>538.0</ele><time>2026-04-25T12:23:08.937Z</time></trkpt><trkpt lat="43.7174383" lon="12.7373783"><ele>536.5</ele><time>2026-04-25T12:23:09.937Z</time></trkpt><trkpt lat="43.717545" lon="12.7374"><ele>535.0</ele><time>2026-04-25T12:23:10.937Z</time></trkpt><trkpt lat="43.717625" lon="12.73742"><ele>535.0</ele><time>2026-04-25T12:23:11.937Z</time></trkpt><trkpt lat="43.71769" lon="12.737415"><ele>535.0</ele><time>2026-04-25T12:23:12.937Z</time></trkpt><trkpt lat="43.7177567" lon="12.7372833"><ele>535.0</ele><time>2026-04-25T12:23:14.937Z</time></trkpt><trkpt lat="43.7177367" lon="12.7371883"><ele>535.0</ele><time>2026-04-25T12:23:15.937Z</time></trkpt><trkpt lat="43.7177" lon="12.7370867"><ele>535.0</ele><time>2026-04-25T12:23:16.937Z</time></trkpt><trkpt lat="43.7176817" lon="12.7369783"><ele>535.0</ele><time>2026-04-25T12:23:17.937Z</time></trkpt><trkpt lat="43.7177033" lon="12.7368833"><ele>532.2</ele><time>2026-04-25T12:23:18.937Z</time></trkpt><trkpt lat="43.7177483" lon="12.7368133"><ele>529.4</ele><time>2026-04-25T12:23:19.937Z</time></trkpt><trkpt lat="43.7178217" lon="12.7367683"><ele>526.6</ele><time>2026-04-25T12:23:20.937Z</time></trkpt><trkpt lat="43.7179233" lon="12.736755"><ele>523.8</ele><time>2026-04-25T12:23:21.937Z</time></trkpt><trkpt lat="43.71804" lon="12.7367617"><ele>521.0</ele><time>2026-04-25T12:23:22.936Z</time></trkpt><trkpt lat="43.7181467" lon="12.736755"><ele>521.0</ele><time>2026-04-25T12:23:23.936Z</time></trkpt><trkpt lat="43.7182567" lon="12.7367517"><ele>521.0</ele><time>2026-04-25T12:23:24.937Z</time></trkpt><trkpt lat="43.7183683" lon="12.7367633"><ele>521.0</ele><time>2026-04-25T12:23:25.936Z</time></trkpt><trkpt lat="43.7184717" lon="12.7368033"><ele>521.0</ele><time>2026-04-25T12:23:26.936Z</time></trkpt><trkpt lat="43.718565" lon="12.7368883"><ele>521.0</ele><time>2026-04-25T12:23:27.937Z</time></trkpt><trkpt lat="43.7186483" lon="12.7370017"><ele>518.6</ele><time>2026-04-25T12:23:28.936Z</time></trkpt><trkpt lat="43.7187167" lon="12.73713"><ele>516.2</ele><time>2026-04-25T12:23:29.936Z</time></trkpt><trkpt lat="43.7187717" lon="12.73727"><ele>513.8</ele><time>2026-04-25T12:23:30.937Z</time></trkpt><trkpt lat="43.718825" lon="12.7373983"><ele>511.4</ele><time>2026-04-25T12:23:31.937Z</time></trkpt><trkpt lat="43.718885" lon="12.7374983"><ele>509.0</ele><time>2026-04-25T12:23:32.937Z</time></trkpt><trkpt lat="43.71896" lon="12.7375483"><ele>509.0</ele><time>2026-04-25T12:23:33.937Z</time></trkpt><trkpt lat="43.7190367" lon="12.7375383"><ele>509.0</ele><time>2026-04-25T12:23:34.937Z</time></trkpt><trkpt lat="43.7191117" lon="12.7374883"><ele>509.0</ele><time>2026-04-25T12:23:35.937Z</time></trkpt><trkpt lat="43.7191817" lon="12.7374117"><ele>509.0</ele><time>2026-04-25T12:23:36.936Z</time></trkpt><trkpt lat="43.7192417" lon="12.73729"><ele>509.0</ele><time>2026-04-25T12:23:37.937Z</time></trkpt><trkpt lat="43.7192783" lon="12.7371433"><ele>509.0</ele><time>2026-04-25T12:23:38.937Z</time></trkpt><trkpt lat="43.7193183" lon="12.7370167"><ele>509.0</ele><time>2026-04-25T12:23:39.937Z</time></trkpt><trkpt lat="43.7193383" lon="12.7368983"><ele>509.0</ele><time>2026-04-25T12:23:40.937Z</time></trkpt><trkpt lat="43.719365" lon="12.7368033"><ele>509.0</ele><time>2026-04-25T12:23:41.937Z</time></trkpt><trkpt lat="43.7194217" lon="12.73676"><ele>509.0</ele><time>2026-04-25T12:23:42.937Z</time></trkpt><trkpt lat="43.7195417" lon="12.7368317"><ele>506.49999999999994</ele><time>2026-04-25T12:23:44.937Z</time></trkpt><trkpt lat="43.7196" lon="12.736895"><ele>504.0</ele><time>2026-04-25T12:23:45.937Z</time></trkpt><trkpt lat="43.7196633" lon="12.7369767"><ele>501.5</ele><time>2026-04-25T12:23:46.937Z</time></trkpt><trkpt lat="43.7197367" lon="12.7370283"><ele>499.0</ele><time>2026-04-25T12:23:47.937Z</time></trkpt><trkpt lat="43.7198167" lon="12.7370367"><ele>496.49999999999994</ele><time>2026-04-25T12:23:48.937Z</time></trkpt><trkpt lat="43.719885" lon="12.7369917"><ele>494.0</ele><time>2026-04-25T12:23:49.937Z</time></trkpt><trkpt lat="43.7199283" lon="12.7368983"><ele>492.6</ele><time>2026-04-25T12:23:50.937Z</time></trkpt><trkpt lat="43.71994" lon="12.7367767"><ele>491.2</ele><time>2026-04-25T12:23:51.937Z</time></trkpt><trkpt lat="43.7199367" lon="12.7366217"><ele>489.80000000000007</ele><time>2026-04-25T12:23:52.936Z</time></trkpt><trkpt lat="43.7199517" lon="12.73646"><ele>488.40000000000003</ele><time>2026-04-25T12:23:53.937Z</time></trkpt><trkpt lat="43.71998" lon="12.7362967"><ele>487.0</ele><time>2026-04-25T12:23:54.937Z</time></trkpt><trkpt lat="43.72002" lon="12.7361383"><ele>485.8</ele><time>2026-04-25T12:23:55.937Z</time></trkpt><trkpt lat="43.7200767" lon="12.7359917"><ele>484.6</ele><time>2026-04-25T12:23:56.937Z</time></trkpt><trkpt lat="43.7201317" lon="12.7358533"><ele>483.40000000000003</ele><time>2026-04-25T12:23:57.937Z</time></trkpt><trkpt lat="43.72018" lon="12.735725"><ele>482.20000000000005</ele><time>2026-04-25T12:23:58.937Z</time></trkpt><trkpt lat="43.7202117" lon="12.7356017"><ele>481.0</ele><time>2026-04-25T12:23:59.937Z</time></trkpt><trkpt lat="43.7202283" lon="12.735485"><ele>478.8571428571428</ele><time>2026-04-25T12:24:00.936Z</time></trkpt><trkpt lat="43.7202667" lon="12.7354033"><ele>476.71428571428567</ele><time>2026-04-25T12:24:01.937Z</time></trkpt><trkpt lat="43.7203283" lon="12.7353783"><ele>474.57142857142856</ele><time>2026-04-25T12:24:02.936Z</time></trkpt><trkpt lat="43.7203967" lon="12.7354033"><ele>472.4285714285714</ele><time>2026-04-25T12:24:03.937Z</time></trkpt><trkpt lat="43.7204767" lon="12.73544"><ele>470.2857142857142</ele><time>2026-04-25T12:24:04.937Z</time></trkpt><trkpt lat="43.72054" lon="12.7354117"><ele>468.14285714285717</ele><time>2026-04-25T12:24:05.937Z</time></trkpt><trkpt lat="43.7205817" lon="12.7353317"><ele>466.0</ele><time>2026-04-25T12:24:06.937Z</time></trkpt><trkpt lat="43.7206017" lon="12.7352333"><ele>466.0</ele><time>2026-04-25T12:24:07.937Z</time></trkpt><trkpt lat="43.72062" lon="12.7351367"><ele>466.0</ele><time>2026-04-25T12:24:08.937Z</time></trkpt><trkpt lat="43.7207017" lon="12.7350733"><ele>466.0</ele><time>2026-04-25T12:24:10.937Z</time></trkpt><trkpt lat="43.7207717" lon="12.7351817"><ele>466.0</ele><time>2026-04-25T12:24:12.937Z</time></trkpt><trkpt lat="43.7208083" lon="12.7352817"><ele>466.0</ele><time>2026-04-25T12:24:13.937Z</time></trkpt><trkpt lat="43.720865" lon="12.7354083"><ele>466.0</ele><time>2026-04-25T12:24:14.937Z</time></trkpt><trkpt lat="43.7209317" lon="12.7355367"><ele>466.0</ele><time>2026-04-25T12:24:15.937Z</time></trkpt><trkpt lat="43.7210233" lon="12.7356133"><ele>466.0</ele><time>2026-04-25T12:24:16.937Z</time></trkpt><trkpt lat="43.72113" lon="12.7356567"><ele>466.0</ele><time>2026-04-25T12:24:17.937Z</time></trkpt><trkpt lat="43.7212283" lon="12.7357117"><ele>466.0</ele><time>2026-04-25T12:24:18.937Z</time></trkpt><trkpt lat="43.7213267" lon="12.7357767"><ele>464.0</ele><time>2026-04-25T12:24:19.937Z</time></trkpt><trkpt lat="43.721425" lon="12.7358667"><ele>462.0</ele><time>2026-04-25T12:24:20.937Z</time></trkpt><trkpt lat="43.7215283" lon="12.73598"><ele>460.0</ele><time>2026-04-25T12:24:21.937Z</time></trkpt><trkpt lat="43.721635" lon="12.7360933"><ele>458.0</ele><time>2026-04-25T12:24:22.936Z</time></trkpt><trkpt lat="43.7217367" lon="12.7362217"><ele>458.0</ele><time>2026-04-25T12:24:23.937Z</time></trkpt><trkpt lat="43.7218283" lon="12.73636"><ele>458.0</ele><time>2026-04-25T12:24:24.937Z</time></trkpt><trkpt lat="43.7219317" lon="12.7364833"><ele>458.0</ele><time>2026-04-25T12:24:25.937Z</time></trkpt><trkpt lat="43.722055" lon="12.736575"><ele>458.0</ele><time>2026-04-25T12:24:26.937Z</time></trkpt><trkpt lat="43.7221833" lon="12.7366417"><ele>454.0</ele><time>2026-04-25T12:24:27.937Z</time></trkpt><trkpt lat="43.7223083" lon="12.7367017"><ele>450.0</ele><time>2026-04-25T12:24:28.936Z</time></trkpt><trkpt lat="43.7224267" lon="12.736755"><ele>446.0</ele><time>2026-04-25T12:24:29.937Z</time></trkpt><trkpt lat="43.7225367" lon="12.7368217"><ele>442.0</ele><time>2026-04-25T12:24:30.937Z</time></trkpt><trkpt lat="43.72265" lon="12.736885"><ele>440.75</ele><time>2026-04-25T12:24:31.937Z</time></trkpt><trkpt lat="43.7227617" lon="12.7369667"><ele>439.5</ele><time>2026-04-25T12:24:32.937Z</time></trkpt><trkpt lat="43.722865" lon="12.7370667"><ele>438.25</ele><time>2026-04-25T12:24:33.937Z</time></trkpt><trkpt lat="43.7229517" lon="12.7371783"><ele>437.0</ele><time>2026-04-25T12:24:34.936Z</time></trkpt><trkpt lat="43.7230367" lon="12.7372833"><ele>437.0</ele><time>2026-04-25T12:24:35.936Z</time></trkpt><trkpt lat="43.723145" lon="12.7373583"><ele>437.0</ele><time>2026-04-25T12:24:36.937Z</time></trkpt><trkpt lat="43.72326" lon="12.7374183"><ele>437.0</ele><time>2026-04-25T12:24:37.936Z</time></trkpt><trkpt lat="43.723375" lon="12.73748"><ele>437.0</ele><time>2026-04-25T12:24:38.936Z</time></trkpt><trkpt lat="43.7234883" lon="12.73755"><ele>435.75</ele><time>2026-04-25T12:24:39.937Z</time></trkpt><trkpt lat="43.7236083" lon="12.7375933"><ele>434.5</ele><time>2026-04-25T12:24:40.936Z</time></trkpt><trkpt lat="43.7237367" lon="12.7376"><ele>433.25</ele><time>2026-04-25T12:24:41.937Z</time></trkpt><trkpt lat="43.7238683" lon="12.737595"><ele>432.0</ele><time>2026-04-25T12:24:42.937Z</time></trkpt><trkpt lat="43.7240033" lon="12.737575"><ele>432.0</ele><time>2026-04-25T12:24:43.937Z</time></trkpt><trkpt lat="43.7241417" lon="12.737565"><ele>432.0</ele><time>2026-04-25T12:24:44.937Z</time></trkpt><trkpt lat="43.72428" lon="12.7375767"><ele>432.0</ele><time>2026-04-25T12:24:45.937Z</time></trkpt><trkpt lat="43.7244167" lon="12.73762"><ele>432.0</ele><time>2026-04-25T12:24:46.937Z</time></trkpt><trkpt lat="43.7245483" lon="12.7376833"><ele>429.25</ele><time>2026-04-25T12:24:47.937Z</time></trkpt><trkpt lat="43.7246767" lon="12.7377533"><ele>426.5</ele><time>2026-04-25T12:24:48.937Z</time></trkpt><trkpt lat="43.7248033" lon="12.7378333"><ele>423.75</ele><time>2026-04-25T12:24:49.937Z</time></trkpt><trkpt lat="43.72493" lon="12.7379217"><ele>421.0</ele><time>2026-04-25T12:24:50.937Z</time></trkpt><trkpt lat="43.7250583" lon="12.7380167"><ele>421.0</ele><time>2026-04-25T12:24:51.936Z</time></trkpt><trkpt lat="43.7251867" lon="12.7381117"><ele>421.0</ele><time>2026-04-25T12:24:52.937Z</time></trkpt><trkpt lat="43.72531" lon="12.7382117"><ele>421.0</ele><time>2026-04-25T12:24:53.936Z</time></trkpt><trkpt lat="43.7254317" lon="12.7382933"><ele>421.0</ele><time>2026-04-25T12:24:54.937Z</time></trkpt><trkpt lat="43.7255483" lon="12.7383533"><ele>421.6</ele><time>2026-04-25T12:24:55.937Z</time></trkpt><trkpt lat="43.72565" lon="12.7384033"><ele>422.20000000000005</ele><time>2026-04-25T12:24:56.937Z</time></trkpt><trkpt lat="43.7257317" lon="12.7384517"><ele>422.79999999999995</ele><time>2026-04-25T12:24:57.936Z</time></trkpt><trkpt lat="43.7257983" lon="12.738525"><ele>423.4</ele><time>2026-04-25T12:24:58.937Z</time></trkpt><trkpt lat="43.725845" lon="12.7386267"><ele>424.0</ele><time>2026-04-25T12:24:59.937Z</time></trkpt><trkpt lat="43.7258783" lon="12.7387483"><ele>421.0</ele><time>2026-04-25T12:25:00.937Z</time></trkpt><trkpt lat="43.72589" lon="12.7388833"><ele>418.0</ele><time>2026-04-25T12:25:01.937Z</time></trkpt><trkpt lat="43.725895" lon="12.73901"><ele>415.0</ele><time>2026-04-25T12:25:02.936Z</time></trkpt><trkpt lat="43.7259067" lon="12.7391217"><ele>412.0</ele><time>2026-04-25T12:25:03.937Z</time></trkpt><trkpt lat="43.7259433" lon="12.7391983"><ele>409.0</ele><time>2026-04-25T12:25:04.937Z</time></trkpt><trkpt lat="43.7260583" lon="12.7392133"><ele>407.2</ele><time>2026-04-25T12:25:06.937Z</time></trkpt><trkpt lat="43.726115" lon="12.739135"><ele>405.4</ele><time>2026-04-25T12:25:07.937Z</time></trkpt><trkpt lat="43.7261617" lon="12.7390333"><ele>403.6</ele><time>2026-04-25T12:25:08.936Z</time></trkpt><trkpt lat="43.726215" lon="12.7389217"><ele>401.8</ele><time>2026-04-25T12:25:09.937Z</time></trkpt><trkpt lat="43.72629" lon="12.7388167"><ele>400.0</ele><time>2026-04-25T12:25:10.937Z</time></trkpt><trkpt lat="43.726385" lon="12.73874"><ele>400.0</ele><time>2026-04-25T12:25:11.937Z</time></trkpt><trkpt lat="43.7265" lon="12.738695"><ele>400.0</ele><time>2026-04-25T12:25:12.937Z</time></trkpt><trkpt lat="43.7266317" lon="12.738665"><ele>400.0</ele><time>2026-04-25T12:25:13.937Z</time></trkpt><trkpt lat="43.7267733" lon="12.7386317"><ele>400.0</ele><time>2026-04-25T12:25:14.937Z</time></trkpt><trkpt lat="43.7269083" lon="12.73859"><ele>400.5</ele><time>2026-04-25T12:25:15.937Z</time></trkpt><trkpt lat="43.7270383" lon="12.7385517"><ele>401.0</ele><time>2026-04-25T12:25:16.937Z</time></trkpt><trkpt lat="43.7271583" lon="12.73852"><ele>401.5</ele><time>2026-04-25T12:25:17.937Z</time></trkpt><trkpt lat="43.727265" lon="12.7384883"><ele>402.0</ele><time>2026-04-25T12:25:18.937Z</time></trkpt><trkpt lat="43.72736" lon="12.7384467"><ele>402.0</ele><time>2026-04-25T12:25:19.937Z</time></trkpt><trkpt lat="43.7274433" lon="12.7383817"><ele>402.0</ele><time>2026-04-25T12:25:20.937Z</time></trkpt><trkpt lat="43.7275167" lon="12.7382817"><ele>402.0</ele><time>2026-04-25T12:25:21.937Z</time></trkpt><trkpt lat="43.72758" lon="12.7381483"><ele>402.0</ele><time>2026-04-25T12:25:22.937Z</time></trkpt><trkpt lat="43.7276483" lon="12.7379817"><ele>402.0</ele><time>2026-04-25T12:25:23.937Z</time></trkpt><trkpt lat="43.7277233" lon="12.7377867"><ele>402.0</ele><time>2026-04-25T12:25:24.937Z</time></trkpt><trkpt lat="43.7278117" lon="12.737565"><ele>402.0</ele><time>2026-04-25T12:25:25.937Z</time></trkpt><trkpt lat="43.7278983" lon="12.737335"><ele>401.33333333333337</ele><time>2026-04-25T12:25:26.937Z</time></trkpt><trkpt lat="43.727975" lon="12.7371167"><ele>400.6666666666667</ele><time>2026-04-25T12:25:27.936Z</time></trkpt><trkpt lat="43.72804" lon="12.73692"><ele>400.0</ele><time>2026-04-25T12:25:28.937Z</time></trkpt><trkpt lat="43.7281033" lon="12.7367533"><ele>400.0</ele><time>2026-04-25T12:25:29.936Z</time></trkpt><trkpt lat="43.7281717" lon="12.7366083"><ele>400.0</ele><time>2026-04-25T12:25:30.937Z</time></trkpt><trkpt lat="43.7282467" lon="12.73648"><ele>400.0</ele><time>2026-04-25T12:25:31.937Z</time></trkpt><trkpt lat="43.7283283" lon="12.7363667"><ele>400.0</ele><time>2026-04-25T12:25:32.937Z</time></trkpt><trkpt lat="43.728415" lon="12.7362467"><ele>400.0</ele><time>2026-04-25T12:25:33.937Z</time></trkpt><trkpt lat="43.728495" lon="12.73611"><ele>400.0</ele><time>2026-04-25T12:25:34.937Z</time></trkpt><trkpt lat="43.7285583" lon="12.73595"><ele>400.0</ele><time>2026-04-25T12:25:35.937Z</time></trkpt><trkpt lat="43.728595" lon="12.7357717"><ele>400.0</ele><time>2026-04-25T12:25:36.937Z</time></trkpt><trkpt lat="43.72861" lon="12.735595"><ele>400.4</ele><time>2026-04-25T12:25:37.937Z</time></trkpt><trkpt lat="43.728615" lon="12.7354283"><ele>400.8</ele><time>2026-04-25T12:25:38.937Z</time></trkpt><trkpt lat="43.728625" lon="12.7352783"><ele>401.20000000000005</ele><time>2026-04-25T12:25:39.937Z</time></trkpt><trkpt lat="43.72865" lon="12.735145"><ele>401.6</ele><time>2026-04-25T12:25:40.937Z</time></trkpt><trkpt lat="43.7287" lon="12.7350183"><ele>402.0</ele><time>2026-04-25T12:25:41.937Z</time></trkpt><trkpt lat="43.7287683" lon="12.7348933"><ele>402.0</ele><time>2026-04-25T12:25:42.937Z</time></trkpt><trkpt lat="43.7288483" lon="12.7347633"><ele>402.0</ele><time>2026-04-25T12:25:43.937Z</time></trkpt><trkpt lat="43.7289417" lon="12.73463"><ele>402.0</ele><time>2026-04-25T12:25:44.936Z</time></trkpt><trkpt lat="43.7290367" lon="12.73449"><ele>402.0</ele><time>2026-04-25T12:25:45.937Z</time></trkpt><trkpt lat="43.7291333" lon="12.7343567"><ele>400.0</ele><time>2026-04-25T12:25:46.936Z</time></trkpt><trkpt lat="43.7292283" lon="12.7342367"><ele>398.0</ele><time>2026-04-25T12:25:47.937Z</time></trkpt><trkpt lat="43.7293233" lon="12.7341483"><ele>396.0</ele><time>2026-04-25T12:25:48.937Z</time></trkpt><trkpt lat="43.7294283" lon="12.7340883"><ele>394.0</ele><time>2026-04-25T12:25:49.937Z</time></trkpt><trkpt lat="43.7295483" lon="12.7340533"><ele>394.0</ele><time>2026-04-25T12:25:50.936Z</time></trkpt><trkpt lat="43.7296833" lon="12.7340267"><ele>394.0</ele><time>2026-04-25T12:25:51.937Z</time></trkpt><trkpt lat="43.7298283" lon="12.7339967"><ele>394.0</ele><time>2026-04-25T12:25:52.937Z</time></trkpt><trkpt lat="43.7299817" lon="12.7339583"><ele>394.0</ele><time>2026-04-25T12:25:53.937Z</time></trkpt><trkpt lat="43.730135" lon="12.733925"><ele>399.0</ele><time>2026-04-25T12:25:54.936Z</time></trkpt><trkpt lat="43.7302867" lon="12.7338917"><ele>404.0</ele><time>2026-04-25T12:25:55.937Z</time></trkpt><trkpt lat="43.7304383" lon="12.7338333"><ele>409.0</ele><time>2026-04-25T12:25:56.937Z</time></trkpt><trkpt lat="43.7305817" lon="12.733745"><ele>409.0</ele><time>2026-04-25T12:25:57.936Z</time></trkpt><trkpt lat="43.7307067" lon="12.7336533"><ele>409.0</ele><time>2026-04-25T12:25:58.936Z</time></trkpt><trkpt lat="43.7308283" lon="12.7335733"><ele>409.0</ele><time>2026-04-25T12:25:59.937Z</time></trkpt><trkpt lat="43.7309533" lon="12.7335083"><ele>409.0</ele><time>2026-04-25T12:26:00.936Z</time></trkpt><trkpt lat="43.731085" lon="12.7334517"><ele>400.0</ele><time>2026-04-25T12:26:01.937Z</time></trkpt><trkpt lat="43.73122" lon="12.733395"><ele>391.0</ele><time>2026-04-25T12:26:02.937Z</time></trkpt><trkpt lat="43.7313467" lon="12.7333217"><ele>382.0</ele><time>2026-04-25T12:26:03.937Z</time></trkpt><trkpt lat="43.7314567" lon="12.7332417"><ele>373.0</ele><time>2026-04-25T12:26:04.936Z</time></trkpt><trkpt lat="43.7315567" lon="12.7331717"><ele>373.0</ele><time>2026-04-25T12:26:05.937Z</time></trkpt><trkpt lat="43.73165" lon="12.7331267"><ele>373.0</ele><time>2026-04-25T12:26:06.937Z</time></trkpt><trkpt lat="43.731735" lon="12.7331233"><ele>373.0</ele><time>2026-04-25T12:26:07.936Z</time></trkpt><trkpt lat="43.7318083" lon="12.7331633"><ele>373.0</ele><time>2026-04-25T12:26:08.936Z</time></trkpt><trkpt lat="43.7318783" lon="12.7332367"><ele>373.0</ele><time>2026-04-25T12:26:09.937Z</time></trkpt><trkpt lat="43.731945" lon="12.7333267"><ele>373.0</ele><time>2026-04-25T12:26:10.936Z</time></trkpt><trkpt lat="43.7320217" lon="12.7333933"><ele>374.0</ele><time>2026-04-25T12:26:11.936Z</time></trkpt><trkpt lat="43.7321167" lon="12.73341"><ele>375.0</ele><time>2026-04-25T12:26:12.937Z</time></trkpt><trkpt lat="43.732205" lon="12.7333717"><ele>376.0</ele><time>2026-04-25T12:26:13.937Z</time></trkpt><trkpt lat="43.732295" lon="12.7332933"><ele>377.0</ele><time>2026-04-25T12:26:14.936Z</time></trkpt><trkpt lat="43.7323817" lon="12.73319"><ele>378.0</ele><time>2026-04-25T12:26:15.937Z</time></trkpt><trkpt lat="43.7324633" lon="12.7330783"><ele>378.0</ele><time>2026-04-25T12:26:16.937Z</time></trkpt><trkpt lat="43.7325433" lon="12.732975"><ele>378.0</ele><time>2026-04-25T12:26:17.936Z</time></trkpt><trkpt lat="43.73263" lon="12.73289"><ele>378.0</ele><time>2026-04-25T12:26:18.937Z</time></trkpt><trkpt lat="43.7327233" lon="12.7328383"><ele>378.0</ele><time>2026-04-25T12:26:19.937Z</time></trkpt><trkpt lat="43.73282" lon="12.7328183"><ele>378.0</ele><time>2026-04-25T12:26:20.937Z</time></trkpt><trkpt lat="43.7329167" lon="12.7328367"><ele>376.0</ele><time>2026-04-25T12:26:21.937Z</time></trkpt><trkpt lat="43.7330183" lon="12.732895"><ele>374.0</ele><time>2026-04-25T12:26:22.936Z</time></trkpt><trkpt lat="43.73312" lon="12.7329717"><ele>372.0</ele><time>2026-04-25T12:26:23.937Z</time></trkpt><trkpt lat="43.7332167" lon="12.7330633"><ele>370.0</ele><time>2026-04-25T12:26:24.937Z</time></trkpt><trkpt lat="43.7333167" lon="12.7331633"><ele>370.0</ele><time>2026-04-25T12:26:25.937Z</time></trkpt><trkpt lat="43.7334217" lon="12.733255"><ele>370.0</ele><time>2026-04-25T12:26:26.937Z</time></trkpt><trkpt lat="43.7335283" lon="12.7333233"><ele>370.0</ele><time>2026-04-25T12:26:27.937Z</time></trkpt><trkpt lat="43.7336217" lon="12.73337"><ele>370.0</ele><time>2026-04-25T12:26:28.936Z</time></trkpt><trkpt lat="43.7337" lon="12.7334217"><ele>370.0</ele><time>2026-04-25T12:26:29.936Z</time></trkpt><trkpt lat="43.733755" lon="12.7335"><ele>366.0</ele><time>2026-04-25T12:26:30.937Z</time></trkpt><trkpt lat="43.7337783" lon="12.733605"><ele>362.0</ele><time>2026-04-25T12:26:31.937Z</time></trkpt><trkpt lat="43.73378" lon="12.7337317"><ele>358.0</ele><time>2026-04-25T12:26:32.937Z</time></trkpt><trkpt lat="43.733775" lon="12.7338767"><ele>354.0</ele><time>2026-04-25T12:26:33.937Z</time></trkpt><trkpt lat="43.7337883" lon="12.7340317"><ele>350.0</ele><time>2026-04-25T12:26:34.937Z</time></trkpt><trkpt lat="43.7338317" lon="12.7341767"><ele>350.0</ele><time>2026-04-25T12:26:35.937Z</time></trkpt><trkpt lat="43.7338933" lon="12.7343033"><ele>350.0</ele><time>2026-04-25T12:26:36.937Z</time></trkpt><trkpt lat="43.7339683" lon="12.7344183"><ele>350.0</ele><time>2026-04-25T12:26:37.937Z</time></trkpt><trkpt lat="43.7340517" lon="12.7345217"><ele>350.0</ele><time>2026-04-25T12:26:38.936Z</time></trkpt><trkpt lat="43.7341333" lon="12.7346233"><ele>350.0</ele><time>2026-04-25T12:26:39.937Z</time></trkpt><trkpt lat="43.7342133" lon="12.7347133"><ele>351.75</ele><time>2026-04-25T12:26:40.937Z</time></trkpt><trkpt lat="43.7343" lon="12.73477"><ele>353.5</ele><time>2026-04-25T12:26:41.937Z</time></trkpt><trkpt lat="43.7344083" lon="12.7347867"><ele>355.25</ele><time>2026-04-25T12:26:42.937Z</time></trkpt><trkpt lat="43.734535" lon="12.73478"><ele>357.0</ele><time>2026-04-25T12:26:43.937Z</time></trkpt><trkpt lat="43.7346683" lon="12.734765"><ele>357.0</ele><time>2026-04-25T12:26:44.937Z</time></trkpt><trkpt lat="43.7348017" lon="12.7347533"><ele>357.0</ele><time>2026-04-25T12:26:45.937Z</time></trkpt><trkpt lat="43.734925" lon="12.7347483"><ele>357.0</ele><time>2026-04-25T12:26:46.937Z</time></trkpt><trkpt lat="43.7350333" lon="12.7347517"><ele>357.0</ele><time>2026-04-25T12:26:47.937Z</time></trkpt><trkpt lat="43.73513" lon="12.7347717"><ele>357.0</ele><time>2026-04-25T12:26:48.937Z</time></trkpt><trkpt lat="43.735215" lon="12.7348167"><ele>357.0</ele><time>2026-04-25T12:26:49.936Z</time></trkpt><trkpt lat="43.7352867" lon="12.7348867"><ele>357.0</ele><time>2026-04-25T12:26:50.937Z</time></trkpt><trkpt lat="43.7353467" lon="12.7349817"><ele>357.0</ele><time>2026-04-25T12:26:51.937Z</time></trkpt><trkpt lat="43.7354" lon="12.7351033"><ele>357.0</ele><time>2026-04-25T12:26:52.937Z</time></trkpt><trkpt lat="43.7354517" lon="12.7352467"><ele>355.5</ele><time>2026-04-25T12:26:53.936Z</time></trkpt><trkpt lat="43.7355017" lon="12.73541"><ele>354.0</ele><time>2026-04-25T12:26:54.937Z</time></trkpt><trkpt lat="43.735555" lon="12.7355833"><ele>352.5</ele><time>2026-04-25T12:26:55.937Z</time></trkpt><trkpt lat="43.7356117" lon="12.7357583"><ele>351.0</ele><time>2026-04-25T12:26:56.937Z</time></trkpt><trkpt lat="43.7356767" lon="12.735925"><ele>354.75</ele><time>2026-04-25T12:26:57.936Z</time></trkpt><trkpt lat="43.73575" lon="12.7360867"><ele>358.5</ele><time>2026-04-25T12:26:58.937Z</time></trkpt><trkpt lat="43.7358317" lon="12.7362417"><ele>362.25</ele><time>2026-04-25T12:26:59.937Z</time></trkpt><trkpt lat="43.73593" lon="12.736385"><ele>366.0</ele><time>2026-04-25T12:27:00.937Z</time></trkpt><trkpt lat="43.7360383" lon="12.736515"><ele>360.75</ele><time>2026-04-25T12:27:01.936Z</time></trkpt><trkpt lat="43.73615" lon="12.73663"><ele>355.5</ele><time>2026-04-25T12:27:02.937Z</time></trkpt><trkpt lat="43.736255" lon="12.7367217"><ele>350.25</ele><time>2026-04-25T12:27:03.937Z</time></trkpt><trkpt lat="43.7363483" lon="12.7367933"><ele>345.0</ele><time>2026-04-25T12:27:04.936Z</time></trkpt><trkpt lat="43.7364383" lon="12.7368333"><ele>345.0</ele><time>2026-04-25T12:27:05.936Z</time></trkpt><trkpt lat="43.7365267" lon="12.7368333"><ele>345.0</ele><time>2026-04-25T12:27:06.937Z</time></trkpt><trkpt lat="43.736615" lon="12.736795"><ele>345.0</ele><time>2026-04-25T12:27:07.937Z</time></trkpt><trkpt lat="43.736685" lon="12.7367067"><ele>345.0</ele><time>2026-04-25T12:27:08.936Z</time></trkpt><trkpt lat="43.7367567" lon="12.73659"><ele>345.0</ele><time>2026-04-25T12:27:09.937Z</time></trkpt><trkpt lat="43.7368233" lon="12.736455"><ele>341.0</ele><time>2026-04-25T12:27:10.937Z</time></trkpt><trkpt lat="43.73689" lon="12.7363267"><ele>337.0</ele><time>2026-04-25T12:27:11.936Z</time></trkpt><trkpt lat="43.73696" lon="12.736205"><ele>333.0</ele><time>2026-04-25T12:27:12.937Z</time></trkpt><trkpt lat="43.737045" lon="12.7360933"><ele>329.0</ele><time>2026-04-25T12:27:13.937Z</time></trkpt><trkpt lat="43.7371367" lon="12.735995"><ele>328.75</ele><time>2026-04-25T12:27:14.937Z</time></trkpt><trkpt lat="43.7372433" lon="12.7359133"><ele>328.5</ele><time>2026-04-25T12:27:15.937Z</time></trkpt><trkpt lat="43.7373583" lon="12.7358333"><ele>328.25</ele><time>2026-04-25T12:27:16.937Z</time></trkpt><trkpt lat="43.737475" lon="12.735745"><ele>328.0</ele><time>2026-04-25T12:27:17.937Z</time></trkpt><trkpt lat="43.737585" lon="12.7356333"><ele>328.0</ele><time>2026-04-25T12:27:18.937Z</time></trkpt><trkpt lat="43.7376867" lon="12.7354933"><ele>328.0</ele><time>2026-04-25T12:27:19.937Z</time></trkpt><trkpt lat="43.737785" lon="12.7353483"><ele>328.0</ele><time>2026-04-25T12:27:20.937Z</time></trkpt><trkpt lat="43.737885" lon="12.7352183"><ele>328.0</ele><time>2026-04-25T12:27:21.936Z</time></trkpt><trkpt lat="43.737995" lon="12.7351083"><ele>328.0</ele><time>2026-04-25T12:27:22.937Z</time></trkpt><trkpt lat="43.7381133" lon="12.7350283"><ele>328.0</ele><time>2026-04-25T12:27:23.937Z</time></trkpt><trkpt lat="43.7382367" lon="12.734975"><ele>328.0</ele><time>2026-04-25T12:27:24.937Z</time></trkpt><trkpt lat="43.7383567" lon="12.7349417"><ele>328.0</ele><time>2026-04-25T12:27:25.937Z</time></trkpt><trkpt lat="43.7384683" lon="12.7349167"><ele>327.0</ele><time>2026-04-25T12:27:26.937Z</time></trkpt><trkpt lat="43.73856" lon="12.7348733"><ele>326.0</ele><time>2026-04-25T12:27:27.937Z</time></trkpt><trkpt lat="43.7386417" lon="12.73481"><ele>325.0</ele><time>2026-04-25T12:27:28.936Z</time></trkpt><trkpt lat="43.738725" lon="12.7347167"><ele>324.0</ele><time>2026-04-25T12:27:29.937Z</time></trkpt><trkpt lat="43.7388167" lon="12.7346217"><ele>323.0</ele><time>2026-04-25T12:27:30.937Z</time></trkpt><trkpt lat="43.7389083" lon="12.7345217"><ele>323.0</ele><time>2026-04-25T12:27:31.938Z</time></trkpt><trkpt lat="43.7390067" lon="12.734435"><ele>323.0</ele><time>2026-04-25T12:27:32.938Z</time></trkpt><trkpt lat="43.7391217" lon="12.7343667"><ele>323.0</ele><time>2026-04-25T12:27:33.937Z</time></trkpt><trkpt lat="43.7392483" lon="12.734305"><ele>323.0</ele><time>2026-04-25T12:27:34.938Z</time></trkpt><trkpt lat="43.7393783" lon="12.7342467"><ele>320.25</ele><time>2026-04-25T12:27:35.938Z</time></trkpt><trkpt lat="43.73951" lon="12.734195"><ele>317.5</ele><time>2026-04-25T12:27:36.937Z</time></trkpt><trkpt lat="43.7396333" lon="12.73415"><ele>314.75</ele><time>2026-04-25T12:27:37.938Z</time></trkpt><trkpt lat="43.739745" lon="12.7341133"><ele>312.0</ele><time>2026-04-25T12:27:38.938Z</time></trkpt><trkpt lat="43.7398467" lon="12.7341033"><ele>312.0</ele><time>2026-04-25T12:27:39.937Z</time></trkpt><trkpt lat="43.7399483" lon="12.734145"><ele>312.0</ele><time>2026-04-25T12:27:40.938Z</time></trkpt><trkpt lat="43.7400433" lon="12.73422"><ele>312.0</ele><time>2026-04-25T12:27:41.937Z</time></trkpt><trkpt lat="43.7401333" lon="12.7343117"><ele>312.0</ele><time>2026-04-25T12:27:42.938Z</time></trkpt><trkpt lat="43.7402117" lon="12.7344417"><ele>312.0</ele><time>2026-04-25T12:27:43.938Z</time></trkpt><trkpt lat="43.7402967" lon="12.73457"><ele>311.0</ele><time>2026-04-25T12:27:44.938Z</time></trkpt><trkpt lat="43.740375" lon="12.7347033"><ele>310.0</ele><time>2026-04-25T12:27:45.937Z</time></trkpt><trkpt lat="43.74047" lon="12.73482"><ele>309.0</ele><time>2026-04-25T12:27:46.938Z</time></trkpt><trkpt lat="43.74057" lon="12.7349183"><ele>308.0</ele><time>2026-04-25T12:27:47.938Z</time></trkpt><trkpt lat="43.7406733" lon="12.73498"><ele>308.0</ele><time>2026-04-25T12:27:48.938Z</time></trkpt><trkpt lat="43.740765" lon="12.735"><ele>308.0</ele><time>2026-04-25T12:27:49.938Z</time></trkpt><trkpt lat="43.74085" lon="12.734985"><ele>308.0</ele><time>2026-04-25T12:27:50.938Z</time></trkpt><trkpt lat="43.7409167" lon="12.73493"><ele>308.0</ele><time>2026-04-25T12:27:51.938Z</time></trkpt><trkpt lat="43.7409683" lon="12.7348517"><ele>308.0</ele><time>2026-04-25T12:27:52.938Z</time></trkpt><trkpt lat="43.7409983" lon="12.7347417"><ele>308.0</ele><time>2026-04-25T12:27:53.937Z</time></trkpt><trkpt lat="43.74099" lon="12.7345833"><ele>308.0</ele><time>2026-04-25T12:27:54.937Z</time></trkpt><trkpt lat="43.74099" lon="12.7344133"><ele>308.0</ele><time>2026-04-25T12:27:55.938Z</time></trkpt><trkpt lat="43.7409967" lon="12.73425"><ele>308.0</ele><time>2026-04-25T12:27:56.938Z</time></trkpt><trkpt lat="43.7409833" lon="12.7340983"><ele>308.0</ele><time>2026-04-25T12:27:57.938Z</time></trkpt><trkpt lat="43.7409567" lon="12.73397"><ele>308.0</ele><time>2026-04-25T12:27:58.937Z</time></trkpt><trkpt lat="43.7409033" lon="12.73387"><ele>306.8</ele><time>2026-04-25T12:27:59.938Z</time></trkpt><trkpt lat="43.740815" lon="12.73382"><ele>305.6</ele><time>2026-04-25T12:28:00.938Z</time></trkpt><trkpt lat="43.7407117" lon="12.7338"><ele>304.4</ele><time>2026-04-25T12:28:01.938Z</time></trkpt><trkpt lat="43.7406067" lon="12.7337767"><ele>303.2</ele><time>2026-04-25T12:28:02.938Z</time></trkpt><trkpt lat="43.7405283" lon="12.7337067"><ele>302.0</ele><time>2026-04-25T12:28:03.938Z</time></trkpt><trkpt lat="43.74048" lon="12.7336033"><ele>299.6</ele><time>2026-04-25T12:28:04.937Z</time></trkpt><trkpt lat="43.740455" lon="12.733485"><ele>297.2</ele><time>2026-04-25T12:28:05.938Z</time></trkpt><trkpt lat="43.7404833" lon="12.733355"><ele>294.8</ele><time>2026-04-25T12:28:06.938Z</time></trkpt><trkpt lat="43.7405217" lon="12.7332317"><ele>292.4</ele><time>2026-04-25T12:28:07.938Z</time></trkpt><trkpt lat="43.74058" lon="12.7331133"><ele>290.0</ele><time>2026-04-25T12:28:08.938Z</time></trkpt><trkpt lat="43.7406567" lon="12.7329983"><ele>290.0</ele><time>2026-04-25T12:28:09.937Z</time></trkpt><trkpt lat="43.7407483" lon="12.7328933"><ele>290.0</ele><time>2026-04-25T12:28:10.938Z</time></trkpt><trkpt lat="43.7408567" lon="12.7327967"><ele>290.0</ele><time>2026-04-25T12:28:11.938Z</time></trkpt><trkpt lat="43.7409483" lon="12.732695"><ele>290.0</ele><time>2026-04-25T12:28:12.938Z</time></trkpt><trkpt lat="43.7410317" lon="12.732605"><ele>287.2</ele><time>2026-04-25T12:28:13.938Z</time></trkpt><trkpt lat="43.7411133" lon="12.732535"><ele>284.4</ele><time>2026-04-25T12:28:14.938Z</time></trkpt><trkpt lat="43.7411967" lon="12.7324983"><ele>281.6</ele><time>2026-04-25T12:28:15.938Z</time></trkpt><trkpt lat="43.741285" lon="12.732515"><ele>278.8</ele><time>2026-04-25T12:28:16.937Z</time></trkpt><trkpt lat="43.74138" lon="12.7325667"><ele>276.0</ele><time>2026-04-25T12:28:17.938Z</time></trkpt><trkpt lat="43.7414917" lon="12.7326033"><ele>276.0</ele><time>2026-04-25T12:28:18.938Z</time></trkpt><trkpt lat="43.74162" lon="12.7326317"><ele>276.0</ele><time>2026-04-25T12:28:19.937Z</time></trkpt><trkpt lat="43.7417667" lon="12.732655"><ele>276.0</ele><time>2026-04-25T12:28:20.937Z</time></trkpt><trkpt lat="43.7419217" lon="12.7326817"><ele>276.0</ele><time>2026-04-25T12:28:21.937Z</time></trkpt><trkpt lat="43.7420717" lon="12.7327067"><ele>274.25</ele><time>2026-04-25T12:28:22.938Z</time></trkpt><trkpt lat="43.7422233" lon="12.73271"><ele>272.5</ele><time>2026-04-25T12:28:23.938Z</time></trkpt><trkpt lat="43.7423617" lon="12.7326917"><ele>270.75</ele><time>2026-04-25T12:28:24.938Z</time></trkpt><trkpt lat="43.7424867" lon="12.7326733"><ele>269.0</ele><time>2026-04-25T12:28:25.937Z</time></trkpt><trkpt lat="43.7426083" lon="12.73267"><ele>268.0</ele><time>2026-04-25T12:28:26.938Z</time></trkpt><trkpt lat="43.7427283" lon="12.73269"><ele>267.0</ele><time>2026-04-25T12:28:27.937Z</time></trkpt><trkpt lat="43.742865" lon="12.7327233"><ele>266.0</ele><time>2026-04-25T12:28:28.938Z</time></trkpt><trkpt lat="43.7430133" lon="12.73276"><ele>265.0</ele><time>2026-04-25T12:28:29.938Z</time></trkpt><trkpt lat="43.7431633" lon="12.7328033"><ele>265.0</ele><time>2026-04-25T12:28:30.938Z</time></trkpt><trkpt lat="43.7433117" lon="12.7328483"><ele>265.0</ele><time>2026-04-25T12:28:31.938Z</time></trkpt><trkpt lat="43.7434617" lon="12.732875"><ele>265.0</ele><time>2026-04-25T12:28:32.938Z</time></trkpt><trkpt lat="43.7436117" lon="12.73289"><ele>261.5</ele><time>2026-04-25T12:28:33.938Z</time></trkpt><trkpt lat="43.74376" lon="12.7329"><ele>258.0</ele><time>2026-04-25T12:28:34.937Z</time></trkpt><trkpt lat="43.743905" lon="12.73292"><ele>254.5</ele><time>2026-04-25T12:28:35.938Z</time></trkpt><trkpt lat="43.744045" lon="12.73294"><ele>251.0</ele><time>2026-04-25T12:28:36.938Z</time></trkpt><trkpt lat="43.7441783" lon="12.7329717"><ele>251.0</ele><time>2026-04-25T12:28:37.938Z</time></trkpt><trkpt lat="43.7443133" lon="12.73302"><ele>251.0</ele><time>2026-04-25T12:28:38.938Z</time></trkpt><trkpt lat="43.7444467" lon="12.7330683"><ele>251.0</ele><time>2026-04-25T12:28:39.938Z</time></trkpt><trkpt lat="43.7445733" lon="12.7331183"><ele>251.0</ele><time>2026-04-25T12:28:40.937Z</time></trkpt><trkpt lat="43.7446883" lon="12.7331717"><ele>249.33333333333334</ele><time>2026-04-25T12:28:41.938Z</time></trkpt><trkpt lat="43.74479" lon="12.7332217"><ele>247.66666666666669</ele><time>2026-04-25T12:28:42.938Z</time></trkpt><trkpt lat="43.7448683" lon="12.7332917"><ele>246.0</ele><time>2026-04-25T12:28:43.938Z</time></trkpt><trkpt lat="43.74494" lon="12.7333267"><ele>244.33333333333331</ele><time>2026-04-25T12:28:44.938Z</time></trkpt><trkpt lat="43.7450067" lon="12.7332967"><ele>242.66666666666666</ele><time>2026-04-25T12:28:45.938Z</time></trkpt><trkpt lat="43.7450567" lon="12.7332267"><ele>241.0</ele><time>2026-04-25T12:28:46.938Z</time></trkpt><trkpt lat="43.7450767" lon="12.733095"><ele>241.0</ele><time>2026-04-25T12:28:47.937Z</time></trkpt><trkpt lat="43.7450733" lon="12.7329183"><ele>241.0</ele><time>2026-04-25T12:28:48.937Z</time></trkpt><trkpt lat="43.7450667" lon="12.732735"><ele>241.0</ele><time>2026-04-25T12:28:49.938Z</time></trkpt><trkpt lat="43.7450583" lon="12.7325483"><ele>241.0</ele><time>2026-04-25T12:28:50.937Z</time></trkpt><trkpt lat="43.7450467" lon="12.7323667"><ele>239.5</ele><time>2026-04-25T12:28:51.937Z</time></trkpt><trkpt lat="43.7450267" lon="12.732185"><ele>238.0</ele><time>2026-04-25T12:28:52.938Z</time></trkpt><trkpt lat="43.744995" lon="12.7319983"><ele>236.5</ele><time>2026-04-25T12:28:53.936Z</time></trkpt><trkpt lat="43.744965" lon="12.7318117"><ele>235.0</ele><time>2026-04-25T12:28:54.937Z</time></trkpt><trkpt lat="43.7449383" lon="12.7316467"><ele>233.6</ele><time>2026-04-25T12:28:55.937Z</time></trkpt><trkpt lat="43.74492" lon="12.7314917"><ele>232.2</ele><time>2026-04-25T12:28:56.937Z</time></trkpt><trkpt lat="43.7449267" lon="12.73137"><ele>230.8</ele><time>2026-04-25T12:28:57.937Z</time></trkpt><trkpt lat="43.7449767" lon="12.7312967"><ele>229.4</ele><time>2026-04-25T12:28:58.937Z</time></trkpt><trkpt lat="43.7451117" lon="12.7313183"><ele>228.0</ele><time>2026-04-25T12:29:00.937Z</time></trkpt><trkpt lat="43.7452" lon="12.7314217"><ele>226.25</ele><time>2026-04-25T12:29:01.937Z</time></trkpt><trkpt lat="43.7452983" lon="12.7315267"><ele>224.5</ele><time>2026-04-25T12:29:02.937Z</time></trkpt><trkpt lat="43.7454067" lon="12.7316183"><ele>222.75</ele><time>2026-04-25T12:29:03.936Z</time></trkpt><trkpt lat="43.74552" lon="12.73171"><ele>221.0</ele><time>2026-04-25T12:29:04.937Z</time></trkpt><trkpt lat="43.7456433" lon="12.7318083"><ele>221.0</ele><time>2026-04-25T12:29:05.937Z</time></trkpt><trkpt lat="43.74577" lon="12.7319133"><ele>221.0</ele><time>2026-04-25T12:29:06.937Z</time></trkpt><trkpt lat="43.7459" lon="12.7320217"><ele>221.0</ele><time>2026-04-25T12:29:07.937Z</time></trkpt><trkpt lat="43.7460267" lon="12.732145"><ele>219.0</ele><time>2026-04-25T12:29:08.937Z</time></trkpt><trkpt lat="43.7461567" lon="12.7322717"><ele>217.0</ele><time>2026-04-25T12:29:09.937Z</time></trkpt><trkpt lat="43.7462867" lon="12.7323983"><ele>215.0</ele><time>2026-04-25T12:29:10.936Z</time></trkpt><trkpt lat="43.746415" lon="12.7325217"><ele>215.0</ele><time>2026-04-25T12:29:11.936Z</time></trkpt><trkpt lat="43.7465383" lon="12.7326467"><ele>215.0</ele><time>2026-04-25T12:29:12.936Z</time></trkpt><trkpt lat="43.746655" lon="12.7327767"><ele>215.0</ele><time>2026-04-25T12:29:13.937Z</time></trkpt><trkpt lat="43.7467683" lon="12.7329"><ele>215.0</ele><time>2026-04-25T12:29:14.937Z</time></trkpt><trkpt lat="43.7468733" lon="12.7330283"><ele>211.0</ele><time>2026-04-25T12:29:15.937Z</time></trkpt><trkpt lat="43.7469633" lon="12.7331633"><ele>207.0</ele><time>2026-04-25T12:29:16.937Z</time></trkpt><trkpt lat="43.747035" lon="12.7333083"><ele>203.0</ele><time>2026-04-25T12:29:17.937Z</time></trkpt><trkpt lat="43.7470817" lon="12.7334767"><ele>199.0</ele><time>2026-04-25T12:29:18.937Z</time></trkpt><trkpt lat="43.7471283" lon="12.733645"><ele>198.25</ele><time>2026-04-25T12:29:19.937Z</time></trkpt><trkpt lat="43.7471817" lon="12.7338083"><ele>197.5</ele><time>2026-04-25T12:29:20.936Z</time></trkpt><trkpt lat="43.747235" lon="12.733965"><ele>196.75</ele><time>2026-04-25T12:29:21.936Z</time></trkpt><trkpt lat="43.7472717" lon="12.734125"><ele>196.0</ele><time>2026-04-25T12:29:22.937Z</time></trkpt><trkpt lat="43.7472733" lon="12.73429"><ele>194.25</ele><time>2026-04-25T12:29:23.937Z</time></trkpt><trkpt lat="43.7472533" lon="12.73445"><ele>192.5</ele><time>2026-04-25T12:29:24.936Z</time></trkpt><trkpt lat="43.7472083" lon="12.7346067"><ele>190.75</ele><time>2026-04-25T12:29:25.937Z</time></trkpt><trkpt lat="43.7471667" lon="12.7347683"><ele>189.0</ele><time>2026-04-25T12:29:26.936Z</time></trkpt><trkpt lat="43.7471183" lon="12.7349283"><ele>189.0</ele><time>2026-04-25T12:29:27.937Z</time></trkpt><trkpt lat="43.747075" lon="12.735075"><ele>189.0</ele><time>2026-04-25T12:29:28.937Z</time></trkpt><trkpt lat="43.7470417" lon="12.73519"><ele>189.0</ele><time>2026-04-25T12:29:29.936Z</time></trkpt><trkpt lat="43.7470417" lon="12.73528"><ele>189.0</ele><time>2026-04-25T12:29:30.937Z</time></trkpt><trkpt lat="43.7471467" lon="12.7353517"><ele>189.0</ele><time>2026-04-25T12:29:32.937Z</time></trkpt><trkpt lat="43.7472183" lon="12.7353467"><ele>188.2</ele><time>2026-04-25T12:29:33.937Z</time></trkpt><trkpt lat="43.747305" lon="12.7353233"><ele>187.39999999999998</ele><time>2026-04-25T12:29:34.937Z</time></trkpt><trkpt lat="43.747415" lon="12.7352867"><ele>186.6</ele><time>2026-04-25T12:29:35.937Z</time></trkpt><trkpt lat="43.7475183" lon="12.7352617"><ele>185.8</ele><time>2026-04-25T12:29:36.937Z</time></trkpt><trkpt lat="43.7476183" lon="12.7352917"><ele>185.0</ele><time>2026-04-25T12:29:37.937Z</time></trkpt><trkpt lat="43.7477017" lon="12.735375"><ele>183.75</ele><time>2026-04-25T12:29:38.936Z</time></trkpt><trkpt lat="43.7477683" lon="12.7355067"><ele>182.5</ele><time>2026-04-25T12:29:39.937Z</time></trkpt><trkpt lat="43.7478233" lon="12.7356667"><ele>181.25</ele><time>2026-04-25T12:29:40.937Z</time></trkpt><trkpt lat="43.7478867" lon="12.7358417"><ele>180.0</ele><time>2026-04-25T12:29:41.937Z</time></trkpt><trkpt lat="43.7479633" lon="12.7360133"><ele>180.25</ele><time>2026-04-25T12:29:42.937Z</time></trkpt><trkpt lat="43.7480417" lon="12.7361783"><ele>180.5</ele><time>2026-04-25T12:29:43.937Z</time></trkpt><trkpt lat="43.7481183" lon="12.7363317"><ele>180.75</ele><time>2026-04-25T12:29:44.937Z</time></trkpt><trkpt lat="43.7482067" lon="12.736455"><ele>181.0</ele><time>2026-04-25T12:29:45.937Z</time></trkpt><trkpt lat="43.74831" lon="12.7365367"><ele>181.0</ele><time>2026-04-25T12:29:46.937Z</time></trkpt><trkpt lat="43.7484167" lon="12.73659"><ele>181.0</ele><time>2026-04-25T12:29:47.936Z</time></trkpt><trkpt lat="43.7484917" lon="12.7366583"><ele>181.0</ele><time>2026-04-25T12:29:48.937Z</time></trkpt><trkpt lat="43.74855" lon="12.7367333"><ele>181.0</ele><time>2026-04-25T12:29:49.937Z</time></trkpt><trkpt lat="43.74858" lon="12.7368317"><ele>181.0</ele><time>2026-04-25T12:29:50.936Z</time></trkpt><trkpt lat="43.748585" lon="12.7369467"><ele>181.0</ele><time>2026-04-25T12:29:51.937Z</time></trkpt><trkpt lat="43.74864" lon="12.7370267"><ele>181.0</ele><time>2026-04-25T12:29:52.936Z</time></trkpt><trkpt lat="43.74872" lon="12.737095"><ele>181.0</ele><time>2026-04-25T12:29:53.937Z</time></trkpt><trkpt lat="43.7488217" lon="12.7371533"><ele>181.0</ele><time>2026-04-25T12:29:54.936Z</time></trkpt><trkpt lat="43.748925" lon="12.7372283"><ele>181.0</ele><time>2026-04-25T12:29:55.937Z</time></trkpt><trkpt lat="43.749035" lon="12.7373167"><ele>181.0</ele><time>2026-04-25T12:29:56.936Z</time></trkpt><trkpt lat="43.7491483" lon="12.7374133"><ele>181.0</ele><time>2026-04-25T12:29:57.937Z</time></trkpt><trkpt lat="43.749265" lon="12.7375133"><ele>181.0</ele><time>2026-04-25T12:29:58.936Z</time></trkpt><trkpt lat="43.7493817" lon="12.7376217"><ele>181.0</ele><time>2026-04-25T12:29:59.937Z</time></trkpt><trkpt lat="43.7495033" lon="12.7377267"><ele>181.0</ele><time>2026-04-25T12:30:00.937Z</time></trkpt><trkpt lat="43.7496283" lon="12.737825"><ele>180.5</ele><time>2026-04-25T12:30:01.937Z</time></trkpt><trkpt lat="43.7497517" lon="12.7379267"><ele>180.0</ele><time>2026-04-25T12:30:02.936Z</time></trkpt><trkpt lat="43.7498767" lon="12.7380317"><ele>179.5</ele><time>2026-04-25T12:30:03.937Z</time></trkpt><trkpt lat="43.7500017" lon="12.73814"><ele>179.0</ele><time>2026-04-25T12:30:04.937Z</time></trkpt><trkpt lat="43.75013" lon="12.7382367"><ele>178.5</ele><time>2026-04-25T12:30:05.937Z</time></trkpt><trkpt lat="43.75027" lon="12.738315"><ele>178.0</ele><time>2026-04-25T12:30:06.937Z</time></trkpt><trkpt lat="43.7504133" lon="12.738375"><ele>177.5</ele><time>2026-04-25T12:30:07.936Z</time></trkpt><trkpt lat="43.750555" lon="12.7384217"><ele>177.0</ele><time>2026-04-25T12:30:08.937Z</time></trkpt><trkpt lat="43.7506867" lon="12.7384733"><ele>177.0</ele><time>2026-04-25T12:30:09.937Z</time></trkpt><trkpt lat="43.75082" lon="12.7385"><ele>177.0</ele><time>2026-04-25T12:30:10.937Z</time></trkpt><trkpt lat="43.750955" lon="12.7384817"><ele>177.0</ele><time>2026-04-25T12:30:11.937Z</time></trkpt><trkpt lat="43.75109" lon="12.7384167"><ele>177.0</ele><time>2026-04-25T12:30:12.937Z</time></trkpt><trkpt lat="43.7512233" lon="12.73832"><ele>177.25</ele><time>2026-04-25T12:30:13.936Z</time></trkpt><trkpt lat="43.751355" lon="12.7382217"><ele>177.5</ele><time>2026-04-25T12:30:14.936Z</time></trkpt><trkpt lat="43.75148" lon="12.7381217"><ele>177.75</ele><time>2026-04-25T12:30:15.937Z</time></trkpt><trkpt lat="43.7516" lon="12.7380267"><ele>178.0</ele><time>2026-04-25T12:30:16.937Z</time></trkpt><trkpt lat="43.7517233" lon="12.7379367"><ele>178.0</ele><time>2026-04-25T12:30:17.937Z</time></trkpt><trkpt lat="43.75184" lon="12.737845"><ele>178.0</ele><time>2026-04-25T12:30:18.937Z</time></trkpt><trkpt lat="43.7519467" lon="12.7377433"><ele>178.0</ele><time>2026-04-25T12:30:19.937Z</time></trkpt><trkpt lat="43.7520683" lon="12.73767"><ele>178.0</ele><time>2026-04-25T12:30:20.937Z</time></trkpt><trkpt lat="43.7521967" lon="12.7376167"><ele>176.0</ele><time>2026-04-25T12:30:21.937Z</time></trkpt><trkpt lat="43.7523267" lon="12.737595"><ele>174.0</ele><time>2026-04-25T12:30:22.937Z</time></trkpt><trkpt lat="43.752455" lon="12.7375983"><ele>172.0</ele><time>2026-04-25T12:30:23.937Z</time></trkpt><trkpt lat="43.7525833" lon="12.7376267"><ele>170.0</ele><time>2026-04-25T12:30:24.936Z</time></trkpt><trkpt lat="43.7527083" lon="12.73767"><ele>169.5</ele><time>2026-04-25T12:30:25.937Z</time></trkpt><trkpt lat="43.7528283" lon="12.7377183"><ele>169.0</ele><time>2026-04-25T12:30:26.937Z</time></trkpt><trkpt lat="43.75295" lon="12.7377583"><ele>168.5</ele><time>2026-04-25T12:30:27.936Z</time></trkpt><trkpt lat="43.7530717" lon="12.7377833"><ele>168.0</ele><time>2026-04-25T12:30:28.937Z</time></trkpt><trkpt lat="43.7531967" lon="12.7378017"><ele>169.5</ele><time>2026-04-25T12:30:29.936Z</time></trkpt><trkpt lat="43.75333" lon="12.7378183"><ele>171.0</ele><time>2026-04-25T12:30:30.937Z</time></trkpt><trkpt lat="43.7534683" lon="12.7378367"><ele>172.5</ele><time>2026-04-25T12:30:31.936Z</time></trkpt><trkpt lat="43.7536" lon="12.737865"><ele>174.0</ele><time>2026-04-25T12:30:32.937Z</time></trkpt><trkpt lat="43.7537233" lon="12.7378983"><ele>174.0</ele><time>2026-04-25T12:30:33.936Z</time></trkpt><trkpt lat="43.7538517" lon="12.7379367"><ele>174.0</ele><time>2026-04-25T12:30:34.937Z</time></trkpt><trkpt lat="43.7539833" lon="12.7379617"><ele>174.0</ele><time>2026-04-25T12:30:35.937Z</time></trkpt><trkpt lat="43.7541133" lon="12.73798"><ele>174.0</ele><time>2026-04-25T12:30:36.937Z</time></trkpt><trkpt lat="43.7542383" lon="12.7380067"><ele>174.0</ele><time>2026-04-25T12:30:37.937Z</time></trkpt><trkpt lat="43.754355" lon="12.73806"><ele>174.0</ele><time>2026-04-25T12:30:38.937Z</time></trkpt><trkpt lat="43.75447" lon="12.7381317"><ele>174.0</ele><time>2026-04-25T12:30:39.937Z</time></trkpt><trkpt lat="43.7545983" lon="12.7381683"><ele>174.0</ele><time>2026-04-25T12:30:40.937Z</time></trkpt><trkpt lat="43.7547333" lon="12.73819"><ele>174.0</ele><time>2026-04-25T12:30:41.936Z</time></trkpt><trkpt lat="43.7548667" lon="12.7382033"><ele>174.0</ele><time>2026-04-25T12:30:42.937Z</time></trkpt><trkpt lat="43.7550017" lon="12.73821"><ele>174.0</ele><time>2026-04-25T12:30:43.937Z</time></trkpt><trkpt lat="43.75514" lon="12.7381933"><ele>174.0</ele><time>2026-04-25T12:30:44.937Z</time></trkpt><trkpt lat="43.755285" lon="12.7381517"><ele>175.33333333333334</ele><time>2026-04-25T12:30:45.936Z</time></trkpt><trkpt lat="43.75543" lon="12.7381067"><ele>176.66666666666669</ele><time>2026-04-25T12:30:46.937Z</time></trkpt><trkpt lat="43.755575" lon="12.7380633"><ele>178.0</ele><time>2026-04-25T12:30:47.936Z</time></trkpt><trkpt lat="43.7557267" lon="12.7380333"><ele>178.0</ele><time>2026-04-25T12:30:48.937Z</time></trkpt><trkpt lat="43.7558767" lon="12.7380183"><ele>178.0</ele><time>2026-04-25T12:30:49.937Z</time></trkpt><trkpt lat="43.75602" lon="12.73802"><ele>178.0</ele><time>2026-04-25T12:30:50.937Z</time></trkpt><trkpt lat="43.7561433" lon="12.73804"><ele>178.0</ele><time>2026-04-25T12:30:51.937Z</time></trkpt><trkpt lat="43.7562467" lon="12.73809"><ele>177.2</ele><time>2026-04-25T12:30:52.937Z</time></trkpt><trkpt lat="43.75633" lon="12.7381817"><ele>176.4</ele><time>2026-04-25T12:30:53.937Z</time></trkpt><trkpt lat="43.7564033" lon="12.7383017"><ele>175.6</ele><time>2026-04-25T12:30:54.937Z</time></trkpt><trkpt lat="43.756475" lon="12.7384233"><ele>174.79999999999998</ele><time>2026-04-25T12:30:55.937Z</time></trkpt><trkpt lat="43.75654" lon="12.73853"><ele>174.0</ele><time>2026-04-25T12:30:56.937Z</time></trkpt><trkpt lat="43.7565967" lon="12.7386117"><ele>174.0</ele><time>2026-04-25T12:30:57.936Z</time></trkpt><trkpt lat="43.7566267" lon="12.738695"><ele>174.0</ele><time>2026-04-25T12:30:58.937Z</time></trkpt><trkpt lat="43.756625" lon="12.73887"><ele>174.0</ele><time>2026-04-25T12:31:00.936Z</time></trkpt><trkpt lat="43.7566017" lon="12.7389733"><ele>174.0</ele><time>2026-04-25T12:31:01.936Z</time></trkpt><trkpt lat="43.7565667" lon="12.739095"><ele>174.0</ele><time>2026-04-25T12:31:02.937Z</time></trkpt><trkpt lat="43.7565117" lon="12.7392267"><ele>174.0</ele><time>2026-04-25T12:31:03.937Z</time></trkpt><trkpt lat="43.7564517" lon="12.7393583"><ele>174.0</ele><time>2026-04-25T12:31:04.937Z</time></trkpt><trkpt lat="43.7564017" lon="12.7394917"><ele>174.0</ele><time>2026-04-25T12:31:05.937Z</time></trkpt><trkpt lat="43.7563867" lon="12.73962"><ele>174.0</ele><time>2026-04-25T12:31:06.937Z</time></trkpt><trkpt lat="43.756405" lon="12.739735"><ele>174.0</ele><time>2026-04-25T12:31:07.937Z</time></trkpt><trkpt lat="43.7564583" lon="12.7398083"><ele>174.16666666666666</ele><time>2026-04-25T12:31:08.937Z</time></trkpt><trkpt lat="43.756525" lon="12.7398483"><ele>174.33333333333334</ele><time>2026-04-25T12:31:09.937Z</time></trkpt><trkpt lat="43.756595" lon="12.73985"><ele>174.5</ele><time>2026-04-25T12:31:10.937Z</time></trkpt><trkpt lat="43.7566717" lon="12.7398083"><ele>174.66666666666669</ele><time>2026-04-25T12:31:11.937Z</time></trkpt><trkpt lat="43.7567533" lon="12.7397383"><ele>174.83333333333334</ele><time>2026-04-25T12:31:12.936Z</time></trkpt><trkpt lat="43.7568283" lon="12.739655"><ele>175.0</ele><time>2026-04-25T12:31:13.937Z</time></trkpt><trkpt lat="43.7568883" lon="12.73955"><ele>177.2</ele><time>2026-04-25T12:31:14.937Z</time></trkpt><trkpt lat="43.75693" lon="12.7394283"><ele>179.4</ele><time>2026-04-25T12:31:15.937Z</time></trkpt><trkpt lat="43.7569567" lon="12.7393"><ele>181.60000000000002</ele><time>2026-04-25T12:31:16.937Z</time></trkpt><trkpt lat="43.756985" lon="12.73918"><ele>183.8</ele><time>2026-04-25T12:31:17.937Z</time></trkpt><trkpt lat="43.7570317" lon="12.7390717"><ele>186.0</ele><time>2026-04-25T12:31:18.937Z</time></trkpt><trkpt lat="43.7570917" lon="12.7389867"><ele>186.0</ele><time>2026-04-25T12:31:19.937Z</time></trkpt><trkpt lat="43.7571533" lon="12.738925"><ele>186.0</ele><time>2026-04-25T12:31:20.937Z</time></trkpt><trkpt lat="43.7572233" lon="12.73889"><ele>186.0</ele><time>2026-04-25T12:31:21.937Z</time></trkpt><trkpt lat="43.7572967" lon="12.7388833"><ele>186.0</ele><time>2026-04-25T12:31:22.937Z</time></trkpt><trkpt lat="43.75738" lon="12.7389083"><ele>186.0</ele><time>2026-04-25T12:31:23.937Z</time></trkpt><trkpt lat="43.7574717" lon="12.7389683"><ele>186.0</ele><time>2026-04-25T12:31:24.937Z</time></trkpt><trkpt lat="43.757565" lon="12.739065"><ele>186.0</ele><time>2026-04-25T12:31:25.937Z</time></trkpt><trkpt lat="43.7576567" lon="12.7391767"><ele>186.0</ele><time>2026-04-25T12:31:26.937Z</time></trkpt><trkpt lat="43.757755" lon="12.7393033"><ele>186.0</ele><time>2026-04-25T12:31:27.937Z</time></trkpt><trkpt lat="43.75786" lon="12.7394383"><ele>186.0</ele><time>2026-04-25T12:31:28.937Z</time></trkpt><trkpt lat="43.757965" lon="12.7395583"><ele>187.75</ele><time>2026-04-25T12:31:29.937Z</time></trkpt><trkpt lat="43.7580633" lon="12.7396667"><ele>189.5</ele><time>2026-04-25T12:31:30.937Z</time></trkpt><trkpt lat="43.7581483" lon="12.7397817"><ele>191.25</ele><time>2026-04-25T12:31:31.936Z</time></trkpt><trkpt lat="43.75822" lon="12.7399033"><ele>193.0</ele><time>2026-04-25T12:31:32.937Z</time></trkpt><trkpt lat="43.7582983" lon="12.7400133"><ele>193.0</ele><time>2026-04-25T12:31:33.936Z</time></trkpt><trkpt lat="43.758395" lon="12.7400967"><ele>193.0</ele><time>2026-04-25T12:31:34.937Z</time></trkpt><trkpt lat="43.7584933" lon="12.7401733"><ele>193.0</ele><time>2026-04-25T12:31:35.937Z</time></trkpt><trkpt lat="43.7585733" lon="12.74026"><ele>193.0</ele><time>2026-04-25T12:31:36.937Z</time></trkpt><trkpt lat="43.7586183" lon="12.74035"><ele>193.0</ele><time>2026-04-25T12:31:37.936Z</time></trkpt><trkpt lat="43.7586217" lon="12.7405"><ele>196.60000000000002</ele><time>2026-04-25T12:31:39.937Z</time></trkpt><trkpt lat="43.7585" lon="12.7405417"><ele>200.20000000000002</ele><time>2026-04-25T12:31:41.936Z</time></trkpt><trkpt lat="43.7584233" lon="12.74056"><ele>203.8</ele><time>2026-04-25T12:31:42.937Z</time></trkpt><trkpt lat="43.7583417" lon="12.7405967"><ele>207.4</ele><time>2026-04-25T12:31:43.937Z</time></trkpt><trkpt lat="43.7582617" lon="12.7406733"><ele>211.0</ele><time>2026-04-25T12:31:44.937Z</time></trkpt><trkpt lat="43.7581883" lon="12.7407683"><ele>211.0</ele><time>2026-04-25T12:31:45.937Z</time></trkpt><trkpt lat="43.7581333" lon="12.7408767"><ele>211.0</ele><time>2026-04-25T12:31:46.937Z</time></trkpt><trkpt lat="43.7580933" lon="12.740985"><ele>211.0</ele><time>2026-04-25T12:31:47.937Z</time></trkpt><trkpt lat="43.7580733" lon="12.741085"><ele>211.0</ele><time>2026-04-25T12:31:48.937Z</time></trkpt><trkpt lat="43.758115" lon="12.7412267"><ele>211.0</ele><time>2026-04-25T12:31:50.936Z</time></trkpt><trkpt lat="43.758245" lon="12.7412733"><ele>213.66666666666666</ele><time>2026-04-25T12:31:52.937Z</time></trkpt><trkpt lat="43.7583233" lon="12.7412867"><ele>216.33333333333331</ele><time>2026-04-25T12:31:53.937Z</time></trkpt><trkpt lat="43.75839" lon="12.7413383"><ele>219.0</ele><time>2026-04-25T12:31:54.937Z</time></trkpt><trkpt lat="43.7584433" lon="12.7414167"><ele>221.66666666666669</ele><time>2026-04-25T12:31:55.937Z</time></trkpt><trkpt lat="43.7584767" lon="12.7415133"><ele>224.33333333333334</ele><time>2026-04-25T12:31:56.937Z</time></trkpt><trkpt lat="43.7584917" lon="12.7416267"><ele>227.0</ele><time>2026-04-25T12:31:57.937Z</time></trkpt><trkpt lat="43.7584917" lon="12.7417433"><ele>227.00000000000003</ele><time>2026-04-25T12:31:58.937Z</time></trkpt><trkpt lat="43.7584867" lon="12.741855"><ele>227.0</ele><time>2026-04-25T12:31:59.937Z</time></trkpt><trkpt lat="43.7584933" lon="12.7419583"><ele>227.0</ele><time>2026-04-25T12:32:00.937Z</time></trkpt><trkpt lat="43.758525" lon="12.742055"><ele>227.0</ele><time>2026-04-25T12:32:01.937Z</time></trkpt><trkpt lat="43.7585883" lon="12.742145"><ele>227.00000000000003</ele><time>2026-04-25T12:32:02.937Z</time></trkpt><trkpt lat="43.7586833" lon="12.7422367"><ele>227.0</ele><time>2026-04-25T12:32:03.937Z</time></trkpt><trkpt lat="43.758795" lon="12.7423433"><ele>227.75</ele><time>2026-04-25T12:32:04.937Z</time></trkpt><trkpt lat="43.7588967" lon="12.7424467"><ele>228.5</ele><time>2026-04-25T12:32:05.937Z</time></trkpt><trkpt lat="43.7589967" lon="12.7425367"><ele>229.25</ele><time>2026-04-25T12:32:06.937Z</time></trkpt><trkpt lat="43.75911" lon="12.742615"><ele>230.0</ele><time>2026-04-25T12:32:07.936Z</time></trkpt><trkpt lat="43.7592317" lon="12.7426917"><ele>229.0</ele><time>2026-04-25T12:32:08.937Z</time></trkpt><trkpt lat="43.7593583" lon="12.7427683"><ele>228.0</ele><time>2026-04-25T12:32:09.937Z</time></trkpt><trkpt lat="43.759495" lon="12.7428383"><ele>227.0</ele><time>2026-04-25T12:32:10.936Z</time></trkpt><trkpt lat="43.7596333" lon="12.7428883"><ele>226.0</ele><time>2026-04-25T12:32:11.937Z</time></trkpt><trkpt lat="43.7597583" lon="12.7429267"><ele>230.0</ele><time>2026-04-25T12:32:12.936Z</time></trkpt><trkpt lat="43.7598767" lon="12.7429667"><ele>234.0</ele><time>2026-04-25T12:32:13.937Z</time></trkpt><trkpt lat="43.7599817" lon="12.743055"><ele>238.0</ele><time>2026-04-25T12:32:14.936Z</time></trkpt><trkpt lat="43.7600867" lon="12.7431533"><ele>242.0</ele><time>2026-04-25T12:32:15.937Z</time></trkpt><trkpt lat="43.7602017" lon="12.74321"><ele>244.25</ele><time>2026-04-25T12:32:16.937Z</time></trkpt><trkpt lat="43.7603283" lon="12.743255"><ele>246.5</ele><time>2026-04-25T12:32:17.937Z</time></trkpt><trkpt lat="43.7604617" lon="12.7432983"><ele>248.75</ele><time>2026-04-25T12:32:18.937Z</time></trkpt><trkpt lat="43.7605983" lon="12.7433383"><ele>251.0</ele><time>2026-04-25T12:32:19.936Z</time></trkpt><trkpt lat="43.7607267" lon="12.7433817"><ele>251.0</ele><time>2026-04-25T12:32:20.937Z</time></trkpt><trkpt lat="43.7608467" lon="12.743415"><ele>251.00000000000003</ele><time>2026-04-25T12:32:21.937Z</time></trkpt><trkpt lat="43.7609483" lon="12.7434683"><ele>251.00000000000003</ele><time>2026-04-25T12:32:22.937Z</time></trkpt><trkpt lat="43.761025" lon="12.7435233"><ele>251.0</ele><time>2026-04-25T12:32:23.937Z</time></trkpt><trkpt lat="43.76107" lon="12.7435933"><ele>251.0</ele><time>2026-04-25T12:32:24.937Z</time></trkpt><trkpt lat="43.7610833" lon="12.7436917"><ele>252.50000000000003</ele><time>2026-04-25T12:32:25.937Z</time></trkpt><trkpt lat="43.761085" lon="12.7437867"><ele>254.0</ele><time>2026-04-25T12:32:26.936Z</time></trkpt><trkpt lat="43.761065" lon="12.74387"><ele>255.5</ele><time>2026-04-25T12:32:27.937Z</time></trkpt><trkpt lat="43.761025" lon="12.7439483"><ele>257.0</ele><time>2026-04-25T12:32:28.937Z</time></trkpt><trkpt lat="43.761035" lon="12.744055"><ele>258.5</ele><time>2026-04-25T12:32:30.936Z</time></trkpt><trkpt lat="43.7611433" lon="12.7440883"><ele>260.0</ele><time>2026-04-25T12:32:32.937Z</time></trkpt><trkpt lat="43.7612283" lon="12.7441033"><ele>261.4</ele><time>2026-04-25T12:32:33.937Z</time></trkpt><trkpt lat="43.76132" lon="12.7441583"><ele>262.8</ele><time>2026-04-25T12:32:34.937Z</time></trkpt><trkpt lat="43.7614083" lon="12.7442433"><ele>264.2</ele><time>2026-04-25T12:32:35.937Z</time></trkpt><trkpt lat="43.7614917" lon="12.7443417"><ele>265.6</ele><time>2026-04-25T12:32:36.937Z</time></trkpt><trkpt lat="43.7615717" lon="12.7444367"><ele>267.0</ele><time>2026-04-25T12:32:37.936Z</time></trkpt><trkpt lat="43.7616533" lon="12.74452"><ele>267.5</ele><time>2026-04-25T12:32:38.937Z</time></trkpt><trkpt lat="43.76175" lon="12.7445767"><ele>268.0</ele><time>2026-04-25T12:32:39.937Z</time></trkpt><trkpt lat="43.7618567" lon="12.7446267"><ele>268.5</ele><time>2026-04-25T12:32:40.937Z</time></trkpt><trkpt lat="43.7619783" lon="12.7446633"><ele>269.0</ele><time>2026-04-25T12:32:41.936Z</time></trkpt><trkpt lat="43.7621033" lon="12.744695"><ele>271.59999999999997</ele><time>2026-04-25T12:32:42.937Z</time></trkpt><trkpt lat="43.762225" lon="12.744725"><ele>274.2</ele><time>2026-04-25T12:32:43.937Z</time></trkpt><trkpt lat="43.7623417" lon="12.7447433"><ele>276.79999999999995</ele><time>2026-04-25T12:32:44.937Z</time></trkpt><trkpt lat="43.762435" lon="12.7447617"><ele>279.4</ele><time>2026-04-25T12:32:45.937Z</time></trkpt><trkpt lat="43.762505" lon="12.744805"><ele>282.0</ele><time>2026-04-25T12:32:46.937Z</time></trkpt><trkpt lat="43.76255" lon="12.7449017"><ele>282.0</ele><time>2026-04-25T12:32:47.937Z</time></trkpt><trkpt lat="43.7625867" lon="12.7450217"><ele>282.0</ele><time>2026-04-25T12:32:48.937Z</time></trkpt><trkpt lat="43.7626283" lon="12.7451317"><ele>282.0</ele><time>2026-04-25T12:32:49.936Z</time></trkpt><trkpt lat="43.7626983" lon="12.7452"><ele>282.0</ele><time>2026-04-25T12:32:50.937Z</time></trkpt><trkpt lat="43.76279" lon="12.74523"><ele>282.0</ele><time>2026-04-25T12:32:51.937Z</time></trkpt><trkpt lat="43.7628867" lon="12.7452317"><ele>286.0</ele><time>2026-04-25T12:32:52.937Z</time></trkpt><trkpt lat="43.7629933" lon="12.7452233"><ele>290.0</ele><time>2026-04-25T12:32:53.936Z</time></trkpt><trkpt lat="43.763105" lon="12.745255"><ele>294.0</ele><time>2026-04-25T12:32:54.937Z</time></trkpt><trkpt lat="43.76322" lon="12.7453183"><ele>298.0</ele><time>2026-04-25T12:32:55.937Z</time></trkpt><trkpt lat="43.76333" lon="12.7453883"><ele>298.0</ele><time>2026-04-25T12:32:56.937Z</time></trkpt><trkpt lat="43.7634333" lon="12.7454733"><ele>298.0</ele><time>2026-04-25T12:32:57.937Z</time></trkpt><trkpt lat="43.76353" lon="12.74558"><ele>298.0</ele><time>2026-04-25T12:32:58.937Z</time></trkpt><trkpt lat="43.7636133" lon="12.7456917"><ele>298.0</ele><time>2026-04-25T12:32:59.937Z</time></trkpt><trkpt lat="43.76369" lon="12.74579"><ele>298.8</ele><time>2026-04-25T12:33:00.937Z</time></trkpt><trkpt lat="43.763755" lon="12.74588"><ele>299.6</ele><time>2026-04-25T12:33:01.937Z</time></trkpt><trkpt lat="43.763805" lon="12.7459567"><ele>300.4</ele><time>2026-04-25T12:33:02.937Z</time></trkpt><trkpt lat="43.76388" lon="12.746"><ele>301.2</ele><time>2026-04-25T12:33:04.936Z</time></trkpt><trkpt lat="43.76396" lon="12.7459483"><ele>302.0</ele><time>2026-04-25T12:33:06.937Z</time></trkpt><trkpt lat="43.76404" lon="12.745805"><ele>302.0</ele><time>2026-04-25T12:33:08.937Z</time></trkpt><trkpt lat="43.7640817" lon="12.7457083"><ele>302.0</ele><time>2026-04-25T12:33:09.937Z</time></trkpt><trkpt lat="43.7641367" lon="12.7456033"><ele>302.0</ele><time>2026-04-25T12:33:10.937Z</time></trkpt><trkpt lat="43.7642017" lon="12.7454967"><ele>302.0</ele><time>2026-04-25T12:33:11.937Z</time></trkpt><trkpt lat="43.76427" lon="12.74538"><ele>302.0</ele><time>2026-04-25T12:33:12.937Z</time></trkpt><trkpt lat="43.7643417" lon="12.7452533"><ele>300.25</ele><time>2026-04-25T12:33:13.937Z</time></trkpt><trkpt lat="43.764415" lon="12.74512"><ele>298.5</ele><time>2026-04-25T12:33:14.937Z</time></trkpt><trkpt lat="43.7644867" lon="12.7449767"><ele>296.75</ele><time>2026-04-25T12:33:15.937Z</time></trkpt><trkpt lat="43.764555" lon="12.7448283"><ele>295.0</ele><time>2026-04-25T12:33:16.937Z</time></trkpt><trkpt lat="43.7646133" lon="12.7446683"><ele>295.0</ele><time>2026-04-25T12:33:17.937Z</time></trkpt><trkpt lat="43.7646667" lon="12.7445083"><ele>295.0</ele><time>2026-04-25T12:33:18.937Z</time></trkpt><trkpt lat="43.764715" lon="12.7443467"><ele>295.0</ele><time>2026-04-25T12:33:19.937Z</time></trkpt><trkpt lat="43.76476" lon="12.7441817"><ele>295.0</ele><time>2026-04-25T12:33:20.936Z</time></trkpt><trkpt lat="43.764805" lon="12.7440167"><ele>298.25</ele><time>2026-04-25T12:33:21.936Z</time></trkpt><trkpt lat="43.7648517" lon="12.7438483"><ele>301.5</ele><time>2026-04-25T12:33:22.937Z</time></trkpt><trkpt lat="43.7649033" lon="12.7436867"><ele>304.75</ele><time>2026-04-25T12:33:23.937Z</time></trkpt><trkpt lat="43.764965" lon="12.7435383"><ele>308.0</ele><time>2026-04-25T12:33:24.937Z</time></trkpt><trkpt lat="43.765025" lon="12.743395"><ele>307.25</ele><time>2026-04-25T12:33:25.937Z</time></trkpt><trkpt lat="43.7650817" lon="12.7432517"><ele>306.5</ele><time>2026-04-25T12:33:26.937Z</time></trkpt><trkpt lat="43.7651367" lon="12.7431133"><ele>305.75</ele><time>2026-04-25T12:33:27.937Z</time></trkpt><trkpt lat="43.7651917" lon="12.74298"><ele>305.0</ele><time>2026-04-25T12:33:28.937Z</time></trkpt><trkpt lat="43.7652483" lon="12.7428467"><ele>305.0</ele><time>2026-04-25T12:33:29.937Z</time></trkpt><trkpt lat="43.7653117" lon="12.7427217"><ele>305.0</ele><time>2026-04-25T12:33:30.937Z</time></trkpt><trkpt lat="43.7653767" lon="12.7425983"><ele>305.0</ele><time>2026-04-25T12:33:31.936Z</time></trkpt><trkpt lat="43.76544" lon="12.7424783"><ele>305.0</ele><time>2026-04-25T12:33:32.937Z</time></trkpt><trkpt lat="43.7655067" lon="12.7423633"><ele>305.0</ele><time>2026-04-25T12:33:33.937Z</time></trkpt><trkpt lat="43.7655683" lon="12.7422483"><ele>306.8</ele><time>2026-04-25T12:33:34.937Z</time></trkpt><trkpt lat="43.765635" lon="12.7421383"><ele>308.6</ele><time>2026-04-25T12:33:35.936Z</time></trkpt><trkpt lat="43.7657" lon="12.7420183"><ele>310.4</ele><time>2026-04-25T12:33:36.937Z</time></trkpt><trkpt lat="43.7657683" lon="12.7418983"><ele>312.2</ele><time>2026-04-25T12:33:37.937Z</time></trkpt><trkpt lat="43.7658367" lon="12.7417767"><ele>314.0</ele><time>2026-04-25T12:33:38.937Z</time></trkpt><trkpt lat="43.7659117" lon="12.7416617"><ele>314.25</ele><time>2026-04-25T12:33:39.936Z</time></trkpt><trkpt lat="43.7659883" lon="12.741545"><ele>314.5</ele><time>2026-04-25T12:33:40.937Z</time></trkpt><trkpt lat="43.76606" lon="12.7414233"><ele>314.75</ele><time>2026-04-25T12:33:41.937Z</time></trkpt><trkpt lat="43.7661367" lon="12.741305"><ele>315.0</ele><time>2026-04-25T12:33:42.937Z</time></trkpt><trkpt lat="43.7662117" lon="12.7411883"><ele>313.5</ele><time>2026-04-25T12:33:43.937Z</time></trkpt><trkpt lat="43.7662883" lon="12.7410683"><ele>312.0</ele><time>2026-04-25T12:33:44.937Z</time></trkpt><trkpt lat="43.766365" lon="12.740945"><ele>310.5</ele><time>2026-04-25T12:33:45.937Z</time></trkpt><trkpt lat="43.7664367" lon="12.7408183"><ele>309.0</ele><time>2026-04-25T12:33:46.936Z</time></trkpt><trkpt lat="43.76651" lon="12.7406883"><ele>309.0</ele><time>2026-04-25T12:33:47.937Z</time></trkpt><trkpt lat="43.766585" lon="12.7405567"><ele>309.0</ele><time>2026-04-25T12:33:48.937Z</time></trkpt><trkpt lat="43.766665" lon="12.7404317"><ele>309.0</ele><time>2026-04-25T12:33:49.936Z</time></trkpt><trkpt lat="43.7667417" lon="12.7403"><ele>309.0</ele><time>2026-04-25T12:33:50.936Z</time></trkpt><trkpt lat="43.7668217" lon="12.74017"><ele>307.5</ele><time>2026-04-25T12:33:51.937Z</time></trkpt><trkpt lat="43.7669017" lon="12.7400417"><ele>306.0</ele><time>2026-04-25T12:33:52.937Z</time></trkpt><trkpt lat="43.7669867" lon="12.7399217"><ele>304.5</ele><time>2026-04-25T12:33:53.937Z</time></trkpt><trkpt lat="43.7670783" lon="12.7398217"><ele>303.0</ele><time>2026-04-25T12:33:54.937Z</time></trkpt><trkpt lat="43.7671767" lon="12.7397333"><ele>303.0</ele><time>2026-04-25T12:33:55.937Z</time></trkpt><trkpt lat="43.7672767" lon="12.7396583"><ele>303.0</ele><time>2026-04-25T12:33:56.937Z</time></trkpt><trkpt lat="43.76738" lon="12.739595"><ele>303.0</ele><time>2026-04-25T12:33:57.936Z</time></trkpt><trkpt lat="43.7674867" lon="12.7395383"><ele>303.0</ele><time>2026-04-25T12:33:58.937Z</time></trkpt><trkpt lat="43.7675917" lon="12.7394817"><ele>303.75</ele><time>2026-04-25T12:33:59.937Z</time></trkpt><trkpt lat="43.767695" lon="12.73942"><ele>304.5</ele><time>2026-04-25T12:34:00.936Z</time></trkpt><trkpt lat="43.767795" lon="12.7393483"><ele>305.25</ele><time>2026-04-25T12:34:01.937Z</time></trkpt><trkpt lat="43.767895" lon="12.73926"><ele>306.0</ele><time>2026-04-25T12:34:02.937Z</time></trkpt><trkpt lat="43.76799" lon="12.7391533"><ele>306.0</ele><time>2026-04-25T12:34:03.937Z</time></trkpt><trkpt lat="43.7680767" lon="12.7390267"><ele>306.0</ele><time>2026-04-25T12:34:04.937Z</time></trkpt><trkpt lat="43.76815" lon="12.738885"><ele>306.0</ele><time>2026-04-25T12:34:05.937Z</time></trkpt><trkpt lat="43.7682183" lon="12.7387367"><ele>306.0</ele><time>2026-04-25T12:34:06.937Z</time></trkpt><trkpt lat="43.7682867" lon="12.7385867"><ele>303.75</ele><time>2026-04-25T12:34:07.937Z</time></trkpt><trkpt lat="43.7683617" lon="12.7384383"><ele>301.5</ele><time>2026-04-25T12:34:08.937Z</time></trkpt><trkpt lat="43.768435" lon="12.73829"><ele>299.25</ele><time>2026-04-25T12:34:09.937Z</time></trkpt><trkpt lat="43.7685083" lon="12.73815"><ele>297.0</ele><time>2026-04-25T12:34:10.936Z</time></trkpt><trkpt lat="43.7685833" lon="12.738015"><ele>297.0</ele><time>2026-04-25T12:34:11.937Z</time></trkpt><trkpt lat="43.7686667" lon="12.73789"><ele>297.0</ele><time>2026-04-25T12:34:12.937Z</time></trkpt><trkpt lat="43.768755" lon="12.7377667"><ele>297.0</ele><time>2026-04-25T12:34:13.937Z</time></trkpt><trkpt lat="43.76886" lon="12.7376667"><ele>297.0</ele><time>2026-04-25T12:34:14.937Z</time></trkpt><trkpt lat="43.7689733" lon="12.737585"><ele>298.25</ele><time>2026-04-25T12:34:15.937Z</time></trkpt><trkpt lat="43.7690917" lon="12.7375183"><ele>299.5</ele><time>2026-04-25T12:34:16.937Z</time></trkpt><trkpt lat="43.7692083" lon="12.73746"><ele>300.75</ele><time>2026-04-25T12:34:17.936Z</time></trkpt><trkpt lat="43.7693233" lon="12.7374"><ele>302.0</ele><time>2026-04-25T12:34:18.937Z</time></trkpt><trkpt lat="43.76944" lon="12.7373367"><ele>302.0</ele><time>2026-04-25T12:34:19.937Z</time></trkpt><trkpt lat="43.7695617" lon="12.7372883"><ele>302.0</ele><time>2026-04-25T12:34:20.936Z</time></trkpt><trkpt lat="43.7696783" lon="12.7372283"><ele>302.0</ele><time>2026-04-25T12:34:21.937Z</time></trkpt><trkpt lat="43.7697933" lon="12.7371683"><ele>302.0</ele><time>2026-04-25T12:34:22.937Z</time></trkpt><trkpt lat="43.769905" lon="12.737115"><ele>302.0</ele><time>2026-04-25T12:34:23.937Z</time></trkpt><trkpt lat="43.770015" lon="12.7370617"><ele>302.0</ele><time>2026-04-25T12:34:24.937Z</time></trkpt><trkpt lat="43.770125" lon="12.7370133"><ele>302.0</ele><time>2026-04-25T12:34:25.937Z</time></trkpt><trkpt lat="43.7702417" lon="12.736955"><ele>302.0</ele><time>2026-04-25T12:34:26.937Z</time></trkpt><trkpt lat="43.7703633" lon="12.7368967"><ele>300.75</ele><time>2026-04-25T12:34:27.937Z</time></trkpt><trkpt lat="43.770485" lon="12.7368333"><ele>299.5</ele><time>2026-04-25T12:34:28.937Z</time></trkpt><trkpt lat="43.7706083" lon="12.7367733"><ele>298.25</ele><time>2026-04-25T12:34:29.936Z</time></trkpt><trkpt lat="43.7707333" lon="12.73671"><ele>297.0</ele><time>2026-04-25T12:34:30.936Z</time></trkpt><trkpt lat="43.7708583" lon="12.7366483"><ele>297.0</ele><time>2026-04-25T12:34:31.937Z</time></trkpt><trkpt lat="43.7709817" lon="12.736585"><ele>297.0</ele><time>2026-04-25T12:34:32.937Z</time></trkpt><trkpt lat="43.771105" lon="12.7365217"><ele>297.0</ele><time>2026-04-25T12:34:33.937Z</time></trkpt><trkpt lat="43.7712317" lon="12.736455"><ele>297.0</ele><time>2026-04-25T12:34:34.937Z</time></trkpt><trkpt lat="43.7713583" lon="12.7363817"><ele>295.75</ele><time>2026-04-25T12:34:35.937Z</time></trkpt><trkpt lat="43.7714817" lon="12.7363083"><ele>294.5</ele><time>2026-04-25T12:34:36.937Z</time></trkpt><trkpt lat="43.7715983" lon="12.7362267"><ele>293.25</ele><time>2026-04-25T12:34:37.937Z</time></trkpt><trkpt lat="43.7717133" lon="12.7361383"><ele>292.0</ele><time>2026-04-25T12:34:38.937Z</time></trkpt><trkpt lat="43.771825" lon="12.7360383"><ele>290.5</ele><time>2026-04-25T12:34:39.937Z</time></trkpt><trkpt lat="43.7719367" lon="12.7359367"><ele>289.0</ele><time>2026-04-25T12:34:40.937Z</time></trkpt><trkpt lat="43.7720567" lon="12.7358417"><ele>287.5</ele><time>2026-04-25T12:34:41.937Z</time></trkpt><trkpt lat="43.772175" lon="12.73574"><ele>286.0</ele><time>2026-04-25T12:34:42.937Z</time></trkpt><trkpt lat="43.77229" lon="12.7356417"><ele>286.0</ele><time>2026-04-25T12:34:43.937Z</time></trkpt><trkpt lat="43.7724067" lon="12.7355383"><ele>286.0</ele><time>2026-04-25T12:34:44.937Z</time></trkpt><trkpt lat="43.7725267" lon="12.7354383"><ele>286.0</ele><time>2026-04-25T12:34:45.937Z</time></trkpt><trkpt lat="43.7726483" lon="12.73534"><ele>286.0</ele><time>2026-04-25T12:34:46.936Z</time></trkpt><trkpt lat="43.7727667" lon="12.735235"><ele>289.0</ele><time>2026-04-25T12:34:47.937Z</time></trkpt><trkpt lat="43.7728867" lon="12.7351283"><ele>292.0</ele><time>2026-04-25T12:34:48.937Z</time></trkpt><trkpt lat="43.7730067" lon="12.73502"><ele>295.0</ele><time>2026-04-25T12:34:49.937Z</time></trkpt><trkpt lat="43.7731283" lon="12.734915"><ele>298.0</ele><time>2026-04-25T12:34:50.937Z</time></trkpt><trkpt lat="43.7732483" lon="12.7348117"><ele>298.0</ele><time>2026-04-25T12:34:51.937Z</time></trkpt><trkpt lat="43.773365" lon="12.7347083"><ele>298.0</ele><time>2026-04-25T12:34:52.937Z</time></trkpt><trkpt lat="43.77348" lon="12.7346133"><ele>298.0</ele><time>2026-04-25T12:34:53.937Z</time></trkpt><trkpt lat="43.7736033" lon="12.7345317"><ele>298.0</ele><time>2026-04-25T12:34:54.936Z</time></trkpt><trkpt lat="43.7737317" lon="12.734465"><ele>298.5</ele><time>2026-04-25T12:34:55.937Z</time></trkpt><trkpt lat="43.7738667" lon="12.7344217"><ele>299.0</ele><time>2026-04-25T12:34:56.937Z</time></trkpt><trkpt lat="43.774005" lon="12.7343983"><ele>299.5</ele><time>2026-04-25T12:34:57.937Z</time></trkpt><trkpt lat="43.7741417" lon="12.7343767"><ele>300.0</ele><time>2026-04-25T12:34:58.937Z</time></trkpt><trkpt lat="43.7742783" lon="12.7343533"><ele>300.25</ele><time>2026-04-25T12:34:59.937Z</time></trkpt><trkpt lat="43.7744133" lon="12.7343417"><ele>300.5</ele><time>2026-04-25T12:35:00.936Z</time></trkpt><trkpt lat="43.7745467" lon="12.7343217"><ele>300.75</ele><time>2026-04-25T12:35:01.937Z</time></trkpt><trkpt lat="43.77468" lon="12.7342883"><ele>301.0</ele><time>2026-04-25T12:35:02.937Z</time></trkpt><trkpt lat="43.7748017" lon="12.7342217"><ele>301.0</ele><time>2026-04-25T12:35:03.937Z</time></trkpt><trkpt lat="43.774915" lon="12.73413"><ele>301.0</ele><time>2026-04-25T12:35:04.937Z</time></trkpt><trkpt lat="43.775015" lon="12.7340133"><ele>301.0</ele><time>2026-04-25T12:35:05.937Z</time></trkpt><trkpt lat="43.775115" lon="12.73389"><ele>301.0</ele><time>2026-04-25T12:35:06.937Z</time></trkpt><trkpt lat="43.77521" lon="12.7337583"><ele>299.5</ele><time>2026-04-25T12:35:07.937Z</time></trkpt><trkpt lat="43.775295" lon="12.7336167"><ele>298.0</ele><time>2026-04-25T12:35:08.937Z</time></trkpt><trkpt lat="43.77539" lon="12.733485"><ele>296.5</ele><time>2026-04-25T12:35:09.937Z</time></trkpt><trkpt lat="43.7754833" lon="12.7333567"><ele>295.0</ele><time>2026-04-25T12:35:10.937Z</time></trkpt><trkpt lat="43.775575" lon="12.733225"><ele>297.25</ele><time>2026-04-25T12:35:11.937Z</time></trkpt><trkpt lat="43.77567" lon="12.733095"><ele>299.5</ele><time>2026-04-25T12:35:12.937Z</time></trkpt><trkpt lat="43.7757633" lon="12.73296"><ele>301.75</ele><time>2026-04-25T12:35:13.936Z</time></trkpt><trkpt lat="43.7758567" lon="12.7328283"><ele>304.0</ele><time>2026-04-25T12:35:14.937Z</time></trkpt><trkpt lat="43.7759533" lon="12.7327033"><ele>305.75</ele><time>2026-04-25T12:35:15.936Z</time></trkpt><trkpt lat="43.77605" lon="12.732595"><ele>307.5</ele><time>2026-04-25T12:35:16.936Z</time></trkpt><trkpt lat="43.7761483" lon="12.7325083"><ele>309.25</ele><time>2026-04-25T12:35:17.936Z</time></trkpt><trkpt lat="43.77625" lon="12.7324467"><ele>311.0</ele><time>2026-04-25T12:35:18.936Z</time></trkpt><trkpt lat="43.7763583" lon="12.7324267"><ele>311.0</ele><time>2026-04-25T12:35:19.937Z</time></trkpt><trkpt lat="43.7764683" lon="12.73246"><ele>311.0</ele><time>2026-04-25T12:35:20.937Z</time></trkpt><trkpt lat="43.7765833" lon="12.7325267"><ele>311.0</ele><time>2026-04-25T12:35:21.937Z</time></trkpt><trkpt lat="43.7766983" lon="12.7325933"><ele>311.0</ele><time>2026-04-25T12:35:22.937Z</time></trkpt><trkpt lat="43.7768183" lon="12.73266"><ele>312.25</ele><time>2026-04-25T12:35:23.937Z</time></trkpt><trkpt lat="43.7769383" lon="12.73273"><ele>313.5</ele><time>2026-04-25T12:35:24.937Z</time></trkpt><trkpt lat="43.7770617" lon="12.7327983"><ele>314.75</ele><time>2026-04-25T12:35:25.937Z</time></trkpt><trkpt lat="43.7771867" lon="12.73286"><ele>316.0</ele><time>2026-04-25T12:35:26.937Z</time></trkpt><trkpt lat="43.7773079" lon="12.7329232"><ele>316.0</ele><time>2026-04-25T12:35:27.937Z</time></trkpt><trkpt lat="43.7774267" lon="12.7329875"><ele>316.0</ele><time>2026-04-25T12:35:28.937Z</time></trkpt><trkpt lat="43.7775473" lon="12.7330511"><ele>316.0</ele><time>2026-04-25T12:35:29.937Z</time></trkpt><trkpt lat="43.7776681" lon="12.7331173"><ele>316.0</ele><time>2026-04-25T12:35:30.937Z</time></trkpt><trkpt lat="43.7777893" lon="12.7331823"><ele>315.5</ele><time>2026-04-25T12:35:31.937Z</time></trkpt><trkpt lat="43.7779142" lon="12.7332368"><ele>315.0</ele><time>2026-04-25T12:35:32.937Z</time></trkpt><trkpt lat="43.7780426" lon="12.7332731"><ele>314.5</ele><time>2026-04-25T12:35:33.936Z</time></trkpt><trkpt lat="43.7781732" lon="12.7332731"><ele>314.0</ele><time>2026-04-25T12:35:34.937Z</time></trkpt><trkpt lat="43.7782994" lon="12.7332182"><ele>314.0</ele><time>2026-04-25T12:35:35.937Z</time></trkpt><trkpt lat="43.7784185" lon="12.733129"><ele>314.0</ele><time>2026-04-25T12:35:36.936Z</time></trkpt><trkpt lat="43.7785329" lon="12.7330267"><ele>314.0</ele><time>2026-04-25T12:35:37.937Z</time></trkpt><trkpt lat="43.7786426" lon="12.7329202"><ele>314.0</ele><time>2026-04-25T12:35:38.937Z</time></trkpt><trkpt lat="43.7787528" lon="12.7328112"><ele>311.5</ele><time>2026-04-25T12:35:39.937Z</time></trkpt><trkpt lat="43.7788582" lon="12.7326938"><ele>309.0</ele><time>2026-04-25T12:35:40.937Z</time></trkpt><trkpt lat="43.7789661" lon="12.7325818"><ele>306.5</ele><time>2026-04-25T12:35:41.937Z</time></trkpt><trkpt lat="43.7790781" lon="12.7324788"><ele>304.0</ele><time>2026-04-25T12:35:42.937Z</time></trkpt><trkpt lat="43.7791858" lon="12.7323788"><ele>304.0</ele><time>2026-04-25T12:35:43.937Z</time></trkpt><trkpt lat="43.7792899" lon="12.7322849"><ele>304.0</ele><time>2026-04-25T12:35:44.937Z</time></trkpt><trkpt lat="43.7793914" lon="12.7321865"><ele>304.0</ele><time>2026-04-25T12:35:45.937Z</time></trkpt><trkpt lat="43.7794911" lon="12.7320849"><ele>304.0</ele><time>2026-04-25T12:35:46.937Z</time></trkpt><trkpt lat="43.7795838" lon="12.7319878"><ele>305.2</ele><time>2026-04-25T12:35:47.936Z</time></trkpt><trkpt lat="43.7796744" lon="12.7318917"><ele>306.4</ele><time>2026-04-25T12:35:48.937Z</time></trkpt><trkpt lat="43.779763" lon="12.7317997"><ele>307.6</ele><time>2026-04-25T12:35:49.937Z</time></trkpt><trkpt lat="43.7798518" lon="12.7317166"><ele>308.8</ele><time>2026-04-25T12:35:50.937Z</time></trkpt><trkpt lat="43.7799346" lon="12.7316214"><ele>310.0</ele><time>2026-04-25T12:35:51.937Z</time></trkpt><trkpt lat="43.7800105" lon="12.731513"><ele>307.0</ele><time>2026-04-25T12:35:52.937Z</time></trkpt><trkpt lat="43.780085" lon="12.7313999"><ele>304.0</ele><time>2026-04-25T12:35:53.937Z</time></trkpt><trkpt lat="43.7801602" lon="12.7312853"><ele>301.0</ele><time>2026-04-25T12:35:54.938Z</time></trkpt><trkpt lat="43.7802347" lon="12.7311693"><ele>298.0</ele><time>2026-04-25T12:35:55.938Z</time></trkpt><trkpt lat="43.7803085" lon="12.7310481"><ele>295.0</ele><time>2026-04-25T12:35:56.938Z</time></trkpt><trkpt lat="43.7803897" lon="12.7309406"><ele>293.6</ele><time>2026-04-25T12:35:57.938Z</time></trkpt><trkpt lat="43.7804766" lon="12.730849"><ele>292.2</ele><time>2026-04-25T12:35:58.938Z</time></trkpt><trkpt lat="43.780575" lon="12.730777"><ele>290.8</ele><time>2026-04-25T12:35:59.938Z</time></trkpt><trkpt lat="43.7806783" lon="12.7307133"><ele>289.4</ele><time>2026-04-25T12:36:00.938Z</time></trkpt><trkpt lat="43.780775" lon="12.7306367"><ele>288.0</ele><time>2026-04-25T12:36:01.938Z</time></trkpt><trkpt lat="43.78086" lon="12.7305467"><ele>288.0</ele><time>2026-04-25T12:36:02.938Z</time></trkpt><trkpt lat="43.7809283" lon="12.7304367"><ele>288.0</ele><time>2026-04-25T12:36:03.938Z</time></trkpt><trkpt lat="43.7809617" lon="12.7303133"><ele>288.0</ele><time>2026-04-25T12:36:04.937Z</time></trkpt><trkpt lat="43.7809533" lon="12.7301917"><ele>288.0</ele><time>2026-04-25T12:36:05.937Z</time></trkpt><trkpt lat="43.7809133" lon="12.7300833"><ele>288.0</ele><time>2026-04-25T12:36:06.937Z</time></trkpt><trkpt lat="43.7808267" lon="12.7299933"><ele>287.0</ele><time>2026-04-25T12:36:07.937Z</time></trkpt><trkpt lat="43.7807283" lon="12.7299483"><ele>286.0</ele><time>2026-04-25T12:36:08.938Z</time></trkpt><trkpt lat="43.78063" lon="12.72995"><ele>285.0</ele><time>2026-04-25T12:36:09.937Z</time></trkpt><trkpt lat="43.7805267" lon="12.729985"><ele>284.0</ele><time>2026-04-25T12:36:10.937Z</time></trkpt><trkpt lat="43.780425" lon="12.730015"><ele>283.0</ele><time>2026-04-25T12:36:11.938Z</time></trkpt><trkpt lat="43.78032" lon="12.7300367"><ele>283.0</ele><time>2026-04-25T12:36:12.937Z</time></trkpt><trkpt lat="43.7802133" lon="12.730055"><ele>283.0</ele><time>2026-04-25T12:36:13.938Z</time></trkpt><trkpt lat="43.78011" lon="12.7300833"><ele>283.0</ele><time>2026-04-25T12:36:14.938Z</time></trkpt><trkpt lat="43.7800167" lon="12.7301383"><ele>283.0</ele><time>2026-04-25T12:36:15.937Z</time></trkpt><trkpt lat="43.7799333" lon="12.7301967"><ele>283.0</ele><time>2026-04-25T12:36:16.938Z</time></trkpt><trkpt lat="43.7798533" lon="12.7302367"><ele>283.5</ele><time>2026-04-25T12:36:17.938Z</time></trkpt><trkpt lat="43.7797767" lon="12.7302617"><ele>284.0</ele><time>2026-04-25T12:36:18.938Z</time></trkpt><trkpt lat="43.77971" lon="12.73025"><ele>284.5</ele><time>2026-04-25T12:36:19.938Z</time></trkpt><trkpt lat="43.7796567" lon="12.7301867"><ele>285.0</ele><time>2026-04-25T12:36:20.937Z</time></trkpt><trkpt lat="43.7796267" lon="12.7300933"><ele>285.5</ele><time>2026-04-25T12:36:21.938Z</time></trkpt><trkpt lat="43.7796433" lon="12.7299783"><ele>286.0</ele><time>2026-04-25T12:36:22.937Z</time></trkpt><trkpt lat="43.779685" lon="12.72986"><ele>283.5</ele><time>2026-04-25T12:36:23.938Z</time></trkpt><trkpt lat="43.779755" lon="12.7297417"><ele>281.0</ele><time>2026-04-25T12:36:24.938Z</time></trkpt><trkpt lat="43.7798267" lon="12.7296133"><ele>278.5</ele><time>2026-04-25T12:36:25.938Z</time></trkpt><trkpt lat="43.7798883" lon="12.7294817"><ele>276.0</ele><time>2026-04-25T12:36:26.937Z</time></trkpt><trkpt lat="43.7799417" lon="12.7293383"><ele>273.25</ele><time>2026-04-25T12:36:27.938Z</time></trkpt><trkpt lat="43.7799967" lon="12.7292"><ele>270.5</ele><time>2026-04-25T12:36:28.937Z</time></trkpt><trkpt lat="43.7800483" lon="12.7290617"><ele>267.75</ele><time>2026-04-25T12:36:29.938Z</time></trkpt><trkpt lat="43.7801" lon="12.7289233"><ele>265.0</ele><time>2026-04-25T12:36:30.938Z</time></trkpt><trkpt lat="43.780155" lon="12.7287883"><ele>266.2</ele><time>2026-04-25T12:36:31.938Z</time></trkpt><trkpt lat="43.7802" lon="12.7286467"><ele>267.4</ele><time>2026-04-25T12:36:32.938Z</time></trkpt><trkpt lat="43.780245" lon="12.72851"><ele>268.6</ele><time>2026-04-25T12:36:33.938Z</time></trkpt><trkpt lat="43.78029" lon="12.7283733"><ele>269.8</ele><time>2026-04-25T12:36:34.938Z</time></trkpt><trkpt lat="43.78032" lon="12.72823"><ele>271.0</ele><time>2026-04-25T12:36:35.938Z</time></trkpt><trkpt lat="43.78033" lon="12.7280833"><ele>271.0</ele><time>2026-04-25T12:36:36.938Z</time></trkpt><trkpt lat="43.7803217" lon="12.7279333"><ele>271.0</ele><time>2026-04-25T12:36:37.938Z</time></trkpt><trkpt lat="43.7803017" lon="12.7277817"><ele>271.0</ele><time>2026-04-25T12:36:38.937Z</time></trkpt><trkpt lat="43.7802733" lon="12.727635"><ele>271.0</ele><time>2026-04-25T12:36:39.938Z</time></trkpt><trkpt lat="43.7802217" lon="12.7275017"><ele>271.0</ele><time>2026-04-25T12:36:40.937Z</time></trkpt><trkpt lat="43.7801667" lon="12.7273733"><ele>267.0</ele><time>2026-04-25T12:36:41.938Z</time></trkpt><trkpt lat="43.78011" lon="12.7272433"><ele>263.0</ele><time>2026-04-25T12:36:42.938Z</time></trkpt><trkpt lat="43.78005" lon="12.7271133"><ele>259.0</ele><time>2026-04-25T12:36:43.937Z</time></trkpt><trkpt lat="43.7799833" lon="12.7269883"><ele>255.0</ele><time>2026-04-25T12:36:44.938Z</time></trkpt><trkpt lat="43.7799217" lon="12.72686"><ele>251.0</ele><time>2026-04-25T12:36:45.937Z</time></trkpt><trkpt lat="43.779885" lon="12.7267267"><ele>250.4</ele><time>2026-04-25T12:36:46.938Z</time></trkpt><trkpt lat="43.7798633" lon="12.7265917"><ele>249.8</ele><time>2026-04-25T12:36:47.938Z</time></trkpt><trkpt lat="43.77987" lon="12.7264667"><ele>249.20000000000002</ele><time>2026-04-25T12:36:48.938Z</time></trkpt><trkpt lat="43.7799233" lon="12.726365"><ele>248.60000000000002</ele><time>2026-04-25T12:36:49.937Z</time></trkpt><trkpt lat="43.7799967" lon="12.7262867"><ele>248.0</ele><time>2026-04-25T12:36:50.938Z</time></trkpt><trkpt lat="43.7800917" lon="12.7262417"><ele>248.25</ele><time>2026-04-25T12:36:51.938Z</time></trkpt><trkpt lat="43.780195" lon="12.726205"><ele>248.5</ele><time>2026-04-25T12:36:52.938Z</time></trkpt><trkpt lat="43.7803083" lon="12.7261783"><ele>248.75</ele><time>2026-04-25T12:36:53.938Z</time></trkpt><trkpt lat="43.78043" lon="12.726145"><ele>249.0</ele><time>2026-04-25T12:36:54.938Z</time></trkpt><trkpt lat="43.7805533" lon="12.7260967"><ele>246.25</ele><time>2026-04-25T12:36:55.938Z</time></trkpt><trkpt lat="43.7806833" lon="12.7260283"><ele>243.5</ele><time>2026-04-25T12:36:56.938Z</time></trkpt><trkpt lat="43.7808167" lon="12.7259567"><ele>240.75</ele><time>2026-04-25T12:36:57.938Z</time></trkpt><trkpt lat="43.7809467" lon="12.7258733"><ele>238.0</ele><time>2026-04-25T12:36:58.938Z</time></trkpt><trkpt lat="43.7810783" lon="12.7257733"><ele>238.0</ele><time>2026-04-25T12:36:59.938Z</time></trkpt><trkpt lat="43.7812083" lon="12.725665"><ele>238.0</ele><time>2026-04-25T12:37:00.938Z</time></trkpt><trkpt lat="43.7813267" lon="12.7255433"><ele>238.0</ele><time>2026-04-25T12:37:01.938Z</time></trkpt><trkpt lat="43.7814383" lon="12.725415"><ele>238.0</ele><time>2026-04-25T12:37:02.938Z</time></trkpt><trkpt lat="43.7815417" lon="12.7252783"><ele>234.5</ele><time>2026-04-25T12:37:03.937Z</time></trkpt><trkpt lat="43.7816367" lon="12.7251367"><ele>231.0</ele><time>2026-04-25T12:37:04.938Z</time></trkpt><trkpt lat="43.781735" lon="12.7250083"><ele>227.5</ele><time>2026-04-25T12:37:05.937Z</time></trkpt><trkpt lat="43.7818417" lon="12.72491"><ele>224.0</ele><time>2026-04-25T12:37:06.938Z</time></trkpt><trkpt lat="43.7819483" lon="12.7248433"><ele>222.16666666666669</ele><time>2026-04-25T12:37:07.938Z</time></trkpt><trkpt lat="43.7820383" lon="12.7247817"><ele>220.33333333333334</ele><time>2026-04-25T12:37:08.938Z</time></trkpt><trkpt lat="43.78209" lon="12.724695"><ele>218.5</ele><time>2026-04-25T12:37:09.938Z</time></trkpt><trkpt lat="43.7821017" lon="12.7245867"><ele>216.66666666666669</ele><time>2026-04-25T12:37:10.938Z</time></trkpt><trkpt lat="43.782075" lon="12.7244817"><ele>214.83333333333334</ele><time>2026-04-25T12:37:11.938Z</time></trkpt><trkpt lat="43.782005" lon="12.7244017"><ele>213.0</ele><time>2026-04-25T12:37:12.938Z</time></trkpt><trkpt lat="43.7819133" lon="12.724335"><ele>212.5</ele><time>2026-04-25T12:37:13.938Z</time></trkpt><trkpt lat="43.7818517" lon="12.7242467"><ele>212.0</ele><time>2026-04-25T12:37:14.938Z</time></trkpt><trkpt lat="43.781835" lon="12.724135"><ele>211.5</ele><time>2026-04-25T12:37:15.938Z</time></trkpt><trkpt lat="43.78186" lon="12.7240233"><ele>211.0</ele><time>2026-04-25T12:37:16.938Z</time></trkpt><trkpt lat="43.7818933" lon="12.7239133"><ele>210.5</ele><time>2026-04-25T12:37:17.938Z</time></trkpt><trkpt lat="43.78194" lon="12.7238183"><ele>210.0</ele><time>2026-04-25T12:37:18.938Z</time></trkpt><trkpt lat="43.7820267" lon="12.7237733"><ele>208.0</ele><time>2026-04-25T12:37:19.937Z</time></trkpt><trkpt lat="43.7821433" lon="12.7238133"><ele>206.0</ele><time>2026-04-25T12:37:20.937Z</time></trkpt><trkpt lat="43.7822483" lon="12.7239283"><ele>204.0</ele><time>2026-04-25T12:37:21.937Z</time></trkpt><trkpt lat="43.7823317" lon="12.7240617"><ele>202.0</ele><time>2026-04-25T12:37:22.937Z</time></trkpt><trkpt lat="43.7824117" lon="12.72419"><ele>202.0</ele><time>2026-04-25T12:37:23.937Z</time></trkpt><trkpt lat="43.782495" lon="12.724325"><ele>202.0</ele><time>2026-04-25T12:37:24.936Z</time></trkpt><trkpt lat="43.782575" lon="12.7244617"><ele>202.0</ele><time>2026-04-25T12:37:25.936Z</time></trkpt><trkpt lat="43.7826517" lon="12.7246017"><ele>202.0</ele><time>2026-04-25T12:37:26.936Z</time></trkpt><trkpt lat="43.78273" lon="12.724735"><ele>199.0</ele><time>2026-04-25T12:37:27.936Z</time></trkpt><trkpt lat="43.78281" lon="12.724865"><ele>196.0</ele><time>2026-04-25T12:37:28.937Z</time></trkpt><trkpt lat="43.7828867" lon="12.7249933"><ele>193.0</ele><time>2026-04-25T12:37:29.937Z</time></trkpt><trkpt lat="43.7829733" lon="12.725095"><ele>190.0</ele><time>2026-04-25T12:37:30.937Z</time></trkpt><trkpt lat="43.783075" lon="12.725155"><ele>190.0</ele><time>2026-04-25T12:37:31.936Z</time></trkpt><trkpt lat="43.78319" lon="12.7251517"><ele>190.0</ele><time>2026-04-25T12:37:32.937Z</time></trkpt><trkpt lat="43.783305" lon="12.7251067"><ele>190.0</ele><time>2026-04-25T12:37:33.937Z</time></trkpt><trkpt lat="43.783415" lon="12.7250517"><ele>190.0</ele><time>2026-04-25T12:37:34.937Z</time></trkpt><trkpt lat="43.783525" lon="12.7249783"><ele>189.2</ele><time>2026-04-25T12:37:35.937Z</time></trkpt><trkpt lat="43.7836367" lon="12.7249233"><ele>188.4</ele><time>2026-04-25T12:37:36.937Z</time></trkpt><trkpt lat="43.78374" lon="12.7248683"><ele>187.60000000000002</ele><time>2026-04-25T12:37:37.937Z</time></trkpt><trkpt lat="43.7838183" lon="12.7247983"><ele>186.8</ele><time>2026-04-25T12:37:38.937Z</time></trkpt><trkpt lat="43.7838733" lon="12.7247267"><ele>186.0</ele><time>2026-04-25T12:37:39.937Z</time></trkpt><trkpt lat="43.7839" lon="12.7246467"><ele>186.0</ele><time>2026-04-25T12:37:40.937Z</time></trkpt><trkpt lat="43.7839717" lon="12.7245583"><ele>186.0</ele><time>2026-04-25T12:37:42.937Z</time></trkpt><trkpt lat="43.7840767" lon="12.7246483"><ele>186.0</ele><time>2026-04-25T12:37:44.936Z</time></trkpt><trkpt lat="43.784135" lon="12.7247117"><ele>186.0</ele><time>2026-04-25T12:37:45.936Z</time></trkpt><trkpt lat="43.7841983" lon="12.724745"><ele>186.0</ele><time>2026-04-25T12:37:46.937Z</time></trkpt><trkpt lat="43.7842617" lon="12.7247533"><ele>186.0</ele><time>2026-04-25T12:37:47.937Z</time></trkpt><trkpt lat="43.7843467" lon="12.7246333"><ele>184.8</ele><time>2026-04-25T12:37:49.936Z</time></trkpt><trkpt lat="43.7843667" lon="12.724525"><ele>183.60000000000002</ele><time>2026-04-25T12:37:50.937Z</time></trkpt><trkpt lat="43.7843733" lon="12.7243983"><ele>182.4</ele><time>2026-04-25T12:37:51.937Z</time></trkpt><trkpt lat="43.784375" lon="12.7242667"><ele>181.2</ele><time>2026-04-25T12:37:52.936Z</time></trkpt><trkpt lat="43.784375" lon="12.7241367"><ele>180.0</ele><time>2026-04-25T12:37:53.937Z</time></trkpt><trkpt lat="43.7843633" lon="12.7240067"><ele>180.0</ele><time>2026-04-25T12:37:54.937Z</time></trkpt><trkpt lat="43.7843517" lon="12.7238783"><ele>180.0</ele><time>2026-04-25T12:37:55.937Z</time></trkpt><trkpt lat="43.7843167" lon="12.7237583"><ele>180.0</ele><time>2026-04-25T12:37:56.937Z</time></trkpt><trkpt lat="43.7842567" lon="12.7236567"><ele>180.0</ele><time>2026-04-25T12:37:57.936Z</time></trkpt><trkpt lat="43.7841917" lon="12.7235767"><ele>180.0</ele><time>2026-04-25T12:37:58.936Z</time></trkpt><trkpt lat="43.7841267" lon="12.723505"><ele>179.0</ele><time>2026-04-25T12:37:59.937Z</time></trkpt><trkpt lat="43.7840717" lon="12.7234467"><ele>178.0</ele><time>2026-04-25T12:38:00.937Z</time></trkpt><trkpt lat="43.7840083" lon="12.7233117"><ele>177.0</ele><time>2026-04-25T12:38:02.937Z</time></trkpt><trkpt lat="43.784" lon="12.7232217"><ele>176.0</ele><time>2026-04-25T12:38:03.937Z</time></trkpt><trkpt lat="43.7839983" lon="12.7231233"><ele>175.0</ele><time>2026-04-25T12:38:04.937Z</time></trkpt><trkpt lat="43.784015" lon="12.723015"><ele>174.0</ele><time>2026-04-25T12:38:05.937Z</time></trkpt><trkpt lat="43.78405" lon="12.72291"><ele>174.0</ele><time>2026-04-25T12:38:06.937Z</time></trkpt><trkpt lat="43.7841067" lon="12.7228133"><ele>174.0</ele><time>2026-04-25T12:38:07.937Z</time></trkpt><trkpt lat="43.7841683" lon="12.722725"><ele>174.0</ele><time>2026-04-25T12:38:08.937Z</time></trkpt><trkpt lat="43.7842633" lon="12.7226867"><ele>174.0</ele><time>2026-04-25T12:38:09.937Z</time></trkpt><trkpt lat="43.7843683" lon="12.7226733"><ele>174.0</ele><time>2026-04-25T12:38:10.937Z</time></trkpt><trkpt lat="43.7844833" lon="12.7226817"><ele>170.79999999999998</ele><time>2026-04-25T12:38:11.937Z</time></trkpt><trkpt lat="43.7846033" lon="12.72269"><ele>167.6</ele><time>2026-04-25T12:38:12.937Z</time></trkpt><trkpt lat="43.7847167" lon="12.7227"><ele>164.4</ele><time>2026-04-25T12:38:13.937Z</time></trkpt><trkpt lat="43.7848083" lon="12.7226633"><ele>161.2</ele><time>2026-04-25T12:38:14.937Z</time></trkpt><trkpt lat="43.78487" lon="12.7225783"><ele>158.0</ele><time>2026-04-25T12:38:15.936Z</time></trkpt><trkpt lat="43.7849" lon="12.722465"><ele>158.0</ele><time>2026-04-25T12:38:16.937Z</time></trkpt><trkpt lat="43.7849133" lon="12.722345"><ele>158.0</ele><time>2026-04-25T12:38:17.936Z</time></trkpt><trkpt lat="43.78486" lon="12.7222117"><ele>158.0</ele><time>2026-04-25T12:38:18.937Z</time></trkpt><trkpt lat="43.784785" lon="12.72207"><ele>158.0</ele><time>2026-04-25T12:38:19.937Z</time></trkpt><trkpt lat="43.784705" lon="12.7219267"><ele>157.0</ele><time>2026-04-25T12:38:20.937Z</time></trkpt><trkpt lat="43.7846017" lon="12.7218083"><ele>156.0</ele><time>2026-04-25T12:38:21.937Z</time></trkpt><trkpt lat="43.784495" lon="12.7217"><ele>155.0</ele><time>2026-04-25T12:38:22.936Z</time></trkpt><trkpt lat="43.7843883" lon="12.7215933"><ele>154.0</ele><time>2026-04-25T12:38:23.937Z</time></trkpt><trkpt lat="43.7842783" lon="12.7214917"><ele>154.0</ele><time>2026-04-25T12:38:24.936Z</time></trkpt><trkpt lat="43.78417" lon="12.7213917"><ele>154.0</ele><time>2026-04-25T12:38:25.937Z</time></trkpt><trkpt lat="43.7840633" lon="12.7213"><ele>154.0</ele><time>2026-04-25T12:38:26.937Z</time></trkpt><trkpt lat="43.7839633" lon="12.7212017"><ele>154.0</ele><time>2026-04-25T12:38:27.937Z</time></trkpt><trkpt lat="43.7838867" lon="12.7211"><ele>152.16666666666669</ele><time>2026-04-25T12:38:28.937Z</time></trkpt><trkpt lat="43.7838317" lon="12.7209917"><ele>150.33333333333334</ele><time>2026-04-25T12:38:29.936Z</time></trkpt><trkpt lat="43.7838217" lon="12.7208867"><ele>148.5</ele><time>2026-04-25T12:38:30.936Z</time></trkpt><trkpt lat="43.78386" lon="12.7207933"><ele>146.66666666666666</ele><time>2026-04-25T12:38:31.937Z</time></trkpt><trkpt lat="43.7839233" lon="12.7207283"><ele>144.83333333333331</ele><time>2026-04-25T12:38:32.937Z</time></trkpt><trkpt lat="43.784025" lon="12.720715"><ele>143.0</ele><time>2026-04-25T12:38:33.937Z</time></trkpt><trkpt lat="43.7841467" lon="12.7207217"><ele>143.0</ele><time>2026-04-25T12:38:34.937Z</time></trkpt><trkpt lat="43.7842717" lon="12.7207283"><ele>143.0</ele><time>2026-04-25T12:38:35.937Z</time></trkpt><trkpt lat="43.7843983" lon="12.720735"><ele>143.0</ele><time>2026-04-25T12:38:36.936Z</time></trkpt><trkpt lat="43.78452" lon="12.7207417"><ele>143.0</ele><time>2026-04-25T12:38:37.937Z</time></trkpt><trkpt lat="43.7846433" lon="12.720755"><ele>141.20000000000002</ele><time>2026-04-25T12:38:38.937Z</time></trkpt><trkpt lat="43.78476" lon="12.7207667"><ele>139.4</ele><time>2026-04-25T12:38:39.937Z</time></trkpt><trkpt lat="43.7848667" lon="12.7207783"><ele>137.60000000000002</ele><time>2026-04-25T12:38:40.936Z</time></trkpt><trkpt lat="43.7849583" lon="12.7207983"><ele>135.8</ele><time>2026-04-25T12:38:41.937Z</time></trkpt><trkpt lat="43.7850367" lon="12.7207967"><ele>134.0</ele><time>2026-04-25T12:38:42.937Z</time></trkpt><trkpt lat="43.7851017" lon="12.7207533"><ele>134.0</ele><time>2026-04-25T12:38:43.936Z</time></trkpt><trkpt lat="43.7851433" lon="12.7206867"><ele>134.0</ele><time>2026-04-25T12:38:44.937Z</time></trkpt><trkpt lat="43.7851483" lon="12.720595"><ele>134.0</ele><time>2026-04-25T12:38:45.937Z</time></trkpt><trkpt lat="43.7851217" lon="12.7204867"><ele>134.0</ele><time>2026-04-25T12:38:46.937Z</time></trkpt><trkpt lat="43.78509" lon="12.720365"><ele>134.0</ele><time>2026-04-25T12:38:47.936Z</time></trkpt><trkpt lat="43.7850517" lon="12.7202383"><ele>134.0</ele><time>2026-04-25T12:38:48.937Z</time></trkpt><trkpt lat="43.78499" lon="12.7201383"><ele>131.0</ele><time>2026-04-25T12:38:49.937Z</time></trkpt><trkpt lat="43.78491" lon="12.7200617"><ele>128.0</ele><time>2026-04-25T12:38:50.936Z</time></trkpt><trkpt lat="43.7848133" lon="12.72001"><ele>125.0</ele><time>2026-04-25T12:38:51.937Z</time></trkpt><trkpt lat="43.7847033" lon="12.7199667"><ele>122.0</ele><time>2026-04-25T12:38:52.936Z</time></trkpt><trkpt lat="43.7845867" lon="12.7199267"><ele>119.0</ele><time>2026-04-25T12:38:53.936Z</time></trkpt><trkpt lat="43.7844733" lon="12.71988"><ele>119.0</ele><time>2026-04-25T12:38:54.937Z</time></trkpt><trkpt lat="43.7843683" lon="12.7198167"><ele>119.0</ele><time>2026-04-25T12:38:55.937Z</time></trkpt><trkpt lat="43.784285" lon="12.7197167"><ele>119.0</ele><time>2026-04-25T12:38:56.936Z</time></trkpt><trkpt lat="43.7842217" lon="12.7195967"><ele>119.0</ele><time>2026-04-25T12:38:57.937Z</time></trkpt><trkpt lat="43.7841783" lon="12.71946"><ele>119.0</ele><time>2026-04-25T12:38:58.936Z</time></trkpt><trkpt lat="43.7841517" lon="12.71931"><ele>117.0</ele><time>2026-04-25T12:38:59.936Z</time></trkpt><trkpt lat="43.7841483" lon="12.7191583"><ele>115.0</ele><time>2026-04-25T12:39:00.937Z</time></trkpt><trkpt lat="43.784175" lon="12.71901"><ele>113.0</ele><time>2026-04-25T12:39:01.936Z</time></trkpt><trkpt lat="43.7842317" lon="12.7188683"><ele>111.0</ele><time>2026-04-25T12:39:02.937Z</time></trkpt><trkpt lat="43.7843017" lon="12.7187267"><ele>110.0</ele><time>2026-04-25T12:39:03.937Z</time></trkpt><trkpt lat="43.7843767" lon="12.7185883"><ele>109.0</ele><time>2026-04-25T12:39:04.937Z</time></trkpt><trkpt lat="43.7844517" lon="12.718455"><ele>108.0</ele><time>2026-04-25T12:39:05.937Z</time></trkpt><trkpt lat="43.7845283" lon="12.71832"><ele>107.0</ele><time>2026-04-25T12:39:06.937Z</time></trkpt><trkpt lat="43.7846017" lon="12.7181883"><ele>107.19999999999999</ele><time>2026-04-25T12:39:07.937Z</time></trkpt><trkpt lat="43.784675" lon="12.71806"><ele>107.39999999999999</ele><time>2026-04-25T12:39:08.937Z</time></trkpt><trkpt lat="43.7847467" lon="12.717935"><ele>107.60000000000001</ele><time>2026-04-25T12:39:09.936Z</time></trkpt><trkpt lat="43.784815" lon="12.717815"><ele>107.80000000000001</ele><time>2026-04-25T12:39:10.937Z</time></trkpt><trkpt lat="43.7848817" lon="12.7177017"><ele>108.0</ele><time>2026-04-25T12:39:11.937Z</time></trkpt><trkpt lat="43.7849517" lon="12.7175967"><ele>108.0</ele><time>2026-04-25T12:39:12.937Z</time></trkpt><trkpt lat="43.785025" lon="12.7175"><ele>108.00000000000001</ele><time>2026-04-25T12:39:13.937Z</time></trkpt><trkpt lat="43.7851" lon="12.717405"><ele>108.00000000000001</ele><time>2026-04-25T12:39:14.937Z</time></trkpt><trkpt lat="43.78518" lon="12.7173233"><ele>108.0</ele><time>2026-04-25T12:39:15.936Z</time></trkpt><trkpt lat="43.7852633" lon="12.7172667"><ele>108.0</ele><time>2026-04-25T12:39:16.936Z</time></trkpt><trkpt lat="43.7853483" lon="12.7172267"><ele>107.4</ele><time>2026-04-25T12:39:17.936Z</time></trkpt><trkpt lat="43.7854433" lon="12.7172"><ele>106.80000000000001</ele><time>2026-04-25T12:39:18.937Z</time></trkpt><trkpt lat="43.7855467" lon="12.7171833"><ele>106.2</ele><time>2026-04-25T12:39:19.937Z</time></trkpt><trkpt lat="43.7856533" lon="12.71717"><ele>105.6</ele><time>2026-04-25T12:39:20.936Z</time></trkpt><trkpt lat="43.7857667" lon="12.7171633"><ele>105.0</ele><time>2026-04-25T12:39:21.937Z</time></trkpt><trkpt lat="43.785885" lon="12.717155"><ele>105.0</ele><time>2026-04-25T12:39:22.937Z</time></trkpt><trkpt lat="43.786" lon="12.7171433"><ele>105.0</ele><time>2026-04-25T12:39:23.937Z</time></trkpt><trkpt lat="43.7861183" lon="12.7171367"><ele>105.0</ele><time>2026-04-25T12:39:24.937Z</time></trkpt><trkpt lat="43.7862367" lon="12.71714"><ele>105.0</ele><time>2026-04-25T12:39:25.937Z</time></trkpt><trkpt lat="43.7863567" lon="12.7171383"><ele>105.0</ele><time>2026-04-25T12:39:26.937Z</time></trkpt><trkpt lat="43.7864767" lon="12.71713"><ele>105.0</ele><time>2026-04-25T12:39:27.937Z</time></trkpt><trkpt lat="43.7865933" lon="12.7171267"><ele>105.0</ele><time>2026-04-25T12:39:28.937Z</time></trkpt><trkpt lat="43.7867067" lon="12.7171183"><ele>105.0</ele><time>2026-04-25T12:39:29.936Z</time></trkpt><trkpt lat="43.7868133" lon="12.7170983"><ele>106.0</ele><time>2026-04-25T12:39:30.937Z</time></trkpt><trkpt lat="43.7869133" lon="12.7170583"><ele>107.0</ele><time>2026-04-25T12:39:31.936Z</time></trkpt><trkpt lat="43.7870083" lon="12.7170017"><ele>108.0</ele><time>2026-04-25T12:39:32.937Z</time></trkpt><trkpt lat="43.787095" lon="12.7169233"><ele>109.0</ele><time>2026-04-25T12:39:33.937Z</time></trkpt><trkpt lat="43.7871767" lon="12.7168317"><ele>110.0</ele><time>2026-04-25T12:39:34.937Z</time></trkpt><trkpt lat="43.7872533" lon="12.716735"><ele>110.0</ele><time>2026-04-25T12:39:35.937Z</time></trkpt><trkpt lat="43.7873333" lon="12.716655"><ele>110.0</ele><time>2026-04-25T12:39:36.937Z</time></trkpt><trkpt lat="43.78741" lon="12.7165833"><ele>110.0</ele><time>2026-04-25T12:39:37.937Z</time></trkpt><trkpt lat="43.7874933" lon="12.716535"><ele>110.0</ele><time>2026-04-25T12:39:38.937Z</time></trkpt><trkpt lat="43.7875617" lon="12.7164917"><ele>110.0</ele><time>2026-04-25T12:39:39.936Z</time></trkpt><trkpt lat="43.78763" lon="12.7164017"><ele>109.99999999999999</ele><time>2026-04-25T12:39:41.937Z</time></trkpt><trkpt lat="43.7876467" lon="12.7162767"><ele>110.0</ele><time>2026-04-25T12:39:44.937Z</time></trkpt><trkpt lat="43.7875833" lon="12.716155"><ele>110.0</ele><time>2026-04-25T12:39:46.936Z</time></trkpt><trkpt lat="43.7875333" lon="12.7160867"><ele>110.0</ele><time>2026-04-25T12:39:47.937Z</time></trkpt><trkpt lat="43.7874783" lon="12.716015"><ele>109.99999999999999</ele><time>2026-04-25T12:39:48.937Z</time></trkpt><trkpt lat="43.787425" lon="12.7159317"><ele>110.0</ele><time>2026-04-25T12:39:49.937Z</time></trkpt><trkpt lat="43.7873667" lon="12.7158433"><ele>110.6</ele><time>2026-04-25T12:39:50.937Z</time></trkpt><trkpt lat="43.7873033" lon="12.7157467"><ele>111.2</ele><time>2026-04-25T12:39:51.937Z</time></trkpt><trkpt lat="43.7872483" lon="12.71564"><ele>111.80000000000001</ele><time>2026-04-25T12:39:52.937Z</time></trkpt><trkpt lat="43.7871883" lon="12.7155367"><ele>112.4</ele><time>2026-04-25T12:39:53.937Z</time></trkpt><trkpt lat="43.7871267" lon="12.715435"><ele>113.0</ele><time>2026-04-25T12:39:54.937Z</time></trkpt><trkpt lat="43.7870717" lon="12.71533"><ele>112.60000000000001</ele><time>2026-04-25T12:39:55.936Z</time></trkpt><trkpt lat="43.78702" lon="12.7152167"><ele>112.20000000000002</ele><time>2026-04-25T12:39:56.937Z</time></trkpt><trkpt lat="43.7869617" lon="12.7151117"><ele>111.8</ele><time>2026-04-25T12:39:57.937Z</time></trkpt><trkpt lat="43.7868983" lon="12.7150033"><ele>111.4</ele><time>2026-04-25T12:39:58.937Z</time></trkpt><trkpt lat="43.786835" lon="12.7148983"><ele>111.0</ele><time>2026-04-25T12:39:59.937Z</time></trkpt><trkpt lat="43.7867733" lon="12.71479"><ele>111.0</ele><time>2026-04-25T12:40:00.937Z</time></trkpt><trkpt lat="43.7867183" lon="12.7146833"><ele>111.0</ele><time>2026-04-25T12:40:01.937Z</time></trkpt><trkpt lat="43.7866633" lon="12.714575"><ele>111.0</ele><time>2026-04-25T12:40:02.937Z</time></trkpt><trkpt lat="43.7866033" lon="12.7144717"><ele>111.0</ele><time>2026-04-25T12:40:03.936Z</time></trkpt><trkpt lat="43.7865417" lon="12.714375"><ele>111.0</ele><time>2026-04-25T12:40:04.937Z</time></trkpt><trkpt lat="43.7864867" lon="12.7142817"><ele>111.66666666666667</ele><time>2026-04-25T12:40:05.937Z</time></trkpt><trkpt lat="43.78644" lon="12.7141867"><ele>112.33333333333334</ele><time>2026-04-25T12:40:06.937Z</time></trkpt><trkpt lat="43.7863883" lon="12.7140983"><ele>113.0</ele><time>2026-04-25T12:40:07.936Z</time></trkpt><trkpt lat="43.7863433" lon="12.714"><ele>113.66666666666667</ele><time>2026-04-25T12:40:08.937Z</time></trkpt><trkpt lat="43.7862917" lon="12.713905"><ele>114.33333333333334</ele><time>2026-04-25T12:40:09.937Z</time></trkpt><trkpt lat="43.7862367" lon="12.713805"><ele>115.0</ele><time>2026-04-25T12:40:10.937Z</time></trkpt><trkpt lat="43.7861767" lon="12.7136983"><ele>115.0</ele><time>2026-04-25T12:40:11.936Z</time></trkpt><trkpt lat="43.7861133" lon="12.7135883"><ele>115.0</ele><time>2026-04-25T12:40:12.937Z</time></trkpt><trkpt lat="43.7860483" lon="12.7134767"><ele>115.0</ele><time>2026-04-25T12:40:13.937Z</time></trkpt><trkpt lat="43.7859817" lon="12.713365"><ele>115.0</ele><time>2026-04-25T12:40:14.937Z</time></trkpt><trkpt lat="43.7859233" lon="12.7132467"><ele>115.0</ele><time>2026-04-25T12:40:15.937Z</time></trkpt><trkpt lat="43.7858617" lon="12.7131267"><ele>115.0</ele><time>2026-04-25T12:40:16.937Z</time></trkpt><trkpt lat="43.7857983" lon="12.713005"><ele>115.0</ele><time>2026-04-25T12:40:17.937Z</time></trkpt><trkpt lat="43.78574" lon="12.712875"><ele>115.0</ele><time>2026-04-25T12:40:18.936Z</time></trkpt><trkpt lat="43.7856867" lon="12.7127433"><ele>115.0</ele><time>2026-04-25T12:40:19.937Z</time></trkpt><trkpt lat="43.7856267" lon="12.7126183"><ele>115.0</ele><time>2026-04-25T12:40:20.936Z</time></trkpt><trkpt lat="43.7855667" lon="12.712495"><ele>115.6</ele><time>2026-04-25T12:40:21.937Z</time></trkpt><trkpt lat="43.7855083" lon="12.7123783"><ele>116.2</ele><time>2026-04-25T12:40:22.937Z</time></trkpt><trkpt lat="43.785455" lon="12.7122517"><ele>116.80000000000001</ele><time>2026-04-25T12:40:23.937Z</time></trkpt><trkpt lat="43.785395" lon="12.7121267"><ele>117.4</ele><time>2026-04-25T12:40:24.937Z</time></trkpt><trkpt lat="43.7853317" lon="12.7120017"><ele>118.0</ele><time>2026-04-25T12:40:25.937Z</time></trkpt><trkpt lat="43.7852683" lon="12.7118733"><ele>117.2</ele><time>2026-04-25T12:40:26.936Z</time></trkpt><trkpt lat="43.7852067" lon="12.7117483"><ele>116.4</ele><time>2026-04-25T12:40:27.937Z</time></trkpt><trkpt lat="43.78515" lon="12.7116167"><ele>115.60000000000001</ele><time>2026-04-25T12:40:28.936Z</time></trkpt><trkpt lat="43.7850883" lon="12.71149"><ele>114.80000000000001</ele><time>2026-04-25T12:40:29.937Z</time></trkpt><trkpt lat="43.78502" lon="12.71137"><ele>114.0</ele><time>2026-04-25T12:40:30.936Z</time></trkpt><trkpt lat="43.78495" lon="12.7112483"><ele>114.0</ele><time>2026-04-25T12:40:31.936Z</time></trkpt><trkpt lat="43.7848867" lon="12.7111233"><ele>114.0</ele><time>2026-04-25T12:40:32.937Z</time></trkpt><trkpt lat="43.78482" lon="12.7109983"><ele>114.0</ele><time>2026-04-25T12:40:33.937Z</time></trkpt><trkpt lat="43.7847517" lon="12.7108733"><ele>114.0</ele><time>2026-04-25T12:40:34.937Z</time></trkpt><trkpt lat="43.7846833" lon="12.710745"><ele>114.75</ele><time>2026-04-25T12:40:35.937Z</time></trkpt><trkpt lat="43.7846083" lon="12.710615"><ele>115.5</ele><time>2026-04-25T12:40:36.937Z</time></trkpt><trkpt lat="43.78453" lon="12.710485"><ele>116.25</ele><time>2026-04-25T12:40:37.937Z</time></trkpt><trkpt lat="43.7844517" lon="12.7103517"><ele>117.0</ele><time>2026-04-25T12:40:38.937Z</time></trkpt><trkpt lat="43.7843783" lon="12.7102067"><ele>116.25</ele><time>2026-04-25T12:40:39.937Z</time></trkpt><trkpt lat="43.7843067" lon="12.7100633"><ele>115.5</ele><time>2026-04-25T12:40:40.937Z</time></trkpt><trkpt lat="43.7842367" lon="12.709915"><ele>114.75</ele><time>2026-04-25T12:40:41.937Z</time></trkpt><trkpt lat="43.7841633" lon="12.70977"><ele>114.0</ele><time>2026-04-25T12:40:42.937Z</time></trkpt><trkpt lat="43.7840883" lon="12.7096333"><ele>114.0</ele><time>2026-04-25T12:40:43.936Z</time></trkpt><trkpt lat="43.7840183" lon="12.7095017"><ele>114.0</ele><time>2026-04-25T12:40:44.937Z</time></trkpt><trkpt lat="43.7839533" lon="12.709385"><ele>114.0</ele><time>2026-04-25T12:40:45.937Z</time></trkpt><trkpt lat="43.7838967" lon="12.7092817"><ele>114.0</ele><time>2026-04-25T12:40:46.937Z</time></trkpt><trkpt lat="43.7838517" lon="12.7091883"><ele>114.0</ele><time>2026-04-25T12:40:47.937Z</time></trkpt><trkpt lat="43.78382" lon="12.7091033"><ele>114.5</ele><time>2026-04-25T12:40:48.937Z</time></trkpt><trkpt lat="43.783775" lon="12.708985"><ele>115.0</ele><time>2026-04-25T12:40:50.937Z</time></trkpt><trkpt lat="43.7837117" lon="12.70895"><ele>115.5</ele><time>2026-04-25T12:41:23.936Z</time></trkpt><trkpt lat="43.7835317" lon="12.7087567"><ele>116.0</ele><time>2026-04-25T12:41:26.936Z</time></trkpt><trkpt lat="43.7834667" lon="12.70865"><ele>115.4</ele><time>2026-04-25T12:41:27.937Z</time></trkpt><trkpt lat="43.783395" lon="12.7085417"><ele>114.8</ele><time>2026-04-25T12:41:28.937Z</time></trkpt><trkpt lat="43.7833183" lon="12.708435"><ele>114.20000000000002</ele><time>2026-04-25T12:41:29.937Z</time></trkpt><trkpt lat="43.7832333" lon="12.7083383"><ele>113.60000000000001</ele><time>2026-04-25T12:41:30.937Z</time></trkpt><trkpt lat="43.7831483" lon="12.7082333"><ele>113.0</ele><time>2026-04-25T12:41:31.937Z</time></trkpt><trkpt lat="43.7830617" lon="12.7081217"><ele>113.0</ele><time>2026-04-25T12:41:32.937Z</time></trkpt><trkpt lat="43.7829783" lon="12.7080017"><ele>113.0</ele><time>2026-04-25T12:41:33.937Z</time></trkpt><trkpt lat="43.782895" lon="12.7078767"><ele>113.0</ele><time>2026-04-25T12:41:34.937Z</time></trkpt><trkpt lat="43.7828133" lon="12.70775"><ele>113.0</ele><time>2026-04-25T12:41:35.937Z</time></trkpt><trkpt lat="43.782735" lon="12.7076233"><ele>112.75</ele><time>2026-04-25T12:41:36.937Z</time></trkpt><trkpt lat="43.7826539" lon="12.7074967"><ele>112.5</ele><time>2026-04-25T12:41:37.937Z</time></trkpt><trkpt lat="43.7825704" lon="12.7073742"><ele>112.25</ele><time>2026-04-25T12:41:38.937Z</time></trkpt><trkpt lat="43.7824903" lon="12.7072471"><ele>112.0</ele><time>2026-04-25T12:41:39.936Z</time></trkpt><trkpt lat="43.7824091" lon="12.7071212"><ele>112.0</ele><time>2026-04-25T12:41:40.937Z</time></trkpt><trkpt lat="43.7823322" lon="12.706992"><ele>112.0</ele><time>2026-04-25T12:41:41.937Z</time></trkpt><trkpt lat="43.7822594" lon="12.706865"><ele>112.0</ele><time>2026-04-25T12:41:42.936Z</time></trkpt><trkpt lat="43.7821896" lon="12.7067414"><ele>112.0</ele><time>2026-04-25T12:41:43.937Z</time></trkpt><trkpt lat="43.7821224" lon="12.7066219"><ele>112.39999999999999</ele><time>2026-04-25T12:41:44.937Z</time></trkpt><trkpt lat="43.7820617" lon="12.7065036"><ele>112.79999999999998</ele><time>2026-04-25T12:41:45.937Z</time></trkpt><trkpt lat="43.782006" lon="12.7063874"><ele>113.2</ele><time>2026-04-25T12:41:46.936Z</time></trkpt><trkpt lat="43.7819434" lon="12.7062756"><ele>113.6</ele><time>2026-04-25T12:41:47.936Z</time></trkpt><trkpt lat="43.7818769" lon="12.70617"><ele>114.0</ele><time>2026-04-25T12:41:48.937Z</time></trkpt><trkpt lat="43.7818084" lon="12.7060635"><ele>114.0</ele><time>2026-04-25T12:41:49.937Z</time></trkpt><trkpt lat="43.7817456" lon="12.7059521"><ele>114.0</ele><time>2026-04-25T12:41:50.936Z</time></trkpt><trkpt lat="43.7816825" lon="12.7058389"><ele>114.0</ele><time>2026-04-25T12:41:51.937Z</time></trkpt><trkpt lat="43.7816217" lon="12.7057194"><ele>114.0</ele><time>2026-04-25T12:41:52.937Z</time></trkpt><trkpt lat="43.7815664" lon="12.7056015"><ele>114.0</ele><time>2026-04-25T12:41:53.937Z</time></trkpt><trkpt lat="43.781516" lon="12.705487"><ele>114.0</ele><time>2026-04-25T12:41:54.937Z</time></trkpt><trkpt lat="43.7814684" lon="12.7053802"><ele>114.0</ele><time>2026-04-25T12:41:55.937Z</time></trkpt><trkpt lat="43.7814255" lon="12.7052811"><ele>114.0</ele><time>2026-04-25T12:41:56.937Z</time></trkpt><trkpt lat="43.7813837" lon="12.7051987"><ele>114.0</ele><time>2026-04-25T12:41:57.937Z</time></trkpt><trkpt lat="43.7813341" lon="12.7051409"><ele>114.0</ele><time>2026-04-25T12:41:58.937Z</time></trkpt><trkpt lat="43.7812761" lon="12.7050995"><ele>114.0</ele><time>2026-04-25T12:41:59.937Z</time></trkpt><trkpt lat="43.7812098" lon="12.7050576"><ele>114.0</ele><time>2026-04-25T12:42:00.937Z</time></trkpt><trkpt lat="43.7811319" lon="12.705007"><ele>114.0</ele><time>2026-04-25T12:42:01.937Z</time></trkpt><trkpt lat="43.7810478" lon="12.7049482"><ele>114.0</ele><time>2026-04-25T12:42:02.937Z</time></trkpt><trkpt lat="43.7809563" lon="12.7048806"><ele>114.0</ele><time>2026-04-25T12:42:03.937Z</time></trkpt><trkpt lat="43.7808566" lon="12.7048066"><ele>114.0</ele><time>2026-04-25T12:42:04.936Z</time></trkpt><trkpt lat="43.7807533" lon="12.7047323"><ele>114.0</ele><time>2026-04-25T12:42:05.937Z</time></trkpt><trkpt lat="43.7806527" lon="12.7046596"><ele>114.0</ele><time>2026-04-25T12:42:06.937Z</time></trkpt><trkpt lat="43.7805571" lon="12.7045811"><ele>114.0</ele><time>2026-04-25T12:42:07.937Z</time></trkpt><trkpt lat="43.7804611" lon="12.7045013"><ele>114.0</ele><time>2026-04-25T12:42:08.937Z</time></trkpt><trkpt lat="43.7803648" lon="12.7044187"><ele>114.0</ele><time>2026-04-25T12:42:09.937Z</time></trkpt><trkpt lat="43.7802725" lon="12.7043256"><ele>114.0</ele><time>2026-04-25T12:42:10.936Z</time></trkpt><trkpt lat="43.7801866" lon="12.7042213"><ele>114.0</ele><time>2026-04-25T12:42:11.937Z</time></trkpt><trkpt lat="43.780109" lon="12.7041066"><ele>114.0</ele><time>2026-04-25T12:42:12.937Z</time></trkpt><trkpt lat="43.7800334" lon="12.7039857"><ele>114.0</ele><time>2026-04-25T12:42:13.936Z</time></trkpt><trkpt lat="43.7799603" lon="12.7038603"><ele>114.0</ele><time>2026-04-25T12:42:14.937Z</time></trkpt><trkpt lat="43.7798905" lon="12.7037381"><ele>114.0</ele><time>2026-04-25T12:42:15.937Z</time></trkpt><trkpt lat="43.779821" lon="12.7036124"><ele>114.0</ele><time>2026-04-25T12:42:16.937Z</time></trkpt><trkpt lat="43.7797487" lon="12.7034896"><ele>114.2</ele><time>2026-04-25T12:42:17.936Z</time></trkpt><trkpt lat="43.7796866" lon="12.7033614"><ele>114.4</ele><time>2026-04-25T12:42:18.936Z</time></trkpt><trkpt lat="43.7796447" lon="12.7032281"><ele>114.6</ele><time>2026-04-25T12:42:19.936Z</time></trkpt><trkpt lat="43.7796242" lon="12.7030941"><ele>114.8</ele><time>2026-04-25T12:42:20.937Z</time></trkpt><trkpt lat="43.7796193" lon="12.7029672"><ele>115.0</ele><time>2026-04-25T12:42:21.937Z</time></trkpt><trkpt lat="43.7796235" lon="12.7028551"><ele>115.0</ele><time>2026-04-25T12:42:22.937Z</time></trkpt><trkpt lat="43.7796314" lon="12.702763"><ele>115.0</ele><time>2026-04-25T12:42:23.937Z</time></trkpt><trkpt lat="43.7796749" lon="12.7026041"><ele>115.0</ele><time>2026-04-25T12:42:25.937Z</time></trkpt><trkpt lat="43.7797161" lon="12.7025102"><ele>115.0</ele><time>2026-04-25T12:42:26.937Z</time></trkpt><trkpt lat="43.7797678" lon="12.7024047"><ele>115.0</ele><time>2026-04-25T12:42:27.936Z</time></trkpt><trkpt lat="43.7798239" lon="12.7022865"><ele>115.75</ele><time>2026-04-25T12:42:28.937Z</time></trkpt><trkpt lat="43.7798794" lon="12.7021577"><ele>116.5</ele><time>2026-04-25T12:42:29.936Z</time></trkpt><trkpt lat="43.7799395" lon="12.7020244"><ele>117.25</ele><time>2026-04-25T12:42:30.936Z</time></trkpt><trkpt lat="43.780003" lon="12.7018916"><ele>118.0</ele><time>2026-04-25T12:42:31.937Z</time></trkpt><trkpt lat="43.7800681" lon="12.7017606"><ele>118.60000000000001</ele><time>2026-04-25T12:42:32.937Z</time></trkpt><trkpt lat="43.7801318" lon="12.7016234"><ele>119.20000000000002</ele><time>2026-04-25T12:42:33.937Z</time></trkpt><trkpt lat="43.7801934" lon="12.7014932"><ele>119.8</ele><time>2026-04-25T12:42:34.936Z</time></trkpt><trkpt lat="43.7802452" lon="12.7013795"><ele>120.4</ele><time>2026-04-25T12:42:35.937Z</time></trkpt><trkpt lat="43.7802901" lon="12.7012888"><ele>121.0</ele><time>2026-04-25T12:42:36.937Z</time></trkpt><trkpt lat="43.7803241" lon="12.7012128"><ele>121.0</ele><time>2026-04-25T12:42:37.936Z</time></trkpt><trkpt lat="43.7803674" lon="12.7011027"><ele>121.0</ele><time>2026-04-25T12:42:39.937Z</time></trkpt><trkpt lat="43.780405" lon="12.700975"><ele>121.0</ele><time>2026-04-25T12:42:51.937Z</time></trkpt><trkpt lat="43.7804383" lon="12.7008233"><ele>121.0</ele><time>2026-04-25T12:42:53.937Z</time></trkpt><trkpt lat="43.7804767" lon="12.7007033"><ele>121.0</ele><time>2026-04-25T12:42:55.937Z</time></trkpt><trkpt lat="43.780515" lon="12.7006333"><ele>121.14285714285714</ele><time>2026-04-25T12:42:56.937Z</time></trkpt><trkpt lat="43.780555" lon="12.700555"><ele>121.28571428571428</ele><time>2026-04-25T12:42:57.937Z</time></trkpt><trkpt lat="43.7805783" lon="12.70046"><ele>121.42857142857142</ele><time>2026-04-25T12:42:58.936Z</time></trkpt><trkpt lat="43.7805917" lon="12.700355"><ele>121.57142857142856</ele><time>2026-04-25T12:42:59.936Z</time></trkpt><trkpt lat="43.7806" lon="12.70025"><ele>121.71428571428571</ele><time>2026-04-25T12:43:00.937Z</time></trkpt><trkpt lat="43.7806117" lon="12.7001433"><ele>121.85714285714283</ele><time>2026-04-25T12:43:01.937Z</time></trkpt><trkpt lat="43.7806283" lon="12.70004"><ele>121.99999999999999</ele><time>2026-04-25T12:43:02.937Z</time></trkpt><trkpt lat="43.7806467" lon="12.6999433"><ele>121.99999999999999</ele><time>2026-04-25T12:43:03.937Z</time></trkpt><trkpt lat="43.780665" lon="12.69985"><ele>122.0</ele><time>2026-04-25T12:43:04.937Z</time></trkpt><trkpt lat="43.7806967" lon="12.6997017"><ele>122.0</ele><time>2026-04-25T12:43:06.937Z</time></trkpt><trkpt lat="43.7807083" lon="12.6996067"><ele>122.0</ele><time>2026-04-25T12:43:09.937Z</time></trkpt><trkpt lat="43.7806917" lon="12.6995033"><ele>121.99999999999999</ele><time>2026-04-25T12:43:13.937Z</time></trkpt><trkpt lat="43.7806433" lon="12.6994"><ele>122.0</ele><time>2026-04-25T12:43:15.937Z</time></trkpt><trkpt lat="43.7806233" lon="12.69929"><ele>122.16666666666666</ele><time>2026-04-25T12:43:17.937Z</time></trkpt><trkpt lat="43.780675" lon="12.6992133"><ele>122.33333333333333</ele><time>2026-04-25T12:48:10.937Z</time></trkpt><trkpt lat="43.780695" lon="12.699115"><ele>122.5</ele><time>2026-04-25T12:48:12.937Z</time></trkpt><trkpt lat="43.7807183" lon="12.699005"><ele>122.66666666666666</ele><time>2026-04-25T12:48:14.937Z</time></trkpt><trkpt lat="43.7807617" lon="12.698895"><ele>122.83333333333333</ele><time>2026-04-25T12:48:17.937Z</time></trkpt><trkpt lat="43.7808117" lon="12.6988167"><ele>123.0</ele><time>2026-04-25T12:48:20.937Z</time></trkpt><trkpt lat="43.7808667" lon="12.6987333"><ele>123.0</ele><time>2026-04-25T12:48:22.937Z</time></trkpt><trkpt lat="43.7809133" lon="12.6985883"><ele>123.0</ele><time>2026-04-25T12:48:24.937Z</time></trkpt><trkpt lat="43.780925" lon="12.6984917"><ele>123.0</ele><time>2026-04-25T12:48:25.936Z</time></trkpt><trkpt lat="43.7809367" lon="12.69839"><ele>123.0</ele><time>2026-04-25T12:48:26.937Z</time></trkpt><trkpt lat="43.7809533" lon="12.6982817"><ele>123.0</ele><time>2026-04-25T12:48:27.937Z</time></trkpt><trkpt lat="43.780975" lon="12.69817"><ele>123.0</ele><time>2026-04-25T12:48:28.937Z</time></trkpt><trkpt lat="43.7810017" lon="12.6980533"><ele>123.2</ele><time>2026-04-25T12:48:29.937Z</time></trkpt><trkpt lat="43.7810267" lon="12.6979283"><ele>123.4</ele><time>2026-04-25T12:48:30.937Z</time></trkpt><trkpt lat="43.7810483" lon="12.697795"><ele>123.60000000000001</ele><time>2026-04-25T12:48:31.937Z</time></trkpt><trkpt lat="43.7810667" lon="12.6976583"><ele>123.80000000000001</ele><time>2026-04-25T12:48:32.937Z</time></trkpt><trkpt lat="43.78109" lon="12.697525"><ele>124.0</ele><time>2026-04-25T12:48:33.937Z</time></trkpt><trkpt lat="43.7811183" lon="12.697385"><ele>124.0</ele><time>2026-04-25T12:48:34.937Z</time></trkpt><trkpt lat="43.7811483" lon="12.6972417"><ele>124.0</ele><time>2026-04-25T12:48:35.937Z</time></trkpt><trkpt lat="43.78118" lon="12.6970917"><ele>124.0</ele><time>2026-04-25T12:48:36.937Z</time></trkpt><trkpt lat="43.7812083" lon="12.6969367"><ele>124.0</ele><time>2026-04-25T12:48:37.937Z</time></trkpt><trkpt lat="43.78124" lon="12.6967767"><ele>123.5</ele><time>2026-04-25T12:48:38.937Z</time></trkpt><trkpt lat="43.781275" lon="12.6966117"><ele>123.0</ele><time>2026-04-25T12:48:39.936Z</time></trkpt><trkpt lat="43.78131" lon="12.696445"><ele>122.5</ele><time>2026-04-25T12:48:40.936Z</time></trkpt><trkpt lat="43.781345" lon="12.69628"><ele>122.0</ele><time>2026-04-25T12:48:41.937Z</time></trkpt><trkpt lat="43.7813783" lon="12.6961133"><ele>122.5</ele><time>2026-04-25T12:48:42.937Z</time></trkpt><trkpt lat="43.78141" lon="12.6959467"><ele>123.0</ele><time>2026-04-25T12:48:43.937Z</time></trkpt><trkpt lat="43.7814417" lon="12.6957783"><ele>123.5</ele><time>2026-04-25T12:48:44.937Z</time></trkpt><trkpt lat="43.781475" lon="12.6956117"><ele>124.0</ele><time>2026-04-25T12:48:45.937Z</time></trkpt><trkpt lat="43.7815083" lon="12.6954433"><ele>124.0</ele><time>2026-04-25T12:48:46.937Z</time></trkpt><trkpt lat="43.7815433" lon="12.6952767"><ele>124.0</ele><time>2026-04-25T12:48:47.936Z</time></trkpt><trkpt lat="43.7815767" lon="12.6951083"><ele>124.0</ele><time>2026-04-25T12:48:48.937Z</time></trkpt><trkpt lat="43.78161" lon="12.69494"><ele>124.0</ele><time>2026-04-25T12:48:49.937Z</time></trkpt><trkpt lat="43.7816433" lon="12.6947733"><ele>124.0</ele><time>2026-04-25T12:48:50.937Z</time></trkpt><trkpt lat="43.7816733" lon="12.6946033"><ele>124.0</ele><time>2026-04-25T12:48:51.937Z</time></trkpt><trkpt lat="43.7817033" lon="12.6944317"><ele>124.0</ele><time>2026-04-25T12:48:52.937Z</time></trkpt><trkpt lat="43.781735" lon="12.6942583"><ele>124.0</ele><time>2026-04-25T12:48:53.937Z</time></trkpt><trkpt lat="43.7817683" lon="12.694085"><ele>124.0</ele><time>2026-04-25T12:48:54.937Z</time></trkpt><trkpt lat="43.781805" lon="12.693915"><ele>124.0</ele><time>2026-04-25T12:48:55.936Z</time></trkpt><trkpt lat="43.7818383" lon="12.6937433"><ele>124.0</ele><time>2026-04-25T12:48:56.937Z</time></trkpt><trkpt lat="43.78187" lon="12.69357"><ele>124.0</ele><time>2026-04-25T12:48:57.937Z</time></trkpt><trkpt lat="43.7819033" lon="12.69339"><ele>126.0</ele><time>2026-04-25T12:48:58.937Z</time></trkpt><trkpt lat="43.7819417" lon="12.69321"><ele>128.0</ele><time>2026-04-25T12:48:59.936Z</time></trkpt><trkpt lat="43.7819733" lon="12.6930267"><ele>130.0</ele><time>2026-04-25T12:49:00.936Z</time></trkpt><trkpt lat="43.7819933" lon="12.6928417"><ele>132.0</ele><time>2026-04-25T12:49:01.937Z</time></trkpt><trkpt lat="43.7820217" lon="12.6926617"><ele>132.0</ele><time>2026-04-25T12:49:02.937Z</time></trkpt><trkpt lat="43.7820383" lon="12.6924833"><ele>132.0</ele><time>2026-04-25T12:49:03.937Z</time></trkpt><trkpt lat="43.7820433" lon="12.6923067"><ele>132.0</ele><time>2026-04-25T12:49:04.937Z</time></trkpt><trkpt lat="43.7820483" lon="12.692135"><ele>132.0</ele><time>2026-04-25T12:49:05.937Z</time></trkpt><trkpt lat="43.7820467" lon="12.6919633"><ele>133.25</ele><time>2026-04-25T12:49:06.937Z</time></trkpt><trkpt lat="43.7820383" lon="12.69179"><ele>134.5</ele><time>2026-04-25T12:49:07.937Z</time></trkpt><trkpt lat="43.7820217" lon="12.6916167"><ele>135.75</ele><time>2026-04-25T12:49:08.937Z</time></trkpt><trkpt lat="43.782" lon="12.6914467"><ele>137.0</ele><time>2026-04-25T12:49:09.937Z</time></trkpt><trkpt lat="43.781975" lon="12.6912783"><ele>137.0</ele><time>2026-04-25T12:49:10.936Z</time></trkpt><trkpt lat="43.7819433" lon="12.691115"><ele>137.0</ele><time>2026-04-25T12:49:11.937Z</time></trkpt><trkpt lat="43.78191" lon="12.6909583"><ele>137.0</ele><time>2026-04-25T12:49:12.937Z</time></trkpt><trkpt lat="43.781875" lon="12.6908033"><ele>137.0</ele><time>2026-04-25T12:49:13.937Z</time></trkpt><trkpt lat="43.7818367" lon="12.6906483"><ele>134.79999999999998</ele><time>2026-04-25T12:49:14.937Z</time></trkpt><trkpt lat="43.7817983" lon="12.6904967"><ele>132.6</ele><time>2026-04-25T12:49:15.937Z</time></trkpt><trkpt lat="43.7817583" lon="12.69035"><ele>130.39999999999998</ele><time>2026-04-25T12:49:16.936Z</time></trkpt><trkpt lat="43.7817217" lon="12.6902117"><ele>128.2</ele><time>2026-04-25T12:49:17.937Z</time></trkpt><trkpt lat="43.7816883" lon="12.6900767"><ele>126.0</ele><time>2026-04-25T12:49:18.937Z</time></trkpt><trkpt lat="43.7816567" lon="12.6899517"><ele>126.0</ele><time>2026-04-25T12:49:19.936Z</time></trkpt><trkpt lat="43.7816283" lon="12.6898383"><ele>126.0</ele><time>2026-04-25T12:49:20.937Z</time></trkpt><trkpt lat="43.7816033" lon="12.68975"><ele>126.0</ele><time>2026-04-25T12:49:21.936Z</time></trkpt><trkpt lat="43.78158" lon="12.6896133"><ele>126.0</ele><time>2026-04-25T12:49:23.937Z</time></trkpt><trkpt lat="43.7815567" lon="12.689515"><ele>126.0</ele><time>2026-04-25T12:49:25.937Z</time></trkpt><trkpt lat="43.7815317" lon="12.6894133"><ele>126.0</ele><time>2026-04-25T12:49:27.936Z</time></trkpt><trkpt lat="43.7814967" lon="12.68929"><ele>126.66666666666667</ele><time>2026-04-25T12:49:29.937Z</time></trkpt><trkpt lat="43.7814467" lon="12.6891483"><ele>127.33333333333334</ele><time>2026-04-25T12:49:31.937Z</time></trkpt><trkpt lat="43.7813833" lon="12.689005"><ele>128.0</ele><time>2026-04-25T12:49:33.937Z</time></trkpt><trkpt lat="43.78134" lon="12.6889383"><ele>128.66666666666669</ele><time>2026-04-25T12:49:34.937Z</time></trkpt><trkpt lat="43.7813" lon="12.6888617"><ele>129.33333333333334</ele><time>2026-04-25T12:49:35.937Z</time></trkpt><trkpt lat="43.7812617" lon="12.6887817"><ele>130.0</ele><time>2026-04-25T12:49:36.937Z</time></trkpt><trkpt lat="43.7812217" lon="12.6887033"><ele>130.00000000000003</ele><time>2026-04-25T12:49:37.937Z</time></trkpt><trkpt lat="43.7811767" lon="12.6886333"><ele>130.0</ele><time>2026-04-25T12:49:38.937Z</time></trkpt><trkpt lat="43.7811333" lon="12.688565"><ele>130.0</ele><time>2026-04-25T12:49:39.937Z</time></trkpt><trkpt lat="43.7810917" lon="12.688495"><ele>130.0</ele><time>2026-04-25T12:49:40.936Z</time></trkpt><trkpt lat="43.7810433" lon="12.6884267"><ele>130.0</ele><time>2026-04-25T12:49:41.937Z</time></trkpt><trkpt lat="43.7809983" lon="12.68835"><ele>130.00000000000003</ele><time>2026-04-25T12:49:42.937Z</time></trkpt><trkpt lat="43.7809467" lon="12.6882767"><ele>130.0</ele><time>2026-04-25T12:49:43.937Z</time></trkpt><trkpt lat="43.7808917" lon="12.688195"><ele>130.0</ele><time>2026-04-25T12:49:44.937Z</time></trkpt><trkpt lat="43.7808367" lon="12.6881067"><ele>130.0</ele><time>2026-04-25T12:49:45.937Z</time></trkpt><trkpt lat="43.7807733" lon="12.6880217"><ele>130.0</ele><time>2026-04-25T12:49:46.937Z</time></trkpt><trkpt lat="43.7807133" lon="12.6879267"><ele>130.0</ele><time>2026-04-25T12:49:47.937Z</time></trkpt><trkpt lat="43.7806483" lon="12.6878317"><ele>130.0</ele><time>2026-04-25T12:49:48.937Z</time></trkpt><trkpt lat="43.7805733" lon="12.6877417"><ele>130.0</ele><time>2026-04-25T12:49:49.937Z</time></trkpt><trkpt lat="43.7804933" lon="12.68766"><ele>130.0</ele><time>2026-04-25T12:49:50.937Z</time></trkpt><trkpt lat="43.7804067" lon="12.6875833"><ele>130.0</ele><time>2026-04-25T12:49:51.936Z</time></trkpt><trkpt lat="43.780315" lon="12.6875133"><ele>130.0</ele><time>2026-04-25T12:49:52.937Z</time></trkpt><trkpt lat="43.7802267" lon="12.6874367"><ele>130.0</ele><time>2026-04-25T12:49:53.937Z</time></trkpt><trkpt lat="43.7801333" lon="12.68737"><ele>129.8</ele><time>2026-04-25T12:49:54.937Z</time></trkpt><trkpt lat="43.7800367" lon="12.687305"><ele>129.6</ele><time>2026-04-25T12:49:55.936Z</time></trkpt><trkpt lat="43.7799383" lon="12.6872417"><ele>129.4</ele><time>2026-04-25T12:49:56.937Z</time></trkpt><trkpt lat="43.77984" lon="12.6871767"><ele>129.2</ele><time>2026-04-25T12:49:57.937Z</time></trkpt><trkpt lat="43.779745" lon="12.6871067"><ele>129.0</ele><time>2026-04-25T12:49:58.937Z</time></trkpt><trkpt lat="43.779645" lon="12.6870417"><ele>129.0</ele><time>2026-04-25T12:49:59.937Z</time></trkpt><trkpt lat="43.7795483" lon="12.6869683"><ele>129.0</ele><time>2026-04-25T12:50:00.937Z</time></trkpt><trkpt lat="43.7794483" lon="12.686895"><ele>129.0</ele><time>2026-04-25T12:50:01.937Z</time></trkpt><trkpt lat="43.779345" lon="12.6868167"><ele>129.0</ele><time>2026-04-25T12:50:02.937Z</time></trkpt><trkpt lat="43.7792367" lon="12.6867417"><ele>129.25</ele><time>2026-04-25T12:50:03.936Z</time></trkpt><trkpt lat="43.7791217" lon="12.6866717"><ele>129.5</ele><time>2026-04-25T12:50:04.937Z</time></trkpt><trkpt lat="43.7790083" lon="12.6865917"><ele>129.75</ele><time>2026-04-25T12:50:05.937Z</time></trkpt><trkpt lat="43.7788967" lon="12.6865033"><ele>130.0</ele><time>2026-04-25T12:50:06.937Z</time></trkpt><trkpt lat="43.7787833" lon="12.6864117"><ele>130.0</ele><time>2026-04-25T12:50:07.936Z</time></trkpt><trkpt lat="43.7786717" lon="12.6863167"><ele>130.0</ele><time>2026-04-25T12:50:08.937Z</time></trkpt><trkpt lat="43.778555" lon="12.686225"><ele>130.0</ele><time>2026-04-25T12:50:09.937Z</time></trkpt><trkpt lat="43.77843" lon="12.686135"><ele>130.0</ele><time>2026-04-25T12:50:10.936Z</time></trkpt><trkpt lat="43.7783067" lon="12.686035"><ele>130.25</ele><time>2026-04-25T12:50:11.937Z</time></trkpt><trkpt lat="43.778185" lon="12.6859417"><ele>130.5</ele><time>2026-04-25T12:50:12.937Z</time></trkpt><trkpt lat="43.7780667" lon="12.6858467"><ele>130.75</ele><time>2026-04-25T12:50:13.937Z</time></trkpt><trkpt lat="43.777945" lon="12.6857567"><ele>131.0</ele><time>2026-04-25T12:50:14.937Z</time></trkpt><trkpt lat="43.7778217" lon="12.6856633"><ele>131.0</ele><time>2026-04-25T12:50:15.937Z</time></trkpt><trkpt lat="43.7777033" lon="12.6855617"><ele>131.0</ele><time>2026-04-25T12:50:16.937Z</time></trkpt><trkpt lat="43.7775833" lon="12.6854583"><ele>131.0</ele><time>2026-04-25T12:50:17.937Z</time></trkpt><trkpt lat="43.77746" lon="12.6853633"><ele>131.0</ele><time>2026-04-25T12:50:18.937Z</time></trkpt><trkpt lat="43.777345" lon="12.6852667"><ele>131.5</ele><time>2026-04-25T12:50:19.937Z</time></trkpt><trkpt lat="43.7772383" lon="12.68517"><ele>132.0</ele><time>2026-04-25T12:50:20.936Z</time></trkpt><trkpt lat="43.7771383" lon="12.6850633"><ele>132.5</ele><time>2026-04-25T12:50:21.937Z</time></trkpt><trkpt lat="43.7770533" lon="12.6849283"><ele>133.0</ele><time>2026-04-25T12:50:22.936Z</time></trkpt><trkpt lat="43.7769917" lon="12.6847783"><ele>133.0</ele><time>2026-04-25T12:50:23.937Z</time></trkpt><trkpt lat="43.7769433" lon="12.684615"><ele>133.0</ele><time>2026-04-25T12:50:24.937Z</time></trkpt><trkpt lat="43.776915" lon="12.6844417"><ele>133.0</ele><time>2026-04-25T12:50:25.936Z</time></trkpt><trkpt lat="43.7769017" lon="12.6842633"><ele>133.0</ele><time>2026-04-25T12:50:26.937Z</time></trkpt><trkpt lat="43.776905" lon="12.6840783"><ele>135.75</ele><time>2026-04-25T12:50:27.937Z</time></trkpt><trkpt lat="43.7769183" lon="12.683895"><ele>138.5</ele><time>2026-04-25T12:50:28.937Z</time></trkpt><trkpt lat="43.7769317" lon="12.6837067"><ele>141.25</ele><time>2026-04-25T12:50:29.937Z</time></trkpt><trkpt lat="43.7769367" lon="12.6835133"><ele>144.0</ele><time>2026-04-25T12:50:30.937Z</time></trkpt><trkpt lat="43.77694" lon="12.6833183"><ele>145.75</ele><time>2026-04-25T12:50:31.937Z</time></trkpt><trkpt lat="43.7769433" lon="12.6831233"><ele>147.5</ele><time>2026-04-25T12:50:32.937Z</time></trkpt><trkpt lat="43.7769467" lon="12.6829333"><ele>149.25</ele><time>2026-04-25T12:50:33.936Z</time></trkpt><trkpt lat="43.7769517" lon="12.6827467"><ele>151.0</ele><time>2026-04-25T12:50:34.937Z</time></trkpt><trkpt lat="43.7769367" lon="12.6825617"><ele>151.75</ele><time>2026-04-25T12:50:35.937Z</time></trkpt><trkpt lat="43.7769117" lon="12.68238"><ele>152.5</ele><time>2026-04-25T12:50:36.937Z</time></trkpt><trkpt lat="43.77687" lon="12.6822017"><ele>153.25</ele><time>2026-04-25T12:50:37.936Z</time></trkpt><trkpt lat="43.776825" lon="12.6820267"><ele>154.0</ele><time>2026-04-25T12:50:38.937Z</time></trkpt><trkpt lat="43.77678" lon="12.68185"><ele>150.0</ele><time>2026-04-25T12:50:39.937Z</time></trkpt><trkpt lat="43.7767367" lon="12.6816767"><ele>146.0</ele><time>2026-04-25T12:50:40.937Z</time></trkpt><trkpt lat="43.7766933" lon="12.6815117"><ele>142.0</ele><time>2026-04-25T12:50:41.937Z</time></trkpt><trkpt lat="43.77665" lon="12.6813567"><ele>138.0</ele><time>2026-04-25T12:50:42.937Z</time></trkpt><trkpt lat="43.776615" lon="12.6812183"><ele>138.0</ele><time>2026-04-25T12:50:43.937Z</time></trkpt><trkpt lat="43.7765883" lon="12.6811067"><ele>138.0</ele><time>2026-04-25T12:50:44.937Z</time></trkpt><trkpt lat="43.77659" lon="12.68101"><ele>138.0</ele><time>2026-04-25T12:50:45.936Z</time></trkpt><trkpt lat="43.7766133" lon="12.6809267"><ele>138.0</ele><time>2026-04-25T12:50:46.937Z</time></trkpt><trkpt lat="43.7766583" lon="12.6808567"><ele>138.0</ele><time>2026-04-25T12:50:47.936Z</time></trkpt><trkpt lat="43.7767217" lon="12.6807967"><ele>138.0</ele><time>2026-04-25T12:50:48.937Z</time></trkpt><trkpt lat="43.7768017" lon="12.6807467"><ele>141.20000000000002</ele><time>2026-04-25T12:50:49.937Z</time></trkpt><trkpt lat="43.7768917" lon="12.6807017"><ele>144.4</ele><time>2026-04-25T12:50:50.937Z</time></trkpt><trkpt lat="43.7769867" lon="12.680645"><ele>147.60000000000002</ele><time>2026-04-25T12:50:51.937Z</time></trkpt><trkpt lat="43.7770833" lon="12.68057"><ele>150.8</ele><time>2026-04-25T12:50:52.937Z</time></trkpt><trkpt lat="43.77718" lon="12.6804967"><ele>154.0</ele><time>2026-04-25T12:50:53.937Z</time></trkpt><trkpt lat="43.77727" lon="12.6804333"><ele>154.0</ele><time>2026-04-25T12:50:54.937Z</time></trkpt><trkpt lat="43.7773633" lon="12.680385"><ele>154.0</ele><time>2026-04-25T12:50:55.937Z</time></trkpt><trkpt lat="43.7774633" lon="12.6803667"><ele>154.0</ele><time>2026-04-25T12:50:56.936Z</time></trkpt><trkpt lat="43.7775567" lon="12.6803833"><ele>154.0</ele><time>2026-04-25T12:50:57.937Z</time></trkpt><trkpt lat="43.7776483" lon="12.6804317"><ele>154.0</ele><time>2026-04-25T12:50:58.937Z</time></trkpt><trkpt lat="43.7777267" lon="12.680505"><ele>157.0</ele><time>2026-04-25T12:50:59.937Z</time></trkpt><trkpt lat="43.7777933" lon="12.680615"><ele>160.0</ele><time>2026-04-25T12:51:00.937Z</time></trkpt><trkpt lat="43.7778467" lon="12.6807367"><ele>163.0</ele><time>2026-04-25T12:51:01.937Z</time></trkpt><trkpt lat="43.7778933" lon="12.68086"><ele>166.0</ele><time>2026-04-25T12:51:02.937Z</time></trkpt><trkpt lat="43.7779383" lon="12.6809883"><ele>169.0</ele><time>2026-04-25T12:51:03.937Z</time></trkpt><trkpt lat="43.7779783" lon="12.68112"><ele>170.75</ele><time>2026-04-25T12:51:04.936Z</time></trkpt><trkpt lat="43.778005" lon="12.68126"><ele>172.5</ele><time>2026-04-25T12:51:05.936Z</time></trkpt><trkpt lat="43.7780167" lon="12.6814183"><ele>174.25</ele><time>2026-04-25T12:51:06.937Z</time></trkpt><trkpt lat="43.7780117" lon="12.681585"><ele>176.0</ele><time>2026-04-25T12:51:07.937Z</time></trkpt><trkpt lat="43.778005" lon="12.6817433"><ele>176.0</ele><time>2026-04-25T12:51:08.937Z</time></trkpt><trkpt lat="43.7780067" lon="12.6818817"><ele>176.0</ele><time>2026-04-25T12:51:09.937Z</time></trkpt><trkpt lat="43.7780183" lon="12.6819967"><ele>176.0</ele><time>2026-04-25T12:51:10.937Z</time></trkpt><trkpt lat="43.7780433" lon="12.6820817"><ele>176.0</ele><time>2026-04-25T12:51:11.937Z</time></trkpt><trkpt lat="43.778125" lon="12.68214"><ele>176.0</ele><time>2026-04-25T12:51:13.936Z</time></trkpt><trkpt lat="43.7782067" lon="12.6820433"><ele>176.0</ele><time>2026-04-25T12:51:15.937Z</time></trkpt><trkpt lat="43.778295" lon="12.6819333"><ele>176.0</ele><time>2026-04-25T12:51:17.936Z</time></trkpt><trkpt lat="43.7783583" lon="12.6819317"><ele>176.0</ele><time>2026-04-25T12:51:18.937Z</time></trkpt><trkpt lat="43.778425" lon="12.6819667"><ele>176.0</ele><time>2026-04-25T12:51:19.937Z</time></trkpt><trkpt lat="43.7784967" lon="12.6820267"><ele>176.0</ele><time>2026-04-25T12:51:20.936Z</time></trkpt><trkpt lat="43.7785683" lon="12.6820917"><ele>176.0</ele><time>2026-04-25T12:51:21.937Z</time></trkpt><trkpt lat="43.778645" lon="12.6821433"><ele>176.0</ele><time>2026-04-25T12:51:22.936Z</time></trkpt><trkpt lat="43.7787233" lon="12.6821633"><ele>179.20000000000002</ele><time>2026-04-25T12:51:23.936Z</time></trkpt><trkpt lat="43.7788033" lon="12.68216"><ele>182.4</ele><time>2026-04-25T12:51:24.937Z</time></trkpt><trkpt lat="43.778895" lon="12.68214"><ele>185.6</ele><time>2026-04-25T12:51:25.936Z</time></trkpt><trkpt lat="43.7789917" lon="12.6821183"><ele>188.8</ele><time>2026-04-25T12:51:26.937Z</time></trkpt><trkpt lat="43.779095" lon="12.6821033"><ele>192.0</ele><time>2026-04-25T12:51:27.937Z</time></trkpt><trkpt lat="43.779205" lon="12.68211"><ele>192.0</ele><time>2026-04-25T12:51:28.936Z</time></trkpt><trkpt lat="43.7793283" lon="12.6821367"><ele>192.0</ele><time>2026-04-25T12:51:29.937Z</time></trkpt><trkpt lat="43.7794517" lon="12.6821683"><ele>192.0</ele><time>2026-04-25T12:51:30.936Z</time></trkpt><trkpt lat="43.7795633" lon="12.68219"><ele>192.0</ele><time>2026-04-25T12:51:31.937Z</time></trkpt><trkpt lat="43.77966" lon="12.682195"><ele>194.2</ele><time>2026-04-25T12:51:32.937Z</time></trkpt><trkpt lat="43.7797517" lon="12.682185"><ele>196.39999999999998</ele><time>2026-04-25T12:51:33.936Z</time></trkpt><trkpt lat="43.7798433" lon="12.6821533"><ele>198.60000000000002</ele><time>2026-04-25T12:51:34.937Z</time></trkpt><trkpt lat="43.77994" lon="12.6820917"><ele>200.8</ele><time>2026-04-25T12:51:35.937Z</time></trkpt><trkpt lat="43.7800367" lon="12.682"><ele>203.0</ele><time>2026-04-25T12:51:36.936Z</time></trkpt><trkpt lat="43.7801283" lon="12.6818967"><ele>206.2</ele><time>2026-04-25T12:51:37.937Z</time></trkpt><trkpt lat="43.780205" lon="12.6817983"><ele>209.4</ele><time>2026-04-25T12:51:38.937Z</time></trkpt><trkpt lat="43.780265" lon="12.6817017"><ele>212.59999999999997</ele><time>2026-04-25T12:51:39.937Z</time></trkpt><trkpt lat="43.7803117" lon="12.6815933"><ele>215.79999999999998</ele><time>2026-04-25T12:51:40.936Z</time></trkpt><trkpt lat="43.7803467" lon="12.6814683"><ele>219.0</ele><time>2026-04-25T12:51:41.937Z</time></trkpt><trkpt lat="43.7803733" lon="12.6813317"><ele>219.0</ele><time>2026-04-25T12:51:42.937Z</time></trkpt><trkpt lat="43.7803967" lon="12.681195"><ele>218.99999999999997</ele><time>2026-04-25T12:51:43.936Z</time></trkpt><trkpt lat="43.7804217" lon="12.681075"><ele>218.99999999999997</ele><time>2026-04-25T12:51:44.937Z</time></trkpt><trkpt lat="43.7804467" lon="12.68097"><ele>219.0</ele><time>2026-04-25T12:51:45.937Z</time></trkpt><trkpt lat="43.7804767" lon="12.6808867"><ele>219.0</ele><time>2026-04-25T12:51:46.937Z</time></trkpt><trkpt lat="43.78055" lon="12.6807667"><ele>220.79999999999998</ele><time>2026-04-25T12:51:48.937Z</time></trkpt><trkpt lat="43.7806083" lon="12.6806517"><ele>222.59999999999997</ele><time>2026-04-25T12:51:50.937Z</time></trkpt><trkpt lat="43.7806433" lon="12.6805317"><ele>224.4</ele><time>2026-04-25T12:51:52.936Z</time></trkpt><trkpt lat="43.7806933" lon="12.6803617"><ele>226.2</ele><time>2026-04-25T12:51:54.936Z</time></trkpt><trkpt lat="43.780735" lon="12.6802617"><ele>228.0</ele><time>2026-04-25T12:51:55.937Z</time></trkpt><trkpt lat="43.780785" lon="12.680155"><ele>228.0</ele><time>2026-04-25T12:51:56.937Z</time></trkpt><trkpt lat="43.78085" lon="12.680045"><ele>228.0</ele><time>2026-04-25T12:51:57.937Z</time></trkpt><trkpt lat="43.7809217" lon="12.67993"><ele>228.0</ele><time>2026-04-25T12:51:58.936Z</time></trkpt><trkpt lat="43.7809983" lon="12.679815"><ele>228.0</ele><time>2026-04-25T12:51:59.937Z</time></trkpt><trkpt lat="43.7810783" lon="12.67971"><ele>228.0</ele><time>2026-04-25T12:52:00.937Z</time></trkpt><trkpt lat="43.7811517" lon="12.67961"><ele>231.0</ele><time>2026-04-25T12:52:01.937Z</time></trkpt><trkpt lat="43.7812283" lon="12.679515"><ele>234.0</ele><time>2026-04-25T12:52:02.936Z</time></trkpt><trkpt lat="43.7813133" lon="12.679435"><ele>237.0</ele><time>2026-04-25T12:52:03.936Z</time></trkpt><trkpt lat="43.7814033" lon="12.679365"><ele>240.0</ele><time>2026-04-25T12:52:04.936Z</time></trkpt><trkpt lat="43.7814933" lon="12.6792867"><ele>243.0</ele><time>2026-04-25T12:52:05.936Z</time></trkpt><trkpt lat="43.78158" lon="12.679195"><ele>243.0</ele><time>2026-04-25T12:52:06.937Z</time></trkpt><trkpt lat="43.7816583" lon="12.6790783"><ele>243.0</ele><time>2026-04-25T12:52:07.937Z</time></trkpt><trkpt lat="43.78173" lon="12.6789433"><ele>243.0</ele><time>2026-04-25T12:52:08.937Z</time></trkpt><trkpt lat="43.7818083" lon="12.6788"><ele>243.0</ele><time>2026-04-25T12:52:09.937Z</time></trkpt><trkpt lat="43.7818967" lon="12.678675"><ele>245.0</ele><time>2026-04-25T12:52:10.936Z</time></trkpt><trkpt lat="43.7819867" lon="12.6785633"><ele>247.0</ele><time>2026-04-25T12:52:11.936Z</time></trkpt><trkpt lat="43.782085" lon="12.6784567"><ele>249.0</ele><time>2026-04-25T12:52:12.937Z</time></trkpt><trkpt lat="43.782175" lon="12.6783267"><ele>251.0</ele><time>2026-04-25T12:52:13.937Z</time></trkpt><trkpt lat="43.78228" lon="12.6782033"><ele>251.0</ele><time>2026-04-25T12:52:14.937Z</time></trkpt><trkpt lat="43.7823933" lon="12.67809"><ele>251.0</ele><time>2026-04-25T12:52:15.937Z</time></trkpt><trkpt lat="43.782515" lon="12.6779933"><ele>251.0</ele><time>2026-04-25T12:52:16.937Z</time></trkpt><trkpt lat="43.78264" lon="12.6779083"><ele>251.0</ele><time>2026-04-25T12:52:17.937Z</time></trkpt><trkpt lat="43.7827633" lon="12.6778217"><ele>253.25</ele><time>2026-04-25T12:52:18.937Z</time></trkpt><trkpt lat="43.7828783" lon="12.6777317"><ele>255.5</ele><time>2026-04-25T12:52:19.937Z</time></trkpt><trkpt lat="43.782985" lon="12.6776317"><ele>257.75</ele><time>2026-04-25T12:52:20.936Z</time></trkpt><trkpt lat="43.7830833" lon="12.67751"><ele>260.0</ele><time>2026-04-25T12:52:21.937Z</time></trkpt><trkpt lat="43.783175" lon="12.6773833"><ele>260.0</ele><time>2026-04-25T12:52:22.937Z</time></trkpt><trkpt lat="43.78326" lon="12.6772567"><ele>260.0</ele><time>2026-04-25T12:52:23.937Z</time></trkpt><trkpt lat="43.78334" lon="12.6771317"><ele>260.0</ele><time>2026-04-25T12:52:24.936Z</time></trkpt><trkpt lat="43.7834133" lon="12.6769933"><ele>260.0</ele><time>2026-04-25T12:52:25.936Z</time></trkpt><trkpt lat="43.7834833" lon="12.6768533"><ele>261.2</ele><time>2026-04-25T12:52:26.936Z</time></trkpt><trkpt lat="43.783545" lon="12.6767233"><ele>262.4</ele><time>2026-04-25T12:52:27.936Z</time></trkpt><trkpt lat="43.7836033" lon="12.6765967"><ele>263.6</ele><time>2026-04-25T12:52:28.936Z</time></trkpt><trkpt lat="43.783655" lon="12.6764817"><ele>264.8</ele><time>2026-04-25T12:52:29.937Z</time></trkpt><trkpt lat="43.7837033" lon="12.67638"><ele>266.0</ele><time>2026-04-25T12:52:30.937Z</time></trkpt><trkpt lat="43.7837533" lon="12.6762833"><ele>266.0</ele><time>2026-04-25T12:52:31.937Z</time></trkpt><trkpt lat="43.7838033" lon="12.676195"><ele>266.0</ele><time>2026-04-25T12:52:32.937Z</time></trkpt><trkpt lat="43.7838633" lon="12.676105"><ele>266.0</ele><time>2026-04-25T12:52:33.937Z</time></trkpt><trkpt lat="43.7839383" lon="12.6760133"><ele>266.0</ele><time>2026-04-25T12:52:34.937Z</time></trkpt><trkpt lat="43.78402" lon="12.6759233"><ele>266.0</ele><time>2026-04-25T12:52:35.937Z</time></trkpt><trkpt lat="43.7841033" lon="12.67584"><ele>266.2</ele><time>2026-04-25T12:52:36.937Z</time></trkpt><trkpt lat="43.78419" lon="12.67577"><ele>266.40000000000003</ele><time>2026-04-25T12:52:37.937Z</time></trkpt><trkpt lat="43.7842783" lon="12.6757083"><ele>266.6</ele><time>2026-04-25T12:52:38.937Z</time></trkpt><trkpt lat="43.78437" lon="12.6756433"><ele>266.8</ele><time>2026-04-25T12:52:39.936Z</time></trkpt><trkpt lat="43.7844667" lon="12.6755717"><ele>267.0</ele><time>2026-04-25T12:52:40.937Z</time></trkpt><trkpt lat="43.7845417" lon="12.67545"><ele>265.6</ele><time>2026-04-25T12:52:41.937Z</time></trkpt><trkpt lat="43.784615" lon="12.6753233"><ele>264.2</ele><time>2026-04-25T12:52:42.937Z</time></trkpt><trkpt lat="43.7846783" lon="12.6751867"><ele>262.8</ele><time>2026-04-25T12:52:43.937Z</time></trkpt><trkpt lat="43.7847333" lon="12.6750717"><ele>261.4</ele><time>2026-04-25T12:52:44.937Z</time></trkpt><trkpt lat="43.7847783" lon="12.6749833"><ele>260.0</ele><time>2026-04-25T12:52:45.936Z</time></trkpt><trkpt lat="43.7848167" lon="12.674905"><ele>260.0</ele><time>2026-04-25T12:52:46.937Z</time></trkpt><trkpt lat="43.7848517" lon="12.6748267"><ele>260.0</ele><time>2026-04-25T12:52:47.937Z</time></trkpt><trkpt lat="43.784895" lon="12.6747433"><ele>260.0</ele><time>2026-04-25T12:52:48.937Z</time></trkpt><trkpt lat="43.784945" lon="12.674655"><ele>260.0</ele><time>2026-04-25T12:52:49.937Z</time></trkpt><trkpt lat="43.7850017" lon="12.674555"><ele>260.0</ele><time>2026-04-25T12:52:50.937Z</time></trkpt><trkpt lat="43.78506" lon="12.6744433"><ele>260.0</ele><time>2026-04-25T12:52:51.937Z</time></trkpt><trkpt lat="43.7851217" lon="12.67432"><ele>259.4</ele><time>2026-04-25T12:52:52.937Z</time></trkpt><trkpt lat="43.7851783" lon="12.674185"><ele>258.8</ele><time>2026-04-25T12:52:53.937Z</time></trkpt><trkpt lat="43.7852267" lon="12.6740417"><ele>258.2</ele><time>2026-04-25T12:52:54.937Z</time></trkpt><trkpt lat="43.78527" lon="12.6739017"><ele>257.6</ele><time>2026-04-25T12:52:55.937Z</time></trkpt><trkpt lat="43.785315" lon="12.67377"><ele>257.0</ele><time>2026-04-25T12:52:56.937Z</time></trkpt><trkpt lat="43.78537" lon="12.673645"><ele>258.75</ele><time>2026-04-25T12:52:57.937Z</time></trkpt><trkpt lat="43.7854367" lon="12.6735217"><ele>260.5</ele><time>2026-04-25T12:52:58.936Z</time></trkpt><trkpt lat="43.7855083" lon="12.6733967"><ele>262.25</ele><time>2026-04-25T12:52:59.937Z</time></trkpt><trkpt lat="43.7855967" lon="12.6732917"><ele>264.0</ele><time>2026-04-25T12:53:00.937Z</time></trkpt><trkpt lat="43.78569" lon="12.673205"><ele>264.0</ele><time>2026-04-25T12:53:01.937Z</time></trkpt><trkpt lat="43.78578" lon="12.6731283"><ele>264.0</ele><time>2026-04-25T12:53:02.936Z</time></trkpt><trkpt lat="43.78588" lon="12.6730733"><ele>264.0</ele><time>2026-04-25T12:53:03.937Z</time></trkpt><trkpt lat="43.785985" lon="12.6730183"><ele>264.0</ele><time>2026-04-25T12:53:04.937Z</time></trkpt><trkpt lat="43.78609" lon="12.6729633"><ele>264.0</ele><time>2026-04-25T12:53:05.936Z</time></trkpt><trkpt lat="43.7862" lon="12.6729067"><ele>264.0</ele><time>2026-04-25T12:53:06.937Z</time></trkpt><trkpt lat="43.7863083" lon="12.6728533"><ele>264.0</ele><time>2026-04-25T12:53:07.937Z</time></trkpt><trkpt lat="43.7864217" lon="12.672805"><ele>264.0</ele><time>2026-04-25T12:53:08.937Z</time></trkpt><trkpt lat="43.7865367" lon="12.6727567"><ele>264.0</ele><time>2026-04-25T12:53:09.937Z</time></trkpt><trkpt lat="43.786645" lon="12.6727067"><ele>264.0</ele><time>2026-04-25T12:53:10.937Z</time></trkpt><trkpt lat="43.7867533" lon="12.6726583"><ele>264.0</ele><time>2026-04-25T12:53:11.937Z</time></trkpt><trkpt lat="43.7868583" lon="12.6726067"><ele>264.0</ele><time>2026-04-25T12:53:12.936Z</time></trkpt><trkpt lat="43.78696" lon="12.67255"><ele>264.0</ele><time>2026-04-25T12:53:13.936Z</time></trkpt><trkpt lat="43.787055" lon="12.672485"><ele>264.0</ele><time>2026-04-25T12:53:14.937Z</time></trkpt><trkpt lat="43.78714" lon="12.6724217"><ele>261.8</ele><time>2026-04-25T12:53:15.937Z</time></trkpt><trkpt lat="43.7872117" lon="12.67236"><ele>259.59999999999997</ele><time>2026-04-25T12:53:16.937Z</time></trkpt><trkpt lat="43.7872683" lon="12.6723067"><ele>257.4</ele><time>2026-04-25T12:53:17.937Z</time></trkpt><trkpt lat="43.7873633" lon="12.672265"><ele>255.2</ele><time>2026-04-25T12:53:19.937Z</time></trkpt><trkpt lat="43.7874967" lon="12.672325"><ele>253.0</ele><time>2026-04-25T12:53:21.937Z</time></trkpt><trkpt lat="43.787585" lon="12.6723717"><ele>251.0</ele><time>2026-04-25T12:53:22.937Z</time></trkpt><trkpt lat="43.7876867" lon="12.672425"><ele>249.0</ele><time>2026-04-25T12:53:23.937Z</time></trkpt><trkpt lat="43.7878017" lon="12.6724783"><ele>247.0</ele><time>2026-04-25T12:53:24.937Z</time></trkpt><trkpt lat="43.7879183" lon="12.6725367"><ele>245.0</ele><time>2026-04-25T12:53:25.937Z</time></trkpt><trkpt lat="43.7880367" lon="12.6725933"><ele>245.0</ele><time>2026-04-25T12:53:26.937Z</time></trkpt><trkpt lat="43.78816" lon="12.672645"><ele>245.0</ele><time>2026-04-25T12:53:27.936Z</time></trkpt><trkpt lat="43.788285" lon="12.6726983"><ele>245.0</ele><time>2026-04-25T12:53:28.936Z</time></trkpt><trkpt lat="43.7884133" lon="12.672755"><ele>245.0</ele><time>2026-04-25T12:53:29.937Z</time></trkpt><trkpt lat="43.78854" lon="12.6728133"><ele>244.75</ele><time>2026-04-25T12:53:30.936Z</time></trkpt><trkpt lat="43.7886717" lon="12.6728767"><ele>244.5</ele><time>2026-04-25T12:53:31.937Z</time></trkpt><trkpt lat="43.7888033" lon="12.6729333"><ele>244.25</ele><time>2026-04-25T12:53:32.936Z</time></trkpt><trkpt lat="43.7889317" lon="12.6729867"><ele>244.0</ele><time>2026-04-25T12:53:33.936Z</time></trkpt><trkpt lat="43.7890567" lon="12.6730367"><ele>244.0</ele><time>2026-04-25T12:53:34.937Z</time></trkpt><trkpt lat="43.78918" lon="12.6730867"><ele>244.0</ele><time>2026-04-25T12:53:35.936Z</time></trkpt><trkpt lat="43.7892967" lon="12.6731417"><ele>244.0</ele><time>2026-04-25T12:53:36.937Z</time></trkpt><trkpt lat="43.7894133" lon="12.6731967"><ele>244.0</ele><time>2026-04-25T12:53:37.936Z</time></trkpt><trkpt lat="43.7895283" lon="12.673265"><ele>244.75</ele><time>2026-04-25T12:53:38.937Z</time></trkpt><trkpt lat="43.78965" lon="12.6733333"><ele>245.5</ele><time>2026-04-25T12:53:39.937Z</time></trkpt><trkpt lat="43.7897667" lon="12.6734083"><ele>246.25</ele><time>2026-04-25T12:53:40.937Z</time></trkpt><trkpt lat="43.7898783" lon="12.6735"><ele>247.0</ele><time>2026-04-25T12:53:41.937Z</time></trkpt><trkpt lat="43.7899883" lon="12.6735983"><ele>245.5</ele><time>2026-04-25T12:53:42.936Z</time></trkpt><trkpt lat="43.7900933" lon="12.6737133"><ele>244.0</ele><time>2026-04-25T12:53:43.937Z</time></trkpt><trkpt lat="43.790205" lon="12.6738167"><ele>242.5</ele><time>2026-04-25T12:53:44.937Z</time></trkpt><trkpt lat="43.790315" lon="12.6739283"><ele>241.0</ele><time>2026-04-25T12:53:45.937Z</time></trkpt><trkpt lat="43.790425" lon="12.6740367"><ele>241.75</ele><time>2026-04-25T12:53:46.937Z</time></trkpt><trkpt lat="43.7905333" lon="12.67415"><ele>242.5</ele><time>2026-04-25T12:53:47.937Z</time></trkpt><trkpt lat="43.7906417" lon="12.6742617"><ele>243.25</ele><time>2026-04-25T12:53:48.936Z</time></trkpt><trkpt lat="43.79075" lon="12.6743767"><ele>244.0</ele><time>2026-04-25T12:53:49.937Z</time></trkpt><trkpt lat="43.79086" lon="12.6744917"><ele>244.0</ele><time>2026-04-25T12:53:50.937Z</time></trkpt><trkpt lat="43.7909783" lon="12.6745983"><ele>244.0</ele><time>2026-04-25T12:53:51.937Z</time></trkpt><trkpt lat="43.7910967" lon="12.6747067"><ele>244.0</ele><time>2026-04-25T12:53:52.937Z</time></trkpt><trkpt lat="43.7912183" lon="12.67481"><ele>244.0</ele><time>2026-04-25T12:53:53.937Z</time></trkpt><trkpt lat="43.7913433" lon="12.67491"><ele>245.0</ele><time>2026-04-25T12:53:54.936Z</time></trkpt><trkpt lat="43.7914683" lon="12.6750083"><ele>246.0</ele><time>2026-04-25T12:53:55.937Z</time></trkpt><trkpt lat="43.7915917" lon="12.6751117"><ele>247.0</ele><time>2026-04-25T12:53:56.937Z</time></trkpt><trkpt lat="43.7917133" lon="12.67522"><ele>248.0</ele><time>2026-04-25T12:53:57.937Z</time></trkpt><trkpt lat="43.7918283" lon="12.6753367"><ele>250.75</ele><time>2026-04-25T12:53:58.937Z</time></trkpt><trkpt lat="43.7919267" lon="12.675475"><ele>253.5</ele><time>2026-04-25T12:53:59.937Z</time></trkpt><trkpt lat="43.79202" lon="12.675625"><ele>256.25</ele><time>2026-04-25T12:54:00.937Z</time></trkpt><trkpt lat="43.792115" lon="12.675775"><ele>259.0</ele><time>2026-04-25T12:54:01.937Z</time></trkpt><trkpt lat="43.7922033" lon="12.6759367"><ele>259.0</ele><time>2026-04-25T12:54:02.937Z</time></trkpt><trkpt lat="43.792295" lon="12.6760917"><ele>259.0</ele><time>2026-04-25T12:54:03.937Z</time></trkpt><trkpt lat="43.792385" lon="12.6762467"><ele>259.0</ele><time>2026-04-25T12:54:04.937Z</time></trkpt><trkpt lat="43.7924767" lon="12.6764017"><ele>259.0</ele><time>2026-04-25T12:54:05.937Z</time></trkpt><trkpt lat="43.7925733" lon="12.6765583"><ele>257.75</ele><time>2026-04-25T12:54:06.937Z</time></trkpt><trkpt lat="43.7926633" lon="12.6767167"><ele>256.5</ele><time>2026-04-25T12:54:07.937Z</time></trkpt><trkpt lat="43.7927583" lon="12.676875"><ele>255.25</ele><time>2026-04-25T12:54:08.937Z</time></trkpt><trkpt lat="43.79285" lon="12.6770417"><ele>254.0</ele><time>2026-04-25T12:54:09.937Z</time></trkpt><trkpt lat="43.79294" lon="12.6772133"><ele>253.0</ele><time>2026-04-25T12:54:10.936Z</time></trkpt><trkpt lat="43.7930283" lon="12.67739"><ele>252.0</ele><time>2026-04-25T12:54:11.937Z</time></trkpt><trkpt lat="43.793115" lon="12.6775633"><ele>251.0</ele><time>2026-04-25T12:54:12.936Z</time></trkpt><trkpt lat="43.7931917" lon="12.6777433"><ele>251.5</ele><time>2026-04-25T12:54:13.937Z</time></trkpt><trkpt lat="43.79327" lon="12.6779167"><ele>252.0</ele><time>2026-04-25T12:54:14.937Z</time></trkpt><trkpt lat="43.79335" lon="12.6780883"><ele>252.5</ele><time>2026-04-25T12:54:15.937Z</time></trkpt><trkpt lat="43.7934283" lon="12.67826"><ele>253.0</ele><time>2026-04-25T12:54:16.937Z</time></trkpt><trkpt lat="43.793505" lon="12.6784233"><ele>253.25</ele><time>2026-04-25T12:54:17.937Z</time></trkpt><trkpt lat="43.793575" lon="12.6785767"><ele>253.5</ele><time>2026-04-25T12:54:18.937Z</time></trkpt><trkpt lat="43.79365" lon="12.678715"><ele>253.75</ele><time>2026-04-25T12:54:19.937Z</time></trkpt><trkpt lat="43.79372" lon="12.6788417"><ele>254.0</ele><time>2026-04-25T12:54:20.937Z</time></trkpt><trkpt lat="43.79379" lon="12.67897"><ele>254.0</ele><time>2026-04-25T12:54:21.937Z</time></trkpt><trkpt lat="43.7938783" lon="12.6790817"><ele>254.0</ele><time>2026-04-25T12:54:22.937Z</time></trkpt><trkpt lat="43.793975" lon="12.6791833"><ele>254.0</ele><time>2026-04-25T12:54:23.937Z</time></trkpt><trkpt lat="43.7940783" lon="12.67928"><ele>254.0</ele><time>2026-04-25T12:54:24.937Z</time></trkpt><trkpt lat="43.7941867" lon="12.679375"><ele>254.75</ele><time>2026-04-25T12:54:25.937Z</time></trkpt><trkpt lat="43.7942933" lon="12.679475"><ele>255.5</ele><time>2026-04-25T12:54:26.937Z</time></trkpt><trkpt lat="43.7943983" lon="12.679575"><ele>256.25</ele><time>2026-04-25T12:54:27.937Z</time></trkpt><trkpt lat="43.7945017" lon="12.6796733"><ele>257.0</ele><time>2026-04-25T12:54:28.937Z</time></trkpt><trkpt lat="43.79461" lon="12.679765"><ele>258.25</ele><time>2026-04-25T12:54:29.937Z</time></trkpt><trkpt lat="43.7947117" lon="12.6798533"><ele>259.5</ele><time>2026-04-25T12:54:30.937Z</time></trkpt><trkpt lat="43.79481" lon="12.67995"><ele>260.75</ele><time>2026-04-25T12:54:31.936Z</time></trkpt><trkpt lat="43.7949083" lon="12.6800417"><ele>262.0</ele><time>2026-04-25T12:54:32.937Z</time></trkpt><trkpt lat="43.79501" lon="12.68013"><ele>262.0</ele><time>2026-04-25T12:54:33.937Z</time></trkpt><trkpt lat="43.7951083" lon="12.6802133"><ele>262.0</ele><time>2026-04-25T12:54:34.937Z</time></trkpt><trkpt lat="43.7952017" lon="12.6803017"><ele>262.0</ele><time>2026-04-25T12:54:35.937Z</time></trkpt><trkpt lat="43.7952933" lon="12.6803867"><ele>262.0</ele><time>2026-04-25T12:54:36.937Z</time></trkpt><trkpt lat="43.795385" lon="12.6804767"><ele>261.6</ele><time>2026-04-25T12:54:37.936Z</time></trkpt><trkpt lat="43.7954833" lon="12.6805583"><ele>261.2</ele><time>2026-04-25T12:54:38.936Z</time></trkpt><trkpt lat="43.795575" lon="12.6806383"><ele>260.8</ele><time>2026-04-25T12:54:39.937Z</time></trkpt><trkpt lat="43.7956633" lon="12.68071"><ele>260.4</ele><time>2026-04-25T12:54:40.937Z</time></trkpt><trkpt lat="43.79574" lon="12.6807867"><ele>260.0</ele><time>2026-04-25T12:54:41.936Z</time></trkpt><trkpt lat="43.7958133" lon="12.6808567"><ele>260.0</ele><time>2026-04-25T12:54:42.937Z</time></trkpt><trkpt lat="43.79589" lon="12.6809117"><ele>260.0</ele><time>2026-04-25T12:54:43.937Z</time></trkpt><trkpt lat="43.7959617" lon="12.6809617"><ele>260.0</ele><time>2026-04-25T12:54:44.936Z</time></trkpt><trkpt lat="43.7960333" lon="12.680995"><ele>260.0</ele><time>2026-04-25T12:54:45.936Z</time></trkpt><trkpt lat="43.7961033" lon="12.6810183"><ele>260.0</ele><time>2026-04-25T12:54:46.937Z</time></trkpt><trkpt lat="43.7961733" lon="12.6810417"><ele>260.0</ele><time>2026-04-25T12:54:47.937Z</time></trkpt><trkpt lat="43.79625" lon="12.6810617"><ele>259.0</ele><time>2026-04-25T12:54:48.936Z</time></trkpt><trkpt lat="43.7963317" lon="12.681075"><ele>258.0</ele><time>2026-04-25T12:54:49.937Z</time></trkpt><trkpt lat="43.79642" lon="12.6811017"><ele>257.0</ele><time>2026-04-25T12:54:50.937Z</time></trkpt><trkpt lat="43.7965133" lon="12.681125"><ele>256.0</ele><time>2026-04-25T12:54:51.937Z</time></trkpt><trkpt lat="43.7966133" lon="12.6811467"><ele>255.0</ele><time>2026-04-25T12:54:52.937Z</time></trkpt><trkpt lat="43.7967183" lon="12.6811633"><ele>259.0</ele><time>2026-04-25T12:54:53.937Z</time></trkpt><trkpt lat="43.7968283" lon="12.6811817"><ele>263.0</ele><time>2026-04-25T12:54:54.937Z</time></trkpt><trkpt lat="43.79694" lon="12.6812033"><ele>267.0</ele><time>2026-04-25T12:54:55.937Z</time></trkpt><trkpt lat="43.7970517" lon="12.681215"><ele>271.0</ele><time>2026-04-25T12:54:56.937Z</time></trkpt><trkpt lat="43.797155" lon="12.681225"><ele>275.0</ele><time>2026-04-25T12:54:57.937Z</time></trkpt><trkpt lat="43.7972583" lon="12.6812333"><ele>275.2</ele><time>2026-04-25T12:54:58.936Z</time></trkpt><trkpt lat="43.7973583" lon="12.681235"><ele>275.4</ele><time>2026-04-25T12:54:59.937Z</time></trkpt><trkpt lat="43.7974583" lon="12.6812467"><ele>275.6</ele><time>2026-04-25T12:55:00.937Z</time></trkpt><trkpt lat="43.7975617" lon="12.6812483"><ele>275.8</ele><time>2026-04-25T12:55:01.937Z</time></trkpt><trkpt lat="43.79767" lon="12.68124"><ele>276.0</ele><time>2026-04-25T12:55:02.936Z</time></trkpt><trkpt lat="43.7977783" lon="12.6812317"><ele>275.0</ele><time>2026-04-25T12:55:03.937Z</time></trkpt><trkpt lat="43.7978883" lon="12.6812117"><ele>274.0</ele><time>2026-04-25T12:55:04.937Z</time></trkpt><trkpt lat="43.7979967" lon="12.6811983"><ele>273.0</ele><time>2026-04-25T12:55:05.937Z</time></trkpt><trkpt lat="43.7981017" lon="12.6811867"><ele>272.0</ele><time>2026-04-25T12:55:06.936Z</time></trkpt><trkpt lat="43.7982017" lon="12.6811733"><ele>271.0</ele><time>2026-04-25T12:55:07.936Z</time></trkpt><trkpt lat="43.7982967" lon="12.6811633"><ele>271.0</ele><time>2026-04-25T12:55:08.937Z</time></trkpt><trkpt lat="43.7983933" lon="12.6811533"><ele>271.0</ele><time>2026-04-25T12:55:09.937Z</time></trkpt><trkpt lat="43.7984883" lon="12.6811433"><ele>271.0</ele><time>2026-04-25T12:55:10.937Z</time></trkpt><trkpt lat="43.7985817" lon="12.6811383"><ele>271.0</ele><time>2026-04-25T12:55:11.937Z</time></trkpt><trkpt lat="43.7986717" lon="12.6811283"><ele>271.0</ele><time>2026-04-25T12:55:12.937Z</time></trkpt><trkpt lat="43.7987617" lon="12.6811183"><ele>269.16666666666663</ele><time>2026-04-25T12:55:13.937Z</time></trkpt><trkpt lat="43.7988517" lon="12.6811067"><ele>267.3333333333333</ele><time>2026-04-25T12:55:14.937Z</time></trkpt><trkpt lat="43.7989433" lon="12.6811"><ele>265.5</ele><time>2026-04-25T12:55:15.937Z</time></trkpt><trkpt lat="43.799025" lon="12.681095"><ele>263.6666666666667</ele><time>2026-04-25T12:55:16.937Z</time></trkpt><trkpt lat="43.7990917" lon="12.6810867"><ele>261.83333333333337</ele><time>2026-04-25T12:55:17.937Z</time></trkpt><trkpt lat="43.7992017" lon="12.68106"><ele>260.0</ele><time>2026-04-25T12:55:19.937Z</time></trkpt><trkpt lat="43.7993117" lon="12.681035"><ele>257.2</ele><time>2026-04-25T12:55:21.936Z</time></trkpt><trkpt lat="43.799395" lon="12.6810083"><ele>254.4</ele><time>2026-04-25T12:55:23.937Z</time></trkpt><trkpt lat="43.7994833" lon="12.6809267"><ele>251.60000000000002</ele><time>2026-04-25T12:55:45.938Z</time></trkpt><trkpt lat="43.799575" lon="12.6808667"><ele>248.8</ele><time>2026-04-25T12:55:48.938Z</time></trkpt><trkpt lat="43.7996767" lon="12.6808133"><ele>246.0</ele><time>2026-04-25T12:55:50.937Z</time></trkpt><trkpt lat="43.79974" lon="12.6807633"><ele>246.0</ele><time>2026-04-25T12:55:51.938Z</time></trkpt><trkpt lat="43.79982" lon="12.6807083"><ele>246.00000000000003</ele><time>2026-04-25T12:55:52.938Z</time></trkpt><trkpt lat="43.79991" lon="12.6806467"><ele>246.00000000000003</ele><time>2026-04-25T12:55:53.937Z</time></trkpt><trkpt lat="43.8000033" lon="12.6805717"><ele>246.0</ele><time>2026-04-25T12:55:54.938Z</time></trkpt><trkpt lat="43.8001" lon="12.6804883"><ele>246.0</ele><time>2026-04-25T12:55:55.938Z</time></trkpt><trkpt lat="43.8002" lon="12.680415"><ele>242.75</ele><time>2026-04-25T12:55:56.938Z</time></trkpt><trkpt lat="43.8003117" lon="12.680355"><ele>239.5</ele><time>2026-04-25T12:55:57.938Z</time></trkpt><trkpt lat="43.8004283" lon="12.6803183"><ele>236.25</ele><time>2026-04-25T12:55:58.938Z</time></trkpt><trkpt lat="43.8005533" lon="12.6803083"><ele>233.0</ele><time>2026-04-25T12:55:59.938Z</time></trkpt><trkpt lat="43.8006833" lon="12.68032"><ele>233.0</ele><time>2026-04-25T12:56:00.938Z</time></trkpt><trkpt lat="43.8008133" lon="12.6803417"><ele>233.0</ele><time>2026-04-25T12:56:01.938Z</time></trkpt><trkpt lat="43.8009467" lon="12.6803633"><ele>233.0</ele><time>2026-04-25T12:56:02.938Z</time></trkpt><trkpt lat="43.8010783" lon="12.6803817"><ele>233.0</ele><time>2026-04-25T12:56:03.938Z</time></trkpt><trkpt lat="43.80121" lon="12.6804017"><ele>231.25</ele><time>2026-04-25T12:56:04.938Z</time></trkpt><trkpt lat="43.80134" lon="12.6804317"><ele>229.5</ele><time>2026-04-25T12:56:05.937Z</time></trkpt><trkpt lat="43.8014717" lon="12.680475"><ele>227.75</ele><time>2026-04-25T12:56:06.938Z</time></trkpt><trkpt lat="43.801605" lon="12.6805367"><ele>226.0</ele><time>2026-04-25T12:56:07.938Z</time></trkpt><trkpt lat="43.8017383" lon="12.680615"><ele>223.0</ele><time>2026-04-25T12:56:08.938Z</time></trkpt><trkpt lat="43.8018767" lon="12.6806983"><ele>220.0</ele><time>2026-04-25T12:56:09.938Z</time></trkpt><trkpt lat="43.8020117" lon="12.680795"><ele>217.0</ele><time>2026-04-25T12:56:10.938Z</time></trkpt><trkpt lat="43.8021483" lon="12.6808967"><ele>217.0</ele><time>2026-04-25T12:56:11.938Z</time></trkpt><trkpt lat="43.8022883" lon="12.6809917"><ele>217.0</ele><time>2026-04-25T12:56:12.937Z</time></trkpt><trkpt lat="43.8024367" lon="12.6810683"><ele>217.0</ele><time>2026-04-25T12:56:13.938Z</time></trkpt><trkpt lat="43.802585" lon="12.6811367"><ele>216.0</ele><time>2026-04-25T12:56:14.937Z</time></trkpt><trkpt lat="43.802735" lon="12.68119"><ele>215.0</ele><time>2026-04-25T12:56:15.938Z</time></trkpt><trkpt lat="43.80288" lon="12.6812367"><ele>214.0</ele><time>2026-04-25T12:56:16.938Z</time></trkpt><trkpt lat="43.80302" lon="12.6813033"><ele>214.0</ele><time>2026-04-25T12:56:17.938Z</time></trkpt><trkpt lat="43.8031633" lon="12.6813667"><ele>214.0</ele><time>2026-04-25T12:56:18.938Z</time></trkpt><trkpt lat="43.8033033" lon="12.6814367"><ele>214.0</ele><time>2026-04-25T12:56:19.938Z</time></trkpt><trkpt lat="43.8034383" lon="12.6815067"><ele>214.0</ele><time>2026-04-25T12:56:20.938Z</time></trkpt><trkpt lat="43.8035617" lon="12.6815867"><ele>214.25</ele><time>2026-04-25T12:56:21.938Z</time></trkpt><trkpt lat="43.8036783" lon="12.6816817"><ele>214.5</ele><time>2026-04-25T12:56:22.937Z</time></trkpt><trkpt lat="43.8037933" lon="12.681785"><ele>214.75</ele><time>2026-04-25T12:56:23.937Z</time></trkpt><trkpt lat="43.80391" lon="12.6819"><ele>215.0</ele><time>2026-04-25T12:56:24.938Z</time></trkpt><trkpt lat="43.8040317" lon="12.6820167"><ele>214.0</ele><time>2026-04-25T12:56:25.938Z</time></trkpt><trkpt lat="43.8041583" lon="12.6821317"><ele>213.0</ele><time>2026-04-25T12:56:26.937Z</time></trkpt><trkpt lat="43.8042833" lon="12.6822533"><ele>212.0</ele><time>2026-04-25T12:56:27.938Z</time></trkpt><trkpt lat="43.80441" lon="12.68238"><ele>212.0</ele><time>2026-04-25T12:56:28.938Z</time></trkpt><trkpt lat="43.8045367" lon="12.6825083"><ele>212.0</ele><time>2026-04-25T12:56:29.938Z</time></trkpt><trkpt lat="43.8046583" lon="12.6826467"><ele>212.0</ele><time>2026-04-25T12:56:30.938Z</time></trkpt><trkpt lat="43.8047783" lon="12.68279"><ele>211.33333333333334</ele><time>2026-04-25T12:56:31.938Z</time></trkpt><trkpt lat="43.8049" lon="12.682935"><ele>210.66666666666669</ele><time>2026-04-25T12:56:32.938Z</time></trkpt><trkpt lat="43.8050217" lon="12.683085"><ele>210.0</ele><time>2026-04-25T12:56:33.938Z</time></trkpt><trkpt lat="43.8051383" lon="12.6832383"><ele>210.0</ele><time>2026-04-25T12:56:34.938Z</time></trkpt><trkpt lat="43.805255" lon="12.6833933"><ele>210.0</ele><time>2026-04-25T12:56:35.938Z</time></trkpt><trkpt lat="43.805365" lon="12.6835533"><ele>210.0</ele><time>2026-04-25T12:56:36.938Z</time></trkpt><trkpt lat="43.8054833" lon="12.6837067"><ele>210.0</ele><time>2026-04-25T12:56:37.938Z</time></trkpt><trkpt lat="43.8056017" lon="12.6838633"><ele>210.0</ele><time>2026-04-25T12:56:38.937Z</time></trkpt><trkpt lat="43.8057167" lon="12.6840267"><ele>210.0</ele><time>2026-04-25T12:56:39.938Z</time></trkpt><trkpt lat="43.8058333" lon="12.6841783"><ele>210.0</ele><time>2026-04-25T12:56:40.937Z</time></trkpt><trkpt lat="43.8059517" lon="12.6843183"><ele>210.0</ele><time>2026-04-25T12:56:41.938Z</time></trkpt><trkpt lat="43.806075" lon="12.6844467"><ele>210.0</ele><time>2026-04-25T12:56:42.938Z</time></trkpt><trkpt lat="43.8062" lon="12.68457"><ele>213.33333333333331</ele><time>2026-04-25T12:56:43.938Z</time></trkpt><trkpt lat="43.8063233" lon="12.684695"><ele>216.66666666666666</ele><time>2026-04-25T12:56:44.938Z</time></trkpt><trkpt lat="43.806445" lon="12.6848267"><ele>220.0</ele><time>2026-04-25T12:56:45.938Z</time></trkpt><trkpt lat="43.806565" lon="12.6849583"><ele>220.0</ele><time>2026-04-25T12:56:46.938Z</time></trkpt><trkpt lat="43.8066833" lon="12.68509"><ele>220.0</ele><time>2026-04-25T12:56:47.937Z</time></trkpt><trkpt lat="43.8067967" lon="12.68523"><ele>220.0</ele><time>2026-04-25T12:56:48.938Z</time></trkpt><trkpt lat="43.80691" lon="12.6853667"><ele>223.0</ele><time>2026-04-25T12:56:49.938Z</time></trkpt><trkpt lat="43.8070183" lon="12.6854967"><ele>226.0</ele><time>2026-04-25T12:56:50.938Z</time></trkpt><trkpt lat="43.8071283" lon="12.6856217"><ele>229.0</ele><time>2026-04-25T12:56:51.938Z</time></trkpt><trkpt lat="43.8072383" lon="12.6857367"><ele>232.0</ele><time>2026-04-25T12:56:52.938Z</time></trkpt><trkpt lat="43.807345" lon="12.685855"><ele>232.0</ele><time>2026-04-25T12:56:53.938Z</time></trkpt><trkpt lat="43.8074467" lon="12.68598"><ele>232.0</ele><time>2026-04-25T12:56:54.938Z</time></trkpt><trkpt lat="43.8075433" lon="12.6861217"><ele>232.0</ele><time>2026-04-25T12:56:55.938Z</time></trkpt><trkpt lat="43.8076233" lon="12.686285"><ele>232.0</ele><time>2026-04-25T12:56:56.937Z</time></trkpt><trkpt lat="43.8076967" lon="12.6864583"><ele>230.66666666666666</ele><time>2026-04-25T12:56:57.938Z</time></trkpt><trkpt lat="43.807755" lon="12.6866483"><ele>229.33333333333331</ele><time>2026-04-25T12:56:58.938Z</time></trkpt><trkpt lat="43.8077967" lon="12.6868517"><ele>228.0</ele><time>2026-04-25T12:56:59.938Z</time></trkpt><trkpt lat="43.807835" lon="12.6870633"><ele>228.0</ele><time>2026-04-25T12:57:00.938Z</time></trkpt><trkpt lat="43.8078683" lon="12.6872783"><ele>228.0</ele><time>2026-04-25T12:57:01.938Z</time></trkpt><trkpt lat="43.8079267" lon="12.6874817"><ele>228.0</ele><time>2026-04-25T12:57:02.938Z</time></trkpt><trkpt lat="43.807975" lon="12.68768"><ele>228.75</ele><time>2026-04-25T12:57:03.938Z</time></trkpt><trkpt lat="43.80803" lon="12.68787"><ele>229.5</ele><time>2026-04-25T12:57:04.938Z</time></trkpt><trkpt lat="43.80809" lon="12.6880533"><ele>230.25</ele><time>2026-04-25T12:57:05.937Z</time></trkpt><trkpt lat="43.808155" lon="12.688235"><ele>231.0</ele><time>2026-04-25T12:57:06.937Z</time></trkpt><trkpt lat="43.80822" lon="12.688415"><ele>231.0</ele><time>2026-04-25T12:57:07.937Z</time></trkpt><trkpt lat="43.8082817" lon="12.6885983"><ele>231.0</ele><time>2026-04-25T12:57:08.938Z</time></trkpt><trkpt lat="43.808345" lon="12.6887817"><ele>231.0</ele><time>2026-04-25T12:57:09.938Z</time></trkpt><trkpt lat="43.80841" lon="12.6889683"><ele>231.0</ele><time>2026-04-25T12:57:10.938Z</time></trkpt><trkpt lat="43.8084683" lon="12.6891533"><ele>230.0</ele><time>2026-04-25T12:57:11.938Z</time></trkpt><trkpt lat="43.8085217" lon="12.68934"><ele>229.0</ele><time>2026-04-25T12:57:12.938Z</time></trkpt><trkpt lat="43.8085683" lon="12.6895267"><ele>228.0</ele><time>2026-04-25T12:57:13.938Z</time></trkpt><trkpt lat="43.8086067" lon="12.6897167"><ele>227.0</ele><time>2026-04-25T12:57:14.937Z</time></trkpt><trkpt lat="43.8086383" lon="12.6899083"><ele>227.0</ele><time>2026-04-25T12:57:15.938Z</time></trkpt><trkpt lat="43.8086733" lon="12.6901017"><ele>227.0</ele><time>2026-04-25T12:57:16.937Z</time></trkpt><trkpt lat="43.80871" lon="12.6902967"><ele>227.0</ele><time>2026-04-25T12:57:17.938Z</time></trkpt><trkpt lat="43.80875" lon="12.6904883"><ele>227.0</ele><time>2026-04-25T12:57:18.938Z</time></trkpt><trkpt lat="43.8087933" lon="12.6906733"><ele>227.75</ele><time>2026-04-25T12:57:19.938Z</time></trkpt><trkpt lat="43.808845" lon="12.690855"><ele>228.5</ele><time>2026-04-25T12:57:20.938Z</time></trkpt><trkpt lat="43.8088983" lon="12.69103"><ele>229.25</ele><time>2026-04-25T12:57:21.937Z</time></trkpt><trkpt lat="43.8089617" lon="12.6911967"><ele>230.0</ele><time>2026-04-25T12:57:22.938Z</time></trkpt><trkpt lat="43.80903" lon="12.6913617"><ele>230.0</ele><time>2026-04-25T12:57:23.938Z</time></trkpt><trkpt lat="43.809105" lon="12.6915217"><ele>230.0</ele><time>2026-04-25T12:57:24.938Z</time></trkpt><trkpt lat="43.809185" lon="12.691675"><ele>230.0</ele><time>2026-04-25T12:57:25.938Z</time></trkpt><trkpt lat="43.809265" lon="12.6918283"><ele>230.0</ele><time>2026-04-25T12:57:26.938Z</time></trkpt><trkpt lat="43.8093483" lon="12.6919733"><ele>230.0</ele><time>2026-04-25T12:57:27.938Z</time></trkpt><trkpt lat="43.8094433" lon="12.6921067"><ele>230.0</ele><time>2026-04-25T12:57:28.938Z</time></trkpt><trkpt lat="43.80955" lon="12.6922233"><ele>230.0</ele><time>2026-04-25T12:57:29.938Z</time></trkpt><trkpt lat="43.8096567" lon="12.6923433"><ele>230.0</ele><time>2026-04-25T12:57:30.938Z</time></trkpt><trkpt lat="43.8097517" lon="12.6924767"><ele>230.0</ele><time>2026-04-25T12:57:31.938Z</time></trkpt><trkpt lat="43.809835" lon="12.6926267"><ele>230.0</ele><time>2026-04-25T12:57:32.938Z</time></trkpt><trkpt lat="43.809905" lon="12.692795"><ele>230.0</ele><time>2026-04-25T12:57:33.938Z</time></trkpt><trkpt lat="43.8099667" lon="12.6929683"><ele>230.0</ele><time>2026-04-25T12:57:34.938Z</time></trkpt><trkpt lat="43.8100233" lon="12.693145"><ele>231.5</ele><time>2026-04-25T12:57:35.938Z</time></trkpt><trkpt lat="43.81008" lon="12.69332"><ele>233.0</ele><time>2026-04-25T12:57:36.938Z</time></trkpt><trkpt lat="43.810135" lon="12.6934933"><ele>234.5</ele><time>2026-04-25T12:57:37.937Z</time></trkpt><trkpt lat="43.8101883" lon="12.6936667"><ele>236.0</ele><time>2026-04-25T12:57:38.938Z</time></trkpt><trkpt lat="43.8102433" lon="12.6938433"><ele>239.25</ele><time>2026-04-25T12:57:39.937Z</time></trkpt><trkpt lat="43.8103" lon="12.69402"><ele>242.5</ele><time>2026-04-25T12:57:40.937Z</time></trkpt><trkpt lat="43.810355" lon="12.6941983"><ele>245.75</ele><time>2026-04-25T12:57:41.937Z</time></trkpt><trkpt lat="43.8104117" lon="12.6943733"><ele>249.0</ele><time>2026-04-25T12:57:42.937Z</time></trkpt><trkpt lat="43.8104683" lon="12.6945483"><ele>250.25</ele><time>2026-04-25T12:57:43.937Z</time></trkpt><trkpt lat="43.8105217" lon="12.69472"><ele>251.5</ele><time>2026-04-25T12:57:44.936Z</time></trkpt><trkpt lat="43.810575" lon="12.694885"><ele>252.75</ele><time>2026-04-25T12:57:45.936Z</time></trkpt><trkpt lat="43.8106333" lon="12.6950383"><ele>254.0</ele><time>2026-04-25T12:57:46.937Z</time></trkpt><trkpt lat="43.810695" lon="12.69518"><ele>253.79999999999998</ele><time>2026-04-25T12:57:47.937Z</time></trkpt><trkpt lat="43.8107733" lon="12.6952833"><ele>253.59999999999997</ele><time>2026-04-25T12:57:48.937Z</time></trkpt><trkpt lat="43.8108683" lon="12.69534"><ele>253.4</ele><time>2026-04-25T12:57:49.937Z</time></trkpt><trkpt lat="43.8109733" lon="12.6953467"><ele>253.2</ele><time>2026-04-25T12:57:50.937Z</time></trkpt><trkpt lat="43.8110767" lon="12.6953283"><ele>253.0</ele><time>2026-04-25T12:57:51.936Z</time></trkpt><trkpt lat="43.8111933" lon="12.6952917"><ele>256.25</ele><time>2026-04-25T12:57:52.936Z</time></trkpt><trkpt lat="43.8113133" lon="12.6952533"><ele>259.5</ele><time>2026-04-25T12:57:53.937Z</time></trkpt><trkpt lat="43.8114417" lon="12.6952167"><ele>262.75</ele><time>2026-04-25T12:57:54.937Z</time></trkpt><trkpt lat="43.8115633" lon="12.6951767"><ele>266.0</ele><time>2026-04-25T12:57:55.937Z</time></trkpt><trkpt lat="43.8116733" lon="12.6951467"><ele>266.0</ele><time>2026-04-25T12:57:56.937Z</time></trkpt><trkpt lat="43.8117767" lon="12.6951533"><ele>266.0</ele><time>2026-04-25T12:57:57.936Z</time></trkpt><trkpt lat="43.811865" lon="12.69518"><ele>266.0</ele><time>2026-04-25T12:57:58.937Z</time></trkpt><trkpt lat="43.8119483" lon="12.695245"><ele>266.0</ele><time>2026-04-25T12:57:59.937Z</time></trkpt><trkpt lat="43.812015" lon="12.69534"><ele>266.0</ele><time>2026-04-25T12:58:00.937Z</time></trkpt><trkpt lat="43.812055" lon="12.6954817"><ele>267.2</ele><time>2026-04-25T12:58:01.937Z</time></trkpt><trkpt lat="43.8120833" lon="12.6956383"><ele>268.40000000000003</ele><time>2026-04-25T12:58:02.937Z</time></trkpt><trkpt lat="43.8121083" lon="12.69579"><ele>269.6</ele><time>2026-04-25T12:58:03.936Z</time></trkpt><trkpt lat="43.8121283" lon="12.6959317"><ele>270.8</ele><time>2026-04-25T12:58:04.937Z</time></trkpt><trkpt lat="43.812145" lon="12.6960617"><ele>272.0</ele><time>2026-04-25T12:58:05.937Z</time></trkpt><trkpt lat="43.8121617" lon="12.6961767"><ele>272.33333333333337</ele><time>2026-04-25T12:58:06.937Z</time></trkpt><trkpt lat="43.8122017" lon="12.6962667"><ele>272.6666666666667</ele><time>2026-04-25T12:58:07.937Z</time></trkpt><trkpt lat="43.81226" lon="12.6963133"><ele>273.0</ele><time>2026-04-25T12:58:08.937Z</time></trkpt><trkpt lat="43.8123283" lon="12.696335"><ele>273.3333333333333</ele><time>2026-04-25T12:58:09.936Z</time></trkpt><trkpt lat="43.8124067" lon="12.696335"><ele>273.66666666666663</ele><time>2026-04-25T12:58:10.937Z</time></trkpt><trkpt lat="43.812485" lon="12.696295"><ele>274.0</ele><time>2026-04-25T12:58:11.937Z</time></trkpt><trkpt lat="43.8125567" lon="12.69622"><ele>274.0</ele><time>2026-04-25T12:58:12.936Z</time></trkpt><trkpt lat="43.81259" lon="12.69609"><ele>274.0</ele><time>2026-04-25T12:58:13.937Z</time></trkpt><trkpt lat="43.812615" lon="12.6959483"><ele>274.0</ele><time>2026-04-25T12:58:14.937Z</time></trkpt><trkpt lat="43.81265" lon="12.695815"><ele>274.0</ele><time>2026-04-25T12:58:15.937Z</time></trkpt><trkpt lat="43.8126967" lon="12.695675"><ele>274.0</ele><time>2026-04-25T12:58:16.937Z</time></trkpt><trkpt lat="43.8127617" lon="12.695545"><ele>270.75</ele><time>2026-04-25T12:58:17.936Z</time></trkpt><trkpt lat="43.8128517" lon="12.695425"><ele>267.5</ele><time>2026-04-25T12:58:18.937Z</time></trkpt><trkpt lat="43.8129583" lon="12.6953133"><ele>264.25</ele><time>2026-04-25T12:58:19.937Z</time></trkpt><trkpt lat="43.8130617" lon="12.6952033"><ele>261.0</ele><time>2026-04-25T12:58:20.937Z</time></trkpt><trkpt lat="43.8131717" lon="12.6951033"><ele>259.5</ele><time>2026-04-25T12:58:21.937Z</time></trkpt><trkpt lat="43.8132833" lon="12.6949983"><ele>258.0</ele><time>2026-04-25T12:58:22.937Z</time></trkpt><trkpt lat="43.8133917" lon="12.694895"><ele>256.5</ele><time>2026-04-25T12:58:23.937Z</time></trkpt><trkpt lat="43.8134983" lon="12.69479"><ele>255.0</ele><time>2026-04-25T12:58:24.937Z</time></trkpt><trkpt lat="43.8136083" lon="12.6946867"><ele>253.25</ele><time>2026-04-25T12:58:25.937Z</time></trkpt><trkpt lat="43.8137233" lon="12.694595"><ele>251.5</ele><time>2026-04-25T12:58:26.937Z</time></trkpt><trkpt lat="43.81384" lon="12.6945083"><ele>249.75</ele><time>2026-04-25T12:58:27.937Z</time></trkpt><trkpt lat="43.8139567" lon="12.69443"><ele>248.0</ele><time>2026-04-25T12:58:28.937Z</time></trkpt><trkpt lat="43.814075" lon="12.694355"><ele>248.0</ele><time>2026-04-25T12:58:29.937Z</time></trkpt><trkpt lat="43.814195" lon="12.6942783"><ele>248.0</ele><time>2026-04-25T12:58:30.937Z</time></trkpt><trkpt lat="43.8143117" lon="12.6942"><ele>248.0</ele><time>2026-04-25T12:58:31.937Z</time></trkpt><trkpt lat="43.8144283" lon="12.69412"><ele>248.0</ele><time>2026-04-25T12:58:32.937Z</time></trkpt><trkpt lat="43.8145467" lon="12.69405"><ele>246.0</ele><time>2026-04-25T12:58:33.937Z</time></trkpt><trkpt lat="43.8146683" lon="12.6939817"><ele>244.0</ele><time>2026-04-25T12:58:34.937Z</time></trkpt><trkpt lat="43.81479" lon="12.6939183"><ele>242.0</ele><time>2026-04-25T12:58:35.937Z</time></trkpt><trkpt lat="43.8149067" lon="12.6938567"><ele>240.0</ele><time>2026-04-25T12:58:36.937Z</time></trkpt><trkpt lat="43.8150167" lon="12.6938067"><ele>240.0</ele><time>2026-04-25T12:58:37.937Z</time></trkpt><trkpt lat="43.8151133" lon="12.6937583"><ele>240.0</ele><time>2026-04-25T12:58:38.937Z</time></trkpt><trkpt lat="43.8151883" lon="12.6936933"><ele>240.0</ele><time>2026-04-25T12:58:39.937Z</time></trkpt><trkpt lat="43.81523" lon="12.693615"><ele>240.0</ele><time>2026-04-25T12:58:40.937Z</time></trkpt><trkpt lat="43.815225" lon="12.6935183"><ele>240.0</ele><time>2026-04-25T12:58:41.937Z</time></trkpt><trkpt lat="43.8152033" lon="12.6934183"><ele>240.0</ele><time>2026-04-25T12:58:42.936Z</time></trkpt><trkpt lat="43.8151833" lon="12.6933083"><ele>243.25</ele><time>2026-04-25T12:58:43.937Z</time></trkpt><trkpt lat="43.81514" lon="12.69316"><ele>246.5</ele><time>2026-04-25T12:58:44.937Z</time></trkpt><trkpt lat="43.815095" lon="12.6929933"><ele>249.75</ele><time>2026-04-25T12:58:45.936Z</time></trkpt><trkpt lat="43.81505" lon="12.6928133"><ele>253.0</ele><time>2026-04-25T12:58:46.937Z</time></trkpt><trkpt lat="43.8150167" lon="12.6926217"><ele>254.25</ele><time>2026-04-25T12:58:47.937Z</time></trkpt><trkpt lat="43.8149767" lon="12.6924333"><ele>255.5</ele><time>2026-04-25T12:58:48.936Z</time></trkpt><trkpt lat="43.81492" lon="12.6922617"><ele>256.75</ele><time>2026-04-25T12:58:49.937Z</time></trkpt><trkpt lat="43.8148633" lon="12.6921033"><ele>258.0</ele><time>2026-04-25T12:58:50.937Z</time></trkpt><trkpt lat="43.81481" lon="12.6919517"><ele>257.0</ele><time>2026-04-25T12:58:51.937Z</time></trkpt><trkpt lat="43.81474" lon="12.6918133"><ele>256.0</ele><time>2026-04-25T12:58:52.937Z</time></trkpt><trkpt lat="43.8146683" lon="12.691675"><ele>255.0</ele><time>2026-04-25T12:58:53.937Z</time></trkpt><trkpt lat="43.8145783" lon="12.691555"><ele>254.0</ele><time>2026-04-25T12:58:54.936Z</time></trkpt><trkpt lat="43.8144667" lon="12.6914633"><ele>254.0</ele><time>2026-04-25T12:58:55.937Z</time></trkpt><trkpt lat="43.8143767" lon="12.6913533"><ele>253.99999999999997</ele><time>2026-04-25T12:58:56.937Z</time></trkpt><trkpt lat="43.8143167" lon="12.69123"><ele>253.99999999999997</ele><time>2026-04-25T12:58:57.937Z</time></trkpt><trkpt lat="43.8142933" lon="12.691105"><ele>254.0</ele><time>2026-04-25T12:58:58.937Z</time></trkpt><trkpt lat="43.814315" lon="12.6909883"><ele>254.0</ele><time>2026-04-25T12:58:59.937Z</time></trkpt><trkpt lat="43.8143617" lon="12.6908933"><ele>251.6</ele><time>2026-04-25T12:59:00.937Z</time></trkpt><trkpt lat="43.8144417" lon="12.6908383"><ele>249.2</ele><time>2026-04-25T12:59:01.937Z</time></trkpt><trkpt lat="43.8145517" lon="12.6908267"><ele>246.79999999999998</ele><time>2026-04-25T12:59:02.937Z</time></trkpt><trkpt lat="43.8146667" lon="12.6908067"><ele>244.39999999999998</ele><time>2026-04-25T12:59:03.936Z</time></trkpt><trkpt lat="43.8147917" lon="12.6907917"><ele>242.0</ele><time>2026-04-25T12:59:04.937Z</time></trkpt><trkpt lat="43.81491" lon="12.6907517"><ele>242.0</ele><time>2026-04-25T12:59:05.937Z</time></trkpt><trkpt lat="43.815015" lon="12.6906883"><ele>242.0</ele><time>2026-04-25T12:59:06.936Z</time></trkpt><trkpt lat="43.8151033" lon="12.69061"><ele>242.0</ele><time>2026-04-25T12:59:07.936Z</time></trkpt><trkpt lat="43.8151667" lon="12.6904867"><ele>242.0</ele><time>2026-04-25T12:59:08.937Z</time></trkpt><trkpt lat="43.8152067" lon="12.6903517"><ele>242.0</ele><time>2026-04-25T12:59:09.937Z</time></trkpt><trkpt lat="43.8152217" lon="12.6901867"><ele>234.5</ele><time>2026-04-25T12:59:10.937Z</time></trkpt><trkpt lat="43.8152333" lon="12.6900133"><ele>227.0</ele><time>2026-04-25T12:59:11.937Z</time></trkpt><trkpt lat="43.8152517" lon="12.6898467"><ele>219.5</ele><time>2026-04-25T12:59:12.937Z</time></trkpt><trkpt lat="43.8152667" lon="12.6896883"><ele>212.0</ele><time>2026-04-25T12:59:13.937Z</time></trkpt><trkpt lat="43.8152733" lon="12.6895417"><ele>212.0</ele><time>2026-04-25T12:59:14.936Z</time></trkpt><trkpt lat="43.81525" lon="12.6894017"><ele>212.0</ele><time>2026-04-25T12:59:15.937Z</time></trkpt><trkpt lat="43.8152" lon="12.6892667"><ele>212.0</ele><time>2026-04-25T12:59:16.937Z</time></trkpt><trkpt lat="43.8151383" lon="12.6891367"><ele>212.0</ele><time>2026-04-25T12:59:17.937Z</time></trkpt><trkpt lat="43.8150733" lon="12.689005"><ele>212.0</ele><time>2026-04-25T12:59:18.937Z</time></trkpt><trkpt lat="43.815015" lon="12.68888"><ele>212.0</ele><time>2026-04-25T12:59:19.936Z</time></trkpt><trkpt lat="43.8149867" lon="12.6887533"><ele>212.0</ele><time>2026-04-25T12:59:20.936Z</time></trkpt><trkpt lat="43.8150133" lon="12.6886233"><ele>212.0</ele><time>2026-04-25T12:59:21.937Z</time></trkpt><trkpt lat="43.8150817" lon="12.6885033"><ele>212.0</ele><time>2026-04-25T12:59:22.937Z</time></trkpt><trkpt lat="43.8151567" lon="12.688385"><ele>212.0</ele><time>2026-04-25T12:59:23.937Z</time></trkpt><trkpt lat="43.815225" lon="12.6882767"><ele>209.2</ele><time>2026-04-25T12:59:24.937Z</time></trkpt><trkpt lat="43.8152917" lon="12.6882033"><ele>206.39999999999998</ele><time>2026-04-25T12:59:25.937Z</time></trkpt><trkpt lat="43.81535" lon="12.6881467"><ele>203.60000000000002</ele><time>2026-04-25T12:59:26.936Z</time></trkpt><trkpt lat="43.8154733" lon="12.6881583"><ele>200.8</ele><time>2026-04-25T12:59:28.937Z</time></trkpt><trkpt lat="43.8155483" lon="12.6882183"><ele>198.0</ele><time>2026-04-25T12:59:29.937Z</time></trkpt><trkpt lat="43.8156283" lon="12.6883033"><ele>198.0</ele><time>2026-04-25T12:59:30.936Z</time></trkpt><trkpt lat="43.815725" lon="12.6884117"><ele>198.0</ele><time>2026-04-25T12:59:31.937Z</time></trkpt><trkpt lat="43.8158333" lon="12.688545"><ele>198.0</ele><time>2026-04-25T12:59:32.937Z</time></trkpt><trkpt lat="43.815955" lon="12.6886733"><ele>198.0</ele><time>2026-04-25T12:59:33.936Z</time></trkpt><trkpt lat="43.8160783" lon="12.6888067"><ele>196.0</ele><time>2026-04-25T12:59:34.937Z</time></trkpt><trkpt lat="43.8162033" lon="12.6889433"><ele>194.0</ele><time>2026-04-25T12:59:35.937Z</time></trkpt><trkpt lat="43.8163217" lon="12.689075"><ele>192.0</ele><time>2026-04-25T12:59:36.937Z</time></trkpt><trkpt lat="43.8164333" lon="12.689205"><ele>192.0</ele><time>2026-04-25T12:59:37.937Z</time></trkpt><trkpt lat="43.816535" lon="12.6893367"><ele>192.0</ele><time>2026-04-25T12:59:38.937Z</time></trkpt><trkpt lat="43.8166317" lon="12.68946"><ele>192.0</ele><time>2026-04-25T12:59:39.937Z</time></trkpt><trkpt lat="43.8167183" lon="12.6895867"><ele>192.0</ele><time>2026-04-25T12:59:40.937Z</time></trkpt><trkpt lat="43.8167833" lon="12.6897367"><ele>190.5</ele><time>2026-04-25T12:59:41.936Z</time></trkpt><trkpt lat="43.81684" lon="12.6898883"><ele>189.0</ele><time>2026-04-25T12:59:42.936Z</time></trkpt><trkpt lat="43.816885" lon="12.6900483"><ele>187.5</ele><time>2026-04-25T12:59:43.937Z</time></trkpt><trkpt lat="43.8169417" lon="12.6901983"><ele>186.0</ele><time>2026-04-25T12:59:44.937Z</time></trkpt><trkpt lat="43.8169917" lon="12.6903333"><ele>190.20000000000002</ele><time>2026-04-25T12:59:45.937Z</time></trkpt><trkpt lat="43.8170667" lon="12.6904183"><ele>194.4</ele><time>2026-04-25T12:59:46.937Z</time></trkpt><trkpt lat="43.81715" lon="12.690455"><ele>198.6</ele><time>2026-04-25T12:59:47.937Z</time></trkpt><trkpt lat="43.8172333" lon="12.6904867"><ele>202.8</ele><time>2026-04-25T12:59:48.937Z</time></trkpt><trkpt lat="43.8173283" lon="12.6905"><ele>207.0</ele><time>2026-04-25T12:59:49.937Z</time></trkpt><trkpt lat="43.81745" lon="12.6904833"><ele>207.0</ele><time>2026-04-25T12:59:50.937Z</time></trkpt><trkpt lat="43.81757" lon="12.6904583"><ele>207.0</ele><time>2026-04-25T12:59:51.937Z</time></trkpt><trkpt lat="43.8176933" lon="12.6904283"><ele>207.0</ele><time>2026-04-25T12:59:52.936Z</time></trkpt><trkpt lat="43.8178117" lon="12.6903783"><ele>207.0</ele><time>2026-04-25T12:59:53.937Z</time></trkpt><trkpt lat="43.8179217" lon="12.690315"><ele>202.75</ele><time>2026-04-25T12:59:54.937Z</time></trkpt><trkpt lat="43.8180217" lon="12.690235"><ele>198.5</ele><time>2026-04-25T12:59:55.937Z</time></trkpt><trkpt lat="43.8181233" lon="12.6901583"><ele>194.25</ele><time>2026-04-25T12:59:56.937Z</time></trkpt><trkpt lat="43.8182117" lon="12.690055"><ele>190.0</ele><time>2026-04-25T12:59:57.937Z</time></trkpt><trkpt lat="43.8182867" lon="12.6899317"><ele>190.0</ele><time>2026-04-25T12:59:58.937Z</time></trkpt><trkpt lat="43.8183617" lon="12.6897983"><ele>190.0</ele><time>2026-04-25T12:59:59.937Z</time></trkpt><trkpt lat="43.818435" lon="12.6896567"><ele>190.0</ele><time>2026-04-25T13:00:00.937Z</time></trkpt><trkpt lat="43.81851" lon="12.6895067"><ele>190.0</ele><time>2026-04-25T13:00:01.937Z</time></trkpt><trkpt lat="43.8186" lon="12.6893633"><ele>185.5</ele><time>2026-04-25T13:00:02.936Z</time></trkpt><trkpt lat="43.8186967" lon="12.6892183"><ele>181.0</ele><time>2026-04-25T13:00:03.937Z</time></trkpt><trkpt lat="43.8187833" lon="12.6890567"><ele>176.5</ele><time>2026-04-25T13:00:04.937Z</time></trkpt><trkpt lat="43.818875" lon="12.6889017"><ele>172.0</ele><time>2026-04-25T13:00:05.937Z</time></trkpt><trkpt lat="43.8189633" lon="12.6887433"><ele>169.75</ele><time>2026-04-25T13:00:06.937Z</time></trkpt><trkpt lat="43.8190517" lon="12.6885783"><ele>167.5</ele><time>2026-04-25T13:00:07.937Z</time></trkpt><trkpt lat="43.8191417" lon="12.6884167"><ele>165.25</ele><time>2026-04-25T13:00:08.936Z</time></trkpt><trkpt lat="43.8192317" lon="12.6882617"><ele>163.0</ele><time>2026-04-25T13:00:09.937Z</time></trkpt><trkpt lat="43.8193133" lon="12.6881083"><ele>162.8</ele><time>2026-04-25T13:00:10.937Z</time></trkpt><trkpt lat="43.8193867" lon="12.6879683"><ele>162.60000000000002</ele><time>2026-04-25T13:00:11.937Z</time></trkpt><trkpt lat="43.819455" lon="12.687855"><ele>162.39999999999998</ele><time>2026-04-25T13:00:12.937Z</time></trkpt><trkpt lat="43.8195233" lon="12.6877783"><ele>162.2</ele><time>2026-04-25T13:00:13.937Z</time></trkpt><trkpt lat="43.8195933" lon="12.6877533"><ele>162.0</ele><time>2026-04-25T13:00:14.937Z</time></trkpt><trkpt lat="43.8196617" lon="12.68777"><ele>162.0</ele><time>2026-04-25T13:00:15.937Z</time></trkpt><trkpt lat="43.81976" lon="12.6879083"><ele>162.0</ele><time>2026-04-25T13:00:17.937Z</time></trkpt><trkpt lat="43.8198083" lon="12.688035"><ele>162.0</ele><time>2026-04-25T13:00:18.937Z</time></trkpt><trkpt lat="43.81988" lon="12.68816"><ele>162.0</ele><time>2026-04-25T13:00:19.937Z</time></trkpt><trkpt lat="43.8199583" lon="12.6883017"><ele>162.0</ele><time>2026-04-25T13:00:20.937Z</time></trkpt><trkpt lat="43.8200467" lon="12.68844"><ele>162.0</ele><time>2026-04-25T13:00:21.937Z</time></trkpt><trkpt lat="43.8201417" lon="12.6885683"><ele>162.0</ele><time>2026-04-25T13:00:22.937Z</time></trkpt><trkpt lat="43.82023" lon="12.688705"><ele>162.0</ele><time>2026-04-25T13:00:23.937Z</time></trkpt><trkpt lat="43.82032" lon="12.68884"><ele>159.25</ele><time>2026-04-25T13:00:24.937Z</time></trkpt><trkpt lat="43.8204117" lon="12.688975"><ele>156.5</ele><time>2026-04-25T13:00:25.937Z</time></trkpt><trkpt lat="43.820505" lon="12.6891083"><ele>153.75</ele><time>2026-04-25T13:00:26.937Z</time></trkpt><trkpt lat="43.8205967" lon="12.6892367"><ele>151.0</ele><time>2026-04-25T13:00:27.936Z</time></trkpt><trkpt lat="43.8206817" lon="12.6893583"><ele>151.4</ele><time>2026-04-25T13:00:28.937Z</time></trkpt><trkpt lat="43.8207617" lon="12.6894733"><ele>151.8</ele><time>2026-04-25T13:00:29.937Z</time></trkpt><trkpt lat="43.8208467" lon="12.689565"><ele>152.20000000000002</ele><time>2026-04-25T13:00:30.937Z</time></trkpt><trkpt lat="43.8209367" lon="12.689615"><ele>152.6</ele><time>2026-04-25T13:00:31.937Z</time></trkpt><trkpt lat="43.821025" lon="12.6895967"><ele>153.0</ele><time>2026-04-25T13:00:32.937Z</time></trkpt><trkpt lat="43.8211117" lon="12.6895517"><ele>151.6</ele><time>2026-04-25T13:00:33.936Z</time></trkpt><trkpt lat="43.8211883" lon="12.6895017"><ele>150.20000000000002</ele><time>2026-04-25T13:00:34.936Z</time></trkpt><trkpt lat="43.82124" lon="12.6893717"><ele>148.8</ele><time>2026-04-25T13:00:35.937Z</time></trkpt><trkpt lat="43.821285" lon="12.689225"><ele>147.4</ele><time>2026-04-25T13:00:36.937Z</time></trkpt><trkpt lat="43.8213467" lon="12.6890833"><ele>146.0</ele><time>2026-04-25T13:00:37.937Z</time></trkpt><trkpt lat="43.821415" lon="12.6889333"><ele>146.0</ele><time>2026-04-25T13:00:38.937Z</time></trkpt><trkpt lat="43.8214783" lon="12.6887733"><ele>146.0</ele><time>2026-04-25T13:00:39.937Z</time></trkpt><trkpt lat="43.821545" lon="12.68861"><ele>146.0</ele><time>2026-04-25T13:00:40.937Z</time></trkpt><trkpt lat="43.8216033" lon="12.6884417"><ele>146.0</ele><time>2026-04-25T13:00:41.936Z</time></trkpt><trkpt lat="43.821665" lon="12.6882717"><ele>145.25</ele><time>2026-04-25T13:00:42.937Z</time></trkpt><trkpt lat="43.8217183" lon="12.6881017"><ele>144.5</ele><time>2026-04-25T13:00:43.937Z</time></trkpt><trkpt lat="43.821765" lon="12.6879267"><ele>143.75</ele><time>2026-04-25T13:00:44.936Z</time></trkpt><trkpt lat="43.8218017" lon="12.6877433"><ele>143.0</ele><time>2026-04-25T13:00:45.937Z</time></trkpt><trkpt lat="43.82184" lon="12.68756"><ele>143.0</ele><time>2026-04-25T13:00:46.937Z</time></trkpt><trkpt lat="43.8218767" lon="12.687375"><ele>143.0</ele><time>2026-04-25T13:00:47.937Z</time></trkpt><trkpt lat="43.8219167" lon="12.6871933"><ele>143.0</ele><time>2026-04-25T13:00:48.937Z</time></trkpt><trkpt lat="43.82195" lon="12.6870117"><ele>143.0</ele><time>2026-04-25T13:00:49.937Z</time></trkpt><trkpt lat="43.8219883" lon="12.686845"><ele>138.5</ele><time>2026-04-25T13:00:50.936Z</time></trkpt><trkpt lat="43.821995" lon="12.6866717"><ele>134.0</ele><time>2026-04-25T13:00:51.936Z</time></trkpt><trkpt lat="43.8219767" lon="12.6864933"><ele>129.5</ele><time>2026-04-25T13:00:52.937Z</time></trkpt><trkpt lat="43.8219367" lon="12.6863117"><ele>125.0</ele><time>2026-04-25T13:00:53.937Z</time></trkpt><trkpt lat="43.8219033" lon="12.6861233"><ele>120.5</ele><time>2026-04-25T13:00:54.936Z</time></trkpt><trkpt lat="43.821885" lon="12.6859317"><ele>116.0</ele><time>2026-04-25T13:00:55.937Z</time></trkpt><trkpt lat="43.8218883" lon="12.6857367"><ele>111.5</ele><time>2026-04-25T13:00:56.937Z</time></trkpt><trkpt lat="43.8219" lon="12.685545"><ele>107.0</ele><time>2026-04-25T13:00:57.936Z</time></trkpt><trkpt lat="43.8219067" lon="12.6853583"><ele>105.25</ele><time>2026-04-25T13:00:58.937Z</time></trkpt><trkpt lat="43.8219283" lon="12.6851767"><ele>103.5</ele><time>2026-04-25T13:00:59.936Z</time></trkpt><trkpt lat="43.8219717" lon="12.685"><ele>101.75</ele><time>2026-04-25T13:01:00.936Z</time></trkpt><trkpt lat="43.8220183" lon="12.6848167"><ele>100.0</ele><time>2026-04-25T13:01:01.937Z</time></trkpt><trkpt lat="43.8220617" lon="12.684625"><ele>100.0</ele><time>2026-04-25T13:01:02.936Z</time></trkpt><trkpt lat="43.8221" lon="12.68443"><ele>100.0</ele><time>2026-04-25T13:01:03.937Z</time></trkpt><trkpt lat="43.8221483" lon="12.6842383"><ele>100.0</ele><time>2026-04-25T13:01:04.937Z</time></trkpt><trkpt lat="43.8221867" lon="12.684035"><ele>100.0</ele><time>2026-04-25T13:01:05.937Z</time></trkpt><trkpt lat="43.8222267" lon="12.6838367"><ele>97.5</ele><time>2026-04-25T13:01:06.937Z</time></trkpt><trkpt lat="43.8222783" lon="12.68365"><ele>95.0</ele><time>2026-04-25T13:01:07.937Z</time></trkpt><trkpt lat="43.8223317" lon="12.6834733"><ele>92.5</ele><time>2026-04-25T13:01:08.937Z</time></trkpt><trkpt lat="43.82238" lon="12.6833033"><ele>90.0</ele><time>2026-04-25T13:01:09.936Z</time></trkpt><trkpt lat="43.8224267" lon="12.68314"><ele>88.4</ele><time>2026-04-25T13:01:10.937Z</time></trkpt><trkpt lat="43.8224683" lon="12.6829867"><ele>86.8</ele><time>2026-04-25T13:01:11.936Z</time></trkpt><trkpt lat="43.8225083" lon="12.682855"><ele>85.19999999999999</ele><time>2026-04-25T13:01:12.937Z</time></trkpt><trkpt lat="43.8225483" lon="12.6827467"><ele>83.6</ele><time>2026-04-25T13:01:13.936Z</time></trkpt><trkpt lat="43.822575" lon="12.6826633"><ele>82.0</ele><time>2026-04-25T13:01:14.936Z</time></trkpt><trkpt lat="43.822635" lon="12.68259"><ele>80.33333333333333</ele><time>2026-04-25T13:01:16.936Z</time></trkpt><trkpt lat="43.8227283" lon="12.6826433"><ele>78.66666666666666</ele><time>2026-04-25T13:01:18.937Z</time></trkpt><trkpt lat="43.8227867" lon="12.68268"><ele>77.0</ele><time>2026-04-25T13:01:19.936Z</time></trkpt><trkpt lat="43.8228467" lon="12.6827417"><ele>75.33333333333333</ele><time>2026-04-25T13:01:20.937Z</time></trkpt><trkpt lat="43.8229" lon="12.68283"><ele>73.66666666666667</ele><time>2026-04-25T13:01:21.937Z</time></trkpt><trkpt lat="43.822945" lon="12.68293"><ele>72.0</ele><time>2026-04-25T13:01:22.937Z</time></trkpt><trkpt lat="43.8229967" lon="12.68303"><ele>72.0</ele><time>2026-04-25T13:01:23.936Z</time></trkpt><trkpt lat="43.8230483" lon="12.6831367"><ele>72.0</ele><time>2026-04-25T13:01:24.937Z</time></trkpt><trkpt lat="43.8230883" lon="12.6832567"><ele>72.0</ele><time>2026-04-25T13:01:25.937Z</time></trkpt><trkpt lat="43.8231333" lon="12.683375"><ele>72.0</ele><time>2026-04-25T13:01:26.937Z</time></trkpt><trkpt lat="43.823185" lon="12.6834867"><ele>72.0</ele><time>2026-04-25T13:01:27.937Z</time></trkpt><trkpt lat="43.8232433" lon="12.6835967"><ele>71.8</ele><time>2026-04-25T13:01:28.936Z</time></trkpt><trkpt lat="43.82329" lon="12.6837117"><ele>71.6</ele><time>2026-04-25T13:01:29.937Z</time></trkpt><trkpt lat="43.8233433" lon="12.68382"><ele>71.39999999999999</ele><time>2026-04-25T13:01:30.937Z</time></trkpt><trkpt lat="43.823395" lon="12.6839267"><ele>71.2</ele><time>2026-04-25T13:01:31.936Z</time></trkpt><trkpt lat="43.82346" lon="12.6840183"><ele>71.0</ele><time>2026-04-25T13:01:32.937Z</time></trkpt><trkpt lat="43.8235233" lon="12.6841017"><ele>71.0</ele><time>2026-04-25T13:01:33.937Z</time></trkpt><trkpt lat="43.8235867" lon="12.684175"><ele>71.0</ele><time>2026-04-25T13:01:34.936Z</time></trkpt><trkpt lat="43.8236533" lon="12.6842117"><ele>71.0</ele><time>2026-04-25T13:01:35.937Z</time></trkpt><trkpt lat="43.8237817" lon="12.6841667"><ele>71.0</ele><time>2026-04-25T13:01:37.937Z</time></trkpt><trkpt lat="43.8238483" lon="12.68409"><ele>71.0</ele><time>2026-04-25T13:01:38.936Z</time></trkpt><trkpt lat="43.8239117" lon="12.6840033"><ele>71.0</ele><time>2026-04-25T13:01:39.937Z</time></trkpt><trkpt lat="43.8239767" lon="12.6839267"><ele>71.0</ele><time>2026-04-25T13:01:40.937Z</time></trkpt><trkpt lat="43.82405" lon="12.6838583"><ele>71.0</ele><time>2026-04-25T13:01:41.936Z</time></trkpt><trkpt lat="43.824125" lon="12.6837867"><ele>71.0</ele><time>2026-04-25T13:01:42.937Z</time></trkpt><trkpt lat="43.824195" lon="12.683715"><ele>71.0</ele><time>2026-04-25T13:01:43.937Z</time></trkpt><trkpt lat="43.8242617" lon="12.6836467"><ele>71.0</ele><time>2026-04-25T13:01:44.936Z</time></trkpt><trkpt lat="43.824315" lon="12.6835683"><ele>71.5</ele><time>2026-04-25T13:01:45.936Z</time></trkpt><trkpt lat="43.82434" lon="12.6834717"><ele>72.0</ele><time>2026-04-25T13:01:46.936Z</time></trkpt><trkpt lat="43.82433" lon="12.6833633"><ele>72.5</ele><time>2026-04-25T13:01:47.937Z</time></trkpt><trkpt lat="43.8242917" lon="12.68326"><ele>73.0</ele><time>2026-04-25T13:01:48.937Z</time></trkpt><trkpt lat="43.8242483" lon="12.6831517"><ele>73.5</ele><time>2026-04-25T13:01:49.937Z</time></trkpt><trkpt lat="43.824195" lon="12.6830333"><ele>74.0</ele><time>2026-04-25T13:01:50.937Z</time></trkpt><trkpt lat="43.8241433" lon="12.6829083"><ele>74.0</ele><time>2026-04-25T13:01:51.937Z</time></trkpt><trkpt lat="43.824095" lon="12.6827733"><ele>74.0</ele><time>2026-04-25T13:01:52.937Z</time></trkpt><trkpt lat="43.8240483" lon="12.682635"><ele>74.0</ele><time>2026-04-25T13:01:53.937Z</time></trkpt><trkpt lat="43.8239983" lon="12.6824967"><ele>74.0</ele><time>2026-04-25T13:01:54.937Z</time></trkpt><trkpt lat="43.82395" lon="12.6823617"><ele>74.0</ele><time>2026-04-25T13:01:55.937Z</time></trkpt><trkpt lat="43.823915" lon="12.6822267"><ele>75.0</ele><time>2026-04-25T13:01:56.937Z</time></trkpt><trkpt lat="43.823875" lon="12.6820983"><ele>76.0</ele><time>2026-04-25T13:01:57.937Z</time></trkpt><trkpt lat="43.8238467" lon="12.6819667"><ele>77.0</ele><time>2026-04-25T13:01:58.937Z</time></trkpt><trkpt lat="43.82384" lon="12.68184"><ele>78.0</ele><time>2026-04-25T13:01:59.937Z</time></trkpt><trkpt lat="43.823855" lon="12.6817233"><ele>79.0</ele><time>2026-04-25T13:02:00.937Z</time></trkpt><trkpt lat="43.8239083" lon="12.681625"><ele>80.0</ele><time>2026-04-25T13:02:01.937Z</time></trkpt><trkpt lat="43.8239833" lon="12.68155"><ele>81.0</ele><time>2026-04-25T13:02:02.936Z</time></trkpt><trkpt lat="43.82407" lon="12.6814917"><ele>82.0</ele><time>2026-04-25T13:02:03.937Z</time></trkpt><trkpt lat="43.824165" lon="12.6814433"><ele>83.0</ele><time>2026-04-25T13:02:04.937Z</time></trkpt><trkpt lat="43.824265" lon="12.6813933"><ele>84.0</ele><time>2026-04-25T13:02:05.937Z</time></trkpt><trkpt lat="43.82437" lon="12.6813333"><ele>84.75</ele><time>2026-04-25T13:02:06.936Z</time></trkpt><trkpt lat="43.8244817" lon="12.6812683"><ele>85.5</ele><time>2026-04-25T13:02:07.937Z</time></trkpt><trkpt lat="43.8245983" lon="12.6812017"><ele>86.25</ele><time>2026-04-25T13:02:08.936Z</time></trkpt><trkpt lat="43.8247133" lon="12.6811433"><ele>87.0</ele><time>2026-04-25T13:02:09.937Z</time></trkpt><trkpt lat="43.8248283" lon="12.6810833"><ele>87.0</ele><time>2026-04-25T13:02:10.937Z</time></trkpt><trkpt lat="43.82494" lon="12.68102"><ele>87.0</ele><time>2026-04-25T13:02:11.937Z</time></trkpt><trkpt lat="43.82505" lon="12.6809567"><ele>87.0</ele><time>2026-04-25T13:02:12.936Z</time></trkpt><trkpt lat="43.8251633" lon="12.6808933"><ele>87.0</ele><time>2026-04-25T13:02:13.937Z</time></trkpt><trkpt lat="43.82528" lon="12.6808383"><ele>87.0</ele><time>2026-04-25T13:02:14.937Z</time></trkpt><trkpt lat="43.8254017" lon="12.6807833"><ele>87.0</ele><time>2026-04-25T13:02:15.937Z</time></trkpt><trkpt lat="43.8255233" lon="12.6807283"><ele>87.0</ele><time>2026-04-25T13:02:16.936Z</time></trkpt><trkpt lat="43.8256417" lon="12.6806683"><ele>87.0</ele><time>2026-04-25T13:02:17.937Z</time></trkpt><trkpt lat="43.82576" lon="12.6806083"><ele>87.0</ele><time>2026-04-25T13:02:18.936Z</time></trkpt><trkpt lat="43.8258783" lon="12.6805567"><ele>87.0</ele><time>2026-04-25T13:02:19.937Z</time></trkpt><trkpt lat="43.8259983" lon="12.6805067"><ele>87.0</ele><time>2026-04-25T13:02:20.936Z</time></trkpt><trkpt lat="43.82612" lon="12.680455"><ele>87.0</ele><time>2026-04-25T13:02:21.936Z</time></trkpt><trkpt lat="43.8262433" lon="12.6804117"><ele>87.0</ele><time>2026-04-25T13:02:22.936Z</time></trkpt><trkpt lat="43.8263717" lon="12.6803733"><ele>87.0</ele><time>2026-04-25T13:02:23.937Z</time></trkpt><trkpt lat="43.8265033" lon="12.6803417"><ele>87.0</ele><time>2026-04-25T13:02:24.937Z</time></trkpt><trkpt lat="43.8266367" lon="12.6803167"><ele>87.0</ele><time>2026-04-25T13:02:25.937Z</time></trkpt><trkpt lat="43.826775" lon="12.680315"><ele>84.75</ele><time>2026-04-25T13:02:26.937Z</time></trkpt><trkpt lat="43.8269167" lon="12.6803383"><ele>82.5</ele><time>2026-04-25T13:02:27.937Z</time></trkpt><trkpt lat="43.8270583" lon="12.6803867"><ele>80.25</ele><time>2026-04-25T13:02:28.937Z</time></trkpt><trkpt lat="43.8272" lon="12.68044"><ele>78.0</ele><time>2026-04-25T13:02:29.937Z</time></trkpt><trkpt lat="43.8273367" lon="12.6805133"><ele>78.0</ele><time>2026-04-25T13:02:30.936Z</time></trkpt><trkpt lat="43.8274633" lon="12.6806017"><ele>78.0</ele><time>2026-04-25T13:02:31.937Z</time></trkpt><trkpt lat="43.8275883" lon="12.6807017"><ele>78.0</ele><time>2026-04-25T13:02:32.936Z</time></trkpt><trkpt lat="43.8277133" lon="12.6808067"><ele>78.0</ele><time>2026-04-25T13:02:33.937Z</time></trkpt><trkpt lat="43.8278367" lon="12.680915"><ele>78.0</ele><time>2026-04-25T13:02:34.937Z</time></trkpt><trkpt lat="43.8279667" lon="12.68102"><ele>78.0</ele><time>2026-04-25T13:02:35.937Z</time></trkpt><trkpt lat="43.828095" lon="12.6811317"><ele>78.0</ele><time>2026-04-25T13:02:36.937Z</time></trkpt><trkpt lat="43.8282217" lon="12.6812383"><ele>78.0</ele><time>2026-04-25T13:02:37.936Z</time></trkpt><trkpt lat="43.8283433" lon="12.68134"><ele>78.0</ele><time>2026-04-25T13:02:38.936Z</time></trkpt><trkpt lat="43.828445" lon="12.6814333"><ele>78.0</ele><time>2026-04-25T13:02:39.936Z</time></trkpt><trkpt lat="43.8285283" lon="12.681505"><ele>78.0</ele><time>2026-04-25T13:02:40.937Z</time></trkpt><trkpt lat="43.8285867" lon="12.681565"><ele>78.0</ele><time>2026-04-25T13:02:41.936Z</time></trkpt><trkpt lat="43.82866" lon="12.68165"><ele>79.0</ele><time>2026-04-25T13:02:43.937Z</time></trkpt><trkpt lat="43.828725" lon="12.6816817"><ele>80.0</ele><time>2026-04-25T13:02:46.937Z</time></trkpt><trkpt lat="43.82867" lon="12.6816083"><ele>81.0</ele><time>2026-04-25T13:02:50.937Z</time></trkpt><trkpt lat="43.828595" lon="12.6815317"><ele>82.0</ele><time>2026-04-25T13:02:53.936Z</time></trkpt><trkpt lat="43.8285567" lon="12.6814417"><ele>83.0</ele><time>2026-04-25T13:02:56.937Z</time></trkpt><trkpt lat="43.828585" lon="12.6813483"><ele>84.0</ele><time>2026-04-25T13:03:06.937Z</time></trkpt><trkpt lat="43.828645" lon="12.6812467"><ele>84.0</ele><time>2026-04-25T13:03:08.936Z</time></trkpt><trkpt lat="43.8287567" lon="12.6811483"><ele>84.0</ele><time>2026-04-25T13:03:10.937Z</time></trkpt><trkpt lat="43.8287983" lon="12.68107"><ele>84.0</ele><time>2026-04-25T13:03:11.937Z</time></trkpt><trkpt lat="43.8288267" lon="12.6809833"><ele>84.0</ele><time>2026-04-25T13:03:12.937Z</time></trkpt><trkpt lat="43.8288367" lon="12.6808817"><ele>84.0</ele><time>2026-04-25T13:03:13.937Z</time></trkpt><trkpt lat="43.8288317" lon="12.6807733"><ele>84.0</ele><time>2026-04-25T13:03:14.937Z</time></trkpt><trkpt lat="43.828805" lon="12.6806733"><ele>84.33333333333333</ele><time>2026-04-25T13:03:15.937Z</time></trkpt><trkpt lat="43.8287767" lon="12.6805783"><ele>84.66666666666667</ele><time>2026-04-25T13:03:16.937Z</time></trkpt><trkpt lat="43.8287533" lon="12.6804883"><ele>85.0</ele><time>2026-04-25T13:03:17.937Z</time></trkpt><trkpt lat="43.8288233" lon="12.6803517"><ele>85.33333333333334</ele><time>2026-04-25T13:03:19.937Z</time></trkpt><trkpt lat="43.82889" lon="12.6803133"><ele>85.66666666666667</ele><time>2026-04-25T13:03:20.937Z</time></trkpt><trkpt lat="43.8289567" lon="12.6802767"><ele>86.0</ele><time>2026-04-25T13:03:21.937Z</time></trkpt><trkpt lat="43.8290333" lon="12.6802417"><ele>86.0</ele><time>2026-04-25T13:03:22.936Z</time></trkpt><trkpt lat="43.829115" lon="12.6802017"><ele>86.0</ele><time>2026-04-25T13:03:23.937Z</time></trkpt><trkpt lat="43.8291917" lon="12.68015"><ele>86.0</ele><time>2026-04-25T13:03:24.937Z</time></trkpt><trkpt lat="43.82927" lon="12.6801083"><ele>86.0</ele><time>2026-04-25T13:03:25.937Z</time></trkpt><trkpt lat="43.8293567" lon="12.680065"><ele>86.0</ele><time>2026-04-25T13:03:26.937Z</time></trkpt><trkpt lat="43.8294367" lon="12.680015"><ele>86.0</ele><time>2026-04-25T13:03:27.937Z</time></trkpt><trkpt lat="43.8295133" lon="12.6799567"><ele>85.8</ele><time>2026-04-25T13:03:28.937Z</time></trkpt><trkpt lat="43.8295783" lon="12.6798817"><ele>85.6</ele><time>2026-04-25T13:03:29.937Z</time></trkpt><trkpt lat="43.8296167" lon="12.6797783"><ele>85.4</ele><time>2026-04-25T13:03:30.936Z</time></trkpt><trkpt lat="43.8296367" lon="12.6796567"><ele>85.2</ele><time>2026-04-25T13:03:31.937Z</time></trkpt><trkpt lat="43.8296533" lon="12.67953"><ele>85.0</ele><time>2026-04-25T13:03:32.937Z</time></trkpt><trkpt lat="43.8296617" lon="12.6793883"><ele>85.75</ele><time>2026-04-25T13:03:33.937Z</time></trkpt><trkpt lat="43.829685" lon="12.6792383"><ele>86.5</ele><time>2026-04-25T13:03:34.937Z</time></trkpt><trkpt lat="43.8297283" lon="12.6791"><ele>87.25</ele><time>2026-04-25T13:03:35.937Z</time></trkpt><trkpt lat="43.8297933" lon="12.6789667"><ele>88.0</ele><time>2026-04-25T13:03:36.937Z</time></trkpt><trkpt lat="43.8298667" lon="12.67884"><ele>88.0</ele><time>2026-04-25T13:03:37.937Z</time></trkpt><trkpt lat="43.8299317" lon="12.678725"><ele>88.0</ele><time>2026-04-25T13:03:38.937Z</time></trkpt><trkpt lat="43.8299883" lon="12.6786283"><ele>88.0</ele><time>2026-04-25T13:03:39.937Z</time></trkpt><trkpt lat="43.8300367" lon="12.6785483"><ele>88.0</ele><time>2026-04-25T13:03:40.936Z</time></trkpt><trkpt lat="43.8301417" lon="12.67847"><ele>88.0</ele><time>2026-04-25T13:03:42.936Z</time></trkpt><trkpt lat="43.8302117" lon="12.6784767"><ele>90.66666666666666</ele><time>2026-04-25T13:03:43.937Z</time></trkpt><trkpt lat="43.8302867" lon="12.6785017"><ele>93.33333333333333</ele><time>2026-04-25T13:03:44.937Z</time></trkpt><trkpt lat="43.8303617" lon="12.6785317"><ele>96.0</ele><time>2026-04-25T13:03:45.937Z</time></trkpt><trkpt lat="43.8304383" lon="12.67856"><ele>98.66666666666666</ele><time>2026-04-25T13:03:46.937Z</time></trkpt><trkpt lat="43.8305133" lon="12.6785783"><ele>101.33333333333333</ele><time>2026-04-25T13:03:47.937Z</time></trkpt><trkpt lat="43.8305933" lon="12.6785767"><ele>104.0</ele><time>2026-04-25T13:03:48.936Z</time></trkpt><trkpt lat="43.830675" lon="12.678555"><ele>104.0</ele><time>2026-04-25T13:03:49.937Z</time></trkpt><trkpt lat="43.8307633" lon="12.678525"><ele>104.0</ele><time>2026-04-25T13:03:50.936Z</time></trkpt><trkpt lat="43.83086" lon="12.678495"><ele>104.0</ele><time>2026-04-25T13:03:51.937Z</time></trkpt><trkpt lat="43.83096" lon="12.6784667"><ele>104.0</ele><time>2026-04-25T13:03:52.936Z</time></trkpt><trkpt lat="43.83106" lon="12.6784417"><ele>104.0</ele><time>2026-04-25T13:03:53.937Z</time></trkpt><trkpt lat="43.8311533" lon="12.678425"><ele>107.2</ele><time>2026-04-25T13:03:54.937Z</time></trkpt><trkpt lat="43.8312517" lon="12.6784217"><ele>110.4</ele><time>2026-04-25T13:03:55.936Z</time></trkpt><trkpt lat="43.83135" lon="12.6784283"><ele>113.6</ele><time>2026-04-25T13:03:56.936Z</time></trkpt><trkpt lat="43.8314483" lon="12.6784433"><ele>116.8</ele><time>2026-04-25T13:03:57.937Z</time></trkpt><trkpt lat="43.8315517" lon="12.6784683"><ele>120.0</ele><time>2026-04-25T13:03:58.937Z</time></trkpt><trkpt lat="43.8316433" lon="12.6784967"><ele>120.0</ele><time>2026-04-25T13:03:59.937Z</time></trkpt><trkpt lat="43.8317183" lon="12.6785267"><ele>120.0</ele><time>2026-04-25T13:04:00.937Z</time></trkpt><trkpt lat="43.8317833" lon="12.6785583"><ele>120.0</ele><time>2026-04-25T13:04:01.936Z</time></trkpt><trkpt lat="43.83185" lon="12.6786033"><ele>120.0</ele><time>2026-04-25T13:04:02.936Z</time></trkpt><trkpt lat="43.8319217" lon="12.67866"><ele>120.0</ele><time>2026-04-25T13:04:03.936Z</time></trkpt><trkpt lat="43.8320017" lon="12.6787233"><ele>120.0</ele><time>2026-04-25T13:04:04.937Z</time></trkpt><trkpt lat="43.8320933" lon="12.6787933"><ele>120.2</ele><time>2026-04-25T13:04:05.937Z</time></trkpt><trkpt lat="43.8321817" lon="12.678875"><ele>120.4</ele><time>2026-04-25T13:04:06.937Z</time></trkpt><trkpt lat="43.8322633" lon="12.6789533"><ele>120.6</ele><time>2026-04-25T13:04:07.937Z</time></trkpt><trkpt lat="43.83234" lon="12.6790167"><ele>120.8</ele><time>2026-04-25T13:04:08.937Z</time></trkpt><trkpt lat="43.8324267" lon="12.6790617"><ele>121.0</ele><time>2026-04-25T13:04:09.937Z</time></trkpt><trkpt lat="43.83252" lon="12.6790867"><ele>121.0</ele><time>2026-04-25T13:04:10.937Z</time></trkpt><trkpt lat="43.8326183" lon="12.67909"><ele>121.0</ele><time>2026-04-25T13:04:11.937Z</time></trkpt><trkpt lat="43.8327217" lon="12.6790783"><ele>121.0</ele><time>2026-04-25T13:04:12.936Z</time></trkpt><trkpt lat="43.832825" lon="12.67906"><ele>121.0</ele><time>2026-04-25T13:04:13.937Z</time></trkpt><trkpt lat="43.8329267" lon="12.679035"><ele>121.0</ele><time>2026-04-25T13:04:14.936Z</time></trkpt><trkpt lat="43.8330083" lon="12.678995"><ele>121.8</ele><time>2026-04-25T13:04:15.937Z</time></trkpt><trkpt lat="43.83306" lon="12.6789383"><ele>122.6</ele><time>2026-04-25T13:04:16.936Z</time></trkpt><trkpt lat="43.8330933" lon="12.678805"><ele>123.4</ele><time>2026-04-25T13:04:18.937Z</time></trkpt><trkpt lat="43.8330517" lon="12.6786817"><ele>124.2</ele><time>2026-04-25T13:04:20.937Z</time></trkpt><trkpt lat="43.8329417" lon="12.6785967"><ele>125.0</ele><time>2026-04-25T13:04:22.937Z</time></trkpt><trkpt lat="43.8328717" lon="12.678575"><ele>128.5</ele><time>2026-04-25T13:04:23.937Z</time></trkpt><trkpt lat="43.8327933" lon="12.678565"><ele>132.0</ele><time>2026-04-25T13:04:24.936Z</time></trkpt><trkpt lat="43.8327085" lon="12.6785441"><ele>135.5</ele><time>2026-04-25T13:04:25.937Z</time></trkpt><trkpt lat="43.8326251" lon="12.6785026"><ele>139.0</ele><time>2026-04-25T13:04:26.937Z</time></trkpt><trkpt lat="43.8325491" lon="12.678436"><ele>142.5</ele><time>2026-04-25T13:04:27.937Z</time></trkpt><trkpt lat="43.8324863" lon="12.6783459"><ele>146.0</ele><time>2026-04-25T13:04:28.936Z</time></trkpt><trkpt lat="43.8324378" lon="12.6782466"><ele>146.0</ele><time>2026-04-25T13:04:29.936Z</time></trkpt><trkpt lat="43.8324118" lon="12.6781503"><ele>146.0</ele><time>2026-04-25T13:04:30.937Z</time></trkpt><trkpt lat="43.8324324" lon="12.6780004"><ele>146.0</ele><time>2026-04-25T13:04:32.937Z</time></trkpt><trkpt lat="43.8325078" lon="12.677928"><ele>146.0</ele><time>2026-04-25T13:04:34.937Z</time></trkpt><trkpt lat="43.8325952" lon="12.6778631"><ele>146.0</ele><time>2026-04-25T13:04:36.937Z</time></trkpt><trkpt lat="43.8326279" lon="12.6777883"><ele>146.0</ele><time>2026-04-25T13:04:37.937Z</time></trkpt><trkpt lat="43.8326507" lon="12.6776821"><ele>150.6</ele><time>2026-04-25T13:04:38.937Z</time></trkpt><trkpt lat="43.8326691" lon="12.6775564"><ele>155.2</ele><time>2026-04-25T13:04:39.936Z</time></trkpt><trkpt lat="43.8326883" lon="12.6774199"><ele>159.79999999999998</ele><time>2026-04-25T13:04:40.937Z</time></trkpt><trkpt lat="43.8327069" lon="12.677293"><ele>164.39999999999998</ele><time>2026-04-25T13:04:41.936Z</time></trkpt><trkpt lat="43.8327214" lon="12.6771804"><ele>169.0</ele><time>2026-04-25T13:04:42.937Z</time></trkpt><trkpt lat="43.832741" lon="12.677071"><ele>169.0</ele><time>2026-04-25T13:04:43.937Z</time></trkpt><trkpt lat="43.8327667" lon="12.676955"><ele>169.0</ele><time>2026-04-25T13:04:44.936Z</time></trkpt><trkpt lat="43.8328006" lon="12.6768357"><ele>169.0</ele><time>2026-04-25T13:04:45.937Z</time></trkpt><trkpt lat="43.8328397" lon="12.6767244"><ele>169.0</ele><time>2026-04-25T13:04:46.937Z</time></trkpt><trkpt lat="43.8328772" lon="12.6766231"><ele>169.0</ele><time>2026-04-25T13:04:47.936Z</time></trkpt><trkpt lat="43.8329077" lon="12.6765282"><ele>169.0</ele><time>2026-04-25T13:04:48.937Z</time></trkpt><trkpt lat="43.8329301" lon="12.6764277"><ele>170.39999999999998</ele><time>2026-04-25T13:04:49.936Z</time></trkpt><trkpt lat="43.8329398" lon="12.6763101"><ele>171.8</ele><time>2026-04-25T13:04:50.937Z</time></trkpt><trkpt lat="43.8329397" lon="12.6761777"><ele>173.2</ele><time>2026-04-25T13:04:51.936Z</time></trkpt><trkpt lat="43.8329475" lon="12.6760529"><ele>174.60000000000002</ele><time>2026-04-25T13:04:52.937Z</time></trkpt><trkpt lat="43.8329752" lon="12.6759373"><ele>176.0</ele><time>2026-04-25T13:04:53.937Z</time></trkpt><trkpt lat="43.8330167" lon="12.6758225"><ele>177.8</ele><time>2026-04-25T13:04:54.938Z</time></trkpt><trkpt lat="43.8330674" lon="12.6757089"><ele>179.60000000000002</ele><time>2026-04-25T13:04:55.938Z</time></trkpt><trkpt lat="43.8331267" lon="12.6755978"><ele>181.4</ele><time>2026-04-25T13:04:56.938Z</time></trkpt><trkpt lat="43.8331965" lon="12.6755049"><ele>183.2</ele><time>2026-04-25T13:04:57.938Z</time></trkpt><trkpt lat="43.8332612" lon="12.6754211"><ele>185.0</ele><time>2026-04-25T13:04:58.938Z</time></trkpt><trkpt lat="43.8333192" lon="12.6753297"><ele>186.2</ele><time>2026-04-25T13:04:59.938Z</time></trkpt><trkpt lat="43.8333725" lon="12.6752191"><ele>187.4</ele><time>2026-04-25T13:05:00.938Z</time></trkpt><trkpt lat="43.8334226" lon="12.6750882"><ele>188.60000000000002</ele><time>2026-04-25T13:05:01.937Z</time></trkpt><trkpt lat="43.8334708" lon="12.6749384"><ele>189.8</ele><time>2026-04-25T13:05:02.938Z</time></trkpt><trkpt lat="43.8335184" lon="12.6747741"><ele>191.0</ele><time>2026-04-25T13:05:03.938Z</time></trkpt><trkpt lat="43.8335647" lon="12.6746071"><ele>189.4</ele><time>2026-04-25T13:05:04.938Z</time></trkpt><trkpt lat="43.8336044" lon="12.6744458"><ele>187.8</ele><time>2026-04-25T13:05:05.938Z</time></trkpt><trkpt lat="43.8336318" lon="12.6742988"><ele>186.20000000000002</ele><time>2026-04-25T13:05:06.938Z</time></trkpt><trkpt lat="43.8336421" lon="12.6741654"><ele>184.60000000000002</ele><time>2026-04-25T13:05:07.937Z</time></trkpt><trkpt lat="43.8336271" lon="12.6740468"><ele>183.0</ele><time>2026-04-25T13:05:08.938Z</time></trkpt><trkpt lat="43.8335896" lon="12.6739304"><ele>183.0</ele><time>2026-04-25T13:05:09.938Z</time></trkpt><trkpt lat="43.8335379" lon="12.6738153"><ele>183.0</ele><time>2026-04-25T13:05:10.937Z</time></trkpt><trkpt lat="43.8334754" lon="12.6736938"><ele>183.0</ele><time>2026-04-25T13:05:11.938Z</time></trkpt><trkpt lat="43.8334029" lon="12.6735639"><ele>183.0</ele><time>2026-04-25T13:05:12.938Z</time></trkpt><trkpt lat="43.8333249" lon="12.6734317"><ele>183.0</ele><time>2026-04-25T13:05:13.938Z</time></trkpt><trkpt lat="43.8332481" lon="12.6732966"><ele>189.75</ele><time>2026-04-25T13:05:14.937Z</time></trkpt><trkpt lat="43.8331719" lon="12.6731617"><ele>196.5</ele><time>2026-04-25T13:05:15.938Z</time></trkpt><trkpt lat="43.8330907" lon="12.6730368"><ele>203.25</ele><time>2026-04-25T13:05:16.937Z</time></trkpt><trkpt lat="43.8330072" lon="12.6729298"><ele>210.0</ele><time>2026-04-25T13:05:17.937Z</time></trkpt><trkpt lat="43.832927" lon="12.6728327"><ele>211.5</ele><time>2026-04-25T13:05:18.938Z</time></trkpt><trkpt lat="43.832854" lon="12.6727217"><ele>213.0</ele><time>2026-04-25T13:05:19.938Z</time></trkpt><trkpt lat="43.8327905" lon="12.6725902"><ele>214.5</ele><time>2026-04-25T13:05:20.938Z</time></trkpt><trkpt lat="43.8327323" lon="12.6724488"><ele>216.0</ele><time>2026-04-25T13:05:21.938Z</time></trkpt><trkpt lat="43.8326729" lon="12.6723091"><ele>216.4</ele><time>2026-04-25T13:05:22.938Z</time></trkpt><trkpt lat="43.83261" lon="12.6721742"><ele>216.8</ele><time>2026-04-25T13:05:23.937Z</time></trkpt><trkpt lat="43.8325576" lon="12.6720447"><ele>217.20000000000002</ele><time>2026-04-25T13:05:24.938Z</time></trkpt><trkpt lat="43.8325291" lon="12.6719217"><ele>217.60000000000002</ele><time>2026-04-25T13:05:25.938Z</time></trkpt><trkpt lat="43.832532" lon="12.6718058"><ele>218.0</ele><time>2026-04-25T13:05:26.938Z</time></trkpt><trkpt lat="43.8325621" lon="12.6716866"><ele>218.25</ele><time>2026-04-25T13:05:27.938Z</time></trkpt><trkpt lat="43.8326091" lon="12.6715566"><ele>218.5</ele><time>2026-04-25T13:05:28.938Z</time></trkpt><trkpt lat="43.8326664" lon="12.6714119"><ele>218.75</ele><time>2026-04-25T13:05:29.938Z</time></trkpt><trkpt lat="43.8327302" lon="12.6712617"><ele>219.0</ele><time>2026-04-25T13:05:30.938Z</time></trkpt><trkpt lat="43.8327892" lon="12.6711151"><ele>221.75</ele><time>2026-04-25T13:05:31.938Z</time></trkpt><trkpt lat="43.8328466" lon="12.6709727"><ele>224.5</ele><time>2026-04-25T13:05:32.938Z</time></trkpt><trkpt lat="43.8329175" lon="12.670841"><ele>227.25</ele><time>2026-04-25T13:05:33.938Z</time></trkpt><trkpt lat="43.8329998" lon="12.6707253"><ele>230.0</ele><time>2026-04-25T13:05:34.938Z</time></trkpt><trkpt lat="43.8330816" lon="12.6706305"><ele>230.0</ele><time>2026-04-25T13:05:35.938Z</time></trkpt><trkpt lat="43.8331595" lon="12.6705452"><ele>230.0</ele><time>2026-04-25T13:05:36.938Z</time></trkpt><trkpt lat="43.8332324" lon="12.6704577"><ele>230.0</ele><time>2026-04-25T13:05:37.938Z</time></trkpt><trkpt lat="43.833304" lon="12.6703669"><ele>230.0</ele><time>2026-04-25T13:05:38.937Z</time></trkpt><trkpt lat="43.8333754" lon="12.6702784"><ele>230.0</ele><time>2026-04-25T13:05:39.938Z</time></trkpt><trkpt lat="43.8334441" lon="12.6701961"><ele>230.66666666666669</ele><time>2026-04-25T13:05:40.938Z</time></trkpt><trkpt lat="43.8335077" lon="12.6701195"><ele>231.33333333333334</ele><time>2026-04-25T13:05:41.938Z</time></trkpt><trkpt lat="43.8335651" lon="12.670048"><ele>232.0</ele><time>2026-04-25T13:05:42.938Z</time></trkpt><trkpt lat="43.8336174" lon="12.6699903"><ele>232.66666666666669</ele><time>2026-04-25T13:05:43.938Z</time></trkpt><trkpt lat="43.8336676" lon="12.6699046"><ele>233.33333333333334</ele><time>2026-04-25T13:05:45.938Z</time></trkpt><trkpt lat="43.83364" lon="12.66979"><ele>234.0</ele><time>2026-04-25T13:05:52.938Z</time></trkpt><trkpt lat="43.833575" lon="12.66974"><ele>233.2</ele><time>2026-04-25T13:05:54.938Z</time></trkpt><trkpt lat="43.8334683" lon="12.66974"><ele>232.39999999999998</ele><time>2026-04-25T13:05:56.938Z</time></trkpt><trkpt lat="43.8333467" lon="12.66971"><ele>231.6</ele><time>2026-04-25T13:05:58.938Z</time></trkpt><trkpt lat="43.8332717" lon="12.66972"><ele>230.8</ele><time>2026-04-25T13:05:59.938Z</time></trkpt><trkpt lat="43.8331917" lon="12.6697217"><ele>230.0</ele><time>2026-04-25T13:06:00.938Z</time></trkpt><trkpt lat="43.8331083" lon="12.6697317"><ele>230.0</ele><time>2026-04-25T13:06:01.937Z</time></trkpt><trkpt lat="43.8330217" lon="12.6697467"><ele>230.0</ele><time>2026-04-25T13:06:02.937Z</time></trkpt><trkpt lat="43.8329333" lon="12.6697667"><ele>230.0</ele><time>2026-04-25T13:06:03.937Z</time></trkpt><trkpt lat="43.8328383" lon="12.669785"><ele>230.0</ele><time>2026-04-25T13:06:04.938Z</time></trkpt><trkpt lat="43.8327433" lon="12.6697833"><ele>230.0</ele><time>2026-04-25T13:06:05.938Z</time></trkpt><trkpt lat="43.8326483" lon="12.6697467"><ele>229.8</ele><time>2026-04-25T13:06:06.938Z</time></trkpt><trkpt lat="43.8325583" lon="12.66968"><ele>229.6</ele><time>2026-04-25T13:06:07.938Z</time></trkpt><trkpt lat="43.8324733" lon="12.6695867"><ele>229.39999999999998</ele><time>2026-04-25T13:06:08.938Z</time></trkpt><trkpt lat="43.8323983" lon="12.6694833"><ele>229.2</ele><time>2026-04-25T13:06:09.938Z</time></trkpt><trkpt lat="43.8323283" lon="12.6693733"><ele>229.0</ele><time>2026-04-25T13:06:10.938Z</time></trkpt><trkpt lat="43.8322483" lon="12.66927"><ele>226.79999999999998</ele><time>2026-04-25T13:06:11.937Z</time></trkpt><trkpt lat="43.8321617" lon="12.6691817"><ele>224.59999999999997</ele><time>2026-04-25T13:06:12.938Z</time></trkpt><trkpt lat="43.83208" lon="12.6690967"><ele>222.4</ele><time>2026-04-25T13:06:13.938Z</time></trkpt><trkpt lat="43.8319967" lon="12.6690133"><ele>220.2</ele><time>2026-04-25T13:06:14.937Z</time></trkpt><trkpt lat="43.8319183" lon="12.66891"><ele>218.0</ele><time>2026-04-25T13:06:15.937Z</time></trkpt><trkpt lat="43.83186" lon="12.6687767"><ele>218.0</ele><time>2026-04-25T13:06:16.937Z</time></trkpt><trkpt lat="43.8318233" lon="12.6686233"><ele>218.0</ele><time>2026-04-25T13:06:17.937Z</time></trkpt><trkpt lat="43.83181" lon="12.6684617"><ele>218.0</ele><time>2026-04-25T13:06:18.937Z</time></trkpt><trkpt lat="43.8318183" lon="12.668295"><ele>218.0</ele><time>2026-04-25T13:06:19.937Z</time></trkpt><trkpt lat="43.83184" lon="12.6681333"><ele>215.0</ele><time>2026-04-25T13:06:20.937Z</time></trkpt><trkpt lat="43.8318733" lon="12.66798"><ele>212.0</ele><time>2026-04-25T13:06:21.937Z</time></trkpt><trkpt lat="43.8319133" lon="12.6678333"><ele>209.0</ele><time>2026-04-25T13:06:22.937Z</time></trkpt><trkpt lat="43.8319333" lon="12.6676817"><ele>206.0</ele><time>2026-04-25T13:06:23.937Z</time></trkpt><trkpt lat="43.8319233" lon="12.6675383"><ele>203.0</ele><time>2026-04-25T13:06:24.936Z</time></trkpt><trkpt lat="43.8318783" lon="12.6674183"><ele>201.60000000000002</ele><time>2026-04-25T13:06:25.936Z</time></trkpt><trkpt lat="43.8318033" lon="12.6673317"><ele>200.20000000000002</ele><time>2026-04-25T13:06:26.936Z</time></trkpt><trkpt lat="43.83172" lon="12.6672583"><ele>198.8</ele><time>2026-04-25T13:06:27.937Z</time></trkpt><trkpt lat="43.83163" lon="12.6671667"><ele>197.4</ele><time>2026-04-25T13:06:28.937Z</time></trkpt><trkpt lat="43.831565" lon="12.6670367"><ele>196.0</ele><time>2026-04-25T13:06:29.937Z</time></trkpt><trkpt lat="43.83152" lon="12.6668867"><ele>196.0</ele><time>2026-04-25T13:06:30.937Z</time></trkpt><trkpt lat="43.8314967" lon="12.6667267"><ele>196.0</ele><time>2026-04-25T13:06:31.937Z</time></trkpt><trkpt lat="43.8314717" lon="12.66657"><ele>196.0</ele><time>2026-04-25T13:06:32.936Z</time></trkpt><trkpt lat="43.831425" lon="12.6664283"><ele>196.0</ele><time>2026-04-25T13:06:33.937Z</time></trkpt><trkpt lat="43.831355" lon="12.6663067"><ele>196.0</ele><time>2026-04-25T13:06:34.936Z</time></trkpt><trkpt lat="43.831255" lon="12.666235"><ele>196.0</ele><time>2026-04-25T13:06:35.937Z</time></trkpt><trkpt lat="43.8311467" lon="12.6662017"><ele>196.0</ele><time>2026-04-25T13:06:36.937Z</time></trkpt><trkpt lat="43.8310367" lon="12.6662083"><ele>196.0</ele><time>2026-04-25T13:06:37.937Z</time></trkpt><trkpt lat="43.8309233" lon="12.6662433"><ele>194.4</ele><time>2026-04-25T13:06:38.937Z</time></trkpt><trkpt lat="43.8308167" lon="12.66625"><ele>192.8</ele><time>2026-04-25T13:06:39.936Z</time></trkpt><trkpt lat="43.8307133" lon="12.6662267"><ele>191.20000000000002</ele><time>2026-04-25T13:06:40.936Z</time></trkpt><trkpt lat="43.830615" lon="12.66616"><ele>189.60000000000002</ele><time>2026-04-25T13:06:41.937Z</time></trkpt><trkpt lat="43.8305183" lon="12.66606"><ele>188.0</ele><time>2026-04-25T13:06:42.937Z</time></trkpt><trkpt lat="43.8304283" lon="12.6659433"><ele>188.0</ele><time>2026-04-25T13:06:43.936Z</time></trkpt><trkpt lat="43.83034" lon="12.66583"><ele>188.0</ele><time>2026-04-25T13:06:44.937Z</time></trkpt><trkpt lat="43.830245" lon="12.6657433"><ele>188.0</ele><time>2026-04-25T13:06:45.937Z</time></trkpt><trkpt lat="43.83014" lon="12.6656967"><ele>188.0</ele><time>2026-04-25T13:06:46.937Z</time></trkpt><trkpt lat="43.8300333" lon="12.665695"><ele>189.0</ele><time>2026-04-25T13:06:47.937Z</time></trkpt><trkpt lat="43.8299267" lon="12.6657417"><ele>190.0</ele><time>2026-04-25T13:06:48.937Z</time></trkpt><trkpt lat="43.82982" lon="12.6658217"><ele>191.0</ele><time>2026-04-25T13:06:49.936Z</time></trkpt><trkpt lat="43.82971" lon="12.6659117"><ele>192.0</ele><time>2026-04-25T13:06:50.937Z</time></trkpt><trkpt lat="43.829595" lon="12.666005"><ele>192.0</ele><time>2026-04-25T13:06:51.937Z</time></trkpt><trkpt lat="43.8294833" lon="12.6661"><ele>192.0</ele><time>2026-04-25T13:06:52.937Z</time></trkpt><trkpt lat="43.8293733" lon="12.6661883"><ele>192.0</ele><time>2026-04-25T13:06:53.937Z</time></trkpt><trkpt lat="43.8292733" lon="12.6662733"><ele>192.0</ele><time>2026-04-25T13:06:54.937Z</time></trkpt><trkpt lat="43.8291883" lon="12.6663533"><ele>189.33333333333334</ele><time>2026-04-25T13:06:55.937Z</time></trkpt><trkpt lat="43.8291133" lon="12.66642"><ele>186.66666666666666</ele><time>2026-04-25T13:06:56.937Z</time></trkpt><trkpt lat="43.82904" lon="12.6664183"><ele>184.0</ele><time>2026-04-25T13:06:57.937Z</time></trkpt><trkpt lat="43.8289917" lon="12.66636"><ele>181.33333333333331</ele><time>2026-04-25T13:06:58.936Z</time></trkpt><trkpt lat="43.828995" lon="12.66621"><ele>178.66666666666666</ele><time>2026-04-25T13:07:00.937Z</time></trkpt><trkpt lat="43.8290467" lon="12.66614"><ele>176.0</ele><time>2026-04-25T13:07:01.936Z</time></trkpt><trkpt lat="43.8291483" lon="12.6660683"><ele>175.5</ele><time>2026-04-25T13:07:02.937Z</time></trkpt><trkpt lat="43.8292533" lon="12.6659767"><ele>175.0</ele><time>2026-04-25T13:07:03.937Z</time></trkpt><trkpt lat="43.829345" lon="12.6658717"><ele>174.5</ele><time>2026-04-25T13:07:04.937Z</time></trkpt><trkpt lat="43.8294183" lon="12.665745"><ele>174.0</ele><time>2026-04-25T13:07:05.937Z</time></trkpt><trkpt lat="43.82949" lon="12.6656133"><ele>174.25</ele><time>2026-04-25T13:07:06.937Z</time></trkpt><trkpt lat="43.8295583" lon="12.6654817"><ele>174.5</ele><time>2026-04-25T13:07:07.937Z</time></trkpt><trkpt lat="43.82963" lon="12.665355"><ele>174.75</ele><time>2026-04-25T13:07:08.936Z</time></trkpt><trkpt lat="43.8297133" lon="12.6652367"><ele>175.0</ele><time>2026-04-25T13:07:09.937Z</time></trkpt><trkpt lat="43.829795" lon="12.66512"><ele>175.0</ele><time>2026-04-25T13:07:10.937Z</time></trkpt><trkpt lat="43.8298767" lon="12.6650067"><ele>175.0</ele><time>2026-04-25T13:07:11.937Z</time></trkpt><trkpt lat="43.8299567" lon="12.6648883"><ele>175.0</ele><time>2026-04-25T13:07:12.937Z</time></trkpt><trkpt lat="43.8300217" lon="12.66476"><ele>175.0</ele><time>2026-04-25T13:07:13.937Z</time></trkpt><trkpt lat="43.8300783" lon="12.6646267"><ele>175.0</ele><time>2026-04-25T13:07:14.937Z</time></trkpt><trkpt lat="43.8301133" lon="12.6644967"><ele>175.0</ele><time>2026-04-25T13:07:15.937Z</time></trkpt><trkpt lat="43.8301067" lon="12.6643567"><ele>175.0</ele><time>2026-04-25T13:07:16.937Z</time></trkpt><trkpt lat="43.8300733" lon="12.6642067"><ele>175.0</ele><time>2026-04-25T13:07:17.937Z</time></trkpt><trkpt lat="43.8300483" lon="12.6640567"><ele>175.0</ele><time>2026-04-25T13:07:18.937Z</time></trkpt><trkpt lat="43.830025" lon="12.6639067"><ele>172.75</ele><time>2026-04-25T13:07:19.937Z</time></trkpt><trkpt lat="43.82999" lon="12.6637583"><ele>170.5</ele><time>2026-04-25T13:07:20.937Z</time></trkpt><trkpt lat="43.82992" lon="12.66362"><ele>168.25</ele><time>2026-04-25T13:07:21.937Z</time></trkpt><trkpt lat="43.829835" lon="12.6634933"><ele>166.0</ele><time>2026-04-25T13:07:22.937Z</time></trkpt><trkpt lat="43.829755" lon="12.6633667"><ele>162.75</ele><time>2026-04-25T13:07:23.936Z</time></trkpt><trkpt lat="43.8296783" lon="12.6632317"><ele>159.5</ele><time>2026-04-25T13:07:24.937Z</time></trkpt><trkpt lat="43.8296083" lon="12.6630917"><ele>156.25</ele><time>2026-04-25T13:07:25.937Z</time></trkpt><trkpt lat="43.829545" lon="12.6629583"><ele>153.0</ele><time>2026-04-25T13:07:26.937Z</time></trkpt><trkpt lat="43.8294683" lon="12.662845"><ele>153.0</ele><time>2026-04-25T13:07:27.937Z</time></trkpt><trkpt lat="43.829385" lon="12.6627883"><ele>153.0</ele><time>2026-04-25T13:07:28.937Z</time></trkpt><trkpt lat="43.8293033" lon="12.6627817"><ele>153.0</ele><time>2026-04-25T13:07:29.937Z</time></trkpt><trkpt lat="43.8292383" lon="12.66283"><ele>153.0</ele><time>2026-04-25T13:07:30.937Z</time></trkpt><trkpt lat="43.8291933" lon="12.6629267"><ele>153.0</ele><time>2026-04-25T13:07:31.937Z</time></trkpt><trkpt lat="43.8291683" lon="12.6630367"><ele>153.0</ele><time>2026-04-25T13:07:32.937Z</time></trkpt><trkpt lat="43.82918" lon="12.6631733"><ele>152.6</ele><time>2026-04-25T13:07:33.937Z</time></trkpt><trkpt lat="43.82922" lon="12.6633133"><ele>152.20000000000002</ele><time>2026-04-25T13:07:34.937Z</time></trkpt><trkpt lat="43.8292533" lon="12.663445"><ele>151.8</ele><time>2026-04-25T13:07:35.937Z</time></trkpt><trkpt lat="43.8292717" lon="12.6635817"><ele>151.4</ele><time>2026-04-25T13:07:36.937Z</time></trkpt><trkpt lat="43.8292783" lon="12.6637133"><ele>151.0</ele><time>2026-04-25T13:07:37.937Z</time></trkpt><trkpt lat="43.8292633" lon="12.6638367"><ele>151.0</ele><time>2026-04-25T13:07:38.937Z</time></trkpt><trkpt lat="43.8292183" lon="12.663945"><ele>151.0</ele><time>2026-04-25T13:07:39.937Z</time></trkpt><trkpt lat="43.82916" lon="12.664045"><ele>151.0</ele><time>2026-04-25T13:07:40.937Z</time></trkpt><trkpt lat="43.829085" lon="12.6641283"><ele>151.0</ele><time>2026-04-25T13:07:41.936Z</time></trkpt><trkpt lat="43.82899" lon="12.6642"><ele>151.0</ele><time>2026-04-25T13:07:42.937Z</time></trkpt><trkpt lat="43.8289117" lon="12.6642917"><ele>151.0</ele><time>2026-04-25T13:07:43.937Z</time></trkpt><trkpt lat="43.8288433" lon="12.6644033"><ele>151.0</ele><time>2026-04-25T13:07:44.937Z</time></trkpt><trkpt lat="43.828785" lon="12.6645267"><ele>151.0</ele><time>2026-04-25T13:07:45.937Z</time></trkpt><trkpt lat="43.8287133" lon="12.6646417"><ele>151.0</ele><time>2026-04-25T13:07:46.936Z</time></trkpt><trkpt lat="43.8286317" lon="12.6647483"><ele>151.0</ele><time>2026-04-25T13:07:47.936Z</time></trkpt><trkpt lat="43.8285367" lon="12.6648417"><ele>148.25</ele><time>2026-04-25T13:07:48.937Z</time></trkpt><trkpt lat="43.828435" lon="12.66492"><ele>145.5</ele><time>2026-04-25T13:07:49.937Z</time></trkpt><trkpt lat="43.8283283" lon="12.6649917"><ele>142.75</ele><time>2026-04-25T13:07:50.936Z</time></trkpt><trkpt lat="43.8282233" lon="12.66507"><ele>140.0</ele><time>2026-04-25T13:07:51.937Z</time></trkpt><trkpt lat="43.8281217" lon="12.6651617"><ele>140.0</ele><time>2026-04-25T13:07:52.937Z</time></trkpt><trkpt lat="43.8280183" lon="12.6652517"><ele>140.0</ele><time>2026-04-25T13:07:53.937Z</time></trkpt><trkpt lat="43.8279083" lon="12.66532"><ele>140.0</ele><time>2026-04-25T13:07:54.937Z</time></trkpt><trkpt lat="43.827795" lon="12.6653767"><ele>140.0</ele><time>2026-04-25T13:07:55.936Z</time></trkpt><trkpt lat="43.8276817" lon="12.66543"><ele>139.0</ele><time>2026-04-25T13:07:56.937Z</time></trkpt><trkpt lat="43.8275717" lon="12.6654883"><ele>138.0</ele><time>2026-04-25T13:07:57.937Z</time></trkpt><trkpt lat="43.8274617" lon="12.6655417"><ele>137.0</ele><time>2026-04-25T13:07:58.937Z</time></trkpt><trkpt lat="43.82735" lon="12.6656017"><ele>136.0</ele><time>2026-04-25T13:07:59.937Z</time></trkpt><trkpt lat="43.8272617" lon="12.66569"><ele>136.0</ele><time>2026-04-25T13:08:00.937Z</time></trkpt><trkpt lat="43.8272083" lon="12.665805"><ele>136.0</ele><time>2026-04-25T13:08:01.936Z</time></trkpt><trkpt lat="43.82719" lon="12.665935"><ele>136.0</ele><time>2026-04-25T13:08:02.937Z</time></trkpt><trkpt lat="43.82721" lon="12.66606"><ele>136.0</ele><time>2026-04-25T13:08:03.936Z</time></trkpt><trkpt lat="43.8272583" lon="12.6661767"><ele>136.0</ele><time>2026-04-25T13:08:04.937Z</time></trkpt><trkpt lat="43.827325" lon="12.6662867"><ele>135.8</ele><time>2026-04-25T13:08:05.936Z</time></trkpt><trkpt lat="43.827395" lon="12.6663967"><ele>135.6</ele><time>2026-04-25T13:08:06.936Z</time></trkpt><trkpt lat="43.8274483" lon="12.6665183"><ele>135.4</ele><time>2026-04-25T13:08:07.937Z</time></trkpt><trkpt lat="43.8274733" lon="12.66665"><ele>135.2</ele><time>2026-04-25T13:08:08.936Z</time></trkpt><trkpt lat="43.8274583" lon="12.6667833"><ele>135.0</ele><time>2026-04-25T13:08:09.937Z</time></trkpt><trkpt lat="43.8274083" lon="12.6668967"><ele>135.0</ele><time>2026-04-25T13:08:10.937Z</time></trkpt><trkpt lat="43.8273267" lon="12.666955"><ele>135.0</ele><time>2026-04-25T13:08:11.936Z</time></trkpt><trkpt lat="43.82723" lon="12.666965"><ele>135.0</ele><time>2026-04-25T13:08:12.937Z</time></trkpt><trkpt lat="43.8271267" lon="12.6669467"><ele>135.0</ele><time>2026-04-25T13:08:13.937Z</time></trkpt><trkpt lat="43.8270133" lon="12.66692"><ele>135.0</ele><time>2026-04-25T13:08:14.937Z</time></trkpt><trkpt lat="43.826895" lon="12.6668883"><ele>132.0</ele><time>2026-04-25T13:08:15.937Z</time></trkpt><trkpt lat="43.8267833" lon="12.6668383"><ele>129.0</ele><time>2026-04-25T13:08:16.936Z</time></trkpt><trkpt lat="43.8266767" lon="12.6667617"><ele>126.0</ele><time>2026-04-25T13:08:17.936Z</time></trkpt><trkpt lat="43.82657" lon="12.6666733"><ele>123.0</ele><time>2026-04-25T13:08:18.937Z</time></trkpt><trkpt lat="43.8264617" lon="12.6666067"><ele>123.0</ele><time>2026-04-25T13:08:19.937Z</time></trkpt><trkpt lat="43.82635" lon="12.6665817"><ele>123.00000000000001</ele><time>2026-04-25T13:08:20.937Z</time></trkpt><trkpt lat="43.8262483" lon="12.6665933"><ele>123.00000000000001</ele><time>2026-04-25T13:08:21.937Z</time></trkpt><trkpt lat="43.8261567" lon="12.6666383"><ele>123.0</ele><time>2026-04-25T13:08:22.936Z</time></trkpt><trkpt lat="43.8260917" lon="12.6667"><ele>123.0</ele><time>2026-04-25T13:08:23.937Z</time></trkpt><trkpt lat="43.826005" lon="12.6667317"><ele>123.0</ele><time>2026-04-25T13:08:25.937Z</time></trkpt><trkpt lat="43.826045" lon="12.66662"><ele>123.00000000000001</ele><time>2026-04-25T13:08:28.937Z</time></trkpt><trkpt lat="43.8261183" lon="12.6665633"><ele>123.00000000000001</ele><time>2026-04-25T13:08:29.937Z</time></trkpt><trkpt lat="43.8261983" lon="12.666505"><ele>123.0</ele><time>2026-04-25T13:08:30.937Z</time></trkpt><trkpt lat="43.826295" lon="12.6664517"><ele>123.0</ele><time>2026-04-25T13:08:31.937Z</time></trkpt><trkpt lat="43.8263883" lon="12.6663983"><ele>123.0</ele><time>2026-04-25T13:08:32.937Z</time></trkpt><trkpt lat="43.82647" lon="12.66633"><ele>123.00000000000001</ele><time>2026-04-25T13:08:33.937Z</time></trkpt><trkpt lat="43.82653" lon="12.6662367"><ele>123.00000000000001</ele><time>2026-04-25T13:08:34.937Z</time></trkpt><trkpt lat="43.8265717" lon="12.6661233"><ele>123.0</ele><time>2026-04-25T13:08:35.937Z</time></trkpt><trkpt lat="43.8265867" lon="12.6659933"><ele>123.0</ele><time>2026-04-25T13:08:36.937Z</time></trkpt><trkpt lat="43.826595" lon="12.66586"><ele>121.4</ele><time>2026-04-25T13:08:37.937Z</time></trkpt><trkpt lat="43.826615" lon="12.6657233"><ele>119.80000000000001</ele><time>2026-04-25T13:08:38.937Z</time></trkpt><trkpt lat="43.8266217" lon="12.665565"><ele>118.2</ele><time>2026-04-25T13:08:39.937Z</time></trkpt><trkpt lat="43.8266317" lon="12.6654117"><ele>116.6</ele><time>2026-04-25T13:08:40.937Z</time></trkpt><trkpt lat="43.8266583" lon="12.6652717"><ele>115.0</ele><time>2026-04-25T13:08:41.936Z</time></trkpt><trkpt lat="43.8266967" lon="12.66514"><ele>113.0</ele><time>2026-04-25T13:08:42.937Z</time></trkpt><trkpt lat="43.8267517" lon="12.6650133"><ele>111.0</ele><time>2026-04-25T13:08:43.937Z</time></trkpt><trkpt lat="43.8268183" lon="12.6648917"><ele>109.0</ele><time>2026-04-25T13:08:44.936Z</time></trkpt><trkpt lat="43.826895" lon="12.6647717"><ele>107.0</ele><time>2026-04-25T13:08:45.937Z</time></trkpt><trkpt lat="43.8269717" lon="12.664645"><ele>109.0</ele><time>2026-04-25T13:08:46.937Z</time></trkpt><trkpt lat="43.8270383" lon="12.6645067"><ele>111.0</ele><time>2026-04-25T13:08:47.937Z</time></trkpt><trkpt lat="43.82709" lon="12.66435"><ele>113.0</ele><time>2026-04-25T13:08:48.937Z</time></trkpt><trkpt lat="43.827125" lon="12.66418"><ele>115.0</ele><time>2026-04-25T13:08:49.937Z</time></trkpt><trkpt lat="43.8271467" lon="12.6640117"><ele>115.0</ele><time>2026-04-25T13:08:50.937Z</time></trkpt><trkpt lat="43.82717" lon="12.6638517"><ele>115.0</ele><time>2026-04-25T13:08:51.937Z</time></trkpt><trkpt lat="43.8271983" lon="12.6636933"><ele>115.0</ele><time>2026-04-25T13:08:52.937Z</time></trkpt><trkpt lat="43.82724" lon="12.6635317"><ele>115.0</ele><time>2026-04-25T13:08:53.937Z</time></trkpt><trkpt lat="43.82729" lon="12.6633667"><ele>113.0</ele><time>2026-04-25T13:08:54.937Z</time></trkpt><trkpt lat="43.827355" lon="12.663205"><ele>111.0</ele><time>2026-04-25T13:08:55.937Z</time></trkpt><trkpt lat="43.8274217" lon="12.6630333"><ele>109.0</ele><time>2026-04-25T13:08:56.937Z</time></trkpt><trkpt lat="43.8274817" lon="12.6628567"><ele>107.0</ele><time>2026-04-25T13:08:57.937Z</time></trkpt><trkpt lat="43.8275383" lon="12.6626783"><ele>105.75</ele><time>2026-04-25T13:08:58.937Z</time></trkpt><trkpt lat="43.8275983" lon="12.662505"><ele>104.5</ele><time>2026-04-25T13:08:59.937Z</time></trkpt><trkpt lat="43.8276617" lon="12.66233"><ele>103.25</ele><time>2026-04-25T13:09:00.937Z</time></trkpt><trkpt lat="43.8277233" lon="12.662155"><ele>102.0</ele><time>2026-04-25T13:09:01.937Z</time></trkpt><trkpt lat="43.8277883" lon="12.661985"><ele>104.25</ele><time>2026-04-25T13:09:02.937Z</time></trkpt><trkpt lat="43.8278483" lon="12.6618133"><ele>106.5</ele><time>2026-04-25T13:09:03.937Z</time></trkpt><trkpt lat="43.8279083" lon="12.6616433"><ele>108.75</ele><time>2026-04-25T13:09:04.937Z</time></trkpt><trkpt lat="43.8279717" lon="12.6614767"><ele>111.0</ele><time>2026-04-25T13:09:05.937Z</time></trkpt><trkpt lat="43.8280317" lon="12.6613083"><ele>111.0</ele><time>2026-04-25T13:09:06.937Z</time></trkpt><trkpt lat="43.8281033" lon="12.6611417"><ele>111.0</ele><time>2026-04-25T13:09:07.937Z</time></trkpt><trkpt lat="43.828175" lon="12.6609733"><ele>111.0</ele><time>2026-04-25T13:09:08.937Z</time></trkpt><trkpt lat="43.8282567" lon="12.66081"><ele>111.0</ele><time>2026-04-25T13:09:09.937Z</time></trkpt><trkpt lat="43.8283467" lon="12.66065"><ele>109.0</ele><time>2026-04-25T13:09:10.937Z</time></trkpt><trkpt lat="43.828435" lon="12.6604833"><ele>107.0</ele><time>2026-04-25T13:09:11.937Z</time></trkpt><trkpt lat="43.8285233" lon="12.6603083"><ele>105.0</ele><time>2026-04-25T13:09:12.937Z</time></trkpt><trkpt lat="43.8286133" lon="12.6601267"><ele>103.0</ele><time>2026-04-25T13:09:13.936Z</time></trkpt><trkpt lat="43.8286983" lon="12.659945"><ele>101.0</ele><time>2026-04-25T13:09:14.937Z</time></trkpt><trkpt lat="43.8287783" lon="12.6597617"><ele>99.0</ele><time>2026-04-25T13:09:15.936Z</time></trkpt><trkpt lat="43.8288683" lon="12.6595867"><ele>98.0</ele><time>2026-04-25T13:09:16.936Z</time></trkpt><trkpt lat="43.8289517" lon="12.6594083"><ele>97.0</ele><time>2026-04-25T13:09:17.936Z</time></trkpt><trkpt lat="43.8290267" lon="12.6592233"><ele>96.0</ele><time>2026-04-25T13:09:18.937Z</time></trkpt><trkpt lat="43.8291017" lon="12.6590433"><ele>96.0</ele><time>2026-04-25T13:09:19.936Z</time></trkpt><trkpt lat="43.8291717" lon="12.6588667"><ele>96.0</ele><time>2026-04-25T13:09:20.936Z</time></trkpt><trkpt lat="43.8292417" lon="12.6587017"><ele>96.0</ele><time>2026-04-25T13:09:21.937Z</time></trkpt><trkpt lat="43.8293183" lon="12.6585433"><ele>96.0</ele><time>2026-04-25T13:09:22.936Z</time></trkpt><trkpt lat="43.8294" lon="12.6584"><ele>97.5</ele><time>2026-04-25T13:09:23.936Z</time></trkpt><trkpt lat="43.82949" lon="12.6582717"><ele>99.0</ele><time>2026-04-25T13:09:24.937Z</time></trkpt><trkpt lat="43.8296" lon="12.65815"><ele>100.5</ele><time>2026-04-25T13:09:25.937Z</time></trkpt><trkpt lat="43.8297133" lon="12.6580283"><ele>102.0</ele><time>2026-04-25T13:09:26.937Z</time></trkpt><trkpt lat="43.82983" lon="12.6579083"><ele>102.0</ele><time>2026-04-25T13:09:27.937Z</time></trkpt><trkpt lat="43.8299417" lon="12.65779"><ele>102.0</ele><time>2026-04-25T13:09:28.936Z</time></trkpt><trkpt lat="43.830045" lon="12.6576733"><ele>102.0</ele><time>2026-04-25T13:09:29.937Z</time></trkpt><trkpt lat="43.8301467" lon="12.6575617"><ele>102.0</ele><time>2026-04-25T13:09:30.937Z</time></trkpt><trkpt lat="43.8302517" lon="12.6574483"><ele>101.5</ele><time>2026-04-25T13:09:31.937Z</time></trkpt><trkpt lat="43.8303517" lon="12.657325"><ele>101.0</ele><time>2026-04-25T13:09:32.937Z</time></trkpt><trkpt lat="43.8304417" lon="12.65719"><ele>100.5</ele><time>2026-04-25T13:09:33.937Z</time></trkpt><trkpt lat="43.8305317" lon="12.657045"><ele>100.0</ele><time>2026-04-25T13:09:34.937Z</time></trkpt><trkpt lat="43.830625" lon="12.656895"><ele>100.0</ele><time>2026-04-25T13:09:35.937Z</time></trkpt><trkpt lat="43.8307167" lon="12.6567467"><ele>100.0</ele><time>2026-04-25T13:09:36.937Z</time></trkpt><trkpt lat="43.8308017" lon="12.6566017"><ele>100.0</ele><time>2026-04-25T13:09:37.937Z</time></trkpt><trkpt lat="43.830885" lon="12.656475"><ele>100.0</ele><time>2026-04-25T13:09:38.937Z</time></trkpt><trkpt lat="43.83098" lon="12.6563767"><ele>104.0</ele><time>2026-04-25T13:09:39.937Z</time></trkpt><trkpt lat="43.83108" lon="12.6562983"><ele>108.0</ele><time>2026-04-25T13:09:40.937Z</time></trkpt><trkpt lat="43.8311917" lon="12.65624"><ele>112.0</ele><time>2026-04-25T13:09:41.937Z</time></trkpt><trkpt lat="43.83131" lon="12.6561933"><ele>116.0</ele><time>2026-04-25T13:09:42.937Z</time></trkpt><trkpt lat="43.8314333" lon="12.6561467"><ele>115.75</ele><time>2026-04-25T13:09:43.936Z</time></trkpt><trkpt lat="43.8315467" lon="12.6560733"><ele>115.5</ele><time>2026-04-25T13:09:44.937Z</time></trkpt><trkpt lat="43.8316583" lon="12.6559783"><ele>115.25</ele><time>2026-04-25T13:09:45.937Z</time></trkpt><trkpt lat="43.8317683" lon="12.6558667"><ele>115.0</ele><time>2026-04-25T13:09:46.937Z</time></trkpt><trkpt lat="43.8318783" lon="12.6557433"><ele>115.0</ele><time>2026-04-25T13:09:47.937Z</time></trkpt><trkpt lat="43.831985" lon="12.6556183"><ele>115.0</ele><time>2026-04-25T13:09:48.937Z</time></trkpt><trkpt lat="43.8320917" lon="12.65549"><ele>115.0</ele><time>2026-04-25T13:09:49.937Z</time></trkpt><trkpt lat="43.8322" lon="12.6553667"><ele>115.0</ele><time>2026-04-25T13:09:50.936Z</time></trkpt><trkpt lat="43.8323133" lon="12.65525"><ele>113.25</ele><time>2026-04-25T13:09:51.937Z</time></trkpt><trkpt lat="43.83243" lon="12.65514"><ele>111.5</ele><time>2026-04-25T13:09:52.937Z</time></trkpt><trkpt lat="43.8325533" lon="12.6550483"><ele>109.75</ele><time>2026-04-25T13:09:53.937Z</time></trkpt><trkpt lat="43.8326817" lon="12.65498"><ele>108.0</ele><time>2026-04-25T13:09:54.937Z</time></trkpt><trkpt lat="43.832815" lon="12.654935"><ele>108.0</ele><time>2026-04-25T13:09:55.937Z</time></trkpt><trkpt lat="43.832955" lon="12.6549117"><ele>108.0</ele><time>2026-04-25T13:09:56.937Z</time></trkpt><trkpt lat="43.8330967" lon="12.654895"><ele>108.0</ele><time>2026-04-25T13:09:57.937Z</time></trkpt><trkpt lat="43.83324" lon="12.6548767"><ele>108.0</ele><time>2026-04-25T13:09:58.937Z</time></trkpt><trkpt lat="43.8333867" lon="12.6548533"><ele>110.0</ele><time>2026-04-25T13:09:59.937Z</time></trkpt><trkpt lat="43.83353" lon="12.65482"><ele>112.0</ele><time>2026-04-25T13:10:00.937Z</time></trkpt><trkpt lat="43.8336733" lon="12.6547733"><ele>114.0</ele><time>2026-04-25T13:10:01.937Z</time></trkpt><trkpt lat="43.83381" lon="12.6547217"><ele>116.0</ele><time>2026-04-25T13:10:02.937Z</time></trkpt><trkpt lat="43.8339433" lon="12.65466"><ele>116.0</ele><time>2026-04-25T13:10:03.936Z</time></trkpt><trkpt lat="43.8340817" lon="12.6546083"><ele>116.0</ele><time>2026-04-25T13:10:04.937Z</time></trkpt><trkpt lat="43.8342183" lon="12.6545533"><ele>116.0</ele><time>2026-04-25T13:10:05.937Z</time></trkpt><trkpt lat="43.834355" lon="12.6544967"><ele>116.0</ele><time>2026-04-25T13:10:06.936Z</time></trkpt><trkpt lat="43.8344917" lon="12.6544467"><ele>115.0</ele><time>2026-04-25T13:10:07.936Z</time></trkpt><trkpt lat="43.8346283" lon="12.6543817"><ele>114.0</ele><time>2026-04-25T13:10:08.936Z</time></trkpt><trkpt lat="43.834765" lon="12.6543067"><ele>113.0</ele><time>2026-04-25T13:10:09.937Z</time></trkpt><trkpt lat="43.8348983" lon="12.65423"><ele>112.0</ele><time>2026-04-25T13:10:10.937Z</time></trkpt><trkpt lat="43.8350283" lon="12.6541467"><ele>116.0</ele><time>2026-04-25T13:10:11.937Z</time></trkpt><trkpt lat="43.835155" lon="12.654055"><ele>120.0</ele><time>2026-04-25T13:10:12.937Z</time></trkpt><trkpt lat="43.8352767" lon="12.6539517"><ele>124.0</ele><time>2026-04-25T13:10:13.937Z</time></trkpt><trkpt lat="43.8353917" lon="12.65384"><ele>128.0</ele><time>2026-04-25T13:10:14.937Z</time></trkpt><trkpt lat="43.8355033" lon="12.6537267"><ele>123.25</ele><time>2026-04-25T13:10:15.937Z</time></trkpt><trkpt lat="43.8356133" lon="12.653615"><ele>118.5</ele><time>2026-04-25T13:10:16.937Z</time></trkpt><trkpt lat="43.8357283" lon="12.6535117"><ele>113.75</ele><time>2026-04-25T13:10:17.936Z</time></trkpt><trkpt lat="43.83584" lon="12.6534067"><ele>109.0</ele><time>2026-04-25T13:10:18.937Z</time></trkpt><trkpt lat="43.8359533" lon="12.6532967"><ele>110.5</ele><time>2026-04-25T13:10:19.937Z</time></trkpt><trkpt lat="43.836075" lon="12.65319"><ele>112.0</ele><time>2026-04-25T13:10:20.937Z</time></trkpt><trkpt lat="43.83619" lon="12.6530667"><ele>113.5</ele><time>2026-04-25T13:10:21.937Z</time></trkpt><trkpt lat="43.8363017" lon="12.6529417"><ele>115.0</ele><time>2026-04-25T13:10:22.937Z</time></trkpt><trkpt lat="43.83641" lon="12.6528183"><ele>112.75</ele><time>2026-04-25T13:10:23.937Z</time></trkpt><trkpt lat="43.8365083" lon="12.6526933"><ele>110.5</ele><time>2026-04-25T13:10:24.937Z</time></trkpt><trkpt lat="43.836605" lon="12.6525783"><ele>108.25</ele><time>2026-04-25T13:10:25.937Z</time></trkpt><trkpt lat="43.8366967" lon="12.6524567"><ele>106.0</ele><time>2026-04-25T13:10:26.936Z</time></trkpt><trkpt lat="43.8367883" lon="12.652335"><ele>106.0</ele><time>2026-04-25T13:10:27.937Z</time></trkpt><trkpt lat="43.8368733" lon="12.65221"><ele>106.0</ele><time>2026-04-25T13:10:28.937Z</time></trkpt><trkpt lat="43.8369567" lon="12.6520833"><ele>106.0</ele><time>2026-04-25T13:10:29.936Z</time></trkpt><trkpt lat="43.8370317" lon="12.6519483"><ele>106.0</ele><time>2026-04-25T13:10:30.937Z</time></trkpt><trkpt lat="43.8371" lon="12.651805"><ele>106.0</ele><time>2026-04-25T13:10:31.937Z</time></trkpt><trkpt lat="43.8371567" lon="12.6516517"><ele>106.0</ele><time>2026-04-25T13:10:32.937Z</time></trkpt><trkpt lat="43.8372" lon="12.65149"><ele>106.0</ele><time>2026-04-25T13:10:33.937Z</time></trkpt><trkpt lat="43.8372417" lon="12.6513217"><ele>106.0</ele><time>2026-04-25T13:10:34.937Z</time></trkpt><trkpt lat="43.8372817" lon="12.651155"><ele>105.8</ele><time>2026-04-25T13:10:35.937Z</time></trkpt><trkpt lat="43.8373167" lon="12.6510017"><ele>105.6</ele><time>2026-04-25T13:10:36.937Z</time></trkpt><trkpt lat="43.8373333" lon="12.650865"><ele>105.4</ele><time>2026-04-25T13:10:37.937Z</time></trkpt><trkpt lat="43.8373133" lon="12.65074"><ele>105.2</ele><time>2026-04-25T13:10:38.937Z</time></trkpt><trkpt lat="43.8372667" lon="12.650625"><ele>105.0</ele><time>2026-04-25T13:10:39.937Z</time></trkpt><trkpt lat="43.837215" lon="12.6505133"><ele>105.0</ele><time>2026-04-25T13:10:40.937Z</time></trkpt><trkpt lat="43.837185" lon="12.6503967"><ele>105.0</ele><time>2026-04-25T13:10:41.936Z</time></trkpt><trkpt lat="43.8371867" lon="12.65027"><ele>105.0</ele><time>2026-04-25T13:10:42.937Z</time></trkpt><trkpt lat="43.8372133" lon="12.65014"><ele>105.0</ele><time>2026-04-25T13:10:43.937Z</time></trkpt><trkpt lat="43.83725" lon="12.6500117"><ele>105.0</ele><time>2026-04-25T13:10:44.937Z</time></trkpt><trkpt lat="43.83729" lon="12.649885"><ele>105.25</ele><time>2026-04-25T13:10:45.936Z</time></trkpt><trkpt lat="43.8373283" lon="12.6497467"><ele>105.5</ele><time>2026-04-25T13:10:46.937Z</time></trkpt><trkpt lat="43.8373733" lon="12.6496017"><ele>105.75</ele><time>2026-04-25T13:10:47.937Z</time></trkpt><trkpt lat="43.837425" lon="12.6494483"><ele>106.0</ele><time>2026-04-25T13:10:48.937Z</time></trkpt><trkpt lat="43.83747" lon="12.6492867"><ele>106.0</ele><time>2026-04-25T13:10:49.937Z</time></trkpt><trkpt lat="43.8375233" lon="12.6491283"><ele>106.0</ele><time>2026-04-25T13:10:50.936Z</time></trkpt><trkpt lat="43.8375767" lon="12.6489683"><ele>106.0</ele><time>2026-04-25T13:10:51.936Z</time></trkpt><trkpt lat="43.8376383" lon="12.6488183"><ele>106.0</ele><time>2026-04-25T13:10:52.937Z</time></trkpt><trkpt lat="43.8377133" lon="12.6486817"><ele>107.5</ele><time>2026-04-25T13:10:53.937Z</time></trkpt><trkpt lat="43.837805" lon="12.648575"><ele>109.0</ele><time>2026-04-25T13:10:54.937Z</time></trkpt><trkpt lat="43.8379083" lon="12.6485017"><ele>110.5</ele><time>2026-04-25T13:10:55.937Z</time></trkpt><trkpt lat="43.83802" lon="12.6484467"><ele>112.0</ele><time>2026-04-25T13:10:56.937Z</time></trkpt><trkpt lat="43.8381333" lon="12.64839"><ele>112.0</ele><time>2026-04-25T13:10:57.936Z</time></trkpt><trkpt lat="43.83824" lon="12.6483167"><ele>112.0</ele><time>2026-04-25T13:10:58.936Z</time></trkpt><trkpt lat="43.838345" lon="12.6482217"><ele>112.0</ele><time>2026-04-25T13:10:59.936Z</time></trkpt><trkpt lat="43.838445" lon="12.6481133"><ele>112.0</ele><time>2026-04-25T13:11:00.937Z</time></trkpt><trkpt lat="43.8385317" lon="12.6479983"><ele>113.6</ele><time>2026-04-25T13:11:01.937Z</time></trkpt><trkpt lat="43.8386083" lon="12.6478967"><ele>115.19999999999999</ele><time>2026-04-25T13:11:02.937Z</time></trkpt><trkpt lat="43.838675" lon="12.6478083"><ele>116.8</ele><time>2026-04-25T13:11:03.937Z</time></trkpt><trkpt lat="43.8387333" lon="12.64773"><ele>118.4</ele><time>2026-04-25T13:11:04.937Z</time></trkpt><trkpt lat="43.838785" lon="12.647665"><ele>120.0</ele><time>2026-04-25T13:11:05.937Z</time></trkpt><trkpt lat="43.8388533" lon="12.6475367"><ele>120.0</ele><time>2026-04-25T13:11:07.937Z</time></trkpt><trkpt lat="43.8388633" lon="12.64745"><ele>120.0</ele><time>2026-04-25T13:11:08.937Z</time></trkpt><trkpt lat="43.838855" lon="12.647345"><ele>120.0</ele><time>2026-04-25T13:11:09.936Z</time></trkpt><trkpt lat="43.83885" lon="12.6472267"><ele>120.0</ele><time>2026-04-25T13:11:10.937Z</time></trkpt><trkpt lat="43.8388683" lon="12.647105"><ele>120.0</ele><time>2026-04-25T13:11:11.937Z</time></trkpt><trkpt lat="43.8389183" lon="12.64699"><ele>120.0</ele><time>2026-04-25T13:11:12.937Z</time></trkpt><trkpt lat="43.838985" lon="12.6468917"><ele>119.8</ele><time>2026-04-25T13:11:13.937Z</time></trkpt><trkpt lat="43.8390617" lon="12.6468133"><ele>119.6</ele><time>2026-04-25T13:11:14.937Z</time></trkpt><trkpt lat="43.83915" lon="12.6467467"><ele>119.4</ele><time>2026-04-25T13:11:15.937Z</time></trkpt><trkpt lat="43.83925" lon="12.6466933"><ele>119.2</ele><time>2026-04-25T13:11:16.937Z</time></trkpt><trkpt lat="43.8393567" lon="12.646645"><ele>119.0</ele><time>2026-04-25T13:11:17.937Z</time></trkpt><trkpt lat="43.8394717" lon="12.6465967"><ele>119.5</ele><time>2026-04-25T13:11:18.937Z</time></trkpt><trkpt lat="43.83959" lon="12.646555"><ele>120.0</ele><time>2026-04-25T13:11:19.937Z</time></trkpt><trkpt lat="43.8397133" lon="12.64652"><ele>120.5</ele><time>2026-04-25T13:11:20.937Z</time></trkpt><trkpt lat="43.8398383" lon="12.6464867"><ele>121.0</ele><time>2026-04-25T13:11:21.936Z</time></trkpt><trkpt lat="43.839965" lon="12.64644"><ele>121.0</ele><time>2026-04-25T13:11:22.937Z</time></trkpt><trkpt lat="43.840085" lon="12.6463883"><ele>121.0</ele><time>2026-04-25T13:11:23.937Z</time></trkpt><trkpt lat="43.8401967" lon="12.6463333"><ele>121.0</ele><time>2026-04-25T13:11:24.937Z</time></trkpt><trkpt lat="43.8402983" lon="12.6462667"><ele>121.0</ele><time>2026-04-25T13:11:25.937Z</time></trkpt><trkpt lat="43.8403883" lon="12.646185"><ele>120.75</ele><time>2026-04-25T13:11:26.937Z</time></trkpt><trkpt lat="43.8404683" lon="12.6460833"><ele>120.5</ele><time>2026-04-25T13:11:27.937Z</time></trkpt><trkpt lat="43.840535" lon="12.64596"><ele>120.25</ele><time>2026-04-25T13:11:28.937Z</time></trkpt><trkpt lat="43.840585" lon="12.6458117"><ele>120.0</ele><time>2026-04-25T13:11:29.937Z</time></trkpt><trkpt lat="43.8406233" lon="12.6456467"><ele>120.0</ele><time>2026-04-25T13:11:30.937Z</time></trkpt><trkpt lat="43.8406583" lon="12.6454733"><ele>120.0</ele><time>2026-04-25T13:11:31.937Z</time></trkpt><trkpt lat="43.8406967" lon="12.6453017"><ele>120.0</ele><time>2026-04-25T13:11:32.937Z</time></trkpt><trkpt lat="43.8407433" lon="12.6451383"><ele>120.0</ele><time>2026-04-25T13:11:33.936Z</time></trkpt><trkpt lat="43.8407983" lon="12.64498"><ele>119.6</ele><time>2026-04-25T13:11:34.937Z</time></trkpt><trkpt lat="43.8408333" lon="12.6448217"><ele>119.2</ele><time>2026-04-25T13:11:35.936Z</time></trkpt><trkpt lat="43.8408383" lon="12.64467"><ele>118.80000000000001</ele><time>2026-04-25T13:11:36.936Z</time></trkpt><trkpt lat="43.8408233" lon="12.6445317"><ele>118.4</ele><time>2026-04-25T13:11:37.937Z</time></trkpt><trkpt lat="43.8408233" lon="12.6444017"><ele>118.0</ele><time>2026-04-25T13:11:38.937Z</time></trkpt><trkpt lat="43.8408467" lon="12.6442683"><ele>117.75</ele><time>2026-04-25T13:11:39.937Z</time></trkpt><trkpt lat="43.8408833" lon="12.64413"><ele>117.5</ele><time>2026-04-25T13:11:40.937Z</time></trkpt><trkpt lat="43.8409333" lon="12.64399"><ele>117.25</ele><time>2026-04-25T13:11:41.937Z</time></trkpt><trkpt lat="43.8409833" lon="12.643835"><ele>117.0</ele><time>2026-04-25T13:11:42.937Z</time></trkpt><trkpt lat="43.84103" lon="12.64367"><ele>119.0</ele><time>2026-04-25T13:11:43.937Z</time></trkpt><trkpt lat="43.8410717" lon="12.6434967"><ele>121.0</ele><time>2026-04-25T13:11:44.937Z</time></trkpt><trkpt lat="43.84111" lon="12.64332"><ele>123.0</ele><time>2026-04-25T13:11:45.937Z</time></trkpt><trkpt lat="43.84115" lon="12.643145"><ele>125.0</ele><time>2026-04-25T13:11:46.937Z</time></trkpt><trkpt lat="43.84119" lon="12.64297"><ele>125.0</ele><time>2026-04-25T13:11:47.937Z</time></trkpt><trkpt lat="43.84123" lon="12.6427983"><ele>125.0</ele><time>2026-04-25T13:11:48.936Z</time></trkpt><trkpt lat="43.84127" lon="12.6426283"><ele>125.0</ele><time>2026-04-25T13:11:49.936Z</time></trkpt><trkpt lat="43.8413067" lon="12.6424633"><ele>125.0</ele><time>2026-04-25T13:11:50.937Z</time></trkpt><trkpt lat="43.84133" lon="12.6422933"><ele>124.2</ele><time>2026-04-25T13:11:51.937Z</time></trkpt><trkpt lat="43.84135" lon="12.6421333"><ele>123.4</ele><time>2026-04-25T13:11:52.937Z</time></trkpt><trkpt lat="43.8413567" lon="12.6419817"><ele>122.6</ele><time>2026-04-25T13:11:53.936Z</time></trkpt><trkpt lat="43.84138" lon="12.6418417"><ele>121.8</ele><time>2026-04-25T13:11:54.936Z</time></trkpt><trkpt lat="43.8414283" lon="12.6417133"><ele>121.0</ele><time>2026-04-25T13:11:55.937Z</time></trkpt><trkpt lat="43.84148" lon="12.6415783"><ele>120.8</ele><time>2026-04-25T13:11:56.937Z</time></trkpt><trkpt lat="43.841525" lon="12.64144"><ele>120.6</ele><time>2026-04-25T13:11:57.937Z</time></trkpt><trkpt lat="43.8415483" lon="12.6413033"><ele>120.4</ele><time>2026-04-25T13:11:58.936Z</time></trkpt><trkpt lat="43.8415583" lon="12.64117"><ele>120.2</ele><time>2026-04-25T13:11:59.936Z</time></trkpt><trkpt lat="43.841565" lon="12.6410433"><ele>120.0</ele><time>2026-04-25T13:12:00.936Z</time></trkpt><trkpt lat="43.841585" lon="12.6409267"><ele>119.6</ele><time>2026-04-25T13:12:01.937Z</time></trkpt><trkpt lat="43.8416283" lon="12.6408267"><ele>119.2</ele><time>2026-04-25T13:12:02.937Z</time></trkpt><trkpt lat="43.84169" lon="12.640745"><ele>118.80000000000001</ele><time>2026-04-25T13:12:03.937Z</time></trkpt><trkpt lat="43.84177" lon="12.640685"><ele>118.4</ele><time>2026-04-25T13:12:04.936Z</time></trkpt><trkpt lat="43.84186" lon="12.64064"><ele>118.0</ele><time>2026-04-25T13:12:05.937Z</time></trkpt><trkpt lat="43.8419617" lon="12.64061"><ele>119.2</ele><time>2026-04-25T13:12:06.937Z</time></trkpt><trkpt lat="43.8420667" lon="12.6405967"><ele>120.4</ele><time>2026-04-25T13:12:07.937Z</time></trkpt><trkpt lat="43.8421667" lon="12.64061"><ele>121.60000000000001</ele><time>2026-04-25T13:12:08.937Z</time></trkpt><trkpt lat="43.842255" lon="12.64065"><ele>122.80000000000001</ele><time>2026-04-25T13:12:09.937Z</time></trkpt><trkpt lat="43.8423283" lon="12.6407183"><ele>124.0</ele><time>2026-04-25T13:12:10.937Z</time></trkpt><trkpt lat="43.8423917" lon="12.6408167"><ele>124.0</ele><time>2026-04-25T13:12:11.936Z</time></trkpt><trkpt lat="43.84245" lon="12.6409383"><ele>124.0</ele><time>2026-04-25T13:12:12.937Z</time></trkpt><trkpt lat="43.8425217" lon="12.6410583"><ele>124.0</ele><time>2026-04-25T13:12:13.937Z</time></trkpt><trkpt lat="43.84262" lon="12.64116"><ele>124.0</ele><time>2026-04-25T13:12:14.936Z</time></trkpt><trkpt lat="43.842725" lon="12.64125"><ele>127.75</ele><time>2026-04-25T13:12:15.937Z</time></trkpt><trkpt lat="43.8428317" lon="12.641335"><ele>131.5</ele><time>2026-04-25T13:12:16.937Z</time></trkpt><trkpt lat="43.84295" lon="12.6414217"><ele>135.25</ele><time>2026-04-25T13:12:17.937Z</time></trkpt><trkpt lat="43.84307" lon="12.64151"><ele>139.0</ele><time>2026-04-25T13:12:18.937Z</time></trkpt><trkpt lat="43.8431917" lon="12.6416"><ele>139.0</ele><time>2026-04-25T13:12:19.936Z</time></trkpt><trkpt lat="43.84332" lon="12.6416767"><ele>139.0</ele><time>2026-04-25T13:12:20.937Z</time></trkpt><trkpt lat="43.8434533" lon="12.6417483"><ele>139.0</ele><time>2026-04-25T13:12:21.937Z</time></trkpt><trkpt lat="43.843585" lon="12.6418233"><ele>139.0</ele><time>2026-04-25T13:12:22.936Z</time></trkpt><trkpt lat="43.8437117" lon="12.6419017"><ele>142.5</ele><time>2026-04-25T13:12:23.937Z</time></trkpt><trkpt lat="43.8438367" lon="12.641975"><ele>146.0</ele><time>2026-04-25T13:12:24.937Z</time></trkpt><trkpt lat="43.8439583" lon="12.6420417"><ele>149.5</ele><time>2026-04-25T13:12:25.937Z</time></trkpt><trkpt lat="43.8440767" lon="12.6421133"><ele>153.0</ele><time>2026-04-25T13:12:26.937Z</time></trkpt><trkpt lat="43.8441917" lon="12.6421883"><ele>156.75</ele><time>2026-04-25T13:12:27.936Z</time></trkpt><trkpt lat="43.8442967" lon="12.64227"><ele>160.5</ele><time>2026-04-25T13:12:28.937Z</time></trkpt><trkpt lat="43.8443983" lon="12.64235"><ele>164.25</ele><time>2026-04-25T13:12:29.937Z</time></trkpt><trkpt lat="43.8444967" lon="12.6424283"><ele>168.0</ele><time>2026-04-25T13:12:30.937Z</time></trkpt><trkpt lat="43.844595" lon="12.642495"><ele>168.0</ele><time>2026-04-25T13:12:31.937Z</time></trkpt><trkpt lat="43.84469" lon="12.6425533"><ele>168.0</ele><time>2026-04-25T13:12:32.937Z</time></trkpt><trkpt lat="43.8447867" lon="12.6426017"><ele>168.0</ele><time>2026-04-25T13:12:33.937Z</time></trkpt><trkpt lat="43.844885" lon="12.6426267"><ele>168.0</ele><time>2026-04-25T13:12:34.937Z</time></trkpt><trkpt lat="43.844975" lon="12.642615"><ele>168.0</ele><time>2026-04-25T13:12:35.937Z</time></trkpt><trkpt lat="43.84506" lon="12.6425733"><ele>170.8</ele><time>2026-04-25T13:12:36.937Z</time></trkpt><trkpt lat="43.8451433" lon="12.6425083"><ele>173.60000000000002</ele><time>2026-04-25T13:12:37.937Z</time></trkpt><trkpt lat="43.8452283" lon="12.6424367"><ele>176.39999999999998</ele><time>2026-04-25T13:12:38.937Z</time></trkpt><trkpt lat="43.8453233" lon="12.642385"><ele>179.2</ele><time>2026-04-25T13:12:39.937Z</time></trkpt><trkpt lat="43.8454133" lon="12.6423783"><ele>182.0</ele><time>2026-04-25T13:12:40.937Z</time></trkpt><trkpt lat="43.8454933" lon="12.642415"><ele>182.0</ele><time>2026-04-25T13:12:41.938Z</time></trkpt><trkpt lat="43.845555" lon="12.6424883"><ele>182.0</ele><time>2026-04-25T13:12:42.938Z</time></trkpt><trkpt lat="43.845595" lon="12.6425933"><ele>182.0</ele><time>2026-04-25T13:12:43.938Z</time></trkpt><trkpt lat="43.8456233" lon="12.6427183"><ele>182.0</ele><time>2026-04-25T13:12:44.938Z</time></trkpt><trkpt lat="43.8456567" lon="12.64284"><ele>182.0</ele><time>2026-04-25T13:12:45.938Z</time></trkpt><trkpt lat="43.845715" lon="12.64295"><ele>182.39999999999998</ele><time>2026-04-25T13:12:46.938Z</time></trkpt><trkpt lat="43.845795" lon="12.643025"><ele>182.79999999999998</ele><time>2026-04-25T13:12:47.938Z</time></trkpt><trkpt lat="43.8458817" lon="12.643065"><ele>183.2</ele><time>2026-04-25T13:12:48.938Z</time></trkpt><trkpt lat="43.845975" lon="12.6430683"><ele>183.6</ele><time>2026-04-25T13:12:49.937Z</time></trkpt><trkpt lat="43.8460733" lon="12.6430383"><ele>184.0</ele><time>2026-04-25T13:12:50.938Z</time></trkpt><trkpt lat="43.84617" lon="12.6429883"><ele>187.0</ele><time>2026-04-25T13:12:51.937Z</time></trkpt><trkpt lat="43.8462733" lon="12.6429317"><ele>190.0</ele><time>2026-04-25T13:12:52.938Z</time></trkpt><trkpt lat="43.8463867" lon="12.6428733"><ele>193.0</ele><time>2026-04-25T13:12:53.938Z</time></trkpt><trkpt lat="43.846505" lon="12.6428167"><ele>196.0</ele><time>2026-04-25T13:12:54.938Z</time></trkpt><trkpt lat="43.8466233" lon="12.642765"><ele>196.0</ele><time>2026-04-25T13:12:55.938Z</time></trkpt><trkpt lat="43.8467433" lon="12.64272"><ele>196.0</ele><time>2026-04-25T13:12:56.938Z</time></trkpt><trkpt lat="43.8468567" lon="12.6426733"><ele>196.0</ele><time>2026-04-25T13:12:57.938Z</time></trkpt><trkpt lat="43.84696" lon="12.642635"><ele>196.0</ele><time>2026-04-25T13:12:58.938Z</time></trkpt><trkpt lat="43.8470417" lon="12.6426167"><ele>196.0</ele><time>2026-04-25T13:12:59.938Z</time></trkpt><trkpt lat="43.8471417" lon="12.642685"><ele>200.8</ele><time>2026-04-25T13:13:01.938Z</time></trkpt><trkpt lat="43.84716" lon="12.6428667"><ele>205.60000000000002</ele><time>2026-04-25T13:13:03.938Z</time></trkpt><trkpt lat="43.847175" lon="12.6429717"><ele>210.4</ele><time>2026-04-25T13:13:04.937Z</time></trkpt><trkpt lat="43.8472167" lon="12.6430717"><ele>215.2</ele><time>2026-04-25T13:13:05.938Z</time></trkpt><trkpt lat="43.847275" lon="12.6431483"><ele>220.0</ele><time>2026-04-25T13:13:06.938Z</time></trkpt><trkpt lat="43.8473483" lon="12.643205"><ele>219.99999999999997</ele><time>2026-04-25T13:13:07.938Z</time></trkpt><trkpt lat="43.8474417" lon="12.64324"><ele>220.0</ele><time>2026-04-25T13:13:08.937Z</time></trkpt><trkpt lat="43.8475383" lon="12.6432633"><ele>220.0</ele><time>2026-04-25T13:13:09.938Z</time></trkpt><trkpt lat="43.84763" lon="12.6432817"><ele>220.0</ele><time>2026-04-25T13:13:10.938Z</time></trkpt><trkpt lat="43.8477117" lon="12.6432867"><ele>219.99999999999997</ele><time>2026-04-25T13:13:11.938Z</time></trkpt><trkpt lat="43.8477883" lon="12.64327"><ele>220.0</ele><time>2026-04-25T13:13:12.938Z</time></trkpt><trkpt lat="43.84786" lon="12.6432233"><ele>220.99999999999997</ele><time>2026-04-25T13:13:13.937Z</time></trkpt><trkpt lat="43.8479033" lon="12.64313"><ele>222.0</ele><time>2026-04-25T13:13:14.937Z</time></trkpt><trkpt lat="43.847925" lon="12.643015"><ele>223.0</ele><time>2026-04-25T13:13:15.938Z</time></trkpt><trkpt lat="43.8479283" lon="12.64289"><ele>224.0</ele><time>2026-04-25T13:13:16.937Z</time></trkpt><trkpt lat="43.8479217" lon="12.6427683"><ele>224.99999999999997</ele><time>2026-04-25T13:13:17.938Z</time></trkpt><trkpt lat="43.8479133" lon="12.642655"><ele>226.0</ele><time>2026-04-25T13:13:18.938Z</time></trkpt><trkpt lat="43.847925" lon="12.64255"><ele>226.99999999999997</ele><time>2026-04-25T13:13:19.938Z</time></trkpt><trkpt lat="43.8479667" lon="12.64245"><ele>228.0</ele><time>2026-04-25T13:13:20.938Z</time></trkpt><trkpt lat="43.8480283" lon="12.64236"><ele>229.0</ele><time>2026-04-25T13:13:21.938Z</time></trkpt><trkpt lat="43.8480983" lon="12.6422867"><ele>230.0</ele><time>2026-04-25T13:13:22.938Z</time></trkpt><trkpt lat="43.8481817" lon="12.6422417"><ele>230.99999999999997</ele><time>2026-04-25T13:13:23.938Z</time></trkpt><trkpt lat="43.8482617" lon="12.64221"><ele>232.0</ele><time>2026-04-25T13:13:24.938Z</time></trkpt><trkpt lat="43.8483417" lon="12.6421883"><ele>232.0</ele><time>2026-04-25T13:13:25.938Z</time></trkpt><trkpt lat="43.84842" lon="12.6421717"><ele>232.0</ele><time>2026-04-25T13:13:26.938Z</time></trkpt><trkpt lat="43.8485" lon="12.642155"><ele>232.0</ele><time>2026-04-25T13:13:27.938Z</time></trkpt><trkpt lat="43.848585" lon="12.6421267"><ele>232.0</ele><time>2026-04-25T13:13:28.938Z</time></trkpt><trkpt lat="43.848675" lon="12.6420717"><ele>232.0</ele><time>2026-04-25T13:13:29.937Z</time></trkpt><trkpt lat="43.8487683" lon="12.6419933"><ele>235.0</ele><time>2026-04-25T13:13:30.937Z</time></trkpt><trkpt lat="43.8488633" lon="12.6419033"><ele>238.0</ele><time>2026-04-25T13:13:31.938Z</time></trkpt><trkpt lat="43.848965" lon="12.6418067"><ele>241.0</ele><time>2026-04-25T13:13:32.938Z</time></trkpt><trkpt lat="43.849065" lon="12.6417017"><ele>244.0</ele><time>2026-04-25T13:13:33.938Z</time></trkpt><trkpt lat="43.8491617" lon="12.6415833"><ele>244.0</ele><time>2026-04-25T13:13:34.937Z</time></trkpt><trkpt lat="43.8492517" lon="12.6414483"><ele>244.0</ele><time>2026-04-25T13:13:35.938Z</time></trkpt><trkpt lat="43.8493317" lon="12.6412983"><ele>244.0</ele><time>2026-04-25T13:13:36.938Z</time></trkpt><trkpt lat="43.849405" lon="12.6411567"><ele>244.0</ele><time>2026-04-25T13:13:37.938Z</time></trkpt><trkpt lat="43.8494767" lon="12.6410283"><ele>246.6</ele><time>2026-04-25T13:13:38.938Z</time></trkpt><trkpt lat="43.8495583" lon="12.640925"><ele>249.2</ele><time>2026-04-25T13:13:39.937Z</time></trkpt><trkpt lat="43.8496517" lon="12.64084"><ele>251.79999999999998</ele><time>2026-04-25T13:13:40.938Z</time></trkpt><trkpt lat="43.8497517" lon="12.64077"><ele>254.39999999999998</ele><time>2026-04-25T13:13:41.937Z</time></trkpt><trkpt lat="43.8498417" lon="12.6407017"><ele>257.0</ele><time>2026-04-25T13:13:42.938Z</time></trkpt><trkpt lat="43.8499133" lon="12.6406483"><ele>257.0</ele><time>2026-04-25T13:13:43.938Z</time></trkpt><trkpt lat="43.8499817" lon="12.6406067"><ele>257.0</ele><time>2026-04-25T13:13:44.938Z</time></trkpt><trkpt lat="43.8500533" lon="12.6405917"><ele>257.0</ele><time>2026-04-25T13:13:45.938Z</time></trkpt><trkpt lat="43.850125" lon="12.640605"><ele>257.0</ele><time>2026-04-25T13:13:46.938Z</time></trkpt><trkpt lat="43.8501983" lon="12.64064"><ele>257.0</ele><time>2026-04-25T13:13:47.938Z</time></trkpt><trkpt lat="43.8502817" lon="12.6406867"><ele>257.0</ele><time>2026-04-25T13:13:48.938Z</time></trkpt><trkpt lat="43.8503767" lon="12.6407267"><ele>258.4</ele><time>2026-04-25T13:13:49.938Z</time></trkpt><trkpt lat="43.8504817" lon="12.6407567"><ele>259.79999999999995</ele><time>2026-04-25T13:13:50.938Z</time></trkpt><trkpt lat="43.850595" lon="12.6407817"><ele>261.2</ele><time>2026-04-25T13:13:51.937Z</time></trkpt><trkpt lat="43.8507067" lon="12.6408083"><ele>262.59999999999997</ele><time>2026-04-25T13:13:52.938Z</time></trkpt><trkpt lat="43.8508" lon="12.64086"><ele>264.0</ele><time>2026-04-25T13:13:53.938Z</time></trkpt><trkpt lat="43.850875" lon="12.6409333"><ele>264.0</ele><time>2026-04-25T13:13:54.937Z</time></trkpt><trkpt lat="43.8509217" lon="12.6410383"><ele>264.0</ele><time>2026-04-25T13:13:55.938Z</time></trkpt><trkpt lat="43.8509483" lon="12.6411617"><ele>264.0</ele><time>2026-04-25T13:13:56.938Z</time></trkpt><trkpt lat="43.850965" lon="12.6412883"><ele>264.0</ele><time>2026-04-25T13:13:57.938Z</time></trkpt><trkpt lat="43.8509867" lon="12.6414117"><ele>264.0</ele><time>2026-04-25T13:13:58.938Z</time></trkpt><trkpt lat="43.8510283" lon="12.6415283"><ele>263.59999999999997</ele><time>2026-04-25T13:13:59.937Z</time></trkpt><trkpt lat="43.851085" lon="12.6416367"><ele>263.2</ele><time>2026-04-25T13:14:00.937Z</time></trkpt><trkpt lat="43.851155" lon="12.6417317"><ele>262.79999999999995</ele><time>2026-04-25T13:14:01.938Z</time></trkpt><trkpt lat="43.8512333" lon="12.6418183"><ele>262.4</ele><time>2026-04-25T13:14:02.938Z</time></trkpt><trkpt lat="43.85133" lon="12.6419017"><ele>262.0</ele><time>2026-04-25T13:14:03.938Z</time></trkpt><trkpt lat="43.851425" lon="12.64198"><ele>262.0</ele><time>2026-04-25T13:14:04.938Z</time></trkpt><trkpt lat="43.8515017" lon="12.642075"><ele>262.0</ele><time>2026-04-25T13:14:05.938Z</time></trkpt><trkpt lat="43.851565" lon="12.642175"><ele>262.0</ele><time>2026-04-25T13:14:06.937Z</time></trkpt><trkpt lat="43.851635" lon="12.64225"><ele>262.0</ele><time>2026-04-25T13:14:07.937Z</time></trkpt><trkpt lat="43.8517067" lon="12.6422983"><ele>262.0</ele><time>2026-04-25T13:14:08.937Z</time></trkpt><trkpt lat="43.8518167" lon="12.6423433"><ele>262.8333333333333</ele><time>2026-04-25T13:14:10.937Z</time></trkpt><trkpt lat="43.8519" lon="12.642345"><ele>263.66666666666663</ele><time>2026-04-25T13:14:12.937Z</time></trkpt><trkpt lat="43.85199" lon="12.6423033"><ele>264.5</ele><time>2026-04-25T13:14:15.937Z</time></trkpt><trkpt lat="43.85204" lon="12.64225"><ele>265.3333333333333</ele><time>2026-04-25T13:14:17.936Z</time></trkpt><trkpt lat="43.8521083" lon="12.64216"><ele>266.1666666666667</ele><time>2026-04-25T13:14:20.937Z</time></trkpt><trkpt lat="43.8521683" lon="12.6420667"><ele>267.0</ele><time>2026-04-25T13:14:22.937Z</time></trkpt><trkpt lat="43.8522267" lon="12.64196"><ele>269.4</ele><time>2026-04-25T13:14:24.937Z</time></trkpt><trkpt lat="43.8522733" lon="12.6418383"><ele>271.79999999999995</ele><time>2026-04-25T13:14:26.937Z</time></trkpt><trkpt lat="43.8523133" lon="12.64171"><ele>274.2</ele><time>2026-04-25T13:14:28.937Z</time></trkpt><trkpt lat="43.85236" lon="12.6415967"><ele>276.59999999999997</ele><time>2026-04-25T13:14:30.936Z</time></trkpt><trkpt lat="43.852325" lon="12.6417117"><ele>279.0</ele><time>2026-04-25T13:14:42.936Z</time></trkpt><trkpt lat="43.852275" lon="12.6418367"><ele>277.0</ele><time>2026-04-25T13:14:44.937Z</time></trkpt><trkpt lat="43.8522017" lon="12.6419683"><ele>275.0</ele><time>2026-04-25T13:14:46.937Z</time></trkpt><trkpt lat="43.8521567" lon="12.64204"><ele>273.0</ele><time>2026-04-25T13:14:47.937Z</time></trkpt><trkpt lat="43.8521067" lon="12.6421167"><ele>271.0</ele><time>2026-04-25T13:14:48.937Z</time></trkpt><trkpt lat="43.85205" lon="12.642185"><ele>269.0</ele><time>2026-04-25T13:14:49.937Z</time></trkpt><trkpt lat="43.85199" lon="12.6422517"><ele>267.0</ele><time>2026-04-25T13:14:50.937Z</time></trkpt><trkpt lat="43.851925" lon="12.6422983"><ele>267.0</ele><time>2026-04-25T13:14:51.936Z</time></trkpt><trkpt lat="43.8518617" lon="12.6423233"><ele>267.0</ele><time>2026-04-25T13:14:52.937Z</time></trkpt><trkpt lat="43.85176" lon="12.6423217"><ele>267.0</ele><time>2026-04-25T13:14:54.937Z</time></trkpt><trkpt lat="43.8517583" lon="12.64241"><ele>267.0</ele><time>2026-04-25T13:14:57.937Z</time></trkpt><trkpt lat="43.85187" lon="12.6424183"><ele>267.0</ele><time>2026-04-25T13:15:00.936Z</time></trkpt><trkpt lat="43.8519933" lon="12.642395"><ele>267.0</ele><time>2026-04-25T13:15:02.937Z</time></trkpt><trkpt lat="43.852065" lon="12.642385"><ele>267.0</ele><time>2026-04-25T13:15:03.936Z</time></trkpt><trkpt lat="43.85214" lon="12.6424033"><ele>267.0</ele><time>2026-04-25T13:15:04.936Z</time></trkpt><trkpt lat="43.8522083" lon="12.6424367"><ele>267.0</ele><time>2026-04-25T13:15:05.937Z</time></trkpt><trkpt lat="43.8522733" lon="12.6424833"><ele>267.0</ele><time>2026-04-25T13:15:06.937Z</time></trkpt><trkpt lat="43.8523417" lon="12.6425467"><ele>267.0</ele><time>2026-04-25T13:15:07.937Z</time></trkpt><trkpt lat="43.8524017" lon="12.6426283"><ele>267.0</ele><time>2026-04-25T13:15:08.937Z</time></trkpt><trkpt lat="43.8524633" lon="12.6427183"><ele>267.0</ele><time>2026-04-25T13:15:09.937Z</time></trkpt><trkpt lat="43.8525317" lon="12.6427983"><ele>267.0</ele><time>2026-04-25T13:15:10.937Z</time></trkpt><trkpt lat="43.85258" lon="12.64289"><ele>267.0</ele><time>2026-04-25T13:15:11.936Z</time></trkpt><trkpt lat="43.8526233" lon="12.6429883"><ele>267.0</ele><time>2026-04-25T13:15:12.937Z</time></trkpt><trkpt lat="43.8526617" lon="12.6430983"><ele>267.0</ele><time>2026-04-25T13:15:13.937Z</time></trkpt><trkpt lat="43.852705" lon="12.6432033"><ele>267.8</ele><time>2026-04-25T13:15:14.937Z</time></trkpt><trkpt lat="43.8527633" lon="12.6433133"><ele>268.6</ele><time>2026-04-25T13:15:15.937Z</time></trkpt><trkpt lat="43.852835" lon="12.6434083"><ele>269.40000000000003</ele><time>2026-04-25T13:15:16.937Z</time></trkpt><trkpt lat="43.8529183" lon="12.6434967"><ele>270.2</ele><time>2026-04-25T13:15:17.937Z</time></trkpt><trkpt lat="43.853" lon="12.6435733"><ele>271.0</ele><time>2026-04-25T13:15:18.936Z</time></trkpt><trkpt lat="43.853085" lon="12.6436433"><ele>271.0</ele><time>2026-04-25T13:15:19.937Z</time></trkpt><trkpt lat="43.8531683" lon="12.6437133"><ele>271.0</ele><time>2026-04-25T13:15:20.937Z</time></trkpt><trkpt lat="43.8532517" lon="12.6437833"><ele>271.0</ele><time>2026-04-25T13:15:21.937Z</time></trkpt><trkpt lat="43.8533367" lon="12.6438417"><ele>271.0</ele><time>2026-04-25T13:15:22.937Z</time></trkpt><trkpt lat="43.8534217" lon="12.6438833"><ele>271.0</ele><time>2026-04-25T13:15:23.937Z</time></trkpt><trkpt lat="43.8535117" lon="12.643905"><ele>274.0</ele><time>2026-04-25T13:15:24.937Z</time></trkpt><trkpt lat="43.8536183" lon="12.6439017"><ele>277.0</ele><time>2026-04-25T13:15:25.936Z</time></trkpt><trkpt lat="43.853735" lon="12.643885"><ele>280.0</ele><time>2026-04-25T13:15:26.937Z</time></trkpt><trkpt lat="43.8538467" lon="12.64387"><ele>283.0</ele><time>2026-04-25T13:15:27.936Z</time></trkpt><trkpt lat="43.85395" lon="12.6438717"><ele>286.0</ele><time>2026-04-25T13:15:28.936Z</time></trkpt><trkpt lat="43.854045" lon="12.643885"><ele>286.0</ele><time>2026-04-25T13:15:29.937Z</time></trkpt><trkpt lat="43.8541233" lon="12.6439233"><ele>286.0</ele><time>2026-04-25T13:15:30.937Z</time></trkpt><trkpt lat="43.85419" lon="12.64398"><ele>286.0</ele><time>2026-04-25T13:15:31.937Z</time></trkpt><trkpt lat="43.8542467" lon="12.6440533"><ele>286.0</ele><time>2026-04-25T13:15:32.937Z</time></trkpt><trkpt lat="43.85431" lon="12.644135"><ele>286.0</ele><time>2026-04-25T13:15:33.936Z</time></trkpt><trkpt lat="43.85438" lon="12.6442167"><ele>286.0</ele><time>2026-04-25T13:15:34.937Z</time></trkpt><trkpt lat="43.8544633" lon="12.64429"><ele>288.40000000000003</ele><time>2026-04-25T13:15:35.936Z</time></trkpt><trkpt lat="43.8545517" lon="12.64436"><ele>290.8</ele><time>2026-04-25T13:15:36.937Z</time></trkpt><trkpt lat="43.85464" lon="12.6444283"><ele>293.20000000000005</ele><time>2026-04-25T13:15:37.937Z</time></trkpt><trkpt lat="43.85473" lon="12.644495"><ele>295.6</ele><time>2026-04-25T13:15:38.937Z</time></trkpt><trkpt lat="43.85482" lon="12.6445617"><ele>298.0</ele><time>2026-04-25T13:15:39.937Z</time></trkpt><trkpt lat="43.85491" lon="12.64464"><ele>298.0</ele><time>2026-04-25T13:15:40.937Z</time></trkpt><trkpt lat="43.8549933" lon="12.644715"><ele>298.0</ele><time>2026-04-25T13:15:41.936Z</time></trkpt><trkpt lat="43.8550833" lon="12.6447833"><ele>298.0</ele><time>2026-04-25T13:15:42.937Z</time></trkpt><trkpt lat="43.8551717" lon="12.6448483"><ele>298.0</ele><time>2026-04-25T13:15:43.937Z</time></trkpt><trkpt lat="43.8552617" lon="12.6449133"><ele>298.0</ele><time>2026-04-25T13:15:44.937Z</time></trkpt><trkpt lat="43.8553517" lon="12.6449683"><ele>302.0</ele><time>2026-04-25T13:15:45.937Z</time></trkpt><trkpt lat="43.855445" lon="12.6450217"><ele>306.0</ele><time>2026-04-25T13:15:46.937Z</time></trkpt><trkpt lat="43.8555317" lon="12.6450883"><ele>310.0</ele><time>2026-04-25T13:15:47.937Z</time></trkpt><trkpt lat="43.8556" lon="12.6451717"><ele>314.0</ele><time>2026-04-25T13:15:48.937Z</time></trkpt><trkpt lat="43.8556517" lon="12.6452717"><ele>318.0</ele><time>2026-04-25T13:15:49.937Z</time></trkpt><trkpt lat="43.85569" lon="12.6453833"><ele>318.0</ele><time>2026-04-25T13:15:50.937Z</time></trkpt><trkpt lat="43.8557033" lon="12.6455167"><ele>318.0</ele><time>2026-04-25T13:15:51.937Z</time></trkpt><trkpt lat="43.8556883" lon="12.6456633"><ele>318.0</ele><time>2026-04-25T13:15:52.937Z</time></trkpt><trkpt lat="43.85564" lon="12.6458083"><ele>318.0</ele><time>2026-04-25T13:15:53.937Z</time></trkpt><trkpt lat="43.8555783" lon="12.6459483"><ele>318.0</ele><time>2026-04-25T13:15:54.937Z</time></trkpt><trkpt lat="43.8555117" lon="12.646085"><ele>320.6</ele><time>2026-04-25T13:15:55.937Z</time></trkpt><trkpt lat="43.8554467" lon="12.6462217"><ele>323.20000000000005</ele><time>2026-04-25T13:15:56.937Z</time></trkpt><trkpt lat="43.855385" lon="12.6463533"><ele>325.8</ele><time>2026-04-25T13:15:57.937Z</time></trkpt><trkpt lat="43.8553467" lon="12.6464867"><ele>328.40000000000003</ele><time>2026-04-25T13:15:58.937Z</time></trkpt><trkpt lat="43.8553217" lon="12.6466217"><ele>331.0</ele><time>2026-04-25T13:15:59.937Z</time></trkpt><trkpt lat="43.8553217" lon="12.6467617"><ele>331.0</ele><time>2026-04-25T13:16:00.937Z</time></trkpt><trkpt lat="43.8553317" lon="12.6469133"><ele>331.0</ele><time>2026-04-25T13:16:01.937Z</time></trkpt><trkpt lat="43.8553383" lon="12.6470783"><ele>331.0</ele><time>2026-04-25T13:16:02.936Z</time></trkpt><trkpt lat="43.85534" lon="12.64725"><ele>331.0</ele><time>2026-04-25T13:16:03.936Z</time></trkpt><trkpt lat="43.85532" lon="12.647415"><ele>332.25</ele><time>2026-04-25T13:16:04.937Z</time></trkpt><trkpt lat="43.855265" lon="12.6475683"><ele>333.5</ele><time>2026-04-25T13:16:05.937Z</time></trkpt><trkpt lat="43.8551833" lon="12.6477083"><ele>334.75</ele><time>2026-04-25T13:16:06.936Z</time></trkpt><trkpt lat="43.85509" lon="12.6478383"><ele>336.0</ele><time>2026-04-25T13:16:07.937Z</time></trkpt><trkpt lat="43.854995" lon="12.647965"><ele>336.0</ele><time>2026-04-25T13:16:08.937Z</time></trkpt><trkpt lat="43.8548967" lon="12.6480783"><ele>336.0</ele><time>2026-04-25T13:16:09.937Z</time></trkpt><trkpt lat="43.854795" lon="12.6481517"><ele>336.0</ele><time>2026-04-25T13:16:10.937Z</time></trkpt><trkpt lat="43.8547117" lon="12.648215"><ele>336.0</ele><time>2026-04-25T13:16:11.936Z</time></trkpt><trkpt lat="43.8546533" lon="12.6482883"><ele>336.0</ele><time>2026-04-25T13:16:12.937Z</time></trkpt><trkpt lat="43.854605" lon="12.6483583"><ele>336.0</ele><time>2026-04-25T13:16:13.937Z</time></trkpt><trkpt lat="43.8546133" lon="12.6485283"><ele>336.0</ele><time>2026-04-25T13:16:15.937Z</time></trkpt><trkpt lat="43.8546567" lon="12.6486233"><ele>336.0</ele><time>2026-04-25T13:16:16.937Z</time></trkpt><trkpt lat="43.8547117" lon="12.64872"><ele>336.0</ele><time>2026-04-25T13:16:17.937Z</time></trkpt><trkpt lat="43.8547817" lon="12.6488183"><ele>336.0</ele><time>2026-04-25T13:16:18.937Z</time></trkpt><trkpt lat="43.8548567" lon="12.648915"><ele>337.0</ele><time>2026-04-25T13:16:19.937Z</time></trkpt><trkpt lat="43.8549317" lon="12.64902"><ele>338.0</ele><time>2026-04-25T13:16:20.937Z</time></trkpt><trkpt lat="43.8550033" lon="12.6491333"><ele>339.0</ele><time>2026-04-25T13:16:21.936Z</time></trkpt><trkpt lat="43.8550733" lon="12.64926"><ele>340.0</ele><time>2026-04-25T13:16:22.937Z</time></trkpt><trkpt lat="43.8551333" lon="12.6494033"><ele>345.25</ele><time>2026-04-25T13:16:23.937Z</time></trkpt><trkpt lat="43.85518" lon="12.6495633"><ele>350.5</ele><time>2026-04-25T13:16:24.937Z</time></trkpt><trkpt lat="43.8552133" lon="12.6497283"><ele>355.75</ele><time>2026-04-25T13:16:25.936Z</time></trkpt><trkpt lat="43.8552433" lon="12.6498967"><ele>361.0</ele><time>2026-04-25T13:16:26.937Z</time></trkpt><trkpt lat="43.85528" lon="12.6500667"><ele>361.0</ele><time>2026-04-25T13:16:27.937Z</time></trkpt><trkpt lat="43.8553233" lon="12.6502367"><ele>361.0</ele><time>2026-04-25T13:16:28.936Z</time></trkpt><trkpt lat="43.8553633" lon="12.65041"><ele>361.0</ele><time>2026-04-25T13:16:29.937Z</time></trkpt><trkpt lat="43.8553967" lon="12.650585"><ele>361.0</ele><time>2026-04-25T13:16:30.937Z</time></trkpt><trkpt lat="43.8554283" lon="12.6507617"><ele>361.0</ele><time>2026-04-25T13:16:31.937Z</time></trkpt><trkpt lat="43.8554617" lon="12.6509317"><ele>361.0</ele><time>2026-04-25T13:16:32.937Z</time></trkpt><trkpt lat="43.8554933" lon="12.6510967"><ele>361.0</ele><time>2026-04-25T13:16:33.937Z</time></trkpt><trkpt lat="43.8555333" lon="12.6512583"><ele>361.0</ele><time>2026-04-25T13:16:34.937Z</time></trkpt><trkpt lat="43.8555667" lon="12.65142"><ele>361.16666666666663</ele><time>2026-04-25T13:16:35.937Z</time></trkpt><trkpt lat="43.855585" lon="12.6515717"><ele>361.3333333333333</ele><time>2026-04-25T13:16:36.937Z</time></trkpt><trkpt lat="43.8555917" lon="12.651705"><ele>361.5</ele><time>2026-04-25T13:16:37.937Z</time></trkpt><trkpt lat="43.8555817" lon="12.6518133"><ele>361.6666666666667</ele><time>2026-04-25T13:16:38.937Z</time></trkpt><trkpt lat="43.855575" lon="12.651905"><ele>361.83333333333337</ele><time>2026-04-25T13:16:39.937Z</time></trkpt><trkpt lat="43.85557" lon="12.6519983"><ele>362.0</ele><time>2026-04-25T13:16:40.937Z</time></trkpt><trkpt lat="43.85558" lon="12.6521"><ele>362.0</ele><time>2026-04-25T13:16:41.936Z</time></trkpt><trkpt lat="43.8555917" lon="12.6522083"><ele>362.0</ele><time>2026-04-25T13:16:42.937Z</time></trkpt><trkpt lat="43.8556017" lon="12.6523217"><ele>362.0</ele><time>2026-04-25T13:16:43.937Z</time></trkpt><trkpt lat="43.855595" lon="12.6524383"><ele>362.0</ele><time>2026-04-25T13:16:44.937Z</time></trkpt><trkpt lat="43.8555933" lon="12.6525633"><ele>362.0</ele><time>2026-04-25T13:16:45.937Z</time></trkpt><trkpt lat="43.8555717" lon="12.6526867"><ele>362.0</ele><time>2026-04-25T13:16:46.937Z</time></trkpt><trkpt lat="43.85557" lon="12.6528183"><ele>363.0</ele><time>2026-04-25T13:16:47.937Z</time></trkpt><trkpt lat="43.8555683" lon="12.6529533"><ele>364.0</ele><time>2026-04-25T13:16:48.937Z</time></trkpt><trkpt lat="43.8555733" lon="12.653095"><ele>365.0</ele><time>2026-04-25T13:16:49.937Z</time></trkpt><trkpt lat="43.85558" lon="12.653245"><ele>366.0</ele><time>2026-04-25T13:16:50.937Z</time></trkpt><trkpt lat="43.85558" lon="12.6533967"><ele>367.0</ele><time>2026-04-25T13:16:51.936Z</time></trkpt><trkpt lat="43.8555767" lon="12.6535517"><ele>368.8</ele><time>2026-04-25T13:16:52.936Z</time></trkpt><trkpt lat="43.8555833" lon="12.6537083"><ele>370.6</ele><time>2026-04-25T13:16:53.937Z</time></trkpt><trkpt lat="43.8555867" lon="12.65386"><ele>372.40000000000003</ele><time>2026-04-25T13:16:54.937Z</time></trkpt><trkpt lat="43.8556217" lon="12.654005"><ele>374.20000000000005</ele><time>2026-04-25T13:16:55.937Z</time></trkpt><trkpt lat="43.855675" lon="12.6541367"><ele>376.0</ele><time>2026-04-25T13:16:56.937Z</time></trkpt><trkpt lat="43.85574" lon="12.6542583"><ele>376.0</ele><time>2026-04-25T13:16:57.937Z</time></trkpt><trkpt lat="43.855805" lon="12.65438"><ele>376.0</ele><time>2026-04-25T13:16:58.937Z</time></trkpt><trkpt lat="43.8558767" lon="12.6545"><ele>376.0</ele><time>2026-04-25T13:16:59.937Z</time></trkpt><trkpt lat="43.8559667" lon="12.654605"><ele>376.0</ele><time>2026-04-25T13:17:00.937Z</time></trkpt><trkpt lat="43.8560617" lon="12.654705"><ele>376.5</ele><time>2026-04-25T13:17:01.937Z</time></trkpt><trkpt lat="43.856185" lon="12.6547583"><ele>377.0</ele><time>2026-04-25T13:17:02.937Z</time></trkpt><trkpt lat="43.8563033" lon="12.6548117"><ele>377.5</ele><time>2026-04-25T13:17:03.937Z</time></trkpt><trkpt lat="43.8564133" lon="12.6548833"><ele>378.0</ele><time>2026-04-25T13:17:04.937Z</time></trkpt><trkpt lat="43.8565117" lon="12.65496"><ele>378.0</ele><time>2026-04-25T13:17:05.937Z</time></trkpt><trkpt lat="43.8565967" lon="12.6550467"><ele>378.0</ele><time>2026-04-25T13:17:06.937Z</time></trkpt><trkpt lat="43.8566533" lon="12.655165"><ele>378.0</ele><time>2026-04-25T13:17:07.937Z</time></trkpt><trkpt lat="43.8566867" lon="12.6553067"><ele>378.0</ele><time>2026-04-25T13:17:08.936Z</time></trkpt><trkpt lat="43.8566983" lon="12.65547"><ele>378.0</ele><time>2026-04-25T13:17:09.937Z</time></trkpt><trkpt lat="43.856705" lon="12.65563"><ele>380.5</ele><time>2026-04-25T13:17:10.937Z</time></trkpt><trkpt lat="43.8566983" lon="12.6557983"><ele>383.0</ele><time>2026-04-25T13:17:11.937Z</time></trkpt><trkpt lat="43.8567" lon="12.65596"><ele>385.5</ele><time>2026-04-25T13:17:12.937Z</time></trkpt><trkpt lat="43.8567167" lon="12.6561117"><ele>388.0</ele><time>2026-04-25T13:17:13.937Z</time></trkpt><trkpt lat="43.856745" lon="12.6562517"><ele>384.2</ele><time>2026-04-25T13:17:14.937Z</time></trkpt><trkpt lat="43.856805" lon="12.6563717"><ele>380.4</ele><time>2026-04-25T13:17:15.937Z</time></trkpt><trkpt lat="43.856885" lon="12.6564633"><ele>376.59999999999997</ele><time>2026-04-25T13:17:16.936Z</time></trkpt><trkpt lat="43.8569883" lon="12.656525"><ele>372.79999999999995</ele><time>2026-04-25T13:17:17.936Z</time></trkpt><trkpt lat="43.857085" lon="12.65659"><ele>369.0</ele><time>2026-04-25T13:17:18.937Z</time></trkpt><trkpt lat="43.85717" lon="12.6566683"><ele>369.0</ele><time>2026-04-25T13:17:19.937Z</time></trkpt><trkpt lat="43.8572417" lon="12.656755"><ele>369.0</ele><time>2026-04-25T13:17:20.937Z</time></trkpt><trkpt lat="43.857272" lon="12.6568709"><ele>369.0</ele><time>2026-04-25T13:17:21.937Z</time></trkpt><trkpt lat="43.8572703" lon="12.65699"><ele>369.0</ele><time>2026-04-25T13:17:22.936Z</time></trkpt><trkpt lat="43.8572295" lon="12.6571071"><ele>369.0</ele><time>2026-04-25T13:17:23.936Z</time></trkpt><trkpt lat="43.8571596" lon="12.6572236"><ele>370.75</ele><time>2026-04-25T13:17:24.937Z</time></trkpt><trkpt lat="43.8570903" lon="12.6573484"><ele>372.5</ele><time>2026-04-25T13:17:25.936Z</time></trkpt><trkpt lat="43.8570405" lon="12.6574944"><ele>374.25</ele><time>2026-04-25T13:17:26.937Z</time></trkpt><trkpt lat="43.8570269" lon="12.6576551"><ele>376.0</ele><time>2026-04-25T13:17:27.937Z</time></trkpt><trkpt lat="43.8570605" lon="12.6578104"><ele>377.75</ele><time>2026-04-25T13:17:28.937Z</time></trkpt><trkpt lat="43.8571234" lon="12.6579516"><ele>379.5</ele><time>2026-04-25T13:17:29.937Z</time></trkpt><trkpt lat="43.8571984" lon="12.658085"><ele>381.25</ele><time>2026-04-25T13:17:30.937Z</time></trkpt><trkpt lat="43.8572879" lon="12.6582119"><ele>383.0</ele><time>2026-04-25T13:17:31.937Z</time></trkpt><trkpt lat="43.857377" lon="12.6583356"><ele>383.0</ele><time>2026-04-25T13:17:32.937Z</time></trkpt><trkpt lat="43.8574605" lon="12.6584587"><ele>383.0</ele><time>2026-04-25T13:17:33.937Z</time></trkpt><trkpt lat="43.8575418" lon="12.6585767"><ele>383.0</ele><time>2026-04-25T13:17:34.937Z</time></trkpt><trkpt lat="43.8576125" lon="12.6587042"><ele>383.0</ele><time>2026-04-25T13:17:35.937Z</time></trkpt><trkpt lat="43.8576662" lon="12.6588475"><ele>381.75</ele><time>2026-04-25T13:17:36.937Z</time></trkpt><trkpt lat="43.8576906" lon="12.6590076"><ele>380.5</ele><time>2026-04-25T13:17:37.937Z</time></trkpt><trkpt lat="43.857683" lon="12.659179"><ele>379.25</ele><time>2026-04-25T13:17:38.937Z</time></trkpt><trkpt lat="43.8576573" lon="12.6593534"><ele>378.0</ele><time>2026-04-25T13:17:39.937Z</time></trkpt><trkpt lat="43.8576128" lon="12.6595213"><ele>378.0</ele><time>2026-04-25T13:17:40.937Z</time></trkpt><trkpt lat="43.8575582" lon="12.6596821"><ele>378.0</ele><time>2026-04-25T13:17:41.937Z</time></trkpt><trkpt lat="43.8574969" lon="12.6598375"><ele>378.0</ele><time>2026-04-25T13:17:42.936Z</time></trkpt><trkpt lat="43.8574286" lon="12.659986"><ele>378.0</ele><time>2026-04-25T13:17:43.937Z</time></trkpt><trkpt lat="43.8573582" lon="12.6601333"><ele>377.5</ele><time>2026-04-25T13:17:44.936Z</time></trkpt><trkpt lat="43.8572889" lon="12.6602884"><ele>377.0</ele><time>2026-04-25T13:17:45.937Z</time></trkpt><trkpt lat="43.8572268" lon="12.6604535"><ele>376.5</ele><time>2026-04-25T13:17:46.937Z</time></trkpt><trkpt lat="43.8571646" lon="12.6606187"><ele>376.0</ele><time>2026-04-25T13:17:47.936Z</time></trkpt><trkpt lat="43.8571224" lon="12.6607952"><ele>376.0</ele><time>2026-04-25T13:17:48.937Z</time></trkpt><trkpt lat="43.8571007" lon="12.660986"><ele>376.0</ele><time>2026-04-25T13:17:49.936Z</time></trkpt><trkpt lat="43.8570861" lon="12.6611778"><ele>376.0</ele><time>2026-04-25T13:17:50.937Z</time></trkpt><trkpt lat="43.8570699" lon="12.6613701"><ele>376.0</ele><time>2026-04-25T13:17:51.937Z</time></trkpt><trkpt lat="43.857042" lon="12.6615542"><ele>378.75</ele><time>2026-04-25T13:17:52.936Z</time></trkpt><trkpt lat="43.8570205" lon="12.6617393"><ele>381.5</ele><time>2026-04-25T13:17:53.936Z</time></trkpt><trkpt lat="43.8569933" lon="12.6619233"><ele>384.25</ele><time>2026-04-25T13:17:54.936Z</time></trkpt><trkpt lat="43.8569617" lon="12.6621033"><ele>387.0</ele><time>2026-04-25T13:17:55.936Z</time></trkpt><trkpt lat="43.8569367" lon="12.662285"><ele>388.25</ele><time>2026-04-25T13:17:56.937Z</time></trkpt><trkpt lat="43.856935" lon="12.66247"><ele>389.5</ele><time>2026-04-25T13:17:57.937Z</time></trkpt><trkpt lat="43.8569533" lon="12.6626567"><ele>390.75</ele><time>2026-04-25T13:17:58.937Z</time></trkpt><trkpt lat="43.8569883" lon="12.6628433"><ele>392.0</ele><time>2026-04-25T13:17:59.937Z</time></trkpt><trkpt lat="43.8570367" lon="12.6630317"><ele>392.25</ele><time>2026-04-25T13:18:00.937Z</time></trkpt><trkpt lat="43.8570867" lon="12.6632217"><ele>392.5</ele><time>2026-04-25T13:18:01.937Z</time></trkpt><trkpt lat="43.857135" lon="12.66342"><ele>392.75</ele><time>2026-04-25T13:18:02.937Z</time></trkpt><trkpt lat="43.8571867" lon="12.6636183"><ele>393.0</ele><time>2026-04-25T13:18:03.936Z</time></trkpt><trkpt lat="43.8572417" lon="12.663815"><ele>391.25</ele><time>2026-04-25T13:18:04.937Z</time></trkpt><trkpt lat="43.8572983" lon="12.6640133"><ele>389.5</ele><time>2026-04-25T13:18:05.937Z</time></trkpt><trkpt lat="43.857355" lon="12.6642083"><ele>387.75</ele><time>2026-04-25T13:18:06.937Z</time></trkpt><trkpt lat="43.857405" lon="12.664395"><ele>386.0</ele><time>2026-04-25T13:18:07.936Z</time></trkpt><trkpt lat="43.8574483" lon="12.6645767"><ele>386.0</ele><time>2026-04-25T13:18:08.937Z</time></trkpt><trkpt lat="43.8574733" lon="12.6647583"><ele>386.0</ele><time>2026-04-25T13:18:09.937Z</time></trkpt><trkpt lat="43.8574733" lon="12.6649317"><ele>386.0</ele><time>2026-04-25T13:18:10.937Z</time></trkpt><trkpt lat="43.85744" lon="12.6650917"><ele>386.0</ele><time>2026-04-25T13:18:11.937Z</time></trkpt><trkpt lat="43.8573717" lon="12.66522"><ele>388.0</ele><time>2026-04-25T13:18:12.937Z</time></trkpt><trkpt lat="43.8572767" lon="12.6653083"><ele>390.0</ele><time>2026-04-25T13:18:13.937Z</time></trkpt><trkpt lat="43.8571683" lon="12.6653533"><ele>392.0</ele><time>2026-04-25T13:18:14.937Z</time></trkpt><trkpt lat="43.8570433" lon="12.6653683"><ele>394.0</ele><time>2026-04-25T13:18:15.937Z</time></trkpt><trkpt lat="43.8569183" lon="12.6653867"><ele>394.0</ele><time>2026-04-25T13:18:16.937Z</time></trkpt><trkpt lat="43.8567967" lon="12.6654267"><ele>394.0</ele><time>2026-04-25T13:18:17.937Z</time></trkpt><trkpt lat="43.8566767" lon="12.6654617"><ele>394.0</ele><time>2026-04-25T13:18:18.937Z</time></trkpt><trkpt lat="43.85657" lon="12.665535"><ele>394.0</ele><time>2026-04-25T13:18:19.937Z</time></trkpt><trkpt lat="43.8564917" lon="12.6656383"><ele>391.5</ele><time>2026-04-25T13:18:20.937Z</time></trkpt><trkpt lat="43.85643" lon="12.6657667"><ele>389.0</ele><time>2026-04-25T13:18:21.936Z</time></trkpt><trkpt lat="43.8563783" lon="12.6658983"><ele>386.5</ele><time>2026-04-25T13:18:22.937Z</time></trkpt><trkpt lat="43.8563483" lon="12.66605"><ele>384.0</ele><time>2026-04-25T13:18:23.937Z</time></trkpt><trkpt lat="43.8563667" lon="12.6662233"><ele>384.0</ele><time>2026-04-25T13:18:24.937Z</time></trkpt><trkpt lat="43.8564117" lon="12.666395"><ele>384.0</ele><time>2026-04-25T13:18:25.937Z</time></trkpt><trkpt lat="43.85648" lon="12.6665633"><ele>384.0</ele><time>2026-04-25T13:18:26.937Z</time></trkpt><trkpt lat="43.8565533" lon="12.6667317"><ele>384.0</ele><time>2026-04-25T13:18:27.937Z</time></trkpt><trkpt lat="43.8566233" lon="12.6669033"><ele>384.75</ele><time>2026-04-25T13:18:28.937Z</time></trkpt><trkpt lat="43.8566883" lon="12.6670783"><ele>385.5</ele><time>2026-04-25T13:18:29.937Z</time></trkpt><trkpt lat="43.8567517" lon="12.6672567"><ele>386.25</ele><time>2026-04-25T13:18:30.937Z</time></trkpt><trkpt lat="43.8568183" lon="12.667425"><ele>387.0</ele><time>2026-04-25T13:18:31.937Z</time></trkpt><trkpt lat="43.85688" lon="12.66759"><ele>387.0</ele><time>2026-04-25T13:18:32.937Z</time></trkpt><trkpt lat="43.8569583" lon="12.6677433"><ele>387.0</ele><time>2026-04-25T13:18:33.937Z</time></trkpt><trkpt lat="43.8570533" lon="12.66787"><ele>387.0</ele><time>2026-04-25T13:18:34.936Z</time></trkpt><trkpt lat="43.8571583" lon="12.66799"><ele>387.0</ele><time>2026-04-25T13:18:35.936Z</time></trkpt><trkpt lat="43.8572617" lon="12.6681217"><ele>385.5</ele><time>2026-04-25T13:18:36.937Z</time></trkpt><trkpt lat="43.8573383" lon="12.6682783"><ele>384.0</ele><time>2026-04-25T13:18:37.936Z</time></trkpt><trkpt lat="43.857395" lon="12.6684567"><ele>382.5</ele><time>2026-04-25T13:18:38.937Z</time></trkpt><trkpt lat="43.8574417" lon="12.66864"><ele>381.0</ele><time>2026-04-25T13:18:39.936Z</time></trkpt><trkpt lat="43.8574833" lon="12.6688283"><ele>380.0</ele><time>2026-04-25T13:18:40.936Z</time></trkpt><trkpt lat="43.8575283" lon="12.6690033"><ele>379.0</ele><time>2026-04-25T13:18:41.937Z</time></trkpt><trkpt lat="43.8575667" lon="12.669175"><ele>378.0</ele><time>2026-04-25T13:18:42.937Z</time></trkpt><trkpt lat="43.8576" lon="12.66934"><ele>377.0</ele><time>2026-04-25T13:18:43.936Z</time></trkpt><trkpt lat="43.8576317" lon="12.6695"><ele>376.8</ele><time>2026-04-25T13:18:44.937Z</time></trkpt><trkpt lat="43.8576667" lon="12.6696517"><ele>376.6</ele><time>2026-04-25T13:18:45.937Z</time></trkpt><trkpt lat="43.8577033" lon="12.6697983"><ele>376.40000000000003</ele><time>2026-04-25T13:18:46.937Z</time></trkpt><trkpt lat="43.857735" lon="12.66994"><ele>376.20000000000005</ele><time>2026-04-25T13:18:47.937Z</time></trkpt><trkpt lat="43.8577683" lon="12.67007"><ele>376.0</ele><time>2026-04-25T13:18:48.937Z</time></trkpt><trkpt lat="43.857795" lon="12.6701767"><ele>376.0</ele><time>2026-04-25T13:18:49.937Z</time></trkpt><trkpt lat="43.8578117" lon="12.6702633"><ele>376.0</ele><time>2026-04-25T13:18:50.937Z</time></trkpt><trkpt lat="43.85788" lon="12.670305"><ele>376.0</ele><time>2026-04-25T13:18:52.937Z</time></trkpt><trkpt lat="43.85796" lon="12.6702367"><ele>376.0</ele><time>2026-04-25T13:18:54.937Z</time></trkpt><trkpt lat="43.8580383" lon="12.6700833"><ele>376.0</ele><time>2026-04-25T13:18:56.937Z</time></trkpt><trkpt lat="43.8581" lon="12.6699967"><ele>376.0</ele><time>2026-04-25T13:18:57.937Z</time></trkpt><trkpt lat="43.8581783" lon="12.669925"><ele>376.0</ele><time>2026-04-25T13:18:58.937Z</time></trkpt><trkpt lat="43.858265" lon="12.6698633"><ele>376.0</ele><time>2026-04-25T13:18:59.937Z</time></trkpt><trkpt lat="43.8583567" lon="12.669805"><ele>376.0</ele><time>2026-04-25T13:19:00.937Z</time></trkpt><trkpt lat="43.8584533" lon="12.6697517"><ele>376.0</ele><time>2026-04-25T13:19:01.937Z</time></trkpt><trkpt lat="43.8585517" lon="12.6696817"><ele>370.25</ele><time>2026-04-25T13:19:02.937Z</time></trkpt><trkpt lat="43.8586517" lon="12.66961"><ele>364.5</ele><time>2026-04-25T13:19:03.937Z</time></trkpt><trkpt lat="43.85874" lon="12.6695133"><ele>358.75</ele><time>2026-04-25T13:19:04.937Z</time></trkpt><trkpt lat="43.8588" lon="12.6693817"><ele>353.0</ele><time>2026-04-25T13:19:05.937Z</time></trkpt><trkpt lat="43.8588233" lon="12.6692267"><ele>353.0</ele><time>2026-04-25T13:19:06.937Z</time></trkpt><trkpt lat="43.8588083" lon="12.6690633"><ele>353.0</ele><time>2026-04-25T13:19:07.937Z</time></trkpt><trkpt lat="43.8587717" lon="12.668905"><ele>353.0</ele><time>2026-04-25T13:19:08.937Z</time></trkpt><trkpt lat="43.85872" lon="12.6687533"><ele>353.0</ele><time>2026-04-25T13:19:09.937Z</time></trkpt><trkpt lat="43.8586567" lon="12.668605"><ele>351.75</ele><time>2026-04-25T13:19:10.937Z</time></trkpt><trkpt lat="43.858585" lon="12.6684617"><ele>350.5</ele><time>2026-04-25T13:19:11.937Z</time></trkpt><trkpt lat="43.8585167" lon="12.6683217"><ele>349.25</ele><time>2026-04-25T13:19:12.937Z</time></trkpt><trkpt lat="43.8584567" lon="12.6681767"><ele>348.0</ele><time>2026-04-25T13:19:13.937Z</time></trkpt><trkpt lat="43.8584117" lon="12.6680283"><ele>347.0</ele><time>2026-04-25T13:19:14.937Z</time></trkpt><trkpt lat="43.858395" lon="12.66787"><ele>346.0</ele><time>2026-04-25T13:19:15.937Z</time></trkpt><trkpt lat="43.8584067" lon="12.6677083"><ele>345.0</ele><time>2026-04-25T13:19:16.937Z</time></trkpt><trkpt lat="43.8584533" lon="12.6675483"><ele>344.0</ele><time>2026-04-25T13:19:17.937Z</time></trkpt><trkpt lat="43.858525" lon="12.6673883"><ele>344.0</ele><time>2026-04-25T13:19:18.937Z</time></trkpt><trkpt lat="43.8585933" lon="12.667225"><ele>344.0</ele><time>2026-04-25T13:19:19.937Z</time></trkpt><trkpt lat="43.85866" lon="12.6670567"><ele>344.0</ele><time>2026-04-25T13:19:20.937Z</time></trkpt><trkpt lat="43.8587333" lon="12.666885"><ele>344.0</ele><time>2026-04-25T13:19:21.937Z</time></trkpt><trkpt lat="43.8588067" lon="12.6667117"><ele>346.5</ele><time>2026-04-25T13:19:22.936Z</time></trkpt><trkpt lat="43.8588933" lon="12.66655"><ele>349.0</ele><time>2026-04-25T13:19:23.937Z</time></trkpt><trkpt lat="43.85899" lon="12.66641"><ele>351.5</ele><time>2026-04-25T13:19:24.937Z</time></trkpt><trkpt lat="43.8591" lon="12.666305"><ele>354.0</ele><time>2026-04-25T13:19:25.937Z</time></trkpt><trkpt lat="43.8592217" lon="12.666245"><ele>351.25</ele><time>2026-04-25T13:19:26.937Z</time></trkpt><trkpt lat="43.8593567" lon="12.66622"><ele>348.5</ele><time>2026-04-25T13:19:27.937Z</time></trkpt><trkpt lat="43.8595017" lon="12.6662167"><ele>345.75</ele><time>2026-04-25T13:19:28.937Z</time></trkpt><trkpt lat="43.8596483" lon="12.66623"><ele>343.0</ele><time>2026-04-25T13:19:29.937Z</time></trkpt><trkpt lat="43.8598" lon="12.666255"><ele>343.0</ele><time>2026-04-25T13:19:30.937Z</time></trkpt><trkpt lat="43.8599517" lon="12.6662883"><ele>343.0</ele><time>2026-04-25T13:19:31.937Z</time></trkpt><trkpt lat="43.8601017" lon="12.66632"><ele>343.0</ele><time>2026-04-25T13:19:32.936Z</time></trkpt><trkpt lat="43.86025" lon="12.66635"><ele>341.75</ele><time>2026-04-25T13:19:33.936Z</time></trkpt><trkpt lat="43.8603983" lon="12.6663733"><ele>340.5</ele><time>2026-04-25T13:19:34.937Z</time></trkpt><trkpt lat="43.8605467" lon="12.666385"><ele>339.25</ele><time>2026-04-25T13:19:35.937Z</time></trkpt><trkpt lat="43.8606967" lon="12.6663933"><ele>338.0</ele><time>2026-04-25T13:19:36.936Z</time></trkpt><trkpt lat="43.86085" lon="12.6664033"><ele>337.0</ele><time>2026-04-25T13:19:37.936Z</time></trkpt><trkpt lat="43.8610017" lon="12.666415"><ele>336.0</ele><time>2026-04-25T13:19:38.937Z</time></trkpt><trkpt lat="43.86115" lon="12.666425"><ele>335.0</ele><time>2026-04-25T13:19:39.937Z</time></trkpt><trkpt lat="43.861295" lon="12.6664467"><ele>334.0</ele><time>2026-04-25T13:19:40.937Z</time></trkpt><trkpt lat="43.8614383" lon="12.666475"><ele>334.0</ele><time>2026-04-25T13:19:41.937Z</time></trkpt><trkpt lat="43.8615783" lon="12.6665133"><ele>334.0</ele><time>2026-04-25T13:19:42.937Z</time></trkpt><trkpt lat="43.8617083" lon="12.6665583"><ele>334.0</ele><time>2026-04-25T13:19:43.937Z</time></trkpt><trkpt lat="43.86183" lon="12.6665817"><ele>334.0</ele><time>2026-04-25T13:19:44.937Z</time></trkpt><trkpt lat="43.8619433" lon="12.666595"><ele>333.79999999999995</ele><time>2026-04-25T13:19:45.937Z</time></trkpt><trkpt lat="43.86205" lon="12.6666183"><ele>333.59999999999997</ele><time>2026-04-25T13:19:46.937Z</time></trkpt><trkpt lat="43.862155" lon="12.6666467"><ele>333.4</ele><time>2026-04-25T13:19:47.937Z</time></trkpt><trkpt lat="43.8622567" lon="12.66667"><ele>333.2</ele><time>2026-04-25T13:19:48.937Z</time></trkpt><trkpt lat="43.8623567" lon="12.6666883"><ele>333.0</ele><time>2026-04-25T13:19:49.937Z</time></trkpt><trkpt lat="43.8624533" lon="12.6667033"><ele>333.0</ele><time>2026-04-25T13:19:50.937Z</time></trkpt><trkpt lat="43.8625517" lon="12.666715"><ele>333.0</ele><time>2026-04-25T13:19:51.936Z</time></trkpt><trkpt lat="43.8626483" lon="12.6667317"><ele>333.0</ele><time>2026-04-25T13:19:52.937Z</time></trkpt><trkpt lat="43.8627467" lon="12.666755"><ele>333.0</ele><time>2026-04-25T13:19:53.937Z</time></trkpt><trkpt lat="43.8628467" lon="12.666765"><ele>333.0</ele><time>2026-04-25T13:19:54.937Z</time></trkpt><trkpt lat="43.8629483" lon="12.666775"><ele>332.79999999999995</ele><time>2026-04-25T13:19:55.936Z</time></trkpt><trkpt lat="43.8630483" lon="12.6667917"><ele>332.6</ele><time>2026-04-25T13:19:56.937Z</time></trkpt><trkpt lat="43.86315" lon="12.6668"><ele>332.4</ele><time>2026-04-25T13:19:57.936Z</time></trkpt><trkpt lat="43.8632533" lon="12.666805"><ele>332.20000000000005</ele><time>2026-04-25T13:19:58.937Z</time></trkpt><trkpt lat="43.8633567" lon="12.66682"><ele>332.0</ele><time>2026-04-25T13:19:59.937Z</time></trkpt><trkpt lat="43.86346" lon="12.6668267"><ele>330.6</ele><time>2026-04-25T13:20:00.936Z</time></trkpt><trkpt lat="43.8635633" lon="12.666835"><ele>329.20000000000005</ele><time>2026-04-25T13:20:01.937Z</time></trkpt><trkpt lat="43.8636683" lon="12.666855"><ele>327.8</ele><time>2026-04-25T13:20:02.937Z</time></trkpt><trkpt lat="43.863775" lon="12.666875"><ele>326.4</ele><time>2026-04-25T13:20:03.937Z</time></trkpt><trkpt lat="43.8638817" lon="12.666895"><ele>325.0</ele><time>2026-04-25T13:20:04.937Z</time></trkpt><trkpt lat="43.8639917" lon="12.6669167"><ele>325.0</ele><time>2026-04-25T13:20:05.936Z</time></trkpt><trkpt lat="43.8641017" lon="12.6669183"><ele>325.0</ele><time>2026-04-25T13:20:06.937Z</time></trkpt><trkpt lat="43.8642117" lon="12.6669017"><ele>325.0</ele><time>2026-04-25T13:20:07.936Z</time></trkpt><trkpt lat="43.864325" lon="12.6668683"><ele>325.0</ele><time>2026-04-25T13:20:08.937Z</time></trkpt><trkpt lat="43.86444" lon="12.66683"><ele>323.0</ele><time>2026-04-25T13:20:09.937Z</time></trkpt><trkpt lat="43.8645583" lon="12.6667867"><ele>321.0</ele><time>2026-04-25T13:20:10.937Z</time></trkpt><trkpt lat="43.86468" lon="12.6667567"><ele>319.0</ele><time>2026-04-25T13:20:11.937Z</time></trkpt><trkpt lat="43.8648033" lon="12.6667233"><ele>317.0</ele><time>2026-04-25T13:20:12.937Z</time></trkpt><trkpt lat="43.8649267" lon="12.6666933"><ele>317.0</ele><time>2026-04-25T13:20:13.936Z</time></trkpt><trkpt lat="43.86505" lon="12.6666567"><ele>317.0</ele><time>2026-04-25T13:20:14.936Z</time></trkpt><trkpt lat="43.86517" lon="12.6666167"><ele>317.0</ele><time>2026-04-25T13:20:15.937Z</time></trkpt><trkpt lat="43.86529" lon="12.6665783"><ele>317.0</ele><time>2026-04-25T13:20:16.937Z</time></trkpt><trkpt lat="43.8654033" lon="12.6665283"><ele>314.25</ele><time>2026-04-25T13:20:17.937Z</time></trkpt><trkpt lat="43.86552" lon="12.6664883"><ele>311.5</ele><time>2026-04-25T13:20:18.937Z</time></trkpt><trkpt lat="43.865635" lon="12.6664517"><ele>308.75</ele><time>2026-04-25T13:20:19.937Z</time></trkpt><trkpt lat="43.86575" lon="12.666415"><ele>306.0</ele><time>2026-04-25T13:20:20.936Z</time></trkpt><trkpt lat="43.8658683" lon="12.666375"><ele>304.0</ele><time>2026-04-25T13:20:21.937Z</time></trkpt><trkpt lat="43.86599" lon="12.6663317"><ele>302.0</ele><time>2026-04-25T13:20:22.937Z</time></trkpt><trkpt lat="43.8661083" lon="12.6662767"><ele>300.0</ele><time>2026-04-25T13:20:23.937Z</time></trkpt><trkpt lat="43.86623" lon="12.6662183"><ele>298.0</ele><time>2026-04-25T13:20:24.937Z</time></trkpt><trkpt lat="43.8663517" lon="12.6661617"><ele>300.75</ele><time>2026-04-25T13:20:25.937Z</time></trkpt><trkpt lat="43.8664683" lon="12.6660917"><ele>303.5</ele><time>2026-04-25T13:20:26.936Z</time></trkpt><trkpt lat="43.866585" lon="12.6660217"><ele>306.25</ele><time>2026-04-25T13:20:27.936Z</time></trkpt><trkpt lat="43.8667017" lon="12.6659483"><ele>309.0</ele><time>2026-04-25T13:20:28.937Z</time></trkpt><trkpt lat="43.866815" lon="12.665885"><ele>310.75</ele><time>2026-04-25T13:20:29.936Z</time></trkpt><trkpt lat="43.8669267" lon="12.6658283"><ele>312.5</ele><time>2026-04-25T13:20:30.937Z</time></trkpt><trkpt lat="43.867035" lon="12.6657717"><ele>314.25</ele><time>2026-04-25T13:20:31.936Z</time></trkpt><trkpt lat="43.867145" lon="12.6657217"><ele>316.0</ele><time>2026-04-25T13:20:32.937Z</time></trkpt><trkpt lat="43.867255" lon="12.6656683"><ele>316.0</ele><time>2026-04-25T13:20:33.937Z</time></trkpt><trkpt lat="43.8673617" lon="12.6656067"><ele>316.0</ele><time>2026-04-25T13:20:34.937Z</time></trkpt><trkpt lat="43.8674717" lon="12.6655383"><ele>316.0</ele><time>2026-04-25T13:20:35.937Z</time></trkpt><trkpt lat="43.8675683" lon="12.6654533"><ele>316.0</ele><time>2026-04-25T13:20:36.937Z</time></trkpt><trkpt lat="43.8676483" lon="12.6653417"><ele>318.0</ele><time>2026-04-25T13:20:37.937Z</time></trkpt><trkpt lat="43.86771" lon="12.6652133"><ele>320.0</ele><time>2026-04-25T13:20:38.937Z</time></trkpt><trkpt lat="43.86776" lon="12.6650817"><ele>322.0</ele><time>2026-04-25T13:20:39.938Z</time></trkpt><trkpt lat="43.8678017" lon="12.6649567"><ele>324.0</ele><time>2026-04-25T13:20:40.937Z</time></trkpt><trkpt lat="43.8678433" lon="12.664845"><ele>326.0</ele><time>2026-04-25T13:20:41.938Z</time></trkpt><trkpt lat="43.8678883" lon="12.6647517"><ele>326.0</ele><time>2026-04-25T13:20:42.938Z</time></trkpt><trkpt lat="43.8679367" lon="12.66467"><ele>326.0</ele><time>2026-04-25T13:20:43.938Z</time></trkpt><trkpt lat="43.8680067" lon="12.664625"><ele>326.0</ele><time>2026-04-25T13:20:44.938Z</time></trkpt><trkpt lat="43.8680817" lon="12.664605"><ele>326.0</ele><time>2026-04-25T13:20:45.938Z</time></trkpt><trkpt lat="43.8681617" lon="12.6646083"><ele>326.0</ele><time>2026-04-25T13:20:46.938Z</time></trkpt><trkpt lat="43.8682467" lon="12.6646467"><ele>326.0</ele><time>2026-04-25T13:20:47.937Z</time></trkpt><trkpt lat="43.868325" lon="12.6647"><ele>326.0</ele><time>2026-04-25T13:20:48.938Z</time></trkpt><trkpt lat="43.8684" lon="12.6647617"><ele>326.0</ele><time>2026-04-25T13:20:49.937Z</time></trkpt><trkpt lat="43.8684767" lon="12.6648367"><ele>326.0</ele><time>2026-04-25T13:20:50.938Z</time></trkpt><trkpt lat="43.86855" lon="12.6649167"><ele>326.0</ele><time>2026-04-25T13:20:51.938Z</time></trkpt><trkpt lat="43.8686233" lon="12.6649983"><ele>326.0</ele><time>2026-04-25T13:20:52.937Z</time></trkpt><trkpt lat="43.868695" lon="12.6650817"><ele>324.8</ele><time>2026-04-25T13:20:53.938Z</time></trkpt><trkpt lat="43.8687667" lon="12.6651583"><ele>323.6</ele><time>2026-04-25T13:20:54.938Z</time></trkpt><trkpt lat="43.86884" lon="12.6652333"><ele>322.4</ele><time>2026-04-25T13:20:55.938Z</time></trkpt><trkpt lat="43.868915" lon="12.6653083"><ele>321.2</ele><time>2026-04-25T13:20:56.938Z</time></trkpt><trkpt lat="43.8689867" lon="12.665385"><ele>320.0</ele><time>2026-04-25T13:20:57.938Z</time></trkpt><trkpt lat="43.8690633" lon="12.6654617"><ele>322.8</ele><time>2026-04-25T13:20:58.938Z</time></trkpt><trkpt lat="43.8691367" lon="12.6655383"><ele>325.6</ele><time>2026-04-25T13:20:59.938Z</time></trkpt><trkpt lat="43.8692117" lon="12.6656183"><ele>328.4</ele><time>2026-04-25T13:21:00.937Z</time></trkpt><trkpt lat="43.8692883" lon="12.6656967"><ele>331.2</ele><time>2026-04-25T13:21:01.938Z</time></trkpt><trkpt lat="43.86936" lon="12.6657783"><ele>334.0</ele><time>2026-04-25T13:21:02.938Z</time></trkpt><trkpt lat="43.8694267" lon="12.6658617"><ele>334.0</ele><time>2026-04-25T13:21:03.937Z</time></trkpt><trkpt lat="43.8694883" lon="12.6659483"><ele>334.0</ele><time>2026-04-25T13:21:04.938Z</time></trkpt><trkpt lat="43.8695483" lon="12.66604"><ele>334.0</ele><time>2026-04-25T13:21:05.938Z</time></trkpt><trkpt lat="43.8695933" lon="12.6661533"><ele>334.0</ele><time>2026-04-25T13:21:06.938Z</time></trkpt><trkpt lat="43.869645" lon="12.6662567"><ele>334.0</ele><time>2026-04-25T13:21:07.938Z</time></trkpt><trkpt lat="43.86969" lon="12.6663567"><ele>334.0</ele><time>2026-04-25T13:21:08.937Z</time></trkpt><trkpt lat="43.8697267" lon="12.666445"><ele>335.0</ele><time>2026-04-25T13:21:09.938Z</time></trkpt><trkpt lat="43.8697567" lon="12.6665233"><ele>336.0</ele><time>2026-04-25T13:21:10.938Z</time></trkpt><trkpt lat="43.8698033" lon="12.6666467"><ele>337.0</ele><time>2026-04-25T13:21:12.938Z</time></trkpt><trkpt lat="43.8698383" lon="12.6667217"><ele>338.0</ele><time>2026-04-25T13:21:14.937Z</time></trkpt><trkpt lat="43.8698733" lon="12.66683"><ele>339.0</ele><time>2026-04-25T13:21:16.938Z</time></trkpt><trkpt lat="43.8699333" lon="12.6669767"><ele>340.0</ele><time>2026-04-25T13:21:18.938Z</time></trkpt><trkpt lat="43.869975" lon="12.6670667"><ele>340.0</ele><time>2026-04-25T13:21:19.938Z</time></trkpt><trkpt lat="43.8700133" lon="12.6671633"><ele>340.0</ele><time>2026-04-25T13:21:20.938Z</time></trkpt><trkpt lat="43.87005" lon="12.6672633"><ele>340.0</ele><time>2026-04-25T13:21:21.938Z</time></trkpt><trkpt lat="43.8700883" lon="12.6673667"><ele>340.0</ele><time>2026-04-25T13:21:22.937Z</time></trkpt><trkpt lat="43.87013" lon="12.66747"><ele>340.0</ele><time>2026-04-25T13:21:23.937Z</time></trkpt><trkpt lat="43.8701767" lon="12.66758"><ele>340.0</ele><time>2026-04-25T13:21:24.938Z</time></trkpt><trkpt lat="43.8702117" lon="12.6677"><ele>342.6</ele><time>2026-04-25T13:21:25.938Z</time></trkpt><trkpt lat="43.8702483" lon="12.667825"><ele>345.2</ele><time>2026-04-25T13:21:26.937Z</time></trkpt><trkpt lat="43.8702883" lon="12.6679517"><ele>347.79999999999995</ele><time>2026-04-25T13:21:27.938Z</time></trkpt><trkpt lat="43.87032" lon="12.6680867"><ele>350.4</ele><time>2026-04-25T13:21:28.938Z</time></trkpt><trkpt lat="43.8703483" lon="12.6682233"><ele>353.0</ele><time>2026-04-25T13:21:29.937Z</time></trkpt><trkpt lat="43.8703717" lon="12.6683617"><ele>353.0</ele><time>2026-04-25T13:21:30.938Z</time></trkpt><trkpt lat="43.8703867" lon="12.6685033"><ele>353.0</ele><time>2026-04-25T13:21:31.938Z</time></trkpt><trkpt lat="43.8703917" lon="12.668645"><ele>353.0</ele><time>2026-04-25T13:21:32.938Z</time></trkpt><trkpt lat="43.8704033" lon="12.6687833"><ele>353.0</ele><time>2026-04-25T13:21:33.938Z</time></trkpt><trkpt lat="43.8704183" lon="12.6689183"><ele>353.0</ele><time>2026-04-25T13:21:34.937Z</time></trkpt><trkpt lat="43.8704417" lon="12.6690517"><ele>350.5</ele><time>2026-04-25T13:21:35.938Z</time></trkpt><trkpt lat="43.8704833" lon="12.6691683"><ele>348.0</ele><time>2026-04-25T13:21:36.938Z</time></trkpt><trkpt lat="43.870545" lon="12.669255"><ele>345.5</ele><time>2026-04-25T13:21:37.938Z</time></trkpt><trkpt lat="43.8706167" lon="12.6693017"><ele>343.0</ele><time>2026-04-25T13:21:38.938Z</time></trkpt><trkpt lat="43.8706917" lon="12.6693233"><ele>340.5</ele><time>2026-04-25T13:21:39.938Z</time></trkpt><trkpt lat="43.8707767" lon="12.6692833"><ele>338.0</ele><time>2026-04-25T13:21:40.937Z</time></trkpt><trkpt lat="43.870855" lon="12.669225"><ele>338.0</ele><time>2026-04-25T13:21:41.937Z</time></trkpt><trkpt lat="43.8709283" lon="12.6691567"><ele>338.0</ele><time>2026-04-25T13:21:42.937Z</time></trkpt><trkpt lat="43.8710017" lon="12.66908"><ele>338.0</ele><time>2026-04-25T13:21:43.937Z</time></trkpt><trkpt lat="43.87108" lon="12.6690133"><ele>338.0</ele><time>2026-04-25T13:21:44.937Z</time></trkpt><trkpt lat="43.8711633" lon="12.6689567"><ele>338.0</ele><time>2026-04-25T13:21:45.937Z</time></trkpt><trkpt lat="43.8712533" lon="12.668915"><ele>337.2</ele><time>2026-04-25T13:21:46.936Z</time></trkpt><trkpt lat="43.8713483" lon="12.6688917"><ele>336.4</ele><time>2026-04-25T13:21:47.936Z</time></trkpt><trkpt lat="43.87145" lon="12.6688833"><ele>335.59999999999997</ele><time>2026-04-25T13:21:48.937Z</time></trkpt><trkpt lat="43.8715517" lon="12.668895"><ele>334.79999999999995</ele><time>2026-04-25T13:21:49.936Z</time></trkpt><trkpt lat="43.8716483" lon="12.668915"><ele>334.0</ele><time>2026-04-25T13:21:50.937Z</time></trkpt><trkpt lat="43.8717383" lon="12.6689367"><ele>336.0</ele><time>2026-04-25T13:21:51.937Z</time></trkpt><trkpt lat="43.8718267" lon="12.6689467"><ele>338.0</ele><time>2026-04-25T13:21:52.937Z</time></trkpt><trkpt lat="43.8719167" lon="12.6689583"><ele>340.0</ele><time>2026-04-25T13:21:53.937Z</time></trkpt><trkpt lat="43.872005" lon="12.66898"><ele>342.0</ele><time>2026-04-25T13:21:54.936Z</time></trkpt><trkpt lat="43.87209" lon="12.6690133"><ele>344.0</ele><time>2026-04-25T13:21:55.937Z</time></trkpt><trkpt lat="43.872165" lon="12.6690667"><ele>346.0</ele><time>2026-04-25T13:21:56.936Z</time></trkpt><trkpt lat="43.8722367" lon="12.6691367"><ele>346.0</ele><time>2026-04-25T13:21:57.937Z</time></trkpt><trkpt lat="43.8723" lon="12.6692183"><ele>346.0</ele><time>2026-04-25T13:21:58.937Z</time></trkpt><trkpt lat="43.872345" lon="12.6693133"><ele>346.0</ele><time>2026-04-25T13:21:59.936Z</time></trkpt><trkpt lat="43.872375" lon="12.6694217"><ele>346.0</ele><time>2026-04-25T13:22:00.937Z</time></trkpt><trkpt lat="43.872415" lon="12.669525"><ele>346.0</ele><time>2026-04-25T13:22:01.937Z</time></trkpt><trkpt lat="43.8724583" lon="12.6696233"><ele>346.0</ele><time>2026-04-25T13:22:02.937Z</time></trkpt><trkpt lat="43.8725167" lon="12.6697117"><ele>343.6</ele><time>2026-04-25T13:22:03.937Z</time></trkpt><trkpt lat="43.872585" lon="12.6697933"><ele>341.20000000000005</ele><time>2026-04-25T13:22:04.937Z</time></trkpt><trkpt lat="43.8726667" lon="12.6698617"><ele>338.79999999999995</ele><time>2026-04-25T13:22:05.937Z</time></trkpt><trkpt lat="43.8727467" lon="12.6699267"><ele>336.4</ele><time>2026-04-25T13:22:06.936Z</time></trkpt><trkpt lat="43.8728333" lon="12.6699833"><ele>334.0</ele><time>2026-04-25T13:22:07.937Z</time></trkpt><trkpt lat="43.8729233" lon="12.67003"><ele>334.0</ele><time>2026-04-25T13:22:08.937Z</time></trkpt><trkpt lat="43.8730167" lon="12.670055"><ele>334.0</ele><time>2026-04-25T13:22:09.936Z</time></trkpt><trkpt lat="43.87311" lon="12.6700617"><ele>334.0</ele><time>2026-04-25T13:22:10.937Z</time></trkpt><trkpt lat="43.8732" lon="12.6700467"><ele>334.0</ele><time>2026-04-25T13:22:11.936Z</time></trkpt><trkpt lat="43.8732817" lon="12.669995"><ele>334.0</ele><time>2026-04-25T13:22:12.937Z</time></trkpt><trkpt lat="43.8733533" lon="12.66991"><ele>334.0</ele><time>2026-04-25T13:22:13.937Z</time></trkpt><trkpt lat="43.8734217" lon="12.6698083"><ele>334.0</ele><time>2026-04-25T13:22:14.937Z</time></trkpt><trkpt lat="43.87349" lon="12.6697"><ele>334.0</ele><time>2026-04-25T13:22:15.937Z</time></trkpt><trkpt lat="43.8735633" lon="12.66959"><ele>334.0</ele><time>2026-04-25T13:22:16.937Z</time></trkpt><trkpt lat="43.87364" lon="12.6694783"><ele>334.0</ele><time>2026-04-25T13:22:17.937Z</time></trkpt><trkpt lat="43.87371" lon="12.6693617"><ele>332.6</ele><time>2026-04-25T13:22:18.937Z</time></trkpt><trkpt lat="43.8737867" lon="12.6692517"><ele>331.2</ele><time>2026-04-25T13:22:19.937Z</time></trkpt><trkpt lat="43.8738667" lon="12.6691433"><ele>329.8</ele><time>2026-04-25T13:22:20.937Z</time></trkpt><trkpt lat="43.873945" lon="12.6690383"><ele>328.40000000000003</ele><time>2026-04-25T13:22:21.937Z</time></trkpt><trkpt lat="43.8740167" lon="12.66893"><ele>327.0</ele><time>2026-04-25T13:22:22.937Z</time></trkpt><trkpt lat="43.8740867" lon="12.6688267"><ele>327.0</ele><time>2026-04-25T13:22:23.936Z</time></trkpt><trkpt lat="43.8741583" lon="12.6687267"><ele>327.0</ele><time>2026-04-25T13:22:24.937Z</time></trkpt><trkpt lat="43.8742217" lon="12.66863"><ele>327.0</ele><time>2026-04-25T13:22:25.936Z</time></trkpt><trkpt lat="43.8742717" lon="12.6685367"><ele>327.0</ele><time>2026-04-25T13:22:26.937Z</time></trkpt><trkpt lat="43.8743283" lon="12.66848"><ele>327.0</ele><time>2026-04-25T13:22:27.936Z</time></trkpt><trkpt lat="43.8743917" lon="12.6684867"><ele>327.0</ele><time>2026-04-25T13:22:28.937Z</time></trkpt><trkpt lat="43.8744517" lon="12.66853"><ele>324.20000000000005</ele><time>2026-04-25T13:22:29.936Z</time></trkpt><trkpt lat="43.87451" lon="12.6686883"><ele>321.40000000000003</ele><time>2026-04-25T13:22:31.937Z</time></trkpt><trkpt lat="43.8744983" lon="12.6688083"><ele>318.6</ele><time>2026-04-25T13:22:32.937Z</time></trkpt><trkpt lat="43.87449" lon="12.6689383"><ele>315.8</ele><time>2026-04-25T13:22:33.937Z</time></trkpt><trkpt lat="43.8744817" lon="12.6690717"><ele>313.0</ele><time>2026-04-25T13:22:34.937Z</time></trkpt><trkpt lat="43.8744733" lon="12.6692083"><ele>313.0</ele><time>2026-04-25T13:22:35.937Z</time></trkpt><trkpt lat="43.8744683" lon="12.669355"><ele>313.0</ele><time>2026-04-25T13:22:36.937Z</time></trkpt><trkpt lat="43.8744617" lon="12.6695033"><ele>313.0</ele><time>2026-04-25T13:22:37.937Z</time></trkpt><trkpt lat="43.8744517" lon="12.6696517"><ele>313.0</ele><time>2026-04-25T13:22:38.937Z</time></trkpt><trkpt lat="43.8744367" lon="12.6698033"><ele>313.0</ele><time>2026-04-25T13:22:39.937Z</time></trkpt><trkpt lat="43.87441" lon="12.6699533"><ele>313.0</ele><time>2026-04-25T13:22:40.936Z</time></trkpt><trkpt lat="43.8743717" lon="12.6700983"><ele>313.0</ele><time>2026-04-25T13:22:41.937Z</time></trkpt><trkpt lat="43.87432" lon="12.67024"><ele>313.0</ele><time>2026-04-25T13:22:42.936Z</time></trkpt><trkpt lat="43.8742617" lon="12.67038"><ele>313.0</ele><time>2026-04-25T13:22:43.937Z</time></trkpt><trkpt lat="43.8742033" lon="12.67052"><ele>313.0</ele><time>2026-04-25T13:22:44.936Z</time></trkpt><trkpt lat="43.874145" lon="12.6706583"><ele>313.0</ele><time>2026-04-25T13:22:45.937Z</time></trkpt><trkpt lat="43.874085" lon="12.6708017"><ele>313.0</ele><time>2026-04-25T13:22:46.937Z</time></trkpt><trkpt lat="43.8740267" lon="12.6709483"><ele>313.0</ele><time>2026-04-25T13:22:47.936Z</time></trkpt><trkpt lat="43.8739633" lon="12.671095"><ele>309.75</ele><time>2026-04-25T13:22:48.936Z</time></trkpt><trkpt lat="43.8738983" lon="12.6712433"><ele>306.5</ele><time>2026-04-25T13:22:49.936Z</time></trkpt><trkpt lat="43.873835" lon="12.6713967"><ele>303.25</ele><time>2026-04-25T13:22:50.937Z</time></trkpt><trkpt lat="43.8737733" lon="12.6715533"><ele>300.0</ele><time>2026-04-25T13:22:51.936Z</time></trkpt><trkpt lat="43.8737167" lon="12.6717167"><ele>300.0</ele><time>2026-04-25T13:22:52.936Z</time></trkpt><trkpt lat="43.8736633" lon="12.67188"><ele>300.0</ele><time>2026-04-25T13:22:53.937Z</time></trkpt><trkpt lat="43.8736117" lon="12.672045"><ele>300.0</ele><time>2026-04-25T13:22:54.937Z</time></trkpt><trkpt lat="43.8735583" lon="12.6722133"><ele>300.0</ele><time>2026-04-25T13:22:55.937Z</time></trkpt><trkpt lat="43.8735033" lon="12.6723783"><ele>301.0</ele><time>2026-04-25T13:22:56.937Z</time></trkpt><trkpt lat="43.8734533" lon="12.6725483"><ele>302.0</ele><time>2026-04-25T13:22:57.936Z</time></trkpt><trkpt lat="43.873405" lon="12.6727183"><ele>303.0</ele><time>2026-04-25T13:22:58.937Z</time></trkpt><trkpt lat="43.8733583" lon="12.672885"><ele>304.0</ele><time>2026-04-25T13:22:59.937Z</time></trkpt><trkpt lat="43.8733117" lon="12.6730483"><ele>304.0</ele><time>2026-04-25T13:23:00.937Z</time></trkpt><trkpt lat="43.8732567" lon="12.6732083"><ele>304.0</ele><time>2026-04-25T13:23:01.937Z</time></trkpt><trkpt lat="43.8732067" lon="12.6733683"><ele>304.0</ele><time>2026-04-25T13:23:02.937Z</time></trkpt><trkpt lat="43.8731633" lon="12.6735333"><ele>304.0</ele><time>2026-04-25T13:23:03.937Z</time></trkpt><trkpt lat="43.87312" lon="12.6737"><ele>304.0</ele><time>2026-04-25T13:23:04.937Z</time></trkpt><trkpt lat="43.8730933" lon="12.6738767"><ele>304.0</ele><time>2026-04-25T13:23:05.937Z</time></trkpt><trkpt lat="43.8730817" lon="12.67406"><ele>304.0</ele><time>2026-04-25T13:23:06.937Z</time></trkpt><trkpt lat="43.8730783" lon="12.6742433"><ele>304.0</ele><time>2026-04-25T13:23:07.937Z</time></trkpt><trkpt lat="43.873095" lon="12.6744267"><ele>302.25</ele><time>2026-04-25T13:23:08.937Z</time></trkpt><trkpt lat="43.873125" lon="12.6746083"><ele>300.5</ele><time>2026-04-25T13:23:09.937Z</time></trkpt><trkpt lat="43.8731633" lon="12.6747817"><ele>298.75</ele><time>2026-04-25T13:23:10.937Z</time></trkpt><trkpt lat="43.8732183" lon="12.6749483"><ele>297.0</ele><time>2026-04-25T13:23:11.937Z</time></trkpt><trkpt lat="43.8732717" lon="12.67511"><ele>296.75</ele><time>2026-04-25T13:23:12.937Z</time></trkpt><trkpt lat="43.8733233" lon="12.6752717"><ele>296.5</ele><time>2026-04-25T13:23:13.936Z</time></trkpt><trkpt lat="43.8733667" lon="12.6754383"><ele>296.25</ele><time>2026-04-25T13:23:14.937Z</time></trkpt><trkpt lat="43.87342" lon="12.6756017"><ele>296.0</ele><time>2026-04-25T13:23:15.937Z</time></trkpt><trkpt lat="43.87347" lon="12.67577"><ele>296.0</ele><time>2026-04-25T13:23:16.936Z</time></trkpt><trkpt lat="43.8735233" lon="12.6759417"><ele>296.0</ele><time>2026-04-25T13:23:17.937Z</time></trkpt><trkpt lat="43.8735833" lon="12.6761083"><ele>296.0</ele><time>2026-04-25T13:23:18.937Z</time></trkpt><trkpt lat="43.873635" lon="12.6762717"><ele>296.0</ele><time>2026-04-25T13:23:19.937Z</time></trkpt><trkpt lat="43.8736883" lon="12.6764267"><ele>292.75</ele><time>2026-04-25T13:23:20.936Z</time></trkpt><trkpt lat="43.8737617" lon="12.6765583"><ele>289.5</ele><time>2026-04-25T13:23:21.936Z</time></trkpt><trkpt lat="43.8738517" lon="12.6766583"><ele>286.25</ele><time>2026-04-25T13:23:22.936Z</time></trkpt><trkpt lat="43.8739483" lon="12.676725"><ele>283.0</ele><time>2026-04-25T13:23:23.936Z</time></trkpt><trkpt lat="43.87406" lon="12.6767483"><ele>283.0</ele><time>2026-04-25T13:23:24.937Z</time></trkpt><trkpt lat="43.8741767" lon="12.6767433"><ele>283.0</ele><time>2026-04-25T13:23:25.937Z</time></trkpt><trkpt lat="43.874295" lon="12.6766883"><ele>283.0</ele><time>2026-04-25T13:23:26.937Z</time></trkpt><trkpt lat="43.8744183" lon="12.676615"><ele>283.0</ele><time>2026-04-25T13:23:27.936Z</time></trkpt><trkpt lat="43.874535" lon="12.67654"><ele>280.0</ele><time>2026-04-25T13:23:28.937Z</time></trkpt><trkpt lat="43.874655" lon="12.676465"><ele>277.0</ele><time>2026-04-25T13:23:29.937Z</time></trkpt><trkpt lat="43.874775" lon="12.6764"><ele>274.0</ele><time>2026-04-25T13:23:30.937Z</time></trkpt><trkpt lat="43.8748867" lon="12.6763333"><ele>271.0</ele><time>2026-04-25T13:23:31.936Z</time></trkpt><trkpt lat="43.8749933" lon="12.6762667"><ele>271.0</ele><time>2026-04-25T13:23:32.937Z</time></trkpt><trkpt lat="43.8750917" lon="12.6761817"><ele>271.0</ele><time>2026-04-25T13:23:33.937Z</time></trkpt><trkpt lat="43.87517" lon="12.67607"><ele>271.0</ele><time>2026-04-25T13:23:34.937Z</time></trkpt><trkpt lat="43.87524" lon="12.6759467"><ele>271.0</ele><time>2026-04-25T13:23:35.937Z</time></trkpt><trkpt lat="43.8753017" lon="12.67581"><ele>269.40000000000003</ele><time>2026-04-25T13:23:36.937Z</time></trkpt><trkpt lat="43.87536" lon="12.67567"><ele>267.8</ele><time>2026-04-25T13:23:37.937Z</time></trkpt><trkpt lat="43.875415" lon="12.67554"><ele>266.20000000000005</ele><time>2026-04-25T13:23:38.937Z</time></trkpt><trkpt lat="43.8754617" lon="12.675425"><ele>264.6</ele><time>2026-04-25T13:23:39.937Z</time></trkpt><trkpt lat="43.8755033" lon="12.6753367"><ele>263.0</ele><time>2026-04-25T13:23:40.936Z</time></trkpt><trkpt lat="43.8755783" lon="12.6753083"><ele>263.0</ele><time>2026-04-25T13:23:42.937Z</time></trkpt><trkpt lat="43.875585" lon="12.6754317"><ele>263.0</ele><time>2026-04-25T13:23:44.936Z</time></trkpt><trkpt lat="43.875575" lon="12.67552"><ele>263.0</ele><time>2026-04-25T13:23:45.937Z</time></trkpt><trkpt lat="43.87556" lon="12.67562"><ele>263.0</ele><time>2026-04-25T13:23:46.937Z</time></trkpt><trkpt lat="43.8755533" lon="12.6757317"><ele>263.0</ele><time>2026-04-25T13:23:47.937Z</time></trkpt><trkpt lat="43.87556" lon="12.6758517"><ele>263.0</ele><time>2026-04-25T13:23:48.936Z</time></trkpt><trkpt lat="43.87558" lon="12.6759783"><ele>260.5</ele><time>2026-04-25T13:23:49.937Z</time></trkpt><trkpt lat="43.8756133" lon="12.6761167"><ele>258.0</ele><time>2026-04-25T13:23:50.937Z</time></trkpt><trkpt lat="43.8756567" lon="12.67626"><ele>255.5</ele><time>2026-04-25T13:23:51.936Z</time></trkpt><trkpt lat="43.8757017" lon="12.6764117"><ele>253.0</ele><time>2026-04-25T13:23:52.936Z</time></trkpt><trkpt lat="43.8757483" lon="12.67657"><ele>253.0</ele><time>2026-04-25T13:23:53.937Z</time></trkpt><trkpt lat="43.875795" lon="12.6767317"><ele>253.0</ele><time>2026-04-25T13:23:54.936Z</time></trkpt><trkpt lat="43.87584" lon="12.67689"><ele>253.0</ele><time>2026-04-25T13:23:55.937Z</time></trkpt><trkpt lat="43.8758783" lon="12.6770467"><ele>253.0</ele><time>2026-04-25T13:23:56.937Z</time></trkpt><trkpt lat="43.8759183" lon="12.6771983"><ele>248.2</ele><time>2026-04-25T13:23:57.936Z</time></trkpt><trkpt lat="43.8759567" lon="12.67734"><ele>243.4</ele><time>2026-04-25T13:23:58.936Z</time></trkpt><trkpt lat="43.8759883" lon="12.6774717"><ele>238.59999999999997</ele><time>2026-04-25T13:23:59.937Z</time></trkpt><trkpt lat="43.876025" lon="12.6775917"><ele>233.79999999999998</ele><time>2026-04-25T13:24:00.937Z</time></trkpt><trkpt lat="43.876075" lon="12.6777"><ele>229.0</ele><time>2026-04-25T13:24:01.937Z</time></trkpt><trkpt lat="43.87614" lon="12.6778017"><ele>228.2</ele><time>2026-04-25T13:24:02.937Z</time></trkpt><trkpt lat="43.8762167" lon="12.6778933"><ele>227.39999999999998</ele><time>2026-04-25T13:24:03.937Z</time></trkpt><trkpt lat="43.8763017" lon="12.67797"><ele>226.6</ele><time>2026-04-25T13:24:04.936Z</time></trkpt><trkpt lat="43.8763967" lon="12.6780367"><ele>225.8</ele><time>2026-04-25T13:24:05.937Z</time></trkpt><trkpt lat="43.876505" lon="12.67808"><ele>225.0</ele><time>2026-04-25T13:24:06.937Z</time></trkpt><trkpt lat="43.876625" lon="12.6780983"><ele>225.0</ele><time>2026-04-25T13:24:07.937Z</time></trkpt><trkpt lat="43.8767433" lon="12.6781167"><ele>225.0</ele><time>2026-04-25T13:24:08.937Z</time></trkpt><trkpt lat="43.8768583" lon="12.6781367"><ele>225.0</ele><time>2026-04-25T13:24:09.937Z</time></trkpt><trkpt lat="43.87697" lon="12.678165"><ele>225.0</ele><time>2026-04-25T13:24:10.937Z</time></trkpt><trkpt lat="43.8770717" lon="12.6782"><ele>221.8</ele><time>2026-04-25T13:24:11.936Z</time></trkpt><trkpt lat="43.8771667" lon="12.6782417"><ele>218.6</ele><time>2026-04-25T13:24:12.937Z</time></trkpt><trkpt lat="43.87726" lon="12.6782683"><ele>215.39999999999998</ele><time>2026-04-25T13:24:13.936Z</time></trkpt><trkpt lat="43.87735" lon="12.6783067"><ele>212.2</ele><time>2026-04-25T13:24:14.937Z</time></trkpt><trkpt lat="43.8774383" lon="12.6783717"><ele>209.0</ele><time>2026-04-25T13:24:15.937Z</time></trkpt><trkpt lat="43.8775283" lon="12.6784533"><ele>205.0</ele><time>2026-04-25T13:24:16.937Z</time></trkpt><trkpt lat="43.8776217" lon="12.67854"><ele>201.0</ele><time>2026-04-25T13:24:17.937Z</time></trkpt><trkpt lat="43.8777117" lon="12.6786383"><ele>197.0</ele><time>2026-04-25T13:24:18.936Z</time></trkpt><trkpt lat="43.87779" lon="12.6787483"><ele>193.0</ele><time>2026-04-25T13:24:19.937Z</time></trkpt><trkpt lat="43.8778533" lon="12.6788783"><ele>191.5</ele><time>2026-04-25T13:24:20.937Z</time></trkpt><trkpt lat="43.8778983" lon="12.67903"><ele>190.0</ele><time>2026-04-25T13:24:21.936Z</time></trkpt><trkpt lat="43.8779417" lon="12.6791833"><ele>188.5</ele><time>2026-04-25T13:24:22.937Z</time></trkpt><trkpt lat="43.8780017" lon="12.67933"><ele>187.0</ele><time>2026-04-25T13:24:23.937Z</time></trkpt><trkpt lat="43.87806" lon="12.6794767"><ele>186.25</ele><time>2026-04-25T13:24:24.937Z</time></trkpt><trkpt lat="43.8781267" lon="12.6796183"><ele>185.5</ele><time>2026-04-25T13:24:25.937Z</time></trkpt><trkpt lat="43.87819" lon="12.67976"><ele>184.75</ele><time>2026-04-25T13:24:26.937Z</time></trkpt><trkpt lat="43.878245" lon="12.6799"><ele>184.0</ele><time>2026-04-25T13:24:27.936Z</time></trkpt><trkpt lat="43.8783017" lon="12.6800317"><ele>184.0</ele><time>2026-04-25T13:24:28.936Z</time></trkpt><trkpt lat="43.8783733" lon="12.6801517"><ele>184.0</ele><time>2026-04-25T13:24:29.936Z</time></trkpt><trkpt lat="43.8784683" lon="12.6802483"><ele>184.0</ele><time>2026-04-25T13:24:30.937Z</time></trkpt><trkpt lat="43.87856" lon="12.6803383"><ele>184.0</ele><time>2026-04-25T13:24:31.937Z</time></trkpt><trkpt lat="43.878645" lon="12.6804183"><ele>184.0</ele><time>2026-04-25T13:24:32.937Z</time></trkpt><trkpt lat="43.8787183" lon="12.68049"><ele>182.33333333333334</ele><time>2026-04-25T13:24:33.937Z</time></trkpt><trkpt lat="43.8787717" lon="12.6805683"><ele>180.66666666666669</ele><time>2026-04-25T13:24:34.937Z</time></trkpt><trkpt lat="43.8788517" lon="12.680625"><ele>179.0</ele><time>2026-04-25T13:24:36.937Z</time></trkpt><trkpt lat="43.8789167" lon="12.6806183"><ele>177.33333333333334</ele><time>2026-04-25T13:24:39.936Z</time></trkpt><trkpt lat="43.8789417" lon="12.6805067"><ele>175.66666666666666</ele><time>2026-04-25T13:24:41.936Z</time></trkpt><trkpt lat="43.8789817" lon="12.6803567"><ele>174.0</ele><time>2026-04-25T13:24:43.937Z</time></trkpt><trkpt lat="43.8790033" lon="12.6802633"><ele>174.0</ele><time>2026-04-25T13:24:44.937Z</time></trkpt><trkpt lat="43.879025" lon="12.6801633"><ele>174.0</ele><time>2026-04-25T13:24:45.937Z</time></trkpt><trkpt lat="43.8790583" lon="12.6800667"><ele>174.0</ele><time>2026-04-25T13:24:46.937Z</time></trkpt><trkpt lat="43.879105" lon="12.67998"><ele>174.0</ele><time>2026-04-25T13:24:47.937Z</time></trkpt><trkpt lat="43.87916" lon="12.67989"><ele>174.0</ele><time>2026-04-25T13:24:48.937Z</time></trkpt><trkpt lat="43.879215" lon="12.6797883"><ele>174.0</ele><time>2026-04-25T13:24:49.936Z</time></trkpt><trkpt lat="43.8792667" lon="12.6796767"><ele>170.79999999999998</ele><time>2026-04-25T13:24:50.937Z</time></trkpt><trkpt lat="43.8793283" lon="12.67957"><ele>167.6</ele><time>2026-04-25T13:24:51.937Z</time></trkpt><trkpt lat="43.8793883" lon="12.67946"><ele>164.4</ele><time>2026-04-25T13:24:52.937Z</time></trkpt><trkpt lat="43.8794517" lon="12.679355"><ele>161.2</ele><time>2026-04-25T13:24:53.937Z</time></trkpt><trkpt lat="43.8795133" lon="12.6792533"><ele>158.0</ele><time>2026-04-25T13:24:54.937Z</time></trkpt><trkpt lat="43.8795583" lon="12.6791333"><ele>158.0</ele><time>2026-04-25T13:24:55.937Z</time></trkpt><trkpt lat="43.8795917" lon="12.6790067"><ele>158.0</ele><time>2026-04-25T13:24:56.937Z</time></trkpt><trkpt lat="43.8796133" lon="12.6788717"><ele>158.0</ele><time>2026-04-25T13:24:57.937Z</time></trkpt><trkpt lat="43.8796333" lon="12.6787333"><ele>158.0</ele><time>2026-04-25T13:24:58.937Z</time></trkpt><trkpt lat="43.8796567" lon="12.6785933"><ele>158.0</ele><time>2026-04-25T13:24:59.936Z</time></trkpt><trkpt lat="43.8796867" lon="12.6784533"><ele>158.0</ele><time>2026-04-25T13:25:00.937Z</time></trkpt><trkpt lat="43.87972" lon="12.67831"><ele>158.0</ele><time>2026-04-25T13:25:01.937Z</time></trkpt><trkpt lat="43.8797733" lon="12.6781717"><ele>158.0</ele><time>2026-04-25T13:25:02.937Z</time></trkpt><trkpt lat="43.8798283" lon="12.6780333"><ele>158.0</ele><time>2026-04-25T13:25:03.937Z</time></trkpt><trkpt lat="43.8798833" lon="12.6778983"><ele>158.0</ele><time>2026-04-25T13:25:04.937Z</time></trkpt><trkpt lat="43.8799383" lon="12.67777"><ele>158.4</ele><time>2026-04-25T13:25:05.937Z</time></trkpt><trkpt lat="43.879985" lon="12.6776367"><ele>158.8</ele><time>2026-04-25T13:25:06.937Z</time></trkpt><trkpt lat="43.8800483" lon="12.6775117"><ele>159.2</ele><time>2026-04-25T13:25:07.937Z</time></trkpt><trkpt lat="43.8801217" lon="12.6773917"><ele>159.6</ele><time>2026-04-25T13:25:08.937Z</time></trkpt><trkpt lat="43.8801967" lon="12.677275"><ele>160.0</ele><time>2026-04-25T13:25:09.937Z</time></trkpt><trkpt lat="43.8802733" lon="12.6771633"><ele>158.2</ele><time>2026-04-25T13:25:10.936Z</time></trkpt><trkpt lat="43.8803517" lon="12.6770583"><ele>156.4</ele><time>2026-04-25T13:25:11.937Z</time></trkpt><trkpt lat="43.8804317" lon="12.67695"><ele>154.6</ele><time>2026-04-25T13:25:12.936Z</time></trkpt><trkpt lat="43.8805033" lon="12.6768333"><ele>152.8</ele><time>2026-04-25T13:25:13.937Z</time></trkpt><trkpt lat="43.88058" lon="12.676725"><ele>151.0</ele><time>2026-04-25T13:25:14.937Z</time></trkpt><trkpt lat="43.8806583" lon="12.67663"><ele>151.0</ele><time>2026-04-25T13:25:15.936Z</time></trkpt><trkpt lat="43.8807283" lon="12.6765517"><ele>151.0</ele><time>2026-04-25T13:25:16.937Z</time></trkpt><trkpt lat="43.880795" lon="12.6765017"><ele>151.0</ele><time>2026-04-25T13:25:17.937Z</time></trkpt><trkpt lat="43.880865" lon="12.67652"><ele>151.0</ele><time>2026-04-25T13:25:18.937Z</time></trkpt><trkpt lat="43.8809283" lon="12.6765717"><ele>151.0</ele><time>2026-04-25T13:25:19.937Z</time></trkpt><trkpt lat="43.880965" lon="12.6766617"><ele>151.0</ele><time>2026-04-25T13:25:20.937Z</time></trkpt><trkpt lat="43.880965" lon="12.6767967"><ele>150.0</ele><time>2026-04-25T13:25:21.937Z</time></trkpt><trkpt lat="43.8809533" lon="12.67694"><ele>149.0</ele><time>2026-04-25T13:25:22.937Z</time></trkpt><trkpt lat="43.880935" lon="12.67709"><ele>148.0</ele><time>2026-04-25T13:25:23.937Z</time></trkpt><trkpt lat="43.8809183" lon="12.6772483"><ele>147.0</ele><time>2026-04-25T13:25:24.937Z</time></trkpt><trkpt lat="43.8808933" lon="12.6774033"><ele>146.0</ele><time>2026-04-25T13:25:25.937Z</time></trkpt><trkpt lat="43.880875" lon="12.6775583"><ele>146.0</ele><time>2026-04-25T13:25:26.937Z</time></trkpt><trkpt lat="43.8808517" lon="12.6777117"><ele>146.0</ele><time>2026-04-25T13:25:27.937Z</time></trkpt><trkpt lat="43.88084" lon="12.67787"><ele>146.0</ele><time>2026-04-25T13:25:28.937Z</time></trkpt><trkpt lat="43.8808417" lon="12.6780317"><ele>146.0</ele><time>2026-04-25T13:25:29.937Z</time></trkpt><trkpt lat="43.8808567" lon="12.6781933"><ele>145.8</ele><time>2026-04-25T13:25:30.937Z</time></trkpt><trkpt lat="43.8808683" lon="12.6783517"><ele>145.6</ele><time>2026-04-25T13:25:31.937Z</time></trkpt><trkpt lat="43.8808833" lon="12.6785033"><ele>145.4</ele><time>2026-04-25T13:25:32.936Z</time></trkpt><trkpt lat="43.88091" lon="12.6786417"><ele>145.2</ele><time>2026-04-25T13:25:33.936Z</time></trkpt><trkpt lat="43.88096" lon="12.678755"><ele>145.0</ele><time>2026-04-25T13:25:34.937Z</time></trkpt><trkpt lat="43.88103" lon="12.6788483"><ele>142.2</ele><time>2026-04-25T13:25:35.937Z</time></trkpt><trkpt lat="43.881115" lon="12.6789233"><ele>139.4</ele><time>2026-04-25T13:25:36.937Z</time></trkpt><trkpt lat="43.8812117" lon="12.67899"><ele>136.6</ele><time>2026-04-25T13:25:37.937Z</time></trkpt><trkpt lat="43.8813083" lon="12.6790583"><ele>133.8</ele><time>2026-04-25T13:25:38.937Z</time></trkpt><trkpt lat="43.8814" lon="12.6791317"><ele>131.0</ele><time>2026-04-25T13:25:39.937Z</time></trkpt><trkpt lat="43.8814817" lon="12.6792183"><ele>131.0</ele><time>2026-04-25T13:25:40.936Z</time></trkpt><trkpt lat="43.8815583" lon="12.679325"><ele>131.0</ele><time>2026-04-25T13:25:41.937Z</time></trkpt><trkpt lat="43.8816283" lon="12.6794467"><ele>131.0</ele><time>2026-04-25T13:25:42.937Z</time></trkpt><trkpt lat="43.8816967" lon="12.6795817"><ele>131.0</ele><time>2026-04-25T13:25:43.936Z</time></trkpt><trkpt lat="43.8817667" lon="12.67972"><ele>128.25</ele><time>2026-04-25T13:25:44.937Z</time></trkpt><trkpt lat="43.8818417" lon="12.6798583"><ele>125.5</ele><time>2026-04-25T13:25:45.937Z</time></trkpt><trkpt lat="43.8819167" lon="12.67999"><ele>122.75</ele><time>2026-04-25T13:25:46.937Z</time></trkpt><trkpt lat="43.8819883" lon="12.6801133"><ele>120.0</ele><time>2026-04-25T13:25:47.937Z</time></trkpt><trkpt lat="43.88205" lon="12.6802233"><ele>119.2</ele><time>2026-04-25T13:25:48.937Z</time></trkpt><trkpt lat="43.8820967" lon="12.6803283"><ele>118.4</ele><time>2026-04-25T13:25:49.937Z</time></trkpt><trkpt lat="43.8821183" lon="12.68045"><ele>117.6</ele><time>2026-04-25T13:25:50.936Z</time></trkpt><trkpt lat="43.8821083" lon="12.680575"><ele>116.8</ele><time>2026-04-25T13:25:51.937Z</time></trkpt><trkpt lat="43.8820833" lon="12.6807033"><ele>116.0</ele><time>2026-04-25T13:25:52.937Z</time></trkpt><trkpt lat="43.88205" lon="12.6808317"><ele>116.0</ele><time>2026-04-25T13:25:53.937Z</time></trkpt><trkpt lat="43.8820417" lon="12.680965"><ele>116.0</ele><time>2026-04-25T13:25:54.937Z</time></trkpt><trkpt lat="43.8820667" lon="12.68109"><ele>116.0</ele><time>2026-04-25T13:25:55.937Z</time></trkpt><trkpt lat="43.8821217" lon="12.6812083"><ele>116.0</ele><time>2026-04-25T13:25:56.937Z</time></trkpt><trkpt lat="43.8821917" lon="12.6813283"><ele>116.0</ele><time>2026-04-25T13:25:57.936Z</time></trkpt><trkpt lat="43.88226" lon="12.6814617"><ele>115.75</ele><time>2026-04-25T13:25:58.937Z</time></trkpt><trkpt lat="43.8823267" lon="12.6816083"><ele>115.5</ele><time>2026-04-25T13:25:59.936Z</time></trkpt><trkpt lat="43.882385" lon="12.6817683"><ele>115.25</ele><time>2026-04-25T13:26:00.937Z</time></trkpt><trkpt lat="43.8824417" lon="12.6819283"><ele>115.0</ele><time>2026-04-25T13:26:01.937Z</time></trkpt><trkpt lat="43.8825017" lon="12.6820833"><ele>115.0</ele><time>2026-04-25T13:26:02.937Z</time></trkpt><trkpt lat="43.8825617" lon="12.6822367"><ele>115.0</ele><time>2026-04-25T13:26:03.937Z</time></trkpt><trkpt lat="43.88262" lon="12.6823883"><ele>115.0</ele><time>2026-04-25T13:26:04.937Z</time></trkpt><trkpt lat="43.882675" lon="12.682535"><ele>115.0</ele><time>2026-04-25T13:26:05.936Z</time></trkpt><trkpt lat="43.8827267" lon="12.6826767"><ele>111.6</ele><time>2026-04-25T13:26:06.937Z</time></trkpt><trkpt lat="43.882775" lon="12.68282"><ele>108.2</ele><time>2026-04-25T13:26:07.937Z</time></trkpt><trkpt lat="43.8828167" lon="12.6829617"><ele>104.80000000000001</ele><time>2026-04-25T13:26:08.937Z</time></trkpt><trkpt lat="43.8828467" lon="12.683105"><ele>101.4</ele><time>2026-04-25T13:26:09.937Z</time></trkpt><trkpt lat="43.88287" lon="12.6832483"><ele>98.0</ele><time>2026-04-25T13:26:10.937Z</time></trkpt><trkpt lat="43.882875" lon="12.6833917"><ele>98.0</ele><time>2026-04-25T13:26:11.937Z</time></trkpt><trkpt lat="43.88286" lon="12.68354"><ele>98.0</ele><time>2026-04-25T13:26:12.937Z</time></trkpt><trkpt lat="43.8828367" lon="12.683685"><ele>98.0</ele><time>2026-04-25T13:26:13.937Z</time></trkpt><trkpt lat="43.8828033" lon="12.68383"><ele>98.0</ele><time>2026-04-25T13:26:14.937Z</time></trkpt><trkpt lat="43.882785" lon="12.6839817"><ele>98.0</ele><time>2026-04-25T13:26:15.936Z</time></trkpt><trkpt lat="43.8827867" lon="12.6841367"><ele>97.25</ele><time>2026-04-25T13:26:16.937Z</time></trkpt><trkpt lat="43.882795" lon="12.6842917"><ele>96.5</ele><time>2026-04-25T13:26:17.937Z</time></trkpt><trkpt lat="43.88281" lon="12.6844467"><ele>95.75</ele><time>2026-04-25T13:26:18.937Z</time></trkpt><trkpt lat="43.8828183" lon="12.6846033"><ele>95.0</ele><time>2026-04-25T13:26:19.936Z</time></trkpt><trkpt lat="43.88282" lon="12.68476"><ele>94.0</ele><time>2026-04-25T13:26:20.937Z</time></trkpt><trkpt lat="43.8828133" lon="12.684915"><ele>93.0</ele><time>2026-04-25T13:26:21.936Z</time></trkpt><trkpt lat="43.8827883" lon="12.685065"><ele>92.0</ele><time>2026-04-25T13:26:22.937Z</time></trkpt><trkpt lat="43.8827567" lon="12.6852133"><ele>91.0</ele><time>2026-04-25T13:26:23.937Z</time></trkpt><trkpt lat="43.8827267" lon="12.6853567"><ele>90.0</ele><time>2026-04-25T13:26:24.937Z</time></trkpt><trkpt lat="43.882695" lon="12.6854867"><ele>89.6</ele><time>2026-04-25T13:26:25.937Z</time></trkpt><trkpt lat="43.8826933" lon="12.6856133"><ele>89.2</ele><time>2026-04-25T13:26:26.937Z</time></trkpt><trkpt lat="43.8827217" lon="12.6857383"><ele>88.80000000000001</ele><time>2026-04-25T13:26:27.937Z</time></trkpt><trkpt lat="43.8827633" lon="12.6858617"><ele>88.4</ele><time>2026-04-25T13:26:28.937Z</time></trkpt><trkpt lat="43.8828033" lon="12.6859867"><ele>88.0</ele><time>2026-04-25T13:26:29.937Z</time></trkpt><trkpt lat="43.88283" lon="12.68611"><ele>88.0</ele><time>2026-04-25T13:26:30.937Z</time></trkpt><trkpt lat="43.8828633" lon="12.68623"><ele>88.0</ele><time>2026-04-25T13:26:31.937Z</time></trkpt><trkpt lat="43.8828817" lon="12.686355"><ele>88.0</ele><time>2026-04-25T13:26:32.937Z</time></trkpt><trkpt lat="43.8828833" lon="12.6864783"><ele>88.0</ele><time>2026-04-25T13:26:33.937Z</time></trkpt><trkpt lat="43.88287" lon="12.6866"><ele>88.0</ele><time>2026-04-25T13:26:34.936Z</time></trkpt><trkpt lat="43.8828467" lon="12.6867267"><ele>88.0</ele><time>2026-04-25T13:26:35.937Z</time></trkpt><trkpt lat="43.882815" lon="12.6868533"><ele>88.0</ele><time>2026-04-25T13:26:36.937Z</time></trkpt><trkpt lat="43.8827867" lon="12.686975"><ele>88.0</ele><time>2026-04-25T13:26:37.937Z</time></trkpt><trkpt lat="43.8827667" lon="12.6870983"><ele>88.0</ele><time>2026-04-25T13:26:38.936Z</time></trkpt><trkpt lat="43.88277" lon="12.68722"><ele>88.0</ele><time>2026-04-25T13:26:39.937Z</time></trkpt><trkpt lat="43.88281" lon="12.687335"><ele>87.80000000000001</ele><time>2026-04-25T13:26:40.937Z</time></trkpt><trkpt lat="43.8828717" lon="12.6874417"><ele>87.6</ele><time>2026-04-25T13:26:41.936Z</time></trkpt><trkpt lat="43.8829467" lon="12.687545"><ele>87.4</ele><time>2026-04-25T13:26:42.937Z</time></trkpt><trkpt lat="43.8830133" lon="12.6876667"><ele>87.19999999999999</ele><time>2026-04-25T13:26:43.937Z</time></trkpt><trkpt lat="43.8830867" lon="12.6877867"><ele>87.0</ele><time>2026-04-25T13:26:44.937Z</time></trkpt><trkpt lat="43.88316" lon="12.6879117"><ele>87.0</ele><time>2026-04-25T13:26:45.937Z</time></trkpt><trkpt lat="43.8832333" lon="12.688035"><ele>87.0</ele><time>2026-04-25T13:26:46.937Z</time></trkpt><trkpt lat="43.8833117" lon="12.688165"><ele>87.0</ele><time>2026-04-25T13:26:47.937Z</time></trkpt><trkpt lat="43.88339" lon="12.688295"><ele>87.0</ele><time>2026-04-25T13:26:48.936Z</time></trkpt><trkpt lat="43.883475" lon="12.688415"><ele>87.0</ele><time>2026-04-25T13:26:49.937Z</time></trkpt><trkpt lat="43.883555" lon="12.68854"><ele>87.0</ele><time>2026-04-25T13:26:50.936Z</time></trkpt><trkpt lat="43.88364" lon="12.68866"><ele>87.0</ele><time>2026-04-25T13:26:51.936Z</time></trkpt><trkpt lat="43.8837267" lon="12.68878"><ele>87.0</ele><time>2026-04-25T13:26:52.937Z</time></trkpt><trkpt lat="43.8838117" lon="12.6889033"><ele>86.0</ele><time>2026-04-25T13:26:53.937Z</time></trkpt><trkpt lat="43.8838917" lon="12.689025"><ele>85.0</ele><time>2026-04-25T13:26:54.936Z</time></trkpt><trkpt lat="43.8839733" lon="12.689155"><ele>84.0</ele><time>2026-04-25T13:26:55.937Z</time></trkpt><trkpt lat="43.88405" lon="12.6892917"><ele>83.0</ele><time>2026-04-25T13:26:56.937Z</time></trkpt><trkpt lat="43.8841217" lon="12.689435"><ele>82.5</ele><time>2026-04-25T13:26:57.936Z</time></trkpt><trkpt lat="43.884195" lon="12.6895833"><ele>82.0</ele><time>2026-04-25T13:26:58.937Z</time></trkpt><trkpt lat="43.884265" lon="12.6897383"><ele>81.5</ele><time>2026-04-25T13:26:59.937Z</time></trkpt><trkpt lat="43.88434" lon="12.6899033"><ele>81.0</ele><time>2026-04-25T13:27:00.937Z</time></trkpt><trkpt lat="43.884415" lon="12.6900783"><ele>82.25</ele><time>2026-04-25T13:27:01.937Z</time></trkpt><trkpt lat="43.8844883" lon="12.6902567"><ele>83.5</ele><time>2026-04-25T13:27:02.937Z</time></trkpt><trkpt lat="43.884565" lon="12.690435"><ele>84.75</ele><time>2026-04-25T13:27:03.937Z</time></trkpt><trkpt lat="43.8846433" lon="12.69061"><ele>86.0</ele><time>2026-04-25T13:27:04.937Z</time></trkpt><trkpt lat="43.8847217" lon="12.6907783"><ele>86.0</ele><time>2026-04-25T13:27:05.937Z</time></trkpt><trkpt lat="43.8848" lon="12.6909517"><ele>86.0</ele><time>2026-04-25T13:27:06.937Z</time></trkpt><trkpt lat="43.884875" lon="12.6911283"><ele>86.0</ele><time>2026-04-25T13:27:07.937Z</time></trkpt><trkpt lat="43.8849517" lon="12.6913067"><ele>86.0</ele><time>2026-04-25T13:27:08.937Z</time></trkpt><trkpt lat="43.8850183" lon="12.6914783"><ele>85.75</ele><time>2026-04-25T13:27:09.937Z</time></trkpt><trkpt lat="43.8850733" lon="12.691645"><ele>85.5</ele><time>2026-04-25T13:27:10.937Z</time></trkpt><trkpt lat="43.8851217" lon="12.691825"><ele>85.25</ele><time>2026-04-25T13:27:11.936Z</time></trkpt><trkpt lat="43.8851633" lon="12.6920083"><ele>85.0</ele><time>2026-04-25T13:27:12.937Z</time></trkpt><trkpt lat="43.8851983" lon="12.6921917"><ele>85.0</ele><time>2026-04-25T13:27:13.936Z</time></trkpt><trkpt lat="43.8852317" lon="12.6923667"><ele>85.0</ele><time>2026-04-25T13:27:14.937Z</time></trkpt><trkpt lat="43.8852617" lon="12.692535"><ele>85.0</ele><time>2026-04-25T13:27:15.937Z</time></trkpt><trkpt lat="43.885295" lon="12.692685"><ele>85.0</ele><time>2026-04-25T13:27:16.937Z</time></trkpt><trkpt lat="43.8853233" lon="12.6928217"><ele>84.0</ele><time>2026-04-25T13:27:17.937Z</time></trkpt><trkpt lat="43.8853467" lon="12.6929517"><ele>83.0</ele><time>2026-04-25T13:27:18.937Z</time></trkpt><trkpt lat="43.88536" lon="12.6930917"><ele>82.0</ele><time>2026-04-25T13:27:19.937Z</time></trkpt><trkpt lat="43.8853683" lon="12.693245"><ele>81.0</ele><time>2026-04-25T13:27:20.937Z</time></trkpt><trkpt lat="43.88537" lon="12.69341"><ele>80.0</ele><time>2026-04-25T13:27:21.936Z</time></trkpt><trkpt lat="43.8853617" lon="12.693585"><ele>79.25</ele><time>2026-04-25T13:27:22.936Z</time></trkpt><trkpt lat="43.8853533" lon="12.6937717"><ele>78.5</ele><time>2026-04-25T13:27:23.936Z</time></trkpt><trkpt lat="43.8853383" lon="12.6939617"><ele>77.75</ele><time>2026-04-25T13:27:24.937Z</time></trkpt><trkpt lat="43.8853233" lon="12.6941517"><ele>77.0</ele><time>2026-04-25T13:27:25.937Z</time></trkpt><trkpt lat="43.8853083" lon="12.6943383"><ele>77.5</ele><time>2026-04-25T13:27:26.936Z</time></trkpt><trkpt lat="43.8852933" lon="12.6945283"><ele>78.0</ele><time>2026-04-25T13:27:27.937Z</time></trkpt><trkpt lat="43.8852733" lon="12.694725"><ele>78.5</ele><time>2026-04-25T13:27:28.937Z</time></trkpt><trkpt lat="43.885255" lon="12.69493"><ele>79.0</ele><time>2026-04-25T13:27:29.936Z</time></trkpt><trkpt lat="43.88524" lon="12.6951433"><ele>81.33333333333333</ele><time>2026-04-25T13:27:30.937Z</time></trkpt><trkpt lat="43.88523" lon="12.6953583"><ele>83.66666666666667</ele><time>2026-04-25T13:27:31.937Z</time></trkpt><trkpt lat="43.88522" lon="12.69557"><ele>86.0</ele><time>2026-04-25T13:27:32.936Z</time></trkpt><trkpt lat="43.88521" lon="12.695775"><ele>86.0</ele><time>2026-04-25T13:27:33.936Z</time></trkpt><trkpt lat="43.8851983" lon="12.6959717"><ele>86.0</ele><time>2026-04-25T13:27:34.937Z</time></trkpt><trkpt lat="43.8851817" lon="12.6961633"><ele>86.0</ele><time>2026-04-25T13:27:35.937Z</time></trkpt><trkpt lat="43.8851633" lon="12.696335"><ele>86.0</ele><time>2026-04-25T13:27:36.937Z</time></trkpt><trkpt lat="43.8851483" lon="12.6964883"><ele>87.0</ele><time>2026-04-25T13:27:37.937Z</time></trkpt><trkpt lat="43.885145" lon="12.6966383"><ele>88.0</ele><time>2026-04-25T13:27:38.937Z</time></trkpt><trkpt lat="43.8851533" lon="12.6967883"><ele>89.0</ele><time>2026-04-25T13:27:39.936Z</time></trkpt><trkpt lat="43.88518" lon="12.6969383"><ele>90.0</ele><time>2026-04-25T13:27:40.937Z</time></trkpt><trkpt lat="43.8852117" lon="12.6970783"><ele>91.0</ele><time>2026-04-25T13:27:41.936Z</time></trkpt><trkpt lat="43.8852367" lon="12.697225"><ele>92.25</ele><time>2026-04-25T13:27:42.937Z</time></trkpt><trkpt lat="43.88524" lon="12.6973833"><ele>93.5</ele><time>2026-04-25T13:27:43.938Z</time></trkpt><trkpt lat="43.8852183" lon="12.697545"><ele>94.75</ele><time>2026-04-25T13:27:44.937Z</time></trkpt><trkpt lat="43.88518" lon="12.6976933"><ele>96.0</ele><time>2026-04-25T13:27:45.938Z</time></trkpt><trkpt lat="43.8851267" lon="12.6978283"><ele>93.75</ele><time>2026-04-25T13:27:46.938Z</time></trkpt><trkpt lat="43.8850533" lon="12.697955"><ele>91.5</ele><time>2026-04-25T13:27:47.938Z</time></trkpt><trkpt lat="43.8849783" lon="12.6980817"><ele>89.25</ele><time>2026-04-25T13:27:48.938Z</time></trkpt><trkpt lat="43.8849167" lon="12.6982167"><ele>87.0</ele><time>2026-04-25T13:27:49.938Z</time></trkpt><trkpt lat="43.8848683" lon="12.698365"><ele>87.0</ele><time>2026-04-25T13:27:50.938Z</time></trkpt><trkpt lat="43.88483" lon="12.69853"><ele>87.0</ele><time>2026-04-25T13:27:51.938Z</time></trkpt><trkpt lat="43.8848" lon="12.6987067"><ele>87.0</ele><time>2026-04-25T13:27:52.938Z</time></trkpt><trkpt lat="43.8847667" lon="12.698905"><ele>87.0</ele><time>2026-04-25T13:27:53.938Z</time></trkpt><trkpt lat="43.884725" lon="12.69911"><ele>88.33333333333333</ele><time>2026-04-25T13:27:54.938Z</time></trkpt><trkpt lat="43.8846817" lon="12.6993183"><ele>89.66666666666666</ele><time>2026-04-25T13:27:55.938Z</time></trkpt><trkpt lat="43.8846383" lon="12.6995167"><ele>91.0</ele><time>2026-04-25T13:27:56.938Z</time></trkpt><trkpt lat="43.8845967" lon="12.6997083"><ele>91.0</ele><time>2026-04-25T13:27:57.938Z</time></trkpt><trkpt lat="43.884565" lon="12.6999017"><ele>91.0</ele><time>2026-04-25T13:27:58.938Z</time></trkpt><trkpt lat="43.8845417" lon="12.7000917"><ele>91.0</ele><time>2026-04-25T13:27:59.938Z</time></trkpt><trkpt lat="43.8845283" lon="12.700275"><ele>91.0</ele><time>2026-04-25T13:28:00.938Z</time></trkpt><trkpt lat="43.8845283" lon="12.700455"><ele>90.25</ele><time>2026-04-25T13:28:01.937Z</time></trkpt><trkpt lat="43.8845433" lon="12.7006333"><ele>89.5</ele><time>2026-04-25T13:28:02.938Z</time></trkpt><trkpt lat="43.884575" lon="12.7008083"><ele>88.75</ele><time>2026-04-25T13:28:03.937Z</time></trkpt><trkpt lat="43.8846183" lon="12.7009683"><ele>88.0</ele><time>2026-04-25T13:28:04.938Z</time></trkpt><trkpt lat="43.8846767" lon="12.7011117"><ele>87.0</ele><time>2026-04-25T13:28:05.938Z</time></trkpt><trkpt lat="43.884755" lon="12.7012417"><ele>86.0</ele><time>2026-04-25T13:28:06.938Z</time></trkpt><trkpt lat="43.8848483" lon="12.701355"><ele>85.0</ele><time>2026-04-25T13:28:07.938Z</time></trkpt><trkpt lat="43.884955" lon="12.7014567"><ele>84.0</ele><time>2026-04-25T13:28:08.938Z</time></trkpt><trkpt lat="43.8850617" lon="12.7015467"><ele>85.66666666666667</ele><time>2026-04-25T13:28:09.938Z</time></trkpt><trkpt lat="43.885155" lon="12.701635"><ele>87.33333333333333</ele><time>2026-04-25T13:28:10.938Z</time></trkpt><trkpt lat="43.88523" lon="12.701725"><ele>89.0</ele><time>2026-04-25T13:28:11.938Z</time></trkpt><trkpt lat="43.8852733" lon="12.70182"><ele>90.66666666666666</ele><time>2026-04-25T13:28:12.938Z</time></trkpt><trkpt lat="43.885285" lon="12.7019217"><ele>92.33333333333333</ele><time>2026-04-25T13:28:13.938Z</time></trkpt><trkpt lat="43.8852733" lon="12.7020317"><ele>94.0</ele><time>2026-04-25T13:28:14.938Z</time></trkpt><trkpt lat="43.885235" lon="12.7021433"><ele>94.66666666666666</ele><time>2026-04-25T13:28:15.937Z</time></trkpt><trkpt lat="43.8851883" lon="12.7022533"><ele>95.33333333333333</ele><time>2026-04-25T13:28:16.937Z</time></trkpt><trkpt lat="43.8851367" lon="12.7023633"><ele>96.0</ele><time>2026-04-25T13:28:17.938Z</time></trkpt><trkpt lat="43.8851017" lon="12.70246"><ele>96.66666666666666</ele><time>2026-04-25T13:28:18.938Z</time></trkpt><trkpt lat="43.8850867" lon="12.7025683"><ele>97.33333333333333</ele><time>2026-04-25T13:28:20.938Z</time></trkpt><trkpt lat="43.8851467" lon="12.7026167"><ele>98.0</ele><time>2026-04-25T13:28:24.938Z</time></trkpt><trkpt lat="43.885235" lon="12.7026033"><ele>97.99999999999999</ele><time>2026-04-25T13:28:30.938Z</time></trkpt><trkpt lat="43.8852933" lon="12.70257"><ele>98.0</ele><time>2026-04-25T13:28:31.938Z</time></trkpt><trkpt lat="43.885365" lon="12.7025317"><ele>98.0</ele><time>2026-04-25T13:28:32.938Z</time></trkpt><trkpt lat="43.8854483" lon="12.7025133"><ele>98.0</ele><time>2026-04-25T13:28:33.938Z</time></trkpt><trkpt lat="43.8855467" lon="12.7024917"><ele>97.99999999999999</ele><time>2026-04-25T13:28:34.938Z</time></trkpt><trkpt lat="43.885665" lon="12.7024733"><ele>98.0</ele><time>2026-04-25T13:28:35.938Z</time></trkpt><trkpt lat="43.8858" lon="12.7024533"><ele>100.75</ele><time>2026-04-25T13:28:36.938Z</time></trkpt><trkpt lat="43.88594" lon="12.7024317"><ele>103.5</ele><time>2026-04-25T13:28:37.938Z</time></trkpt><trkpt lat="43.8860767" lon="12.7024067"><ele>106.25</ele><time>2026-04-25T13:28:38.938Z</time></trkpt><trkpt lat="43.8861983" lon="12.702375"><ele>109.0</ele><time>2026-04-25T13:28:39.938Z</time></trkpt><trkpt lat="43.886305" lon="12.70233"><ele>109.0</ele><time>2026-04-25T13:28:40.938Z</time></trkpt><trkpt lat="43.8864117" lon="12.7022767"><ele>109.0</ele><time>2026-04-25T13:28:41.937Z</time></trkpt><trkpt lat="43.8865183" lon="12.7022183"><ele>109.0</ele><time>2026-04-25T13:28:42.936Z</time></trkpt><trkpt lat="43.8866217" lon="12.702155"><ele>109.0</ele><time>2026-04-25T13:28:43.937Z</time></trkpt><trkpt lat="43.8867233" lon="12.7020867"><ele>109.80000000000001</ele><time>2026-04-25T13:28:44.937Z</time></trkpt><trkpt lat="43.8868167" lon="12.702025"><ele>110.60000000000001</ele><time>2026-04-25T13:28:45.936Z</time></trkpt><trkpt lat="43.8869167" lon="12.701975"><ele>111.4</ele><time>2026-04-25T13:28:46.937Z</time></trkpt><trkpt lat="43.8870217" lon="12.7019367"><ele>112.2</ele><time>2026-04-25T13:28:47.937Z</time></trkpt><trkpt lat="43.8871233" lon="12.7018983"><ele>113.0</ele><time>2026-04-25T13:28:48.937Z</time></trkpt><trkpt lat="43.8872183" lon="12.7018417"><ele>114.5</ele><time>2026-04-25T13:28:49.937Z</time></trkpt><trkpt lat="43.8873083" lon="12.7017533"><ele>116.0</ele><time>2026-04-25T13:28:50.937Z</time></trkpt><trkpt lat="43.887395" lon="12.7016433"><ele>117.5</ele><time>2026-04-25T13:28:51.937Z</time></trkpt><trkpt lat="43.8874833" lon="12.7015317"><ele>119.0</ele><time>2026-04-25T13:28:52.936Z</time></trkpt><trkpt lat="43.88757" lon="12.701425"><ele>119.5</ele><time>2026-04-25T13:28:53.937Z</time></trkpt><trkpt lat="43.8876667" lon="12.70132"><ele>120.0</ele><time>2026-04-25T13:28:54.937Z</time></trkpt><trkpt lat="43.88777" lon="12.701215"><ele>120.5</ele><time>2026-04-25T13:28:55.937Z</time></trkpt><trkpt lat="43.88787" lon="12.7011117"><ele>121.0</ele><time>2026-04-25T13:28:56.936Z</time></trkpt><trkpt lat="43.8879683" lon="12.701005"><ele>122.25</ele><time>2026-04-25T13:28:57.937Z</time></trkpt><trkpt lat="43.8880683" lon="12.7008933"><ele>123.5</ele><time>2026-04-25T13:28:58.937Z</time></trkpt><trkpt lat="43.8881767" lon="12.70078"><ele>124.75</ele><time>2026-04-25T13:28:59.937Z</time></trkpt><trkpt lat="43.8882883" lon="12.700655"><ele>126.0</ele><time>2026-04-25T13:29:00.937Z</time></trkpt><trkpt lat="43.8884017" lon="12.70053"><ele>125.75</ele><time>2026-04-25T13:29:01.937Z</time></trkpt><trkpt lat="43.8885183" lon="12.7004017"><ele>125.5</ele><time>2026-04-25T13:29:02.937Z</time></trkpt><trkpt lat="43.8886283" lon="12.7002833"><ele>125.25</ele><time>2026-04-25T13:29:03.937Z</time></trkpt><trkpt lat="43.888725" lon="12.700185"><ele>125.0</ele><time>2026-04-25T13:29:04.937Z</time></trkpt><trkpt lat="43.888795" lon="12.7001033"><ele>126.8</ele><time>2026-04-25T13:29:05.937Z</time></trkpt><trkpt lat="43.88884" lon="12.7000333"><ele>128.6</ele><time>2026-04-25T13:29:06.937Z</time></trkpt><trkpt lat="43.8888708" lon="12.6999293"><ele>130.4</ele><time>2026-04-25T13:29:08.937Z</time></trkpt><trkpt lat="43.8888558" lon="12.6998167"><ele>132.2</ele><time>2026-04-25T13:29:11.937Z</time></trkpt><trkpt lat="43.888854" lon="12.6997025"><ele>134.0</ele><time>2026-04-25T13:29:14.937Z</time></trkpt><trkpt lat="43.8890042" lon="12.6998369"><ele>134.0</ele><time>2026-04-25T13:29:22.937Z</time></trkpt><trkpt lat="43.8890779" lon="12.6998899"><ele>134.0</ele><time>2026-04-25T13:29:23.936Z</time></trkpt><trkpt lat="43.8891564" lon="12.699914"><ele>134.0</ele><time>2026-04-25T13:29:24.937Z</time></trkpt><trkpt lat="43.8892404" lon="12.6999064"><ele>134.0</ele><time>2026-04-25T13:29:25.937Z</time></trkpt><trkpt lat="43.8893366" lon="12.6998922"><ele>134.0</ele><time>2026-04-25T13:29:26.937Z</time></trkpt><trkpt lat="43.8894447" lon="12.6998772"><ele>133.5</ele><time>2026-04-25T13:29:27.937Z</time></trkpt><trkpt lat="43.8895674" lon="12.699863"><ele>133.0</ele><time>2026-04-25T13:29:28.937Z</time></trkpt><trkpt lat="43.8897039" lon="12.6998464"><ele>132.5</ele><time>2026-04-25T13:29:29.937Z</time></trkpt><trkpt lat="43.8898552" lon="12.6998219"><ele>132.0</ele><time>2026-04-25T13:29:30.937Z</time></trkpt><trkpt lat="43.8900175" lon="12.6997932"><ele>131.33333333333334</ele><time>2026-04-25T13:29:31.937Z</time></trkpt><trkpt lat="43.8901806" lon="12.6997625"><ele>130.66666666666669</ele><time>2026-04-25T13:29:32.936Z</time></trkpt><trkpt lat="43.8903435" lon="12.6997174"><ele>130.0</ele><time>2026-04-25T13:29:33.937Z</time></trkpt><trkpt lat="43.8905103" lon="12.6996628"><ele>130.0</ele><time>2026-04-25T13:29:34.936Z</time></trkpt><trkpt lat="43.8906759" lon="12.6996018"><ele>130.0</ele><time>2026-04-25T13:29:35.937Z</time></trkpt><trkpt lat="43.8908325" lon="12.699546"><ele>130.0</ele><time>2026-04-25T13:29:36.937Z</time></trkpt><trkpt lat="43.8909786" lon="12.6995017"><ele>129.5</ele><time>2026-04-25T13:29:37.937Z</time></trkpt><trkpt lat="43.8911084" lon="12.6994626"><ele>129.0</ele><time>2026-04-25T13:29:38.936Z</time></trkpt><trkpt lat="43.8912208" lon="12.6994295"><ele>128.5</ele><time>2026-04-25T13:29:39.936Z</time></trkpt><trkpt lat="43.8913318" lon="12.6993972"><ele>128.0</ele><time>2026-04-25T13:29:40.937Z</time></trkpt><trkpt lat="43.8914487" lon="12.6993669"><ele>129.25</ele><time>2026-04-25T13:29:41.937Z</time></trkpt><trkpt lat="43.8915768" lon="12.6993364"><ele>130.5</ele><time>2026-04-25T13:29:42.937Z</time></trkpt><trkpt lat="43.891709" lon="12.6993002"><ele>131.75</ele><time>2026-04-25T13:29:43.937Z</time></trkpt><trkpt lat="43.8918384" lon="12.6992602"><ele>133.0</ele><time>2026-04-25T13:29:44.937Z</time></trkpt><trkpt lat="43.891964" lon="12.6992177"><ele>133.0</ele><time>2026-04-25T13:29:45.936Z</time></trkpt><trkpt lat="43.8920848" lon="12.6991818"><ele>133.0</ele><time>2026-04-25T13:29:46.937Z</time></trkpt><trkpt lat="43.8922042" lon="12.6991502"><ele>133.0</ele><time>2026-04-25T13:29:47.937Z</time></trkpt><trkpt lat="43.8923205" lon="12.6991237"><ele>133.0</ele><time>2026-04-25T13:29:48.937Z</time></trkpt><trkpt lat="43.8924323" lon="12.6990951"><ele>133.0</ele><time>2026-04-25T13:29:49.937Z</time></trkpt><trkpt lat="43.8925378" lon="12.6990633"><ele>133.0</ele><time>2026-04-25T13:29:50.937Z</time></trkpt><trkpt lat="43.892632" lon="12.6990299"><ele>133.0</ele><time>2026-04-25T13:29:51.937Z</time></trkpt><trkpt lat="43.8927112" lon="12.6989968"><ele>133.0</ele><time>2026-04-25T13:29:52.937Z</time></trkpt><trkpt lat="43.8927864" lon="12.6989612"><ele>133.0</ele><time>2026-04-25T13:29:53.937Z</time></trkpt><trkpt lat="43.8928638" lon="12.6989291"><ele>133.0</ele><time>2026-04-25T13:29:54.937Z</time></trkpt><trkpt lat="43.8929464" lon="12.6989035"><ele>132.6</ele><time>2026-04-25T13:29:55.937Z</time></trkpt><trkpt lat="43.8930327" lon="12.698888"><ele>132.20000000000002</ele><time>2026-04-25T13:29:56.937Z</time></trkpt><trkpt lat="43.8931217" lon="12.69888"><ele>131.8</ele><time>2026-04-25T13:29:57.936Z</time></trkpt><trkpt lat="43.8932167" lon="12.6988733"><ele>131.4</ele><time>2026-04-25T13:29:58.937Z</time></trkpt><trkpt lat="43.8933117" lon="12.6988683"><ele>131.0</ele><time>2026-04-25T13:29:59.937Z</time></trkpt><trkpt lat="43.8934017" lon="12.6988567"><ele>130.8</ele><time>2026-04-25T13:30:00.937Z</time></trkpt><trkpt lat="43.8934783" lon="12.6988283"><ele>130.6</ele><time>2026-04-25T13:30:01.937Z</time></trkpt><trkpt lat="43.8935433" lon="12.6987767"><ele>130.4</ele><time>2026-04-25T13:30:02.936Z</time></trkpt><trkpt lat="43.893605" lon="12.6986983"><ele>130.2</ele><time>2026-04-25T13:30:03.937Z</time></trkpt><trkpt lat="43.893675" lon="12.6985983"><ele>130.0</ele><time>2026-04-25T13:30:04.937Z</time></trkpt><trkpt lat="43.89376" lon="12.6984783"><ele>132.5</ele><time>2026-04-25T13:30:05.937Z</time></trkpt><trkpt lat="43.8938517" lon="12.69834"><ele>135.0</ele><time>2026-04-25T13:30:06.936Z</time></trkpt><trkpt lat="43.8939533" lon="12.6981867"><ele>137.5</ele><time>2026-04-25T13:30:07.937Z</time></trkpt><trkpt lat="43.8940583" lon="12.6980317"><ele>140.0</ele><time>2026-04-25T13:30:08.937Z</time></trkpt><trkpt lat="43.8941617" lon="12.69788"><ele>145.0</ele><time>2026-04-25T13:30:09.937Z</time></trkpt><trkpt lat="43.8942667" lon="12.6977267"><ele>150.0</ele><time>2026-04-25T13:30:10.937Z</time></trkpt><trkpt lat="43.8943783" lon="12.69758"><ele>155.0</ele><time>2026-04-25T13:30:11.937Z</time></trkpt><trkpt lat="43.8944917" lon="12.69745"><ele>155.0</ele><time>2026-04-25T13:30:12.937Z</time></trkpt><trkpt lat="43.8946067" lon="12.69734"><ele>155.0</ele><time>2026-04-25T13:30:13.937Z</time></trkpt><trkpt lat="43.89472" lon="12.6972433"><ele>155.0</ele><time>2026-04-25T13:30:14.937Z</time></trkpt><trkpt lat="43.8948283" lon="12.6971667"><ele>155.0</ele><time>2026-04-25T13:30:15.937Z</time></trkpt><trkpt lat="43.89493" lon="12.6971133"><ele>155.0</ele><time>2026-04-25T13:30:16.937Z</time></trkpt><trkpt lat="43.8950367" lon="12.6970767"><ele>155.0</ele><time>2026-04-25T13:30:17.937Z</time></trkpt><trkpt lat="43.8951517" lon="12.6970383"><ele>155.0</ele><time>2026-04-25T13:30:18.937Z</time></trkpt><trkpt lat="43.895275" lon="12.696995"><ele>155.0</ele><time>2026-04-25T13:30:19.937Z</time></trkpt><trkpt lat="43.8953933" lon="12.6969433"><ele>155.5</ele><time>2026-04-25T13:30:20.936Z</time></trkpt><trkpt lat="43.8955083" lon="12.6969"><ele>156.0</ele><time>2026-04-25T13:30:21.937Z</time></trkpt><trkpt lat="43.8956217" lon="12.6968867"><ele>156.5</ele><time>2026-04-25T13:30:22.937Z</time></trkpt><trkpt lat="43.8957367" lon="12.6969017"><ele>157.0</ele><time>2026-04-25T13:30:23.937Z</time></trkpt><trkpt lat="43.8958533" lon="12.69693"><ele>159.2</ele><time>2026-04-25T13:30:24.937Z</time></trkpt><trkpt lat="43.8959667" lon="12.6969567"><ele>161.39999999999998</ele><time>2026-04-25T13:30:25.937Z</time></trkpt><trkpt lat="43.8960767" lon="12.6969733"><ele>163.60000000000002</ele><time>2026-04-25T13:30:26.937Z</time></trkpt><trkpt lat="43.8961833" lon="12.6969683"><ele>165.8</ele><time>2026-04-25T13:30:27.937Z</time></trkpt><trkpt lat="43.8962783" lon="12.6969417"><ele>168.0</ele><time>2026-04-25T13:30:28.937Z</time></trkpt><trkpt lat="43.896365" lon="12.6968883"><ele>168.0</ele><time>2026-04-25T13:30:29.937Z</time></trkpt><trkpt lat="43.896445" lon="12.6968183"><ele>168.0</ele><time>2026-04-25T13:30:30.936Z</time></trkpt><trkpt lat="43.8965267" lon="12.6967467"><ele>168.0</ele><time>2026-04-25T13:30:31.936Z</time></trkpt><trkpt lat="43.896615" lon="12.6966767"><ele>168.0</ele><time>2026-04-25T13:30:32.937Z</time></trkpt><trkpt lat="43.89671" lon="12.6966067"><ele>168.0</ele><time>2026-04-25T13:30:33.937Z</time></trkpt><trkpt lat="43.896805" lon="12.6965283"><ele>167.25</ele><time>2026-04-25T13:30:34.937Z</time></trkpt><trkpt lat="43.8968933" lon="12.69644"><ele>166.5</ele><time>2026-04-25T13:30:35.937Z</time></trkpt><trkpt lat="43.8969717" lon="12.69633"><ele>165.75</ele><time>2026-04-25T13:30:36.937Z</time></trkpt><trkpt lat="43.8970383" lon="12.6962017"><ele>165.0</ele><time>2026-04-25T13:30:37.937Z</time></trkpt><trkpt lat="43.897105" lon="12.69606"><ele>165.0</ele><time>2026-04-25T13:30:38.937Z</time></trkpt><trkpt lat="43.89717" lon="12.69592"><ele>165.0</ele><time>2026-04-25T13:30:39.936Z</time></trkpt><trkpt lat="43.89723" lon="12.69579"><ele>165.0</ele><time>2026-04-25T13:30:40.937Z</time></trkpt><trkpt lat="43.8972817" lon="12.6956667"><ele>165.0</ele><time>2026-04-25T13:30:41.936Z</time></trkpt><trkpt lat="43.8973" lon="12.6955283"><ele>165.0</ele><time>2026-04-25T13:30:42.937Z</time></trkpt><trkpt lat="43.89729" lon="12.6953833"><ele>163.6</ele><time>2026-04-25T13:30:43.936Z</time></trkpt><trkpt lat="43.8972767" lon="12.695245"><ele>162.2</ele><time>2026-04-25T13:30:44.936Z</time></trkpt><trkpt lat="43.8972783" lon="12.6951033"><ele>160.8</ele><time>2026-04-25T13:30:45.937Z</time></trkpt><trkpt lat="43.8972867" lon="12.6949617"><ele>159.4</ele><time>2026-04-25T13:30:46.937Z</time></trkpt><trkpt lat="43.8972883" lon="12.6948233"><ele>158.0</ele><time>2026-04-25T13:30:47.937Z</time></trkpt><trkpt lat="43.8972817" lon="12.6946933"><ele>158.0</ele><time>2026-04-25T13:30:48.937Z</time></trkpt><trkpt lat="43.8972733" lon="12.6945883"><ele>158.0</ele><time>2026-04-25T13:30:49.937Z</time></trkpt><trkpt lat="43.8973" lon="12.6944933"><ele>158.0</ele><time>2026-04-25T13:30:51.937Z</time></trkpt><trkpt lat="43.8973583" lon="12.6945283"><ele>158.0</ele><time>2026-04-25T13:30:53.936Z</time></trkpt><trkpt lat="43.8974267" lon="12.6946283"><ele>158.0</ele><time>2026-04-25T13:30:55.937Z</time></trkpt><trkpt lat="43.8974733" lon="12.6947183"><ele>158.0</ele><time>2026-04-25T13:30:56.937Z</time></trkpt><trkpt lat="43.8975333" lon="12.69483"><ele>157.5</ele><time>2026-04-25T13:30:57.937Z</time></trkpt><trkpt lat="43.89761" lon="12.6949483"><ele>157.0</ele><time>2026-04-25T13:30:58.937Z</time></trkpt><trkpt lat="43.8976933" lon="12.69506"><ele>156.5</ele><time>2026-04-25T13:30:59.937Z</time></trkpt><trkpt lat="43.897775" lon="12.6951783"><ele>156.0</ele><time>2026-04-25T13:31:00.937Z</time></trkpt><trkpt lat="43.8978583" lon="12.6952983"><ele>156.0</ele><time>2026-04-25T13:31:01.936Z</time></trkpt><trkpt lat="43.8979417" lon="12.6954183"><ele>156.0</ele><time>2026-04-25T13:31:02.937Z</time></trkpt><trkpt lat="43.8980233" lon="12.695535"><ele>156.0</ele><time>2026-04-25T13:31:03.937Z</time></trkpt><trkpt lat="43.8981067" lon="12.695635"><ele>156.0</ele><time>2026-04-25T13:31:04.936Z</time></trkpt><trkpt lat="43.8982017" lon="12.69571"><ele>156.0</ele><time>2026-04-25T13:31:05.937Z</time></trkpt><trkpt lat="43.8982967" lon="12.6957867"><ele>156.0</ele><time>2026-04-25T13:31:06.937Z</time></trkpt><trkpt lat="43.8983917" lon="12.695875"><ele>156.0</ele><time>2026-04-25T13:31:07.936Z</time></trkpt><trkpt lat="43.89849" lon="12.6959533"><ele>156.0</ele><time>2026-04-25T13:31:08.936Z</time></trkpt><trkpt lat="43.89859" lon="12.696035"><ele>157.0</ele><time>2026-04-25T13:31:09.937Z</time></trkpt><trkpt lat="43.8986867" lon="12.6961283"><ele>158.0</ele><time>2026-04-25T13:31:10.937Z</time></trkpt><trkpt lat="43.8987883" lon="12.6962083"><ele>159.0</ele><time>2026-04-25T13:31:11.937Z</time></trkpt><trkpt lat="43.8988933" lon="12.6962733"><ele>160.0</ele><time>2026-04-25T13:31:12.937Z</time></trkpt><trkpt lat="43.899" lon="12.69633"><ele>160.0</ele><time>2026-04-25T13:31:13.936Z</time></trkpt><trkpt lat="43.8991" lon="12.6963817"><ele>160.0</ele><time>2026-04-25T13:31:14.937Z</time></trkpt><trkpt lat="43.8991933" lon="12.6964383"><ele>160.0</ele><time>2026-04-25T13:31:15.937Z</time></trkpt><trkpt lat="43.8992767" lon="12.6964933"><ele>160.0</ele><time>2026-04-25T13:31:16.937Z</time></trkpt><trkpt lat="43.8993533" lon="12.6965467"><ele>160.0</ele><time>2026-04-25T13:31:17.937Z</time></trkpt><trkpt lat="43.8994233" lon="12.6965933"><ele>159.0</ele><time>2026-04-25T13:31:18.937Z</time></trkpt><trkpt lat="43.8994867" lon="12.696645"><ele>158.0</ele><time>2026-04-25T13:31:19.936Z</time></trkpt><trkpt lat="43.89953" lon="12.6967133"><ele>157.0</ele><time>2026-04-25T13:31:20.937Z</time></trkpt><trkpt lat="43.8995583" lon="12.6967917"><ele>156.0</ele><time>2026-04-25T13:31:21.936Z</time></trkpt><trkpt lat="43.8996417" lon="12.6968817"><ele>155.0</ele><time>2026-04-25T13:31:23.937Z</time></trkpt><trkpt lat="43.8997067" lon="12.6968817"><ele>154.0</ele><time>2026-04-25T13:31:24.937Z</time></trkpt><trkpt lat="43.8997783" lon="12.6968817"><ele>153.0</ele><time>2026-04-25T13:31:25.937Z</time></trkpt><trkpt lat="43.89986" lon="12.6968817"><ele>153.0</ele><time>2026-04-25T13:31:26.937Z</time></trkpt><trkpt lat="43.8999533" lon="12.69688"><ele>153.0</ele><time>2026-04-25T13:31:27.937Z</time></trkpt><trkpt lat="43.9000517" lon="12.6968817"><ele>153.0</ele><time>2026-04-25T13:31:28.937Z</time></trkpt><trkpt lat="43.9001567" lon="12.69689"><ele>153.0</ele><time>2026-04-25T13:31:29.936Z</time></trkpt><trkpt lat="43.9002717" lon="12.6968983"><ele>153.0</ele><time>2026-04-25T13:31:30.937Z</time></trkpt><trkpt lat="43.9003917" lon="12.6969017"><ele>151.75</ele><time>2026-04-25T13:31:31.936Z</time></trkpt><trkpt lat="43.9005183" lon="12.696905"><ele>150.5</ele><time>2026-04-25T13:31:32.937Z</time></trkpt><trkpt lat="43.9006483" lon="12.6969083"><ele>149.25</ele><time>2026-04-25T13:31:33.937Z</time></trkpt><trkpt lat="43.9007817" lon="12.6969183"><ele>148.0</ele><time>2026-04-25T13:31:34.937Z</time></trkpt><trkpt lat="43.9009133" lon="12.696935"><ele>146.75</ele><time>2026-04-25T13:31:35.937Z</time></trkpt><trkpt lat="43.9010517" lon="12.6969533"><ele>145.5</ele><time>2026-04-25T13:31:36.937Z</time></trkpt><trkpt lat="43.901195" lon="12.6969717"><ele>144.25</ele><time>2026-04-25T13:31:37.937Z</time></trkpt><trkpt lat="43.9013433" lon="12.6970117"><ele>143.0</ele><time>2026-04-25T13:31:38.937Z</time></trkpt><trkpt lat="43.90149" lon="12.6970583"><ele>143.0</ele><time>2026-04-25T13:31:39.937Z</time></trkpt><trkpt lat="43.9016383" lon="12.6971017"><ele>143.0</ele><time>2026-04-25T13:31:40.936Z</time></trkpt><trkpt lat="43.90179" lon="12.6971417"><ele>143.0</ele><time>2026-04-25T13:31:41.936Z</time></trkpt><trkpt lat="43.9019417" lon="12.6971767"><ele>142.0</ele><time>2026-04-25T13:31:42.937Z</time></trkpt><trkpt lat="43.9020867" lon="12.6972133"><ele>141.0</ele><time>2026-04-25T13:31:43.937Z</time></trkpt><trkpt lat="43.902235" lon="12.697225"><ele>140.0</ele><time>2026-04-25T13:31:44.937Z</time></trkpt><trkpt lat="43.9023867" lon="12.6971983"><ele>139.0</ele><time>2026-04-25T13:31:45.936Z</time></trkpt><trkpt lat="43.9025367" lon="12.6971483"><ele>139.75</ele><time>2026-04-25T13:31:46.937Z</time></trkpt><trkpt lat="43.9026833" lon="12.6970817"><ele>140.5</ele><time>2026-04-25T13:31:47.936Z</time></trkpt><trkpt lat="43.9028217" lon="12.697005"><ele>141.25</ele><time>2026-04-25T13:31:48.937Z</time></trkpt><trkpt lat="43.9029583" lon="12.69695"><ele>142.0</ele><time>2026-04-25T13:31:49.937Z</time></trkpt><trkpt lat="43.9030983" lon="12.696915"><ele>142.25</ele><time>2026-04-25T13:31:50.937Z</time></trkpt><trkpt lat="43.9032383" lon="12.696885"><ele>142.5</ele><time>2026-04-25T13:31:51.937Z</time></trkpt><trkpt lat="43.90338" lon="12.696865"><ele>142.75</ele><time>2026-04-25T13:31:52.937Z</time></trkpt><trkpt lat="43.9035217" lon="12.6968417"><ele>143.0</ele><time>2026-04-25T13:31:53.937Z</time></trkpt><trkpt lat="43.9036583" lon="12.6968133"><ele>144.25</ele><time>2026-04-25T13:31:54.937Z</time></trkpt><trkpt lat="43.9037867" lon="12.6967783"><ele>145.5</ele><time>2026-04-25T13:31:55.937Z</time></trkpt><trkpt lat="43.9039067" lon="12.6967467"><ele>146.75</ele><time>2026-04-25T13:31:56.937Z</time></trkpt><trkpt lat="43.9040267" lon="12.69673"><ele>148.0</ele><time>2026-04-25T13:31:57.937Z</time></trkpt><trkpt lat="43.9041467" lon="12.69674"><ele>148.0</ele><time>2026-04-25T13:31:58.936Z</time></trkpt><trkpt lat="43.904265" lon="12.69678"><ele>148.0</ele><time>2026-04-25T13:31:59.936Z</time></trkpt><trkpt lat="43.90438" lon="12.6968517"><ele>148.0</ele><time>2026-04-25T13:32:00.937Z</time></trkpt><trkpt lat="43.9044883" lon="12.6969467"><ele>148.0</ele><time>2026-04-25T13:32:01.936Z</time></trkpt><trkpt lat="43.9045967" lon="12.6970533"><ele>149.0</ele><time>2026-04-25T13:32:02.937Z</time></trkpt><trkpt lat="43.9047017" lon="12.6971667"><ele>150.0</ele><time>2026-04-25T13:32:03.937Z</time></trkpt><trkpt lat="43.9048133" lon="12.69728"><ele>151.0</ele><time>2026-04-25T13:32:04.937Z</time></trkpt><trkpt lat="43.90493" lon="12.6973933"><ele>152.0</ele><time>2026-04-25T13:32:05.937Z</time></trkpt><trkpt lat="43.9050517" lon="12.69751"><ele>152.33333333333331</ele><time>2026-04-25T13:32:06.937Z</time></trkpt><trkpt lat="43.9051783" lon="12.697625"><ele>152.66666666666666</ele><time>2026-04-25T13:32:07.937Z</time></trkpt><trkpt lat="43.905305" lon="12.6977417"><ele>153.0</ele><time>2026-04-25T13:32:08.937Z</time></trkpt><trkpt lat="43.905435" lon="12.6978567"><ele>153.0</ele><time>2026-04-25T13:32:09.937Z</time></trkpt><trkpt lat="43.9055683" lon="12.6979733"><ele>153.0</ele><time>2026-04-25T13:32:10.937Z</time></trkpt><trkpt lat="43.9057" lon="12.6980883"><ele>153.0</ele><time>2026-04-25T13:32:11.937Z</time></trkpt><trkpt lat="43.9058317" lon="12.698205"><ele>152.0</ele><time>2026-04-25T13:32:12.937Z</time></trkpt><trkpt lat="43.9059633" lon="12.698315"><ele>151.0</ele><time>2026-04-25T13:32:13.937Z</time></trkpt><trkpt lat="43.9060917" lon="12.6984217"><ele>150.0</ele><time>2026-04-25T13:32:14.937Z</time></trkpt><trkpt lat="43.9062217" lon="12.6985267"><ele>150.5</ele><time>2026-04-25T13:32:15.937Z</time></trkpt><trkpt lat="43.9063483" lon="12.69863"><ele>151.0</ele><time>2026-04-25T13:32:16.936Z</time></trkpt><trkpt lat="43.9064717" lon="12.6987333"><ele>151.5</ele><time>2026-04-25T13:32:17.936Z</time></trkpt><trkpt lat="43.9065933" lon="12.6988367"><ele>152.0</ele><time>2026-04-25T13:32:18.937Z</time></trkpt><trkpt lat="43.9067133" lon="12.698935"><ele>150.75</ele><time>2026-04-25T13:32:19.937Z</time></trkpt><trkpt lat="43.9068367" lon="12.699035"><ele>149.5</ele><time>2026-04-25T13:32:20.937Z</time></trkpt><trkpt lat="43.9069617" lon="12.6991383"><ele>148.25</ele><time>2026-04-25T13:32:21.937Z</time></trkpt><trkpt lat="43.907085" lon="12.6992483"><ele>147.0</ele><time>2026-04-25T13:32:22.937Z</time></trkpt><trkpt lat="43.90721" lon="12.6993617"><ele>146.75</ele><time>2026-04-25T13:32:23.937Z</time></trkpt><trkpt lat="43.907335" lon="12.699475"><ele>146.5</ele><time>2026-04-25T13:32:24.937Z</time></trkpt><trkpt lat="43.9074533" lon="12.6995867"><ele>146.25</ele><time>2026-04-25T13:32:25.937Z</time></trkpt><trkpt lat="43.9075667" lon="12.699695"><ele>146.0</ele><time>2026-04-25T13:32:26.936Z</time></trkpt><trkpt lat="43.9076767" lon="12.699805"><ele>145.5</ele><time>2026-04-25T13:32:27.937Z</time></trkpt><trkpt lat="43.9077767" lon="12.6999317"><ele>145.0</ele><time>2026-04-25T13:32:28.937Z</time></trkpt><trkpt lat="43.9078667" lon="12.70007"><ele>144.5</ele><time>2026-04-25T13:32:29.937Z</time></trkpt><trkpt lat="43.90795" lon="12.7002083"><ele>144.0</ele><time>2026-04-25T13:32:30.937Z</time></trkpt><trkpt lat="43.9080333" lon="12.70034"><ele>144.0</ele><time>2026-04-25T13:32:31.937Z</time></trkpt><trkpt lat="43.9081133" lon="12.7004667"><ele>144.0</ele><time>2026-04-25T13:32:32.937Z</time></trkpt><trkpt lat="43.9082017" lon="12.7005733"><ele>144.0</ele><time>2026-04-25T13:32:33.937Z</time></trkpt><trkpt lat="43.9083" lon="12.7006483"><ele>144.0</ele><time>2026-04-25T13:32:34.937Z</time></trkpt><trkpt lat="43.908405" lon="12.7006867"><ele>142.75</ele><time>2026-04-25T13:32:35.937Z</time></trkpt><trkpt lat="43.9085133" lon="12.70068"><ele>141.5</ele><time>2026-04-25T13:32:36.936Z</time></trkpt><trkpt lat="43.90862" lon="12.7006317"><ele>140.25</ele><time>2026-04-25T13:32:37.937Z</time></trkpt><trkpt lat="43.9087283" lon="12.7005617"><ele>139.0</ele><time>2026-04-25T13:32:38.937Z</time></trkpt><trkpt lat="43.9088367" lon="12.7004933"><ele>139.0</ele><time>2026-04-25T13:32:39.937Z</time></trkpt><trkpt lat="43.908945" lon="12.700425"><ele>139.0</ele><time>2026-04-25T13:32:40.936Z</time></trkpt><trkpt lat="43.9090483" lon="12.7003467"><ele>139.0</ele><time>2026-04-25T13:32:41.936Z</time></trkpt><trkpt lat="43.9091567" lon="12.7002817"><ele>139.0</ele><time>2026-04-25T13:32:42.937Z</time></trkpt><trkpt lat="43.9092633" lon="12.700215"><ele>136.75</ele><time>2026-04-25T13:32:43.937Z</time></trkpt><trkpt lat="43.9093683" lon="12.7001467"><ele>134.5</ele><time>2026-04-25T13:32:44.937Z</time></trkpt><trkpt lat="43.9094717" lon="12.7000633"><ele>132.25</ele><time>2026-04-25T13:32:45.937Z</time></trkpt><trkpt lat="43.9095733" lon="12.6999617"><ele>130.0</ele><time>2026-04-25T13:32:46.937Z</time></trkpt><trkpt lat="43.9096717" lon="12.699835"><ele>130.0</ele><time>2026-04-25T13:32:47.936Z</time></trkpt><trkpt lat="43.909765" lon="12.69969"><ele>130.0</ele><time>2026-04-25T13:32:48.936Z</time></trkpt><trkpt lat="43.9098583" lon="12.699545"><ele>130.0</ele><time>2026-04-25T13:32:49.937Z</time></trkpt><trkpt lat="43.909955" lon="12.6994"><ele>130.0</ele><time>2026-04-25T13:32:50.937Z</time></trkpt><trkpt lat="43.91005" lon="12.699255"><ele>128.0</ele><time>2026-04-25T13:32:51.937Z</time></trkpt><trkpt lat="43.9101433" lon="12.6991"><ele>126.0</ele><time>2026-04-25T13:32:52.937Z</time></trkpt><trkpt lat="43.9102367" lon="12.6989483"><ele>124.0</ele><time>2026-04-25T13:32:53.937Z</time></trkpt><trkpt lat="43.9103283" lon="12.6988033"><ele>122.0</ele><time>2026-04-25T13:32:54.937Z</time></trkpt><trkpt lat="43.9104233" lon="12.6986617"><ele>123.25</ele><time>2026-04-25T13:32:55.936Z</time></trkpt><trkpt lat="43.91052" lon="12.6985217"><ele>124.5</ele><time>2026-04-25T13:32:56.937Z</time></trkpt><trkpt lat="43.9106133" lon="12.6983817"><ele>125.75</ele><time>2026-04-25T13:32:57.937Z</time></trkpt><trkpt lat="43.910705" lon="12.6982417"><ele>127.0</ele><time>2026-04-25T13:32:58.936Z</time></trkpt><trkpt lat="43.9107967" lon="12.6980967"><ele>127.0</ele><time>2026-04-25T13:32:59.937Z</time></trkpt><trkpt lat="43.91089" lon="12.69795"><ele>127.0</ele><time>2026-04-25T13:33:00.937Z</time></trkpt><trkpt lat="43.91098" lon="12.697815"><ele>127.0</ele><time>2026-04-25T13:33:01.936Z</time></trkpt><trkpt lat="43.91107" lon="12.6976767"><ele>127.0</ele><time>2026-04-25T13:33:02.937Z</time></trkpt><trkpt lat="43.911155" lon="12.6975367"><ele>127.0</ele><time>2026-04-25T13:33:03.937Z</time></trkpt><trkpt lat="43.9112433" lon="12.6974"><ele>127.0</ele><time>2026-04-25T13:33:04.937Z</time></trkpt><trkpt lat="43.9113317" lon="12.6972683"><ele>127.0</ele><time>2026-04-25T13:33:05.937Z</time></trkpt><trkpt lat="43.9114233" lon="12.6971433"><ele>127.0</ele><time>2026-04-25T13:33:06.937Z</time></trkpt><trkpt lat="43.9115267" lon="12.69703"><ele>127.0</ele><time>2026-04-25T13:33:07.936Z</time></trkpt><trkpt lat="43.9116417" lon="12.6969317"><ele>127.0</ele><time>2026-04-25T13:33:08.936Z</time></trkpt><trkpt lat="43.911765" lon="12.6968433"><ele>127.0</ele><time>2026-04-25T13:33:09.937Z</time></trkpt><trkpt lat="43.9118967" lon="12.6967667"><ele>127.0</ele><time>2026-04-25T13:33:10.937Z</time></trkpt><trkpt lat="43.9120267" lon="12.6966767"><ele>127.0</ele><time>2026-04-25T13:33:11.937Z</time></trkpt><trkpt lat="43.9121583" lon="12.6965883"><ele>127.0</ele><time>2026-04-25T13:33:12.936Z</time></trkpt><trkpt lat="43.912295" lon="12.6965133"><ele>127.0</ele><time>2026-04-25T13:33:13.937Z</time></trkpt><trkpt lat="43.9124267" lon="12.6964233"><ele>127.0</ele><time>2026-04-25T13:33:14.937Z</time></trkpt><trkpt lat="43.9125583" lon="12.69633"><ele>127.5</ele><time>2026-04-25T13:33:15.937Z</time></trkpt><trkpt lat="43.91269" lon="12.696245"><ele>128.0</ele><time>2026-04-25T13:33:16.937Z</time></trkpt><trkpt lat="43.91282" lon="12.69616"><ele>128.5</ele><time>2026-04-25T13:33:17.937Z</time></trkpt><trkpt lat="43.91295" lon="12.6960883"><ele>129.0</ele><time>2026-04-25T13:33:18.937Z</time></trkpt><trkpt lat="43.9130733" lon="12.6960017"><ele>129.0</ele><time>2026-04-25T13:33:19.937Z</time></trkpt><trkpt lat="43.913195" lon="12.6959133"><ele>129.0</ele><time>2026-04-25T13:33:20.937Z</time></trkpt><trkpt lat="43.9133183" lon="12.695835"><ele>129.0</ele><time>2026-04-25T13:33:21.937Z</time></trkpt><trkpt lat="43.91344" lon="12.6957533"><ele>129.0</ele><time>2026-04-25T13:33:22.937Z</time></trkpt><trkpt lat="43.913555" lon="12.6956583"><ele>128.75</ele><time>2026-04-25T13:33:23.937Z</time></trkpt><trkpt lat="43.9136617" lon="12.6955483"><ele>128.5</ele><time>2026-04-25T13:33:24.937Z</time></trkpt><trkpt lat="43.913755" lon="12.6954317"><ele>128.25</ele><time>2026-04-25T13:33:25.937Z</time></trkpt><trkpt lat="43.9138417" lon="12.69531"><ele>128.0</ele><time>2026-04-25T13:33:26.936Z</time></trkpt><trkpt lat="43.9139133" lon="12.6951667"><ele>128.0</ele><time>2026-04-25T13:33:27.937Z</time></trkpt><trkpt lat="43.9139767" lon="12.695015"><ele>128.0</ele><time>2026-04-25T13:33:28.936Z</time></trkpt><trkpt lat="43.9140433" lon="12.694865"><ele>128.0</ele><time>2026-04-25T13:33:29.937Z</time></trkpt><trkpt lat="43.914135" lon="12.6947367"><ele>128.0</ele><time>2026-04-25T13:33:30.937Z</time></trkpt><trkpt lat="43.9142467" lon="12.6946333"><ele>127.0</ele><time>2026-04-25T13:33:31.937Z</time></trkpt><trkpt lat="43.9143733" lon="12.6945467"><ele>126.0</ele><time>2026-04-25T13:33:32.937Z</time></trkpt><trkpt lat="43.9145083" lon="12.6944767"><ele>125.0</ele><time>2026-04-25T13:33:33.936Z</time></trkpt><trkpt lat="43.9146433" lon="12.6944"><ele>124.0</ele><time>2026-04-25T13:33:34.937Z</time></trkpt><trkpt lat="43.9147817" lon="12.6943233"><ele>124.0</ele><time>2026-04-25T13:33:35.937Z</time></trkpt><trkpt lat="43.91492" lon="12.694235"><ele>124.0</ele><time>2026-04-25T13:33:36.937Z</time></trkpt><trkpt lat="43.9150567" lon="12.6941483"><ele>124.0</ele><time>2026-04-25T13:33:37.936Z</time></trkpt><trkpt lat="43.915195" lon="12.694065"><ele>122.5</ele><time>2026-04-25T13:33:38.937Z</time></trkpt><trkpt lat="43.9153317" lon="12.69398"><ele>121.0</ele><time>2026-04-25T13:33:39.937Z</time></trkpt><trkpt lat="43.9154683" lon="12.6939033"><ele>119.5</ele><time>2026-04-25T13:33:40.936Z</time></trkpt><trkpt lat="43.9156083" lon="12.69385"><ele>118.0</ele><time>2026-04-25T13:33:41.936Z</time></trkpt><trkpt lat="43.91575" lon="12.6938"><ele>118.0</ele><time>2026-04-25T13:33:42.937Z</time></trkpt><trkpt lat="43.9158917" lon="12.6937533"><ele>118.0</ele><time>2026-04-25T13:33:43.937Z</time></trkpt><trkpt lat="43.91604" lon="12.69372"><ele>118.0</ele><time>2026-04-25T13:33:44.937Z</time></trkpt><trkpt lat="43.9161833" lon="12.6936867"><ele>118.0</ele><time>2026-04-25T13:33:45.937Z</time></trkpt><trkpt lat="43.9163267" lon="12.693665"><ele>117.25</ele><time>2026-04-25T13:33:46.937Z</time></trkpt><trkpt lat="43.9164667" lon="12.6936467"><ele>116.5</ele><time>2026-04-25T13:33:47.937Z</time></trkpt><trkpt lat="43.9166083" lon="12.6936233"><ele>115.75</ele><time>2026-04-25T13:33:48.937Z</time></trkpt><trkpt lat="43.9167483" lon="12.6935967"><ele>115.0</ele><time>2026-04-25T13:33:49.937Z</time></trkpt><trkpt lat="43.9168917" lon="12.6935817"><ele>115.0</ele><time>2026-04-25T13:33:50.937Z</time></trkpt><trkpt lat="43.9170367" lon="12.6935617"><ele>115.0</ele><time>2026-04-25T13:33:51.936Z</time></trkpt><trkpt lat="43.917185" lon="12.6935533"><ele>115.0</ele><time>2026-04-25T13:33:52.937Z</time></trkpt><trkpt lat="43.9173333" lon="12.6935533"><ele>115.0</ele><time>2026-04-25T13:33:53.936Z</time></trkpt><trkpt lat="43.9174783" lon="12.69356"><ele>115.5</ele><time>2026-04-25T13:33:54.937Z</time></trkpt><trkpt lat="43.9176267" lon="12.6935667"><ele>116.0</ele><time>2026-04-25T13:33:55.937Z</time></trkpt><trkpt lat="43.9177733" lon="12.6935717"><ele>116.5</ele><time>2026-04-25T13:33:56.937Z</time></trkpt><trkpt lat="43.91792" lon="12.6935783"><ele>117.0</ele><time>2026-04-25T13:33:57.937Z</time></trkpt><trkpt lat="43.9180667" lon="12.693575"><ele>117.0</ele><time>2026-04-25T13:33:58.937Z</time></trkpt><trkpt lat="43.9182133" lon="12.6935833"><ele>117.0</ele><time>2026-04-25T13:33:59.937Z</time></trkpt><trkpt lat="43.9183617" lon="12.6935883"><ele>117.0</ele><time>2026-04-25T13:34:00.936Z</time></trkpt><trkpt lat="43.91851" lon="12.6936"><ele>117.0</ele><time>2026-04-25T13:34:01.936Z</time></trkpt><trkpt lat="43.91866" lon="12.6936117"><ele>118.0</ele><time>2026-04-25T13:34:02.937Z</time></trkpt><trkpt lat="43.9188083" lon="12.69363"><ele>119.0</ele><time>2026-04-25T13:34:03.937Z</time></trkpt><trkpt lat="43.918955" lon="12.693645"><ele>120.0</ele><time>2026-04-25T13:34:04.936Z</time></trkpt><trkpt lat="43.9190933" lon="12.6936667"><ele>121.0</ele><time>2026-04-25T13:34:05.937Z</time></trkpt><trkpt lat="43.9192233" lon="12.6937067"><ele>121.0</ele><time>2026-04-25T13:34:06.937Z</time></trkpt><trkpt lat="43.919345" lon="12.6937683"><ele>121.0</ele><time>2026-04-25T13:34:07.937Z</time></trkpt><trkpt lat="43.9194667" lon="12.69384"><ele>121.0</ele><time>2026-04-25T13:34:08.937Z</time></trkpt><trkpt lat="43.91959" lon="12.6939067"><ele>121.0</ele><time>2026-04-25T13:34:09.937Z</time></trkpt><trkpt lat="43.9197233" lon="12.69396"><ele>121.0</ele><time>2026-04-25T13:34:10.937Z</time></trkpt><trkpt lat="43.919865" lon="12.6939867"><ele>121.0</ele><time>2026-04-25T13:34:11.936Z</time></trkpt><trkpt lat="43.9200083" lon="12.6940033"><ele>121.0</ele><time>2026-04-25T13:34:12.937Z</time></trkpt><trkpt lat="43.92015" lon="12.694015"><ele>121.0</ele><time>2026-04-25T13:34:13.937Z</time></trkpt><trkpt lat="43.9202867" lon="12.69403"><ele>120.25</ele><time>2026-04-25T13:34:14.936Z</time></trkpt><trkpt lat="43.920425" lon="12.69405"><ele>119.5</ele><time>2026-04-25T13:34:15.937Z</time></trkpt><trkpt lat="43.9205633" lon="12.6940833"><ele>118.75</ele><time>2026-04-25T13:34:16.937Z</time></trkpt><trkpt lat="43.9207033" lon="12.69414"><ele>118.0</ele><time>2026-04-25T13:34:17.937Z</time></trkpt><trkpt lat="43.92085" lon="12.6941983"><ele>117.33333333333334</ele><time>2026-04-25T13:34:18.936Z</time></trkpt><trkpt lat="43.9210033" lon="12.6942633"><ele>116.66666666666666</ele><time>2026-04-25T13:34:19.937Z</time></trkpt><trkpt lat="43.9211617" lon="12.6943367"><ele>116.0</ele><time>2026-04-25T13:34:20.937Z</time></trkpt><trkpt lat="43.921325" lon="12.6944183"><ele>114.33333333333333</ele><time>2026-04-25T13:34:21.936Z</time></trkpt><trkpt lat="43.9214867" lon="12.6945017"><ele>112.66666666666666</ele><time>2026-04-25T13:34:22.937Z</time></trkpt><trkpt lat="43.9216367" lon="12.6945833"><ele>111.0</ele><time>2026-04-25T13:34:23.937Z</time></trkpt><trkpt lat="43.9217833" lon="12.694665"><ele>111.0</ele><time>2026-04-25T13:34:24.937Z</time></trkpt><trkpt lat="43.9219233" lon="12.6947467"><ele>111.0</ele><time>2026-04-25T13:34:25.937Z</time></trkpt><trkpt lat="43.9220533" lon="12.6948267"><ele>111.0</ele><time>2026-04-25T13:34:26.937Z</time></trkpt><trkpt lat="43.9221783" lon="12.6949133"><ele>111.0</ele><time>2026-04-25T13:34:27.936Z</time></trkpt><trkpt lat="43.922295" lon="12.6950117"><ele>111.0</ele><time>2026-04-25T13:34:28.937Z</time></trkpt><trkpt lat="43.9224" lon="12.6951317"><ele>111.0</ele><time>2026-04-25T13:34:29.937Z</time></trkpt><trkpt lat="43.92249" lon="12.6952667"><ele>111.0</ele><time>2026-04-25T13:34:30.937Z</time></trkpt><trkpt lat="43.922575" lon="12.6954"><ele>111.0</ele><time>2026-04-25T13:34:31.937Z</time></trkpt><trkpt lat="43.9226583" lon="12.695525"><ele>110.5</ele><time>2026-04-25T13:34:32.936Z</time></trkpt><trkpt lat="43.9227517" lon="12.6956333"><ele>110.0</ele><time>2026-04-25T13:34:33.936Z</time></trkpt><trkpt lat="43.9228517" lon="12.6957283"><ele>109.5</ele><time>2026-04-25T13:34:34.937Z</time></trkpt><trkpt lat="43.9229583" lon="12.6958117"><ele>109.0</ele><time>2026-04-25T13:34:35.937Z</time></trkpt><trkpt lat="43.9230767" lon="12.6958817"><ele>109.0</ele><time>2026-04-25T13:34:36.936Z</time></trkpt><trkpt lat="43.9231917" lon="12.69596"><ele>109.0</ele><time>2026-04-25T13:34:37.937Z</time></trkpt><trkpt lat="43.9233083" lon="12.69604"><ele>109.0</ele><time>2026-04-25T13:34:38.937Z</time></trkpt><trkpt lat="43.9234317" lon="12.6961133"><ele>109.0</ele><time>2026-04-25T13:34:39.937Z</time></trkpt><trkpt lat="43.9235533" lon="12.6961933"><ele>109.0</ele><time>2026-04-25T13:34:40.936Z</time></trkpt><trkpt lat="43.923675" lon="12.6962767"><ele>109.0</ele><time>2026-04-25T13:34:41.936Z</time></trkpt><trkpt lat="43.9237967" lon="12.6963583"><ele>109.0</ele><time>2026-04-25T13:34:42.936Z</time></trkpt><trkpt lat="43.9239167" lon="12.6964417"><ele>109.0</ele><time>2026-04-25T13:34:43.937Z</time></trkpt><trkpt lat="43.9240367" lon="12.696525"><ele>109.0</ele><time>2026-04-25T13:34:44.937Z</time></trkpt><trkpt lat="43.9241567" lon="12.6966133"><ele>109.0</ele><time>2026-04-25T13:34:45.937Z</time></trkpt><trkpt lat="43.92427" lon="12.69671"><ele>109.0</ele><time>2026-04-25T13:34:46.937Z</time></trkpt><trkpt lat="43.92438" lon="12.6968117"><ele>109.0</ele><time>2026-04-25T13:34:47.937Z</time></trkpt><trkpt lat="43.9244733" lon="12.69694"><ele>109.0</ele><time>2026-04-25T13:34:48.937Z</time></trkpt><trkpt lat="43.9245633" lon="12.6970767"><ele>109.0</ele><time>2026-04-25T13:34:49.937Z</time></trkpt><trkpt lat="43.9246417" lon="12.697225"><ele>109.0</ele><time>2026-04-25T13:34:50.937Z</time></trkpt><trkpt lat="43.9247117" lon="12.6973767"><ele>109.0</ele><time>2026-04-25T13:34:51.936Z</time></trkpt><trkpt lat="43.924775" lon="12.697535"><ele>109.0</ele><time>2026-04-25T13:34:52.936Z</time></trkpt><trkpt lat="43.9248317" lon="12.6977"><ele>109.0</ele><time>2026-04-25T13:34:53.936Z</time></trkpt><trkpt lat="43.924885" lon="12.6978717"><ele>109.0</ele><time>2026-04-25T13:34:54.937Z</time></trkpt><trkpt lat="43.9249383" lon="12.6980483"><ele>109.0</ele><time>2026-04-25T13:34:55.937Z</time></trkpt><trkpt lat="43.9249917" lon="12.698225"><ele>109.25</ele><time>2026-04-25T13:34:56.937Z</time></trkpt><trkpt lat="43.9250433" lon="12.6984083"><ele>109.5</ele><time>2026-04-25T13:34:57.937Z</time></trkpt><trkpt lat="43.9250967" lon="12.6985867"><ele>109.75</ele><time>2026-04-25T13:34:58.937Z</time></trkpt><trkpt lat="43.9251483" lon="12.6987667"><ele>110.0</ele><time>2026-04-25T13:34:59.936Z</time></trkpt><trkpt lat="43.9252033" lon="12.698945"><ele>109.5</ele><time>2026-04-25T13:35:00.937Z</time></trkpt><trkpt lat="43.925265" lon="12.6991167"><ele>109.0</ele><time>2026-04-25T13:35:01.936Z</time></trkpt><trkpt lat="43.9253383" lon="12.6992767"><ele>108.5</ele><time>2026-04-25T13:35:02.937Z</time></trkpt><trkpt lat="43.925415" lon="12.6994317"><ele>108.0</ele><time>2026-04-25T13:35:03.936Z</time></trkpt><trkpt lat="43.9254917" lon="12.699585"><ele>108.0</ele><time>2026-04-25T13:35:04.937Z</time></trkpt><trkpt lat="43.9255617" lon="12.6997383"><ele>108.0</ele><time>2026-04-25T13:35:05.937Z</time></trkpt><trkpt lat="43.9256367" lon="12.6998917"><ele>108.0</ele><time>2026-04-25T13:35:06.937Z</time></trkpt><trkpt lat="43.925705" lon="12.7000517"><ele>108.0</ele><time>2026-04-25T13:35:07.937Z</time></trkpt><trkpt lat="43.9257667" lon="12.7002167"><ele>109.5</ele><time>2026-04-25T13:35:08.937Z</time></trkpt><trkpt lat="43.925825" lon="12.700385"><ele>111.0</ele><time>2026-04-25T13:35:09.937Z</time></trkpt><trkpt lat="43.925875" lon="12.700555"><ele>112.5</ele><time>2026-04-25T13:35:10.937Z</time></trkpt><trkpt lat="43.9259283" lon="12.7007267"><ele>114.0</ele><time>2026-04-25T13:35:11.937Z</time></trkpt><trkpt lat="43.92598" lon="12.7008917"><ele>112.5</ele><time>2026-04-25T13:35:12.937Z</time></trkpt><trkpt lat="43.9260333" lon="12.7010483"><ele>111.0</ele><time>2026-04-25T13:35:13.937Z</time></trkpt><trkpt lat="43.926085" lon="12.7011933"><ele>109.5</ele><time>2026-04-25T13:35:14.937Z</time></trkpt><trkpt lat="43.9261433" lon="12.7013267"><ele>108.0</ele><time>2026-04-25T13:35:15.937Z</time></trkpt><trkpt lat="43.9262167" lon="12.70145"><ele>108.0</ele><time>2026-04-25T13:35:16.936Z</time></trkpt><trkpt lat="43.9262983" lon="12.701565"><ele>108.0</ele><time>2026-04-25T13:35:17.936Z</time></trkpt><trkpt lat="43.92639" lon="12.701675"><ele>108.0</ele><time>2026-04-25T13:35:18.937Z</time></trkpt><trkpt lat="43.9264867" lon="12.7017883"><ele>108.0</ele><time>2026-04-25T13:35:19.936Z</time></trkpt><trkpt lat="43.9265883" lon="12.7019017"><ele>108.5</ele><time>2026-04-25T13:35:20.937Z</time></trkpt><trkpt lat="43.92669" lon="12.7020183"><ele>109.0</ele><time>2026-04-25T13:35:21.936Z</time></trkpt><trkpt lat="43.9267933" lon="12.7021383"><ele>109.5</ele><time>2026-04-25T13:35:22.937Z</time></trkpt><trkpt lat="43.9268967" lon="12.702265"><ele>110.0</ele><time>2026-04-25T13:35:23.936Z</time></trkpt><trkpt lat="43.9270033" lon="12.7023867"><ele>108.0</ele><time>2026-04-25T13:35:24.937Z</time></trkpt><trkpt lat="43.92711" lon="12.7024983"><ele>106.0</ele><time>2026-04-25T13:35:25.937Z</time></trkpt><trkpt lat="43.9272233" lon="12.7025967"><ele>104.0</ele><time>2026-04-25T13:35:26.937Z</time></trkpt><trkpt lat="43.9273367" lon="12.7026983"><ele>102.0</ele><time>2026-04-25T13:35:27.937Z</time></trkpt><trkpt lat="43.9274417" lon="12.702815"><ele>101.75</ele><time>2026-04-25T13:35:28.937Z</time></trkpt><trkpt lat="43.92754" lon="12.70294"><ele>101.5</ele><time>2026-04-25T13:35:29.937Z</time></trkpt><trkpt lat="43.9276383" lon="12.7030717"><ele>101.25</ele><time>2026-04-25T13:35:30.937Z</time></trkpt><trkpt lat="43.9277317" lon="12.70321"><ele>101.0</ele><time>2026-04-25T13:35:31.937Z</time></trkpt><trkpt lat="43.927825" lon="12.7033467"><ele>100.0</ele><time>2026-04-25T13:35:32.936Z</time></trkpt><trkpt lat="43.9279183" lon="12.7034783"><ele>99.0</ele><time>2026-04-25T13:35:33.937Z</time></trkpt><trkpt lat="43.9280133" lon="12.7036067"><ele>98.0</ele><time>2026-04-25T13:35:34.937Z</time></trkpt><trkpt lat="43.928115" lon="12.7037283"><ele>97.0</ele><time>2026-04-25T13:35:35.937Z</time></trkpt><trkpt lat="43.9282252" lon="12.7038411"><ele>97.0</ele><time>2026-04-25T13:35:36.937Z</time></trkpt><trkpt lat="43.9283392" lon="12.7039467"><ele>97.0</ele><time>2026-04-25T13:35:37.937Z</time></trkpt><trkpt lat="43.9284583" lon="12.7040424"><ele>97.0</ele><time>2026-04-25T13:35:38.937Z</time></trkpt><trkpt lat="43.928573" lon="12.7041407"><ele>97.0</ele><time>2026-04-25T13:35:39.937Z</time></trkpt><trkpt lat="43.9286851" lon="12.7042449"><ele>97.25</ele><time>2026-04-25T13:35:40.937Z</time></trkpt><trkpt lat="43.9287955" lon="12.7043421"><ele>97.5</ele><time>2026-04-25T13:35:41.937Z</time></trkpt><trkpt lat="43.9289001" lon="12.7044445"><ele>97.75</ele><time>2026-04-25T13:35:42.937Z</time></trkpt><trkpt lat="43.9290048" lon="12.7045524"><ele>98.0</ele><time>2026-04-25T13:35:43.937Z</time></trkpt><trkpt lat="43.9290996" lon="12.7046749"><ele>98.0</ele><time>2026-04-25T13:35:44.937Z</time></trkpt><trkpt lat="43.92918" lon="12.7048144"><ele>98.0</ele><time>2026-04-25T13:35:45.937Z</time></trkpt><trkpt lat="43.9292415" lon="12.7049746"><ele>98.0</ele><time>2026-04-25T13:35:46.937Z</time></trkpt><trkpt lat="43.9292938" lon="12.7051431"><ele>98.0</ele><time>2026-04-25T13:35:47.937Z</time></trkpt><trkpt lat="43.9293484" lon="12.7053089"><ele>98.25</ele><time>2026-04-25T13:35:48.937Z</time></trkpt><trkpt lat="43.9294096" lon="12.7054657"><ele>98.5</ele><time>2026-04-25T13:35:49.937Z</time></trkpt><trkpt lat="43.9294831" lon="12.7056131"><ele>98.75</ele><time>2026-04-25T13:35:50.937Z</time></trkpt><trkpt lat="43.9295647" lon="12.7057552"><ele>99.0</ele><time>2026-04-25T13:35:51.936Z</time></trkpt><trkpt lat="43.9296537" lon="12.7058889"><ele>99.0</ele><time>2026-04-25T13:35:52.937Z</time></trkpt><trkpt lat="43.929749" lon="12.706019"><ele>99.0</ele><time>2026-04-25T13:35:53.937Z</time></trkpt><trkpt lat="43.9298438" lon="12.7061483"><ele>99.0</ele><time>2026-04-25T13:35:54.937Z</time></trkpt><trkpt lat="43.929937" lon="12.7062734"><ele>99.0</ele><time>2026-04-25T13:35:55.937Z</time></trkpt><trkpt lat="43.9300275" lon="12.7063921"><ele>96.75</ele><time>2026-04-25T13:35:56.937Z</time></trkpt><trkpt lat="43.9301147" lon="12.7065051"><ele>94.5</ele><time>2026-04-25T13:35:57.938Z</time></trkpt><trkpt lat="43.930203" lon="12.7066098"><ele>92.25</ele><time>2026-04-25T13:35:58.938Z</time></trkpt><trkpt lat="43.9302991" lon="12.7067025"><ele>90.0</ele><time>2026-04-25T13:35:59.938Z</time></trkpt><trkpt lat="43.9304022" lon="12.7067756"><ele>90.0</ele><time>2026-04-25T13:36:00.937Z</time></trkpt><trkpt lat="43.9305101" lon="12.7068315"><ele>90.0</ele><time>2026-04-25T13:36:01.938Z</time></trkpt><trkpt lat="43.9306192" lon="12.7068844"><ele>90.0</ele><time>2026-04-25T13:36:02.938Z</time></trkpt><trkpt lat="43.9307235" lon="12.7069531"><ele>90.0</ele><time>2026-04-25T13:36:03.938Z</time></trkpt><trkpt lat="43.9308202" lon="12.7070459"><ele>88.5</ele><time>2026-04-25T13:36:04.937Z</time></trkpt><trkpt lat="43.9309061" lon="12.7071641"><ele>87.0</ele><time>2026-04-25T13:36:05.938Z</time></trkpt><trkpt lat="43.9309867" lon="12.7072945"><ele>85.5</ele><time>2026-04-25T13:36:06.938Z</time></trkpt><trkpt lat="43.9310729" lon="12.7074182"><ele>84.0</ele><time>2026-04-25T13:36:07.938Z</time></trkpt><trkpt lat="43.9311728" lon="12.7075196"><ele>84.0</ele><time>2026-04-25T13:36:08.938Z</time></trkpt><trkpt lat="43.9312893" lon="12.7075923"><ele>84.0</ele><time>2026-04-25T13:36:09.938Z</time></trkpt><trkpt lat="43.9314102" lon="12.7076557"><ele>84.0</ele><time>2026-04-25T13:36:10.937Z</time></trkpt><trkpt lat="43.9315318" lon="12.7077197"><ele>84.0</ele><time>2026-04-25T13:36:11.938Z</time></trkpt><trkpt lat="43.9316497" lon="12.7078033"><ele>82.75</ele><time>2026-04-25T13:36:12.938Z</time></trkpt><trkpt lat="43.9317596" lon="12.7079101"><ele>81.5</ele><time>2026-04-25T13:36:13.938Z</time></trkpt><trkpt lat="43.9318643" lon="12.7080271"><ele>80.25</ele><time>2026-04-25T13:36:14.938Z</time></trkpt><trkpt lat="43.9319645" lon="12.708152"><ele>79.0</ele><time>2026-04-25T13:36:15.938Z</time></trkpt><trkpt lat="43.9320661" lon="12.7082772"><ele>79.0</ele><time>2026-04-25T13:36:16.938Z</time></trkpt><trkpt lat="43.9321689" lon="12.7084013"><ele>79.0</ele><time>2026-04-25T13:36:17.937Z</time></trkpt><trkpt lat="43.9322799" lon="12.7085165"><ele>79.0</ele><time>2026-04-25T13:36:18.938Z</time></trkpt><trkpt lat="43.9323942" lon="12.7086212"><ele>79.0</ele><time>2026-04-25T13:36:19.938Z</time></trkpt><trkpt lat="43.9325103" lon="12.7087213"><ele>75.0</ele><time>2026-04-25T13:36:20.938Z</time></trkpt><trkpt lat="43.9326258" lon="12.7088295"><ele>71.0</ele><time>2026-04-25T13:36:21.938Z</time></trkpt><trkpt lat="43.9327344" lon="12.7089439"><ele>67.0</ele><time>2026-04-25T13:36:22.938Z</time></trkpt><trkpt lat="43.9328378" lon="12.7090615"><ele>63.0</ele><time>2026-04-25T13:36:23.937Z</time></trkpt><trkpt lat="43.9329392" lon="12.7091745"><ele>63.0</ele><time>2026-04-25T13:36:24.937Z</time></trkpt><trkpt lat="43.9330379" lon="12.7092849"><ele>63.0</ele><time>2026-04-25T13:36:25.938Z</time></trkpt><trkpt lat="43.9331336" lon="12.7093912"><ele>63.0</ele><time>2026-04-25T13:36:26.938Z</time></trkpt><trkpt lat="43.9332193" lon="12.7095013"><ele>63.0</ele><time>2026-04-25T13:36:27.937Z</time></trkpt><trkpt lat="43.9332934" lon="12.7096272"><ele>64.5</ele><time>2026-04-25T13:36:28.938Z</time></trkpt><trkpt lat="43.9333613" lon="12.7097659"><ele>66.0</ele><time>2026-04-25T13:36:29.938Z</time></trkpt><trkpt lat="43.9334308" lon="12.7099129"><ele>67.5</ele><time>2026-04-25T13:36:30.938Z</time></trkpt><trkpt lat="43.93351" lon="12.7100541"><ele>69.0</ele><time>2026-04-25T13:36:31.938Z</time></trkpt><trkpt lat="43.9335917" lon="12.7101904"><ele>66.5</ele><time>2026-04-25T13:36:32.938Z</time></trkpt><trkpt lat="43.9336607" lon="12.7103334"><ele>64.0</ele><time>2026-04-25T13:36:33.938Z</time></trkpt><trkpt lat="43.9337277" lon="12.7104729"><ele>61.5</ele><time>2026-04-25T13:36:34.938Z</time></trkpt><trkpt lat="43.9337851" lon="12.7106203"><ele>59.0</ele><time>2026-04-25T13:36:35.938Z</time></trkpt><trkpt lat="43.933829" lon="12.7107755"><ele>59.0</ele><time>2026-04-25T13:36:36.938Z</time></trkpt><trkpt lat="43.933857" lon="12.7109358"><ele>59.0</ele><time>2026-04-25T13:36:37.938Z</time></trkpt><trkpt lat="43.9338849" lon="12.7110939"><ele>59.0</ele><time>2026-04-25T13:36:38.938Z</time></trkpt><trkpt lat="43.9339155" lon="12.7112486"><ele>59.0</ele><time>2026-04-25T13:36:39.938Z</time></trkpt><trkpt lat="43.9339431" lon="12.7114036"><ele>58.5</ele><time>2026-04-25T13:36:40.938Z</time></trkpt><trkpt lat="43.9339615" lon="12.7115587"><ele>58.0</ele><time>2026-04-25T13:36:41.938Z</time></trkpt><trkpt lat="43.9339582" lon="12.7117179"><ele>57.5</ele><time>2026-04-25T13:36:42.938Z</time></trkpt><trkpt lat="43.9339303" lon="12.7118797"><ele>57.0</ele><time>2026-04-25T13:36:43.938Z</time></trkpt><trkpt lat="43.9338865" lon="12.7120416"><ele>55.75</ele><time>2026-04-25T13:36:44.937Z</time></trkpt><trkpt lat="43.9338373" lon="12.7122036"><ele>54.5</ele><time>2026-04-25T13:36:45.938Z</time></trkpt><trkpt lat="43.933788" lon="12.7123641"><ele>53.25</ele><time>2026-04-25T13:36:46.938Z</time></trkpt><trkpt lat="43.9337412" lon="12.7125255"><ele>52.0</ele><time>2026-04-25T13:36:47.938Z</time></trkpt><trkpt lat="43.9337052" lon="12.7126916"><ele>51.0</ele><time>2026-04-25T13:36:48.937Z</time></trkpt><trkpt lat="43.9336957" lon="12.7128652"><ele>50.0</ele><time>2026-04-25T13:36:49.938Z</time></trkpt><trkpt lat="43.9336988" lon="12.713039"><ele>49.0</ele><time>2026-04-25T13:36:50.938Z</time></trkpt><trkpt lat="43.9337114" lon="12.7132115"><ele>48.0</ele><time>2026-04-25T13:36:51.937Z</time></trkpt><trkpt lat="43.9337346" lon="12.7133849"><ele>48.0</ele><time>2026-04-25T13:36:52.937Z</time></trkpt><trkpt lat="43.9337672" lon="12.7135569"><ele>48.0</ele><time>2026-04-25T13:36:53.938Z</time></trkpt><trkpt lat="43.9338097" lon="12.7137286"><ele>48.0</ele><time>2026-04-25T13:36:54.938Z</time></trkpt><trkpt lat="43.9338633" lon="12.7139006"><ele>48.0</ele><time>2026-04-25T13:36:55.938Z</time></trkpt><trkpt lat="43.933913" lon="12.7140707"><ele>48.75</ele><time>2026-04-25T13:36:56.937Z</time></trkpt><trkpt lat="43.9339609" lon="12.7142358"><ele>49.5</ele><time>2026-04-25T13:36:57.937Z</time></trkpt><trkpt lat="43.9340076" lon="12.7143977"><ele>50.25</ele><time>2026-04-25T13:36:58.938Z</time></trkpt><trkpt lat="43.9340498" lon="12.7145632"><ele>51.0</ele><time>2026-04-25T13:36:59.938Z</time></trkpt><trkpt lat="43.9340886" lon="12.7147229"><ele>51.25</ele><time>2026-04-25T13:37:00.938Z</time></trkpt><trkpt lat="43.9341057" lon="12.7148799"><ele>51.5</ele><time>2026-04-25T13:37:01.937Z</time></trkpt><trkpt lat="43.9340862" lon="12.7150373"><ele>51.75</ele><time>2026-04-25T13:37:02.937Z</time></trkpt><trkpt lat="43.9340489" lon="12.7151915"><ele>52.0</ele><time>2026-04-25T13:37:03.937Z</time></trkpt><trkpt lat="43.9340085" lon="12.7153445"><ele>51.2</ele><time>2026-04-25T13:37:04.937Z</time></trkpt><trkpt lat="43.9339631" lon="12.715492"><ele>50.400000000000006</ele><time>2026-04-25T13:37:05.938Z</time></trkpt><trkpt lat="43.9339299" lon="12.7156354"><ele>49.599999999999994</ele><time>2026-04-25T13:37:06.938Z</time></trkpt><trkpt lat="43.9339197" lon="12.715768"><ele>48.8</ele><time>2026-04-25T13:37:07.938Z</time></trkpt><trkpt lat="43.9339471" lon="12.7158821"><ele>48.0</ele><time>2026-04-25T13:37:08.938Z</time></trkpt><trkpt lat="43.934003" lon="12.7159736"><ele>48.0</ele><time>2026-04-25T13:37:09.937Z</time></trkpt><trkpt lat="43.934066" lon="12.7160386"><ele>48.0</ele><time>2026-04-25T13:37:10.937Z</time></trkpt><trkpt lat="43.9341382" lon="12.7160847"><ele>48.0</ele><time>2026-04-25T13:37:11.937Z</time></trkpt><trkpt lat="43.9342249" lon="12.7160796"><ele>48.0</ele><time>2026-04-25T13:37:12.936Z</time></trkpt><trkpt lat="43.934304" lon="12.7159879"><ele>48.0</ele><time>2026-04-25T13:37:13.937Z</time></trkpt><trkpt lat="43.9343635" lon="12.7158425"><ele>45.5</ele><time>2026-04-25T13:37:14.937Z</time></trkpt><trkpt lat="43.9344005" lon="12.7156975"><ele>43.0</ele><time>2026-04-25T13:37:15.937Z</time></trkpt><trkpt lat="43.9344306" lon="12.7155374"><ele>40.5</ele><time>2026-04-25T13:37:16.936Z</time></trkpt><trkpt lat="43.9344588" lon="12.7153699"><ele>38.0</ele><time>2026-04-25T13:37:17.937Z</time></trkpt><trkpt lat="43.9344876" lon="12.7151941"><ele>38.0</ele><time>2026-04-25T13:37:18.936Z</time></trkpt><trkpt lat="43.9345192" lon="12.7150178"><ele>38.0</ele><time>2026-04-25T13:37:19.937Z</time></trkpt><trkpt lat="43.9345514" lon="12.7148455"><ele>38.0</ele><time>2026-04-25T13:37:20.937Z</time></trkpt><trkpt lat="43.9345805" lon="12.7146802"><ele>38.0</ele><time>2026-04-25T13:37:21.936Z</time></trkpt><trkpt lat="43.9346107" lon="12.7145401"><ele>38.0</ele><time>2026-04-25T13:37:22.937Z</time></trkpt><trkpt lat="43.9346474" lon="12.7144366"><ele>38.0</ele><time>2026-04-25T13:37:23.936Z</time></trkpt><trkpt lat="43.9347031" lon="12.7143882"><ele>38.0</ele><time>2026-04-25T13:37:24.937Z</time></trkpt><trkpt lat="43.9347663" lon="12.7143802"><ele>38.0</ele><time>2026-04-25T13:37:25.937Z</time></trkpt><trkpt lat="43.9348239" lon="12.7144166"><ele>38.0</ele><time>2026-04-25T13:37:26.937Z</time></trkpt><trkpt lat="43.9348711" lon="12.7145282"><ele>38.0</ele><time>2026-04-25T13:37:27.937Z</time></trkpt><trkpt lat="43.9349202" lon="12.7146564"><ele>38.0</ele><time>2026-04-25T13:37:28.937Z</time></trkpt><trkpt lat="43.9349804" lon="12.7147699"><ele>38.0</ele><time>2026-04-25T13:37:29.936Z</time></trkpt><trkpt lat="43.9350454" lon="12.7148715"><ele>38.0</ele><time>2026-04-25T13:37:30.937Z</time></trkpt><trkpt lat="43.9351233" lon="12.7149411"><ele>38.0</ele><time>2026-04-25T13:37:31.937Z</time></trkpt><trkpt lat="43.9352186" lon="12.7149703"><ele>38.0</ele><time>2026-04-25T13:37:32.937Z</time></trkpt><trkpt lat="43.9353272" lon="12.7149705"><ele>36.5</ele><time>2026-04-25T13:37:33.936Z</time></trkpt><trkpt lat="43.935443" lon="12.7149676"><ele>35.0</ele><time>2026-04-25T13:37:34.937Z</time></trkpt><trkpt lat="43.9355646" lon="12.7149637"><ele>33.5</ele><time>2026-04-25T13:37:35.937Z</time></trkpt><trkpt lat="43.9356847" lon="12.7149667"><ele>32.0</ele><time>2026-04-25T13:37:36.937Z</time></trkpt><trkpt lat="43.9358021" lon="12.7149779"><ele>31.6</ele><time>2026-04-25T13:37:37.937Z</time></trkpt><trkpt lat="43.9359136" lon="12.7149829"><ele>31.200000000000003</ele><time>2026-04-25T13:37:38.937Z</time></trkpt><trkpt lat="43.9360206" lon="12.7149827"><ele>30.8</ele><time>2026-04-25T13:37:39.937Z</time></trkpt><trkpt lat="43.9361198" lon="12.7149926"><ele>30.4</ele><time>2026-04-25T13:37:40.937Z</time></trkpt><trkpt lat="43.9362103" lon="12.7150078"><ele>30.0</ele><time>2026-04-25T13:37:41.937Z</time></trkpt><trkpt lat="43.9362728" lon="12.7150372"><ele>30.0</ele><time>2026-04-25T13:37:42.937Z</time></trkpt><trkpt lat="43.9363145" lon="12.7151072"><ele>30.0</ele><time>2026-04-25T13:37:44.936Z</time></trkpt><trkpt lat="43.9362897" lon="12.7151913"><ele>30.0</ele><time>2026-04-25T13:37:49.936Z</time></trkpt><trkpt lat="43.9362023" lon="12.7153106"><ele>30.0</ele><time>2026-04-25T13:37:51.937Z</time></trkpt><trkpt lat="43.9361372" lon="12.7153849"><ele>30.0</ele><time>2026-04-25T13:37:52.936Z</time></trkpt><trkpt lat="43.9360625" lon="12.715471"><ele>30.0</ele><time>2026-04-25T13:37:53.937Z</time></trkpt><trkpt lat="43.9359842" lon="12.7155619"><ele>30.0</ele><time>2026-04-25T13:37:54.937Z</time></trkpt><trkpt lat="43.9359051" lon="12.7156612"><ele>30.0</ele><time>2026-04-25T13:37:55.937Z</time></trkpt><trkpt lat="43.9358245" lon="12.7157632"><ele>30.0</ele><time>2026-04-25T13:37:56.937Z</time></trkpt><trkpt lat="43.9357424" lon="12.7158673"><ele>30.0</ele><time>2026-04-25T13:37:57.937Z</time></trkpt><trkpt lat="43.9356588" lon="12.7159768"><ele>30.0</ele><time>2026-04-25T13:37:58.937Z</time></trkpt><trkpt lat="43.9355724" lon="12.7160901"><ele>30.25</ele><time>2026-04-25T13:37:59.937Z</time></trkpt><trkpt lat="43.9354869" lon="12.7162015"><ele>30.5</ele><time>2026-04-25T13:38:00.937Z</time></trkpt><trkpt lat="43.9354019" lon="12.7163133"><ele>30.75</ele><time>2026-04-25T13:38:01.937Z</time></trkpt><trkpt lat="43.9353196" lon="12.7164273"><ele>31.0</ele><time>2026-04-25T13:38:02.936Z</time></trkpt><trkpt lat="43.9352414" lon="12.7165438"><ele>31.0</ele><time>2026-04-25T13:38:03.937Z</time></trkpt><trkpt lat="43.9351616" lon="12.7166574"><ele>31.0</ele><time>2026-04-25T13:38:04.937Z</time></trkpt><trkpt lat="43.9350775" lon="12.7167636"><ele>31.0</ele><time>2026-04-25T13:38:05.937Z</time></trkpt><trkpt lat="43.9349955" lon="12.7168704"><ele>31.0</ele><time>2026-04-25T13:38:06.936Z</time></trkpt><trkpt lat="43.9349168" lon="12.7169814"><ele>30.75</ele><time>2026-04-25T13:38:07.937Z</time></trkpt><trkpt lat="43.9348426" lon="12.7171001"><ele>30.5</ele><time>2026-04-25T13:38:08.936Z</time></trkpt><trkpt lat="43.9347652" lon="12.7172192"><ele>30.25</ele><time>2026-04-25T13:38:09.937Z</time></trkpt><trkpt lat="43.9346855" lon="12.7173393"><ele>30.0</ele><time>2026-04-25T13:38:10.936Z</time></trkpt><trkpt lat="43.9346096" lon="12.7174585"><ele>30.0</ele><time>2026-04-25T13:38:11.937Z</time></trkpt><trkpt lat="43.9345363" lon="12.7175772"><ele>30.0</ele><time>2026-04-25T13:38:12.937Z</time></trkpt><trkpt lat="43.934463" lon="12.7176968"><ele>30.0</ele><time>2026-04-25T13:38:13.937Z</time></trkpt><trkpt lat="43.9343884" lon="12.7178181"><ele>30.0</ele><time>2026-04-25T13:38:14.937Z</time></trkpt><trkpt lat="43.934312" lon="12.7179373"><ele>29.75</ele><time>2026-04-25T13:38:15.937Z</time></trkpt><trkpt lat="43.9342325" lon="12.7180574"><ele>29.5</ele><time>2026-04-25T13:38:16.936Z</time></trkpt><trkpt lat="43.9341517" lon="12.7181807"><ele>29.25</ele><time>2026-04-25T13:38:17.937Z</time></trkpt><trkpt lat="43.9340728" lon="12.7183038"><ele>29.0</ele><time>2026-04-25T13:38:18.937Z</time></trkpt><trkpt lat="43.9339943" lon="12.718427"><ele>29.0</ele><time>2026-04-25T13:38:19.937Z</time></trkpt><trkpt lat="43.9339201" lon="12.7185501"><ele>29.0</ele><time>2026-04-25T13:38:20.937Z</time></trkpt><trkpt lat="43.9338454" lon="12.7186677"><ele>29.0</ele><time>2026-04-25T13:38:21.936Z</time></trkpt><trkpt lat="43.9337751" lon="12.7187813"><ele>29.0</ele><time>2026-04-25T13:38:22.936Z</time></trkpt><trkpt lat="43.9337026" lon="12.7188911"><ele>29.0</ele><time>2026-04-25T13:38:23.936Z</time></trkpt><trkpt lat="43.9336295" lon="12.718998"><ele>28.799999999999997</ele><time>2026-04-25T13:38:24.937Z</time></trkpt><trkpt lat="43.9335602" lon="12.7191044"><ele>28.599999999999998</ele><time>2026-04-25T13:38:25.937Z</time></trkpt><trkpt lat="43.9334935" lon="12.7192078"><ele>28.4</ele><time>2026-04-25T13:38:26.936Z</time></trkpt><trkpt lat="43.9334319" lon="12.719304"><ele>28.2</ele><time>2026-04-25T13:38:27.937Z</time></trkpt><trkpt lat="43.9333826" lon="12.7193986"><ele>28.0</ele><time>2026-04-25T13:38:28.937Z</time></trkpt><trkpt lat="43.9333554" lon="12.7194894"><ele>27.833333333333336</ele><time>2026-04-25T13:38:29.937Z</time></trkpt><trkpt lat="43.9334056" lon="12.7196386"><ele>27.666666666666668</ele><time>2026-04-25T13:38:31.936Z</time></trkpt><trkpt lat="43.9334609" lon="12.7196965"><ele>27.5</ele><time>2026-04-25T13:38:32.937Z</time></trkpt><trkpt lat="43.9335182" lon="12.719765"><ele>27.333333333333336</ele><time>2026-04-25T13:38:33.936Z</time></trkpt><trkpt lat="43.9335709" lon="12.7198513"><ele>27.166666666666668</ele><time>2026-04-25T13:38:34.936Z</time></trkpt><trkpt lat="43.9336292" lon="12.7199435"><ele>27.0</ele><time>2026-04-25T13:38:35.937Z</time></trkpt><trkpt lat="43.9336902" lon="12.7200428"><ele>27.0</ele><time>2026-04-25T13:38:36.936Z</time></trkpt><trkpt lat="43.9337558" lon="12.7201436"><ele>27.000000000000004</ele><time>2026-04-25T13:38:37.937Z</time></trkpt><trkpt lat="43.9338297" lon="12.7202461"><ele>27.000000000000004</ele><time>2026-04-25T13:38:38.937Z</time></trkpt><trkpt lat="43.9339052" lon="12.7203529"><ele>27.0</ele><time>2026-04-25T13:38:39.937Z</time></trkpt><trkpt lat="43.9339848" lon="12.7204629"><ele>27.0</ele><time>2026-04-25T13:38:40.937Z</time></trkpt><trkpt lat="43.9340652" lon="12.720579"><ele>26.75</ele><time>2026-04-25T13:38:41.937Z</time></trkpt><trkpt lat="43.9341459" lon="12.7206988"><ele>26.5</ele><time>2026-04-25T13:38:42.937Z</time></trkpt><trkpt lat="43.9342286" lon="12.7208195"><ele>26.25</ele><time>2026-04-25T13:38:43.937Z</time></trkpt><trkpt lat="43.934305" lon="12.7209453"><ele>26.0</ele><time>2026-04-25T13:38:44.937Z</time></trkpt><trkpt lat="43.9343772" lon="12.7210709"><ele>25.5</ele><time>2026-04-25T13:38:45.937Z</time></trkpt><trkpt lat="43.9344514" lon="12.7212005"><ele>25.0</ele><time>2026-04-25T13:38:46.936Z</time></trkpt><trkpt lat="43.9345249" lon="12.7213355"><ele>24.5</ele><time>2026-04-25T13:38:47.937Z</time></trkpt><trkpt lat="43.9345952" lon="12.7214795"><ele>24.0</ele><time>2026-04-25T13:38:48.937Z</time></trkpt><trkpt lat="43.9346665" lon="12.7216238"><ele>24.0</ele><time>2026-04-25T13:38:49.937Z</time></trkpt><trkpt lat="43.9347401" lon="12.7217672"><ele>24.0</ele><time>2026-04-25T13:38:50.936Z</time></trkpt><trkpt lat="43.9348203" lon="12.7219039"><ele>24.0</ele><time>2026-04-25T13:38:51.937Z</time></trkpt><trkpt lat="43.9348993" lon="12.7220403"><ele>24.0</ele><time>2026-04-25T13:38:52.937Z</time></trkpt><trkpt lat="43.9349725" lon="12.7221795"><ele>24.0</ele><time>2026-04-25T13:38:53.936Z</time></trkpt><trkpt lat="43.9350468" lon="12.722318"><ele>24.0</ele><time>2026-04-25T13:38:54.937Z</time></trkpt><trkpt lat="43.9351219" lon="12.7224573"><ele>24.0</ele><time>2026-04-25T13:38:55.937Z</time></trkpt><trkpt lat="43.9351967" lon="12.7225946"><ele>24.0</ele><time>2026-04-25T13:38:56.937Z</time></trkpt><trkpt lat="43.9352702" lon="12.7227286"><ele>24.0</ele><time>2026-04-25T13:38:57.937Z</time></trkpt><trkpt lat="43.9353404" lon="12.722862"><ele>24.0</ele><time>2026-04-25T13:38:58.937Z</time></trkpt><trkpt lat="43.9354115" lon="12.7229964"><ele>24.0</ele><time>2026-04-25T13:38:59.937Z</time></trkpt><trkpt lat="43.9354834" lon="12.7231301"><ele>24.0</ele><time>2026-04-25T13:39:00.937Z</time></trkpt><trkpt lat="43.9355609" lon="12.7232614"><ele>24.0</ele><time>2026-04-25T13:39:01.937Z</time></trkpt><trkpt lat="43.9356517" lon="12.7233795"><ele>24.0</ele><time>2026-04-25T13:39:02.937Z</time></trkpt><trkpt lat="43.9357481" lon="12.723489"><ele>24.0</ele><time>2026-04-25T13:39:03.937Z</time></trkpt><trkpt lat="43.9358495" lon="12.7235891"><ele>24.0</ele><time>2026-04-25T13:39:04.937Z</time></trkpt><trkpt lat="43.9359517" lon="12.7236944"><ele>24.25</ele><time>2026-04-25T13:39:05.937Z</time></trkpt><trkpt lat="43.9360487" lon="12.7238078"><ele>24.5</ele><time>2026-04-25T13:39:06.936Z</time></trkpt><trkpt lat="43.9361349" lon="12.7239351"><ele>24.75</ele><time>2026-04-25T13:39:07.937Z</time></trkpt><trkpt lat="43.9362132" lon="12.7240699"><ele>25.0</ele><time>2026-04-25T13:39:08.936Z</time></trkpt><trkpt lat="43.9362791" lon="12.7242137"><ele>25.0</ele><time>2026-04-25T13:39:09.936Z</time></trkpt><trkpt lat="43.9363293" lon="12.7243692"><ele>25.0</ele><time>2026-04-25T13:39:10.937Z</time></trkpt><trkpt lat="43.9363634" lon="12.7245352"><ele>25.0</ele><time>2026-04-25T13:39:11.936Z</time></trkpt><trkpt lat="43.9363944" lon="12.7247042"><ele>25.0</ele><time>2026-04-25T13:39:12.936Z</time></trkpt><trkpt lat="43.9364251" lon="12.7248727"><ele>24.5</ele><time>2026-04-25T13:39:13.937Z</time></trkpt><trkpt lat="43.9364572" lon="12.7250412"><ele>24.0</ele><time>2026-04-25T13:39:14.937Z</time></trkpt><trkpt lat="43.9365006" lon="12.7252052"><ele>23.5</ele><time>2026-04-25T13:39:15.937Z</time></trkpt><trkpt lat="43.936559" lon="12.7253598"><ele>23.0</ele><time>2026-04-25T13:39:16.937Z</time></trkpt><trkpt lat="43.9366268" lon="12.7255101"><ele>23.25</ele><time>2026-04-25T13:39:17.937Z</time></trkpt><trkpt lat="43.9366976" lon="12.7256596"><ele>23.5</ele><time>2026-04-25T13:39:18.937Z</time></trkpt><trkpt lat="43.9367687" lon="12.7258119"><ele>23.75</ele><time>2026-04-25T13:39:19.937Z</time></trkpt><trkpt lat="43.9368355" lon="12.7259698"><ele>24.0</ele><time>2026-04-25T13:39:20.937Z</time></trkpt><trkpt lat="43.9368976" lon="12.7261313"><ele>23.5</ele><time>2026-04-25T13:39:21.937Z</time></trkpt><trkpt lat="43.9369535" lon="12.7262956"><ele>23.0</ele><time>2026-04-25T13:39:22.937Z</time></trkpt><trkpt lat="43.9370124" lon="12.7264598"><ele>22.5</ele><time>2026-04-25T13:39:23.937Z</time></trkpt><trkpt lat="43.9370753" lon="12.7266213"><ele>22.0</ele><time>2026-04-25T13:39:24.937Z</time></trkpt><trkpt lat="43.93714" lon="12.726782"><ele>22.0</ele><time>2026-04-25T13:39:25.936Z</time></trkpt><trkpt lat="43.9372078" lon="12.7269406"><ele>22.0</ele><time>2026-04-25T13:39:26.937Z</time></trkpt><trkpt lat="43.9372795" lon="12.7270971"><ele>22.0</ele><time>2026-04-25T13:39:27.936Z</time></trkpt><trkpt lat="43.937353" lon="12.7272535"><ele>22.0</ele><time>2026-04-25T13:39:28.937Z</time></trkpt><trkpt lat="43.9374279" lon="12.7274076"><ele>22.0</ele><time>2026-04-25T13:39:29.937Z</time></trkpt><trkpt lat="43.9375075" lon="12.7275562"><ele>22.0</ele><time>2026-04-25T13:39:30.936Z</time></trkpt><trkpt lat="43.9375888" lon="12.7277056"><ele>22.0</ele><time>2026-04-25T13:39:31.937Z</time></trkpt><trkpt lat="43.9376615" lon="12.727858"><ele>22.0</ele><time>2026-04-25T13:39:32.937Z</time></trkpt><trkpt lat="43.9377238" lon="12.7280139"><ele>22.0</ele><time>2026-04-25T13:39:33.937Z</time></trkpt><trkpt lat="43.9377837" lon="12.7281716"><ele>22.0</ele><time>2026-04-25T13:39:34.936Z</time></trkpt><trkpt lat="43.9378432" lon="12.7283309"><ele>22.0</ele><time>2026-04-25T13:39:35.937Z</time></trkpt><trkpt lat="43.9378969" lon="12.7284921"><ele>22.0</ele><time>2026-04-25T13:39:36.937Z</time></trkpt><trkpt lat="43.9379453" lon="12.7286583"><ele>22.0</ele><time>2026-04-25T13:39:37.937Z</time></trkpt><trkpt lat="43.937999" lon="12.7288242"><ele>22.0</ele><time>2026-04-25T13:39:38.937Z</time></trkpt><trkpt lat="43.9380552" lon="12.7289893"><ele>22.0</ele><time>2026-04-25T13:39:39.937Z</time></trkpt><trkpt lat="43.9381085" lon="12.7291576"><ele>22.0</ele><time>2026-04-25T13:39:40.937Z</time></trkpt><trkpt lat="43.938165" lon="12.7293264"><ele>21.75</ele><time>2026-04-25T13:39:41.936Z</time></trkpt><trkpt lat="43.9382218" lon="12.7294951"><ele>21.5</ele><time>2026-04-25T13:39:42.937Z</time></trkpt><trkpt lat="43.9382801" lon="12.7296618"><ele>21.25</ele><time>2026-04-25T13:39:43.937Z</time></trkpt><trkpt lat="43.9383396" lon="12.7298284"><ele>21.0</ele><time>2026-04-25T13:39:44.937Z</time></trkpt><trkpt lat="43.9384002" lon="12.7299936"><ele>20.75</ele><time>2026-04-25T13:39:45.936Z</time></trkpt><trkpt lat="43.9384654" lon="12.7301532"><ele>20.5</ele><time>2026-04-25T13:39:46.937Z</time></trkpt><trkpt lat="43.9385337" lon="12.730308"><ele>20.25</ele><time>2026-04-25T13:39:47.937Z</time></trkpt><trkpt lat="43.9386042" lon="12.7304572"><ele>20.0</ele><time>2026-04-25T13:39:48.936Z</time></trkpt><trkpt lat="43.9386677" lon="12.7305989"><ele>20.0</ele><time>2026-04-25T13:39:49.937Z</time></trkpt><trkpt lat="43.9387258" lon="12.7307323"><ele>20.0</ele><time>2026-04-25T13:39:50.937Z</time></trkpt><trkpt lat="43.9387724" lon="12.7308631"><ele>20.0</ele><time>2026-04-25T13:39:51.937Z</time></trkpt><trkpt lat="43.9387964" lon="12.7309944"><ele>20.0</ele><time>2026-04-25T13:39:52.937Z</time></trkpt><trkpt lat="43.9388025" lon="12.7311199"><ele>20.0</ele><time>2026-04-25T13:39:53.937Z</time></trkpt><trkpt lat="43.9387766" lon="12.7312348"><ele>20.0</ele><time>2026-04-25T13:39:54.936Z</time></trkpt><trkpt lat="43.9387313" lon="12.7313369"><ele>20.0</ele><time>2026-04-25T13:39:55.937Z</time></trkpt><trkpt lat="43.9387019" lon="12.7314358"><ele>20.0</ele><time>2026-04-25T13:39:56.937Z</time></trkpt><trkpt lat="43.9387074" lon="12.7315314"><ele>20.0</ele><time>2026-04-25T13:39:57.937Z</time></trkpt><trkpt lat="43.9387459" lon="12.731618"><ele>20.0</ele><time>2026-04-25T13:39:58.937Z</time></trkpt><trkpt lat="43.9387994" lon="12.7316975"><ele>20.0</ele><time>2026-04-25T13:39:59.936Z</time></trkpt><trkpt lat="43.9388628" lon="12.7317741"><ele>20.0</ele><time>2026-04-25T13:40:00.937Z</time></trkpt><trkpt lat="43.9389471" lon="12.7318465"><ele>20.0</ele><time>2026-04-25T13:40:01.936Z</time></trkpt><trkpt lat="43.9390482" lon="12.7319152"><ele>20.0</ele><time>2026-04-25T13:40:02.937Z</time></trkpt><trkpt lat="43.9391519" lon="12.7319874"><ele>20.0</ele><time>2026-04-25T13:40:03.937Z</time></trkpt><trkpt lat="43.939258" lon="12.7320601"><ele>20.0</ele><time>2026-04-25T13:40:04.937Z</time></trkpt><trkpt lat="43.9393675" lon="12.7321335"><ele>19.25</ele><time>2026-04-25T13:40:05.937Z</time></trkpt><trkpt lat="43.9394757" lon="12.7322064"><ele>18.5</ele><time>2026-04-25T13:40:06.936Z</time></trkpt><trkpt lat="43.9395838" lon="12.7322839"><ele>17.75</ele><time>2026-04-25T13:40:07.936Z</time></trkpt><trkpt lat="43.9396936" lon="12.7323644"><ele>17.0</ele><time>2026-04-25T13:40:08.937Z</time></trkpt><trkpt lat="43.9398026" lon="12.7324589"><ele>17.0</ele><time>2026-04-25T13:40:09.937Z</time></trkpt><trkpt lat="43.9399054" lon="12.7325638"><ele>17.0</ele><time>2026-04-25T13:40:10.937Z</time></trkpt><trkpt lat="43.9399975" lon="12.7326826"><ele>17.0</ele><time>2026-04-25T13:40:11.936Z</time></trkpt><trkpt lat="43.9400873" lon="12.7328075"><ele>17.0</ele><time>2026-04-25T13:40:12.937Z</time></trkpt><trkpt lat="43.9401792" lon="12.7329281"><ele>17.5</ele><time>2026-04-25T13:40:13.936Z</time></trkpt><trkpt lat="43.9402707" lon="12.7330476"><ele>18.0</ele><time>2026-04-25T13:40:14.937Z</time></trkpt><trkpt lat="43.9403623" lon="12.7331649"><ele>18.5</ele><time>2026-04-25T13:40:15.937Z</time></trkpt><trkpt lat="43.9404562" lon="12.7332779"><ele>19.0</ele><time>2026-04-25T13:40:16.937Z</time></trkpt><trkpt lat="43.940547" lon="12.7333923"><ele>19.0</ele><time>2026-04-25T13:40:17.936Z</time></trkpt><trkpt lat="43.940638" lon="12.7335081"><ele>19.0</ele><time>2026-04-25T13:40:18.937Z</time></trkpt><trkpt lat="43.9407312" lon="12.7336234"><ele>19.0</ele><time>2026-04-25T13:40:19.937Z</time></trkpt><trkpt lat="43.9408233" lon="12.7337426"><ele>19.0</ele><time>2026-04-25T13:40:20.936Z</time></trkpt><trkpt lat="43.9409122" lon="12.7338631"><ele>18.25</ele><time>2026-04-25T13:40:21.937Z</time></trkpt><trkpt lat="43.9409963" lon="12.7339859"><ele>17.5</ele><time>2026-04-25T13:40:22.937Z</time></trkpt><trkpt lat="43.9410809" lon="12.7341101"><ele>16.75</ele><time>2026-04-25T13:40:23.937Z</time></trkpt><trkpt lat="43.9411696" lon="12.7342285"><ele>16.0</ele><time>2026-04-25T13:40:24.937Z</time></trkpt><trkpt lat="43.9412564" lon="12.7343476"><ele>16.0</ele><time>2026-04-25T13:40:25.937Z</time></trkpt><trkpt lat="43.9413418" lon="12.7344712"><ele>16.0</ele><time>2026-04-25T13:40:26.937Z</time></trkpt><trkpt lat="43.9414269" lon="12.7345947"><ele>16.0</ele><time>2026-04-25T13:40:27.937Z</time></trkpt><trkpt lat="43.941513" lon="12.7347193"><ele>16.0</ele><time>2026-04-25T13:40:28.937Z</time></trkpt><trkpt lat="43.9415998" lon="12.7348457"><ele>16.0</ele><time>2026-04-25T13:40:29.937Z</time></trkpt><trkpt lat="43.9416868" lon="12.7349727"><ele>16.0</ele><time>2026-04-25T13:40:30.937Z</time></trkpt><trkpt lat="43.9417723" lon="12.735101"><ele>16.0</ele><time>2026-04-25T13:40:31.937Z</time></trkpt><trkpt lat="43.9418571" lon="12.7352281"><ele>16.0</ele><time>2026-04-25T13:40:32.937Z</time></trkpt><trkpt lat="43.9419421" lon="12.7353535"><ele>16.0</ele><time>2026-04-25T13:40:33.937Z</time></trkpt><trkpt lat="43.9420299" lon="12.7354769"><ele>16.0</ele><time>2026-04-25T13:40:34.937Z</time></trkpt><trkpt lat="43.9421153" lon="12.7356004"><ele>16.0</ele><time>2026-04-25T13:40:35.937Z</time></trkpt><trkpt lat="43.9422002" lon="12.7357251"><ele>16.0</ele><time>2026-04-25T13:40:36.937Z</time></trkpt><trkpt lat="43.9422867" lon="12.7358485"><ele>16.0</ele><time>2026-04-25T13:40:37.936Z</time></trkpt><trkpt lat="43.9423735" lon="12.7359705"><ele>16.0</ele><time>2026-04-25T13:40:38.937Z</time></trkpt><trkpt lat="43.9424561" lon="12.7360932"><ele>16.0</ele><time>2026-04-25T13:40:39.937Z</time></trkpt><trkpt lat="43.9425377" lon="12.736215"><ele>16.0</ele><time>2026-04-25T13:40:40.937Z</time></trkpt><trkpt lat="43.9426133" lon="12.73634"><ele>15.8</ele><time>2026-04-25T13:40:41.936Z</time></trkpt><trkpt lat="43.942695" lon="12.73646"><ele>15.600000000000001</ele><time>2026-04-25T13:40:42.937Z</time></trkpt><trkpt lat="43.9427733" lon="12.736575"><ele>15.4</ele><time>2026-04-25T13:40:43.937Z</time></trkpt><trkpt lat="43.942845" lon="12.736685"><ele>15.2</ele><time>2026-04-25T13:40:44.937Z</time></trkpt><trkpt lat="43.942915" lon="12.7367867"><ele>15.0</ele><time>2026-04-25T13:40:45.937Z</time></trkpt><trkpt lat="43.9429717" lon="12.7368783"><ele>14.833333333333334</ele><time>2026-04-25T13:40:46.937Z</time></trkpt><trkpt lat="43.9430117" lon="12.736955"><ele>14.666666666666668</ele><time>2026-04-25T13:40:47.937Z</time></trkpt><trkpt lat="43.9430767" lon="12.737105"><ele>14.5</ele><time>2026-04-25T13:40:49.936Z</time></trkpt><trkpt lat="43.943105" lon="12.7372017"><ele>14.333333333333334</ele><time>2026-04-25T13:40:50.937Z</time></trkpt><trkpt lat="43.943105" lon="12.73731"><ele>14.166666666666668</ele><time>2026-04-25T13:40:51.937Z</time></trkpt><trkpt lat="43.9430983" lon="12.73743"><ele>14.0</ele><time>2026-04-25T13:40:52.937Z</time></trkpt><trkpt lat="43.9431" lon="12.7375633"><ele>14.0</ele><time>2026-04-25T13:40:53.937Z</time></trkpt><trkpt lat="43.9431017" lon="12.73771"><ele>13.999999999999998</ele><time>2026-04-25T13:40:54.937Z</time></trkpt><trkpt lat="43.94312" lon="12.7378617"><ele>13.999999999999998</ele><time>2026-04-25T13:40:55.937Z</time></trkpt><trkpt lat="43.9431483" lon="12.7380133"><ele>14.0</ele><time>2026-04-25T13:40:56.937Z</time></trkpt><trkpt lat="43.9431767" lon="12.7381667"><ele>14.0</ele><time>2026-04-25T13:40:57.937Z</time></trkpt><trkpt lat="43.9432133" lon="12.73832"><ele>14.6</ele><time>2026-04-25T13:40:58.937Z</time></trkpt><trkpt lat="43.943245" lon="12.7384733"><ele>15.2</ele><time>2026-04-25T13:40:59.937Z</time></trkpt><trkpt lat="43.94327" lon="12.7386233"><ele>15.799999999999999</ele><time>2026-04-25T13:41:00.937Z</time></trkpt><trkpt lat="43.9432917" lon="12.7387717"><ele>16.4</ele><time>2026-04-25T13:41:01.936Z</time></trkpt><trkpt lat="43.9433083" lon="12.7389183"><ele>17.0</ele><time>2026-04-25T13:41:02.937Z</time></trkpt><trkpt lat="43.943325" lon="12.7390667"><ele>17.0</ele><time>2026-04-25T13:41:03.936Z</time></trkpt><trkpt lat="43.94334" lon="12.7392183"><ele>17.0</ele><time>2026-04-25T13:41:04.937Z</time></trkpt><trkpt lat="43.943345" lon="12.7393717"><ele>17.0</ele><time>2026-04-25T13:41:05.937Z</time></trkpt><trkpt lat="43.9433267" lon="12.7395267"><ele>17.0</ele><time>2026-04-25T13:41:06.937Z</time></trkpt><trkpt lat="43.9433083" lon="12.739685"><ele>17.0</ele><time>2026-04-25T13:41:07.937Z</time></trkpt><trkpt lat="43.9432933" lon="12.7398433"><ele>17.0</ele><time>2026-04-25T13:41:08.937Z</time></trkpt><trkpt lat="43.9432933" lon="12.7400017"><ele>17.0</ele><time>2026-04-25T13:41:09.937Z</time></trkpt><trkpt lat="43.94331" lon="12.74016"><ele>17.0</ele><time>2026-04-25T13:41:10.937Z</time></trkpt><trkpt lat="43.943345" lon="12.740315"><ele>17.0</ele><time>2026-04-25T13:41:11.936Z</time></trkpt><trkpt lat="43.9433933" lon="12.74046"><ele>17.0</ele><time>2026-04-25T13:41:12.937Z</time></trkpt><trkpt lat="43.943445" lon="12.7406033"><ele>17.0</ele><time>2026-04-25T13:41:13.936Z</time></trkpt><trkpt lat="43.9434983" lon="12.7407467"><ele>17.0</ele><time>2026-04-25T13:41:14.937Z</time></trkpt><trkpt lat="43.9435617" lon="12.740885"><ele>17.0</ele><time>2026-04-25T13:41:15.937Z</time></trkpt><trkpt lat="43.943625" lon="12.7410232"><ele>16.75</ele><time>2026-04-25T13:41:16.937Z</time></trkpt><trkpt lat="43.9436936" lon="12.7411538"><ele>16.5</ele><time>2026-04-25T13:41:17.937Z</time></trkpt><trkpt lat="43.9437723" lon="12.7412733"><ele>16.25</ele><time>2026-04-25T13:41:18.937Z</time></trkpt><trkpt lat="43.9438565" lon="12.7413878"><ele>16.0</ele><time>2026-04-25T13:41:19.937Z</time></trkpt><trkpt lat="43.9439432" lon="12.7414945"><ele>16.0</ele><time>2026-04-25T13:41:20.936Z</time></trkpt><trkpt lat="43.9440303" lon="12.7416002"><ele>16.0</ele><time>2026-04-25T13:41:21.937Z</time></trkpt><trkpt lat="43.9441188" lon="12.7417035"><ele>16.0</ele><time>2026-04-25T13:41:22.936Z</time></trkpt><trkpt lat="43.9442048" lon="12.7417971"><ele>16.0</ele><time>2026-04-25T13:41:23.937Z</time></trkpt><trkpt lat="43.9442867" lon="12.7418792"><ele>16.0</ele><time>2026-04-25T13:41:24.936Z</time></trkpt><trkpt lat="43.9443742" lon="12.7419311"><ele>15.600000000000001</ele><time>2026-04-25T13:41:25.936Z</time></trkpt><trkpt lat="43.9444648" lon="12.7419466"><ele>15.200000000000001</ele><time>2026-04-25T13:41:26.937Z</time></trkpt><trkpt lat="43.9445564" lon="12.7419134"><ele>14.799999999999999</ele><time>2026-04-25T13:41:27.937Z</time></trkpt><trkpt lat="43.9446425" lon="12.7418342"><ele>14.399999999999999</ele><time>2026-04-25T13:41:28.937Z</time></trkpt><trkpt lat="43.9447205" lon="12.7417257"><ele>14.0</ele><time>2026-04-25T13:41:29.937Z</time></trkpt><trkpt lat="43.9448025" lon="12.7416165"><ele>14.25</ele><time>2026-04-25T13:41:30.937Z</time></trkpt><trkpt lat="43.9448925" lon="12.7415178"><ele>14.5</ele><time>2026-04-25T13:41:31.937Z</time></trkpt><trkpt lat="43.944986" lon="12.7414194"><ele>14.75</ele><time>2026-04-25T13:41:32.937Z</time></trkpt><trkpt lat="43.9450786" lon="12.7413149"><ele>15.0</ele><time>2026-04-25T13:41:33.936Z</time></trkpt><trkpt lat="43.9451702" lon="12.7412071"><ele>15.0</ele><time>2026-04-25T13:41:34.937Z</time></trkpt><trkpt lat="43.9452614" lon="12.7410985"><ele>15.0</ele><time>2026-04-25T13:41:35.937Z</time></trkpt><trkpt lat="43.9453559" lon="12.7409937"><ele>15.0</ele><time>2026-04-25T13:41:36.937Z</time></trkpt><trkpt lat="43.9454504" lon="12.7408911"><ele>15.0</ele><time>2026-04-25T13:41:37.937Z</time></trkpt><trkpt lat="43.945543" lon="12.7407891"><ele>15.0</ele><time>2026-04-25T13:41:38.936Z</time></trkpt><trkpt lat="43.9456358" lon="12.7406869"><ele>15.0</ele><time>2026-04-25T13:41:39.937Z</time></trkpt><trkpt lat="43.9457296" lon="12.7405875"><ele>15.0</ele><time>2026-04-25T13:41:40.936Z</time></trkpt><trkpt lat="43.9458256" lon="12.7404887"><ele>15.0</ele><time>2026-04-25T13:41:41.937Z</time></trkpt><trkpt lat="43.9459199" lon="12.7403889"><ele>15.0</ele><time>2026-04-25T13:41:42.937Z</time></trkpt><trkpt lat="43.9460134" lon="12.7402867"><ele>15.0</ele><time>2026-04-25T13:41:43.937Z</time></trkpt><trkpt lat="43.9461052" lon="12.7401821"><ele>15.0</ele><time>2026-04-25T13:41:44.937Z</time></trkpt><trkpt lat="43.9461917" lon="12.7400779"><ele>15.0</ele><time>2026-04-25T13:41:45.937Z</time></trkpt><trkpt lat="43.9462741" lon="12.739978"><ele>15.0</ele><time>2026-04-25T13:41:46.937Z</time></trkpt><trkpt lat="43.9463532" lon="12.7398817"><ele>15.0</ele><time>2026-04-25T13:41:47.937Z</time></trkpt><trkpt lat="43.9464297" lon="12.7397861"><ele>15.0</ele><time>2026-04-25T13:41:48.937Z</time></trkpt><trkpt lat="43.9465021" lon="12.7396981"><ele>15.0</ele><time>2026-04-25T13:41:49.937Z</time></trkpt><trkpt lat="43.9465751" lon="12.739647"><ele>15.0</ele><time>2026-04-25T13:41:50.936Z</time></trkpt><trkpt lat="43.9466439" lon="12.7396464"><ele>15.0</ele><time>2026-04-25T13:41:51.937Z</time></trkpt><trkpt lat="43.9467558" lon="12.7397274"><ele>15.0</ele><time>2026-04-25T13:41:53.936Z</time></trkpt><trkpt lat="43.9468063" lon="12.7398102"><ele>15.0</ele><time>2026-04-25T13:41:54.937Z</time></trkpt><trkpt lat="43.9468605" lon="12.7399033"><ele>15.0</ele><time>2026-04-25T13:41:55.936Z</time></trkpt><trkpt lat="43.9469292" lon="12.7400009"><ele>15.0</ele><time>2026-04-25T13:41:56.936Z</time></trkpt><trkpt lat="43.9470248" lon="12.7401231"><ele>15.25</ele><time>2026-04-25T13:41:57.937Z</time></trkpt><trkpt lat="43.9471311" lon="12.7402532"><ele>15.5</ele><time>2026-04-25T13:41:58.937Z</time></trkpt><trkpt lat="43.947237" lon="12.7403745"><ele>15.75</ele><time>2026-04-25T13:41:59.937Z</time></trkpt><trkpt lat="43.9473455" lon="12.7404942"><ele>16.0</ele><time>2026-04-25T13:42:00.937Z</time></trkpt><trkpt lat="43.9474531" lon="12.7406054"><ele>16.5</ele><time>2026-04-25T13:42:01.937Z</time></trkpt><trkpt lat="43.9475526" lon="12.7407187"><ele>17.0</ele><time>2026-04-25T13:42:02.937Z</time></trkpt><trkpt lat="43.9476464" lon="12.7408309"><ele>17.5</ele><time>2026-04-25T13:42:03.937Z</time></trkpt><trkpt lat="43.9477413" lon="12.7409398"><ele>18.0</ele><time>2026-04-25T13:42:04.937Z</time></trkpt><trkpt lat="43.947838" lon="12.7410435"><ele>17.5</ele><time>2026-04-25T13:42:05.937Z</time></trkpt><trkpt lat="43.9479413" lon="12.7411399"><ele>17.0</ele><time>2026-04-25T13:42:06.937Z</time></trkpt><trkpt lat="43.9480425" lon="12.7412382"><ele>16.5</ele><time>2026-04-25T13:42:07.937Z</time></trkpt><trkpt lat="43.9481446" lon="12.7413294"><ele>16.0</ele><time>2026-04-25T13:42:08.937Z</time></trkpt><trkpt lat="43.9482493" lon="12.7414179"><ele>16.0</ele><time>2026-04-25T13:42:09.937Z</time></trkpt><trkpt lat="43.9483531" lon="12.741514"><ele>16.0</ele><time>2026-04-25T13:42:10.937Z</time></trkpt><trkpt lat="43.9484555" lon="12.7416095"><ele>16.0</ele><time>2026-04-25T13:42:11.937Z</time></trkpt><trkpt lat="43.9485583" lon="12.7417088"><ele>16.0</ele><time>2026-04-25T13:42:12.937Z</time></trkpt><trkpt lat="43.9486588" lon="12.7418114"><ele>15.75</ele><time>2026-04-25T13:42:13.937Z</time></trkpt><trkpt lat="43.9487629" lon="12.7419052"><ele>15.5</ele><time>2026-04-25T13:42:14.937Z</time></trkpt><trkpt lat="43.9488664" lon="12.7419942"><ele>15.25</ele><time>2026-04-25T13:42:15.937Z</time></trkpt><trkpt lat="43.9489654" lon="12.7420826"><ele>15.0</ele><time>2026-04-25T13:42:16.937Z</time></trkpt><trkpt lat="43.9490579" lon="12.7421639"><ele>15.0</ele><time>2026-04-25T13:42:17.937Z</time></trkpt><trkpt lat="43.9491417" lon="12.7422392"><ele>15.0</ele><time>2026-04-25T13:42:18.937Z</time></trkpt><trkpt lat="43.9492092" lon="12.7423049"><ele>15.0</ele><time>2026-04-25T13:42:19.937Z</time></trkpt><trkpt lat="43.9492538" lon="12.7423817"><ele>15.0</ele><time>2026-04-25T13:42:20.937Z</time></trkpt><trkpt lat="43.9492854" lon="12.7424724"><ele>15.0</ele><time>2026-04-25T13:42:21.937Z</time></trkpt><trkpt lat="43.9493387" lon="12.7425452"><ele>15.0</ele><time>2026-04-25T13:42:22.937Z</time></trkpt><trkpt lat="43.94942" lon="12.7425933"><ele>15.0</ele><time>2026-04-25T13:42:23.936Z</time></trkpt><trkpt lat="43.9495067" lon="12.74265"><ele>15.0</ele><time>2026-04-25T13:42:24.937Z</time></trkpt><trkpt lat="43.949595" lon="12.7427283"><ele>15.0</ele><time>2026-04-25T13:42:25.937Z</time></trkpt><trkpt lat="43.9496817" lon="12.7428217"><ele>15.0</ele><time>2026-04-25T13:42:26.936Z</time></trkpt><trkpt lat="43.9497667" lon="12.742935"><ele>15.0</ele><time>2026-04-25T13:42:27.937Z</time></trkpt><trkpt lat="43.949855" lon="12.74305"><ele>15.0</ele><time>2026-04-25T13:42:28.937Z</time></trkpt><trkpt lat="43.9499467" lon="12.74317"><ele>15.0</ele><time>2026-04-25T13:42:29.936Z</time></trkpt><trkpt lat="43.950045" lon="12.743285"><ele>15.0</ele><time>2026-04-25T13:42:30.937Z</time></trkpt><trkpt lat="43.95014" lon="12.7434"><ele>15.0</ele><time>2026-04-25T13:42:31.937Z</time></trkpt><trkpt lat="43.95024" lon="12.743515"><ele>14.0</ele><time>2026-04-25T13:42:32.937Z</time></trkpt><trkpt lat="43.9503367" lon="12.7436367"><ele>13.0</ele><time>2026-04-25T13:42:33.937Z</time></trkpt><trkpt lat="43.9504317" lon="12.7437583"><ele>12.0</ele><time>2026-04-25T13:42:34.936Z</time></trkpt><trkpt lat="43.95053" lon="12.7438783"><ele>11.0</ele><time>2026-04-25T13:42:35.937Z</time></trkpt><trkpt lat="43.9506283" lon="12.744005"><ele>11.0</ele><time>2026-04-25T13:42:36.937Z</time></trkpt><trkpt lat="43.9507233" lon="12.74413"><ele>11.0</ele><time>2026-04-25T13:42:37.936Z</time></trkpt><trkpt lat="43.9508167" lon="12.7442533"><ele>11.0</ele><time>2026-04-25T13:42:38.937Z</time></trkpt><trkpt lat="43.950915" lon="12.7443717"><ele>11.0</ele><time>2026-04-25T13:42:39.937Z</time></trkpt><trkpt lat="43.9510067" lon="12.744485"><ele>11.200000000000001</ele><time>2026-04-25T13:42:40.937Z</time></trkpt><trkpt lat="43.9510933" lon="12.7445933"><ele>11.4</ele><time>2026-04-25T13:42:41.937Z</time></trkpt><trkpt lat="43.9511733" lon="12.7446883"><ele>11.6</ele><time>2026-04-25T13:42:42.937Z</time></trkpt><trkpt lat="43.9512383" lon="12.744775"><ele>11.8</ele><time>2026-04-25T13:42:43.937Z</time></trkpt><trkpt lat="43.9512883" lon="12.7448533"><ele>12.0</ele><time>2026-04-25T13:42:44.937Z</time></trkpt><trkpt lat="43.9512733" lon="12.7450367"><ele>12.0</ele><time>2026-04-25T13:42:46.937Z</time></trkpt><trkpt lat="43.9512467" lon="12.7451483"><ele>12.0</ele><time>2026-04-25T13:42:47.936Z</time></trkpt><trkpt lat="43.951195" lon="12.74526"><ele>12.0</ele><time>2026-04-25T13:42:48.936Z</time></trkpt><trkpt lat="43.9511233" lon="12.74537"><ele>12.0</ele><time>2026-04-25T13:42:49.937Z</time></trkpt><trkpt lat="43.9510667" lon="12.7454867"><ele>12.0</ele><time>2026-04-25T13:42:50.937Z</time></trkpt><trkpt lat="43.95102" lon="12.7456"><ele>12.0</ele><time>2026-04-25T13:42:51.936Z</time></trkpt><trkpt lat="43.950985" lon="12.7457017"><ele>12.0</ele><time>2026-04-25T13:42:52.937Z</time></trkpt><trkpt lat="43.9509883" lon="12.7457933"><ele>12.0</ele><time>2026-04-25T13:42:53.937Z</time></trkpt><trkpt lat="43.95104" lon="12.7458667"><ele>12.0</ele><time>2026-04-25T13:42:54.936Z</time></trkpt><trkpt lat="43.95111" lon="12.74593"><ele>12.0</ele><time>2026-04-25T13:42:55.937Z</time></trkpt><trkpt lat="43.9511933" lon="12.7459883"><ele>12.0</ele><time>2026-04-25T13:42:56.936Z</time></trkpt><trkpt lat="43.9512883" lon="12.7460467"><ele>11.6</ele><time>2026-04-25T13:42:57.936Z</time></trkpt><trkpt lat="43.95139" lon="12.7461067"><ele>11.2</ele><time>2026-04-25T13:42:58.936Z</time></trkpt><trkpt lat="43.9514933" lon="12.7461683"><ele>10.8</ele><time>2026-04-25T13:42:59.937Z</time></trkpt><trkpt lat="43.9515983" lon="12.7462217"><ele>10.4</ele><time>2026-04-25T13:43:00.937Z</time></trkpt><trkpt lat="43.9517033" lon="12.7462767"><ele>10.0</ele><time>2026-04-25T13:43:01.937Z</time></trkpt><trkpt lat="43.9518117" lon="12.7463217"><ele>9.8</ele><time>2026-04-25T13:43:02.937Z</time></trkpt><trkpt lat="43.951915" lon="12.7463617"><ele>9.6</ele><time>2026-04-25T13:43:03.936Z</time></trkpt><trkpt lat="43.9520183" lon="12.7464017"><ele>9.4</ele><time>2026-04-25T13:43:04.937Z</time></trkpt><trkpt lat="43.952115" lon="12.746455"><ele>9.2</ele><time>2026-04-25T13:43:05.937Z</time></trkpt><trkpt lat="43.9522033" lon="12.7465083"><ele>9.0</ele><time>2026-04-25T13:43:06.937Z</time></trkpt><trkpt lat="43.9522817" lon="12.7465767"><ele>9.0</ele><time>2026-04-25T13:43:07.937Z</time></trkpt><trkpt lat="43.9523583" lon="12.7466567"><ele>9.0</ele><time>2026-04-25T13:43:08.936Z</time></trkpt><trkpt lat="43.9524183" lon="12.7467583"><ele>9.0</ele><time>2026-04-25T13:43:09.936Z</time></trkpt><trkpt lat="43.9524717" lon="12.7468617"><ele>9.0</ele><time>2026-04-25T13:43:10.937Z</time></trkpt><trkpt lat="43.9525067" lon="12.7469733"><ele>9.0</ele><time>2026-04-25T13:43:11.937Z</time></trkpt><trkpt lat="43.9525267" lon="12.7470883"><ele>9.333333333333334</ele><time>2026-04-25T13:43:12.937Z</time></trkpt><trkpt lat="43.9525483" lon="12.7472117"><ele>9.666666666666666</ele><time>2026-04-25T13:43:13.937Z</time></trkpt><trkpt lat="43.9525567" lon="12.747335"><ele>10.0</ele><time>2026-04-25T13:43:14.937Z</time></trkpt><trkpt lat="43.95259" lon="12.7474433"><ele>10.333333333333332</ele><time>2026-04-25T13:43:15.937Z</time></trkpt><trkpt lat="43.9526467" lon="12.7475233"><ele>10.666666666666666</ele><time>2026-04-25T13:43:16.937Z</time></trkpt><trkpt lat="43.9527133" lon="12.7476017"><ele>11.0</ele><time>2026-04-25T13:43:17.937Z</time></trkpt><trkpt lat="43.9527567" lon="12.7476983"><ele>10.75</ele><time>2026-04-25T13:43:18.937Z</time></trkpt><trkpt lat="43.9528117" lon="12.7477833"><ele>10.5</ele><time>2026-04-25T13:43:19.937Z</time></trkpt><trkpt lat="43.953" lon="12.7478983"><ele>10.25</ele><time>2026-04-25T13:43:21.936Z</time></trkpt><trkpt lat="43.9530933" lon="12.7479433"><ele>10.0</ele><time>2026-04-25T13:43:22.937Z</time></trkpt><trkpt lat="43.9531767" lon="12.7480433"><ele>10.0</ele><time>2026-04-25T13:43:23.937Z</time></trkpt><trkpt lat="43.953265" lon="12.7480817"><ele>10.0</ele><time>2026-04-25T13:43:24.937Z</time></trkpt><trkpt lat="43.95335" lon="12.748105"><ele>10.0</ele><time>2026-04-25T13:43:25.936Z</time></trkpt><trkpt lat="43.95343" lon="12.74813"><ele>10.0</ele><time>2026-04-25T13:43:26.937Z</time></trkpt><trkpt lat="43.9535117" lon="12.7481717"><ele>10.0</ele><time>2026-04-25T13:43:27.937Z</time></trkpt><trkpt lat="43.9536033" lon="12.7482283"><ele>10.0</ele><time>2026-04-25T13:43:28.936Z</time></trkpt><trkpt lat="43.9537017" lon="12.7482917"><ele>10.0</ele><time>2026-04-25T13:43:29.937Z</time></trkpt><trkpt lat="43.9538033" lon="12.7483633"><ele>10.0</ele><time>2026-04-25T13:43:30.937Z</time></trkpt><trkpt lat="43.9539067" lon="12.74844"><ele>10.0</ele><time>2026-04-25T13:43:31.937Z</time></trkpt><trkpt lat="43.9540117" lon="12.7485233"><ele>10.0</ele><time>2026-04-25T13:43:32.937Z</time></trkpt><trkpt lat="43.954115" lon="12.7486133"><ele>10.25</ele><time>2026-04-25T13:43:33.937Z</time></trkpt><trkpt lat="43.9542183" lon="12.7487067"><ele>10.5</ele><time>2026-04-25T13:43:34.937Z</time></trkpt><trkpt lat="43.9543167" lon="12.7488117"><ele>10.75</ele><time>2026-04-25T13:43:35.937Z</time></trkpt><trkpt lat="43.9544117" lon="12.74893"><ele>11.0</ele><time>2026-04-25T13:43:36.937Z</time></trkpt><trkpt lat="43.9545017" lon="12.7490567"><ele>11.0</ele><time>2026-04-25T13:43:37.937Z</time></trkpt><trkpt lat="43.9545933" lon="12.7491833"><ele>11.0</ele><time>2026-04-25T13:43:38.937Z</time></trkpt><trkpt lat="43.95469" lon="12.7493017"><ele>11.0</ele><time>2026-04-25T13:43:39.936Z</time></trkpt><trkpt lat="43.9547833" lon="12.74942"><ele>11.0</ele><time>2026-04-25T13:43:40.937Z</time></trkpt><trkpt lat="43.9548783" lon="12.7495367"><ele>10.8</ele><time>2026-04-25T13:43:41.937Z</time></trkpt><trkpt lat="43.9549733" lon="12.7496467"><ele>10.600000000000001</ele><time>2026-04-25T13:43:42.937Z</time></trkpt><trkpt lat="43.9550617" lon="12.749745"><ele>10.4</ele><time>2026-04-25T13:43:43.937Z</time></trkpt><trkpt lat="43.9551533" lon="12.7498083"><ele>10.2</ele><time>2026-04-25T13:43:44.936Z</time></trkpt><trkpt lat="43.9552517" lon="12.7498083"><ele>10.0</ele><time>2026-04-25T13:43:45.936Z</time></trkpt><trkpt lat="43.9553383" lon="12.749765"><ele>10.0</ele><time>2026-04-25T13:43:46.937Z</time></trkpt><trkpt lat="43.9554033" lon="12.7496683"><ele>10.0</ele><time>2026-04-25T13:43:47.937Z</time></trkpt><trkpt lat="43.955455" lon="12.7495433"><ele>10.0</ele><time>2026-04-25T13:43:48.937Z</time></trkpt><trkpt lat="43.9555033" lon="12.74941"><ele>10.0</ele><time>2026-04-25T13:43:49.936Z</time></trkpt><trkpt lat="43.95556" lon="12.749275"><ele>10.0</ele><time>2026-04-25T13:43:50.937Z</time></trkpt><trkpt lat="43.95562" lon="12.7491333"><ele>10.0</ele><time>2026-04-25T13:43:51.936Z</time></trkpt><trkpt lat="43.95568" lon="12.7489967"><ele>10.0</ele><time>2026-04-25T13:43:52.937Z</time></trkpt><trkpt lat="43.955745" lon="12.7488667"><ele>10.0</ele><time>2026-04-25T13:43:53.937Z</time></trkpt><trkpt lat="43.9558033" lon="12.7487417"><ele>10.0</ele><time>2026-04-25T13:43:54.937Z</time></trkpt><trkpt lat="43.9558617" lon="12.7486183"><ele>10.0</ele><time>2026-04-25T13:43:55.937Z</time></trkpt><trkpt lat="43.9559183" lon="12.74849"><ele>10.166666666666668</ele><time>2026-04-25T13:43:56.936Z</time></trkpt><trkpt lat="43.9559717" lon="12.7483667"><ele>10.333333333333334</ele><time>2026-04-25T13:43:57.937Z</time></trkpt><trkpt lat="43.95602" lon="12.7482617"><ele>10.5</ele><time>2026-04-25T13:43:58.937Z</time></trkpt><trkpt lat="43.9560833" lon="12.7481983"><ele>10.666666666666666</ele><time>2026-04-25T13:43:59.937Z</time></trkpt><trkpt lat="43.9561583" lon="12.7481583"><ele>10.833333333333332</ele><time>2026-04-25T13:44:00.937Z</time></trkpt><trkpt lat="43.9562333" lon="12.748115"><ele>11.0</ele><time>2026-04-25T13:44:01.937Z</time></trkpt><trkpt lat="43.956315" lon="12.7480883"><ele>11.0</ele><time>2026-04-25T13:44:02.937Z</time></trkpt><trkpt lat="43.9564033" lon="12.7480917"><ele>11.0</ele><time>2026-04-25T13:44:03.936Z</time></trkpt><trkpt lat="43.9565" lon="12.7481133"><ele>11.0</ele><time>2026-04-25T13:44:04.936Z</time></trkpt><trkpt lat="43.9565933" lon="12.7481717"><ele>11.0</ele><time>2026-04-25T13:44:05.937Z</time></trkpt><trkpt lat="43.9566817" lon="12.7482667"><ele>11.0</ele><time>2026-04-25T13:44:06.937Z</time></trkpt><trkpt lat="43.9567767" lon="12.7483683"><ele>11.0</ele><time>2026-04-25T13:44:07.937Z</time></trkpt><trkpt lat="43.9568733" lon="12.7484717"><ele>11.0</ele><time>2026-04-25T13:44:08.937Z</time></trkpt><trkpt lat="43.9569683" lon="12.748575"><ele>11.0</ele><time>2026-04-25T13:44:09.936Z</time></trkpt><trkpt lat="43.9570667" lon="12.7486783"><ele>11.0</ele><time>2026-04-25T13:44:10.937Z</time></trkpt><trkpt lat="43.9571683" lon="12.7487783"><ele>10.5</ele><time>2026-04-25T13:44:11.937Z</time></trkpt><trkpt lat="43.9572683" lon="12.7488817"><ele>10.0</ele><time>2026-04-25T13:44:12.937Z</time></trkpt><trkpt lat="43.957365" lon="12.7489983"><ele>9.5</ele><time>2026-04-25T13:44:13.937Z</time></trkpt><trkpt lat="43.957455" lon="12.7491233"><ele>9.0</ele><time>2026-04-25T13:44:14.937Z</time></trkpt><trkpt lat="43.9575417" lon="12.7492517"><ele>8.5</ele><time>2026-04-25T13:44:15.937Z</time></trkpt><trkpt lat="43.95763" lon="12.74938"><ele>8.0</ele><time>2026-04-25T13:44:16.937Z</time></trkpt><trkpt lat="43.9577233" lon="12.7495017"><ele>7.5</ele><time>2026-04-25T13:44:17.937Z</time></trkpt><trkpt lat="43.9578283" lon="12.7496117"><ele>7.0</ele><time>2026-04-25T13:44:18.937Z</time></trkpt><trkpt lat="43.9579383" lon="12.7497133"><ele>7.0</ele><time>2026-04-25T13:44:19.937Z</time></trkpt><trkpt lat="43.9580467" lon="12.749815"><ele>7.0</ele><time>2026-04-25T13:44:20.937Z</time></trkpt><trkpt lat="43.9581467" lon="12.7499133"><ele>7.0</ele><time>2026-04-25T13:44:21.937Z</time></trkpt><trkpt lat="43.9582417" lon="12.749995"><ele>7.0</ele><time>2026-04-25T13:44:22.937Z</time></trkpt><trkpt lat="43.9583267" lon="12.7500683"><ele>7.0</ele><time>2026-04-25T13:44:23.936Z</time></trkpt><trkpt lat="43.9584067" lon="12.7501383"><ele>6.999999999999999</ele><time>2026-04-25T13:44:24.936Z</time></trkpt><trkpt lat="43.9584733" lon="12.7502083"><ele>6.999999999999999</ele><time>2026-04-25T13:44:25.937Z</time></trkpt><trkpt lat="43.95853" lon="12.7502683"><ele>7.0</ele><time>2026-04-25T13:44:26.938Z</time></trkpt><trkpt lat="43.95862" lon="12.750335"><ele>7.0</ele><time>2026-04-25T13:44:28.937Z</time></trkpt><trkpt lat="43.9587233" lon="12.7502883"><ele>7.0</ele><time>2026-04-25T13:44:30.938Z</time></trkpt><trkpt lat="43.9587867" lon="12.750245"><ele>6.999999999999999</ele><time>2026-04-25T13:44:31.937Z</time></trkpt><trkpt lat="43.958865" lon="12.75023"><ele>6.999999999999999</ele><time>2026-04-25T13:44:32.938Z</time></trkpt><trkpt lat="43.95896" lon="12.750235"><ele>7.0</ele><time>2026-04-25T13:44:33.937Z</time></trkpt><trkpt lat="43.9590633" lon="12.7502617"><ele>7.0</ele><time>2026-04-25T13:44:34.937Z</time></trkpt><trkpt lat="43.9591717" lon="12.750285"><ele>7.6</ele><time>2026-04-25T13:44:35.938Z</time></trkpt><trkpt lat="43.9592833" lon="12.750305"><ele>8.2</ele><time>2026-04-25T13:44:36.938Z</time></trkpt><trkpt lat="43.9593933" lon="12.7503317"><ele>8.8</ele><time>2026-04-25T13:44:37.938Z</time></trkpt><trkpt lat="43.9595033" lon="12.75036"><ele>9.4</ele><time>2026-04-25T13:44:38.938Z</time></trkpt><trkpt lat="43.95961" lon="12.75038"><ele>10.0</ele><time>2026-04-25T13:44:39.938Z</time></trkpt><trkpt lat="43.95971" lon="12.7503833"><ele>10.0</ele><time>2026-04-25T13:44:40.938Z</time></trkpt><trkpt lat="43.9598017" lon="12.7503567"><ele>10.0</ele><time>2026-04-25T13:44:41.938Z</time></trkpt><trkpt lat="43.9598817" lon="12.7503383"><ele>10.0</ele><time>2026-04-25T13:44:42.938Z</time></trkpt><trkpt lat="43.9599583" lon="12.7503417"><ele>10.0</ele><time>2026-04-25T13:44:43.938Z</time></trkpt><trkpt lat="43.96006" lon="12.75038"><ele>10.0</ele><time>2026-04-25T13:44:45.937Z</time></trkpt><trkpt lat="43.9601" lon="12.7504817"><ele>10.0</ele><time>2026-04-25T13:44:48.938Z</time></trkpt><trkpt lat="43.96006" lon="12.7506417"><ele>10.0</ele><time>2026-04-25T13:44:50.938Z</time></trkpt><trkpt lat="43.9600433" lon="12.7507483"><ele>10.0</ele><time>2026-04-25T13:44:51.938Z</time></trkpt><trkpt lat="43.96003" lon="12.7508583"><ele>10.0</ele><time>2026-04-25T13:44:52.938Z</time></trkpt><trkpt lat="43.9600183" lon="12.7509667"><ele>10.0</ele><time>2026-04-25T13:44:53.938Z</time></trkpt><trkpt lat="43.9600067" lon="12.7510783"><ele>10.0</ele><time>2026-04-25T13:44:54.938Z</time></trkpt><trkpt lat="43.959995" lon="12.75119"><ele>10.0</ele><time>2026-04-25T13:44:55.938Z</time></trkpt><trkpt lat="43.95998" lon="12.7513017"><ele>9.666666666666668</ele><time>2026-04-25T13:44:56.938Z</time></trkpt><trkpt lat="43.9599683" lon="12.751415"><ele>9.333333333333334</ele><time>2026-04-25T13:44:57.938Z</time></trkpt><trkpt lat="43.9599567" lon="12.7515267"><ele>9.0</ele><time>2026-04-25T13:44:58.938Z</time></trkpt><trkpt lat="43.959945" lon="12.75164"><ele>8.666666666666666</ele><time>2026-04-25T13:44:59.938Z</time></trkpt><trkpt lat="43.9599333" lon="12.751755"><ele>8.333333333333332</ele><time>2026-04-25T13:45:00.938Z</time></trkpt><trkpt lat="43.9599217" lon="12.7518633"><ele>8.0</ele><time>2026-04-25T13:45:01.938Z</time></trkpt><trkpt lat="43.9599067" lon="12.7519717"><ele>7.833333333333333</ele><time>2026-04-25T13:45:02.938Z</time></trkpt><trkpt lat="43.9598883" lon="12.75208"><ele>7.666666666666666</ele><time>2026-04-25T13:45:03.938Z</time></trkpt><trkpt lat="43.9598733" lon="12.7521917"><ele>7.5</ele><time>2026-04-25T13:45:04.937Z</time></trkpt><trkpt lat="43.95986" lon="12.752305"><ele>7.333333333333334</ele><time>2026-04-25T13:45:05.937Z</time></trkpt><trkpt lat="43.9598483" lon="12.7524233"><ele>7.166666666666667</ele><time>2026-04-25T13:45:06.938Z</time></trkpt><trkpt lat="43.9598367" lon="12.7525433"><ele>7.0</ele><time>2026-04-25T13:45:07.937Z</time></trkpt><trkpt lat="43.9598233" lon="12.7526667"><ele>6.3999999999999995</ele><time>2026-04-25T13:45:08.938Z</time></trkpt><trkpt lat="43.959815" lon="12.7527983"><ele>5.799999999999999</ele><time>2026-04-25T13:45:09.938Z</time></trkpt><trkpt lat="43.9598083" lon="12.7529267"><ele>5.2</ele><time>2026-04-25T13:45:10.937Z</time></trkpt><trkpt lat="43.9598" lon="12.75306"><ele>4.6</ele><time>2026-04-25T13:45:11.938Z</time></trkpt><trkpt lat="43.95979" lon="12.753195"><ele>4.0</ele><time>2026-04-25T13:45:12.938Z</time></trkpt><trkpt lat="43.9597767" lon="12.75333"><ele>4.0</ele><time>2026-04-25T13:45:13.938Z</time></trkpt><trkpt lat="43.9597683" lon="12.7534667"><ele>4.0</ele><time>2026-04-25T13:45:14.938Z</time></trkpt><trkpt lat="43.9597567" lon="12.7536017"><ele>4.0</ele><time>2026-04-25T13:45:15.938Z</time></trkpt><trkpt lat="43.959745" lon="12.753735"><ele>4.0</ele><time>2026-04-25T13:45:16.938Z</time></trkpt><trkpt lat="43.9597417" lon="12.7538717"><ele>4.0</ele><time>2026-04-25T13:45:17.938Z</time></trkpt><trkpt lat="43.9597333" lon="12.7540083"><ele>4.4</ele><time>2026-04-25T13:45:18.938Z</time></trkpt><trkpt lat="43.9597167" lon="12.7541417"><ele>4.800000000000001</ele><time>2026-04-25T13:45:19.938Z</time></trkpt><trkpt lat="43.9596967" lon="12.7542733"><ele>5.199999999999999</ele><time>2026-04-25T13:45:20.938Z</time></trkpt><trkpt lat="43.9596833" lon="12.7544033"><ele>5.6</ele><time>2026-04-25T13:45:21.938Z</time></trkpt><trkpt lat="43.9596767" lon="12.754535"><ele>6.0</ele><time>2026-04-25T13:45:22.938Z</time></trkpt><trkpt lat="43.9596667" lon="12.7546683"><ele>6.6</ele><time>2026-04-25T13:45:23.938Z</time></trkpt><trkpt lat="43.9596583" lon="12.7548"><ele>7.199999999999999</ele><time>2026-04-25T13:45:24.937Z</time></trkpt><trkpt lat="43.95965" lon="12.75493"><ele>7.800000000000001</ele><time>2026-04-25T13:45:25.938Z</time></trkpt><trkpt lat="43.9596367" lon="12.7550583"><ele>8.4</ele><time>2026-04-25T13:45:26.938Z</time></trkpt><trkpt lat="43.9596317" lon="12.7551867"><ele>9.0</ele><time>2026-04-25T13:45:27.938Z</time></trkpt><trkpt lat="43.9596233" lon="12.75531"><ele>9.0</ele><time>2026-04-25T13:45:28.937Z</time></trkpt><trkpt lat="43.959615" lon="12.75543"><ele>9.0</ele><time>2026-04-25T13:45:29.937Z</time></trkpt><trkpt lat="43.9596083" lon="12.75554"><ele>9.0</ele><time>2026-04-25T13:45:30.938Z</time></trkpt><trkpt lat="43.959605" lon="12.755645"><ele>9.0</ele><time>2026-04-25T13:45:31.937Z</time></trkpt><trkpt lat="43.9596" lon="12.75574"><ele>9.0</ele><time>2026-04-25T13:45:32.938Z</time></trkpt><trkpt lat="43.9595867" lon="12.75589"><ele>9.0</ele><time>2026-04-25T13:45:34.937Z</time></trkpt><trkpt lat="43.9595683" lon="12.75602"><ele>9.0</ele><time>2026-04-25T13:45:36.938Z</time></trkpt><trkpt lat="43.9595367" lon="12.7561417"><ele>9.0</ele><time>2026-04-25T13:45:38.938Z</time></trkpt><trkpt lat="43.9595133" lon="12.7562617"><ele>9.0</ele><time>2026-04-25T13:45:40.938Z</time></trkpt><trkpt lat="43.9595933" lon="12.7563117"><ele>9.0</ele><time>2026-04-25T13:45:42.938Z</time></trkpt><trkpt lat="43.9597233" lon="12.756305"><ele>9.0</ele><time>2026-04-25T13:45:44.937Z</time></trkpt><trkpt lat="43.9598117" lon="12.7563167"><ele>9.0</ele><time>2026-04-25T13:45:45.938Z</time></trkpt><trkpt lat="43.95991" lon="12.7563167"><ele>9.0</ele><time>2026-04-25T13:45:46.938Z</time></trkpt><trkpt lat="43.96001" lon="12.7563283"><ele>9.0</ele><time>2026-04-25T13:45:47.938Z</time></trkpt><trkpt lat="43.9601183" lon="12.75634"><ele>9.0</ele><time>2026-04-25T13:45:48.938Z</time></trkpt><trkpt lat="43.96023" lon="12.7563517"><ele>9.0</ele><time>2026-04-25T13:45:49.938Z</time></trkpt><trkpt lat="43.9603417" lon="12.7563733"><ele>9.0</ele><time>2026-04-25T13:45:50.938Z</time></trkpt><trkpt lat="43.960455" lon="12.75639"><ele>9.0</ele><time>2026-04-25T13:45:51.937Z</time></trkpt><trkpt lat="43.9605667" lon="12.7563983"><ele>9.0</ele><time>2026-04-25T13:45:52.937Z</time></trkpt><trkpt lat="43.9606767" lon="12.7564133"><ele>9.0</ele><time>2026-04-25T13:45:53.937Z</time></trkpt><trkpt lat="43.960785" lon="12.7564283"><ele>9.0</ele><time>2026-04-25T13:45:54.937Z</time></trkpt><trkpt lat="43.9608983" lon="12.7564383"><ele>8.2</ele><time>2026-04-25T13:45:55.937Z</time></trkpt><trkpt lat="43.9610067" lon="12.7564467"><ele>7.4</ele><time>2026-04-25T13:45:56.937Z</time></trkpt><trkpt lat="43.961115" lon="12.756455"><ele>6.6</ele><time>2026-04-25T13:45:57.937Z</time></trkpt><trkpt lat="43.9612183" lon="12.7564633"><ele>5.8</ele><time>2026-04-25T13:45:58.937Z</time></trkpt><trkpt lat="43.9613233" lon="12.7564667"><ele>5.0</ele><time>2026-04-25T13:45:59.937Z</time></trkpt><trkpt lat="43.9614283" lon="12.7564817"><ele>5.0</ele><time>2026-04-25T13:46:00.937Z</time></trkpt><trkpt lat="43.961535" lon="12.7564967"><ele>5.0</ele><time>2026-04-25T13:46:01.937Z</time></trkpt><trkpt lat="43.9616417" lon="12.7565067"><ele>5.0</ele><time>2026-04-25T13:46:02.937Z</time></trkpt><trkpt lat="43.9617467" lon="12.7565167"><ele>5.0</ele><time>2026-04-25T13:46:03.937Z</time></trkpt><trkpt lat="43.961845" lon="12.7565217"><ele>5.0</ele><time>2026-04-25T13:46:04.936Z</time></trkpt><trkpt lat="43.9619367" lon="12.7565283"><ele>5.166666666666667</ele><time>2026-04-25T13:46:05.937Z</time></trkpt><trkpt lat="43.9620233" lon="12.7565433"><ele>5.333333333333334</ele><time>2026-04-25T13:46:06.937Z</time></trkpt><trkpt lat="43.9621017" lon="12.7565567"><ele>5.5</ele><time>2026-04-25T13:46:07.937Z</time></trkpt><trkpt lat="43.9621733" lon="12.7565733"><ele>5.666666666666667</ele><time>2026-04-25T13:46:08.936Z</time></trkpt><trkpt lat="43.9622383" lon="12.7566033"><ele>5.833333333333333</ele><time>2026-04-25T13:46:09.937Z</time></trkpt><trkpt lat="43.96229" lon="12.756655"><ele>6.0</ele><time>2026-04-25T13:46:10.937Z</time></trkpt><trkpt lat="43.9623633" lon="12.7567617"><ele>6.0</ele><time>2026-04-25T13:46:12.937Z</time></trkpt><trkpt lat="43.9624367" lon="12.756805"><ele>6.0</ele><time>2026-04-25T13:46:14.937Z</time></trkpt><trkpt lat="43.9625267" lon="12.7567617"><ele>6.0</ele><time>2026-04-25T13:46:16.937Z</time></trkpt><trkpt lat="43.962585" lon="12.7567183"><ele>6.0</ele><time>2026-04-25T13:46:17.937Z</time></trkpt><trkpt lat="43.9626533" lon="12.7566817"><ele>6.0</ele><time>2026-04-25T13:46:18.937Z</time></trkpt><trkpt lat="43.9627267" lon="12.7566483"><ele>6.0</ele><time>2026-04-25T13:46:19.936Z</time></trkpt><trkpt lat="43.9628" lon="12.7566067"><ele>6.333333333333333</ele><time>2026-04-25T13:46:20.936Z</time></trkpt><trkpt lat="43.9628817" lon="12.7565833"><ele>6.666666666666666</ele><time>2026-04-25T13:46:21.936Z</time></trkpt><trkpt lat="43.9629683" lon="12.7565767"><ele>7.0</ele><time>2026-04-25T13:46:22.937Z</time></trkpt><trkpt lat="43.963055" lon="12.7565633"><ele>7.333333333333333</ele><time>2026-04-25T13:46:23.937Z</time></trkpt><trkpt lat="43.9631433" lon="12.7565467"><ele>7.666666666666666</ele><time>2026-04-25T13:46:24.937Z</time></trkpt><trkpt lat="43.9632283" lon="12.7565383"><ele>8.0</ele><time>2026-04-25T13:46:25.937Z</time></trkpt><trkpt lat="43.9633183" lon="12.75653"><ele>8.8</ele><time>2026-04-25T13:46:26.936Z</time></trkpt><trkpt lat="43.963415" lon="12.7565167"><ele>9.600000000000001</ele><time>2026-04-25T13:46:27.936Z</time></trkpt><trkpt lat="43.963515" lon="12.7565083"><ele>10.399999999999999</ele><time>2026-04-25T13:46:28.937Z</time></trkpt><trkpt lat="43.9636083" lon="12.7565017"><ele>11.2</ele><time>2026-04-25T13:46:29.937Z</time></trkpt><trkpt lat="43.9637033" lon="12.75649"><ele>12.0</ele><time>2026-04-25T13:46:30.937Z</time></trkpt><trkpt lat="43.9638" lon="12.75648"><ele>12.0</ele><time>2026-04-25T13:46:31.936Z</time></trkpt><trkpt lat="43.9638967" lon="12.7564633"><ele>12.0</ele><time>2026-04-25T13:46:32.936Z</time></trkpt><trkpt lat="43.963995" lon="12.756445"><ele>12.0</ele><time>2026-04-25T13:46:33.936Z</time></trkpt><trkpt lat="43.964095" lon="12.756435"><ele>12.0</ele><time>2026-04-25T13:46:34.937Z</time></trkpt><trkpt lat="43.9641983" lon="12.7564233"><ele>12.0</ele><time>2026-04-25T13:46:35.937Z</time></trkpt><trkpt lat="43.9642983" lon="12.7564117"><ele>12.6</ele><time>2026-04-25T13:46:36.937Z</time></trkpt><trkpt lat="43.9644" lon="12.7564033"><ele>13.2</ele><time>2026-04-25T13:46:37.937Z</time></trkpt><trkpt lat="43.9645017" lon="12.7563917"><ele>13.8</ele><time>2026-04-25T13:46:38.937Z</time></trkpt><trkpt lat="43.9646083" lon="12.756395"><ele>14.4</ele><time>2026-04-25T13:46:39.937Z</time></trkpt><trkpt lat="43.9647133" lon="12.7564133"><ele>15.0</ele><time>2026-04-25T13:46:40.937Z</time></trkpt><trkpt lat="43.964815" lon="12.75641"><ele>15.0</ele><time>2026-04-25T13:46:41.937Z</time></trkpt><trkpt lat="43.964915" lon="12.7564133"><ele>15.0</ele><time>2026-04-25T13:46:42.937Z</time></trkpt><trkpt lat="43.9650133" lon="12.7564283"><ele>15.0</ele><time>2026-04-25T13:46:43.937Z</time></trkpt><trkpt lat="43.9651117" lon="12.756445"><ele>15.0</ele><time>2026-04-25T13:46:44.937Z</time></trkpt><trkpt lat="43.9652117" lon="12.7564583"><ele>15.0</ele><time>2026-04-25T13:46:45.937Z</time></trkpt><trkpt lat="43.9653067" lon="12.7564683"><ele>14.2</ele><time>2026-04-25T13:46:46.937Z</time></trkpt><trkpt lat="43.9654017" lon="12.7564867"><ele>13.4</ele><time>2026-04-25T13:46:47.937Z</time></trkpt><trkpt lat="43.9654933" lon="12.7565083"><ele>12.600000000000001</ele><time>2026-04-25T13:46:48.936Z</time></trkpt><trkpt lat="43.965585" lon="12.7565333"><ele>11.8</ele><time>2026-04-25T13:46:49.937Z</time></trkpt><trkpt lat="43.9656767" lon="12.7565533"><ele>11.0</ele><time>2026-04-25T13:46:50.936Z</time></trkpt><trkpt lat="43.9657683" lon="12.756565"><ele>11.0</ele><time>2026-04-25T13:46:51.937Z</time></trkpt><trkpt lat="43.9658617" lon="12.7565783"><ele>11.0</ele><time>2026-04-25T13:46:52.937Z</time></trkpt><trkpt lat="43.9659533" lon="12.7566"><ele>11.0</ele><time>2026-04-25T13:46:53.937Z</time></trkpt><trkpt lat="43.966045" lon="12.756615"><ele>11.0</ele><time>2026-04-25T13:46:54.937Z</time></trkpt><trkpt lat="43.9661367" lon="12.75663"><ele>11.0</ele><time>2026-04-25T13:46:55.937Z</time></trkpt><trkpt lat="43.9662283" lon="12.7566467"><ele>10.666666666666666</ele><time>2026-04-25T13:46:56.937Z</time></trkpt><trkpt lat="43.9663233" lon="12.756665"><ele>10.333333333333332</ele><time>2026-04-25T13:46:57.936Z</time></trkpt><trkpt lat="43.9664117" lon="12.75669"><ele>10.0</ele><time>2026-04-25T13:46:58.937Z</time></trkpt><trkpt lat="43.96649" lon="12.7567117"><ele>9.666666666666666</ele><time>2026-04-25T13:46:59.936Z</time></trkpt><trkpt lat="43.966555" lon="12.7567417"><ele>9.333333333333334</ele><time>2026-04-25T13:47:00.936Z</time></trkpt><trkpt lat="43.96663" lon="12.756835"><ele>9.0</ele><time>2026-04-25T13:47:02.937Z</time></trkpt><trkpt lat="43.9666217" lon="12.75699"><ele>9.0</ele><time>2026-04-25T13:47:04.937Z</time></trkpt><trkpt lat="43.966575" lon="12.7571117"><ele>9.0</ele><time>2026-04-25T13:47:06.937Z</time></trkpt><trkpt lat="43.9665283" lon="12.7572633"><ele>9.0</ele><time>2026-04-25T13:47:08.937Z</time></trkpt><trkpt lat="43.966505" lon="12.7573567"><ele>9.0</ele><time>2026-04-25T13:47:09.936Z</time></trkpt><trkpt lat="43.9664867" lon="12.7574617"><ele>9.0</ele><time>2026-04-25T13:47:10.936Z</time></trkpt><trkpt lat="43.966465" lon="12.7575733"><ele>9.0</ele><time>2026-04-25T13:47:11.937Z</time></trkpt><trkpt lat="43.9664383" lon="12.7576867"><ele>9.0</ele><time>2026-04-25T13:47:12.937Z</time></trkpt><trkpt lat="43.9664" lon="12.7577983"><ele>9.0</ele><time>2026-04-25T13:47:13.937Z</time></trkpt><trkpt lat="43.966365" lon="12.7579117"><ele>9.0</ele><time>2026-04-25T13:47:14.937Z</time></trkpt><trkpt lat="43.9663383" lon="12.7580333"><ele>9.0</ele><time>2026-04-25T13:47:15.936Z</time></trkpt><trkpt lat="43.9663167" lon="12.7581533"><ele>9.0</ele><time>2026-04-25T13:47:16.937Z</time></trkpt><trkpt lat="43.9662867" lon="12.7582617"><ele>9.0</ele><time>2026-04-25T13:47:17.937Z</time></trkpt><trkpt lat="43.9662583" lon="12.7583633"><ele>9.0</ele><time>2026-04-25T13:47:18.937Z</time></trkpt><trkpt lat="43.9662367" lon="12.7584517"><ele>9.0</ele><time>2026-04-25T13:47:19.937Z</time></trkpt><trkpt lat="43.96622" lon="12.7586083"><ele>9.0</ele><time>2026-04-25T13:47:21.937Z</time></trkpt><trkpt lat="43.966305" lon="12.7587217"><ele>9.0</ele><time>2026-04-25T13:47:23.937Z</time></trkpt><trkpt lat="43.9663783" lon="12.758755"><ele>8.833333333333334</ele><time>2026-04-25T13:47:24.937Z</time></trkpt><trkpt lat="43.966455" lon="12.7587767"><ele>8.666666666666666</ele><time>2026-04-25T13:47:25.937Z</time></trkpt><trkpt lat="43.9665283" lon="12.758805"><ele>8.5</ele><time>2026-04-25T13:47:26.937Z</time></trkpt><trkpt lat="43.966605" lon="12.7588933"><ele>8.333333333333332</ele><time>2026-04-25T13:47:28.937Z</time></trkpt><trkpt lat="43.9666" lon="12.75904"><ele>8.166666666666666</ele><time>2026-04-25T13:47:30.937Z</time></trkpt><trkpt lat="43.9665817" lon="12.759135"><ele>8.0</ele><time>2026-04-25T13:47:31.937Z</time></trkpt><trkpt lat="43.966565" lon="12.759235"><ele>8.0</ele><time>2026-04-25T13:47:32.937Z</time></trkpt><trkpt lat="43.9665417" lon="12.7593333"><ele>7.999999999999999</ele><time>2026-04-25T13:47:33.937Z</time></trkpt><trkpt lat="43.9665267" lon="12.75943"><ele>8.0</ele><time>2026-04-25T13:47:34.937Z</time></trkpt><trkpt lat="43.96651" lon="12.759525"><ele>8.0</ele><time>2026-04-25T13:47:35.937Z</time></trkpt><trkpt lat="43.9664983" lon="12.759625"><ele>7.999999999999999</ele><time>2026-04-25T13:47:36.937Z</time></trkpt><trkpt lat="43.966485" lon="12.7597283"><ele>8.0</ele><time>2026-04-25T13:47:37.937Z</time></trkpt><trkpt lat="43.9664633" lon="12.7598317"><ele>8.0</ele><time>2026-04-25T13:47:38.937Z</time></trkpt><trkpt lat="43.9664383" lon="12.759935"><ele>7.499999999999999</ele><time>2026-04-25T13:47:39.937Z</time></trkpt><trkpt lat="43.9664083" lon="12.76004"><ele>7.0</ele><time>2026-04-25T13:47:40.937Z</time></trkpt><trkpt lat="43.9663767" lon="12.7601433"><ele>6.5</ele><time>2026-04-25T13:47:41.936Z</time></trkpt><trkpt lat="43.9663417" lon="12.760245"><ele>6.0</ele><time>2026-04-25T13:47:42.937Z</time></trkpt><trkpt lat="43.96631" lon="12.7603483"><ele>5.5</ele><time>2026-04-25T13:47:43.937Z</time></trkpt><trkpt lat="43.9662817" lon="12.7604483"><ele>5.0</ele><time>2026-04-25T13:47:44.936Z</time></trkpt><trkpt lat="43.9662533" lon="12.76055"><ele>4.857142857142857</ele><time>2026-04-25T13:47:45.937Z</time></trkpt><trkpt lat="43.966225" lon="12.760645"><ele>4.714285714285714</ele><time>2026-04-25T13:47:46.937Z</time></trkpt><trkpt lat="43.9661983" lon="12.7607367"><ele>4.571428571428571</ele><time>2026-04-25T13:47:47.937Z</time></trkpt><trkpt lat="43.96617" lon="12.760825"><ele>4.428571428571429</ele><time>2026-04-25T13:47:48.937Z</time></trkpt><trkpt lat="43.966145" lon="12.7609183"><ele>4.285714285714286</ele><time>2026-04-25T13:47:49.937Z</time></trkpt><trkpt lat="43.9661217" lon="12.7610133"><ele>4.142857142857142</ele><time>2026-04-25T13:47:50.936Z</time></trkpt><trkpt lat="43.9660967" lon="12.76111"><ele>4.0</ele><time>2026-04-25T13:47:51.937Z</time></trkpt><trkpt lat="43.9660667" lon="12.7611983"><ele>4.6</ele><time>2026-04-25T13:47:52.936Z</time></trkpt><trkpt lat="43.9660383" lon="12.76128"><ele>5.2</ele><time>2026-04-25T13:47:53.937Z</time></trkpt><trkpt lat="43.9659967" lon="12.76142"><ele>5.799999999999999</ele><time>2026-04-25T13:47:55.937Z</time></trkpt><trkpt lat="43.96598" lon="12.7615383"><ele>6.3999999999999995</ele><time>2026-04-25T13:47:57.937Z</time></trkpt><trkpt lat="43.966" lon="12.7616617"><ele>7.0</ele><time>2026-04-25T13:47:59.937Z</time></trkpt><trkpt lat="43.9660033" lon="12.761825"><ele>6.333333333333334</ele><time>2026-04-25T13:48:01.936Z</time></trkpt><trkpt lat="43.9660017" lon="12.7619233"><ele>5.666666666666667</ele><time>2026-04-25T13:48:02.937Z</time></trkpt><trkpt lat="43.96601" lon="12.7620283"><ele>5.0</ele><time>2026-04-25T13:48:03.937Z</time></trkpt><trkpt lat="43.9660383" lon="12.7621267"><ele>4.333333333333334</ele><time>2026-04-25T13:48:04.937Z</time></trkpt><trkpt lat="43.96608" lon="12.762215"><ele>3.666666666666667</ele><time>2026-04-25T13:48:05.936Z</time></trkpt><trkpt lat="43.9661217" lon="12.7623"><ele>3.0</ele><time>2026-04-25T13:48:06.936Z</time></trkpt><trkpt lat="43.9661633" lon="12.76239"><ele>3.0</ele><time>2026-04-25T13:48:07.937Z</time></trkpt><trkpt lat="43.9661917" lon="12.76249"><ele>3.0</ele><time>2026-04-25T13:48:08.937Z</time></trkpt><trkpt lat="43.9662017" lon="12.7625883"><ele>3.0</ele><time>2026-04-25T13:48:09.937Z</time></trkpt><trkpt lat="43.9661967" lon="12.762685"><ele>3.0</ele><time>2026-04-25T13:48:10.937Z</time></trkpt><trkpt lat="43.9661867" lon="12.762775"><ele>3.0</ele><time>2026-04-25T13:48:11.936Z</time></trkpt><trkpt lat="43.9661633" lon="12.7629283"><ele>3.0</ele><time>2026-04-25T13:48:13.937Z</time></trkpt><trkpt lat="43.9661467" lon="12.76304"><ele>2.0</ele><time>2026-04-25T13:48:15.936Z</time></trkpt><trkpt lat="43.9661317" lon="12.7631283"><ele>2.0</ele><time>2026-04-25T13:48:20.937Z</time></trkpt></trkseg></trk></gpx>